<?xml version="1.0" encoding="UTF-8" standalone="no" ?>
<gpx xmlns="http://www.topografix.com/GPX/1/1" xmlns:xsi="http://www.w3.org/2001/XMLSchema-instance" xsi:schemaLocation="http://www.topografix.com/GPX/1/1 http://www.topografix.com/GPX/1/1/gpx.xsd" version="1.1" creator="VisuGPX - https://www.visugpx.com">
  <metadata>
    <name>Boucle St-André, Mionnay, Civrieux</name>
  </metadata>
  <trk>
    <name><![CDATA[Sortie_gravel_dans_l_apr_s_midi]]></name>
    <trkseg>
      <trkpt lat="45.92737" lon="4.95773">
        <ele>291</ele>
        <time>2023-09-02T13:55:57Z</time>
      </trkpt>
      <trkpt lat="45.92735" lon="4.95775">
        <ele>291</ele>
        <time>2023-09-02T13:55:58Z</time>
      </trkpt>
      <trkpt lat="45.92732" lon="4.95778">
        <ele>291</ele>
        <time>2023-09-02T13:55:59Z</time>
      </trkpt>
      <trkpt lat="45.9273" lon="4.95781">
        <ele>291</ele>
        <time>2023-09-02T13:56:00Z</time>
      </trkpt>
      <trkpt lat="45.92727" lon="4.95785">
        <ele>291</ele>
        <time>2023-09-02T13:56:01Z</time>
      </trkpt>
      <trkpt lat="45.92724" lon="4.95788">
        <ele>291</ele>
        <time>2023-09-02T13:56:02Z</time>
      </trkpt>
      <trkpt lat="45.92722" lon="4.95792">
        <ele>291</ele>
        <time>2023-09-02T13:56:03Z</time>
      </trkpt>
      <trkpt lat="45.92719" lon="4.95795">
        <ele>291</ele>
        <time>2023-09-02T13:56:04Z</time>
      </trkpt>
      <trkpt lat="45.92716" lon="4.95799">
        <ele>290.9</ele>
        <time>2023-09-02T13:56:05Z</time>
      </trkpt>
      <trkpt lat="45.92714" lon="4.95802">
        <ele>290.9</ele>
        <time>2023-09-02T13:56:06Z</time>
      </trkpt>
      <trkpt lat="45.92712" lon="4.95807">
        <ele>290.9</ele>
        <time>2023-09-02T13:56:07Z</time>
      </trkpt>
      <trkpt lat="45.9271" lon="4.95811">
        <ele>290.9</ele>
        <time>2023-09-02T13:56:08Z</time>
      </trkpt>
      <trkpt lat="45.92707" lon="4.95816">
        <ele>290.9</ele>
        <time>2023-09-02T13:56:09Z</time>
      </trkpt>
      <trkpt lat="45.92706" lon="4.9582">
        <ele>290.9</ele>
        <time>2023-09-02T13:56:10Z</time>
      </trkpt>
      <trkpt lat="45.92705" lon="4.95825">
        <ele>290.9</ele>
        <time>2023-09-02T13:56:11Z</time>
      </trkpt>
      <trkpt lat="45.92703" lon="4.9583">
        <ele>290.9</ele>
        <time>2023-09-02T13:56:12Z</time>
      </trkpt>
      <trkpt lat="45.927" lon="4.95834">
        <ele>290.9</ele>
        <time>2023-09-02T13:56:13Z</time>
      </trkpt>
      <trkpt lat="45.92697" lon="4.95837">
        <ele>290.9</ele>
        <time>2023-09-02T13:56:14Z</time>
      </trkpt>
      <trkpt lat="45.92695" lon="4.95841">
        <ele>290.9</ele>
        <time>2023-09-02T13:56:15Z</time>
      </trkpt>
      <trkpt lat="45.92692" lon="4.95845">
        <ele>291</ele>
        <time>2023-09-02T13:56:16Z</time>
      </trkpt>
      <trkpt lat="45.9269" lon="4.95849">
        <ele>291</ele>
        <time>2023-09-02T13:56:17Z</time>
      </trkpt>
      <trkpt lat="45.92687" lon="4.95852">
        <ele>291</ele>
        <time>2023-09-02T13:56:18Z</time>
      </trkpt>
      <trkpt lat="45.92684" lon="4.95856">
        <ele>291</ele>
        <time>2023-09-02T13:56:19Z</time>
      </trkpt>
      <trkpt lat="45.92681" lon="4.95859">
        <ele>291</ele>
        <time>2023-09-02T13:56:20Z</time>
      </trkpt>
      <trkpt lat="45.92678" lon="4.95863">
        <ele>291</ele>
        <time>2023-09-02T13:56:21Z</time>
      </trkpt>
      <trkpt lat="45.92675" lon="4.95867">
        <ele>291</ele>
        <time>2023-09-02T13:56:22Z</time>
      </trkpt>
      <trkpt lat="45.92673" lon="4.95869">
        <ele>291</ele>
        <time>2023-09-02T13:56:23Z</time>
      </trkpt>
      <trkpt lat="45.9267" lon="4.95873">
        <ele>291</ele>
        <time>2023-09-02T13:56:24Z</time>
      </trkpt>
      <trkpt lat="45.92667" lon="4.95877">
        <ele>291.1</ele>
        <time>2023-09-02T13:56:25Z</time>
      </trkpt>
      <trkpt lat="45.92665" lon="4.9588">
        <ele>291.1</ele>
        <time>2023-09-02T13:56:26Z</time>
      </trkpt>
      <trkpt lat="45.92662" lon="4.95884">
        <ele>291.2</ele>
        <time>2023-09-02T13:56:27Z</time>
      </trkpt>
      <trkpt lat="45.9266" lon="4.95887">
        <ele>291.3</ele>
        <time>2023-09-02T13:56:28Z</time>
      </trkpt>
      <trkpt lat="45.92657" lon="4.95891">
        <ele>291.3</ele>
        <time>2023-09-02T13:56:29Z</time>
      </trkpt>
      <trkpt lat="45.92655" lon="4.95894">
        <ele>291.4</ele>
        <time>2023-09-02T13:56:30Z</time>
      </trkpt>
      <trkpt lat="45.92652" lon="4.95898">
        <ele>291.5</ele>
        <time>2023-09-02T13:56:31Z</time>
      </trkpt>
      <trkpt lat="45.9265" lon="4.95901">
        <ele>291.6</ele>
        <time>2023-09-02T13:56:32Z</time>
      </trkpt>
      <trkpt lat="45.92647" lon="4.95905">
        <ele>291.6</ele>
        <time>2023-09-02T13:56:33Z</time>
      </trkpt>
      <trkpt lat="45.92645" lon="4.95908">
        <ele>291.7</ele>
        <time>2023-09-02T13:56:34Z</time>
      </trkpt>
      <trkpt lat="45.92643" lon="4.95911">
        <ele>291.8</ele>
        <time>2023-09-02T13:56:35Z</time>
      </trkpt>
      <trkpt lat="45.92641" lon="4.95914">
        <ele>291.9</ele>
        <time>2023-09-02T13:56:36Z</time>
      </trkpt>
      <trkpt lat="45.92639" lon="4.95918">
        <ele>291.9</ele>
        <time>2023-09-02T13:56:37Z</time>
      </trkpt>
      <trkpt lat="45.92637" lon="4.95921">
        <ele>292</ele>
        <time>2023-09-02T13:56:38Z</time>
      </trkpt>
      <trkpt lat="45.92635" lon="4.95925">
        <ele>292.1</ele>
        <time>2023-09-02T13:56:39Z</time>
      </trkpt>
      <trkpt lat="45.92633" lon="4.95928">
        <ele>292.1</ele>
        <time>2023-09-02T13:56:40Z</time>
      </trkpt>
      <trkpt lat="45.92631" lon="4.95932">
        <ele>292.2</ele>
        <time>2023-09-02T13:56:41Z</time>
      </trkpt>
      <trkpt lat="45.9263" lon="4.95936">
        <ele>292.2</ele>
        <time>2023-09-02T13:56:42Z</time>
      </trkpt>
      <trkpt lat="45.92629" lon="4.9594">
        <ele>292.3</ele>
        <time>2023-09-02T13:56:43Z</time>
      </trkpt>
      <trkpt lat="45.92627" lon="4.95943">
        <ele>292.3</ele>
        <time>2023-09-02T13:56:44Z</time>
      </trkpt>
      <trkpt lat="45.92625" lon="4.95947">
        <ele>292.4</ele>
        <time>2023-09-02T13:56:45Z</time>
      </trkpt>
      <trkpt lat="45.92622" lon="4.9595">
        <ele>292.4</ele>
        <time>2023-09-02T13:56:46Z</time>
      </trkpt>
      <trkpt lat="45.92619" lon="4.95952">
        <ele>292.4</ele>
        <time>2023-09-02T13:56:47Z</time>
      </trkpt>
      <trkpt lat="45.92616" lon="4.95953">
        <ele>292.6</ele>
        <time>2023-09-02T13:56:48Z</time>
      </trkpt>
      <trkpt lat="45.92613" lon="4.95956">
        <ele>292.7</ele>
        <time>2023-09-02T13:56:49Z</time>
      </trkpt>
      <trkpt lat="45.92611" lon="4.95959">
        <ele>292.7</ele>
        <time>2023-09-02T13:56:50Z</time>
      </trkpt>
      <trkpt lat="45.92608" lon="4.95962">
        <ele>292.8</ele>
        <time>2023-09-02T13:56:51Z</time>
      </trkpt>
      <trkpt lat="45.92605" lon="4.95964">
        <ele>292.8</ele>
        <time>2023-09-02T13:56:52Z</time>
      </trkpt>
      <trkpt lat="45.92602" lon="4.95966">
        <ele>292.9</ele>
        <time>2023-09-02T13:56:53Z</time>
      </trkpt>
      <trkpt lat="45.92599" lon="4.95968">
        <ele>293.1</ele>
        <time>2023-09-02T13:56:54Z</time>
      </trkpt>
      <trkpt lat="45.92596" lon="4.9597">
        <ele>293.2</ele>
        <time>2023-09-02T13:56:55Z</time>
      </trkpt>
      <trkpt lat="45.92594" lon="4.95973">
        <ele>293.3</ele>
        <time>2023-09-02T13:56:56Z</time>
      </trkpt>
      <trkpt lat="45.92591" lon="4.95975">
        <ele>293.5</ele>
        <time>2023-09-02T13:56:57Z</time>
      </trkpt>
      <trkpt lat="45.92588" lon="4.95977">
        <ele>293.6</ele>
        <time>2023-09-02T13:56:58Z</time>
      </trkpt>
      <trkpt lat="45.92586" lon="4.95979">
        <ele>293.8</ele>
        <time>2023-09-02T13:56:59Z</time>
      </trkpt>
      <trkpt lat="45.92582" lon="4.95982">
        <ele>293.9</ele>
        <time>2023-09-02T13:57:00Z</time>
      </trkpt>
      <trkpt lat="45.92581" lon="4.95983">
        <ele>294</ele>
        <time>2023-09-02T13:57:01Z</time>
      </trkpt>
      <trkpt lat="45.92579" lon="4.95986">
        <ele>294.1</ele>
        <time>2023-09-02T13:57:02Z</time>
      </trkpt>
      <trkpt lat="45.92576" lon="4.95988">
        <ele>294.2</ele>
        <time>2023-09-02T13:57:03Z</time>
      </trkpt>
      <trkpt lat="45.92574" lon="4.9599">
        <ele>294.3</ele>
        <time>2023-09-02T13:57:04Z</time>
      </trkpt>
      <trkpt lat="45.92571" lon="4.95994">
        <ele>294.4</ele>
        <time>2023-09-02T13:57:05Z</time>
      </trkpt>
      <trkpt lat="45.9257" lon="4.95995">
        <ele>294.5</ele>
        <time>2023-09-02T13:57:06Z</time>
      </trkpt>
      <trkpt lat="45.92567" lon="4.95997">
        <ele>294.6</ele>
        <time>2023-09-02T13:57:07Z</time>
      </trkpt>
      <trkpt lat="45.92564" lon="4.95999">
        <ele>294.7</ele>
        <time>2023-09-02T13:57:08Z</time>
      </trkpt>
      <trkpt lat="45.92562" lon="4.96001">
        <ele>294.8</ele>
        <time>2023-09-02T13:57:09Z</time>
      </trkpt>
      <trkpt lat="45.92559" lon="4.96003">
        <ele>294.9</ele>
        <time>2023-09-02T13:57:10Z</time>
      </trkpt>
      <trkpt lat="45.92557" lon="4.96005">
        <ele>294.9</ele>
        <time>2023-09-02T13:57:11Z</time>
      </trkpt>
      <trkpt lat="45.92554" lon="4.96007">
        <ele>295</ele>
        <time>2023-09-02T13:57:12Z</time>
      </trkpt>
      <trkpt lat="45.92552" lon="4.96009">
        <ele>295.1</ele>
        <time>2023-09-02T13:57:13Z</time>
      </trkpt>
      <trkpt lat="45.92549" lon="4.96012">
        <ele>295.1</ele>
        <time>2023-09-02T13:57:14Z</time>
      </trkpt>
      <trkpt lat="45.92547" lon="4.96014">
        <ele>295.2</ele>
        <time>2023-09-02T13:57:15Z</time>
      </trkpt>
      <trkpt lat="45.92545" lon="4.96016">
        <ele>295.2</ele>
        <time>2023-09-02T13:57:16Z</time>
      </trkpt>
      <trkpt lat="45.92542" lon="4.96018">
        <ele>295.3</ele>
        <time>2023-09-02T13:57:17Z</time>
      </trkpt>
      <trkpt lat="45.9254" lon="4.96021">
        <ele>295.4</ele>
        <time>2023-09-02T13:57:18Z</time>
      </trkpt>
      <trkpt lat="45.92537" lon="4.96023">
        <ele>295.4</ele>
        <time>2023-09-02T13:57:19Z</time>
      </trkpt>
      <trkpt lat="45.92534" lon="4.96025">
        <ele>295.5</ele>
        <time>2023-09-02T13:57:20Z</time>
      </trkpt>
      <trkpt lat="45.92532" lon="4.96027">
        <ele>295.5</ele>
        <time>2023-09-02T13:57:21Z</time>
      </trkpt>
      <trkpt lat="45.92529" lon="4.96028">
        <ele>295.5</ele>
        <time>2023-09-02T13:57:22Z</time>
      </trkpt>
      <trkpt lat="45.92527" lon="4.9603">
        <ele>295.6</ele>
        <time>2023-09-02T13:57:23Z</time>
      </trkpt>
      <trkpt lat="45.92524" lon="4.96032">
        <ele>295.6</ele>
        <time>2023-09-02T13:57:24Z</time>
      </trkpt>
      <trkpt lat="45.92521" lon="4.96033">
        <ele>295.6</ele>
        <time>2023-09-02T13:57:25Z</time>
      </trkpt>
      <trkpt lat="45.92518" lon="4.96035">
        <ele>295.7</ele>
        <time>2023-09-02T13:57:26Z</time>
      </trkpt>
      <trkpt lat="45.92516" lon="4.96037">
        <ele>295.7</ele>
        <time>2023-09-02T13:57:27Z</time>
      </trkpt>
      <trkpt lat="45.92512" lon="4.96039">
        <ele>295.7</ele>
        <time>2023-09-02T13:57:28Z</time>
      </trkpt>
      <trkpt lat="45.92511" lon="4.9604">
        <ele>295.7</ele>
        <time>2023-09-02T13:57:29Z</time>
      </trkpt>
      <trkpt lat="45.92508" lon="4.96041">
        <ele>295.8</ele>
        <time>2023-09-02T13:57:30Z</time>
      </trkpt>
      <trkpt lat="45.92505" lon="4.96043">
        <ele>295.8</ele>
        <time>2023-09-02T13:57:31Z</time>
      </trkpt>
      <trkpt lat="45.92503" lon="4.96044">
        <ele>295.8</ele>
        <time>2023-09-02T13:57:32Z</time>
      </trkpt>
      <trkpt lat="45.925" lon="4.96046">
        <ele>295.8</ele>
        <time>2023-09-02T13:57:33Z</time>
      </trkpt>
      <trkpt lat="45.92498" lon="4.96048">
        <ele>295.8</ele>
        <time>2023-09-02T13:57:34Z</time>
      </trkpt>
      <trkpt lat="45.92495" lon="4.9605">
        <ele>295.8</ele>
        <time>2023-09-02T13:57:35Z</time>
      </trkpt>
      <trkpt lat="45.92492" lon="4.96052">
        <ele>295.8</ele>
        <time>2023-09-02T13:57:36Z</time>
      </trkpt>
      <trkpt lat="45.92489" lon="4.96054">
        <ele>295.8</ele>
        <time>2023-09-02T13:57:37Z</time>
      </trkpt>
      <trkpt lat="45.92486" lon="4.96055">
        <ele>295.8</ele>
        <time>2023-09-02T13:57:38Z</time>
      </trkpt>
      <trkpt lat="45.92483" lon="4.96057">
        <ele>295.8</ele>
        <time>2023-09-02T13:57:39Z</time>
      </trkpt>
      <trkpt lat="45.92481" lon="4.96059">
        <ele>295.8</ele>
        <time>2023-09-02T13:57:40Z</time>
      </trkpt>
      <trkpt lat="45.92477" lon="4.96061">
        <ele>295.8</ele>
        <time>2023-09-02T13:57:41Z</time>
      </trkpt>
      <trkpt lat="45.92475" lon="4.96063">
        <ele>295.8</ele>
        <time>2023-09-02T13:57:42Z</time>
      </trkpt>
      <trkpt lat="45.92471" lon="4.96064">
        <ele>295.8</ele>
        <time>2023-09-02T13:57:43Z</time>
      </trkpt>
      <trkpt lat="45.92468" lon="4.96065">
        <ele>295.8</ele>
        <time>2023-09-02T13:57:44Z</time>
      </trkpt>
      <trkpt lat="45.92465" lon="4.96066">
        <ele>295.8</ele>
        <time>2023-09-02T13:57:45Z</time>
      </trkpt>
      <trkpt lat="45.92462" lon="4.96068">
        <ele>295.8</ele>
        <time>2023-09-02T13:57:46Z</time>
      </trkpt>
      <trkpt lat="45.92458" lon="4.96069">
        <ele>295.8</ele>
        <time>2023-09-02T13:57:47Z</time>
      </trkpt>
      <trkpt lat="45.92455" lon="4.96069">
        <ele>295.7</ele>
        <time>2023-09-02T13:57:48Z</time>
      </trkpt>
      <trkpt lat="45.92452" lon="4.9607">
        <ele>295.7</ele>
        <time>2023-09-02T13:57:49Z</time>
      </trkpt>
      <trkpt lat="45.92448" lon="4.96071">
        <ele>295.6</ele>
        <time>2023-09-02T13:57:50Z</time>
      </trkpt>
      <trkpt lat="45.92445" lon="4.96072">
        <ele>295.6</ele>
        <time>2023-09-02T13:57:51Z</time>
      </trkpt>
      <trkpt lat="45.92442" lon="4.96073">
        <ele>295.5</ele>
        <time>2023-09-02T13:57:52Z</time>
      </trkpt>
      <trkpt lat="45.92438" lon="4.96073">
        <ele>295.5</ele>
        <time>2023-09-02T13:57:53Z</time>
      </trkpt>
      <trkpt lat="45.92435" lon="4.96074">
        <ele>295.4</ele>
        <time>2023-09-02T13:57:54Z</time>
      </trkpt>
      <trkpt lat="45.92431" lon="4.96075">
        <ele>295.3</ele>
        <time>2023-09-02T13:57:55Z</time>
      </trkpt>
      <trkpt lat="45.92427" lon="4.96077">
        <ele>295.3</ele>
        <time>2023-09-02T13:57:56Z</time>
      </trkpt>
      <trkpt lat="45.92424" lon="4.96078">
        <ele>295.2</ele>
        <time>2023-09-02T13:57:57Z</time>
      </trkpt>
      <trkpt lat="45.92421" lon="4.9608">
        <ele>295.2</ele>
        <time>2023-09-02T13:57:58Z</time>
      </trkpt>
      <trkpt lat="45.92417" lon="4.96081">
        <ele>295.2</ele>
        <time>2023-09-02T13:57:59Z</time>
      </trkpt>
      <trkpt lat="45.92414" lon="4.96082">
        <ele>295.1</ele>
        <time>2023-09-02T13:58:00Z</time>
      </trkpt>
      <trkpt lat="45.9241" lon="4.96083">
        <ele>295.1</ele>
        <time>2023-09-02T13:58:01Z</time>
      </trkpt>
      <trkpt lat="45.92406" lon="4.96083">
        <ele>295</ele>
        <time>2023-09-02T13:58:02Z</time>
      </trkpt>
      <trkpt lat="45.92403" lon="4.96084">
        <ele>295</ele>
        <time>2023-09-02T13:58:03Z</time>
      </trkpt>
      <trkpt lat="45.92399" lon="4.96084">
        <ele>295</ele>
        <time>2023-09-02T13:58:04Z</time>
      </trkpt>
      <trkpt lat="45.92395" lon="4.96085">
        <ele>295</ele>
        <time>2023-09-02T13:58:05Z</time>
      </trkpt>
      <trkpt lat="45.92391" lon="4.96086">
        <ele>295</ele>
        <time>2023-09-02T13:58:06Z</time>
      </trkpt>
      <trkpt lat="45.92388" lon="4.96087">
        <ele>295</ele>
        <time>2023-09-02T13:58:07Z</time>
      </trkpt>
      <trkpt lat="45.92384" lon="4.96087">
        <ele>295</ele>
        <time>2023-09-02T13:58:08Z</time>
      </trkpt>
      <trkpt lat="45.92381" lon="4.96088">
        <ele>295</ele>
        <time>2023-09-02T13:58:09Z</time>
      </trkpt>
      <trkpt lat="45.92377" lon="4.96089">
        <ele>295</ele>
        <time>2023-09-02T13:58:10Z</time>
      </trkpt>
      <trkpt lat="45.92374" lon="4.9609">
        <ele>295</ele>
        <time>2023-09-02T13:58:11Z</time>
      </trkpt>
      <trkpt lat="45.9237" lon="4.96091">
        <ele>295</ele>
        <time>2023-09-02T13:58:12Z</time>
      </trkpt>
      <trkpt lat="45.92367" lon="4.96092">
        <ele>295</ele>
        <time>2023-09-02T13:58:13Z</time>
      </trkpt>
      <trkpt lat="45.92364" lon="4.96093">
        <ele>295</ele>
        <time>2023-09-02T13:58:14Z</time>
      </trkpt>
      <trkpt lat="45.9236" lon="4.96095">
        <ele>295</ele>
        <time>2023-09-02T13:58:15Z</time>
      </trkpt>
      <trkpt lat="45.92357" lon="4.96096">
        <ele>295</ele>
        <time>2023-09-02T13:58:16Z</time>
      </trkpt>
      <trkpt lat="45.92354" lon="4.96098">
        <ele>295</ele>
        <time>2023-09-02T13:58:17Z</time>
      </trkpt>
      <trkpt lat="45.9235" lon="4.96099">
        <ele>295</ele>
        <time>2023-09-02T13:58:18Z</time>
      </trkpt>
      <trkpt lat="45.92347" lon="4.96101">
        <ele>295</ele>
        <time>2023-09-02T13:58:19Z</time>
      </trkpt>
      <trkpt lat="45.92344" lon="4.96103">
        <ele>295.1</ele>
        <time>2023-09-02T13:58:20Z</time>
      </trkpt>
      <trkpt lat="45.9234" lon="4.96105">
        <ele>295.1</ele>
        <time>2023-09-02T13:58:21Z</time>
      </trkpt>
      <trkpt lat="45.92338" lon="4.96108">
        <ele>295.1</ele>
        <time>2023-09-02T13:58:22Z</time>
      </trkpt>
      <trkpt lat="45.92334" lon="4.9611">
        <ele>295.1</ele>
        <time>2023-09-02T13:58:23Z</time>
      </trkpt>
      <trkpt lat="45.92331" lon="4.96112">
        <ele>295.1</ele>
        <time>2023-09-02T13:58:24Z</time>
      </trkpt>
      <trkpt lat="45.92328" lon="4.96114">
        <ele>295.1</ele>
        <time>2023-09-02T13:58:25Z</time>
      </trkpt>
      <trkpt lat="45.92324" lon="4.96116">
        <ele>295.1</ele>
        <time>2023-09-02T13:58:26Z</time>
      </trkpt>
      <trkpt lat="45.92321" lon="4.96118">
        <ele>295.2</ele>
        <time>2023-09-02T13:58:27Z</time>
      </trkpt>
      <trkpt lat="45.92318" lon="4.9612">
        <ele>295.2</ele>
        <time>2023-09-02T13:58:28Z</time>
      </trkpt>
      <trkpt lat="45.92315" lon="4.96122">
        <ele>295.2</ele>
        <time>2023-09-02T13:58:29Z</time>
      </trkpt>
      <trkpt lat="45.92311" lon="4.96123">
        <ele>295.2</ele>
        <time>2023-09-02T13:58:30Z</time>
      </trkpt>
      <trkpt lat="45.92308" lon="4.96125">
        <ele>295.3</ele>
        <time>2023-09-02T13:58:31Z</time>
      </trkpt>
      <trkpt lat="45.92305" lon="4.96127">
        <ele>295.3</ele>
        <time>2023-09-02T13:58:32Z</time>
      </trkpt>
      <trkpt lat="45.92302" lon="4.96128">
        <ele>295.3</ele>
        <time>2023-09-02T13:58:33Z</time>
      </trkpt>
      <trkpt lat="45.92298" lon="4.9613">
        <ele>295.4</ele>
        <time>2023-09-02T13:58:34Z</time>
      </trkpt>
      <trkpt lat="45.92295" lon="4.96131">
        <ele>295.4</ele>
        <time>2023-09-02T13:58:35Z</time>
      </trkpt>
      <trkpt lat="45.92292" lon="4.96132">
        <ele>295.5</ele>
        <time>2023-09-02T13:58:36Z</time>
      </trkpt>
      <trkpt lat="45.92289" lon="4.96133">
        <ele>295.5</ele>
        <time>2023-09-02T13:58:37Z</time>
      </trkpt>
      <trkpt lat="45.92286" lon="4.96135">
        <ele>295.5</ele>
        <time>2023-09-02T13:58:38Z</time>
      </trkpt>
      <trkpt lat="45.92282" lon="4.96136">
        <ele>295.6</ele>
        <time>2023-09-02T13:58:39Z</time>
      </trkpt>
      <trkpt lat="45.92279" lon="4.96137">
        <ele>295.6</ele>
        <time>2023-09-02T13:58:40Z</time>
      </trkpt>
      <trkpt lat="45.92276" lon="4.96139">
        <ele>295.7</ele>
        <time>2023-09-02T13:58:41Z</time>
      </trkpt>
      <trkpt lat="45.92273" lon="4.9614">
        <ele>295.7</ele>
        <time>2023-09-02T13:58:42Z</time>
      </trkpt>
      <trkpt lat="45.92269" lon="4.96141">
        <ele>295.8</ele>
        <time>2023-09-02T13:58:43Z</time>
      </trkpt>
      <trkpt lat="45.92266" lon="4.96142">
        <ele>295.9</ele>
        <time>2023-09-02T13:58:44Z</time>
      </trkpt>
      <trkpt lat="45.92263" lon="4.96143">
        <ele>295.9</ele>
        <time>2023-09-02T13:58:45Z</time>
      </trkpt>
      <trkpt lat="45.9226" lon="4.96144">
        <ele>296</ele>
        <time>2023-09-02T13:58:46Z</time>
      </trkpt>
      <trkpt lat="45.92257" lon="4.96141">
        <ele>296</ele>
        <time>2023-09-02T13:58:47Z</time>
      </trkpt>
      <trkpt lat="45.92253" lon="4.96146">
        <ele>296.1</ele>
        <time>2023-09-02T13:58:48Z</time>
      </trkpt>
      <trkpt lat="45.9225" lon="4.96147">
        <ele>296.1</ele>
        <time>2023-09-02T13:58:49Z</time>
      </trkpt>
      <trkpt lat="45.92247" lon="4.96148">
        <ele>296.1</ele>
        <time>2023-09-02T13:58:51Z</time>
      </trkpt>
      <trkpt lat="45.92244" lon="4.96148">
        <ele>296.1</ele>
        <time>2023-09-02T13:58:52Z</time>
      </trkpt>
      <trkpt lat="45.92241" lon="4.96149">
        <ele>296.1</ele>
        <time>2023-09-02T13:58:53Z</time>
      </trkpt>
      <trkpt lat="45.92238" lon="4.96151">
        <ele>296.1</ele>
        <time>2023-09-02T13:58:54Z</time>
      </trkpt>
      <trkpt lat="45.92235" lon="4.96152">
        <ele>296.1</ele>
        <time>2023-09-02T13:58:55Z</time>
      </trkpt>
      <trkpt lat="45.92232" lon="4.96153">
        <ele>296</ele>
        <time>2023-09-02T13:58:56Z</time>
      </trkpt>
      <trkpt lat="45.92228" lon="4.96154">
        <ele>296</ele>
        <time>2023-09-02T13:58:57Z</time>
      </trkpt>
      <trkpt lat="45.92225" lon="4.96156">
        <ele>295.9</ele>
        <time>2023-09-02T13:58:58Z</time>
      </trkpt>
      <trkpt lat="45.92221" lon="4.96157">
        <ele>295.7</ele>
        <time>2023-09-02T13:58:59Z</time>
      </trkpt>
      <trkpt lat="45.92217" lon="4.96159">
        <ele>295.6</ele>
        <time>2023-09-02T13:59:00Z</time>
      </trkpt>
      <trkpt lat="45.92212" lon="4.9616">
        <ele>295.4</ele>
        <time>2023-09-02T13:59:01Z</time>
      </trkpt>
      <trkpt lat="45.92208" lon="4.96161">
        <ele>295.2</ele>
        <time>2023-09-02T13:59:02Z</time>
      </trkpt>
      <trkpt lat="45.92203" lon="4.96163">
        <ele>295.1</ele>
        <time>2023-09-02T13:59:03Z</time>
      </trkpt>
      <trkpt lat="45.92199" lon="4.96164">
        <ele>294.9</ele>
        <time>2023-09-02T13:59:04Z</time>
      </trkpt>
      <trkpt lat="45.92194" lon="4.96165">
        <ele>294.7</ele>
        <time>2023-09-02T13:59:05Z</time>
      </trkpt>
      <trkpt lat="45.92189" lon="4.96167">
        <ele>294.6</ele>
        <time>2023-09-02T13:59:06Z</time>
      </trkpt>
      <trkpt lat="45.92184" lon="4.96168">
        <ele>294.4</ele>
        <time>2023-09-02T13:59:07Z</time>
      </trkpt>
      <trkpt lat="45.9218" lon="4.9617">
        <ele>294.3</ele>
        <time>2023-09-02T13:59:08Z</time>
      </trkpt>
      <trkpt lat="45.92175" lon="4.96172">
        <ele>294.2</ele>
        <time>2023-09-02T13:59:09Z</time>
      </trkpt>
      <trkpt lat="45.92171" lon="4.96174">
        <ele>294.1</ele>
        <time>2023-09-02T13:59:10Z</time>
      </trkpt>
      <trkpt lat="45.92166" lon="4.96176">
        <ele>294</ele>
        <time>2023-09-02T13:59:11Z</time>
      </trkpt>
      <trkpt lat="45.92162" lon="4.96178">
        <ele>293.9</ele>
        <time>2023-09-02T13:59:12Z</time>
      </trkpt>
      <trkpt lat="45.92158" lon="4.96181">
        <ele>293.8</ele>
        <time>2023-09-02T13:59:13Z</time>
      </trkpt>
      <trkpt lat="45.92154" lon="4.96183">
        <ele>293.7</ele>
        <time>2023-09-02T13:59:14Z</time>
      </trkpt>
      <trkpt lat="45.9215" lon="4.96186">
        <ele>293.6</ele>
        <time>2023-09-02T13:59:15Z</time>
      </trkpt>
      <trkpt lat="45.92146" lon="4.96189">
        <ele>293.6</ele>
        <time>2023-09-02T13:59:16Z</time>
      </trkpt>
      <trkpt lat="45.92143" lon="4.96192">
        <ele>293.5</ele>
        <time>2023-09-02T13:59:17Z</time>
      </trkpt>
      <trkpt lat="45.92139" lon="4.96196">
        <ele>293.5</ele>
        <time>2023-09-02T13:59:18Z</time>
      </trkpt>
      <trkpt lat="45.92132" lon="4.96204">
        <ele>293.4</ele>
        <time>2023-09-02T13:59:19Z</time>
      </trkpt>
      <trkpt lat="45.92129" lon="4.96208">
        <ele>293.4</ele>
        <time>2023-09-02T13:59:20Z</time>
      </trkpt>
      <trkpt lat="45.92126" lon="4.96212">
        <ele>293.4</ele>
        <time>2023-09-02T13:59:21Z</time>
      </trkpt>
      <trkpt lat="45.92122" lon="4.96216">
        <ele>293.4</ele>
        <time>2023-09-02T13:59:22Z</time>
      </trkpt>
      <trkpt lat="45.92119" lon="4.96219">
        <ele>293.3</ele>
        <time>2023-09-02T13:59:23Z</time>
      </trkpt>
      <trkpt lat="45.92116" lon="4.96223">
        <ele>293.3</ele>
        <time>2023-09-02T13:59:24Z</time>
      </trkpt>
      <trkpt lat="45.92113" lon="4.96228">
        <ele>293.3</ele>
        <time>2023-09-02T13:59:25Z</time>
      </trkpt>
      <trkpt lat="45.9211" lon="4.96231">
        <ele>293.2</ele>
        <time>2023-09-02T13:59:26Z</time>
      </trkpt>
      <trkpt lat="45.92106" lon="4.96235">
        <ele>293.2</ele>
        <time>2023-09-02T13:59:27Z</time>
      </trkpt>
      <trkpt lat="45.92103" lon="4.96239">
        <ele>293.2</ele>
        <time>2023-09-02T13:59:28Z</time>
      </trkpt>
      <trkpt lat="45.921" lon="4.96243">
        <ele>293.2</ele>
        <time>2023-09-02T13:59:29Z</time>
      </trkpt>
      <trkpt lat="45.92097" lon="4.96246">
        <ele>293.1</ele>
        <time>2023-09-02T13:59:30Z</time>
      </trkpt>
      <trkpt lat="45.92094" lon="4.9625">
        <ele>293.1</ele>
        <time>2023-09-02T13:59:31Z</time>
      </trkpt>
      <trkpt lat="45.9209" lon="4.96254">
        <ele>293.1</ele>
        <time>2023-09-02T13:59:32Z</time>
      </trkpt>
      <trkpt lat="45.92087" lon="4.96258">
        <ele>293.1</ele>
        <time>2023-09-02T13:59:33Z</time>
      </trkpt>
      <trkpt lat="45.92084" lon="4.96261">
        <ele>293.1</ele>
        <time>2023-09-02T13:59:34Z</time>
      </trkpt>
      <trkpt lat="45.92081" lon="4.96265">
        <ele>293.2</ele>
        <time>2023-09-02T13:59:35Z</time>
      </trkpt>
      <trkpt lat="45.92078" lon="4.96269">
        <ele>293.2</ele>
        <time>2023-09-02T13:59:36Z</time>
      </trkpt>
      <trkpt lat="45.92075" lon="4.96273">
        <ele>293.1</ele>
        <time>2023-09-02T13:59:37Z</time>
      </trkpt>
      <trkpt lat="45.92072" lon="4.96277">
        <ele>293.1</ele>
        <time>2023-09-02T13:59:38Z</time>
      </trkpt>
      <trkpt lat="45.92068" lon="4.96281">
        <ele>293.1</ele>
        <time>2023-09-02T13:59:39Z</time>
      </trkpt>
      <trkpt lat="45.92065" lon="4.96285">
        <ele>293.1</ele>
        <time>2023-09-02T13:59:40Z</time>
      </trkpt>
      <trkpt lat="45.92062" lon="4.96288">
        <ele>293.1</ele>
        <time>2023-09-02T13:59:41Z</time>
      </trkpt>
      <trkpt lat="45.92059" lon="4.96292">
        <ele>293.1</ele>
        <time>2023-09-02T13:59:42Z</time>
      </trkpt>
      <trkpt lat="45.92056" lon="4.96296">
        <ele>293.1</ele>
        <time>2023-09-02T13:59:43Z</time>
      </trkpt>
      <trkpt lat="45.92053" lon="4.963">
        <ele>293.1</ele>
        <time>2023-09-02T13:59:44Z</time>
      </trkpt>
      <trkpt lat="45.9205" lon="4.96304">
        <ele>293.1</ele>
        <time>2023-09-02T13:59:45Z</time>
      </trkpt>
      <trkpt lat="45.92046" lon="4.96307">
        <ele>293.1</ele>
        <time>2023-09-02T13:59:46Z</time>
      </trkpt>
      <trkpt lat="45.92043" lon="4.9631">
        <ele>293.1</ele>
        <time>2023-09-02T13:59:47Z</time>
      </trkpt>
      <trkpt lat="45.9204" lon="4.96314">
        <ele>293.2</ele>
        <time>2023-09-02T13:59:48Z</time>
      </trkpt>
      <trkpt lat="45.92037" lon="4.96318">
        <ele>293.2</ele>
        <time>2023-09-02T13:59:49Z</time>
      </trkpt>
      <trkpt lat="45.92034" lon="4.96322">
        <ele>293.2</ele>
        <time>2023-09-02T13:59:50Z</time>
      </trkpt>
      <trkpt lat="45.9203" lon="4.96326">
        <ele>293.2</ele>
        <time>2023-09-02T13:59:51Z</time>
      </trkpt>
      <trkpt lat="45.92027" lon="4.9633">
        <ele>293.2</ele>
        <time>2023-09-02T13:59:52Z</time>
      </trkpt>
      <trkpt lat="45.92024" lon="4.96333">
        <ele>293.2</ele>
        <time>2023-09-02T13:59:53Z</time>
      </trkpt>
      <trkpt lat="45.92021" lon="4.96338">
        <ele>293.2</ele>
        <time>2023-09-02T13:59:54Z</time>
      </trkpt>
      <trkpt lat="45.92018" lon="4.96341">
        <ele>293.2</ele>
        <time>2023-09-02T13:59:55Z</time>
      </trkpt>
      <trkpt lat="45.92015" lon="4.96345">
        <ele>293.3</ele>
        <time>2023-09-02T13:59:56Z</time>
      </trkpt>
      <trkpt lat="45.92012" lon="4.96348">
        <ele>293.3</ele>
        <time>2023-09-02T13:59:57Z</time>
      </trkpt>
      <trkpt lat="45.92009" lon="4.96352">
        <ele>293.2</ele>
        <time>2023-09-02T13:59:58Z</time>
      </trkpt>
      <trkpt lat="45.92006" lon="4.96356">
        <ele>293.2</ele>
        <time>2023-09-02T13:59:59Z</time>
      </trkpt>
      <trkpt lat="45.92003" lon="4.9636">
        <ele>293.2</ele>
        <time>2023-09-02T14:00:00Z</time>
      </trkpt>
      <trkpt lat="45.92" lon="4.96364">
        <ele>293.2</ele>
        <time>2023-09-02T14:00:01Z</time>
      </trkpt>
      <trkpt lat="45.91997" lon="4.96368">
        <ele>293.2</ele>
        <time>2023-09-02T14:00:02Z</time>
      </trkpt>
      <trkpt lat="45.91994" lon="4.96372">
        <ele>293.2</ele>
        <time>2023-09-02T14:00:03Z</time>
      </trkpt>
      <trkpt lat="45.91991" lon="4.96375">
        <ele>293.1</ele>
        <time>2023-09-02T14:00:04Z</time>
      </trkpt>
      <trkpt lat="45.91988" lon="4.96381">
        <ele>293.1</ele>
        <time>2023-09-02T14:00:05Z</time>
      </trkpt>
      <trkpt lat="45.91986" lon="4.96385">
        <ele>293.1</ele>
        <time>2023-09-02T14:00:06Z</time>
      </trkpt>
      <trkpt lat="45.91983" lon="4.9639">
        <ele>293.1</ele>
        <time>2023-09-02T14:00:07Z</time>
      </trkpt>
      <trkpt lat="45.91981" lon="4.96395">
        <ele>293</ele>
        <time>2023-09-02T14:00:08Z</time>
      </trkpt>
      <trkpt lat="45.91979" lon="4.96401">
        <ele>293</ele>
        <time>2023-09-02T14:00:09Z</time>
      </trkpt>
      <trkpt lat="45.91978" lon="4.96406">
        <ele>292.9</ele>
        <time>2023-09-02T14:00:10Z</time>
      </trkpt>
      <trkpt lat="45.91976" lon="4.96412">
        <ele>292.9</ele>
        <time>2023-09-02T14:00:11Z</time>
      </trkpt>
      <trkpt lat="45.91974" lon="4.96417">
        <ele>292.8</ele>
        <time>2023-09-02T14:00:12Z</time>
      </trkpt>
      <trkpt lat="45.91973" lon="4.96424">
        <ele>292.7</ele>
        <time>2023-09-02T14:00:13Z</time>
      </trkpt>
      <trkpt lat="45.91972" lon="4.9643">
        <ele>292.7</ele>
        <time>2023-09-02T14:00:14Z</time>
      </trkpt>
      <trkpt lat="45.9197" lon="4.96436">
        <ele>292.6</ele>
        <time>2023-09-02T14:00:15Z</time>
      </trkpt>
      <trkpt lat="45.91969" lon="4.96442">
        <ele>292.6</ele>
        <time>2023-09-02T14:00:16Z</time>
      </trkpt>
      <trkpt lat="45.91967" lon="4.96448">
        <ele>292.5</ele>
        <time>2023-09-02T14:00:17Z</time>
      </trkpt>
      <trkpt lat="45.91966" lon="4.96454">
        <ele>292.4</ele>
        <time>2023-09-02T14:00:18Z</time>
      </trkpt>
      <trkpt lat="45.91964" lon="4.9646">
        <ele>292.3</ele>
        <time>2023-09-02T14:00:20Z</time>
      </trkpt>
      <trkpt lat="45.91963" lon="4.96467">
        <ele>292.2</ele>
        <time>2023-09-02T14:00:21Z</time>
      </trkpt>
      <trkpt lat="45.91961" lon="4.96473">
        <ele>292.1</ele>
        <time>2023-09-02T14:00:22Z</time>
      </trkpt>
      <trkpt lat="45.91959" lon="4.96479">
        <ele>292</ele>
        <time>2023-09-02T14:00:23Z</time>
      </trkpt>
      <trkpt lat="45.91958" lon="4.96487">
        <ele>291.9</ele>
        <time>2023-09-02T14:00:24Z</time>
      </trkpt>
      <trkpt lat="45.91957" lon="4.96493">
        <ele>291.9</ele>
        <time>2023-09-02T14:00:25Z</time>
      </trkpt>
      <trkpt lat="45.91955" lon="4.965">
        <ele>291.8</ele>
        <time>2023-09-02T14:00:26Z</time>
      </trkpt>
      <trkpt lat="45.91953" lon="4.96506">
        <ele>291.7</ele>
        <time>2023-09-02T14:00:27Z</time>
      </trkpt>
      <trkpt lat="45.91951" lon="4.96513">
        <ele>291.6</ele>
        <time>2023-09-02T14:00:28Z</time>
      </trkpt>
      <trkpt lat="45.9195" lon="4.9652">
        <ele>291.5</ele>
        <time>2023-09-02T14:00:29Z</time>
      </trkpt>
      <trkpt lat="45.91949" lon="4.96527">
        <ele>291.5</ele>
        <time>2023-09-02T14:00:30Z</time>
      </trkpt>
      <trkpt lat="45.91947" lon="4.96533">
        <ele>291.4</ele>
        <time>2023-09-02T14:00:31Z</time>
      </trkpt>
      <trkpt lat="45.91946" lon="4.96539">
        <ele>291.4</ele>
        <time>2023-09-02T14:00:32Z</time>
      </trkpt>
      <trkpt lat="45.91944" lon="4.96545">
        <ele>291.3</ele>
        <time>2023-09-02T14:00:33Z</time>
      </trkpt>
      <trkpt lat="45.91943" lon="4.96552">
        <ele>291.2</ele>
        <time>2023-09-02T14:00:34Z</time>
      </trkpt>
      <trkpt lat="45.91941" lon="4.96558">
        <ele>291.1</ele>
        <time>2023-09-02T14:00:35Z</time>
      </trkpt>
      <trkpt lat="45.9194" lon="4.96565">
        <ele>291</ele>
        <time>2023-09-02T14:00:36Z</time>
      </trkpt>
      <trkpt lat="45.91939" lon="4.96571">
        <ele>291</ele>
        <time>2023-09-02T14:00:37Z</time>
      </trkpt>
      <trkpt lat="45.91937" lon="4.96578">
        <ele>290.9</ele>
        <time>2023-09-02T14:00:38Z</time>
      </trkpt>
      <trkpt lat="45.91935" lon="4.96585">
        <ele>290.8</ele>
        <time>2023-09-02T14:00:39Z</time>
      </trkpt>
      <trkpt lat="45.91933" lon="4.96591">
        <ele>290.7</ele>
        <time>2023-09-02T14:00:40Z</time>
      </trkpt>
      <trkpt lat="45.91932" lon="4.96597">
        <ele>290.6</ele>
        <time>2023-09-02T14:00:41Z</time>
      </trkpt>
      <trkpt lat="45.91931" lon="4.96604">
        <ele>290.5</ele>
        <time>2023-09-02T14:00:42Z</time>
      </trkpt>
      <trkpt lat="45.9193" lon="4.9661">
        <ele>290.5</ele>
        <time>2023-09-02T14:00:43Z</time>
      </trkpt>
      <trkpt lat="45.91929" lon="4.96617">
        <ele>290.4</ele>
        <time>2023-09-02T14:00:44Z</time>
      </trkpt>
      <trkpt lat="45.91928" lon="4.96624">
        <ele>290.3</ele>
        <time>2023-09-02T14:00:45Z</time>
      </trkpt>
      <trkpt lat="45.91926" lon="4.9663">
        <ele>290.2</ele>
        <time>2023-09-02T14:00:46Z</time>
      </trkpt>
      <trkpt lat="45.91925" lon="4.96636">
        <ele>290.2</ele>
        <time>2023-09-02T14:00:47Z</time>
      </trkpt>
      <trkpt lat="45.91923" lon="4.96642">
        <ele>290.1</ele>
        <time>2023-09-02T14:00:48Z</time>
      </trkpt>
      <trkpt lat="45.91922" lon="4.96648">
        <ele>290</ele>
        <time>2023-09-02T14:00:49Z</time>
      </trkpt>
      <trkpt lat="45.9192" lon="4.96654">
        <ele>290</ele>
        <time>2023-09-02T14:00:50Z</time>
      </trkpt>
      <trkpt lat="45.91918" lon="4.96661">
        <ele>289.9</ele>
        <time>2023-09-02T14:00:51Z</time>
      </trkpt>
      <trkpt lat="45.91917" lon="4.96667">
        <ele>289.8</ele>
        <time>2023-09-02T14:00:52Z</time>
      </trkpt>
      <trkpt lat="45.91916" lon="4.96673">
        <ele>289.8</ele>
        <time>2023-09-02T14:00:53Z</time>
      </trkpt>
      <trkpt lat="45.91914" lon="4.9668">
        <ele>289.7</ele>
        <time>2023-09-02T14:00:54Z</time>
      </trkpt>
      <trkpt lat="45.91913" lon="4.96686">
        <ele>289.6</ele>
        <time>2023-09-02T14:00:55Z</time>
      </trkpt>
      <trkpt lat="45.91912" lon="4.96693">
        <ele>289.6</ele>
        <time>2023-09-02T14:00:56Z</time>
      </trkpt>
      <trkpt lat="45.91911" lon="4.96699">
        <ele>289.5</ele>
        <time>2023-09-02T14:00:57Z</time>
      </trkpt>
      <trkpt lat="45.9191" lon="4.96705">
        <ele>289.5</ele>
        <time>2023-09-02T14:00:58Z</time>
      </trkpt>
      <trkpt lat="45.91908" lon="4.96711">
        <ele>289.4</ele>
        <time>2023-09-02T14:00:59Z</time>
      </trkpt>
      <trkpt lat="45.91907" lon="4.96716">
        <ele>289.4</ele>
        <time>2023-09-02T14:01:00Z</time>
      </trkpt>
      <trkpt lat="45.91906" lon="4.96722">
        <ele>289.3</ele>
        <time>2023-09-02T14:01:01Z</time>
      </trkpt>
      <trkpt lat="45.91905" lon="4.96728">
        <ele>289.2</ele>
        <time>2023-09-02T14:01:02Z</time>
      </trkpt>
      <trkpt lat="45.91903" lon="4.96734">
        <ele>289.2</ele>
        <time>2023-09-02T14:01:03Z</time>
      </trkpt>
      <trkpt lat="45.91902" lon="4.96739">
        <ele>289.2</ele>
        <time>2023-09-02T14:01:04Z</time>
      </trkpt>
      <trkpt lat="45.919" lon="4.96745">
        <ele>289.1</ele>
        <time>2023-09-02T14:01:05Z</time>
      </trkpt>
      <trkpt lat="45.91899" lon="4.9675">
        <ele>289.1</ele>
        <time>2023-09-02T14:01:06Z</time>
      </trkpt>
      <trkpt lat="45.91898" lon="4.96756">
        <ele>289.1</ele>
        <time>2023-09-02T14:01:07Z</time>
      </trkpt>
      <trkpt lat="45.91898" lon="4.96761">
        <ele>289</ele>
        <time>2023-09-02T14:01:08Z</time>
      </trkpt>
      <trkpt lat="45.91896" lon="4.96766">
        <ele>289</ele>
        <time>2023-09-02T14:01:09Z</time>
      </trkpt>
      <trkpt lat="45.91895" lon="4.96771">
        <ele>289</ele>
        <time>2023-09-02T14:01:10Z</time>
      </trkpt>
      <trkpt lat="45.91893" lon="4.96777">
        <ele>289</ele>
        <time>2023-09-02T14:01:11Z</time>
      </trkpt>
      <trkpt lat="45.91892" lon="4.96782">
        <ele>288.9</ele>
        <time>2023-09-02T14:01:12Z</time>
      </trkpt>
      <trkpt lat="45.91891" lon="4.96788">
        <ele>288.9</ele>
        <time>2023-09-02T14:01:13Z</time>
      </trkpt>
      <trkpt lat="45.9189" lon="4.96793">
        <ele>288.9</ele>
        <time>2023-09-02T14:01:14Z</time>
      </trkpt>
      <trkpt lat="45.91888" lon="4.96798">
        <ele>288.9</ele>
        <time>2023-09-02T14:01:15Z</time>
      </trkpt>
      <trkpt lat="45.91887" lon="4.96804">
        <ele>288.9</ele>
        <time>2023-09-02T14:01:16Z</time>
      </trkpt>
      <trkpt lat="45.91886" lon="4.96809">
        <ele>288.9</ele>
        <time>2023-09-02T14:01:17Z</time>
      </trkpt>
      <trkpt lat="45.91885" lon="4.96814">
        <ele>288.9</ele>
        <time>2023-09-02T14:01:18Z</time>
      </trkpt>
      <trkpt lat="45.91884" lon="4.96819">
        <ele>288.8</ele>
        <time>2023-09-02T14:01:19Z</time>
      </trkpt>
      <trkpt lat="45.91883" lon="4.96825">
        <ele>288.8</ele>
        <time>2023-09-02T14:01:20Z</time>
      </trkpt>
      <trkpt lat="45.91881" lon="4.96829">
        <ele>288.8</ele>
        <time>2023-09-02T14:01:21Z</time>
      </trkpt>
      <trkpt lat="45.9188" lon="4.96834">
        <ele>288.8</ele>
        <time>2023-09-02T14:01:22Z</time>
      </trkpt>
      <trkpt lat="45.91879" lon="4.9684">
        <ele>288.8</ele>
        <time>2023-09-02T14:01:23Z</time>
      </trkpt>
      <trkpt lat="45.91877" lon="4.96846">
        <ele>288.7</ele>
        <time>2023-09-02T14:01:24Z</time>
      </trkpt>
      <trkpt lat="45.91875" lon="4.96857">
        <ele>288.7</ele>
        <time>2023-09-02T14:01:25Z</time>
      </trkpt>
      <trkpt lat="45.91874" lon="4.96863">
        <ele>288.7</ele>
        <time>2023-09-02T14:01:26Z</time>
      </trkpt>
      <trkpt lat="45.91872" lon="4.96869">
        <ele>288.8</ele>
        <time>2023-09-02T14:01:27Z</time>
      </trkpt>
      <trkpt lat="45.91871" lon="4.96874">
        <ele>288.8</ele>
        <time>2023-09-02T14:01:28Z</time>
      </trkpt>
      <trkpt lat="45.9187" lon="4.9688">
        <ele>288.8</ele>
        <time>2023-09-02T14:01:29Z</time>
      </trkpt>
      <trkpt lat="45.91869" lon="4.96885">
        <ele>288.8</ele>
        <time>2023-09-02T14:01:30Z</time>
      </trkpt>
      <trkpt lat="45.91868" lon="4.96891">
        <ele>288.9</ele>
        <time>2023-09-02T14:01:31Z</time>
      </trkpt>
      <trkpt lat="45.91867" lon="4.96896">
        <ele>288.9</ele>
        <time>2023-09-02T14:01:32Z</time>
      </trkpt>
      <trkpt lat="45.91866" lon="4.96901">
        <ele>288.9</ele>
        <time>2023-09-02T14:01:33Z</time>
      </trkpt>
      <trkpt lat="45.91864" lon="4.96906">
        <ele>289</ele>
        <time>2023-09-02T14:01:34Z</time>
      </trkpt>
      <trkpt lat="45.91863" lon="4.96911">
        <ele>289</ele>
        <time>2023-09-02T14:01:35Z</time>
      </trkpt>
      <trkpt lat="45.91862" lon="4.96916">
        <ele>289</ele>
        <time>2023-09-02T14:01:36Z</time>
      </trkpt>
      <trkpt lat="45.91861" lon="4.96922">
        <ele>289.1</ele>
        <time>2023-09-02T14:01:37Z</time>
      </trkpt>
      <trkpt lat="45.9186" lon="4.96927">
        <ele>289.1</ele>
        <time>2023-09-02T14:01:38Z</time>
      </trkpt>
      <trkpt lat="45.91859" lon="4.96932">
        <ele>289.1</ele>
        <time>2023-09-02T14:01:39Z</time>
      </trkpt>
      <trkpt lat="45.91859" lon="4.96937">
        <ele>289.1</ele>
        <time>2023-09-02T14:01:40Z</time>
      </trkpt>
      <trkpt lat="45.91857" lon="4.96941">
        <ele>289.2</ele>
        <time>2023-09-02T14:01:41Z</time>
      </trkpt>
      <trkpt lat="45.91856" lon="4.96947">
        <ele>289.2</ele>
        <time>2023-09-02T14:01:42Z</time>
      </trkpt>
      <trkpt lat="45.91855" lon="4.96952">
        <ele>289.2</ele>
        <time>2023-09-02T14:01:43Z</time>
      </trkpt>
      <trkpt lat="45.91854" lon="4.96957">
        <ele>289.3</ele>
        <time>2023-09-02T14:01:44Z</time>
      </trkpt>
      <trkpt lat="45.91853" lon="4.96962">
        <ele>289.3</ele>
        <time>2023-09-02T14:01:45Z</time>
      </trkpt>
      <trkpt lat="45.91852" lon="4.96966">
        <ele>289.3</ele>
        <time>2023-09-02T14:01:46Z</time>
      </trkpt>
      <trkpt lat="45.91851" lon="4.96972">
        <ele>289.4</ele>
        <time>2023-09-02T14:01:47Z</time>
      </trkpt>
      <trkpt lat="45.9185" lon="4.96977">
        <ele>289.4</ele>
        <time>2023-09-02T14:01:48Z</time>
      </trkpt>
      <trkpt lat="45.91849" lon="4.96981">
        <ele>289.5</ele>
        <time>2023-09-02T14:01:49Z</time>
      </trkpt>
      <trkpt lat="45.91848" lon="4.96986">
        <ele>289.5</ele>
        <time>2023-09-02T14:01:50Z</time>
      </trkpt>
      <trkpt lat="45.91847" lon="4.96991">
        <ele>289.6</ele>
        <time>2023-09-02T14:01:51Z</time>
      </trkpt>
      <trkpt lat="45.91846" lon="4.96995">
        <ele>289.6</ele>
        <time>2023-09-02T14:01:52Z</time>
      </trkpt>
      <trkpt lat="45.91845" lon="4.97001">
        <ele>289.7</ele>
        <time>2023-09-02T14:01:53Z</time>
      </trkpt>
      <trkpt lat="45.91844" lon="4.97006">
        <ele>289.8</ele>
        <time>2023-09-02T14:01:54Z</time>
      </trkpt>
      <trkpt lat="45.91843" lon="4.97011">
        <ele>289.9</ele>
        <time>2023-09-02T14:01:56Z</time>
      </trkpt>
      <trkpt lat="45.91842" lon="4.97015">
        <ele>290</ele>
        <time>2023-09-02T14:01:57Z</time>
      </trkpt>
      <trkpt lat="45.91842" lon="4.97019">
        <ele>290</ele>
        <time>2023-09-02T14:01:58Z</time>
      </trkpt>
      <trkpt lat="45.9184" lon="4.97025">
        <ele>290.2</ele>
        <time>2023-09-02T14:01:59Z</time>
      </trkpt>
      <trkpt lat="45.91839" lon="4.97027">
        <ele>290.2</ele>
        <time>2023-09-02T14:02:00Z</time>
      </trkpt>
      <trkpt lat="45.91837" lon="4.97033">
        <ele>290.4</ele>
        <time>2023-09-02T14:02:01Z</time>
      </trkpt>
      <trkpt lat="45.91837" lon="4.97037">
        <ele>290.4</ele>
        <time>2023-09-02T14:02:02Z</time>
      </trkpt>
      <trkpt lat="45.91836" lon="4.97041">
        <ele>290.5</ele>
        <time>2023-09-02T14:02:03Z</time>
      </trkpt>
      <trkpt lat="45.91835" lon="4.97046">
        <ele>290.6</ele>
        <time>2023-09-02T14:02:04Z</time>
      </trkpt>
      <trkpt lat="45.91834" lon="4.9705">
        <ele>290.7</ele>
        <time>2023-09-02T14:02:05Z</time>
      </trkpt>
      <trkpt lat="45.91834" lon="4.97052">
        <ele>290.8</ele>
        <time>2023-09-02T14:02:06Z</time>
      </trkpt>
      <trkpt lat="45.91832" lon="4.97057">
        <ele>290.9</ele>
        <time>2023-09-02T14:02:07Z</time>
      </trkpt>
      <trkpt lat="45.91831" lon="4.97063">
        <ele>291</ele>
        <time>2023-09-02T14:02:08Z</time>
      </trkpt>
      <trkpt lat="45.9183" lon="4.97068">
        <ele>291.1</ele>
        <time>2023-09-02T14:02:09Z</time>
      </trkpt>
      <trkpt lat="45.91829" lon="4.9707">
        <ele>291.2</ele>
        <time>2023-09-02T14:02:10Z</time>
      </trkpt>
      <trkpt lat="45.91828" lon="4.97074">
        <ele>291.3</ele>
        <time>2023-09-02T14:02:11Z</time>
      </trkpt>
      <trkpt lat="45.91827" lon="4.97077">
        <ele>291.3</ele>
        <time>2023-09-02T14:02:12Z</time>
      </trkpt>
      <trkpt lat="45.91827" lon="4.97082">
        <ele>291.4</ele>
        <time>2023-09-02T14:02:13Z</time>
      </trkpt>
      <trkpt lat="45.91826" lon="4.97087">
        <ele>291.5</ele>
        <time>2023-09-02T14:02:14Z</time>
      </trkpt>
      <trkpt lat="45.91824" lon="4.97091">
        <ele>291.6</ele>
        <time>2023-09-02T14:02:15Z</time>
      </trkpt>
      <trkpt lat="45.91823" lon="4.97095">
        <ele>291.7</ele>
        <time>2023-09-02T14:02:16Z</time>
      </trkpt>
      <trkpt lat="45.91822" lon="4.97099">
        <ele>291.8</ele>
        <time>2023-09-02T14:02:17Z</time>
      </trkpt>
      <trkpt lat="45.91821" lon="4.97106">
        <ele>291.9</ele>
        <time>2023-09-02T14:02:18Z</time>
      </trkpt>
      <trkpt lat="45.91821" lon="4.97108">
        <ele>291.9</ele>
        <time>2023-09-02T14:02:19Z</time>
      </trkpt>
      <trkpt lat="45.9182" lon="4.97112">
        <ele>292</ele>
        <time>2023-09-02T14:02:20Z</time>
      </trkpt>
      <trkpt lat="45.91819" lon="4.97117">
        <ele>292.1</ele>
        <time>2023-09-02T14:02:21Z</time>
      </trkpt>
      <trkpt lat="45.91817" lon="4.9712">
        <ele>292.2</ele>
        <time>2023-09-02T14:02:22Z</time>
      </trkpt>
      <trkpt lat="45.91816" lon="4.97126">
        <ele>292.3</ele>
        <time>2023-09-02T14:02:23Z</time>
      </trkpt>
      <trkpt lat="45.91816" lon="4.97127">
        <ele>292.3</ele>
        <time>2023-09-02T14:02:24Z</time>
      </trkpt>
      <trkpt lat="45.91816" lon="4.97132">
        <ele>292.4</ele>
        <time>2023-09-02T14:02:25Z</time>
      </trkpt>
      <trkpt lat="45.91814" lon="4.97136">
        <ele>292.5</ele>
        <time>2023-09-02T14:02:26Z</time>
      </trkpt>
      <trkpt lat="45.91813" lon="4.97141">
        <ele>292.6</ele>
        <time>2023-09-02T14:02:27Z</time>
      </trkpt>
      <trkpt lat="45.91813" lon="4.97143">
        <ele>292.7</ele>
        <time>2023-09-02T14:02:28Z</time>
      </trkpt>
      <trkpt lat="45.9181" lon="4.97148">
        <ele>292.8</ele>
        <time>2023-09-02T14:02:29Z</time>
      </trkpt>
      <trkpt lat="45.91808" lon="4.97151">
        <ele>292.9</ele>
        <time>2023-09-02T14:02:30Z</time>
      </trkpt>
      <trkpt lat="45.91807" lon="4.97152">
        <ele>292.9</ele>
        <time>2023-09-02T14:02:31Z</time>
      </trkpt>
      <trkpt lat="45.91805" lon="4.97156">
        <ele>293</ele>
        <time>2023-09-02T14:02:32Z</time>
      </trkpt>
      <trkpt lat="45.91803" lon="4.97158">
        <ele>293</ele>
        <time>2023-09-02T14:02:33Z</time>
      </trkpt>
      <trkpt lat="45.918" lon="4.9716">
        <ele>292.9</ele>
        <time>2023-09-02T14:02:34Z</time>
      </trkpt>
      <trkpt lat="45.91797" lon="4.97159">
        <ele>292.8</ele>
        <time>2023-09-02T14:02:35Z</time>
      </trkpt>
      <trkpt lat="45.91796" lon="4.97158">
        <ele>292.8</ele>
        <time>2023-09-02T14:02:36Z</time>
      </trkpt>
      <trkpt lat="45.91794" lon="4.97156">
        <ele>292.7</ele>
        <time>2023-09-02T14:02:37Z</time>
      </trkpt>
      <trkpt lat="45.91791" lon="4.97153">
        <ele>292.6</ele>
        <time>2023-09-02T14:02:38Z</time>
      </trkpt>
      <trkpt lat="45.91787" lon="4.97149">
        <ele>292.4</ele>
        <time>2023-09-02T14:02:39Z</time>
      </trkpt>
      <trkpt lat="45.91785" lon="4.97146">
        <ele>292.3</ele>
        <time>2023-09-02T14:02:40Z</time>
      </trkpt>
      <trkpt lat="45.91783" lon="4.97142">
        <ele>292.2</ele>
        <time>2023-09-02T14:02:41Z</time>
      </trkpt>
      <trkpt lat="45.91782" lon="4.9714">
        <ele>292.1</ele>
        <time>2023-09-02T14:02:42Z</time>
      </trkpt>
      <trkpt lat="45.91779" lon="4.97137">
        <ele>292</ele>
        <time>2023-09-02T14:02:43Z</time>
      </trkpt>
      <trkpt lat="45.91777" lon="4.97136">
        <ele>292</ele>
        <time>2023-09-02T14:02:44Z</time>
      </trkpt>
      <trkpt lat="45.91774" lon="4.97131">
        <ele>291.8</ele>
        <time>2023-09-02T14:02:45Z</time>
      </trkpt>
      <trkpt lat="45.91771" lon="4.97128">
        <ele>291.7</ele>
        <time>2023-09-02T14:02:46Z</time>
      </trkpt>
      <trkpt lat="45.91768" lon="4.97125">
        <ele>291.6</ele>
        <time>2023-09-02T14:02:47Z</time>
      </trkpt>
      <trkpt lat="45.91767" lon="4.97119">
        <ele>291.5</ele>
        <time>2023-09-02T14:02:48Z</time>
      </trkpt>
      <trkpt lat="45.91764" lon="4.97116">
        <ele>291.4</ele>
        <time>2023-09-02T14:02:49Z</time>
      </trkpt>
      <trkpt lat="45.91759" lon="4.97112">
        <ele>291.3</ele>
        <time>2023-09-02T14:02:50Z</time>
      </trkpt>
      <trkpt lat="45.91757" lon="4.97109">
        <ele>291.2</ele>
        <time>2023-09-02T14:02:51Z</time>
      </trkpt>
      <trkpt lat="45.91755" lon="4.97105">
        <ele>291.1</ele>
        <time>2023-09-02T14:02:52Z</time>
      </trkpt>
      <trkpt lat="45.91751" lon="4.971">
        <ele>291</ele>
        <time>2023-09-02T14:02:53Z</time>
      </trkpt>
      <trkpt lat="45.91748" lon="4.97097">
        <ele>290.9</ele>
        <time>2023-09-02T14:02:54Z</time>
      </trkpt>
      <trkpt lat="45.91746" lon="4.97093">
        <ele>290.8</ele>
        <time>2023-09-02T14:02:55Z</time>
      </trkpt>
      <trkpt lat="45.91743" lon="4.9709">
        <ele>290.7</ele>
        <time>2023-09-02T14:02:56Z</time>
      </trkpt>
      <trkpt lat="45.91739" lon="4.97085">
        <ele>290.6</ele>
        <time>2023-09-02T14:02:57Z</time>
      </trkpt>
      <trkpt lat="45.91736" lon="4.9708">
        <ele>290.5</ele>
        <time>2023-09-02T14:02:58Z</time>
      </trkpt>
      <trkpt lat="45.91733" lon="4.97076">
        <ele>290.5</ele>
        <time>2023-09-02T14:02:59Z</time>
      </trkpt>
      <trkpt lat="45.9173" lon="4.97072">
        <ele>290.4</ele>
        <time>2023-09-02T14:03:00Z</time>
      </trkpt>
      <trkpt lat="45.91727" lon="4.97069">
        <ele>290.4</ele>
        <time>2023-09-02T14:03:01Z</time>
      </trkpt>
      <trkpt lat="45.91724" lon="4.97065">
        <ele>290.3</ele>
        <time>2023-09-02T14:03:02Z</time>
      </trkpt>
      <trkpt lat="45.91721" lon="4.97062">
        <ele>290.2</ele>
        <time>2023-09-02T14:03:03Z</time>
      </trkpt>
      <trkpt lat="45.91718" lon="4.97057">
        <ele>290.2</ele>
        <time>2023-09-02T14:03:04Z</time>
      </trkpt>
      <trkpt lat="45.91715" lon="4.97053">
        <ele>290.1</ele>
        <time>2023-09-02T14:03:05Z</time>
      </trkpt>
      <trkpt lat="45.91713" lon="4.9705">
        <ele>290.1</ele>
        <time>2023-09-02T14:03:06Z</time>
      </trkpt>
      <trkpt lat="45.9171" lon="4.97046">
        <ele>290.1</ele>
        <time>2023-09-02T14:03:07Z</time>
      </trkpt>
      <trkpt lat="45.91707" lon="4.97043">
        <ele>290.1</ele>
        <time>2023-09-02T14:03:08Z</time>
      </trkpt>
      <trkpt lat="45.91705" lon="4.9704">
        <ele>290.1</ele>
        <time>2023-09-02T14:03:09Z</time>
      </trkpt>
      <trkpt lat="45.91702" lon="4.97035">
        <ele>290.1</ele>
        <time>2023-09-02T14:03:10Z</time>
      </trkpt>
      <trkpt lat="45.917" lon="4.97032">
        <ele>290.1</ele>
        <time>2023-09-02T14:03:11Z</time>
      </trkpt>
      <trkpt lat="45.91697" lon="4.97029">
        <ele>290.1</ele>
        <time>2023-09-02T14:03:12Z</time>
      </trkpt>
      <trkpt lat="45.91695" lon="4.97026">
        <ele>290.1</ele>
        <time>2023-09-02T14:03:13Z</time>
      </trkpt>
      <trkpt lat="45.91692" lon="4.97023">
        <ele>290.1</ele>
        <time>2023-09-02T14:03:14Z</time>
      </trkpt>
      <trkpt lat="45.91689" lon="4.97019">
        <ele>290.1</ele>
        <time>2023-09-02T14:03:15Z</time>
      </trkpt>
      <trkpt lat="45.91688" lon="4.97017">
        <ele>290.1</ele>
        <time>2023-09-02T14:03:16Z</time>
      </trkpt>
      <trkpt lat="45.91686" lon="4.97014">
        <ele>290.1</ele>
        <time>2023-09-02T14:03:17Z</time>
      </trkpt>
      <trkpt lat="45.91683" lon="4.9701">
        <ele>290.2</ele>
        <time>2023-09-02T14:03:18Z</time>
      </trkpt>
      <trkpt lat="45.91682" lon="4.97009">
        <ele>290.2</ele>
        <time>2023-09-02T14:03:19Z</time>
      </trkpt>
      <trkpt lat="45.91679" lon="4.97005">
        <ele>290.2</ele>
        <time>2023-09-02T14:03:20Z</time>
      </trkpt>
      <trkpt lat="45.91678" lon="4.97004">
        <ele>290.2</ele>
        <time>2023-09-02T14:03:21Z</time>
      </trkpt>
      <trkpt lat="45.91676" lon="4.97001">
        <ele>290.2</ele>
        <time>2023-09-02T14:03:22Z</time>
      </trkpt>
      <trkpt lat="45.91673" lon="4.96997">
        <ele>290.3</ele>
        <time>2023-09-02T14:03:23Z</time>
      </trkpt>
      <trkpt lat="45.91671" lon="4.96993">
        <ele>290.3</ele>
        <time>2023-09-02T14:03:24Z</time>
      </trkpt>
      <trkpt lat="45.91668" lon="4.96991">
        <ele>290.3</ele>
        <time>2023-09-02T14:03:25Z</time>
      </trkpt>
      <trkpt lat="45.91666" lon="4.96988">
        <ele>290.4</ele>
        <time>2023-09-02T14:03:26Z</time>
      </trkpt>
      <trkpt lat="45.91664" lon="4.96984">
        <ele>290.4</ele>
        <time>2023-09-02T14:03:27Z</time>
      </trkpt>
      <trkpt lat="45.91661" lon="4.9698">
        <ele>290.5</ele>
        <time>2023-09-02T14:03:28Z</time>
      </trkpt>
      <trkpt lat="45.91659" lon="4.96978">
        <ele>290.5</ele>
        <time>2023-09-02T14:03:29Z</time>
      </trkpt>
      <trkpt lat="45.91657" lon="4.96974">
        <ele>290.6</ele>
        <time>2023-09-02T14:03:30Z</time>
      </trkpt>
      <trkpt lat="45.91654" lon="4.9697">
        <ele>290.7</ele>
        <time>2023-09-02T14:03:31Z</time>
      </trkpt>
      <trkpt lat="45.91652" lon="4.96966">
        <ele>290.7</ele>
        <time>2023-09-02T14:03:32Z</time>
      </trkpt>
      <trkpt lat="45.9165" lon="4.96963">
        <ele>290.8</ele>
        <time>2023-09-02T14:03:33Z</time>
      </trkpt>
      <trkpt lat="45.91648" lon="4.9696">
        <ele>290.8</ele>
        <time>2023-09-02T14:03:34Z</time>
      </trkpt>
      <trkpt lat="45.91646" lon="4.96957">
        <ele>290.9</ele>
        <time>2023-09-02T14:03:35Z</time>
      </trkpt>
      <trkpt lat="45.91642" lon="4.96955">
        <ele>290.9</ele>
        <time>2023-09-02T14:03:36Z</time>
      </trkpt>
      <trkpt lat="45.91641" lon="4.96954">
        <ele>291</ele>
        <time>2023-09-02T14:03:37Z</time>
      </trkpt>
      <trkpt lat="45.91639" lon="4.9695">
        <ele>291</ele>
        <time>2023-09-02T14:03:38Z</time>
      </trkpt>
      <trkpt lat="45.91637" lon="4.96947">
        <ele>291</ele>
        <time>2023-09-02T14:03:39Z</time>
      </trkpt>
      <trkpt lat="45.91633" lon="4.96942">
        <ele>291.1</ele>
        <time>2023-09-02T14:03:40Z</time>
      </trkpt>
      <trkpt lat="45.91632" lon="4.96941">
        <ele>291.1</ele>
        <time>2023-09-02T14:03:41Z</time>
      </trkpt>
      <trkpt lat="45.91629" lon="4.96938">
        <ele>291.2</ele>
        <time>2023-09-02T14:03:42Z</time>
      </trkpt>
      <trkpt lat="45.91627" lon="4.96934">
        <ele>291.2</ele>
        <time>2023-09-02T14:03:43Z</time>
      </trkpt>
      <trkpt lat="45.91625" lon="4.96931">
        <ele>291.3</ele>
        <time>2023-09-02T14:03:44Z</time>
      </trkpt>
      <trkpt lat="45.91623" lon="4.96928">
        <ele>291.3</ele>
        <time>2023-09-02T14:03:45Z</time>
      </trkpt>
      <trkpt lat="45.9162" lon="4.96925">
        <ele>291.4</ele>
        <time>2023-09-02T14:03:46Z</time>
      </trkpt>
      <trkpt lat="45.91618" lon="4.96922">
        <ele>291.4</ele>
        <time>2023-09-02T14:03:47Z</time>
      </trkpt>
      <trkpt lat="45.91615" lon="4.96917">
        <ele>291.5</ele>
        <time>2023-09-02T14:03:48Z</time>
      </trkpt>
      <trkpt lat="45.91614" lon="4.96916">
        <ele>291.5</ele>
        <time>2023-09-02T14:03:49Z</time>
      </trkpt>
      <trkpt lat="45.91612" lon="4.96913">
        <ele>291.5</ele>
        <time>2023-09-02T14:03:50Z</time>
      </trkpt>
      <trkpt lat="45.91609" lon="4.9691">
        <ele>291.6</ele>
        <time>2023-09-02T14:03:51Z</time>
      </trkpt>
      <trkpt lat="45.91606" lon="4.96906">
        <ele>291.7</ele>
        <time>2023-09-02T14:03:52Z</time>
      </trkpt>
      <trkpt lat="45.91604" lon="4.96903">
        <ele>291.7</ele>
        <time>2023-09-02T14:03:53Z</time>
      </trkpt>
      <trkpt lat="45.91602" lon="4.969">
        <ele>291.8</ele>
        <time>2023-09-02T14:03:54Z</time>
      </trkpt>
      <trkpt lat="45.91599" lon="4.96896">
        <ele>291.9</ele>
        <time>2023-09-02T14:03:55Z</time>
      </trkpt>
      <trkpt lat="45.91596" lon="4.96892">
        <ele>292</ele>
        <time>2023-09-02T14:03:56Z</time>
      </trkpt>
      <trkpt lat="45.91595" lon="4.9689">
        <ele>292</ele>
        <time>2023-09-02T14:03:57Z</time>
      </trkpt>
      <trkpt lat="45.91593" lon="4.96886">
        <ele>292.1</ele>
        <time>2023-09-02T14:03:58Z</time>
      </trkpt>
      <trkpt lat="45.91591" lon="4.96883">
        <ele>292.2</ele>
        <time>2023-09-02T14:03:59Z</time>
      </trkpt>
      <trkpt lat="45.91588" lon="4.96879">
        <ele>292.3</ele>
        <time>2023-09-02T14:04:00Z</time>
      </trkpt>
      <trkpt lat="45.91586" lon="4.96875">
        <ele>292.4</ele>
        <time>2023-09-02T14:04:01Z</time>
      </trkpt>
      <trkpt lat="45.91583" lon="4.96874">
        <ele>292.4</ele>
        <time>2023-09-02T14:04:02Z</time>
      </trkpt>
      <trkpt lat="45.91582" lon="4.96872">
        <ele>292.4</ele>
        <time>2023-09-02T14:04:03Z</time>
      </trkpt>
      <trkpt lat="45.91579" lon="4.96869">
        <ele>292.5</ele>
        <time>2023-09-02T14:04:04Z</time>
      </trkpt>
      <trkpt lat="45.91578" lon="4.96865">
        <ele>292.6</ele>
        <time>2023-09-02T14:04:05Z</time>
      </trkpt>
      <trkpt lat="45.91576" lon="4.96862">
        <ele>292.6</ele>
        <time>2023-09-02T14:04:06Z</time>
      </trkpt>
      <trkpt lat="45.91574" lon="4.96858">
        <ele>292.7</ele>
        <time>2023-09-02T14:04:07Z</time>
      </trkpt>
      <trkpt lat="45.91571" lon="4.96855">
        <ele>292.8</ele>
        <time>2023-09-02T14:04:08Z</time>
      </trkpt>
      <trkpt lat="45.91569" lon="4.96852">
        <ele>292.9</ele>
        <time>2023-09-02T14:04:09Z</time>
      </trkpt>
      <trkpt lat="45.91566" lon="4.96849">
        <ele>292.9</ele>
        <time>2023-09-02T14:04:10Z</time>
      </trkpt>
      <trkpt lat="45.91564" lon="4.96845">
        <ele>293</ele>
        <time>2023-09-02T14:04:11Z</time>
      </trkpt>
      <trkpt lat="45.91562" lon="4.96842">
        <ele>293.1</ele>
        <time>2023-09-02T14:04:12Z</time>
      </trkpt>
      <trkpt lat="45.9156" lon="4.96839">
        <ele>293.2</ele>
        <time>2023-09-02T14:04:13Z</time>
      </trkpt>
      <trkpt lat="45.91557" lon="4.96835">
        <ele>293.2</ele>
        <time>2023-09-02T14:04:14Z</time>
      </trkpt>
      <trkpt lat="45.91557" lon="4.96834">
        <ele>293.3</ele>
        <time>2023-09-02T14:04:15Z</time>
      </trkpt>
      <trkpt lat="45.91554" lon="4.96829">
        <ele>293.4</ele>
        <time>2023-09-02T14:04:16Z</time>
      </trkpt>
      <trkpt lat="45.91552" lon="4.96826">
        <ele>293.4</ele>
        <time>2023-09-02T14:04:17Z</time>
      </trkpt>
      <trkpt lat="45.91549" lon="4.96823">
        <ele>293.5</ele>
        <time>2023-09-02T14:04:18Z</time>
      </trkpt>
      <trkpt lat="45.91548" lon="4.96822">
        <ele>293.5</ele>
        <time>2023-09-02T14:04:19Z</time>
      </trkpt>
      <trkpt lat="45.91545" lon="4.96818">
        <ele>293.6</ele>
        <time>2023-09-02T14:04:20Z</time>
      </trkpt>
      <trkpt lat="45.91543" lon="4.96816">
        <ele>293.7</ele>
        <time>2023-09-02T14:04:21Z</time>
      </trkpt>
      <trkpt lat="45.9154" lon="4.96812">
        <ele>293.8</ele>
        <time>2023-09-02T14:04:22Z</time>
      </trkpt>
      <trkpt lat="45.91538" lon="4.96809">
        <ele>293.8</ele>
        <time>2023-09-02T14:04:23Z</time>
      </trkpt>
      <trkpt lat="45.91536" lon="4.96807">
        <ele>293.9</ele>
        <time>2023-09-02T14:04:24Z</time>
      </trkpt>
      <trkpt lat="45.91535" lon="4.96805">
        <ele>293.9</ele>
        <time>2023-09-02T14:04:25Z</time>
      </trkpt>
      <trkpt lat="45.91533" lon="4.96801">
        <ele>294</ele>
        <time>2023-09-02T14:04:26Z</time>
      </trkpt>
      <trkpt lat="45.9153" lon="4.96798">
        <ele>294.1</ele>
        <time>2023-09-02T14:04:27Z</time>
      </trkpt>
      <trkpt lat="45.91529" lon="4.96796">
        <ele>294.1</ele>
        <time>2023-09-02T14:04:28Z</time>
      </trkpt>
      <trkpt lat="45.91526" lon="4.96793">
        <ele>294.2</ele>
        <time>2023-09-02T14:04:29Z</time>
      </trkpt>
      <trkpt lat="45.91523" lon="4.9679">
        <ele>294.3</ele>
        <time>2023-09-02T14:04:30Z</time>
      </trkpt>
      <trkpt lat="45.9152" lon="4.96787">
        <ele>294.3</ele>
        <time>2023-09-02T14:04:31Z</time>
      </trkpt>
      <trkpt lat="45.91519" lon="4.96786">
        <ele>294.3</ele>
        <time>2023-09-02T14:04:32Z</time>
      </trkpt>
      <trkpt lat="45.91516" lon="4.96782">
        <ele>294.4</ele>
        <time>2023-09-02T14:04:33Z</time>
      </trkpt>
      <trkpt lat="45.91515" lon="4.96781">
        <ele>294.4</ele>
        <time>2023-09-02T14:04:34Z</time>
      </trkpt>
      <trkpt lat="45.91513" lon="4.96777">
        <ele>294.4</ele>
        <time>2023-09-02T14:04:35Z</time>
      </trkpt>
      <trkpt lat="45.91511" lon="4.96774">
        <ele>294.4</ele>
        <time>2023-09-02T14:04:36Z</time>
      </trkpt>
      <trkpt lat="45.91508" lon="4.9677">
        <ele>294.4</ele>
        <time>2023-09-02T14:04:37Z</time>
      </trkpt>
      <trkpt lat="45.91507" lon="4.96768">
        <ele>294.4</ele>
        <time>2023-09-02T14:04:38Z</time>
      </trkpt>
      <trkpt lat="45.91504" lon="4.96766">
        <ele>294.4</ele>
        <time>2023-09-02T14:04:39Z</time>
      </trkpt>
      <trkpt lat="45.91502" lon="4.96764">
        <ele>294.4</ele>
        <time>2023-09-02T14:04:40Z</time>
      </trkpt>
      <trkpt lat="45.91499" lon="4.9676">
        <ele>294.3</ele>
        <time>2023-09-02T14:04:41Z</time>
      </trkpt>
      <trkpt lat="45.91496" lon="4.96756">
        <ele>294.2</ele>
        <time>2023-09-02T14:04:42Z</time>
      </trkpt>
      <trkpt lat="45.91493" lon="4.96752">
        <ele>294.1</ele>
        <time>2023-09-02T14:04:43Z</time>
      </trkpt>
      <trkpt lat="45.91491" lon="4.96749">
        <ele>294.1</ele>
        <time>2023-09-02T14:04:44Z</time>
      </trkpt>
      <trkpt lat="45.91488" lon="4.96746">
        <ele>294</ele>
        <time>2023-09-02T14:04:45Z</time>
      </trkpt>
      <trkpt lat="45.91486" lon="4.96742">
        <ele>293.9</ele>
        <time>2023-09-02T14:04:46Z</time>
      </trkpt>
      <trkpt lat="45.91483" lon="4.96737">
        <ele>293.8</ele>
        <time>2023-09-02T14:04:47Z</time>
      </trkpt>
      <trkpt lat="45.9148" lon="4.96734">
        <ele>293.7</ele>
        <time>2023-09-02T14:04:48Z</time>
      </trkpt>
      <trkpt lat="45.91477" lon="4.9673">
        <ele>293.7</ele>
        <time>2023-09-02T14:04:49Z</time>
      </trkpt>
      <trkpt lat="45.91475" lon="4.96726">
        <ele>293.6</ele>
        <time>2023-09-02T14:04:50Z</time>
      </trkpt>
      <trkpt lat="45.91473" lon="4.96723">
        <ele>293.5</ele>
        <time>2023-09-02T14:04:51Z</time>
      </trkpt>
      <trkpt lat="45.91471" lon="4.9672">
        <ele>293.5</ele>
        <time>2023-09-02T14:04:52Z</time>
      </trkpt>
      <trkpt lat="45.91467" lon="4.96716">
        <ele>293.4</ele>
        <time>2023-09-02T14:04:53Z</time>
      </trkpt>
      <trkpt lat="45.91464" lon="4.96711">
        <ele>293.3</ele>
        <time>2023-09-02T14:04:54Z</time>
      </trkpt>
      <trkpt lat="45.91462" lon="4.96708">
        <ele>293.3</ele>
        <time>2023-09-02T14:04:55Z</time>
      </trkpt>
      <trkpt lat="45.91459" lon="4.96702">
        <ele>293.2</ele>
        <time>2023-09-02T14:04:56Z</time>
      </trkpt>
      <trkpt lat="45.91457" lon="4.967">
        <ele>293.2</ele>
        <time>2023-09-02T14:04:57Z</time>
      </trkpt>
      <trkpt lat="45.91453" lon="4.96697">
        <ele>293.1</ele>
        <time>2023-09-02T14:04:58Z</time>
      </trkpt>
      <trkpt lat="45.91451" lon="4.96694">
        <ele>293</ele>
        <time>2023-09-02T14:04:59Z</time>
      </trkpt>
      <trkpt lat="45.91448" lon="4.96689">
        <ele>292.9</ele>
        <time>2023-09-02T14:05:00Z</time>
      </trkpt>
      <trkpt lat="45.91445" lon="4.96685">
        <ele>292.9</ele>
        <time>2023-09-02T14:05:01Z</time>
      </trkpt>
      <trkpt lat="45.91442" lon="4.96682">
        <ele>292.8</ele>
        <time>2023-09-02T14:05:02Z</time>
      </trkpt>
      <trkpt lat="45.9144" lon="4.96681">
        <ele>292.8</ele>
        <time>2023-09-02T14:05:03Z</time>
      </trkpt>
      <trkpt lat="45.91439" lon="4.96677">
        <ele>292.7</ele>
        <time>2023-09-02T14:05:04Z</time>
      </trkpt>
      <trkpt lat="45.91436" lon="4.96672">
        <ele>292.6</ele>
        <time>2023-09-02T14:05:05Z</time>
      </trkpt>
      <trkpt lat="45.91432" lon="4.96668">
        <ele>292.6</ele>
        <time>2023-09-02T14:05:06Z</time>
      </trkpt>
      <trkpt lat="45.91429" lon="4.96665">
        <ele>292.6</ele>
        <time>2023-09-02T14:05:07Z</time>
      </trkpt>
      <trkpt lat="45.91427" lon="4.96661">
        <ele>292.5</ele>
        <time>2023-09-02T14:05:08Z</time>
      </trkpt>
      <trkpt lat="45.91424" lon="4.96657">
        <ele>292.5</ele>
        <time>2023-09-02T14:05:09Z</time>
      </trkpt>
      <trkpt lat="45.91422" lon="4.96653">
        <ele>292.4</ele>
        <time>2023-09-02T14:05:10Z</time>
      </trkpt>
      <trkpt lat="45.91419" lon="4.9665">
        <ele>292.4</ele>
        <time>2023-09-02T14:05:11Z</time>
      </trkpt>
      <trkpt lat="45.91416" lon="4.96646">
        <ele>292.4</ele>
        <time>2023-09-02T14:05:12Z</time>
      </trkpt>
      <trkpt lat="45.91413" lon="4.96643">
        <ele>292.4</ele>
        <time>2023-09-02T14:05:13Z</time>
      </trkpt>
      <trkpt lat="45.91411" lon="4.96639">
        <ele>292.4</ele>
        <time>2023-09-02T14:05:14Z</time>
      </trkpt>
      <trkpt lat="45.91407" lon="4.96637">
        <ele>292.4</ele>
        <time>2023-09-02T14:05:15Z</time>
      </trkpt>
      <trkpt lat="45.91405" lon="4.96632">
        <ele>292.4</ele>
        <time>2023-09-02T14:05:16Z</time>
      </trkpt>
      <trkpt lat="45.91403" lon="4.96627">
        <ele>292.4</ele>
        <time>2023-09-02T14:05:17Z</time>
      </trkpt>
      <trkpt lat="45.91401" lon="4.96624">
        <ele>292.4</ele>
        <time>2023-09-02T14:05:18Z</time>
      </trkpt>
      <trkpt lat="45.91399" lon="4.9662">
        <ele>292.4</ele>
        <time>2023-09-02T14:05:19Z</time>
      </trkpt>
      <trkpt lat="45.91395" lon="4.96616">
        <ele>292.4</ele>
        <time>2023-09-02T14:05:20Z</time>
      </trkpt>
      <trkpt lat="45.91392" lon="4.96614">
        <ele>292.4</ele>
        <time>2023-09-02T14:05:21Z</time>
      </trkpt>
      <trkpt lat="45.91391" lon="4.96613">
        <ele>292.4</ele>
        <time>2023-09-02T14:05:22Z</time>
      </trkpt>
      <trkpt lat="45.91388" lon="4.96609">
        <ele>292.4</ele>
        <time>2023-09-02T14:05:23Z</time>
      </trkpt>
      <trkpt lat="45.91387" lon="4.96605">
        <ele>292.4</ele>
        <time>2023-09-02T14:05:24Z</time>
      </trkpt>
      <trkpt lat="45.91385" lon="4.96602">
        <ele>292.5</ele>
        <time>2023-09-02T14:05:25Z</time>
      </trkpt>
      <trkpt lat="45.91382" lon="4.96598">
        <ele>292.5</ele>
        <time>2023-09-02T14:05:26Z</time>
      </trkpt>
      <trkpt lat="45.91378" lon="4.96595">
        <ele>292.5</ele>
        <time>2023-09-02T14:05:27Z</time>
      </trkpt>
      <trkpt lat="45.91377" lon="4.96592">
        <ele>292.5</ele>
        <time>2023-09-02T14:05:28Z</time>
      </trkpt>
      <trkpt lat="45.91374" lon="4.96589">
        <ele>292.5</ele>
        <time>2023-09-02T14:05:29Z</time>
      </trkpt>
      <trkpt lat="45.91372" lon="4.96585">
        <ele>292.5</ele>
        <time>2023-09-02T14:05:30Z</time>
      </trkpt>
      <trkpt lat="45.91368" lon="4.96583">
        <ele>292.6</ele>
        <time>2023-09-02T14:05:31Z</time>
      </trkpt>
      <trkpt lat="45.91365" lon="4.9658">
        <ele>292.6</ele>
        <time>2023-09-02T14:05:32Z</time>
      </trkpt>
      <trkpt lat="45.91364" lon="4.96578">
        <ele>292.6</ele>
        <time>2023-09-02T14:05:33Z</time>
      </trkpt>
      <trkpt lat="45.91362" lon="4.96573">
        <ele>292.6</ele>
        <time>2023-09-02T14:05:34Z</time>
      </trkpt>
      <trkpt lat="45.91359" lon="4.9657">
        <ele>292.6</ele>
        <time>2023-09-02T14:05:35Z</time>
      </trkpt>
      <trkpt lat="45.91357" lon="4.96567">
        <ele>292.6</ele>
        <time>2023-09-02T14:05:36Z</time>
      </trkpt>
      <trkpt lat="45.91351" lon="4.96561">
        <ele>292.5</ele>
        <time>2023-09-02T14:05:37Z</time>
      </trkpt>
      <trkpt lat="45.91349" lon="4.96557">
        <ele>292.5</ele>
        <time>2023-09-02T14:05:38Z</time>
      </trkpt>
      <trkpt lat="45.91346" lon="4.96553">
        <ele>292.5</ele>
        <time>2023-09-02T14:05:39Z</time>
      </trkpt>
      <trkpt lat="45.91344" lon="4.96551">
        <ele>292.5</ele>
        <time>2023-09-02T14:05:40Z</time>
      </trkpt>
      <trkpt lat="45.91342" lon="4.96547">
        <ele>292.5</ele>
        <time>2023-09-02T14:05:41Z</time>
      </trkpt>
      <trkpt lat="45.9134" lon="4.96543">
        <ele>292.5</ele>
        <time>2023-09-02T14:05:42Z</time>
      </trkpt>
      <trkpt lat="45.91337" lon="4.96541">
        <ele>292.5</ele>
        <time>2023-09-02T14:05:43Z</time>
      </trkpt>
      <trkpt lat="45.91335" lon="4.96537">
        <ele>292.5</ele>
        <time>2023-09-02T14:05:44Z</time>
      </trkpt>
      <trkpt lat="45.91334" lon="4.96535">
        <ele>292.5</ele>
        <time>2023-09-02T14:05:45Z</time>
      </trkpt>
      <trkpt lat="45.91332" lon="4.96532">
        <ele>292.5</ele>
        <time>2023-09-02T14:05:46Z</time>
      </trkpt>
      <trkpt lat="45.9133" lon="4.96528">
        <ele>292.5</ele>
        <time>2023-09-02T14:05:47Z</time>
      </trkpt>
      <trkpt lat="45.91326" lon="4.96525">
        <ele>292.5</ele>
        <time>2023-09-02T14:05:48Z</time>
      </trkpt>
      <trkpt lat="45.91323" lon="4.9652">
        <ele>292.5</ele>
        <time>2023-09-02T14:05:49Z</time>
      </trkpt>
      <trkpt lat="45.91323" lon="4.96519">
        <ele>292.5</ele>
        <time>2023-09-02T14:05:50Z</time>
      </trkpt>
      <trkpt lat="45.9132" lon="4.96514">
        <ele>292.5</ele>
        <time>2023-09-02T14:05:51Z</time>
      </trkpt>
      <trkpt lat="45.91318" lon="4.96511">
        <ele>292.5</ele>
        <time>2023-09-02T14:05:52Z</time>
      </trkpt>
      <trkpt lat="45.91315" lon="4.96507">
        <ele>292.5</ele>
        <time>2023-09-02T14:05:53Z</time>
      </trkpt>
      <trkpt lat="45.91312" lon="4.96503">
        <ele>292.5</ele>
        <time>2023-09-02T14:05:54Z</time>
      </trkpt>
      <trkpt lat="45.91309" lon="4.96501">
        <ele>292.6</ele>
        <time>2023-09-02T14:05:55Z</time>
      </trkpt>
      <trkpt lat="45.91307" lon="4.96497">
        <ele>292.6</ele>
        <time>2023-09-02T14:05:56Z</time>
      </trkpt>
      <trkpt lat="45.91304" lon="4.96492">
        <ele>292.6</ele>
        <time>2023-09-02T14:05:57Z</time>
      </trkpt>
      <trkpt lat="45.91302" lon="4.96488">
        <ele>292.6</ele>
        <time>2023-09-02T14:05:58Z</time>
      </trkpt>
      <trkpt lat="45.91299" lon="4.96487">
        <ele>292.6</ele>
        <time>2023-09-02T14:05:59Z</time>
      </trkpt>
      <trkpt lat="45.91296" lon="4.96482">
        <ele>292.7</ele>
        <time>2023-09-02T14:06:00Z</time>
      </trkpt>
      <trkpt lat="45.91295" lon="4.9648">
        <ele>292.7</ele>
        <time>2023-09-02T14:06:01Z</time>
      </trkpt>
      <trkpt lat="45.91292" lon="4.96477">
        <ele>292.7</ele>
        <time>2023-09-02T14:06:03Z</time>
      </trkpt>
      <trkpt lat="45.9129" lon="4.96471">
        <ele>292.8</ele>
        <time>2023-09-02T14:06:04Z</time>
      </trkpt>
      <trkpt lat="45.91286" lon="4.96471">
        <ele>292.8</ele>
        <time>2023-09-02T14:06:05Z</time>
      </trkpt>
      <trkpt lat="45.91285" lon="4.96468">
        <ele>292.8</ele>
        <time>2023-09-02T14:06:06Z</time>
      </trkpt>
      <trkpt lat="45.91281" lon="4.96464">
        <ele>292.9</ele>
        <time>2023-09-02T14:06:07Z</time>
      </trkpt>
      <trkpt lat="45.91278" lon="4.96461">
        <ele>292.9</ele>
        <time>2023-09-02T14:06:08Z</time>
      </trkpt>
      <trkpt lat="45.91277" lon="4.9646">
        <ele>292.9</ele>
        <time>2023-09-02T14:06:09Z</time>
      </trkpt>
      <trkpt lat="45.91274" lon="4.96457">
        <ele>293</ele>
        <time>2023-09-02T14:06:10Z</time>
      </trkpt>
      <trkpt lat="45.91272" lon="4.96453">
        <ele>293</ele>
        <time>2023-09-02T14:06:11Z</time>
      </trkpt>
      <trkpt lat="45.91269" lon="4.96448">
        <ele>293.1</ele>
        <time>2023-09-02T14:06:12Z</time>
      </trkpt>
      <trkpt lat="45.91265" lon="4.96445">
        <ele>293.2</ele>
        <time>2023-09-02T14:06:13Z</time>
      </trkpt>
      <trkpt lat="45.91264" lon="4.96444">
        <ele>293.2</ele>
        <time>2023-09-02T14:06:14Z</time>
      </trkpt>
      <trkpt lat="45.9126" lon="4.9644">
        <ele>293.3</ele>
        <time>2023-09-02T14:06:15Z</time>
      </trkpt>
      <trkpt lat="45.91258" lon="4.96438">
        <ele>293.3</ele>
        <time>2023-09-02T14:06:16Z</time>
      </trkpt>
      <trkpt lat="45.91256" lon="4.96434">
        <ele>293.4</ele>
        <time>2023-09-02T14:06:17Z</time>
      </trkpt>
      <trkpt lat="45.91254" lon="4.9643">
        <ele>293.4</ele>
        <time>2023-09-02T14:06:18Z</time>
      </trkpt>
      <trkpt lat="45.91253" lon="4.96426">
        <ele>293.5</ele>
        <time>2023-09-02T14:06:19Z</time>
      </trkpt>
      <trkpt lat="45.91252" lon="4.96424">
        <ele>293.5</ele>
        <time>2023-09-02T14:06:20Z</time>
      </trkpt>
      <trkpt lat="45.91248" lon="4.96419">
        <ele>293.6</ele>
        <time>2023-09-02T14:06:21Z</time>
      </trkpt>
      <trkpt lat="45.91245" lon="4.96415">
        <ele>293.7</ele>
        <time>2023-09-02T14:06:22Z</time>
      </trkpt>
      <trkpt lat="45.91244" lon="4.96413">
        <ele>293.7</ele>
        <time>2023-09-02T14:06:23Z</time>
      </trkpt>
      <trkpt lat="45.91242" lon="4.9641">
        <ele>293.8</ele>
        <time>2023-09-02T14:06:24Z</time>
      </trkpt>
      <trkpt lat="45.9124" lon="4.96407">
        <ele>293.8</ele>
        <time>2023-09-02T14:06:25Z</time>
      </trkpt>
      <trkpt lat="45.91237" lon="4.96404">
        <ele>293.9</ele>
        <time>2023-09-02T14:06:26Z</time>
      </trkpt>
      <trkpt lat="45.91234" lon="4.96401">
        <ele>293.9</ele>
        <time>2023-09-02T14:06:27Z</time>
      </trkpt>
      <trkpt lat="45.91233" lon="4.964">
        <ele>294</ele>
        <time>2023-09-02T14:06:28Z</time>
      </trkpt>
      <trkpt lat="45.9123" lon="4.96397">
        <ele>294</ele>
        <time>2023-09-02T14:06:29Z</time>
      </trkpt>
      <trkpt lat="45.91229" lon="4.96397">
        <ele>294</ele>
        <time>2023-09-02T14:06:30Z</time>
      </trkpt>
      <trkpt lat="45.91227" lon="4.96393">
        <ele>294.1</ele>
        <time>2023-09-02T14:06:31Z</time>
      </trkpt>
      <trkpt lat="45.91225" lon="4.9639">
        <ele>294.1</ele>
        <time>2023-09-02T14:06:32Z</time>
      </trkpt>
      <trkpt lat="45.91222" lon="4.96386">
        <ele>294.1</ele>
        <time>2023-09-02T14:06:33Z</time>
      </trkpt>
      <trkpt lat="45.9122" lon="4.96381">
        <ele>294.1</ele>
        <time>2023-09-02T14:06:34Z</time>
      </trkpt>
      <trkpt lat="45.91217" lon="4.96378">
        <ele>294.1</ele>
        <time>2023-09-02T14:06:35Z</time>
      </trkpt>
      <trkpt lat="45.91215" lon="4.96374">
        <ele>294.1</ele>
        <time>2023-09-02T14:06:36Z</time>
      </trkpt>
      <trkpt lat="45.91212" lon="4.9637">
        <ele>294.1</ele>
        <time>2023-09-02T14:06:37Z</time>
      </trkpt>
      <trkpt lat="45.9121" lon="4.96366">
        <ele>294.1</ele>
        <time>2023-09-02T14:06:38Z</time>
      </trkpt>
      <trkpt lat="45.91209" lon="4.96362">
        <ele>294.1</ele>
        <time>2023-09-02T14:06:39Z</time>
      </trkpt>
      <trkpt lat="45.91207" lon="4.96358">
        <ele>294.1</ele>
        <time>2023-09-02T14:06:40Z</time>
      </trkpt>
      <trkpt lat="45.91205" lon="4.96354">
        <ele>294.1</ele>
        <time>2023-09-02T14:06:41Z</time>
      </trkpt>
      <trkpt lat="45.91204" lon="4.9635">
        <ele>294.1</ele>
        <time>2023-09-02T14:06:42Z</time>
      </trkpt>
      <trkpt lat="45.91202" lon="4.96346">
        <ele>294.2</ele>
        <time>2023-09-02T14:06:43Z</time>
      </trkpt>
      <trkpt lat="45.91201" lon="4.9634">
        <ele>294.2</ele>
        <time>2023-09-02T14:06:44Z</time>
      </trkpt>
      <trkpt lat="45.912" lon="4.96339">
        <ele>294.2</ele>
        <time>2023-09-02T14:06:45Z</time>
      </trkpt>
      <trkpt lat="45.91199" lon="4.96333">
        <ele>294.2</ele>
        <time>2023-09-02T14:06:46Z</time>
      </trkpt>
      <trkpt lat="45.91199" lon="4.96331">
        <ele>294.2</ele>
        <time>2023-09-02T14:06:47Z</time>
      </trkpt>
      <trkpt lat="45.91196" lon="4.96325">
        <ele>294.2</ele>
        <time>2023-09-02T14:06:48Z</time>
      </trkpt>
      <trkpt lat="45.91195" lon="4.9632">
        <ele>294.2</ele>
        <time>2023-09-02T14:06:49Z</time>
      </trkpt>
      <trkpt lat="45.91192" lon="4.96316">
        <ele>294.2</ele>
        <time>2023-09-02T14:06:50Z</time>
      </trkpt>
      <trkpt lat="45.91191" lon="4.96311">
        <ele>294.2</ele>
        <time>2023-09-02T14:06:51Z</time>
      </trkpt>
      <trkpt lat="45.9119" lon="4.96306">
        <ele>294.2</ele>
        <time>2023-09-02T14:06:52Z</time>
      </trkpt>
      <trkpt lat="45.91189" lon="4.96301">
        <ele>294.2</ele>
        <time>2023-09-02T14:06:53Z</time>
      </trkpt>
      <trkpt lat="45.91186" lon="4.96298">
        <ele>294.2</ele>
        <time>2023-09-02T14:06:54Z</time>
      </trkpt>
      <trkpt lat="45.91185" lon="4.96293">
        <ele>294.2</ele>
        <time>2023-09-02T14:06:55Z</time>
      </trkpt>
      <trkpt lat="45.91183" lon="4.96287">
        <ele>294.1</ele>
        <time>2023-09-02T14:06:56Z</time>
      </trkpt>
      <trkpt lat="45.91182" lon="4.96283">
        <ele>294.1</ele>
        <time>2023-09-02T14:06:57Z</time>
      </trkpt>
      <trkpt lat="45.91181" lon="4.96278">
        <ele>294.1</ele>
        <time>2023-09-02T14:06:58Z</time>
      </trkpt>
      <trkpt lat="45.91178" lon="4.96273">
        <ele>294.1</ele>
        <time>2023-09-02T14:06:59Z</time>
      </trkpt>
      <trkpt lat="45.91177" lon="4.96269">
        <ele>294.1</ele>
        <time>2023-09-02T14:07:00Z</time>
      </trkpt>
      <trkpt lat="45.91176" lon="4.96265">
        <ele>294.1</ele>
        <time>2023-09-02T14:07:01Z</time>
      </trkpt>
      <trkpt lat="45.91174" lon="4.96261">
        <ele>294.1</ele>
        <time>2023-09-02T14:07:02Z</time>
      </trkpt>
      <trkpt lat="45.91173" lon="4.96257">
        <ele>294.1</ele>
        <time>2023-09-02T14:07:03Z</time>
      </trkpt>
      <trkpt lat="45.91171" lon="4.96253">
        <ele>294.1</ele>
        <time>2023-09-02T14:07:04Z</time>
      </trkpt>
      <trkpt lat="45.91171" lon="4.96248">
        <ele>294.1</ele>
        <time>2023-09-02T14:07:05Z</time>
      </trkpt>
      <trkpt lat="45.91169" lon="4.96244">
        <ele>294.1</ele>
        <time>2023-09-02T14:07:06Z</time>
      </trkpt>
      <trkpt lat="45.91167" lon="4.96239">
        <ele>294.1</ele>
        <time>2023-09-02T14:07:07Z</time>
      </trkpt>
      <trkpt lat="45.91165" lon="4.96235">
        <ele>294.1</ele>
        <time>2023-09-02T14:07:08Z</time>
      </trkpt>
      <trkpt lat="45.91164" lon="4.9623">
        <ele>294.1</ele>
        <time>2023-09-02T14:07:09Z</time>
      </trkpt>
      <trkpt lat="45.91163" lon="4.96226">
        <ele>294.2</ele>
        <time>2023-09-02T14:07:10Z</time>
      </trkpt>
      <trkpt lat="45.91161" lon="4.96221">
        <ele>294.2</ele>
        <time>2023-09-02T14:07:11Z</time>
      </trkpt>
      <trkpt lat="45.9116" lon="4.96215">
        <ele>294.2</ele>
        <time>2023-09-02T14:07:12Z</time>
      </trkpt>
      <trkpt lat="45.91159" lon="4.96211">
        <ele>294.2</ele>
        <time>2023-09-02T14:07:13Z</time>
      </trkpt>
      <trkpt lat="45.91157" lon="4.96208">
        <ele>294.2</ele>
        <time>2023-09-02T14:07:14Z</time>
      </trkpt>
      <trkpt lat="45.91155" lon="4.96204">
        <ele>294.2</ele>
        <time>2023-09-02T14:07:15Z</time>
      </trkpt>
      <trkpt lat="45.91152" lon="4.962">
        <ele>294.3</ele>
        <time>2023-09-02T14:07:16Z</time>
      </trkpt>
      <trkpt lat="45.91151" lon="4.96194">
        <ele>294.3</ele>
        <time>2023-09-02T14:07:17Z</time>
      </trkpt>
      <trkpt lat="45.91148" lon="4.96189">
        <ele>294.3</ele>
        <time>2023-09-02T14:07:18Z</time>
      </trkpt>
      <trkpt lat="45.91147" lon="4.96188">
        <ele>294.3</ele>
        <time>2023-09-02T14:07:19Z</time>
      </trkpt>
      <trkpt lat="45.91147" lon="4.96184">
        <ele>294.4</ele>
        <time>2023-09-02T14:07:20Z</time>
      </trkpt>
      <trkpt lat="45.91145" lon="4.96179">
        <ele>294.4</ele>
        <time>2023-09-02T14:07:21Z</time>
      </trkpt>
      <trkpt lat="45.91143" lon="4.96174">
        <ele>294.4</ele>
        <time>2023-09-02T14:07:22Z</time>
      </trkpt>
      <trkpt lat="45.91141" lon="4.96169">
        <ele>294.5</ele>
        <time>2023-09-02T14:07:23Z</time>
      </trkpt>
      <trkpt lat="45.9114" lon="4.96165">
        <ele>294.5</ele>
        <time>2023-09-02T14:07:24Z</time>
      </trkpt>
      <trkpt lat="45.91138" lon="4.9616">
        <ele>294.6</ele>
        <time>2023-09-02T14:07:25Z</time>
      </trkpt>
      <trkpt lat="45.91136" lon="4.96156">
        <ele>294.6</ele>
        <time>2023-09-02T14:07:26Z</time>
      </trkpt>
      <trkpt lat="45.91134" lon="4.96152">
        <ele>294.7</ele>
        <time>2023-09-02T14:07:27Z</time>
      </trkpt>
      <trkpt lat="45.91133" lon="4.96149">
        <ele>294.7</ele>
        <time>2023-09-02T14:07:28Z</time>
      </trkpt>
      <trkpt lat="45.91131" lon="4.96143">
        <ele>294.7</ele>
        <time>2023-09-02T14:07:29Z</time>
      </trkpt>
      <trkpt lat="45.91131" lon="4.96141">
        <ele>294.8</ele>
        <time>2023-09-02T14:07:30Z</time>
      </trkpt>
      <trkpt lat="45.91129" lon="4.96137">
        <ele>294.8</ele>
        <time>2023-09-02T14:07:31Z</time>
      </trkpt>
      <trkpt lat="45.91127" lon="4.96133">
        <ele>294.9</ele>
        <time>2023-09-02T14:07:32Z</time>
      </trkpt>
      <trkpt lat="45.91126" lon="4.9613">
        <ele>294.9</ele>
        <time>2023-09-02T14:07:33Z</time>
      </trkpt>
      <trkpt lat="45.91125" lon="4.96125">
        <ele>294.9</ele>
        <time>2023-09-02T14:07:34Z</time>
      </trkpt>
      <trkpt lat="45.91123" lon="4.9612">
        <ele>295</ele>
        <time>2023-09-02T14:07:35Z</time>
      </trkpt>
      <trkpt lat="45.91121" lon="4.96114">
        <ele>295</ele>
        <time>2023-09-02T14:07:36Z</time>
      </trkpt>
      <trkpt lat="45.9112" lon="4.96112">
        <ele>295</ele>
        <time>2023-09-02T14:07:37Z</time>
      </trkpt>
      <trkpt lat="45.91119" lon="4.96108">
        <ele>295</ele>
        <time>2023-09-02T14:07:38Z</time>
      </trkpt>
      <trkpt lat="45.91117" lon="4.96103">
        <ele>295.1</ele>
        <time>2023-09-02T14:07:39Z</time>
      </trkpt>
      <trkpt lat="45.91116" lon="4.96098">
        <ele>295.1</ele>
        <time>2023-09-02T14:07:40Z</time>
      </trkpt>
      <trkpt lat="45.91114" lon="4.96093">
        <ele>295.1</ele>
        <time>2023-09-02T14:07:41Z</time>
      </trkpt>
      <trkpt lat="45.91114" lon="4.96091">
        <ele>295.1</ele>
        <time>2023-09-02T14:07:42Z</time>
      </trkpt>
      <trkpt lat="45.9111" lon="4.96083">
        <ele>295.1</ele>
        <time>2023-09-02T14:07:43Z</time>
      </trkpt>
      <trkpt lat="45.91109" lon="4.96078">
        <ele>295.1</ele>
        <time>2023-09-02T14:07:44Z</time>
      </trkpt>
      <trkpt lat="45.91107" lon="4.96074">
        <ele>295</ele>
        <time>2023-09-02T14:07:45Z</time>
      </trkpt>
      <trkpt lat="45.91104" lon="4.96068">
        <ele>295</ele>
        <time>2023-09-02T14:07:46Z</time>
      </trkpt>
      <trkpt lat="45.91104" lon="4.96066">
        <ele>295</ele>
        <time>2023-09-02T14:07:47Z</time>
      </trkpt>
      <trkpt lat="45.91102" lon="4.9606">
        <ele>294.9</ele>
        <time>2023-09-02T14:07:48Z</time>
      </trkpt>
      <trkpt lat="45.91101" lon="4.96057">
        <ele>294.9</ele>
        <time>2023-09-02T14:07:49Z</time>
      </trkpt>
      <trkpt lat="45.91099" lon="4.96052">
        <ele>294.8</ele>
        <time>2023-09-02T14:07:50Z</time>
      </trkpt>
      <trkpt lat="45.91098" lon="4.96048">
        <ele>294.7</ele>
        <time>2023-09-02T14:07:51Z</time>
      </trkpt>
      <trkpt lat="45.91095" lon="4.96043">
        <ele>294.6</ele>
        <time>2023-09-02T14:07:52Z</time>
      </trkpt>
      <trkpt lat="45.91093" lon="4.96038">
        <ele>294.5</ele>
        <time>2023-09-02T14:07:53Z</time>
      </trkpt>
      <trkpt lat="45.91091" lon="4.96033">
        <ele>294.3</ele>
        <time>2023-09-02T14:07:54Z</time>
      </trkpt>
      <trkpt lat="45.91088" lon="4.96027">
        <ele>294.1</ele>
        <time>2023-09-02T14:07:55Z</time>
      </trkpt>
      <trkpt lat="45.91088" lon="4.96021">
        <ele>294</ele>
        <time>2023-09-02T14:07:56Z</time>
      </trkpt>
      <trkpt lat="45.91086" lon="4.96015">
        <ele>293.8</ele>
        <time>2023-09-02T14:07:57Z</time>
      </trkpt>
      <trkpt lat="45.91085" lon="4.96009">
        <ele>293.6</ele>
        <time>2023-09-02T14:07:58Z</time>
      </trkpt>
      <trkpt lat="45.91085" lon="4.96001">
        <ele>293.4</ele>
        <time>2023-09-02T14:07:59Z</time>
      </trkpt>
      <trkpt lat="45.91085" lon="4.95994">
        <ele>293.1</ele>
        <time>2023-09-02T14:08:00Z</time>
      </trkpt>
      <trkpt lat="45.91084" lon="4.95986">
        <ele>292.8</ele>
        <time>2023-09-02T14:08:01Z</time>
      </trkpt>
      <trkpt lat="45.91085" lon="4.9598">
        <ele>292.5</ele>
        <time>2023-09-02T14:08:02Z</time>
      </trkpt>
      <trkpt lat="45.91088" lon="4.95972">
        <ele>292.1</ele>
        <time>2023-09-02T14:08:03Z</time>
      </trkpt>
      <trkpt lat="45.91089" lon="4.95963">
        <ele>291.6</ele>
        <time>2023-09-02T14:08:04Z</time>
      </trkpt>
      <trkpt lat="45.91089" lon="4.95956">
        <ele>291.2</ele>
        <time>2023-09-02T14:08:05Z</time>
      </trkpt>
      <trkpt lat="45.9109" lon="4.95945">
        <ele>290.6</ele>
        <time>2023-09-02T14:08:06Z</time>
      </trkpt>
      <trkpt lat="45.91094" lon="4.95933">
        <ele>290.1</ele>
        <time>2023-09-02T14:08:07Z</time>
      </trkpt>
      <trkpt lat="45.91096" lon="4.95923">
        <ele>289.8</ele>
        <time>2023-09-02T14:08:08Z</time>
      </trkpt>
      <trkpt lat="45.91099" lon="4.95913">
        <ele>289.5</ele>
        <time>2023-09-02T14:08:09Z</time>
      </trkpt>
      <trkpt lat="45.91101" lon="4.95902">
        <ele>289.2</ele>
        <time>2023-09-02T14:08:11Z</time>
      </trkpt>
      <trkpt lat="45.91105" lon="4.95892">
        <ele>289</ele>
        <time>2023-09-02T14:08:12Z</time>
      </trkpt>
      <trkpt lat="45.91108" lon="4.95883">
        <ele>288.9</ele>
        <time>2023-09-02T14:08:13Z</time>
      </trkpt>
      <trkpt lat="45.91111" lon="4.95876">
        <ele>288.8</ele>
        <time>2023-09-02T14:08:14Z</time>
      </trkpt>
      <trkpt lat="45.91114" lon="4.95867">
        <ele>288.8</ele>
        <time>2023-09-02T14:08:15Z</time>
      </trkpt>
      <trkpt lat="45.91117" lon="4.9586">
        <ele>288.7</ele>
        <time>2023-09-02T14:08:16Z</time>
      </trkpt>
      <trkpt lat="45.91118" lon="4.9585">
        <ele>288.7</ele>
        <time>2023-09-02T14:08:17Z</time>
      </trkpt>
      <trkpt lat="45.9112" lon="4.95842">
        <ele>288.7</ele>
        <time>2023-09-02T14:08:18Z</time>
      </trkpt>
      <trkpt lat="45.91122" lon="4.95835">
        <ele>288.7</ele>
        <time>2023-09-02T14:08:19Z</time>
      </trkpt>
      <trkpt lat="45.91126" lon="4.95828">
        <ele>288.8</ele>
        <time>2023-09-02T14:08:20Z</time>
      </trkpt>
      <trkpt lat="45.91128" lon="4.95822">
        <ele>288.8</ele>
        <time>2023-09-02T14:08:21Z</time>
      </trkpt>
      <trkpt lat="45.91131" lon="4.95816">
        <ele>288.8</ele>
        <time>2023-09-02T14:08:22Z</time>
      </trkpt>
      <trkpt lat="45.91133" lon="4.95811">
        <ele>288.8</ele>
        <time>2023-09-02T14:08:23Z</time>
      </trkpt>
      <trkpt lat="45.91136" lon="4.95805">
        <ele>288.8</ele>
        <time>2023-09-02T14:08:24Z</time>
      </trkpt>
      <trkpt lat="45.91138" lon="4.958">
        <ele>288.8</ele>
        <time>2023-09-02T14:08:25Z</time>
      </trkpt>
      <trkpt lat="45.9114" lon="4.95796">
        <ele>288.8</ele>
        <time>2023-09-02T14:08:26Z</time>
      </trkpt>
      <trkpt lat="45.91142" lon="4.95791">
        <ele>288.8</ele>
        <time>2023-09-02T14:08:27Z</time>
      </trkpt>
      <trkpt lat="45.91144" lon="4.95787">
        <ele>288.8</ele>
        <time>2023-09-02T14:08:28Z</time>
      </trkpt>
      <trkpt lat="45.91145" lon="4.95782">
        <ele>288.8</ele>
        <time>2023-09-02T14:08:29Z</time>
      </trkpt>
      <trkpt lat="45.91146" lon="4.95778">
        <ele>288.8</ele>
        <time>2023-09-02T14:08:30Z</time>
      </trkpt>
      <trkpt lat="45.91147" lon="4.95773">
        <ele>288.7</ele>
        <time>2023-09-02T14:08:31Z</time>
      </trkpt>
      <trkpt lat="45.91148" lon="4.95768">
        <ele>288.7</ele>
        <time>2023-09-02T14:08:32Z</time>
      </trkpt>
      <trkpt lat="45.91149" lon="4.95762">
        <ele>288.7</ele>
        <time>2023-09-02T14:08:33Z</time>
      </trkpt>
      <trkpt lat="45.91148" lon="4.95757">
        <ele>288.6</ele>
        <time>2023-09-02T14:08:34Z</time>
      </trkpt>
      <trkpt lat="45.91148" lon="4.95752">
        <ele>288.6</ele>
        <time>2023-09-02T14:08:35Z</time>
      </trkpt>
      <trkpt lat="45.91149" lon="4.95747">
        <ele>288.6</ele>
        <time>2023-09-02T14:08:36Z</time>
      </trkpt>
      <trkpt lat="45.91149" lon="4.95741">
        <ele>288.6</ele>
        <time>2023-09-02T14:08:37Z</time>
      </trkpt>
      <trkpt lat="45.91149" lon="4.95736">
        <ele>288.6</ele>
        <time>2023-09-02T14:08:38Z</time>
      </trkpt>
      <trkpt lat="45.9115" lon="4.95732">
        <ele>288.6</ele>
        <time>2023-09-02T14:08:39Z</time>
      </trkpt>
      <trkpt lat="45.91149" lon="4.95728">
        <ele>288.7</ele>
        <time>2023-09-02T14:08:40Z</time>
      </trkpt>
      <trkpt lat="45.91149" lon="4.95723">
        <ele>288.7</ele>
        <time>2023-09-02T14:08:41Z</time>
      </trkpt>
      <trkpt lat="45.91149" lon="4.95718">
        <ele>288.7</ele>
        <time>2023-09-02T14:08:42Z</time>
      </trkpt>
      <trkpt lat="45.91148" lon="4.95717">
        <ele>288.7</ele>
        <time>2023-09-02T14:08:43Z</time>
      </trkpt>
      <trkpt lat="45.91147" lon="4.95715">
        <ele>288.8</ele>
        <time>2023-09-02T14:08:44Z</time>
      </trkpt>
      <trkpt lat="45.91147" lon="4.95713">
        <ele>288.8</ele>
        <time>2023-09-02T14:08:45Z</time>
      </trkpt>
      <trkpt lat="45.91146" lon="4.95712">
        <ele>288.8</ele>
        <time>2023-09-02T14:08:46Z</time>
      </trkpt>
      <trkpt lat="45.91146" lon="4.95711">
        <ele>288.8</ele>
        <time>2023-09-02T14:08:47Z</time>
      </trkpt>
      <trkpt lat="45.91145" lon="4.95711">
        <ele>288.8</ele>
        <time>2023-09-02T14:08:48Z</time>
      </trkpt>
      <trkpt lat="45.91145" lon="4.9571">
        <ele>288.8</ele>
        <time>2023-09-02T14:08:49Z</time>
      </trkpt>
      <trkpt lat="45.91144" lon="4.9571">
        <ele>288.8</ele>
        <time>2023-09-02T14:08:50Z</time>
      </trkpt>
      <trkpt lat="45.91144" lon="4.95709">
        <ele>288.8</ele>
        <time>2023-09-02T14:08:51Z</time>
      </trkpt>
      <trkpt lat="45.91144" lon="4.95709">
        <ele>288.8</ele>
        <time>2023-09-02T14:08:52Z</time>
      </trkpt>
      <trkpt lat="45.91143" lon="4.95709">
        <ele>288.8</ele>
        <time>2023-09-02T14:08:53Z</time>
      </trkpt>
      <trkpt lat="45.91143" lon="4.95708">
        <ele>288.8</ele>
        <time>2023-09-02T14:08:54Z</time>
      </trkpt>
      <trkpt lat="45.91142" lon="4.95708">
        <ele>288.8</ele>
        <time>2023-09-02T14:08:55Z</time>
      </trkpt>
      <trkpt lat="45.91142" lon="4.95707">
        <ele>288.8</ele>
        <time>2023-09-02T14:09:25Z</time>
      </trkpt>
      <trkpt lat="45.91141" lon="4.95707">
        <ele>288.8</ele>
        <time>2023-09-02T14:09:26Z</time>
      </trkpt>
      <trkpt lat="45.91141" lon="4.95706">
        <ele>288.8</ele>
        <time>2023-09-02T14:09:27Z</time>
      </trkpt>
      <trkpt lat="45.91138" lon="4.95708">
        <ele>288.8</ele>
        <time>2023-09-02T14:09:28Z</time>
      </trkpt>
      <trkpt lat="45.91134" lon="4.9571">
        <ele>288.8</ele>
        <time>2023-09-02T14:09:29Z</time>
      </trkpt>
      <trkpt lat="45.91133" lon="4.95711">
        <ele>288.8</ele>
        <time>2023-09-02T14:09:30Z</time>
      </trkpt>
      <trkpt lat="45.9113" lon="4.95712">
        <ele>288.8</ele>
        <time>2023-09-02T14:09:31Z</time>
      </trkpt>
      <trkpt lat="45.91127" lon="4.95714">
        <ele>288.8</ele>
        <time>2023-09-02T14:09:32Z</time>
      </trkpt>
      <trkpt lat="45.91124" lon="4.95715">
        <ele>288.8</ele>
        <time>2023-09-02T14:09:33Z</time>
      </trkpt>
      <trkpt lat="45.91121" lon="4.95716">
        <ele>288.8</ele>
        <time>2023-09-02T14:09:34Z</time>
      </trkpt>
      <trkpt lat="45.91118" lon="4.95718">
        <ele>288.8</ele>
        <time>2023-09-02T14:09:35Z</time>
      </trkpt>
      <trkpt lat="45.91114" lon="4.95719">
        <ele>288.8</ele>
        <time>2023-09-02T14:09:36Z</time>
      </trkpt>
      <trkpt lat="45.91111" lon="4.9572">
        <ele>288.8</ele>
        <time>2023-09-02T14:09:37Z</time>
      </trkpt>
      <trkpt lat="45.91108" lon="4.95722">
        <ele>288.8</ele>
        <time>2023-09-02T14:09:38Z</time>
      </trkpt>
      <trkpt lat="45.91105" lon="4.95723">
        <ele>288.8</ele>
        <time>2023-09-02T14:09:39Z</time>
      </trkpt>
      <trkpt lat="45.91102" lon="4.95725">
        <ele>288.9</ele>
        <time>2023-09-02T14:09:40Z</time>
      </trkpt>
      <trkpt lat="45.91098" lon="4.95726">
        <ele>288.9</ele>
        <time>2023-09-02T14:09:41Z</time>
      </trkpt>
      <trkpt lat="45.91095" lon="4.95727">
        <ele>288.9</ele>
        <time>2023-09-02T14:09:42Z</time>
      </trkpt>
      <trkpt lat="45.91091" lon="4.95729">
        <ele>288.9</ele>
        <time>2023-09-02T14:09:43Z</time>
      </trkpt>
      <trkpt lat="45.91088" lon="4.9573">
        <ele>288.9</ele>
        <time>2023-09-02T14:09:44Z</time>
      </trkpt>
      <trkpt lat="45.91085" lon="4.95732">
        <ele>288.9</ele>
        <time>2023-09-02T14:09:45Z</time>
      </trkpt>
      <trkpt lat="45.91081" lon="4.95733">
        <ele>288.9</ele>
        <time>2023-09-02T14:09:46Z</time>
      </trkpt>
      <trkpt lat="45.91078" lon="4.95735">
        <ele>288.9</ele>
        <time>2023-09-02T14:09:47Z</time>
      </trkpt>
      <trkpt lat="45.91075" lon="4.95736">
        <ele>288.9</ele>
        <time>2023-09-02T14:09:48Z</time>
      </trkpt>
      <trkpt lat="45.91068" lon="4.95739">
        <ele>288.9</ele>
        <time>2023-09-02T14:09:49Z</time>
      </trkpt>
      <trkpt lat="45.91064" lon="4.9574">
        <ele>288.9</ele>
        <time>2023-09-02T14:09:50Z</time>
      </trkpt>
      <trkpt lat="45.91061" lon="4.95742">
        <ele>288.9</ele>
        <time>2023-09-02T14:09:51Z</time>
      </trkpt>
      <trkpt lat="45.91057" lon="4.95744">
        <ele>288.9</ele>
        <time>2023-09-02T14:09:52Z</time>
      </trkpt>
      <trkpt lat="45.91054" lon="4.95745">
        <ele>289</ele>
        <time>2023-09-02T14:09:53Z</time>
      </trkpt>
      <trkpt lat="45.9105" lon="4.95747">
        <ele>289</ele>
        <time>2023-09-02T14:09:54Z</time>
      </trkpt>
      <trkpt lat="45.91046" lon="4.95748">
        <ele>289.1</ele>
        <time>2023-09-02T14:09:55Z</time>
      </trkpt>
      <trkpt lat="45.91043" lon="4.9575">
        <ele>289.1</ele>
        <time>2023-09-02T14:09:56Z</time>
      </trkpt>
      <trkpt lat="45.91039" lon="4.95751">
        <ele>289.2</ele>
        <time>2023-09-02T14:09:57Z</time>
      </trkpt>
      <trkpt lat="45.91035" lon="4.95753">
        <ele>289.2</ele>
        <time>2023-09-02T14:09:58Z</time>
      </trkpt>
      <trkpt lat="45.91032" lon="4.95754">
        <ele>289.3</ele>
        <time>2023-09-02T14:09:59Z</time>
      </trkpt>
      <trkpt lat="45.91029" lon="4.95756">
        <ele>289.3</ele>
        <time>2023-09-02T14:10:00Z</time>
      </trkpt>
      <trkpt lat="45.91025" lon="4.95757">
        <ele>289.4</ele>
        <time>2023-09-02T14:10:01Z</time>
      </trkpt>
      <trkpt lat="45.91022" lon="4.95759">
        <ele>289.4</ele>
        <time>2023-09-02T14:10:02Z</time>
      </trkpt>
      <trkpt lat="45.91018" lon="4.9576">
        <ele>289.5</ele>
        <time>2023-09-02T14:10:03Z</time>
      </trkpt>
      <trkpt lat="45.91015" lon="4.95762">
        <ele>289.6</ele>
        <time>2023-09-02T14:10:04Z</time>
      </trkpt>
      <trkpt lat="45.91011" lon="4.95763">
        <ele>289.6</ele>
        <time>2023-09-02T14:10:05Z</time>
      </trkpt>
      <trkpt lat="45.91008" lon="4.95765">
        <ele>289.7</ele>
        <time>2023-09-02T14:10:06Z</time>
      </trkpt>
      <trkpt lat="45.91004" lon="4.95766">
        <ele>289.7</ele>
        <time>2023-09-02T14:10:07Z</time>
      </trkpt>
      <trkpt lat="45.91001" lon="4.95767">
        <ele>289.8</ele>
        <time>2023-09-02T14:10:08Z</time>
      </trkpt>
      <trkpt lat="45.90997" lon="4.95769">
        <ele>289.8</ele>
        <time>2023-09-02T14:10:09Z</time>
      </trkpt>
      <trkpt lat="45.90994" lon="4.95771">
        <ele>289.9</ele>
        <time>2023-09-02T14:10:10Z</time>
      </trkpt>
      <trkpt lat="45.9099" lon="4.95772">
        <ele>289.9</ele>
        <time>2023-09-02T14:10:11Z</time>
      </trkpt>
      <trkpt lat="45.90986" lon="4.95774">
        <ele>290</ele>
        <time>2023-09-02T14:10:12Z</time>
      </trkpt>
      <trkpt lat="45.90983" lon="4.95775">
        <ele>290</ele>
        <time>2023-09-02T14:10:13Z</time>
      </trkpt>
      <trkpt lat="45.9098" lon="4.95777">
        <ele>290.1</ele>
        <time>2023-09-02T14:10:14Z</time>
      </trkpt>
      <trkpt lat="45.90976" lon="4.95778">
        <ele>290.2</ele>
        <time>2023-09-02T14:10:15Z</time>
      </trkpt>
      <trkpt lat="45.90973" lon="4.9578">
        <ele>290.2</ele>
        <time>2023-09-02T14:10:16Z</time>
      </trkpt>
      <trkpt lat="45.90969" lon="4.95781">
        <ele>290.3</ele>
        <time>2023-09-02T14:10:17Z</time>
      </trkpt>
      <trkpt lat="45.90966" lon="4.95782">
        <ele>290.3</ele>
        <time>2023-09-02T14:10:18Z</time>
      </trkpt>
      <trkpt lat="45.90963" lon="4.95784">
        <ele>290.4</ele>
        <time>2023-09-02T14:10:19Z</time>
      </trkpt>
      <trkpt lat="45.90959" lon="4.95786">
        <ele>290.4</ele>
        <time>2023-09-02T14:10:21Z</time>
      </trkpt>
      <trkpt lat="45.90955" lon="4.95787">
        <ele>290.5</ele>
        <time>2023-09-02T14:10:22Z</time>
      </trkpt>
      <trkpt lat="45.90952" lon="4.95789">
        <ele>290.5</ele>
        <time>2023-09-02T14:10:23Z</time>
      </trkpt>
      <trkpt lat="45.90948" lon="4.9579">
        <ele>290.6</ele>
        <time>2023-09-02T14:10:24Z</time>
      </trkpt>
      <trkpt lat="45.90945" lon="4.95792">
        <ele>290.6</ele>
        <time>2023-09-02T14:10:25Z</time>
      </trkpt>
      <trkpt lat="45.90941" lon="4.95793">
        <ele>290.7</ele>
        <time>2023-09-02T14:10:26Z</time>
      </trkpt>
      <trkpt lat="45.90938" lon="4.95795">
        <ele>290.7</ele>
        <time>2023-09-02T14:10:27Z</time>
      </trkpt>
      <trkpt lat="45.90934" lon="4.95796">
        <ele>290.7</ele>
        <time>2023-09-02T14:10:28Z</time>
      </trkpt>
      <trkpt lat="45.90931" lon="4.95798">
        <ele>290.8</ele>
        <time>2023-09-02T14:10:29Z</time>
      </trkpt>
      <trkpt lat="45.90927" lon="4.95799">
        <ele>290.8</ele>
        <time>2023-09-02T14:10:30Z</time>
      </trkpt>
      <trkpt lat="45.90924" lon="4.95801">
        <ele>290.8</ele>
        <time>2023-09-02T14:10:31Z</time>
      </trkpt>
      <trkpt lat="45.9092" lon="4.95802">
        <ele>290.8</ele>
        <time>2023-09-02T14:10:32Z</time>
      </trkpt>
      <trkpt lat="45.90917" lon="4.95803">
        <ele>290.8</ele>
        <time>2023-09-02T14:10:33Z</time>
      </trkpt>
      <trkpt lat="45.90913" lon="4.95805">
        <ele>290.8</ele>
        <time>2023-09-02T14:10:34Z</time>
      </trkpt>
      <trkpt lat="45.9091" lon="4.95807">
        <ele>290.9</ele>
        <time>2023-09-02T14:10:35Z</time>
      </trkpt>
      <trkpt lat="45.90907" lon="4.95808">
        <ele>290.9</ele>
        <time>2023-09-02T14:10:36Z</time>
      </trkpt>
      <trkpt lat="45.90903" lon="4.9581">
        <ele>290.9</ele>
        <time>2023-09-02T14:10:37Z</time>
      </trkpt>
      <trkpt lat="45.909" lon="4.95811">
        <ele>291</ele>
        <time>2023-09-02T14:10:38Z</time>
      </trkpt>
      <trkpt lat="45.90896" lon="4.95813">
        <ele>291</ele>
        <time>2023-09-02T14:10:39Z</time>
      </trkpt>
      <trkpt lat="45.90893" lon="4.95814">
        <ele>291</ele>
        <time>2023-09-02T14:10:40Z</time>
      </trkpt>
      <trkpt lat="45.90889" lon="4.95816">
        <ele>291</ele>
        <time>2023-09-02T14:10:41Z</time>
      </trkpt>
      <trkpt lat="45.90886" lon="4.95817">
        <ele>291</ele>
        <time>2023-09-02T14:10:42Z</time>
      </trkpt>
      <trkpt lat="45.90882" lon="4.95818">
        <ele>291</ele>
        <time>2023-09-02T14:10:43Z</time>
      </trkpt>
      <trkpt lat="45.90879" lon="4.9582">
        <ele>291</ele>
        <time>2023-09-02T14:10:44Z</time>
      </trkpt>
      <trkpt lat="45.90875" lon="4.95821">
        <ele>291</ele>
        <time>2023-09-02T14:10:45Z</time>
      </trkpt>
      <trkpt lat="45.90872" lon="4.95822">
        <ele>291</ele>
        <time>2023-09-02T14:10:46Z</time>
      </trkpt>
      <trkpt lat="45.90868" lon="4.95824">
        <ele>291</ele>
        <time>2023-09-02T14:10:47Z</time>
      </trkpt>
      <trkpt lat="45.90864" lon="4.95826">
        <ele>291</ele>
        <time>2023-09-02T14:10:48Z</time>
      </trkpt>
      <trkpt lat="45.90861" lon="4.95827">
        <ele>290.9</ele>
        <time>2023-09-02T14:10:49Z</time>
      </trkpt>
      <trkpt lat="45.90857" lon="4.95829">
        <ele>290.9</ele>
        <time>2023-09-02T14:10:50Z</time>
      </trkpt>
      <trkpt lat="45.90853" lon="4.9583">
        <ele>290.9</ele>
        <time>2023-09-02T14:10:51Z</time>
      </trkpt>
      <trkpt lat="45.9085" lon="4.95832">
        <ele>290.8</ele>
        <time>2023-09-02T14:10:52Z</time>
      </trkpt>
      <trkpt lat="45.90846" lon="4.95834">
        <ele>290.8</ele>
        <time>2023-09-02T14:10:53Z</time>
      </trkpt>
      <trkpt lat="45.90842" lon="4.95835">
        <ele>290.7</ele>
        <time>2023-09-02T14:10:54Z</time>
      </trkpt>
      <trkpt lat="45.90838" lon="4.95837">
        <ele>290.6</ele>
        <time>2023-09-02T14:10:55Z</time>
      </trkpt>
      <trkpt lat="45.90834" lon="4.95838">
        <ele>290.6</ele>
        <time>2023-09-02T14:10:56Z</time>
      </trkpt>
      <trkpt lat="45.90831" lon="4.9584">
        <ele>290.5</ele>
        <time>2023-09-02T14:10:57Z</time>
      </trkpt>
      <trkpt lat="45.90827" lon="4.95842">
        <ele>290.4</ele>
        <time>2023-09-02T14:10:58Z</time>
      </trkpt>
      <trkpt lat="45.90823" lon="4.95844">
        <ele>290.3</ele>
        <time>2023-09-02T14:10:59Z</time>
      </trkpt>
      <trkpt lat="45.90819" lon="4.95845">
        <ele>290.3</ele>
        <time>2023-09-02T14:11:00Z</time>
      </trkpt>
      <trkpt lat="45.90815" lon="4.95847">
        <ele>290.2</ele>
        <time>2023-09-02T14:11:01Z</time>
      </trkpt>
      <trkpt lat="45.90811" lon="4.95848">
        <ele>290.1</ele>
        <time>2023-09-02T14:11:02Z</time>
      </trkpt>
      <trkpt lat="45.90808" lon="4.9585">
        <ele>290.1</ele>
        <time>2023-09-02T14:11:03Z</time>
      </trkpt>
      <trkpt lat="45.90804" lon="4.95852">
        <ele>290</ele>
        <time>2023-09-02T14:11:04Z</time>
      </trkpt>
      <trkpt lat="45.908" lon="4.95854">
        <ele>289.9</ele>
        <time>2023-09-02T14:11:05Z</time>
      </trkpt>
      <trkpt lat="45.90797" lon="4.95855">
        <ele>289.9</ele>
        <time>2023-09-02T14:11:06Z</time>
      </trkpt>
      <trkpt lat="45.90793" lon="4.95857">
        <ele>289.8</ele>
        <time>2023-09-02T14:11:07Z</time>
      </trkpt>
      <trkpt lat="45.9079" lon="4.95859">
        <ele>289.7</ele>
        <time>2023-09-02T14:11:08Z</time>
      </trkpt>
      <trkpt lat="45.90786" lon="4.95861">
        <ele>289.7</ele>
        <time>2023-09-02T14:11:09Z</time>
      </trkpt>
      <trkpt lat="45.90783" lon="4.95862">
        <ele>289.6</ele>
        <time>2023-09-02T14:11:10Z</time>
      </trkpt>
      <trkpt lat="45.9078" lon="4.95861">
        <ele>289.5</ele>
        <time>2023-09-02T14:11:11Z</time>
      </trkpt>
      <trkpt lat="45.90778" lon="4.95856">
        <ele>289.7</ele>
        <time>2023-09-02T14:11:12Z</time>
      </trkpt>
      <trkpt lat="45.90777" lon="4.95852">
        <ele>289.8</ele>
        <time>2023-09-02T14:11:13Z</time>
      </trkpt>
      <trkpt lat="45.90777" lon="4.95847">
        <ele>289.9</ele>
        <time>2023-09-02T14:11:14Z</time>
      </trkpt>
      <trkpt lat="45.90777" lon="4.95844">
        <ele>290</ele>
        <time>2023-09-02T14:11:15Z</time>
      </trkpt>
      <trkpt lat="45.90777" lon="4.9584">
        <ele>290.1</ele>
        <time>2023-09-02T14:11:16Z</time>
      </trkpt>
      <trkpt lat="45.90776" lon="4.95835">
        <ele>290.2</ele>
        <time>2023-09-02T14:11:17Z</time>
      </trkpt>
      <trkpt lat="45.90776" lon="4.95833">
        <ele>290.3</ele>
        <time>2023-09-02T14:11:18Z</time>
      </trkpt>
      <trkpt lat="45.90776" lon="4.95829">
        <ele>290.4</ele>
        <time>2023-09-02T14:11:19Z</time>
      </trkpt>
      <trkpt lat="45.90775" lon="4.95825">
        <ele>290.5</ele>
        <time>2023-09-02T14:11:20Z</time>
      </trkpt>
      <trkpt lat="45.90775" lon="4.9582">
        <ele>290.7</ele>
        <time>2023-09-02T14:11:21Z</time>
      </trkpt>
      <trkpt lat="45.90775" lon="4.95818">
        <ele>290.7</ele>
        <time>2023-09-02T14:11:22Z</time>
      </trkpt>
      <trkpt lat="45.90774" lon="4.95813">
        <ele>290.9</ele>
        <time>2023-09-02T14:11:23Z</time>
      </trkpt>
      <trkpt lat="45.90774" lon="4.95811">
        <ele>291</ele>
        <time>2023-09-02T14:11:24Z</time>
      </trkpt>
      <trkpt lat="45.90774" lon="4.95806">
        <ele>291.1</ele>
        <time>2023-09-02T14:11:25Z</time>
      </trkpt>
      <trkpt lat="45.90774" lon="4.95804">
        <ele>291.2</ele>
        <time>2023-09-02T14:11:26Z</time>
      </trkpt>
      <trkpt lat="45.90773" lon="4.95799">
        <ele>291.3</ele>
        <time>2023-09-02T14:11:27Z</time>
      </trkpt>
      <trkpt lat="45.90773" lon="4.95797">
        <ele>291.4</ele>
        <time>2023-09-02T14:11:28Z</time>
      </trkpt>
      <trkpt lat="45.90773" lon="4.95792">
        <ele>291.5</ele>
        <time>2023-09-02T14:11:29Z</time>
      </trkpt>
      <trkpt lat="45.90772" lon="4.95791">
        <ele>291.6</ele>
        <time>2023-09-02T14:11:30Z</time>
      </trkpt>
      <trkpt lat="45.90772" lon="4.95785">
        <ele>291.7</ele>
        <time>2023-09-02T14:11:31Z</time>
      </trkpt>
      <trkpt lat="45.90772" lon="4.95784">
        <ele>291.7</ele>
        <time>2023-09-02T14:11:32Z</time>
      </trkpt>
      <trkpt lat="45.90772" lon="4.95779">
        <ele>291.9</ele>
        <time>2023-09-02T14:11:33Z</time>
      </trkpt>
      <trkpt lat="45.90772" lon="4.95777">
        <ele>291.9</ele>
        <time>2023-09-02T14:11:34Z</time>
      </trkpt>
      <trkpt lat="45.90771" lon="4.95772">
        <ele>292</ele>
        <time>2023-09-02T14:11:35Z</time>
      </trkpt>
      <trkpt lat="45.90771" lon="4.9577">
        <ele>292.1</ele>
        <time>2023-09-02T14:11:36Z</time>
      </trkpt>
      <trkpt lat="45.90771" lon="4.95765">
        <ele>292.2</ele>
        <time>2023-09-02T14:11:37Z</time>
      </trkpt>
      <trkpt lat="45.90771" lon="4.95763">
        <ele>292.2</ele>
        <time>2023-09-02T14:11:38Z</time>
      </trkpt>
      <trkpt lat="45.9077" lon="4.95758">
        <ele>292.3</ele>
        <time>2023-09-02T14:11:39Z</time>
      </trkpt>
      <trkpt lat="45.9077" lon="4.95756">
        <ele>292.4</ele>
        <time>2023-09-02T14:11:40Z</time>
      </trkpt>
      <trkpt lat="45.9077" lon="4.9575">
        <ele>292.5</ele>
        <time>2023-09-02T14:11:41Z</time>
      </trkpt>
      <trkpt lat="45.9077" lon="4.95748">
        <ele>292.5</ele>
        <time>2023-09-02T14:11:42Z</time>
      </trkpt>
      <trkpt lat="45.90769" lon="4.95743">
        <ele>292.6</ele>
        <time>2023-09-02T14:11:43Z</time>
      </trkpt>
      <trkpt lat="45.90769" lon="4.95741">
        <ele>292.6</ele>
        <time>2023-09-02T14:11:44Z</time>
      </trkpt>
      <trkpt lat="45.90769" lon="4.95736">
        <ele>292.7</ele>
        <time>2023-09-02T14:11:45Z</time>
      </trkpt>
      <trkpt lat="45.90769" lon="4.95734">
        <ele>292.7</ele>
        <time>2023-09-02T14:11:46Z</time>
      </trkpt>
      <trkpt lat="45.90769" lon="4.95728">
        <ele>292.8</ele>
        <time>2023-09-02T14:11:47Z</time>
      </trkpt>
      <trkpt lat="45.90769" lon="4.95726">
        <ele>292.8</ele>
        <time>2023-09-02T14:11:48Z</time>
      </trkpt>
      <trkpt lat="45.9077" lon="4.95721">
        <ele>292.9</ele>
        <time>2023-09-02T14:11:49Z</time>
      </trkpt>
      <trkpt lat="45.9077" lon="4.95719">
        <ele>292.9</ele>
        <time>2023-09-02T14:11:50Z</time>
      </trkpt>
      <trkpt lat="45.9077" lon="4.95715">
        <ele>292.9</ele>
        <time>2023-09-02T14:11:51Z</time>
      </trkpt>
      <trkpt lat="45.9077" lon="4.95711">
        <ele>293</ele>
        <time>2023-09-02T14:11:52Z</time>
      </trkpt>
      <trkpt lat="45.9077" lon="4.95707">
        <ele>293</ele>
        <time>2023-09-02T14:11:53Z</time>
      </trkpt>
      <trkpt lat="45.90771" lon="4.95699">
        <ele>293.1</ele>
        <time>2023-09-02T14:11:54Z</time>
      </trkpt>
      <trkpt lat="45.90772" lon="4.95695">
        <ele>293.1</ele>
        <time>2023-09-02T14:11:55Z</time>
      </trkpt>
      <trkpt lat="45.90772" lon="4.95692">
        <ele>293.1</ele>
        <time>2023-09-02T14:11:56Z</time>
      </trkpt>
      <trkpt lat="45.90772" lon="4.95687">
        <ele>293.1</ele>
        <time>2023-09-02T14:11:58Z</time>
      </trkpt>
      <trkpt lat="45.90773" lon="4.95682">
        <ele>293.1</ele>
        <time>2023-09-02T14:11:59Z</time>
      </trkpt>
      <trkpt lat="45.90774" lon="4.9568">
        <ele>293.1</ele>
        <time>2023-09-02T14:12:00Z</time>
      </trkpt>
      <trkpt lat="45.90775" lon="4.95676">
        <ele>293.1</ele>
        <time>2023-09-02T14:12:01Z</time>
      </trkpt>
      <trkpt lat="45.90775" lon="4.95672">
        <ele>293.1</ele>
        <time>2023-09-02T14:12:02Z</time>
      </trkpt>
      <trkpt lat="45.90775" lon="4.95667">
        <ele>293.1</ele>
        <time>2023-09-02T14:12:03Z</time>
      </trkpt>
      <trkpt lat="45.90775" lon="4.95663">
        <ele>293</ele>
        <time>2023-09-02T14:12:04Z</time>
      </trkpt>
      <trkpt lat="45.90776" lon="4.95658">
        <ele>293</ele>
        <time>2023-09-02T14:12:05Z</time>
      </trkpt>
      <trkpt lat="45.90776" lon="4.95653">
        <ele>293</ele>
        <time>2023-09-02T14:12:06Z</time>
      </trkpt>
      <trkpt lat="45.90776" lon="4.95649">
        <ele>292.9</ele>
        <time>2023-09-02T14:12:07Z</time>
      </trkpt>
      <trkpt lat="45.90776" lon="4.95645">
        <ele>292.9</ele>
        <time>2023-09-02T14:12:08Z</time>
      </trkpt>
      <trkpt lat="45.90775" lon="4.95641">
        <ele>292.9</ele>
        <time>2023-09-02T14:12:09Z</time>
      </trkpt>
      <trkpt lat="45.90775" lon="4.95636">
        <ele>292.8</ele>
        <time>2023-09-02T14:12:10Z</time>
      </trkpt>
      <trkpt lat="45.90774" lon="4.95632">
        <ele>292.8</ele>
        <time>2023-09-02T14:12:11Z</time>
      </trkpt>
      <trkpt lat="45.90773" lon="4.95627">
        <ele>292.7</ele>
        <time>2023-09-02T14:12:12Z</time>
      </trkpt>
      <trkpt lat="45.90773" lon="4.95622">
        <ele>292.7</ele>
        <time>2023-09-02T14:12:13Z</time>
      </trkpt>
      <trkpt lat="45.90772" lon="4.95617">
        <ele>292.6</ele>
        <time>2023-09-02T14:12:14Z</time>
      </trkpt>
      <trkpt lat="45.90772" lon="4.95612">
        <ele>292.6</ele>
        <time>2023-09-02T14:12:15Z</time>
      </trkpt>
      <trkpt lat="45.90771" lon="4.95607">
        <ele>292.5</ele>
        <time>2023-09-02T14:12:16Z</time>
      </trkpt>
      <trkpt lat="45.9077" lon="4.95602">
        <ele>292.5</ele>
        <time>2023-09-02T14:12:17Z</time>
      </trkpt>
      <trkpt lat="45.90769" lon="4.95597">
        <ele>292.4</ele>
        <time>2023-09-02T14:12:18Z</time>
      </trkpt>
      <trkpt lat="45.90769" lon="4.95592">
        <ele>292.3</ele>
        <time>2023-09-02T14:12:19Z</time>
      </trkpt>
      <trkpt lat="45.90768" lon="4.95587">
        <ele>292.3</ele>
        <time>2023-09-02T14:12:20Z</time>
      </trkpt>
      <trkpt lat="45.90767" lon="4.95582">
        <ele>292.2</ele>
        <time>2023-09-02T14:12:21Z</time>
      </trkpt>
      <trkpt lat="45.90766" lon="4.95577">
        <ele>292.1</ele>
        <time>2023-09-02T14:12:22Z</time>
      </trkpt>
      <trkpt lat="45.90766" lon="4.95571">
        <ele>292.1</ele>
        <time>2023-09-02T14:12:23Z</time>
      </trkpt>
      <trkpt lat="45.90765" lon="4.95566">
        <ele>292</ele>
        <time>2023-09-02T14:12:24Z</time>
      </trkpt>
      <trkpt lat="45.90764" lon="4.95562">
        <ele>291.9</ele>
        <time>2023-09-02T14:12:25Z</time>
      </trkpt>
      <trkpt lat="45.90764" lon="4.95557">
        <ele>291.9</ele>
        <time>2023-09-02T14:12:26Z</time>
      </trkpt>
      <trkpt lat="45.90763" lon="4.95552">
        <ele>291.8</ele>
        <time>2023-09-02T14:12:27Z</time>
      </trkpt>
      <trkpt lat="45.90762" lon="4.95545">
        <ele>291.7</ele>
        <time>2023-09-02T14:12:28Z</time>
      </trkpt>
      <trkpt lat="45.90762" lon="4.95542">
        <ele>291.7</ele>
        <time>2023-09-02T14:12:29Z</time>
      </trkpt>
      <trkpt lat="45.90761" lon="4.95537">
        <ele>291.6</ele>
        <time>2023-09-02T14:12:30Z</time>
      </trkpt>
      <trkpt lat="45.9076" lon="4.95532">
        <ele>291.6</ele>
        <time>2023-09-02T14:12:31Z</time>
      </trkpt>
      <trkpt lat="45.90759" lon="4.95528">
        <ele>291.6</ele>
        <time>2023-09-02T14:12:32Z</time>
      </trkpt>
      <trkpt lat="45.90759" lon="4.95523">
        <ele>291.5</ele>
        <time>2023-09-02T14:12:33Z</time>
      </trkpt>
      <trkpt lat="45.90758" lon="4.95518">
        <ele>291.5</ele>
        <time>2023-09-02T14:12:34Z</time>
      </trkpt>
      <trkpt lat="45.90757" lon="4.95513">
        <ele>291.5</ele>
        <time>2023-09-02T14:12:35Z</time>
      </trkpt>
      <trkpt lat="45.90756" lon="4.95509">
        <ele>291.4</ele>
        <time>2023-09-02T14:12:36Z</time>
      </trkpt>
      <trkpt lat="45.90756" lon="4.95505">
        <ele>291.4</ele>
        <time>2023-09-02T14:12:37Z</time>
      </trkpt>
      <trkpt lat="45.90755" lon="4.955">
        <ele>291.4</ele>
        <time>2023-09-02T14:12:38Z</time>
      </trkpt>
      <trkpt lat="45.90754" lon="4.95496">
        <ele>291.4</ele>
        <time>2023-09-02T14:12:39Z</time>
      </trkpt>
      <trkpt lat="45.90753" lon="4.95492">
        <ele>291.4</ele>
        <time>2023-09-02T14:12:40Z</time>
      </trkpt>
      <trkpt lat="45.90752" lon="4.95487">
        <ele>291.3</ele>
        <time>2023-09-02T14:12:41Z</time>
      </trkpt>
      <trkpt lat="45.90751" lon="4.95483">
        <ele>291.3</ele>
        <time>2023-09-02T14:12:42Z</time>
      </trkpt>
      <trkpt lat="45.9075" lon="4.95479">
        <ele>291.3</ele>
        <time>2023-09-02T14:12:43Z</time>
      </trkpt>
      <trkpt lat="45.90749" lon="4.95475">
        <ele>291.3</ele>
        <time>2023-09-02T14:12:44Z</time>
      </trkpt>
      <trkpt lat="45.90748" lon="4.9547">
        <ele>291.3</ele>
        <time>2023-09-02T14:12:45Z</time>
      </trkpt>
      <trkpt lat="45.90746" lon="4.95467">
        <ele>291.2</ele>
        <time>2023-09-02T14:12:46Z</time>
      </trkpt>
      <trkpt lat="45.90745" lon="4.95463">
        <ele>291.2</ele>
        <time>2023-09-02T14:12:47Z</time>
      </trkpt>
      <trkpt lat="45.90744" lon="4.95458">
        <ele>291.2</ele>
        <time>2023-09-02T14:12:48Z</time>
      </trkpt>
      <trkpt lat="45.90742" lon="4.95453">
        <ele>291.2</ele>
        <time>2023-09-02T14:12:49Z</time>
      </trkpt>
      <trkpt lat="45.9074" lon="4.95448">
        <ele>291.1</ele>
        <time>2023-09-02T14:12:50Z</time>
      </trkpt>
      <trkpt lat="45.9074" lon="4.95445">
        <ele>291.1</ele>
        <time>2023-09-02T14:12:51Z</time>
      </trkpt>
      <trkpt lat="45.90739" lon="4.95441">
        <ele>291</ele>
        <time>2023-09-02T14:12:52Z</time>
      </trkpt>
      <trkpt lat="45.90738" lon="4.95437">
        <ele>291</ele>
        <time>2023-09-02T14:12:53Z</time>
      </trkpt>
      <trkpt lat="45.90737" lon="4.95433">
        <ele>290.9</ele>
        <time>2023-09-02T14:12:54Z</time>
      </trkpt>
      <trkpt lat="45.90735" lon="4.95428">
        <ele>290.8</ele>
        <time>2023-09-02T14:12:55Z</time>
      </trkpt>
      <trkpt lat="45.90734" lon="4.95424">
        <ele>290.7</ele>
        <time>2023-09-02T14:12:56Z</time>
      </trkpt>
      <trkpt lat="45.90733" lon="4.9542">
        <ele>290.6</ele>
        <time>2023-09-02T14:12:57Z</time>
      </trkpt>
      <trkpt lat="45.90731" lon="4.95415">
        <ele>290.5</ele>
        <time>2023-09-02T14:12:58Z</time>
      </trkpt>
      <trkpt lat="45.9073" lon="4.9541">
        <ele>290.4</ele>
        <time>2023-09-02T14:12:59Z</time>
      </trkpt>
      <trkpt lat="45.90729" lon="4.95405">
        <ele>290.3</ele>
        <time>2023-09-02T14:13:00Z</time>
      </trkpt>
      <trkpt lat="45.90727" lon="4.954">
        <ele>290.2</ele>
        <time>2023-09-02T14:13:01Z</time>
      </trkpt>
      <trkpt lat="45.90725" lon="4.95395">
        <ele>290.1</ele>
        <time>2023-09-02T14:13:02Z</time>
      </trkpt>
      <trkpt lat="45.90724" lon="4.9539">
        <ele>290</ele>
        <time>2023-09-02T14:13:03Z</time>
      </trkpt>
      <trkpt lat="45.90722" lon="4.95384">
        <ele>289.9</ele>
        <time>2023-09-02T14:13:04Z</time>
      </trkpt>
      <trkpt lat="45.90721" lon="4.95379">
        <ele>289.7</ele>
        <time>2023-09-02T14:13:05Z</time>
      </trkpt>
      <trkpt lat="45.90719" lon="4.95374">
        <ele>289.6</ele>
        <time>2023-09-02T14:13:06Z</time>
      </trkpt>
      <trkpt lat="45.90717" lon="4.95368">
        <ele>289.5</ele>
        <time>2023-09-02T14:13:07Z</time>
      </trkpt>
      <trkpt lat="45.90716" lon="4.95363">
        <ele>289.4</ele>
        <time>2023-09-02T14:13:08Z</time>
      </trkpt>
      <trkpt lat="45.90713" lon="4.95358">
        <ele>289.2</ele>
        <time>2023-09-02T14:13:09Z</time>
      </trkpt>
      <trkpt lat="45.90711" lon="4.95353">
        <ele>289.1</ele>
        <time>2023-09-02T14:13:10Z</time>
      </trkpt>
      <trkpt lat="45.90708" lon="4.95347">
        <ele>288.9</ele>
        <time>2023-09-02T14:13:11Z</time>
      </trkpt>
      <trkpt lat="45.90706" lon="4.95341">
        <ele>288.7</ele>
        <time>2023-09-02T14:13:12Z</time>
      </trkpt>
      <trkpt lat="45.90703" lon="4.95333">
        <ele>288.4</ele>
        <time>2023-09-02T14:13:13Z</time>
      </trkpt>
      <trkpt lat="45.90701" lon="4.95326">
        <ele>288.2</ele>
        <time>2023-09-02T14:13:14Z</time>
      </trkpt>
      <trkpt lat="45.90699" lon="4.95321">
        <ele>288.1</ele>
        <time>2023-09-02T14:13:15Z</time>
      </trkpt>
      <trkpt lat="45.90697" lon="4.95315">
        <ele>287.9</ele>
        <time>2023-09-02T14:13:16Z</time>
      </trkpt>
      <trkpt lat="45.90693" lon="4.9531">
        <ele>287.8</ele>
        <time>2023-09-02T14:13:17Z</time>
      </trkpt>
      <trkpt lat="45.90691" lon="4.95303">
        <ele>287.7</ele>
        <time>2023-09-02T14:13:18Z</time>
      </trkpt>
      <trkpt lat="45.90688" lon="4.95296">
        <ele>287.6</ele>
        <time>2023-09-02T14:13:19Z</time>
      </trkpt>
      <trkpt lat="45.90685" lon="4.9529">
        <ele>287.5</ele>
        <time>2023-09-02T14:13:20Z</time>
      </trkpt>
      <trkpt lat="45.90682" lon="4.95284">
        <ele>287.4</ele>
        <time>2023-09-02T14:13:21Z</time>
      </trkpt>
      <trkpt lat="45.9068" lon="4.95279">
        <ele>287.4</ele>
        <time>2023-09-02T14:13:22Z</time>
      </trkpt>
      <trkpt lat="45.90677" lon="4.95273">
        <ele>287.3</ele>
        <time>2023-09-02T14:13:23Z</time>
      </trkpt>
      <trkpt lat="45.90675" lon="4.95268">
        <ele>287.3</ele>
        <time>2023-09-02T14:13:24Z</time>
      </trkpt>
      <trkpt lat="45.90672" lon="4.95263">
        <ele>287.3</ele>
        <time>2023-09-02T14:13:25Z</time>
      </trkpt>
      <trkpt lat="45.9067" lon="4.95257">
        <ele>287.2</ele>
        <time>2023-09-02T14:13:26Z</time>
      </trkpt>
      <trkpt lat="45.90668" lon="4.95252">
        <ele>287.2</ele>
        <time>2023-09-02T14:13:27Z</time>
      </trkpt>
      <trkpt lat="45.90666" lon="4.95248">
        <ele>287.2</ele>
        <time>2023-09-02T14:13:28Z</time>
      </trkpt>
      <trkpt lat="45.90665" lon="4.95243">
        <ele>287.2</ele>
        <time>2023-09-02T14:13:29Z</time>
      </trkpt>
      <trkpt lat="45.90662" lon="4.95238">
        <ele>287.2</ele>
        <time>2023-09-02T14:13:30Z</time>
      </trkpt>
      <trkpt lat="45.9066" lon="4.95234">
        <ele>287.2</ele>
        <time>2023-09-02T14:13:31Z</time>
      </trkpt>
      <trkpt lat="45.90658" lon="4.9523">
        <ele>287.2</ele>
        <time>2023-09-02T14:13:32Z</time>
      </trkpt>
      <trkpt lat="45.90658" lon="4.95228">
        <ele>287.1</ele>
        <time>2023-09-02T14:13:33Z</time>
      </trkpt>
      <trkpt lat="45.90656" lon="4.95223">
        <ele>287.1</ele>
        <time>2023-09-02T14:13:34Z</time>
      </trkpt>
      <trkpt lat="45.90654" lon="4.95219">
        <ele>287.1</ele>
        <time>2023-09-02T14:13:35Z</time>
      </trkpt>
      <trkpt lat="45.90652" lon="4.95214">
        <ele>287.1</ele>
        <time>2023-09-02T14:13:36Z</time>
      </trkpt>
      <trkpt lat="45.9065" lon="4.9521">
        <ele>287.1</ele>
        <time>2023-09-02T14:13:37Z</time>
      </trkpt>
      <trkpt lat="45.90649" lon="4.95206">
        <ele>287.1</ele>
        <time>2023-09-02T14:13:38Z</time>
      </trkpt>
      <trkpt lat="45.90646" lon="4.95201">
        <ele>287</ele>
        <time>2023-09-02T14:13:39Z</time>
      </trkpt>
      <trkpt lat="45.90645" lon="4.95199">
        <ele>287</ele>
        <time>2023-09-02T14:13:40Z</time>
      </trkpt>
      <trkpt lat="45.90644" lon="4.95195">
        <ele>287</ele>
        <time>2023-09-02T14:13:41Z</time>
      </trkpt>
      <trkpt lat="45.90642" lon="4.9519">
        <ele>287</ele>
        <time>2023-09-02T14:13:42Z</time>
      </trkpt>
      <trkpt lat="45.90641" lon="4.95186">
        <ele>286.9</ele>
        <time>2023-09-02T14:13:43Z</time>
      </trkpt>
      <trkpt lat="45.90639" lon="4.95183">
        <ele>286.9</ele>
        <time>2023-09-02T14:13:44Z</time>
      </trkpt>
      <trkpt lat="45.90637" lon="4.95178">
        <ele>286.9</ele>
        <time>2023-09-02T14:13:45Z</time>
      </trkpt>
      <trkpt lat="45.90636" lon="4.95173">
        <ele>286.9</ele>
        <time>2023-09-02T14:13:46Z</time>
      </trkpt>
      <trkpt lat="45.90636" lon="4.95171">
        <ele>286.9</ele>
        <time>2023-09-02T14:13:47Z</time>
      </trkpt>
      <trkpt lat="45.90634" lon="4.95166">
        <ele>286.9</ele>
        <time>2023-09-02T14:13:48Z</time>
      </trkpt>
      <trkpt lat="45.90633" lon="4.95162">
        <ele>286.9</ele>
        <time>2023-09-02T14:13:49Z</time>
      </trkpt>
      <trkpt lat="45.90632" lon="4.95157">
        <ele>286.9</ele>
        <time>2023-09-02T14:13:50Z</time>
      </trkpt>
      <trkpt lat="45.90632" lon="4.95153">
        <ele>286.9</ele>
        <time>2023-09-02T14:13:51Z</time>
      </trkpt>
      <trkpt lat="45.90631" lon="4.9515">
        <ele>286.9</ele>
        <time>2023-09-02T14:13:52Z</time>
      </trkpt>
      <trkpt lat="45.90629" lon="4.95146">
        <ele>286.9</ele>
        <time>2023-09-02T14:13:53Z</time>
      </trkpt>
      <trkpt lat="45.90628" lon="4.95142">
        <ele>286.9</ele>
        <time>2023-09-02T14:13:54Z</time>
      </trkpt>
      <trkpt lat="45.90627" lon="4.9514">
        <ele>286.9</ele>
        <time>2023-09-02T14:13:55Z</time>
      </trkpt>
      <trkpt lat="45.90624" lon="4.95135">
        <ele>286.9</ele>
        <time>2023-09-02T14:13:56Z</time>
      </trkpt>
      <trkpt lat="45.90622" lon="4.95131">
        <ele>286.9</ele>
        <time>2023-09-02T14:13:57Z</time>
      </trkpt>
      <trkpt lat="45.90622" lon="4.95124">
        <ele>287</ele>
        <time>2023-09-02T14:13:58Z</time>
      </trkpt>
      <trkpt lat="45.90622" lon="4.95122">
        <ele>287</ele>
        <time>2023-09-02T14:13:59Z</time>
      </trkpt>
      <trkpt lat="45.90621" lon="4.95116">
        <ele>287</ele>
        <time>2023-09-02T14:14:00Z</time>
      </trkpt>
      <trkpt lat="45.9062" lon="4.95114">
        <ele>287</ele>
        <time>2023-09-02T14:14:01Z</time>
      </trkpt>
      <trkpt lat="45.90619" lon="4.9511">
        <ele>287</ele>
        <time>2023-09-02T14:14:02Z</time>
      </trkpt>
      <trkpt lat="45.90618" lon="4.95105">
        <ele>287</ele>
        <time>2023-09-02T14:14:03Z</time>
      </trkpt>
      <trkpt lat="45.90616" lon="4.95103">
        <ele>287</ele>
        <time>2023-09-02T14:14:04Z</time>
      </trkpt>
      <trkpt lat="45.90615" lon="4.95099">
        <ele>287</ele>
        <time>2023-09-02T14:14:05Z</time>
      </trkpt>
      <trkpt lat="45.90614" lon="4.95095">
        <ele>287</ele>
        <time>2023-09-02T14:14:06Z</time>
      </trkpt>
      <trkpt lat="45.90611" lon="4.9509">
        <ele>287.1</ele>
        <time>2023-09-02T14:14:07Z</time>
      </trkpt>
      <trkpt lat="45.90609" lon="4.95087">
        <ele>287.1</ele>
        <time>2023-09-02T14:14:08Z</time>
      </trkpt>
      <trkpt lat="45.90607" lon="4.95083">
        <ele>287.1</ele>
        <time>2023-09-02T14:14:09Z</time>
      </trkpt>
      <trkpt lat="45.90605" lon="4.95081">
        <ele>287.1</ele>
        <time>2023-09-02T14:14:10Z</time>
      </trkpt>
      <trkpt lat="45.90603" lon="4.95078">
        <ele>287.1</ele>
        <time>2023-09-02T14:14:11Z</time>
      </trkpt>
      <trkpt lat="45.90602" lon="4.95077">
        <ele>287.1</ele>
        <time>2023-09-02T14:14:12Z</time>
      </trkpt>
      <trkpt lat="45.90601" lon="4.95072">
        <ele>287.2</ele>
        <time>2023-09-02T14:14:13Z</time>
      </trkpt>
      <trkpt lat="45.90599" lon="4.95069">
        <ele>287.2</ele>
        <time>2023-09-02T14:14:14Z</time>
      </trkpt>
      <trkpt lat="45.90597" lon="4.95065">
        <ele>287.2</ele>
        <time>2023-09-02T14:14:15Z</time>
      </trkpt>
      <trkpt lat="45.90595" lon="4.95061">
        <ele>287.2</ele>
        <time>2023-09-02T14:14:16Z</time>
      </trkpt>
      <trkpt lat="45.90593" lon="4.95059">
        <ele>287.2</ele>
        <time>2023-09-02T14:14:17Z</time>
      </trkpt>
      <trkpt lat="45.90591" lon="4.95054">
        <ele>287.2</ele>
        <time>2023-09-02T14:14:18Z</time>
      </trkpt>
      <trkpt lat="45.9059" lon="4.95051">
        <ele>287.2</ele>
        <time>2023-09-02T14:14:19Z</time>
      </trkpt>
      <trkpt lat="45.90589" lon="4.95046">
        <ele>287.3</ele>
        <time>2023-09-02T14:14:20Z</time>
      </trkpt>
      <trkpt lat="45.90587" lon="4.95043">
        <ele>287.3</ele>
        <time>2023-09-02T14:14:21Z</time>
      </trkpt>
      <trkpt lat="45.90585" lon="4.95038">
        <ele>287.3</ele>
        <time>2023-09-02T14:14:22Z</time>
      </trkpt>
      <trkpt lat="45.90584" lon="4.95036">
        <ele>287.3</ele>
        <time>2023-09-02T14:14:23Z</time>
      </trkpt>
      <trkpt lat="45.90582" lon="4.95033">
        <ele>287.3</ele>
        <time>2023-09-02T14:14:24Z</time>
      </trkpt>
      <trkpt lat="45.90579" lon="4.95028">
        <ele>287.3</ele>
        <time>2023-09-02T14:14:25Z</time>
      </trkpt>
      <trkpt lat="45.90578" lon="4.95026">
        <ele>287.4</ele>
        <time>2023-09-02T14:14:26Z</time>
      </trkpt>
      <trkpt lat="45.90576" lon="4.95022">
        <ele>287.4</ele>
        <time>2023-09-02T14:14:27Z</time>
      </trkpt>
      <trkpt lat="45.90575" lon="4.9502">
        <ele>287.4</ele>
        <time>2023-09-02T14:14:28Z</time>
      </trkpt>
      <trkpt lat="45.90572" lon="4.95016">
        <ele>287.4</ele>
        <time>2023-09-02T14:14:29Z</time>
      </trkpt>
      <trkpt lat="45.90571" lon="4.95014">
        <ele>287.4</ele>
        <time>2023-09-02T14:14:30Z</time>
      </trkpt>
      <trkpt lat="45.90568" lon="4.9501">
        <ele>287.5</ele>
        <time>2023-09-02T14:14:31Z</time>
      </trkpt>
      <trkpt lat="45.90567" lon="4.95007">
        <ele>287.5</ele>
        <time>2023-09-02T14:14:32Z</time>
      </trkpt>
      <trkpt lat="45.90564" lon="4.95002">
        <ele>287.5</ele>
        <time>2023-09-02T14:14:33Z</time>
      </trkpt>
      <trkpt lat="45.90562" lon="4.94999">
        <ele>287.6</ele>
        <time>2023-09-02T14:14:34Z</time>
      </trkpt>
      <trkpt lat="45.9056" lon="4.94996">
        <ele>287.6</ele>
        <time>2023-09-02T14:14:35Z</time>
      </trkpt>
      <trkpt lat="45.90558" lon="4.94995">
        <ele>287.6</ele>
        <time>2023-09-02T14:14:36Z</time>
      </trkpt>
      <trkpt lat="45.90557" lon="4.94991">
        <ele>287.6</ele>
        <time>2023-09-02T14:14:37Z</time>
      </trkpt>
      <trkpt lat="45.90554" lon="4.94987">
        <ele>287.7</ele>
        <time>2023-09-02T14:14:38Z</time>
      </trkpt>
      <trkpt lat="45.90551" lon="4.94983">
        <ele>287.7</ele>
        <time>2023-09-02T14:14:39Z</time>
      </trkpt>
      <trkpt lat="45.9055" lon="4.94982">
        <ele>287.7</ele>
        <time>2023-09-02T14:14:40Z</time>
      </trkpt>
      <trkpt lat="45.90547" lon="4.94979">
        <ele>287.8</ele>
        <time>2023-09-02T14:14:41Z</time>
      </trkpt>
      <trkpt lat="45.90544" lon="4.94976">
        <ele>287.8</ele>
        <time>2023-09-02T14:14:42Z</time>
      </trkpt>
      <trkpt lat="45.90543" lon="4.94975">
        <ele>287.8</ele>
        <time>2023-09-02T14:14:43Z</time>
      </trkpt>
      <trkpt lat="45.90541" lon="4.94972">
        <ele>287.9</ele>
        <time>2023-09-02T14:14:44Z</time>
      </trkpt>
      <trkpt lat="45.90538" lon="4.94967">
        <ele>287.9</ele>
        <time>2023-09-02T14:14:45Z</time>
      </trkpt>
      <trkpt lat="45.90537" lon="4.94965">
        <ele>287.9</ele>
        <time>2023-09-02T14:14:46Z</time>
      </trkpt>
      <trkpt lat="45.90536" lon="4.94963">
        <ele>287.9</ele>
        <time>2023-09-02T14:14:47Z</time>
      </trkpt>
      <trkpt lat="45.90533" lon="4.94959">
        <ele>288</ele>
        <time>2023-09-02T14:14:48Z</time>
      </trkpt>
      <trkpt lat="45.9053" lon="4.94955">
        <ele>288</ele>
        <time>2023-09-02T14:14:49Z</time>
      </trkpt>
      <trkpt lat="45.90527" lon="4.94952">
        <ele>288.1</ele>
        <time>2023-09-02T14:14:50Z</time>
      </trkpt>
      <trkpt lat="45.90526" lon="4.9495">
        <ele>288.1</ele>
        <time>2023-09-02T14:14:51Z</time>
      </trkpt>
      <trkpt lat="45.90524" lon="4.94947">
        <ele>288.1</ele>
        <time>2023-09-02T14:14:52Z</time>
      </trkpt>
      <trkpt lat="45.90521" lon="4.94944">
        <ele>288.2</ele>
        <time>2023-09-02T14:14:53Z</time>
      </trkpt>
      <trkpt lat="45.90519" lon="4.9494">
        <ele>288.2</ele>
        <time>2023-09-02T14:14:54Z</time>
      </trkpt>
      <trkpt lat="45.90518" lon="4.94938">
        <ele>288.2</ele>
        <time>2023-09-02T14:14:55Z</time>
      </trkpt>
      <trkpt lat="45.90514" lon="4.94934">
        <ele>288.3</ele>
        <time>2023-09-02T14:14:56Z</time>
      </trkpt>
      <trkpt lat="45.90513" lon="4.94933">
        <ele>288.3</ele>
        <time>2023-09-02T14:14:57Z</time>
      </trkpt>
      <trkpt lat="45.90511" lon="4.94929">
        <ele>288.3</ele>
        <time>2023-09-02T14:14:58Z</time>
      </trkpt>
      <trkpt lat="45.90507" lon="4.94927">
        <ele>288.4</ele>
        <time>2023-09-02T14:14:59Z</time>
      </trkpt>
      <trkpt lat="45.90506" lon="4.94925">
        <ele>288.4</ele>
        <time>2023-09-02T14:15:00Z</time>
      </trkpt>
      <trkpt lat="45.90504" lon="4.94922">
        <ele>288.4</ele>
        <time>2023-09-02T14:15:01Z</time>
      </trkpt>
      <trkpt lat="45.90502" lon="4.94918">
        <ele>288.4</ele>
        <time>2023-09-02T14:15:02Z</time>
      </trkpt>
      <trkpt lat="45.905" lon="4.94914">
        <ele>288.4</ele>
        <time>2023-09-02T14:15:03Z</time>
      </trkpt>
      <trkpt lat="45.90497" lon="4.94911">
        <ele>288.4</ele>
        <time>2023-09-02T14:15:04Z</time>
      </trkpt>
      <trkpt lat="45.90494" lon="4.94907">
        <ele>288.4</ele>
        <time>2023-09-02T14:15:05Z</time>
      </trkpt>
      <trkpt lat="45.90492" lon="4.94903">
        <ele>288.4</ele>
        <time>2023-09-02T14:15:06Z</time>
      </trkpt>
      <trkpt lat="45.90489" lon="4.949">
        <ele>288.3</ele>
        <time>2023-09-02T14:15:07Z</time>
      </trkpt>
      <trkpt lat="45.90486" lon="4.94896">
        <ele>288.2</ele>
        <time>2023-09-02T14:15:08Z</time>
      </trkpt>
      <trkpt lat="45.90484" lon="4.94894">
        <ele>288.2</ele>
        <time>2023-09-02T14:15:09Z</time>
      </trkpt>
      <trkpt lat="45.9048" lon="4.9489">
        <ele>288.1</ele>
        <time>2023-09-02T14:15:10Z</time>
      </trkpt>
      <trkpt lat="45.90478" lon="4.94887">
        <ele>288</ele>
        <time>2023-09-02T14:15:11Z</time>
      </trkpt>
      <trkpt lat="45.90474" lon="4.94883">
        <ele>288</ele>
        <time>2023-09-02T14:15:12Z</time>
      </trkpt>
      <trkpt lat="45.90471" lon="4.9488">
        <ele>287.9</ele>
        <time>2023-09-02T14:15:13Z</time>
      </trkpt>
      <trkpt lat="45.90469" lon="4.94876">
        <ele>287.8</ele>
        <time>2023-09-02T14:15:14Z</time>
      </trkpt>
      <trkpt lat="45.90465" lon="4.94874">
        <ele>287.7</ele>
        <time>2023-09-02T14:15:15Z</time>
      </trkpt>
      <trkpt lat="45.90462" lon="4.9487">
        <ele>287.7</ele>
        <time>2023-09-02T14:15:16Z</time>
      </trkpt>
      <trkpt lat="45.90459" lon="4.94867">
        <ele>287.6</ele>
        <time>2023-09-02T14:15:17Z</time>
      </trkpt>
      <trkpt lat="45.90457" lon="4.94864">
        <ele>287.6</ele>
        <time>2023-09-02T14:15:18Z</time>
      </trkpt>
      <trkpt lat="45.90454" lon="4.94861">
        <ele>287.5</ele>
        <time>2023-09-02T14:15:19Z</time>
      </trkpt>
      <trkpt lat="45.90451" lon="4.94858">
        <ele>287.5</ele>
        <time>2023-09-02T14:15:20Z</time>
      </trkpt>
      <trkpt lat="45.90448" lon="4.94855">
        <ele>287.4</ele>
        <time>2023-09-02T14:15:21Z</time>
      </trkpt>
      <trkpt lat="45.90445" lon="4.94853">
        <ele>287.4</ele>
        <time>2023-09-02T14:15:22Z</time>
      </trkpt>
      <trkpt lat="45.90442" lon="4.9485">
        <ele>287.4</ele>
        <time>2023-09-02T14:15:23Z</time>
      </trkpt>
      <trkpt lat="45.9044" lon="4.94846">
        <ele>287.3</ele>
        <time>2023-09-02T14:15:24Z</time>
      </trkpt>
      <trkpt lat="45.90438" lon="4.94845">
        <ele>287.3</ele>
        <time>2023-09-02T14:15:25Z</time>
      </trkpt>
      <trkpt lat="45.90436" lon="4.94842">
        <ele>287.3</ele>
        <time>2023-09-02T14:15:26Z</time>
      </trkpt>
      <trkpt lat="45.90433" lon="4.9484">
        <ele>287.3</ele>
        <time>2023-09-02T14:15:27Z</time>
      </trkpt>
      <trkpt lat="45.90429" lon="4.94837">
        <ele>287.3</ele>
        <time>2023-09-02T14:15:28Z</time>
      </trkpt>
      <trkpt lat="45.90427" lon="4.94834">
        <ele>287.3</ele>
        <time>2023-09-02T14:15:29Z</time>
      </trkpt>
      <trkpt lat="45.90424" lon="4.94832">
        <ele>287.3</ele>
        <time>2023-09-02T14:15:30Z</time>
      </trkpt>
      <trkpt lat="45.90422" lon="4.94829">
        <ele>287.3</ele>
        <time>2023-09-02T14:15:31Z</time>
      </trkpt>
      <trkpt lat="45.90419" lon="4.94827">
        <ele>287.3</ele>
        <time>2023-09-02T14:15:32Z</time>
      </trkpt>
      <trkpt lat="45.90417" lon="4.94824">
        <ele>287.3</ele>
        <time>2023-09-02T14:15:33Z</time>
      </trkpt>
      <trkpt lat="45.90414" lon="4.94822">
        <ele>287.3</ele>
        <time>2023-09-02T14:15:34Z</time>
      </trkpt>
      <trkpt lat="45.90412" lon="4.94819">
        <ele>287.3</ele>
        <time>2023-09-02T14:15:35Z</time>
      </trkpt>
      <trkpt lat="45.90409" lon="4.94817">
        <ele>287.3</ele>
        <time>2023-09-02T14:15:36Z</time>
      </trkpt>
      <trkpt lat="45.90406" lon="4.94816">
        <ele>287.3</ele>
        <time>2023-09-02T14:15:37Z</time>
      </trkpt>
      <trkpt lat="45.90403" lon="4.94815">
        <ele>287.3</ele>
        <time>2023-09-02T14:15:38Z</time>
      </trkpt>
      <trkpt lat="45.90401" lon="4.94812">
        <ele>287.2</ele>
        <time>2023-09-02T14:15:39Z</time>
      </trkpt>
      <trkpt lat="45.90398" lon="4.94809">
        <ele>287.2</ele>
        <time>2023-09-02T14:15:40Z</time>
      </trkpt>
      <trkpt lat="45.90396" lon="4.94806">
        <ele>287.2</ele>
        <time>2023-09-02T14:15:41Z</time>
      </trkpt>
      <trkpt lat="45.90393" lon="4.94802">
        <ele>287.2</ele>
        <time>2023-09-02T14:15:42Z</time>
      </trkpt>
      <trkpt lat="45.9039" lon="4.94801">
        <ele>287.2</ele>
        <time>2023-09-02T14:15:43Z</time>
      </trkpt>
      <trkpt lat="45.90387" lon="4.94798">
        <ele>287.2</ele>
        <time>2023-09-02T14:15:44Z</time>
      </trkpt>
      <trkpt lat="45.90386" lon="4.94797">
        <ele>287.2</ele>
        <time>2023-09-02T14:15:45Z</time>
      </trkpt>
      <trkpt lat="45.90384" lon="4.94794">
        <ele>287.2</ele>
        <time>2023-09-02T14:15:46Z</time>
      </trkpt>
      <trkpt lat="45.90381" lon="4.94791">
        <ele>287.2</ele>
        <time>2023-09-02T14:15:47Z</time>
      </trkpt>
      <trkpt lat="45.9038" lon="4.9479">
        <ele>287.2</ele>
        <time>2023-09-02T14:15:48Z</time>
      </trkpt>
      <trkpt lat="45.90377" lon="4.94786">
        <ele>287.2</ele>
        <time>2023-09-02T14:15:49Z</time>
      </trkpt>
      <trkpt lat="45.90376" lon="4.94785">
        <ele>287.2</ele>
        <time>2023-09-02T14:15:50Z</time>
      </trkpt>
      <trkpt lat="45.90373" lon="4.94782">
        <ele>287.2</ele>
        <time>2023-09-02T14:15:51Z</time>
      </trkpt>
      <trkpt lat="45.90372" lon="4.94781">
        <ele>287.2</ele>
        <time>2023-09-02T14:15:52Z</time>
      </trkpt>
      <trkpt lat="45.90369" lon="4.94778">
        <ele>287.2</ele>
        <time>2023-09-02T14:15:53Z</time>
      </trkpt>
      <trkpt lat="45.90366" lon="4.94775">
        <ele>287.2</ele>
        <time>2023-09-02T14:15:54Z</time>
      </trkpt>
      <trkpt lat="45.90365" lon="4.94774">
        <ele>287.2</ele>
        <time>2023-09-02T14:15:55Z</time>
      </trkpt>
      <trkpt lat="45.90362" lon="4.94771">
        <ele>287.2</ele>
        <time>2023-09-02T14:15:56Z</time>
      </trkpt>
      <trkpt lat="45.90359" lon="4.94767">
        <ele>287.3</ele>
        <time>2023-09-02T14:15:57Z</time>
      </trkpt>
      <trkpt lat="45.90358" lon="4.94766">
        <ele>287.3</ele>
        <time>2023-09-02T14:15:58Z</time>
      </trkpt>
      <trkpt lat="45.90355" lon="4.94764">
        <ele>287.3</ele>
        <time>2023-09-02T14:15:59Z</time>
      </trkpt>
      <trkpt lat="45.90353" lon="4.94762">
        <ele>287.3</ele>
        <time>2023-09-02T14:16:00Z</time>
      </trkpt>
      <trkpt lat="45.9035" lon="4.94759">
        <ele>287.4</ele>
        <time>2023-09-02T14:16:01Z</time>
      </trkpt>
      <trkpt lat="45.90347" lon="4.94756">
        <ele>287.4</ele>
        <time>2023-09-02T14:16:02Z</time>
      </trkpt>
      <trkpt lat="45.90344" lon="4.94753">
        <ele>287.4</ele>
        <time>2023-09-02T14:16:03Z</time>
      </trkpt>
      <trkpt lat="45.90343" lon="4.94752">
        <ele>287.4</ele>
        <time>2023-09-02T14:16:04Z</time>
      </trkpt>
      <trkpt lat="45.90341" lon="4.94748">
        <ele>287.5</ele>
        <time>2023-09-02T14:16:05Z</time>
      </trkpt>
      <trkpt lat="45.90338" lon="4.94745">
        <ele>287.5</ele>
        <time>2023-09-02T14:16:06Z</time>
      </trkpt>
      <trkpt lat="45.90337" lon="4.94744">
        <ele>287.5</ele>
        <time>2023-09-02T14:16:07Z</time>
      </trkpt>
      <trkpt lat="45.90334" lon="4.94741">
        <ele>287.6</ele>
        <time>2023-09-02T14:16:08Z</time>
      </trkpt>
      <trkpt lat="45.90331" lon="4.94739">
        <ele>287.6</ele>
        <time>2023-09-02T14:16:09Z</time>
      </trkpt>
      <trkpt lat="45.9033" lon="4.94739">
        <ele>287.6</ele>
        <time>2023-09-02T14:16:10Z</time>
      </trkpt>
      <trkpt lat="45.90327" lon="4.94736">
        <ele>287.6</ele>
        <time>2023-09-02T14:16:11Z</time>
      </trkpt>
      <trkpt lat="45.90327" lon="4.94735">
        <ele>287.6</ele>
        <time>2023-09-02T14:16:12Z</time>
      </trkpt>
      <trkpt lat="45.90326" lon="4.94734">
        <ele>287.6</ele>
        <time>2023-09-02T14:16:13Z</time>
      </trkpt>
      <trkpt lat="45.90324" lon="4.94732">
        <ele>287.5</ele>
        <time>2023-09-02T14:16:14Z</time>
      </trkpt>
      <trkpt lat="45.90324" lon="4.94728">
        <ele>287.5</ele>
        <time>2023-09-02T14:16:15Z</time>
      </trkpt>
      <trkpt lat="45.90325" lon="4.94726">
        <ele>287.5</ele>
        <time>2023-09-02T14:16:16Z</time>
      </trkpt>
      <trkpt lat="45.90325" lon="4.94723">
        <ele>287.5</ele>
        <time>2023-09-02T14:16:17Z</time>
      </trkpt>
      <trkpt lat="45.90325" lon="4.94721">
        <ele>287.5</ele>
        <time>2023-09-02T14:16:18Z</time>
      </trkpt>
      <trkpt lat="45.90325" lon="4.94719">
        <ele>287.5</ele>
        <time>2023-09-02T14:16:19Z</time>
      </trkpt>
      <trkpt lat="45.90325" lon="4.94717">
        <ele>287.5</ele>
        <time>2023-09-02T14:16:20Z</time>
      </trkpt>
      <trkpt lat="45.90324" lon="4.94714">
        <ele>287.5</ele>
        <time>2023-09-02T14:16:21Z</time>
      </trkpt>
      <trkpt lat="45.90324" lon="4.94713">
        <ele>287.5</ele>
        <time>2023-09-02T14:16:22Z</time>
      </trkpt>
      <trkpt lat="45.90324" lon="4.94711">
        <ele>287.5</ele>
        <time>2023-09-02T14:16:23Z</time>
      </trkpt>
      <trkpt lat="45.90323" lon="4.94706">
        <ele>287.5</ele>
        <time>2023-09-02T14:16:24Z</time>
      </trkpt>
      <trkpt lat="45.90323" lon="4.94704">
        <ele>287.6</ele>
        <time>2023-09-02T14:16:25Z</time>
      </trkpt>
      <trkpt lat="45.90322" lon="4.94699">
        <ele>287.6</ele>
        <time>2023-09-02T14:16:26Z</time>
      </trkpt>
      <trkpt lat="45.90322" lon="4.94697">
        <ele>287.6</ele>
        <time>2023-09-02T14:16:27Z</time>
      </trkpt>
      <trkpt lat="45.90321" lon="4.94692">
        <ele>287.6</ele>
        <time>2023-09-02T14:16:28Z</time>
      </trkpt>
      <trkpt lat="45.90321" lon="4.94688">
        <ele>287.7</ele>
        <time>2023-09-02T14:16:29Z</time>
      </trkpt>
      <trkpt lat="45.9032" lon="4.94683">
        <ele>287.7</ele>
        <time>2023-09-02T14:16:30Z</time>
      </trkpt>
      <trkpt lat="45.90319" lon="4.9468">
        <ele>287.7</ele>
        <time>2023-09-02T14:16:31Z</time>
      </trkpt>
      <trkpt lat="45.90319" lon="4.94676">
        <ele>287.8</ele>
        <time>2023-09-02T14:16:32Z</time>
      </trkpt>
      <trkpt lat="45.90318" lon="4.94671">
        <ele>287.8</ele>
        <time>2023-09-02T14:16:33Z</time>
      </trkpt>
      <trkpt lat="45.90316" lon="4.94665">
        <ele>287.8</ele>
        <time>2023-09-02T14:16:34Z</time>
      </trkpt>
      <trkpt lat="45.90316" lon="4.94662">
        <ele>287.8</ele>
        <time>2023-09-02T14:16:35Z</time>
      </trkpt>
      <trkpt lat="45.90316" lon="4.94657">
        <ele>287.8</ele>
        <time>2023-09-02T14:16:36Z</time>
      </trkpt>
      <trkpt lat="45.90315" lon="4.94653">
        <ele>287.8</ele>
        <time>2023-09-02T14:16:37Z</time>
      </trkpt>
      <trkpt lat="45.90315" lon="4.94648">
        <ele>287.8</ele>
        <time>2023-09-02T14:16:38Z</time>
      </trkpt>
      <trkpt lat="45.90315" lon="4.94643">
        <ele>287.8</ele>
        <time>2023-09-02T14:16:39Z</time>
      </trkpt>
      <trkpt lat="45.90314" lon="4.94638">
        <ele>287.7</ele>
        <time>2023-09-02T14:16:40Z</time>
      </trkpt>
      <trkpt lat="45.90313" lon="4.94634">
        <ele>287.7</ele>
        <time>2023-09-02T14:16:41Z</time>
      </trkpt>
      <trkpt lat="45.90313" lon="4.94628">
        <ele>287.7</ele>
        <time>2023-09-02T14:16:42Z</time>
      </trkpt>
      <trkpt lat="45.90313" lon="4.94623">
        <ele>287.7</ele>
        <time>2023-09-02T14:16:43Z</time>
      </trkpt>
      <trkpt lat="45.90312" lon="4.94618">
        <ele>287.6</ele>
        <time>2023-09-02T14:16:44Z</time>
      </trkpt>
      <trkpt lat="45.90312" lon="4.94613">
        <ele>287.6</ele>
        <time>2023-09-02T14:16:45Z</time>
      </trkpt>
      <trkpt lat="45.90311" lon="4.94606">
        <ele>287.6</ele>
        <time>2023-09-02T14:16:46Z</time>
      </trkpt>
      <trkpt lat="45.90311" lon="4.94601">
        <ele>287.6</ele>
        <time>2023-09-02T14:16:47Z</time>
      </trkpt>
      <trkpt lat="45.9031" lon="4.94596">
        <ele>287.6</ele>
        <time>2023-09-02T14:16:48Z</time>
      </trkpt>
      <trkpt lat="45.9031" lon="4.9459">
        <ele>287.6</ele>
        <time>2023-09-02T14:16:49Z</time>
      </trkpt>
      <trkpt lat="45.90309" lon="4.94584">
        <ele>287.5</ele>
        <time>2023-09-02T14:16:50Z</time>
      </trkpt>
      <trkpt lat="45.90309" lon="4.94578">
        <ele>287.5</ele>
        <time>2023-09-02T14:16:51Z</time>
      </trkpt>
      <trkpt lat="45.90309" lon="4.94572">
        <ele>287.5</ele>
        <time>2023-09-02T14:16:52Z</time>
      </trkpt>
      <trkpt lat="45.90308" lon="4.94566">
        <ele>287.5</ele>
        <time>2023-09-02T14:16:53Z</time>
      </trkpt>
      <trkpt lat="45.90308" lon="4.94561">
        <ele>287.6</ele>
        <time>2023-09-02T14:16:54Z</time>
      </trkpt>
      <trkpt lat="45.90308" lon="4.94555">
        <ele>287.6</ele>
        <time>2023-09-02T14:16:55Z</time>
      </trkpt>
      <trkpt lat="45.90307" lon="4.9455">
        <ele>287.6</ele>
        <time>2023-09-02T14:16:56Z</time>
      </trkpt>
      <trkpt lat="45.90307" lon="4.94544">
        <ele>287.6</ele>
        <time>2023-09-02T14:16:57Z</time>
      </trkpt>
      <trkpt lat="45.90307" lon="4.94539">
        <ele>287.5</ele>
        <time>2023-09-02T14:16:58Z</time>
      </trkpt>
      <trkpt lat="45.90307" lon="4.94533">
        <ele>287.5</ele>
        <time>2023-09-02T14:16:59Z</time>
      </trkpt>
      <trkpt lat="45.90307" lon="4.94528">
        <ele>287.5</ele>
        <time>2023-09-02T14:17:00Z</time>
      </trkpt>
      <trkpt lat="45.90306" lon="4.94522">
        <ele>287.5</ele>
        <time>2023-09-02T14:17:01Z</time>
      </trkpt>
      <trkpt lat="45.90307" lon="4.94517">
        <ele>287.5</ele>
        <time>2023-09-02T14:17:02Z</time>
      </trkpt>
      <trkpt lat="45.90306" lon="4.94512">
        <ele>287.5</ele>
        <time>2023-09-02T14:17:03Z</time>
      </trkpt>
      <trkpt lat="45.90306" lon="4.94506">
        <ele>287.5</ele>
        <time>2023-09-02T14:17:04Z</time>
      </trkpt>
      <trkpt lat="45.90306" lon="4.945">
        <ele>287.5</ele>
        <time>2023-09-02T14:17:05Z</time>
      </trkpt>
      <trkpt lat="45.90306" lon="4.94495">
        <ele>287.5</ele>
        <time>2023-09-02T14:17:06Z</time>
      </trkpt>
      <trkpt lat="45.90306" lon="4.94489">
        <ele>287.5</ele>
        <time>2023-09-02T14:17:07Z</time>
      </trkpt>
      <trkpt lat="45.90306" lon="4.94483">
        <ele>287.4</ele>
        <time>2023-09-02T14:17:08Z</time>
      </trkpt>
      <trkpt lat="45.90306" lon="4.94477">
        <ele>287.4</ele>
        <time>2023-09-02T14:17:09Z</time>
      </trkpt>
      <trkpt lat="45.90307" lon="4.94471">
        <ele>287.4</ele>
        <time>2023-09-02T14:17:10Z</time>
      </trkpt>
      <trkpt lat="45.90307" lon="4.94466">
        <ele>287.4</ele>
        <time>2023-09-02T14:17:11Z</time>
      </trkpt>
      <trkpt lat="45.90307" lon="4.9446">
        <ele>287.4</ele>
        <time>2023-09-02T14:17:12Z</time>
      </trkpt>
      <trkpt lat="45.90307" lon="4.94454">
        <ele>287.5</ele>
        <time>2023-09-02T14:17:13Z</time>
      </trkpt>
      <trkpt lat="45.90307" lon="4.94448">
        <ele>287.5</ele>
        <time>2023-09-02T14:17:14Z</time>
      </trkpt>
      <trkpt lat="45.90307" lon="4.94443">
        <ele>287.5</ele>
        <time>2023-09-02T14:17:15Z</time>
      </trkpt>
      <trkpt lat="45.90307" lon="4.94437">
        <ele>287.6</ele>
        <time>2023-09-02T14:17:16Z</time>
      </trkpt>
      <trkpt lat="45.90307" lon="4.94432">
        <ele>287.6</ele>
        <time>2023-09-02T14:17:17Z</time>
      </trkpt>
      <trkpt lat="45.90307" lon="4.94426">
        <ele>287.7</ele>
        <time>2023-09-02T14:17:18Z</time>
      </trkpt>
      <trkpt lat="45.90307" lon="4.94421">
        <ele>287.8</ele>
        <time>2023-09-02T14:17:19Z</time>
      </trkpt>
      <trkpt lat="45.90307" lon="4.94416">
        <ele>287.9</ele>
        <time>2023-09-02T14:17:20Z</time>
      </trkpt>
      <trkpt lat="45.90308" lon="4.94411">
        <ele>287.9</ele>
        <time>2023-09-02T14:17:21Z</time>
      </trkpt>
      <trkpt lat="45.90308" lon="4.94406">
        <ele>288</ele>
        <time>2023-09-02T14:17:22Z</time>
      </trkpt>
      <trkpt lat="45.90308" lon="4.94401">
        <ele>288.1</ele>
        <time>2023-09-02T14:17:23Z</time>
      </trkpt>
      <trkpt lat="45.90308" lon="4.94395">
        <ele>288.2</ele>
        <time>2023-09-02T14:17:24Z</time>
      </trkpt>
      <trkpt lat="45.90309" lon="4.9439">
        <ele>288.3</ele>
        <time>2023-09-02T14:17:25Z</time>
      </trkpt>
      <trkpt lat="45.90309" lon="4.94386">
        <ele>288.3</ele>
        <time>2023-09-02T14:17:26Z</time>
      </trkpt>
      <trkpt lat="45.9031" lon="4.94381">
        <ele>288.4</ele>
        <time>2023-09-02T14:17:27Z</time>
      </trkpt>
      <trkpt lat="45.9031" lon="4.94376">
        <ele>288.5</ele>
        <time>2023-09-02T14:17:28Z</time>
      </trkpt>
      <trkpt lat="45.9031" lon="4.94371">
        <ele>288.6</ele>
        <time>2023-09-02T14:17:29Z</time>
      </trkpt>
      <trkpt lat="45.90311" lon="4.94367">
        <ele>288.6</ele>
        <time>2023-09-02T14:17:30Z</time>
      </trkpt>
      <trkpt lat="45.90311" lon="4.94363">
        <ele>288.7</ele>
        <time>2023-09-02T14:17:31Z</time>
      </trkpt>
      <trkpt lat="45.90312" lon="4.94357">
        <ele>288.8</ele>
        <time>2023-09-02T14:17:32Z</time>
      </trkpt>
      <trkpt lat="45.90312" lon="4.94353">
        <ele>288.9</ele>
        <time>2023-09-02T14:17:33Z</time>
      </trkpt>
      <trkpt lat="45.90312" lon="4.94348">
        <ele>288.9</ele>
        <time>2023-09-02T14:17:34Z</time>
      </trkpt>
      <trkpt lat="45.90313" lon="4.94343">
        <ele>289</ele>
        <time>2023-09-02T14:17:35Z</time>
      </trkpt>
      <trkpt lat="45.90313" lon="4.94339">
        <ele>289</ele>
        <time>2023-09-02T14:17:36Z</time>
      </trkpt>
      <trkpt lat="45.90314" lon="4.94334">
        <ele>289</ele>
        <time>2023-09-02T14:17:37Z</time>
      </trkpt>
      <trkpt lat="45.90314" lon="4.94329">
        <ele>289.1</ele>
        <time>2023-09-02T14:17:38Z</time>
      </trkpt>
      <trkpt lat="45.90315" lon="4.94324">
        <ele>289.1</ele>
        <time>2023-09-02T14:17:39Z</time>
      </trkpt>
      <trkpt lat="45.90316" lon="4.94319">
        <ele>289.1</ele>
        <time>2023-09-02T14:17:40Z</time>
      </trkpt>
      <trkpt lat="45.90316" lon="4.94314">
        <ele>289.1</ele>
        <time>2023-09-02T14:17:41Z</time>
      </trkpt>
      <trkpt lat="45.90317" lon="4.94308">
        <ele>289.1</ele>
        <time>2023-09-02T14:17:42Z</time>
      </trkpt>
      <trkpt lat="45.90317" lon="4.94303">
        <ele>289.1</ele>
        <time>2023-09-02T14:17:43Z</time>
      </trkpt>
      <trkpt lat="45.90317" lon="4.94298">
        <ele>289.1</ele>
        <time>2023-09-02T14:17:44Z</time>
      </trkpt>
      <trkpt lat="45.90318" lon="4.94294">
        <ele>289.1</ele>
        <time>2023-09-02T14:17:45Z</time>
      </trkpt>
      <trkpt lat="45.90318" lon="4.94288">
        <ele>289.1</ele>
        <time>2023-09-02T14:17:46Z</time>
      </trkpt>
      <trkpt lat="45.90318" lon="4.94283">
        <ele>289.1</ele>
        <time>2023-09-02T14:17:47Z</time>
      </trkpt>
      <trkpt lat="45.90319" lon="4.94277">
        <ele>289.1</ele>
        <time>2023-09-02T14:17:48Z</time>
      </trkpt>
      <trkpt lat="45.90319" lon="4.94273">
        <ele>289.1</ele>
        <time>2023-09-02T14:17:49Z</time>
      </trkpt>
      <trkpt lat="45.9032" lon="4.94267">
        <ele>289.1</ele>
        <time>2023-09-02T14:17:50Z</time>
      </trkpt>
      <trkpt lat="45.9032" lon="4.94262">
        <ele>289.1</ele>
        <time>2023-09-02T14:17:51Z</time>
      </trkpt>
      <trkpt lat="45.9032" lon="4.94257">
        <ele>289.1</ele>
        <time>2023-09-02T14:17:52Z</time>
      </trkpt>
      <trkpt lat="45.9032" lon="4.94252">
        <ele>289.1</ele>
        <time>2023-09-02T14:17:53Z</time>
      </trkpt>
      <trkpt lat="45.90321" lon="4.94247">
        <ele>289.1</ele>
        <time>2023-09-02T14:17:54Z</time>
      </trkpt>
      <trkpt lat="45.90321" lon="4.94242">
        <ele>289.1</ele>
        <time>2023-09-02T14:17:55Z</time>
      </trkpt>
      <trkpt lat="45.90321" lon="4.94236">
        <ele>289.1</ele>
        <time>2023-09-02T14:17:56Z</time>
      </trkpt>
      <trkpt lat="45.90321" lon="4.94231">
        <ele>289.1</ele>
        <time>2023-09-02T14:17:57Z</time>
      </trkpt>
      <trkpt lat="45.90321" lon="4.94226">
        <ele>289.1</ele>
        <time>2023-09-02T14:17:58Z</time>
      </trkpt>
      <trkpt lat="45.90321" lon="4.94221">
        <ele>289.1</ele>
        <time>2023-09-02T14:17:59Z</time>
      </trkpt>
      <trkpt lat="45.90321" lon="4.94216">
        <ele>289.1</ele>
        <time>2023-09-02T14:18:00Z</time>
      </trkpt>
      <trkpt lat="45.90321" lon="4.94211">
        <ele>289.2</ele>
        <time>2023-09-02T14:18:01Z</time>
      </trkpt>
      <trkpt lat="45.90321" lon="4.94206">
        <ele>289.2</ele>
        <time>2023-09-02T14:18:02Z</time>
      </trkpt>
      <trkpt lat="45.90321" lon="4.94201">
        <ele>289.3</ele>
        <time>2023-09-02T14:18:03Z</time>
      </trkpt>
      <trkpt lat="45.90322" lon="4.94197">
        <ele>289.3</ele>
        <time>2023-09-02T14:18:04Z</time>
      </trkpt>
      <trkpt lat="45.90321" lon="4.94191">
        <ele>289.3</ele>
        <time>2023-09-02T14:18:05Z</time>
      </trkpt>
      <trkpt lat="45.90321" lon="4.94186">
        <ele>289.4</ele>
        <time>2023-09-02T14:18:06Z</time>
      </trkpt>
      <trkpt lat="45.90321" lon="4.94181">
        <ele>289.4</ele>
        <time>2023-09-02T14:18:07Z</time>
      </trkpt>
      <trkpt lat="45.90321" lon="4.94176">
        <ele>289.5</ele>
        <time>2023-09-02T14:18:08Z</time>
      </trkpt>
      <trkpt lat="45.90321" lon="4.94171">
        <ele>289.5</ele>
        <time>2023-09-02T14:18:09Z</time>
      </trkpt>
      <trkpt lat="45.90321" lon="4.94166">
        <ele>289.6</ele>
        <time>2023-09-02T14:18:10Z</time>
      </trkpt>
      <trkpt lat="45.90321" lon="4.94161">
        <ele>289.6</ele>
        <time>2023-09-02T14:18:11Z</time>
      </trkpt>
      <trkpt lat="45.90321" lon="4.94156">
        <ele>289.7</ele>
        <time>2023-09-02T14:18:12Z</time>
      </trkpt>
      <trkpt lat="45.90321" lon="4.94152">
        <ele>289.7</ele>
        <time>2023-09-02T14:18:13Z</time>
      </trkpt>
      <trkpt lat="45.90321" lon="4.94147">
        <ele>289.8</ele>
        <time>2023-09-02T14:18:14Z</time>
      </trkpt>
      <trkpt lat="45.90321" lon="4.94142">
        <ele>289.8</ele>
        <time>2023-09-02T14:18:15Z</time>
      </trkpt>
      <trkpt lat="45.90321" lon="4.94137">
        <ele>289.8</ele>
        <time>2023-09-02T14:18:16Z</time>
      </trkpt>
      <trkpt lat="45.90321" lon="4.94132">
        <ele>289.9</ele>
        <time>2023-09-02T14:18:17Z</time>
      </trkpt>
      <trkpt lat="45.90321" lon="4.94127">
        <ele>289.9</ele>
        <time>2023-09-02T14:18:18Z</time>
      </trkpt>
      <trkpt lat="45.9032" lon="4.94123">
        <ele>289.9</ele>
        <time>2023-09-02T14:18:19Z</time>
      </trkpt>
      <trkpt lat="45.90321" lon="4.94118">
        <ele>290</ele>
        <time>2023-09-02T14:18:20Z</time>
      </trkpt>
      <trkpt lat="45.90321" lon="4.94113">
        <ele>290</ele>
        <time>2023-09-02T14:18:21Z</time>
      </trkpt>
      <trkpt lat="45.9032" lon="4.94109">
        <ele>290</ele>
        <time>2023-09-02T14:18:22Z</time>
      </trkpt>
      <trkpt lat="45.9032" lon="4.94104">
        <ele>290.1</ele>
        <time>2023-09-02T14:18:23Z</time>
      </trkpt>
      <trkpt lat="45.9032" lon="4.94099">
        <ele>290.1</ele>
        <time>2023-09-02T14:18:24Z</time>
      </trkpt>
      <trkpt lat="45.9032" lon="4.94094">
        <ele>290.2</ele>
        <time>2023-09-02T14:18:25Z</time>
      </trkpt>
      <trkpt lat="45.90321" lon="4.9409">
        <ele>290.2</ele>
        <time>2023-09-02T14:18:26Z</time>
      </trkpt>
      <trkpt lat="45.90321" lon="4.94085">
        <ele>290.2</ele>
        <time>2023-09-02T14:18:27Z</time>
      </trkpt>
      <trkpt lat="45.9032" lon="4.94081">
        <ele>290.3</ele>
        <time>2023-09-02T14:18:28Z</time>
      </trkpt>
      <trkpt lat="45.9032" lon="4.94075">
        <ele>290.3</ele>
        <time>2023-09-02T14:18:29Z</time>
      </trkpt>
      <trkpt lat="45.9032" lon="4.94071">
        <ele>290.4</ele>
        <time>2023-09-02T14:18:30Z</time>
      </trkpt>
      <trkpt lat="45.9032" lon="4.94066">
        <ele>290.4</ele>
        <time>2023-09-02T14:18:31Z</time>
      </trkpt>
      <trkpt lat="45.90321" lon="4.94061">
        <ele>290.4</ele>
        <time>2023-09-02T14:18:32Z</time>
      </trkpt>
      <trkpt lat="45.90321" lon="4.94056">
        <ele>290.5</ele>
        <time>2023-09-02T14:18:33Z</time>
      </trkpt>
      <trkpt lat="45.90321" lon="4.94051">
        <ele>290.5</ele>
        <time>2023-09-02T14:18:34Z</time>
      </trkpt>
      <trkpt lat="45.90321" lon="4.94046">
        <ele>290.5</ele>
        <time>2023-09-02T14:18:35Z</time>
      </trkpt>
      <trkpt lat="45.90321" lon="4.94041">
        <ele>290.5</ele>
        <time>2023-09-02T14:18:36Z</time>
      </trkpt>
      <trkpt lat="45.90321" lon="4.94037">
        <ele>290.6</ele>
        <time>2023-09-02T14:18:37Z</time>
      </trkpt>
      <trkpt lat="45.90321" lon="4.94032">
        <ele>290.6</ele>
        <time>2023-09-02T14:18:38Z</time>
      </trkpt>
      <trkpt lat="45.90321" lon="4.94027">
        <ele>290.6</ele>
        <time>2023-09-02T14:18:39Z</time>
      </trkpt>
      <trkpt lat="45.90321" lon="4.94023">
        <ele>290.7</ele>
        <time>2023-09-02T14:18:40Z</time>
      </trkpt>
      <trkpt lat="45.90321" lon="4.94018">
        <ele>290.7</ele>
        <time>2023-09-02T14:18:41Z</time>
      </trkpt>
      <trkpt lat="45.90321" lon="4.94013">
        <ele>290.7</ele>
        <time>2023-09-02T14:18:42Z</time>
      </trkpt>
      <trkpt lat="45.9032" lon="4.94008">
        <ele>290.8</ele>
        <time>2023-09-02T14:18:43Z</time>
      </trkpt>
      <trkpt lat="45.9032" lon="4.94003">
        <ele>290.8</ele>
        <time>2023-09-02T14:18:44Z</time>
      </trkpt>
      <trkpt lat="45.9032" lon="4.93998">
        <ele>290.8</ele>
        <time>2023-09-02T14:18:45Z</time>
      </trkpt>
      <trkpt lat="45.90319" lon="4.93994">
        <ele>290.9</ele>
        <time>2023-09-02T14:18:46Z</time>
      </trkpt>
      <trkpt lat="45.90319" lon="4.93988">
        <ele>290.9</ele>
        <time>2023-09-02T14:18:47Z</time>
      </trkpt>
      <trkpt lat="45.90318" lon="4.93984">
        <ele>291</ele>
        <time>2023-09-02T14:18:48Z</time>
      </trkpt>
      <trkpt lat="45.90317" lon="4.93979">
        <ele>291</ele>
        <time>2023-09-02T14:18:49Z</time>
      </trkpt>
      <trkpt lat="45.90317" lon="4.93974">
        <ele>291.1</ele>
        <time>2023-09-02T14:18:50Z</time>
      </trkpt>
      <trkpt lat="45.90316" lon="4.9397">
        <ele>291.1</ele>
        <time>2023-09-02T14:18:51Z</time>
      </trkpt>
      <trkpt lat="45.90315" lon="4.93965">
        <ele>291.2</ele>
        <time>2023-09-02T14:18:52Z</time>
      </trkpt>
      <trkpt lat="45.90314" lon="4.93961">
        <ele>291.2</ele>
        <time>2023-09-02T14:18:53Z</time>
      </trkpt>
      <trkpt lat="45.90313" lon="4.93956">
        <ele>291.3</ele>
        <time>2023-09-02T14:18:54Z</time>
      </trkpt>
      <trkpt lat="45.90312" lon="4.93952">
        <ele>291.3</ele>
        <time>2023-09-02T14:18:55Z</time>
      </trkpt>
      <trkpt lat="45.90311" lon="4.93947">
        <ele>291.4</ele>
        <time>2023-09-02T14:18:56Z</time>
      </trkpt>
      <trkpt lat="45.90309" lon="4.93943">
        <ele>291.5</ele>
        <time>2023-09-02T14:18:57Z</time>
      </trkpt>
      <trkpt lat="45.90308" lon="4.93939">
        <ele>291.5</ele>
        <time>2023-09-02T14:18:58Z</time>
      </trkpt>
      <trkpt lat="45.90307" lon="4.93934">
        <ele>291.6</ele>
        <time>2023-09-02T14:18:59Z</time>
      </trkpt>
      <trkpt lat="45.90306" lon="4.9393">
        <ele>291.7</ele>
        <time>2023-09-02T14:19:00Z</time>
      </trkpt>
      <trkpt lat="45.90305" lon="4.93925">
        <ele>291.7</ele>
        <time>2023-09-02T14:19:01Z</time>
      </trkpt>
      <trkpt lat="45.90303" lon="4.93921">
        <ele>291.8</ele>
        <time>2023-09-02T14:19:02Z</time>
      </trkpt>
      <trkpt lat="45.90302" lon="4.93916">
        <ele>291.9</ele>
        <time>2023-09-02T14:19:03Z</time>
      </trkpt>
      <trkpt lat="45.90301" lon="4.93912">
        <ele>292</ele>
        <time>2023-09-02T14:19:04Z</time>
      </trkpt>
      <trkpt lat="45.90299" lon="4.93908">
        <ele>292.1</ele>
        <time>2023-09-02T14:19:05Z</time>
      </trkpt>
      <trkpt lat="45.90298" lon="4.93904">
        <ele>292.2</ele>
        <time>2023-09-02T14:19:06Z</time>
      </trkpt>
      <trkpt lat="45.90297" lon="4.939">
        <ele>292.2</ele>
        <time>2023-09-02T14:19:07Z</time>
      </trkpt>
      <trkpt lat="45.90296" lon="4.93896">
        <ele>292.3</ele>
        <time>2023-09-02T14:19:08Z</time>
      </trkpt>
      <trkpt lat="45.90295" lon="4.93891">
        <ele>292.4</ele>
        <time>2023-09-02T14:19:09Z</time>
      </trkpt>
      <trkpt lat="45.90294" lon="4.93887">
        <ele>292.5</ele>
        <time>2023-09-02T14:19:10Z</time>
      </trkpt>
      <trkpt lat="45.90293" lon="4.93883">
        <ele>292.6</ele>
        <time>2023-09-02T14:19:11Z</time>
      </trkpt>
      <trkpt lat="45.90291" lon="4.93879">
        <ele>292.7</ele>
        <time>2023-09-02T14:19:12Z</time>
      </trkpt>
      <trkpt lat="45.9029" lon="4.93875">
        <ele>292.7</ele>
        <time>2023-09-02T14:19:13Z</time>
      </trkpt>
      <trkpt lat="45.9029" lon="4.93871">
        <ele>292.8</ele>
        <time>2023-09-02T14:19:14Z</time>
      </trkpt>
      <trkpt lat="45.90289" lon="4.93867">
        <ele>292.9</ele>
        <time>2023-09-02T14:19:15Z</time>
      </trkpt>
      <trkpt lat="45.90288" lon="4.93863">
        <ele>292.9</ele>
        <time>2023-09-02T14:19:16Z</time>
      </trkpt>
      <trkpt lat="45.90286" lon="4.93859">
        <ele>293</ele>
        <time>2023-09-02T14:19:17Z</time>
      </trkpt>
      <trkpt lat="45.90285" lon="4.93855">
        <ele>293.1</ele>
        <time>2023-09-02T14:19:18Z</time>
      </trkpt>
      <trkpt lat="45.90284" lon="4.9385">
        <ele>293.2</ele>
        <time>2023-09-02T14:19:19Z</time>
      </trkpt>
      <trkpt lat="45.90283" lon="4.93847">
        <ele>293.2</ele>
        <time>2023-09-02T14:19:20Z</time>
      </trkpt>
      <trkpt lat="45.90282" lon="4.93843">
        <ele>293.3</ele>
        <time>2023-09-02T14:19:21Z</time>
      </trkpt>
      <trkpt lat="45.90281" lon="4.93839">
        <ele>293.3</ele>
        <time>2023-09-02T14:19:22Z</time>
      </trkpt>
      <trkpt lat="45.9028" lon="4.93835">
        <ele>293.4</ele>
        <time>2023-09-02T14:19:23Z</time>
      </trkpt>
      <trkpt lat="45.90279" lon="4.93831">
        <ele>293.4</ele>
        <time>2023-09-02T14:19:24Z</time>
      </trkpt>
      <trkpt lat="45.90278" lon="4.93827">
        <ele>293.5</ele>
        <time>2023-09-02T14:19:25Z</time>
      </trkpt>
      <trkpt lat="45.90277" lon="4.93822">
        <ele>293.5</ele>
        <time>2023-09-02T14:19:26Z</time>
      </trkpt>
      <trkpt lat="45.90275" lon="4.93817">
        <ele>293.6</ele>
        <time>2023-09-02T14:19:27Z</time>
      </trkpt>
      <trkpt lat="45.90274" lon="4.93813">
        <ele>293.7</ele>
        <time>2023-09-02T14:19:28Z</time>
      </trkpt>
      <trkpt lat="45.90273" lon="4.93809">
        <ele>293.7</ele>
        <time>2023-09-02T14:19:29Z</time>
      </trkpt>
      <trkpt lat="45.90272" lon="4.93805">
        <ele>293.8</ele>
        <time>2023-09-02T14:19:30Z</time>
      </trkpt>
      <trkpt lat="45.90271" lon="4.938">
        <ele>293.9</ele>
        <time>2023-09-02T14:19:31Z</time>
      </trkpt>
      <trkpt lat="45.9027" lon="4.93796">
        <ele>293.9</ele>
        <time>2023-09-02T14:19:32Z</time>
      </trkpt>
      <trkpt lat="45.90268" lon="4.93792">
        <ele>294</ele>
        <time>2023-09-02T14:19:33Z</time>
      </trkpt>
      <trkpt lat="45.90267" lon="4.93788">
        <ele>294.1</ele>
        <time>2023-09-02T14:19:34Z</time>
      </trkpt>
      <trkpt lat="45.90266" lon="4.93783">
        <ele>294.2</ele>
        <time>2023-09-02T14:19:35Z</time>
      </trkpt>
      <trkpt lat="45.90265" lon="4.9378">
        <ele>294.2</ele>
        <time>2023-09-02T14:19:36Z</time>
      </trkpt>
      <trkpt lat="45.90264" lon="4.93775">
        <ele>294.3</ele>
        <time>2023-09-02T14:19:37Z</time>
      </trkpt>
      <trkpt lat="45.90262" lon="4.93771">
        <ele>294.4</ele>
        <time>2023-09-02T14:19:38Z</time>
      </trkpt>
      <trkpt lat="45.90261" lon="4.93767">
        <ele>294.5</ele>
        <time>2023-09-02T14:19:39Z</time>
      </trkpt>
      <trkpt lat="45.9026" lon="4.93763">
        <ele>294.7</ele>
        <time>2023-09-02T14:19:40Z</time>
      </trkpt>
      <trkpt lat="45.90259" lon="4.93758">
        <ele>294.8</ele>
        <time>2023-09-02T14:19:41Z</time>
      </trkpt>
      <trkpt lat="45.90258" lon="4.93754">
        <ele>294.9</ele>
        <time>2023-09-02T14:19:42Z</time>
      </trkpt>
      <trkpt lat="45.90257" lon="4.9375">
        <ele>295</ele>
        <time>2023-09-02T14:19:43Z</time>
      </trkpt>
      <trkpt lat="45.90255" lon="4.93746">
        <ele>295.2</ele>
        <time>2023-09-02T14:19:44Z</time>
      </trkpt>
      <trkpt lat="45.90254" lon="4.93742">
        <ele>295.3</ele>
        <time>2023-09-02T14:19:45Z</time>
      </trkpt>
      <trkpt lat="45.90253" lon="4.93738">
        <ele>295.4</ele>
        <time>2023-09-02T14:19:46Z</time>
      </trkpt>
      <trkpt lat="45.90252" lon="4.93734">
        <ele>295.6</ele>
        <time>2023-09-02T14:19:47Z</time>
      </trkpt>
      <trkpt lat="45.90251" lon="4.9373">
        <ele>295.7</ele>
        <time>2023-09-02T14:19:48Z</time>
      </trkpt>
      <trkpt lat="45.90249" lon="4.93726">
        <ele>295.9</ele>
        <time>2023-09-02T14:19:49Z</time>
      </trkpt>
      <trkpt lat="45.90248" lon="4.93722">
        <ele>296</ele>
        <time>2023-09-02T14:19:50Z</time>
      </trkpt>
      <trkpt lat="45.90247" lon="4.93718">
        <ele>296.1</ele>
        <time>2023-09-02T14:19:51Z</time>
      </trkpt>
      <trkpt lat="45.90246" lon="4.93714">
        <ele>296.2</ele>
        <time>2023-09-02T14:19:52Z</time>
      </trkpt>
      <trkpt lat="45.90245" lon="4.9371">
        <ele>296.3</ele>
        <time>2023-09-02T14:19:53Z</time>
      </trkpt>
      <trkpt lat="45.90244" lon="4.93706">
        <ele>296.4</ele>
        <time>2023-09-02T14:19:54Z</time>
      </trkpt>
      <trkpt lat="45.90243" lon="4.93702">
        <ele>296.5</ele>
        <time>2023-09-02T14:19:55Z</time>
      </trkpt>
      <trkpt lat="45.90242" lon="4.93698">
        <ele>296.6</ele>
        <time>2023-09-02T14:19:56Z</time>
      </trkpt>
      <trkpt lat="45.90242" lon="4.93694">
        <ele>296.7</ele>
        <time>2023-09-02T14:19:57Z</time>
      </trkpt>
      <trkpt lat="45.90241" lon="4.9369">
        <ele>296.7</ele>
        <time>2023-09-02T14:19:58Z</time>
      </trkpt>
      <trkpt lat="45.90242" lon="4.93686">
        <ele>296.8</ele>
        <time>2023-09-02T14:19:59Z</time>
      </trkpt>
      <trkpt lat="45.90241" lon="4.93681">
        <ele>297</ele>
        <time>2023-09-02T14:20:00Z</time>
      </trkpt>
      <trkpt lat="45.90242" lon="4.93676">
        <ele>297</ele>
        <time>2023-09-02T14:20:01Z</time>
      </trkpt>
      <trkpt lat="45.90242" lon="4.93672">
        <ele>297.1</ele>
        <time>2023-09-02T14:20:02Z</time>
      </trkpt>
      <trkpt lat="45.90242" lon="4.93667">
        <ele>297.2</ele>
        <time>2023-09-02T14:20:03Z</time>
      </trkpt>
      <trkpt lat="45.90242" lon="4.93662">
        <ele>297.3</ele>
        <time>2023-09-02T14:20:04Z</time>
      </trkpt>
      <trkpt lat="45.90242" lon="4.93657">
        <ele>297.4</ele>
        <time>2023-09-02T14:20:05Z</time>
      </trkpt>
      <trkpt lat="45.90242" lon="4.93653">
        <ele>297.5</ele>
        <time>2023-09-02T14:20:06Z</time>
      </trkpt>
      <trkpt lat="45.90243" lon="4.93649">
        <ele>297.5</ele>
        <time>2023-09-02T14:20:07Z</time>
      </trkpt>
      <trkpt lat="45.90243" lon="4.93644">
        <ele>297.6</ele>
        <time>2023-09-02T14:20:08Z</time>
      </trkpt>
      <trkpt lat="45.90243" lon="4.9364">
        <ele>297.7</ele>
        <time>2023-09-02T14:20:09Z</time>
      </trkpt>
      <trkpt lat="45.90243" lon="4.93635">
        <ele>297.8</ele>
        <time>2023-09-02T14:20:10Z</time>
      </trkpt>
      <trkpt lat="45.90244" lon="4.93631">
        <ele>297.9</ele>
        <time>2023-09-02T14:20:11Z</time>
      </trkpt>
      <trkpt lat="45.90244" lon="4.93626">
        <ele>297.9</ele>
        <time>2023-09-02T14:20:12Z</time>
      </trkpt>
      <trkpt lat="45.90244" lon="4.93622">
        <ele>298</ele>
        <time>2023-09-02T14:20:13Z</time>
      </trkpt>
      <trkpt lat="45.90244" lon="4.93618">
        <ele>298.1</ele>
        <time>2023-09-02T14:20:14Z</time>
      </trkpt>
      <trkpt lat="45.90245" lon="4.93613">
        <ele>298.1</ele>
        <time>2023-09-02T14:20:15Z</time>
      </trkpt>
      <trkpt lat="45.90245" lon="4.93609">
        <ele>298.1</ele>
        <time>2023-09-02T14:20:16Z</time>
      </trkpt>
      <trkpt lat="45.90245" lon="4.93605">
        <ele>298.1</ele>
        <time>2023-09-02T14:20:17Z</time>
      </trkpt>
      <trkpt lat="45.90246" lon="4.936">
        <ele>298.2</ele>
        <time>2023-09-02T14:20:18Z</time>
      </trkpt>
      <trkpt lat="45.90246" lon="4.93596">
        <ele>298.2</ele>
        <time>2023-09-02T14:20:19Z</time>
      </trkpt>
      <trkpt lat="45.90246" lon="4.93591">
        <ele>298.2</ele>
        <time>2023-09-02T14:20:20Z</time>
      </trkpt>
      <trkpt lat="45.90247" lon="4.93587">
        <ele>298.1</ele>
        <time>2023-09-02T14:20:21Z</time>
      </trkpt>
      <trkpt lat="45.90247" lon="4.93582">
        <ele>298.1</ele>
        <time>2023-09-02T14:20:22Z</time>
      </trkpt>
      <trkpt lat="45.90247" lon="4.93578">
        <ele>298.1</ele>
        <time>2023-09-02T14:20:23Z</time>
      </trkpt>
      <trkpt lat="45.90248" lon="4.93574">
        <ele>298</ele>
        <time>2023-09-02T14:20:24Z</time>
      </trkpt>
      <trkpt lat="45.90248" lon="4.93569">
        <ele>298</ele>
        <time>2023-09-02T14:20:25Z</time>
      </trkpt>
      <trkpt lat="45.90248" lon="4.93564">
        <ele>297.9</ele>
        <time>2023-09-02T14:20:26Z</time>
      </trkpt>
      <trkpt lat="45.90249" lon="4.9356">
        <ele>297.8</ele>
        <time>2023-09-02T14:20:27Z</time>
      </trkpt>
      <trkpt lat="45.90249" lon="4.93554">
        <ele>297.7</ele>
        <time>2023-09-02T14:20:28Z</time>
      </trkpt>
      <trkpt lat="45.90249" lon="4.93549">
        <ele>297.7</ele>
        <time>2023-09-02T14:20:29Z</time>
      </trkpt>
      <trkpt lat="45.9025" lon="4.93544">
        <ele>297.6</ele>
        <time>2023-09-02T14:20:30Z</time>
      </trkpt>
      <trkpt lat="45.9025" lon="4.93538">
        <ele>297.5</ele>
        <time>2023-09-02T14:20:31Z</time>
      </trkpt>
      <trkpt lat="45.90251" lon="4.93532">
        <ele>297.4</ele>
        <time>2023-09-02T14:20:32Z</time>
      </trkpt>
      <trkpt lat="45.90251" lon="4.93526">
        <ele>297.3</ele>
        <time>2023-09-02T14:20:33Z</time>
      </trkpt>
      <trkpt lat="45.90252" lon="4.93519">
        <ele>297.2</ele>
        <time>2023-09-02T14:20:34Z</time>
      </trkpt>
      <trkpt lat="45.90253" lon="4.93513">
        <ele>297.1</ele>
        <time>2023-09-02T14:20:35Z</time>
      </trkpt>
      <trkpt lat="45.90254" lon="4.93506">
        <ele>297</ele>
        <time>2023-09-02T14:20:36Z</time>
      </trkpt>
      <trkpt lat="45.90255" lon="4.93499">
        <ele>296.8</ele>
        <time>2023-09-02T14:20:37Z</time>
      </trkpt>
      <trkpt lat="45.90255" lon="4.93492">
        <ele>296.7</ele>
        <time>2023-09-02T14:20:38Z</time>
      </trkpt>
      <trkpt lat="45.90256" lon="4.93485">
        <ele>296.6</ele>
        <time>2023-09-02T14:20:39Z</time>
      </trkpt>
      <trkpt lat="45.90255" lon="4.93477">
        <ele>296.5</ele>
        <time>2023-09-02T14:20:40Z</time>
      </trkpt>
      <trkpt lat="45.90256" lon="4.93469">
        <ele>296.5</ele>
        <time>2023-09-02T14:20:41Z</time>
      </trkpt>
      <trkpt lat="45.90257" lon="4.93462">
        <ele>296.4</ele>
        <time>2023-09-02T14:20:42Z</time>
      </trkpt>
      <trkpt lat="45.90257" lon="4.93454">
        <ele>296.4</ele>
        <time>2023-09-02T14:20:43Z</time>
      </trkpt>
      <trkpt lat="45.90258" lon="4.93448">
        <ele>296.3</ele>
        <time>2023-09-02T14:20:44Z</time>
      </trkpt>
      <trkpt lat="45.90259" lon="4.93442">
        <ele>296.2</ele>
        <time>2023-09-02T14:20:45Z</time>
      </trkpt>
      <trkpt lat="45.9026" lon="4.93438">
        <ele>296.2</ele>
        <time>2023-09-02T14:20:46Z</time>
      </trkpt>
      <trkpt lat="45.90261" lon="4.93433">
        <ele>296.2</ele>
        <time>2023-09-02T14:20:47Z</time>
      </trkpt>
      <trkpt lat="45.90262" lon="4.93432">
        <ele>296.1</ele>
        <time>2023-09-02T14:20:48Z</time>
      </trkpt>
      <trkpt lat="45.90264" lon="4.93431">
        <ele>296.1</ele>
        <time>2023-09-02T14:20:49Z</time>
      </trkpt>
      <trkpt lat="45.90265" lon="4.9343">
        <ele>296.1</ele>
        <time>2023-09-02T14:20:50Z</time>
      </trkpt>
      <trkpt lat="45.90268" lon="4.93431">
        <ele>296.1</ele>
        <time>2023-09-02T14:20:51Z</time>
      </trkpt>
      <trkpt lat="45.90271" lon="4.93432">
        <ele>296.2</ele>
        <time>2023-09-02T14:20:52Z</time>
      </trkpt>
      <trkpt lat="45.90274" lon="4.93433">
        <ele>296.2</ele>
        <time>2023-09-02T14:20:53Z</time>
      </trkpt>
      <trkpt lat="45.90277" lon="4.93434">
        <ele>296.2</ele>
        <time>2023-09-02T14:20:54Z</time>
      </trkpt>
      <trkpt lat="45.9028" lon="4.93435">
        <ele>296.2</ele>
        <time>2023-09-02T14:20:55Z</time>
      </trkpt>
      <trkpt lat="45.90283" lon="4.93435">
        <ele>296.2</ele>
        <time>2023-09-02T14:20:56Z</time>
      </trkpt>
      <trkpt lat="45.90286" lon="4.93434">
        <ele>296.2</ele>
        <time>2023-09-02T14:20:57Z</time>
      </trkpt>
      <trkpt lat="45.90289" lon="4.93433">
        <ele>296.2</ele>
        <time>2023-09-02T14:20:58Z</time>
      </trkpt>
      <trkpt lat="45.90292" lon="4.93431">
        <ele>295.9</ele>
        <time>2023-09-02T14:20:59Z</time>
      </trkpt>
      <trkpt lat="45.90295" lon="4.93429">
        <ele>295.8</ele>
        <time>2023-09-02T14:21:00Z</time>
      </trkpt>
      <trkpt lat="45.90297" lon="4.93425">
        <ele>295.6</ele>
        <time>2023-09-02T14:21:01Z</time>
      </trkpt>
      <trkpt lat="45.90297" lon="4.93418">
        <ele>295.4</ele>
        <time>2023-09-02T14:21:02Z</time>
      </trkpt>
      <trkpt lat="45.90297" lon="4.93413">
        <ele>295.3</ele>
        <time>2023-09-02T14:21:03Z</time>
      </trkpt>
      <trkpt lat="45.90298" lon="4.93407">
        <ele>295.1</ele>
        <time>2023-09-02T14:21:04Z</time>
      </trkpt>
      <trkpt lat="45.903" lon="4.93401">
        <ele>295</ele>
        <time>2023-09-02T14:21:05Z</time>
      </trkpt>
      <trkpt lat="45.90301" lon="4.93395">
        <ele>294.8</ele>
        <time>2023-09-02T14:21:06Z</time>
      </trkpt>
      <trkpt lat="45.90302" lon="4.93389">
        <ele>294.7</ele>
        <time>2023-09-02T14:21:07Z</time>
      </trkpt>
      <trkpt lat="45.90303" lon="4.93382">
        <ele>294.5</ele>
        <time>2023-09-02T14:21:08Z</time>
      </trkpt>
      <trkpt lat="45.90303" lon="4.93375">
        <ele>294.4</ele>
        <time>2023-09-02T14:21:09Z</time>
      </trkpt>
      <trkpt lat="45.90305" lon="4.93368">
        <ele>294.2</ele>
        <time>2023-09-02T14:21:10Z</time>
      </trkpt>
      <trkpt lat="45.90306" lon="4.93361">
        <ele>294.1</ele>
        <time>2023-09-02T14:21:11Z</time>
      </trkpt>
      <trkpt lat="45.90307" lon="4.93355">
        <ele>293.9</ele>
        <time>2023-09-02T14:21:12Z</time>
      </trkpt>
      <trkpt lat="45.90308" lon="4.93347">
        <ele>293.8</ele>
        <time>2023-09-02T14:21:13Z</time>
      </trkpt>
      <trkpt lat="45.90309" lon="4.93339">
        <ele>293.6</ele>
        <time>2023-09-02T14:21:14Z</time>
      </trkpt>
      <trkpt lat="45.9031" lon="4.93331">
        <ele>293.4</ele>
        <time>2023-09-02T14:21:15Z</time>
      </trkpt>
      <trkpt lat="45.90311" lon="4.93323">
        <ele>293.3</ele>
        <time>2023-09-02T14:21:16Z</time>
      </trkpt>
      <trkpt lat="45.90312" lon="4.93316">
        <ele>293.2</ele>
        <time>2023-09-02T14:21:17Z</time>
      </trkpt>
      <trkpt lat="45.90314" lon="4.93308">
        <ele>293.1</ele>
        <time>2023-09-02T14:21:18Z</time>
      </trkpt>
      <trkpt lat="45.90314" lon="4.93299">
        <ele>292.9</ele>
        <time>2023-09-02T14:21:19Z</time>
      </trkpt>
      <trkpt lat="45.90315" lon="4.93291">
        <ele>292.8</ele>
        <time>2023-09-02T14:21:20Z</time>
      </trkpt>
      <trkpt lat="45.90315" lon="4.93282">
        <ele>292.7</ele>
        <time>2023-09-02T14:21:21Z</time>
      </trkpt>
      <trkpt lat="45.90315" lon="4.93274">
        <ele>292.6</ele>
        <time>2023-09-02T14:21:22Z</time>
      </trkpt>
      <trkpt lat="45.90313" lon="4.93266">
        <ele>292.5</ele>
        <time>2023-09-02T14:21:23Z</time>
      </trkpt>
      <trkpt lat="45.90309" lon="4.93258">
        <ele>292.4</ele>
        <time>2023-09-02T14:21:24Z</time>
      </trkpt>
      <trkpt lat="45.90304" lon="4.93253">
        <ele>292.4</ele>
        <time>2023-09-02T14:21:25Z</time>
      </trkpt>
      <trkpt lat="45.90299" lon="4.93247">
        <ele>292.3</ele>
        <time>2023-09-02T14:21:26Z</time>
      </trkpt>
      <trkpt lat="45.90295" lon="4.93241">
        <ele>292.3</ele>
        <time>2023-09-02T14:21:27Z</time>
      </trkpt>
      <trkpt lat="45.90291" lon="4.93236">
        <ele>292.3</ele>
        <time>2023-09-02T14:21:28Z</time>
      </trkpt>
      <trkpt lat="45.90286" lon="4.93231">
        <ele>292.2</ele>
        <time>2023-09-02T14:21:29Z</time>
      </trkpt>
      <trkpt lat="45.90282" lon="4.93225">
        <ele>292.2</ele>
        <time>2023-09-02T14:21:30Z</time>
      </trkpt>
      <trkpt lat="45.90279" lon="4.9322">
        <ele>292.2</ele>
        <time>2023-09-02T14:21:31Z</time>
      </trkpt>
      <trkpt lat="45.90275" lon="4.93214">
        <ele>292.2</ele>
        <time>2023-09-02T14:21:32Z</time>
      </trkpt>
      <trkpt lat="45.90272" lon="4.93209">
        <ele>292.2</ele>
        <time>2023-09-02T14:21:33Z</time>
      </trkpt>
      <trkpt lat="45.90269" lon="4.93203">
        <ele>292.1</ele>
        <time>2023-09-02T14:21:34Z</time>
      </trkpt>
      <trkpt lat="45.90266" lon="4.93198">
        <ele>292.1</ele>
        <time>2023-09-02T14:21:35Z</time>
      </trkpt>
      <trkpt lat="45.90263" lon="4.93192">
        <ele>292.1</ele>
        <time>2023-09-02T14:21:36Z</time>
      </trkpt>
      <trkpt lat="45.9026" lon="4.93187">
        <ele>292.1</ele>
        <time>2023-09-02T14:21:37Z</time>
      </trkpt>
      <trkpt lat="45.90257" lon="4.93182">
        <ele>292.1</ele>
        <time>2023-09-02T14:21:38Z</time>
      </trkpt>
      <trkpt lat="45.90255" lon="4.93176">
        <ele>292.1</ele>
        <time>2023-09-02T14:21:39Z</time>
      </trkpt>
      <trkpt lat="45.90252" lon="4.93171">
        <ele>292.1</ele>
        <time>2023-09-02T14:21:40Z</time>
      </trkpt>
      <trkpt lat="45.9025" lon="4.93166">
        <ele>292.1</ele>
        <time>2023-09-02T14:21:41Z</time>
      </trkpt>
      <trkpt lat="45.90248" lon="4.9316">
        <ele>292</ele>
        <time>2023-09-02T14:21:42Z</time>
      </trkpt>
      <trkpt lat="45.90246" lon="4.93154">
        <ele>292</ele>
        <time>2023-09-02T14:21:43Z</time>
      </trkpt>
      <trkpt lat="45.90244" lon="4.93149">
        <ele>292</ele>
        <time>2023-09-02T14:21:44Z</time>
      </trkpt>
      <trkpt lat="45.90243" lon="4.93143">
        <ele>292</ele>
        <time>2023-09-02T14:21:45Z</time>
      </trkpt>
      <trkpt lat="45.90242" lon="4.93138">
        <ele>291.9</ele>
        <time>2023-09-02T14:21:46Z</time>
      </trkpt>
      <trkpt lat="45.9024" lon="4.93133">
        <ele>291.9</ele>
        <time>2023-09-02T14:21:47Z</time>
      </trkpt>
      <trkpt lat="45.90239" lon="4.93127">
        <ele>291.9</ele>
        <time>2023-09-02T14:21:48Z</time>
      </trkpt>
      <trkpt lat="45.90237" lon="4.93123">
        <ele>291.9</ele>
        <time>2023-09-02T14:21:49Z</time>
      </trkpt>
      <trkpt lat="45.90236" lon="4.93118">
        <ele>291.9</ele>
        <time>2023-09-02T14:21:50Z</time>
      </trkpt>
      <trkpt lat="45.90234" lon="4.93113">
        <ele>291.9</ele>
        <time>2023-09-02T14:21:51Z</time>
      </trkpt>
      <trkpt lat="45.90233" lon="4.93109">
        <ele>291.9</ele>
        <time>2023-09-02T14:21:52Z</time>
      </trkpt>
      <trkpt lat="45.90232" lon="4.93104">
        <ele>291.9</ele>
        <time>2023-09-02T14:21:53Z</time>
      </trkpt>
      <trkpt lat="45.90231" lon="4.93101">
        <ele>291.9</ele>
        <time>2023-09-02T14:21:54Z</time>
      </trkpt>
      <trkpt lat="45.9023" lon="4.93097">
        <ele>291.9</ele>
        <time>2023-09-02T14:21:55Z</time>
      </trkpt>
      <trkpt lat="45.90228" lon="4.93093">
        <ele>292</ele>
        <time>2023-09-02T14:21:56Z</time>
      </trkpt>
      <trkpt lat="45.90227" lon="4.93088">
        <ele>292</ele>
        <time>2023-09-02T14:21:57Z</time>
      </trkpt>
      <trkpt lat="45.90226" lon="4.93083">
        <ele>291.9</ele>
        <time>2023-09-02T14:21:58Z</time>
      </trkpt>
      <trkpt lat="45.90224" lon="4.93079">
        <ele>291.9</ele>
        <time>2023-09-02T14:21:59Z</time>
      </trkpt>
      <trkpt lat="45.90222" lon="4.93075">
        <ele>291.9</ele>
        <time>2023-09-02T14:22:00Z</time>
      </trkpt>
      <trkpt lat="45.9022" lon="4.93071">
        <ele>291.9</ele>
        <time>2023-09-02T14:22:01Z</time>
      </trkpt>
      <trkpt lat="45.90219" lon="4.93067">
        <ele>291.9</ele>
        <time>2023-09-02T14:22:02Z</time>
      </trkpt>
      <trkpt lat="45.90218" lon="4.93065">
        <ele>291.8</ele>
        <time>2023-09-02T14:22:03Z</time>
      </trkpt>
      <trkpt lat="45.90215" lon="4.93059">
        <ele>291.8</ele>
        <time>2023-09-02T14:22:04Z</time>
      </trkpt>
      <trkpt lat="45.90213" lon="4.93055">
        <ele>291.8</ele>
        <time>2023-09-02T14:22:05Z</time>
      </trkpt>
      <trkpt lat="45.90211" lon="4.93051">
        <ele>291.8</ele>
        <time>2023-09-02T14:22:06Z</time>
      </trkpt>
      <trkpt lat="45.9021" lon="4.93047">
        <ele>291.8</ele>
        <time>2023-09-02T14:22:07Z</time>
      </trkpt>
      <trkpt lat="45.90208" lon="4.93042">
        <ele>291.8</ele>
        <time>2023-09-02T14:22:08Z</time>
      </trkpt>
      <trkpt lat="45.90206" lon="4.93038">
        <ele>291.8</ele>
        <time>2023-09-02T14:22:09Z</time>
      </trkpt>
      <trkpt lat="45.90204" lon="4.93033">
        <ele>291.8</ele>
        <time>2023-09-02T14:22:10Z</time>
      </trkpt>
      <trkpt lat="45.90202" lon="4.9303">
        <ele>291.8</ele>
        <time>2023-09-02T14:22:11Z</time>
      </trkpt>
      <trkpt lat="45.902" lon="4.93025">
        <ele>291.8</ele>
        <time>2023-09-02T14:22:12Z</time>
      </trkpt>
      <trkpt lat="45.90198" lon="4.93022">
        <ele>291.8</ele>
        <time>2023-09-02T14:22:13Z</time>
      </trkpt>
      <trkpt lat="45.90196" lon="4.93018">
        <ele>291.8</ele>
        <time>2023-09-02T14:22:14Z</time>
      </trkpt>
      <trkpt lat="45.90194" lon="4.93013">
        <ele>291.8</ele>
        <time>2023-09-02T14:22:15Z</time>
      </trkpt>
      <trkpt lat="45.90193" lon="4.93009">
        <ele>291.9</ele>
        <time>2023-09-02T14:22:16Z</time>
      </trkpt>
      <trkpt lat="45.9019" lon="4.93004">
        <ele>291.9</ele>
        <time>2023-09-02T14:22:17Z</time>
      </trkpt>
      <trkpt lat="45.90188" lon="4.93">
        <ele>291.9</ele>
        <time>2023-09-02T14:22:18Z</time>
      </trkpt>
      <trkpt lat="45.90188" lon="4.92996">
        <ele>291.9</ele>
        <time>2023-09-02T14:22:19Z</time>
      </trkpt>
      <trkpt lat="45.90186" lon="4.92992">
        <ele>291.9</ele>
        <time>2023-09-02T14:22:20Z</time>
      </trkpt>
      <trkpt lat="45.90184" lon="4.92988">
        <ele>291.9</ele>
        <time>2023-09-02T14:22:21Z</time>
      </trkpt>
      <trkpt lat="45.90181" lon="4.92984">
        <ele>291.9</ele>
        <time>2023-09-02T14:22:22Z</time>
      </trkpt>
      <trkpt lat="45.9018" lon="4.9298">
        <ele>291.9</ele>
        <time>2023-09-02T14:22:23Z</time>
      </trkpt>
      <trkpt lat="45.90178" lon="4.92975">
        <ele>291.8</ele>
        <time>2023-09-02T14:22:24Z</time>
      </trkpt>
      <trkpt lat="45.90173" lon="4.92966">
        <ele>291.8</ele>
        <time>2023-09-02T14:22:25Z</time>
      </trkpt>
      <trkpt lat="45.9017" lon="4.92962">
        <ele>291.8</ele>
        <time>2023-09-02T14:22:26Z</time>
      </trkpt>
      <trkpt lat="45.90169" lon="4.92959">
        <ele>291.8</ele>
        <time>2023-09-02T14:22:27Z</time>
      </trkpt>
      <trkpt lat="45.90167" lon="4.92954">
        <ele>291.9</ele>
        <time>2023-09-02T14:22:28Z</time>
      </trkpt>
      <trkpt lat="45.90165" lon="4.9295">
        <ele>291.9</ele>
        <time>2023-09-02T14:22:29Z</time>
      </trkpt>
      <trkpt lat="45.90163" lon="4.92946">
        <ele>291.9</ele>
        <time>2023-09-02T14:22:30Z</time>
      </trkpt>
      <trkpt lat="45.90161" lon="4.92941">
        <ele>291.9</ele>
        <time>2023-09-02T14:22:31Z</time>
      </trkpt>
      <trkpt lat="45.90161" lon="4.92936">
        <ele>291.9</ele>
        <time>2023-09-02T14:22:32Z</time>
      </trkpt>
      <trkpt lat="45.90163" lon="4.92931">
        <ele>292</ele>
        <time>2023-09-02T14:22:33Z</time>
      </trkpt>
      <trkpt lat="45.90165" lon="4.92927">
        <ele>292.1</ele>
        <time>2023-09-02T14:22:34Z</time>
      </trkpt>
      <trkpt lat="45.90168" lon="4.92924">
        <ele>292.1</ele>
        <time>2023-09-02T14:22:35Z</time>
      </trkpt>
      <trkpt lat="45.9017" lon="4.92921">
        <ele>292.1</ele>
        <time>2023-09-02T14:22:36Z</time>
      </trkpt>
      <trkpt lat="45.90173" lon="4.92919">
        <ele>292.1</ele>
        <time>2023-09-02T14:22:37Z</time>
      </trkpt>
      <trkpt lat="45.90175" lon="4.92915">
        <ele>292.2</ele>
        <time>2023-09-02T14:22:38Z</time>
      </trkpt>
      <trkpt lat="45.90177" lon="4.92912">
        <ele>292.2</ele>
        <time>2023-09-02T14:22:39Z</time>
      </trkpt>
      <trkpt lat="45.9018" lon="4.92909">
        <ele>292.2</ele>
        <time>2023-09-02T14:22:40Z</time>
      </trkpt>
      <trkpt lat="45.90183" lon="4.92906">
        <ele>292.2</ele>
        <time>2023-09-02T14:22:41Z</time>
      </trkpt>
      <trkpt lat="45.90185" lon="4.92903">
        <ele>292.3</ele>
        <time>2023-09-02T14:22:42Z</time>
      </trkpt>
      <trkpt lat="45.90187" lon="4.92899">
        <ele>292.3</ele>
        <time>2023-09-02T14:22:43Z</time>
      </trkpt>
      <trkpt lat="45.90189" lon="4.92896">
        <ele>292.4</ele>
        <time>2023-09-02T14:22:44Z</time>
      </trkpt>
      <trkpt lat="45.90192" lon="4.92893">
        <ele>292.4</ele>
        <time>2023-09-02T14:22:45Z</time>
      </trkpt>
      <trkpt lat="45.90194" lon="4.9289">
        <ele>292.4</ele>
        <time>2023-09-02T14:22:46Z</time>
      </trkpt>
      <trkpt lat="45.90197" lon="4.92887">
        <ele>292.5</ele>
        <time>2023-09-02T14:22:47Z</time>
      </trkpt>
      <trkpt lat="45.90199" lon="4.92884">
        <ele>292.5</ele>
        <time>2023-09-02T14:22:48Z</time>
      </trkpt>
      <trkpt lat="45.90201" lon="4.9288">
        <ele>292.5</ele>
        <time>2023-09-02T14:22:49Z</time>
      </trkpt>
      <trkpt lat="45.90204" lon="4.92877">
        <ele>292.6</ele>
        <time>2023-09-02T14:22:50Z</time>
      </trkpt>
      <trkpt lat="45.90206" lon="4.92874">
        <ele>292.6</ele>
        <time>2023-09-02T14:22:51Z</time>
      </trkpt>
      <trkpt lat="45.90208" lon="4.92871">
        <ele>292.7</ele>
        <time>2023-09-02T14:22:52Z</time>
      </trkpt>
      <trkpt lat="45.9021" lon="4.92868">
        <ele>292.7</ele>
        <time>2023-09-02T14:22:53Z</time>
      </trkpt>
      <trkpt lat="45.90213" lon="4.92864">
        <ele>292.7</ele>
        <time>2023-09-02T14:22:54Z</time>
      </trkpt>
      <trkpt lat="45.90215" lon="4.92861">
        <ele>292.8</ele>
        <time>2023-09-02T14:22:55Z</time>
      </trkpt>
      <trkpt lat="45.90218" lon="4.92858">
        <ele>292.8</ele>
        <time>2023-09-02T14:22:56Z</time>
      </trkpt>
      <trkpt lat="45.9022" lon="4.92854">
        <ele>292.9</ele>
        <time>2023-09-02T14:22:57Z</time>
      </trkpt>
      <trkpt lat="45.90222" lon="4.92851">
        <ele>292.9</ele>
        <time>2023-09-02T14:22:58Z</time>
      </trkpt>
      <trkpt lat="45.90224" lon="4.92848">
        <ele>293</ele>
        <time>2023-09-02T14:22:59Z</time>
      </trkpt>
      <trkpt lat="45.90227" lon="4.92845">
        <ele>293</ele>
        <time>2023-09-02T14:23:00Z</time>
      </trkpt>
      <trkpt lat="45.90229" lon="4.92841">
        <ele>293</ele>
        <time>2023-09-02T14:23:01Z</time>
      </trkpt>
      <trkpt lat="45.90231" lon="4.92839">
        <ele>293.1</ele>
        <time>2023-09-02T14:23:02Z</time>
      </trkpt>
      <trkpt lat="45.90234" lon="4.92835">
        <ele>293.1</ele>
        <time>2023-09-02T14:23:03Z</time>
      </trkpt>
      <trkpt lat="45.90236" lon="4.92832">
        <ele>293.2</ele>
        <time>2023-09-02T14:23:04Z</time>
      </trkpt>
      <trkpt lat="45.90239" lon="4.92829">
        <ele>293.2</ele>
        <time>2023-09-02T14:23:05Z</time>
      </trkpt>
      <trkpt lat="45.90241" lon="4.92826">
        <ele>293.3</ele>
        <time>2023-09-02T14:23:06Z</time>
      </trkpt>
      <trkpt lat="45.90243" lon="4.92823">
        <ele>293.3</ele>
        <time>2023-09-02T14:23:07Z</time>
      </trkpt>
      <trkpt lat="45.90245" lon="4.92819">
        <ele>293.4</ele>
        <time>2023-09-02T14:23:08Z</time>
      </trkpt>
      <trkpt lat="45.90247" lon="4.92816">
        <ele>293.4</ele>
        <time>2023-09-02T14:23:09Z</time>
      </trkpt>
      <trkpt lat="45.9025" lon="4.92814">
        <ele>293.5</ele>
        <time>2023-09-02T14:23:10Z</time>
      </trkpt>
      <trkpt lat="45.90252" lon="4.92811">
        <ele>293.5</ele>
        <time>2023-09-02T14:23:11Z</time>
      </trkpt>
      <trkpt lat="45.90255" lon="4.92807">
        <ele>293.6</ele>
        <time>2023-09-02T14:23:12Z</time>
      </trkpt>
      <trkpt lat="45.90256" lon="4.92805">
        <ele>293.7</ele>
        <time>2023-09-02T14:23:13Z</time>
      </trkpt>
      <trkpt lat="45.90258" lon="4.92802">
        <ele>293.7</ele>
        <time>2023-09-02T14:23:14Z</time>
      </trkpt>
      <trkpt lat="45.9026" lon="4.92799">
        <ele>293.8</ele>
        <time>2023-09-02T14:23:15Z</time>
      </trkpt>
      <trkpt lat="45.90262" lon="4.92796">
        <ele>293.9</ele>
        <time>2023-09-02T14:23:16Z</time>
      </trkpt>
      <trkpt lat="45.90264" lon="4.92792">
        <ele>294</ele>
        <time>2023-09-02T14:23:17Z</time>
      </trkpt>
      <trkpt lat="45.90266" lon="4.92789">
        <ele>294</ele>
        <time>2023-09-02T14:23:18Z</time>
      </trkpt>
      <trkpt lat="45.90267" lon="4.92786">
        <ele>294.1</ele>
        <time>2023-09-02T14:23:19Z</time>
      </trkpt>
      <trkpt lat="45.90269" lon="4.92782">
        <ele>294.2</ele>
        <time>2023-09-02T14:23:21Z</time>
      </trkpt>
      <trkpt lat="45.90271" lon="4.92779">
        <ele>294.2</ele>
        <time>2023-09-02T14:23:22Z</time>
      </trkpt>
      <trkpt lat="45.90273" lon="4.92775">
        <ele>294.3</ele>
        <time>2023-09-02T14:23:23Z</time>
      </trkpt>
      <trkpt lat="45.90274" lon="4.92772">
        <ele>294.4</ele>
        <time>2023-09-02T14:23:24Z</time>
      </trkpt>
      <trkpt lat="45.90276" lon="4.92768">
        <ele>294.4</ele>
        <time>2023-09-02T14:23:25Z</time>
      </trkpt>
      <trkpt lat="45.90277" lon="4.92764">
        <ele>294.5</ele>
        <time>2023-09-02T14:23:26Z</time>
      </trkpt>
      <trkpt lat="45.90278" lon="4.9276">
        <ele>294.6</ele>
        <time>2023-09-02T14:23:27Z</time>
      </trkpt>
      <trkpt lat="45.9028" lon="4.92756">
        <ele>294.6</ele>
        <time>2023-09-02T14:23:28Z</time>
      </trkpt>
      <trkpt lat="45.90281" lon="4.92753">
        <ele>294.7</ele>
        <time>2023-09-02T14:23:29Z</time>
      </trkpt>
      <trkpt lat="45.90283" lon="4.92748">
        <ele>294.7</ele>
        <time>2023-09-02T14:23:30Z</time>
      </trkpt>
      <trkpt lat="45.90284" lon="4.92744">
        <ele>294.8</ele>
        <time>2023-09-02T14:23:31Z</time>
      </trkpt>
      <trkpt lat="45.90285" lon="4.92741">
        <ele>294.9</ele>
        <time>2023-09-02T14:23:32Z</time>
      </trkpt>
      <trkpt lat="45.90287" lon="4.92736">
        <ele>294.9</ele>
        <time>2023-09-02T14:23:33Z</time>
      </trkpt>
      <trkpt lat="45.90288" lon="4.92732">
        <ele>295</ele>
        <time>2023-09-02T14:23:34Z</time>
      </trkpt>
      <trkpt lat="45.9029" lon="4.92728">
        <ele>295</ele>
        <time>2023-09-02T14:23:35Z</time>
      </trkpt>
      <trkpt lat="45.90291" lon="4.92724">
        <ele>295.1</ele>
        <time>2023-09-02T14:23:36Z</time>
      </trkpt>
      <trkpt lat="45.90293" lon="4.9272">
        <ele>295.2</ele>
        <time>2023-09-02T14:23:37Z</time>
      </trkpt>
      <trkpt lat="45.90294" lon="4.92716">
        <ele>295.2</ele>
        <time>2023-09-02T14:23:38Z</time>
      </trkpt>
      <trkpt lat="45.90295" lon="4.92712">
        <ele>295.3</ele>
        <time>2023-09-02T14:23:39Z</time>
      </trkpt>
      <trkpt lat="45.90296" lon="4.92708">
        <ele>295.3</ele>
        <time>2023-09-02T14:23:40Z</time>
      </trkpt>
      <trkpt lat="45.90297" lon="4.92704">
        <ele>295.4</ele>
        <time>2023-09-02T14:23:41Z</time>
      </trkpt>
      <trkpt lat="45.90298" lon="4.927">
        <ele>295.5</ele>
        <time>2023-09-02T14:23:42Z</time>
      </trkpt>
      <trkpt lat="45.903" lon="4.92696">
        <ele>295.6</ele>
        <time>2023-09-02T14:23:43Z</time>
      </trkpt>
      <trkpt lat="45.90301" lon="4.92692">
        <ele>295.7</ele>
        <time>2023-09-02T14:23:44Z</time>
      </trkpt>
      <trkpt lat="45.90302" lon="4.92688">
        <ele>295.8</ele>
        <time>2023-09-02T14:23:45Z</time>
      </trkpt>
      <trkpt lat="45.90303" lon="4.92684">
        <ele>295.9</ele>
        <time>2023-09-02T14:23:46Z</time>
      </trkpt>
      <trkpt lat="45.90305" lon="4.92679">
        <ele>296</ele>
        <time>2023-09-02T14:23:47Z</time>
      </trkpt>
      <trkpt lat="45.90305" lon="4.92677">
        <ele>296.1</ele>
        <time>2023-09-02T14:23:48Z</time>
      </trkpt>
      <trkpt lat="45.90306" lon="4.92673">
        <ele>296.2</ele>
        <time>2023-09-02T14:23:49Z</time>
      </trkpt>
      <trkpt lat="45.90308" lon="4.92669">
        <ele>296.3</ele>
        <time>2023-09-02T14:23:50Z</time>
      </trkpt>
      <trkpt lat="45.90309" lon="4.92666">
        <ele>296.4</ele>
        <time>2023-09-02T14:23:51Z</time>
      </trkpt>
      <trkpt lat="45.9031" lon="4.92662">
        <ele>296.6</ele>
        <time>2023-09-02T14:23:52Z</time>
      </trkpt>
      <trkpt lat="45.90311" lon="4.92658">
        <ele>296.7</ele>
        <time>2023-09-02T14:23:53Z</time>
      </trkpt>
      <trkpt lat="45.90313" lon="4.92653">
        <ele>296.8</ele>
        <time>2023-09-02T14:23:54Z</time>
      </trkpt>
      <trkpt lat="45.90313" lon="4.92651">
        <ele>296.9</ele>
        <time>2023-09-02T14:23:55Z</time>
      </trkpt>
      <trkpt lat="45.90314" lon="4.92647">
        <ele>297</ele>
        <time>2023-09-02T14:23:56Z</time>
      </trkpt>
      <trkpt lat="45.90315" lon="4.92644">
        <ele>297.1</ele>
        <time>2023-09-02T14:23:57Z</time>
      </trkpt>
      <trkpt lat="45.90317" lon="4.92639">
        <ele>297.2</ele>
        <time>2023-09-02T14:23:58Z</time>
      </trkpt>
      <trkpt lat="45.90317" lon="4.92637">
        <ele>297.2</ele>
        <time>2023-09-02T14:23:59Z</time>
      </trkpt>
      <trkpt lat="45.90318" lon="4.92631">
        <ele>297.2</ele>
        <time>2023-09-02T14:24:00Z</time>
      </trkpt>
      <trkpt lat="45.90319" lon="4.92629">
        <ele>297.2</ele>
        <time>2023-09-02T14:24:01Z</time>
      </trkpt>
      <trkpt lat="45.9032" lon="4.92626">
        <ele>297.3</ele>
        <time>2023-09-02T14:24:02Z</time>
      </trkpt>
      <trkpt lat="45.90322" lon="4.92621">
        <ele>297.4</ele>
        <time>2023-09-02T14:24:03Z</time>
      </trkpt>
      <trkpt lat="45.90322" lon="4.92619">
        <ele>297.4</ele>
        <time>2023-09-02T14:24:04Z</time>
      </trkpt>
      <trkpt lat="45.90324" lon="4.92616">
        <ele>297.5</ele>
        <time>2023-09-02T14:24:05Z</time>
      </trkpt>
      <trkpt lat="45.90325" lon="4.92611">
        <ele>297.6</ele>
        <time>2023-09-02T14:24:06Z</time>
      </trkpt>
      <trkpt lat="45.90326" lon="4.92609">
        <ele>297.6</ele>
        <time>2023-09-02T14:24:07Z</time>
      </trkpt>
      <trkpt lat="45.90328" lon="4.92606">
        <ele>297.7</ele>
        <time>2023-09-02T14:24:08Z</time>
      </trkpt>
      <trkpt lat="45.90329" lon="4.92602">
        <ele>297.7</ele>
        <time>2023-09-02T14:24:09Z</time>
      </trkpt>
      <trkpt lat="45.90332" lon="4.92598">
        <ele>297.7</ele>
        <time>2023-09-02T14:24:10Z</time>
      </trkpt>
      <trkpt lat="45.90332" lon="4.92597">
        <ele>297.8</ele>
        <time>2023-09-02T14:24:11Z</time>
      </trkpt>
      <trkpt lat="45.90334" lon="4.92593">
        <ele>297.8</ele>
        <time>2023-09-02T14:24:12Z</time>
      </trkpt>
      <trkpt lat="45.90336" lon="4.9259">
        <ele>297.8</ele>
        <time>2023-09-02T14:24:13Z</time>
      </trkpt>
      <trkpt lat="45.90338" lon="4.92585">
        <ele>297.8</ele>
        <time>2023-09-02T14:24:14Z</time>
      </trkpt>
      <trkpt lat="45.90339" lon="4.92583">
        <ele>297.8</ele>
        <time>2023-09-02T14:24:15Z</time>
      </trkpt>
      <trkpt lat="45.90341" lon="4.9258">
        <ele>297.8</ele>
        <time>2023-09-02T14:24:16Z</time>
      </trkpt>
      <trkpt lat="45.90343" lon="4.92577">
        <ele>297.8</ele>
        <time>2023-09-02T14:24:17Z</time>
      </trkpt>
      <trkpt lat="45.90345" lon="4.92573">
        <ele>297.7</ele>
        <time>2023-09-02T14:24:18Z</time>
      </trkpt>
      <trkpt lat="45.90347" lon="4.9257">
        <ele>297.7</ele>
        <time>2023-09-02T14:24:19Z</time>
      </trkpt>
      <trkpt lat="45.90349" lon="4.92566">
        <ele>297.7</ele>
        <time>2023-09-02T14:24:20Z</time>
      </trkpt>
      <trkpt lat="45.9035" lon="4.92562">
        <ele>297.6</ele>
        <time>2023-09-02T14:24:21Z</time>
      </trkpt>
      <trkpt lat="45.90353" lon="4.92559">
        <ele>297.6</ele>
        <time>2023-09-02T14:24:22Z</time>
      </trkpt>
      <trkpt lat="45.90355" lon="4.92555">
        <ele>297.5</ele>
        <time>2023-09-02T14:24:23Z</time>
      </trkpt>
      <trkpt lat="45.90357" lon="4.92552">
        <ele>297.4</ele>
        <time>2023-09-02T14:24:24Z</time>
      </trkpt>
      <trkpt lat="45.90359" lon="4.92547">
        <ele>297.3</ele>
        <time>2023-09-02T14:24:25Z</time>
      </trkpt>
      <trkpt lat="45.90362" lon="4.92542">
        <ele>297.2</ele>
        <time>2023-09-02T14:24:26Z</time>
      </trkpt>
      <trkpt lat="45.90363" lon="4.9254">
        <ele>297.2</ele>
        <time>2023-09-02T14:24:27Z</time>
      </trkpt>
      <trkpt lat="45.90366" lon="4.92535">
        <ele>297</ele>
        <time>2023-09-02T14:24:28Z</time>
      </trkpt>
      <trkpt lat="45.90369" lon="4.92531">
        <ele>296.9</ele>
        <time>2023-09-02T14:24:29Z</time>
      </trkpt>
      <trkpt lat="45.90371" lon="4.92526">
        <ele>296.8</ele>
        <time>2023-09-02T14:24:30Z</time>
      </trkpt>
      <trkpt lat="45.90377" lon="4.92516">
        <ele>296.6</ele>
        <time>2023-09-02T14:24:31Z</time>
      </trkpt>
      <trkpt lat="45.9038" lon="4.92511">
        <ele>296.5</ele>
        <time>2023-09-02T14:24:32Z</time>
      </trkpt>
      <trkpt lat="45.90383" lon="4.92506">
        <ele>296.4</ele>
        <time>2023-09-02T14:24:33Z</time>
      </trkpt>
      <trkpt lat="45.90386" lon="4.92501">
        <ele>296.4</ele>
        <time>2023-09-02T14:24:34Z</time>
      </trkpt>
      <trkpt lat="45.9039" lon="4.92496">
        <ele>296.3</ele>
        <time>2023-09-02T14:24:35Z</time>
      </trkpt>
      <trkpt lat="45.90393" lon="4.92491">
        <ele>296.3</ele>
        <time>2023-09-02T14:24:36Z</time>
      </trkpt>
      <trkpt lat="45.90396" lon="4.92486">
        <ele>296.3</ele>
        <time>2023-09-02T14:24:37Z</time>
      </trkpt>
      <trkpt lat="45.90399" lon="4.92481">
        <ele>296.3</ele>
        <time>2023-09-02T14:24:38Z</time>
      </trkpt>
      <trkpt lat="45.90401" lon="4.92476">
        <ele>296.3</ele>
        <time>2023-09-02T14:24:39Z</time>
      </trkpt>
      <trkpt lat="45.90404" lon="4.92472">
        <ele>296.3</ele>
        <time>2023-09-02T14:24:40Z</time>
      </trkpt>
      <trkpt lat="45.90406" lon="4.92467">
        <ele>296.2</ele>
        <time>2023-09-02T14:24:41Z</time>
      </trkpt>
      <trkpt lat="45.90409" lon="4.92463">
        <ele>296.2</ele>
        <time>2023-09-02T14:24:42Z</time>
      </trkpt>
      <trkpt lat="45.90412" lon="4.92459">
        <ele>296.2</ele>
        <time>2023-09-02T14:24:43Z</time>
      </trkpt>
      <trkpt lat="45.90414" lon="4.92455">
        <ele>296.2</ele>
        <time>2023-09-02T14:24:44Z</time>
      </trkpt>
      <trkpt lat="45.90417" lon="4.92451">
        <ele>296.2</ele>
        <time>2023-09-02T14:24:45Z</time>
      </trkpt>
      <trkpt lat="45.90419" lon="4.92447">
        <ele>296.2</ele>
        <time>2023-09-02T14:24:46Z</time>
      </trkpt>
      <trkpt lat="45.90421" lon="4.92443">
        <ele>296.2</ele>
        <time>2023-09-02T14:24:47Z</time>
      </trkpt>
      <trkpt lat="45.90423" lon="4.9244">
        <ele>296.2</ele>
        <time>2023-09-02T14:24:48Z</time>
      </trkpt>
      <trkpt lat="45.90424" lon="4.92436">
        <ele>296.2</ele>
        <time>2023-09-02T14:24:49Z</time>
      </trkpt>
      <trkpt lat="45.90426" lon="4.92433">
        <ele>296.2</ele>
        <time>2023-09-02T14:24:50Z</time>
      </trkpt>
      <trkpt lat="45.90428" lon="4.92429">
        <ele>296.2</ele>
        <time>2023-09-02T14:24:51Z</time>
      </trkpt>
      <trkpt lat="45.90431" lon="4.92425">
        <ele>296.3</ele>
        <time>2023-09-02T14:24:52Z</time>
      </trkpt>
      <trkpt lat="45.90432" lon="4.92423">
        <ele>296.3</ele>
        <time>2023-09-02T14:24:53Z</time>
      </trkpt>
      <trkpt lat="45.90434" lon="4.92419">
        <ele>296.3</ele>
        <time>2023-09-02T14:24:54Z</time>
      </trkpt>
      <trkpt lat="45.90435" lon="4.92417">
        <ele>296.4</ele>
        <time>2023-09-02T14:24:55Z</time>
      </trkpt>
      <trkpt lat="45.90437" lon="4.92414">
        <ele>296.4</ele>
        <time>2023-09-02T14:24:56Z</time>
      </trkpt>
      <trkpt lat="45.90438" lon="4.9241">
        <ele>296.4</ele>
        <time>2023-09-02T14:24:57Z</time>
      </trkpt>
      <trkpt lat="45.9044" lon="4.92406">
        <ele>296.5</ele>
        <time>2023-09-02T14:24:58Z</time>
      </trkpt>
      <trkpt lat="45.90441" lon="4.92404">
        <ele>296.5</ele>
        <time>2023-09-02T14:24:59Z</time>
      </trkpt>
      <trkpt lat="45.90443" lon="4.924">
        <ele>296.6</ele>
        <time>2023-09-02T14:25:00Z</time>
      </trkpt>
      <trkpt lat="45.90445" lon="4.92396">
        <ele>296.7</ele>
        <time>2023-09-02T14:25:01Z</time>
      </trkpt>
      <trkpt lat="45.90446" lon="4.92395">
        <ele>296.7</ele>
        <time>2023-09-02T14:25:02Z</time>
      </trkpt>
      <trkpt lat="45.90447" lon="4.92391">
        <ele>296.8</ele>
        <time>2023-09-02T14:25:03Z</time>
      </trkpt>
      <trkpt lat="45.90449" lon="4.92387">
        <ele>296.9</ele>
        <time>2023-09-02T14:25:04Z</time>
      </trkpt>
      <trkpt lat="45.9045" lon="4.92385">
        <ele>296.9</ele>
        <time>2023-09-02T14:25:05Z</time>
      </trkpt>
      <trkpt lat="45.90451" lon="4.92381">
        <ele>297</ele>
        <time>2023-09-02T14:25:06Z</time>
      </trkpt>
      <trkpt lat="45.90452" lon="4.92376">
        <ele>297.1</ele>
        <time>2023-09-02T14:25:07Z</time>
      </trkpt>
      <trkpt lat="45.90452" lon="4.92374">
        <ele>297.1</ele>
        <time>2023-09-02T14:25:08Z</time>
      </trkpt>
      <trkpt lat="45.90452" lon="4.92371">
        <ele>297.2</ele>
        <time>2023-09-02T14:25:09Z</time>
      </trkpt>
      <trkpt lat="45.90454" lon="4.92367">
        <ele>297.5</ele>
        <time>2023-09-02T14:25:10Z</time>
      </trkpt>
      <trkpt lat="45.90455" lon="4.92365">
        <ele>297.5</ele>
        <time>2023-09-02T14:25:11Z</time>
      </trkpt>
      <trkpt lat="45.90457" lon="4.92362">
        <ele>297.6</ele>
        <time>2023-09-02T14:25:12Z</time>
      </trkpt>
      <trkpt lat="45.90457" lon="4.92361">
        <ele>297.6</ele>
        <time>2023-09-02T14:25:13Z</time>
      </trkpt>
      <trkpt lat="45.90459" lon="4.92359">
        <ele>297.7</ele>
        <time>2023-09-02T14:25:14Z</time>
      </trkpt>
      <trkpt lat="45.90461" lon="4.92358">
        <ele>297.8</ele>
        <time>2023-09-02T14:25:15Z</time>
      </trkpt>
      <trkpt lat="45.90462" lon="4.92357">
        <ele>297.8</ele>
        <time>2023-09-02T14:25:16Z</time>
      </trkpt>
      <trkpt lat="45.90464" lon="4.92355">
        <ele>297.9</ele>
        <time>2023-09-02T14:25:17Z</time>
      </trkpt>
      <trkpt lat="45.90466" lon="4.92352">
        <ele>298</ele>
        <time>2023-09-02T14:25:18Z</time>
      </trkpt>
      <trkpt lat="45.90467" lon="4.92351">
        <ele>298.1</ele>
        <time>2023-09-02T14:25:19Z</time>
      </trkpt>
      <trkpt lat="45.90469" lon="4.92351">
        <ele>298.1</ele>
        <time>2023-09-02T14:25:20Z</time>
      </trkpt>
      <trkpt lat="45.9047" lon="4.9235">
        <ele>298.2</ele>
        <time>2023-09-02T14:25:21Z</time>
      </trkpt>
      <trkpt lat="45.90472" lon="4.92347">
        <ele>298.3</ele>
        <time>2023-09-02T14:25:22Z</time>
      </trkpt>
      <trkpt lat="45.90473" lon="4.92347">
        <ele>298.3</ele>
        <time>2023-09-02T14:25:23Z</time>
      </trkpt>
      <trkpt lat="45.90475" lon="4.92345">
        <ele>298.4</ele>
        <time>2023-09-02T14:25:24Z</time>
      </trkpt>
      <trkpt lat="45.90476" lon="4.92344">
        <ele>298.5</ele>
        <time>2023-09-02T14:25:25Z</time>
      </trkpt>
      <trkpt lat="45.90477" lon="4.92343">
        <ele>298.5</ele>
        <time>2023-09-02T14:25:26Z</time>
      </trkpt>
      <trkpt lat="45.90478" lon="4.92341">
        <ele>298.6</ele>
        <time>2023-09-02T14:25:27Z</time>
      </trkpt>
      <trkpt lat="45.90481" lon="4.92338">
        <ele>298.7</ele>
        <time>2023-09-02T14:25:28Z</time>
      </trkpt>
      <trkpt lat="45.90482" lon="4.92338">
        <ele>298.7</ele>
        <time>2023-09-02T14:25:29Z</time>
      </trkpt>
      <trkpt lat="45.90485" lon="4.92335">
        <ele>298.8</ele>
        <time>2023-09-02T14:25:30Z</time>
      </trkpt>
      <trkpt lat="45.90485" lon="4.92334">
        <ele>298.8</ele>
        <time>2023-09-02T14:25:31Z</time>
      </trkpt>
      <trkpt lat="45.90487" lon="4.92332">
        <ele>298.9</ele>
        <time>2023-09-02T14:25:32Z</time>
      </trkpt>
      <trkpt lat="45.90489" lon="4.92331">
        <ele>298.9</ele>
        <time>2023-09-02T14:25:33Z</time>
      </trkpt>
      <trkpt lat="45.9049" lon="4.9233">
        <ele>299</ele>
        <time>2023-09-02T14:25:34Z</time>
      </trkpt>
      <trkpt lat="45.90491" lon="4.92328">
        <ele>299</ele>
        <time>2023-09-02T14:25:35Z</time>
      </trkpt>
      <trkpt lat="45.90493" lon="4.92325">
        <ele>299.1</ele>
        <time>2023-09-02T14:25:36Z</time>
      </trkpt>
      <trkpt lat="45.90493" lon="4.92324">
        <ele>299.1</ele>
        <time>2023-09-02T14:25:37Z</time>
      </trkpt>
      <trkpt lat="45.90496" lon="4.92321">
        <ele>299.2</ele>
        <time>2023-09-02T14:25:38Z</time>
      </trkpt>
      <trkpt lat="45.90497" lon="4.9232">
        <ele>299.2</ele>
        <time>2023-09-02T14:25:39Z</time>
      </trkpt>
      <trkpt lat="45.90499" lon="4.92317">
        <ele>299.3</ele>
        <time>2023-09-02T14:25:40Z</time>
      </trkpt>
      <trkpt lat="45.90499" lon="4.92316">
        <ele>299.3</ele>
        <time>2023-09-02T14:25:41Z</time>
      </trkpt>
      <trkpt lat="45.90501" lon="4.92314">
        <ele>299.4</ele>
        <time>2023-09-02T14:25:42Z</time>
      </trkpt>
      <trkpt lat="45.90502" lon="4.92312">
        <ele>299.4</ele>
        <time>2023-09-02T14:25:43Z</time>
      </trkpt>
      <trkpt lat="45.90503" lon="4.9231">
        <ele>299.5</ele>
        <time>2023-09-02T14:25:44Z</time>
      </trkpt>
      <trkpt lat="45.90504" lon="4.92308">
        <ele>299.5</ele>
        <time>2023-09-02T14:25:45Z</time>
      </trkpt>
      <trkpt lat="45.90506" lon="4.92308">
        <ele>299.6</ele>
        <time>2023-09-02T14:25:46Z</time>
      </trkpt>
      <trkpt lat="45.90509" lon="4.92304">
        <ele>299.7</ele>
        <time>2023-09-02T14:25:47Z</time>
      </trkpt>
      <trkpt lat="45.9051" lon="4.92304">
        <ele>299.7</ele>
        <time>2023-09-02T14:25:48Z</time>
      </trkpt>
      <trkpt lat="45.90511" lon="4.92301">
        <ele>299.8</ele>
        <time>2023-09-02T14:25:49Z</time>
      </trkpt>
      <trkpt lat="45.90513" lon="4.92299">
        <ele>299.8</ele>
        <time>2023-09-02T14:25:51Z</time>
      </trkpt>
      <trkpt lat="45.90515" lon="4.92296">
        <ele>299.9</ele>
        <time>2023-09-02T14:25:52Z</time>
      </trkpt>
      <trkpt lat="45.90516" lon="4.92295">
        <ele>300</ele>
        <time>2023-09-02T14:25:53Z</time>
      </trkpt>
      <trkpt lat="45.90518" lon="4.92294">
        <ele>300</ele>
        <time>2023-09-02T14:25:54Z</time>
      </trkpt>
      <trkpt lat="45.90519" lon="4.92294">
        <ele>300.1</ele>
        <time>2023-09-02T14:25:55Z</time>
      </trkpt>
      <trkpt lat="45.90521" lon="4.92293">
        <ele>300.1</ele>
        <time>2023-09-02T14:25:56Z</time>
      </trkpt>
      <trkpt lat="45.90523" lon="4.92292">
        <ele>300.2</ele>
        <time>2023-09-02T14:25:57Z</time>
      </trkpt>
      <trkpt lat="45.90525" lon="4.92292">
        <ele>300.3</ele>
        <time>2023-09-02T14:25:58Z</time>
      </trkpt>
      <trkpt lat="45.90526" lon="4.92292">
        <ele>300.4</ele>
        <time>2023-09-02T14:25:59Z</time>
      </trkpt>
      <trkpt lat="45.90529" lon="4.92291">
        <ele>300.5</ele>
        <time>2023-09-02T14:26:00Z</time>
      </trkpt>
      <trkpt lat="45.9053" lon="4.92291">
        <ele>300.5</ele>
        <time>2023-09-02T14:26:01Z</time>
      </trkpt>
      <trkpt lat="45.90533" lon="4.92289">
        <ele>300.6</ele>
        <time>2023-09-02T14:26:02Z</time>
      </trkpt>
      <trkpt lat="45.90534" lon="4.92289">
        <ele>300.7</ele>
        <time>2023-09-02T14:26:03Z</time>
      </trkpt>
      <trkpt lat="45.90538" lon="4.92288">
        <ele>300.8</ele>
        <time>2023-09-02T14:26:04Z</time>
      </trkpt>
      <trkpt lat="45.90539" lon="4.92288">
        <ele>300.9</ele>
        <time>2023-09-02T14:26:05Z</time>
      </trkpt>
      <trkpt lat="45.90542" lon="4.92287">
        <ele>301</ele>
        <time>2023-09-02T14:26:06Z</time>
      </trkpt>
      <trkpt lat="45.90543" lon="4.92287">
        <ele>301.1</ele>
        <time>2023-09-02T14:26:07Z</time>
      </trkpt>
      <trkpt lat="45.90545" lon="4.92286">
        <ele>301.2</ele>
        <time>2023-09-02T14:26:08Z</time>
      </trkpt>
      <trkpt lat="45.90547" lon="4.92286">
        <ele>301.2</ele>
        <time>2023-09-02T14:26:09Z</time>
      </trkpt>
      <trkpt lat="45.90548" lon="4.92286">
        <ele>301.3</ele>
        <time>2023-09-02T14:26:10Z</time>
      </trkpt>
      <trkpt lat="45.9055" lon="4.92285">
        <ele>301.4</ele>
        <time>2023-09-02T14:26:11Z</time>
      </trkpt>
      <trkpt lat="45.90552" lon="4.92285">
        <ele>301.5</ele>
        <time>2023-09-02T14:26:12Z</time>
      </trkpt>
      <trkpt lat="45.90555" lon="4.92284">
        <ele>301.6</ele>
        <time>2023-09-02T14:26:13Z</time>
      </trkpt>
      <trkpt lat="45.90558" lon="4.92283">
        <ele>301.8</ele>
        <time>2023-09-02T14:26:14Z</time>
      </trkpt>
      <trkpt lat="45.9056" lon="4.92283">
        <ele>301.8</ele>
        <time>2023-09-02T14:26:15Z</time>
      </trkpt>
      <trkpt lat="45.90563" lon="4.92281">
        <ele>302</ele>
        <time>2023-09-02T14:26:16Z</time>
      </trkpt>
      <trkpt lat="45.90564" lon="4.92281">
        <ele>302</ele>
        <time>2023-09-02T14:26:17Z</time>
      </trkpt>
      <trkpt lat="45.90567" lon="4.9228">
        <ele>302.1</ele>
        <time>2023-09-02T14:26:18Z</time>
      </trkpt>
      <trkpt lat="45.90568" lon="4.9228">
        <ele>302.2</ele>
        <time>2023-09-02T14:26:19Z</time>
      </trkpt>
      <trkpt lat="45.90572" lon="4.92279">
        <ele>302.3</ele>
        <time>2023-09-02T14:26:20Z</time>
      </trkpt>
      <trkpt lat="45.90574" lon="4.92278">
        <ele>302.3</ele>
        <time>2023-09-02T14:26:21Z</time>
      </trkpt>
      <trkpt lat="45.90577" lon="4.92277">
        <ele>302.5</ele>
        <time>2023-09-02T14:26:22Z</time>
      </trkpt>
      <trkpt lat="45.90578" lon="4.92277">
        <ele>302.5</ele>
        <time>2023-09-02T14:26:23Z</time>
      </trkpt>
      <trkpt lat="45.90581" lon="4.92274">
        <ele>302.6</ele>
        <time>2023-09-02T14:26:24Z</time>
      </trkpt>
      <trkpt lat="45.90582" lon="4.92273">
        <ele>302.7</ele>
        <time>2023-09-02T14:26:25Z</time>
      </trkpt>
      <trkpt lat="45.90585" lon="4.92271">
        <ele>302.8</ele>
        <time>2023-09-02T14:26:26Z</time>
      </trkpt>
      <trkpt lat="45.90585" lon="4.9227">
        <ele>302.8</ele>
        <time>2023-09-02T14:26:27Z</time>
      </trkpt>
      <trkpt lat="45.90587" lon="4.92267">
        <ele>302.9</ele>
        <time>2023-09-02T14:26:28Z</time>
      </trkpt>
      <trkpt lat="45.9059" lon="4.92264">
        <ele>303</ele>
        <time>2023-09-02T14:26:29Z</time>
      </trkpt>
      <trkpt lat="45.90591" lon="4.92263">
        <ele>303.1</ele>
        <time>2023-09-02T14:26:30Z</time>
      </trkpt>
      <trkpt lat="45.90592" lon="4.9226">
        <ele>303.2</ele>
        <time>2023-09-02T14:26:31Z</time>
      </trkpt>
      <trkpt lat="45.90595" lon="4.92257">
        <ele>303.3</ele>
        <time>2023-09-02T14:26:32Z</time>
      </trkpt>
      <trkpt lat="45.90596" lon="4.92255">
        <ele>303.4</ele>
        <time>2023-09-02T14:26:33Z</time>
      </trkpt>
      <trkpt lat="45.90595" lon="4.92252">
        <ele>303.4</ele>
        <time>2023-09-02T14:26:34Z</time>
      </trkpt>
      <trkpt lat="45.90597" lon="4.92247">
        <ele>303.6</ele>
        <time>2023-09-02T14:26:35Z</time>
      </trkpt>
      <trkpt lat="45.90597" lon="4.92245">
        <ele>303.6</ele>
        <time>2023-09-02T14:26:36Z</time>
      </trkpt>
      <trkpt lat="45.906" lon="4.92239">
        <ele>303.8</ele>
        <time>2023-09-02T14:26:37Z</time>
      </trkpt>
      <trkpt lat="45.90601" lon="4.92234">
        <ele>303.9</ele>
        <time>2023-09-02T14:26:38Z</time>
      </trkpt>
      <trkpt lat="45.90603" lon="4.9223">
        <ele>304</ele>
        <time>2023-09-02T14:26:39Z</time>
      </trkpt>
      <trkpt lat="45.90603" lon="4.92225">
        <ele>304.1</ele>
        <time>2023-09-02T14:26:40Z</time>
      </trkpt>
      <trkpt lat="45.90604" lon="4.92224">
        <ele>304.1</ele>
        <time>2023-09-02T14:26:41Z</time>
      </trkpt>
      <trkpt lat="45.90606" lon="4.9222">
        <ele>304.2</ele>
        <time>2023-09-02T14:26:42Z</time>
      </trkpt>
      <trkpt lat="45.90608" lon="4.92215">
        <ele>304.3</ele>
        <time>2023-09-02T14:26:43Z</time>
      </trkpt>
      <trkpt lat="45.90608" lon="4.92212">
        <ele>304.3</ele>
        <time>2023-09-02T14:26:44Z</time>
      </trkpt>
      <trkpt lat="45.90609" lon="4.92208">
        <ele>304.4</ele>
        <time>2023-09-02T14:26:45Z</time>
      </trkpt>
      <trkpt lat="45.90609" lon="4.92206">
        <ele>304.4</ele>
        <time>2023-09-02T14:26:46Z</time>
      </trkpt>
      <trkpt lat="45.90613" lon="4.92202">
        <ele>304.5</ele>
        <time>2023-09-02T14:26:47Z</time>
      </trkpt>
      <trkpt lat="45.90614" lon="4.92201">
        <ele>304.5</ele>
        <time>2023-09-02T14:26:48Z</time>
      </trkpt>
      <trkpt lat="45.90617" lon="4.92197">
        <ele>304.6</ele>
        <time>2023-09-02T14:26:49Z</time>
      </trkpt>
      <trkpt lat="45.90618" lon="4.92195">
        <ele>304.6</ele>
        <time>2023-09-02T14:26:50Z</time>
      </trkpt>
      <trkpt lat="45.90621" lon="4.92193">
        <ele>304.7</ele>
        <time>2023-09-02T14:26:51Z</time>
      </trkpt>
      <trkpt lat="45.90622" lon="4.92189">
        <ele>304.7</ele>
        <time>2023-09-02T14:26:52Z</time>
      </trkpt>
      <trkpt lat="45.90625" lon="4.92186">
        <ele>304.7</ele>
        <time>2023-09-02T14:26:53Z</time>
      </trkpt>
      <trkpt lat="45.90626" lon="4.92184">
        <ele>304.7</ele>
        <time>2023-09-02T14:26:54Z</time>
      </trkpt>
      <trkpt lat="45.90629" lon="4.92181">
        <ele>304.7</ele>
        <time>2023-09-02T14:26:55Z</time>
      </trkpt>
      <trkpt lat="45.9063" lon="4.9218">
        <ele>304.6</ele>
        <time>2023-09-02T14:26:56Z</time>
      </trkpt>
      <trkpt lat="45.90633" lon="4.92176">
        <ele>304.6</ele>
        <time>2023-09-02T14:26:57Z</time>
      </trkpt>
      <trkpt lat="45.90637" lon="4.92172">
        <ele>304.5</ele>
        <time>2023-09-02T14:26:58Z</time>
      </trkpt>
      <trkpt lat="45.90639" lon="4.92166">
        <ele>304.4</ele>
        <time>2023-09-02T14:26:59Z</time>
      </trkpt>
      <trkpt lat="45.9064" lon="4.92161">
        <ele>304.3</ele>
        <time>2023-09-02T14:27:00Z</time>
      </trkpt>
      <trkpt lat="45.90642" lon="4.92158">
        <ele>304.2</ele>
        <time>2023-09-02T14:27:01Z</time>
      </trkpt>
      <trkpt lat="45.9064" lon="4.92154">
        <ele>304.2</ele>
        <time>2023-09-02T14:27:02Z</time>
      </trkpt>
      <trkpt lat="45.90637" lon="4.92152">
        <ele>304.1</ele>
        <time>2023-09-02T14:27:03Z</time>
      </trkpt>
      <trkpt lat="45.90635" lon="4.92149">
        <ele>304</ele>
        <time>2023-09-02T14:27:04Z</time>
      </trkpt>
      <trkpt lat="45.90633" lon="4.92143">
        <ele>303.9</ele>
        <time>2023-09-02T14:27:05Z</time>
      </trkpt>
      <trkpt lat="45.90632" lon="4.92138">
        <ele>303.8</ele>
        <time>2023-09-02T14:27:06Z</time>
      </trkpt>
      <trkpt lat="45.90631" lon="4.92134">
        <ele>303.5</ele>
        <time>2023-09-02T14:27:07Z</time>
      </trkpt>
      <trkpt lat="45.9063" lon="4.92128">
        <ele>303.5</ele>
        <time>2023-09-02T14:27:08Z</time>
      </trkpt>
      <trkpt lat="45.9063" lon="4.92126">
        <ele>303.4</ele>
        <time>2023-09-02T14:27:09Z</time>
      </trkpt>
      <trkpt lat="45.90628" lon="4.92121">
        <ele>303.3</ele>
        <time>2023-09-02T14:27:10Z</time>
      </trkpt>
      <trkpt lat="45.90627" lon="4.92115">
        <ele>303.2</ele>
        <time>2023-09-02T14:27:11Z</time>
      </trkpt>
      <trkpt lat="45.90627" lon="4.92108">
        <ele>303.1</ele>
        <time>2023-09-02T14:27:12Z</time>
      </trkpt>
      <trkpt lat="45.90627" lon="4.92105">
        <ele>303.1</ele>
        <time>2023-09-02T14:27:13Z</time>
      </trkpt>
      <trkpt lat="45.90625" lon="4.921">
        <ele>303</ele>
        <time>2023-09-02T14:27:14Z</time>
      </trkpt>
      <trkpt lat="45.90626" lon="4.92095">
        <ele>302.9</ele>
        <time>2023-09-02T14:27:15Z</time>
      </trkpt>
      <trkpt lat="45.90625" lon="4.9209">
        <ele>302.9</ele>
        <time>2023-09-02T14:27:16Z</time>
      </trkpt>
      <trkpt lat="45.90624" lon="4.92084">
        <ele>302.8</ele>
        <time>2023-09-02T14:27:17Z</time>
      </trkpt>
      <trkpt lat="45.90624" lon="4.92077">
        <ele>302.6</ele>
        <time>2023-09-02T14:27:18Z</time>
      </trkpt>
      <trkpt lat="45.90624" lon="4.92072">
        <ele>302.5</ele>
        <time>2023-09-02T14:27:19Z</time>
      </trkpt>
      <trkpt lat="45.90624" lon="4.92066">
        <ele>302.4</ele>
        <time>2023-09-02T14:27:20Z</time>
      </trkpt>
      <trkpt lat="45.90624" lon="4.92063">
        <ele>302.4</ele>
        <time>2023-09-02T14:27:21Z</time>
      </trkpt>
      <trkpt lat="45.90624" lon="4.92057">
        <ele>302.3</ele>
        <time>2023-09-02T14:27:22Z</time>
      </trkpt>
      <trkpt lat="45.90625" lon="4.92053">
        <ele>302.2</ele>
        <time>2023-09-02T14:27:23Z</time>
      </trkpt>
      <trkpt lat="45.90626" lon="4.92051">
        <ele>302.1</ele>
        <time>2023-09-02T14:27:24Z</time>
      </trkpt>
      <trkpt lat="45.90627" lon="4.92042">
        <ele>301.9</ele>
        <time>2023-09-02T14:27:25Z</time>
      </trkpt>
      <trkpt lat="45.90628" lon="4.92035">
        <ele>301.8</ele>
        <time>2023-09-02T14:27:26Z</time>
      </trkpt>
      <trkpt lat="45.90627" lon="4.92028">
        <ele>301.6</ele>
        <time>2023-09-02T14:27:27Z</time>
      </trkpt>
      <trkpt lat="45.9063" lon="4.92023">
        <ele>301.5</ele>
        <time>2023-09-02T14:27:28Z</time>
      </trkpt>
      <trkpt lat="45.90631" lon="4.92019">
        <ele>301.4</ele>
        <time>2023-09-02T14:27:29Z</time>
      </trkpt>
      <trkpt lat="45.9063" lon="4.92011">
        <ele>301.2</ele>
        <time>2023-09-02T14:27:30Z</time>
      </trkpt>
      <trkpt lat="45.90628" lon="4.92004">
        <ele>301.1</ele>
        <time>2023-09-02T14:27:31Z</time>
      </trkpt>
      <trkpt lat="45.90629" lon="4.91997">
        <ele>301</ele>
        <time>2023-09-02T14:27:33Z</time>
      </trkpt>
      <trkpt lat="45.90628" lon="4.91989">
        <ele>300.9</ele>
        <time>2023-09-02T14:27:34Z</time>
      </trkpt>
      <trkpt lat="45.90629" lon="4.91982">
        <ele>300.8</ele>
        <time>2023-09-02T14:27:35Z</time>
      </trkpt>
      <trkpt lat="45.9063" lon="4.91976">
        <ele>300.8</ele>
        <time>2023-09-02T14:27:36Z</time>
      </trkpt>
      <trkpt lat="45.90631" lon="4.9197">
        <ele>300.7</ele>
        <time>2023-09-02T14:27:37Z</time>
      </trkpt>
      <trkpt lat="45.90633" lon="4.91965">
        <ele>300.6</ele>
        <time>2023-09-02T14:27:38Z</time>
      </trkpt>
      <trkpt lat="45.90635" lon="4.91959">
        <ele>300.6</ele>
        <time>2023-09-02T14:27:39Z</time>
      </trkpt>
      <trkpt lat="45.90638" lon="4.91954">
        <ele>300.5</ele>
        <time>2023-09-02T14:27:40Z</time>
      </trkpt>
      <trkpt lat="45.9064" lon="4.91949">
        <ele>300.5</ele>
        <time>2023-09-02T14:27:41Z</time>
      </trkpt>
      <trkpt lat="45.90644" lon="4.91944">
        <ele>300.5</ele>
        <time>2023-09-02T14:27:42Z</time>
      </trkpt>
      <trkpt lat="45.90645" lon="4.91941">
        <ele>300.4</ele>
        <time>2023-09-02T14:27:43Z</time>
      </trkpt>
      <trkpt lat="45.90648" lon="4.91936">
        <ele>300.4</ele>
        <time>2023-09-02T14:27:44Z</time>
      </trkpt>
      <trkpt lat="45.90649" lon="4.91931">
        <ele>300.4</ele>
        <time>2023-09-02T14:27:45Z</time>
      </trkpt>
      <trkpt lat="45.9065" lon="4.91926">
        <ele>300.3</ele>
        <time>2023-09-02T14:27:46Z</time>
      </trkpt>
      <trkpt lat="45.9065" lon="4.91924">
        <ele>300.3</ele>
        <time>2023-09-02T14:27:47Z</time>
      </trkpt>
      <trkpt lat="45.90652" lon="4.91918">
        <ele>300.3</ele>
        <time>2023-09-02T14:27:48Z</time>
      </trkpt>
      <trkpt lat="45.90652" lon="4.91913">
        <ele>300.2</ele>
        <time>2023-09-02T14:27:49Z</time>
      </trkpt>
      <trkpt lat="45.90653" lon="4.91908">
        <ele>300.2</ele>
        <time>2023-09-02T14:27:50Z</time>
      </trkpt>
      <trkpt lat="45.90654" lon="4.91902">
        <ele>300.1</ele>
        <time>2023-09-02T14:27:51Z</time>
      </trkpt>
      <trkpt lat="45.90656" lon="4.91898">
        <ele>300.1</ele>
        <time>2023-09-02T14:27:52Z</time>
      </trkpt>
      <trkpt lat="45.90657" lon="4.91892">
        <ele>300</ele>
        <time>2023-09-02T14:27:53Z</time>
      </trkpt>
      <trkpt lat="45.90658" lon="4.91887">
        <ele>300</ele>
        <time>2023-09-02T14:27:54Z</time>
      </trkpt>
      <trkpt lat="45.90659" lon="4.91883">
        <ele>299.9</ele>
        <time>2023-09-02T14:27:55Z</time>
      </trkpt>
      <trkpt lat="45.9066" lon="4.91877">
        <ele>299.9</ele>
        <time>2023-09-02T14:27:56Z</time>
      </trkpt>
      <trkpt lat="45.9066" lon="4.91875">
        <ele>299.9</ele>
        <time>2023-09-02T14:27:57Z</time>
      </trkpt>
      <trkpt lat="45.90661" lon="4.91868">
        <ele>299.9</ele>
        <time>2023-09-02T14:27:58Z</time>
      </trkpt>
      <trkpt lat="45.90662" lon="4.91865">
        <ele>299.9</ele>
        <time>2023-09-02T14:27:59Z</time>
      </trkpt>
      <trkpt lat="45.90663" lon="4.91861">
        <ele>299.9</ele>
        <time>2023-09-02T14:28:00Z</time>
      </trkpt>
      <trkpt lat="45.90665" lon="4.91855">
        <ele>299.9</ele>
        <time>2023-09-02T14:28:01Z</time>
      </trkpt>
      <trkpt lat="45.90666" lon="4.91853">
        <ele>299.9</ele>
        <time>2023-09-02T14:28:02Z</time>
      </trkpt>
      <trkpt lat="45.90666" lon="4.91849">
        <ele>299.9</ele>
        <time>2023-09-02T14:28:03Z</time>
      </trkpt>
      <trkpt lat="45.90667" lon="4.91845">
        <ele>299.9</ele>
        <time>2023-09-02T14:28:04Z</time>
      </trkpt>
      <trkpt lat="45.90667" lon="4.9184">
        <ele>299.9</ele>
        <time>2023-09-02T14:28:05Z</time>
      </trkpt>
      <trkpt lat="45.90668" lon="4.91837">
        <ele>299.9</ele>
        <time>2023-09-02T14:28:06Z</time>
      </trkpt>
      <trkpt lat="45.90669" lon="4.91833">
        <ele>300</ele>
        <time>2023-09-02T14:28:07Z</time>
      </trkpt>
      <trkpt lat="45.9067" lon="4.91827">
        <ele>300</ele>
        <time>2023-09-02T14:28:08Z</time>
      </trkpt>
      <trkpt lat="45.9067" lon="4.91825">
        <ele>300</ele>
        <time>2023-09-02T14:28:09Z</time>
      </trkpt>
      <trkpt lat="45.90672" lon="4.9182">
        <ele>300.1</ele>
        <time>2023-09-02T14:28:10Z</time>
      </trkpt>
      <trkpt lat="45.90673" lon="4.91818">
        <ele>300.1</ele>
        <time>2023-09-02T14:28:11Z</time>
      </trkpt>
      <trkpt lat="45.90674" lon="4.91814">
        <ele>300.1</ele>
        <time>2023-09-02T14:28:12Z</time>
      </trkpt>
      <trkpt lat="45.90674" lon="4.9181">
        <ele>300.2</ele>
        <time>2023-09-02T14:28:13Z</time>
      </trkpt>
      <trkpt lat="45.90676" lon="4.91804">
        <ele>300.2</ele>
        <time>2023-09-02T14:28:14Z</time>
      </trkpt>
      <trkpt lat="45.90676" lon="4.91803">
        <ele>300.2</ele>
        <time>2023-09-02T14:28:15Z</time>
      </trkpt>
      <trkpt lat="45.90676" lon="4.91798">
        <ele>300.3</ele>
        <time>2023-09-02T14:28:16Z</time>
      </trkpt>
      <trkpt lat="45.90676" lon="4.91796">
        <ele>300.3</ele>
        <time>2023-09-02T14:28:17Z</time>
      </trkpt>
      <trkpt lat="45.90676" lon="4.91791">
        <ele>300.4</ele>
        <time>2023-09-02T14:28:18Z</time>
      </trkpt>
      <trkpt lat="45.90678" lon="4.91787">
        <ele>300.4</ele>
        <time>2023-09-02T14:28:19Z</time>
      </trkpt>
      <trkpt lat="45.90678" lon="4.91783">
        <ele>300.5</ele>
        <time>2023-09-02T14:28:20Z</time>
      </trkpt>
      <trkpt lat="45.90678" lon="4.91781">
        <ele>300.5</ele>
        <time>2023-09-02T14:28:21Z</time>
      </trkpt>
      <trkpt lat="45.90679" lon="4.91779">
        <ele>300.6</ele>
        <time>2023-09-02T14:28:22Z</time>
      </trkpt>
      <trkpt lat="45.90681" lon="4.91777">
        <ele>300.6</ele>
        <time>2023-09-02T14:28:23Z</time>
      </trkpt>
      <trkpt lat="45.90682" lon="4.91774">
        <ele>300.7</ele>
        <time>2023-09-02T14:28:24Z</time>
      </trkpt>
      <trkpt lat="45.90682" lon="4.91772">
        <ele>300.7</ele>
        <time>2023-09-02T14:28:25Z</time>
      </trkpt>
      <trkpt lat="45.90683" lon="4.9177">
        <ele>300.7</ele>
        <time>2023-09-02T14:28:26Z</time>
      </trkpt>
      <trkpt lat="45.90684" lon="4.9177">
        <ele>300.7</ele>
        <time>2023-09-02T14:28:27Z</time>
      </trkpt>
      <trkpt lat="45.90685" lon="4.91768">
        <ele>300.8</ele>
        <time>2023-09-02T14:28:28Z</time>
      </trkpt>
      <trkpt lat="45.90686" lon="4.91766">
        <ele>300.8</ele>
        <time>2023-09-02T14:28:29Z</time>
      </trkpt>
      <trkpt lat="45.90687" lon="4.91762">
        <ele>300.8</ele>
        <time>2023-09-02T14:28:30Z</time>
      </trkpt>
      <trkpt lat="45.90688" lon="4.91761">
        <ele>300.8</ele>
        <time>2023-09-02T14:28:31Z</time>
      </trkpt>
      <trkpt lat="45.90689" lon="4.91757">
        <ele>300.9</ele>
        <time>2023-09-02T14:28:32Z</time>
      </trkpt>
      <trkpt lat="45.9069" lon="4.91756">
        <ele>300.9</ele>
        <time>2023-09-02T14:28:33Z</time>
      </trkpt>
      <trkpt lat="45.9069" lon="4.9175">
        <ele>300.9</ele>
        <time>2023-09-02T14:28:34Z</time>
      </trkpt>
      <trkpt lat="45.9069" lon="4.91749">
        <ele>301</ele>
        <time>2023-09-02T14:28:35Z</time>
      </trkpt>
      <trkpt lat="45.90692" lon="4.91745">
        <ele>301</ele>
        <time>2023-09-02T14:28:36Z</time>
      </trkpt>
      <trkpt lat="45.90693" lon="4.9174">
        <ele>301</ele>
        <time>2023-09-02T14:28:37Z</time>
      </trkpt>
      <trkpt lat="45.90693" lon="4.91739">
        <ele>301.1</ele>
        <time>2023-09-02T14:28:38Z</time>
      </trkpt>
      <trkpt lat="45.90693" lon="4.91735">
        <ele>301.1</ele>
        <time>2023-09-02T14:28:39Z</time>
      </trkpt>
      <trkpt lat="45.90694" lon="4.91731">
        <ele>301.2</ele>
        <time>2023-09-02T14:28:40Z</time>
      </trkpt>
      <trkpt lat="45.90694" lon="4.91729">
        <ele>301.2</ele>
        <time>2023-09-02T14:28:41Z</time>
      </trkpt>
      <trkpt lat="45.90694" lon="4.91725">
        <ele>301.2</ele>
        <time>2023-09-02T14:28:42Z</time>
      </trkpt>
      <trkpt lat="45.90695" lon="4.91719">
        <ele>301.3</ele>
        <time>2023-09-02T14:28:43Z</time>
      </trkpt>
      <trkpt lat="45.90696" lon="4.91714">
        <ele>301.4</ele>
        <time>2023-09-02T14:28:44Z</time>
      </trkpt>
      <trkpt lat="45.90697" lon="4.91712">
        <ele>301.4</ele>
        <time>2023-09-02T14:28:45Z</time>
      </trkpt>
      <trkpt lat="45.90697" lon="4.91708">
        <ele>301.5</ele>
        <time>2023-09-02T14:28:46Z</time>
      </trkpt>
      <trkpt lat="45.90698" lon="4.91706">
        <ele>301.5</ele>
        <time>2023-09-02T14:28:47Z</time>
      </trkpt>
      <trkpt lat="45.90699" lon="4.917">
        <ele>301.6</ele>
        <time>2023-09-02T14:28:48Z</time>
      </trkpt>
      <trkpt lat="45.90699" lon="4.91698">
        <ele>301.7</ele>
        <time>2023-09-02T14:28:49Z</time>
      </trkpt>
      <trkpt lat="45.907" lon="4.91694">
        <ele>301.7</ele>
        <time>2023-09-02T14:28:50Z</time>
      </trkpt>
      <trkpt lat="45.907" lon="4.91692">
        <ele>301.8</ele>
        <time>2023-09-02T14:28:51Z</time>
      </trkpt>
      <trkpt lat="45.907" lon="4.91687">
        <ele>301.8</ele>
        <time>2023-09-02T14:28:52Z</time>
      </trkpt>
      <trkpt lat="45.90701" lon="4.91683">
        <ele>301.9</ele>
        <time>2023-09-02T14:28:53Z</time>
      </trkpt>
      <trkpt lat="45.90701" lon="4.91678">
        <ele>302</ele>
        <time>2023-09-02T14:28:54Z</time>
      </trkpt>
      <trkpt lat="45.90701" lon="4.91675">
        <ele>302</ele>
        <time>2023-09-02T14:28:55Z</time>
      </trkpt>
      <trkpt lat="45.90701" lon="4.9167">
        <ele>302</ele>
        <time>2023-09-02T14:28:56Z</time>
      </trkpt>
      <trkpt lat="45.90701" lon="4.91668">
        <ele>302.1</ele>
        <time>2023-09-02T14:28:57Z</time>
      </trkpt>
      <trkpt lat="45.90703" lon="4.91663">
        <ele>302.1</ele>
        <time>2023-09-02T14:28:58Z</time>
      </trkpt>
      <trkpt lat="45.90703" lon="4.91662">
        <ele>302.1</ele>
        <time>2023-09-02T14:28:59Z</time>
      </trkpt>
      <trkpt lat="45.90704" lon="4.91657">
        <ele>302.1</ele>
        <time>2023-09-02T14:29:00Z</time>
      </trkpt>
      <trkpt lat="45.90704" lon="4.91653">
        <ele>302.1</ele>
        <time>2023-09-02T14:29:01Z</time>
      </trkpt>
      <trkpt lat="45.90704" lon="4.91648">
        <ele>302.1</ele>
        <time>2023-09-02T14:29:02Z</time>
      </trkpt>
      <trkpt lat="45.90706" lon="4.91643">
        <ele>302.1</ele>
        <time>2023-09-02T14:29:04Z</time>
      </trkpt>
      <trkpt lat="45.90706" lon="4.91641">
        <ele>302.1</ele>
        <time>2023-09-02T14:29:05Z</time>
      </trkpt>
      <trkpt lat="45.90707" lon="4.91639">
        <ele>302.1</ele>
        <time>2023-09-02T14:29:06Z</time>
      </trkpt>
      <trkpt lat="45.90707" lon="4.91635">
        <ele>302.1</ele>
        <time>2023-09-02T14:29:07Z</time>
      </trkpt>
      <trkpt lat="45.90707" lon="4.91633">
        <ele>302.1</ele>
        <time>2023-09-02T14:29:08Z</time>
      </trkpt>
      <trkpt lat="45.90707" lon="4.91628">
        <ele>302</ele>
        <time>2023-09-02T14:29:09Z</time>
      </trkpt>
      <trkpt lat="45.90708" lon="4.91622">
        <ele>301.9</ele>
        <time>2023-09-02T14:29:10Z</time>
      </trkpt>
      <trkpt lat="45.90708" lon="4.91617">
        <ele>301.8</ele>
        <time>2023-09-02T14:29:11Z</time>
      </trkpt>
      <trkpt lat="45.90706" lon="4.91613">
        <ele>301.8</ele>
        <time>2023-09-02T14:29:12Z</time>
      </trkpt>
      <trkpt lat="45.90705" lon="4.91609">
        <ele>301.7</ele>
        <time>2023-09-02T14:29:13Z</time>
      </trkpt>
      <trkpt lat="45.90704" lon="4.91607">
        <ele>301.7</ele>
        <time>2023-09-02T14:29:14Z</time>
      </trkpt>
      <trkpt lat="45.90703" lon="4.91601">
        <ele>301.5</ele>
        <time>2023-09-02T14:29:15Z</time>
      </trkpt>
      <trkpt lat="45.90702" lon="4.91598">
        <ele>301.4</ele>
        <time>2023-09-02T14:29:16Z</time>
      </trkpt>
      <trkpt lat="45.90702" lon="4.91592">
        <ele>301.3</ele>
        <time>2023-09-02T14:29:17Z</time>
      </trkpt>
      <trkpt lat="45.90702" lon="4.91586">
        <ele>301.1</ele>
        <time>2023-09-02T14:29:18Z</time>
      </trkpt>
      <trkpt lat="45.90702" lon="4.91581">
        <ele>300.9</ele>
        <time>2023-09-02T14:29:19Z</time>
      </trkpt>
      <trkpt lat="45.90702" lon="4.91574">
        <ele>300.7</ele>
        <time>2023-09-02T14:29:20Z</time>
      </trkpt>
      <trkpt lat="45.90702" lon="4.91566">
        <ele>300.3</ele>
        <time>2023-09-02T14:29:21Z</time>
      </trkpt>
      <trkpt lat="45.90703" lon="4.91557">
        <ele>299.9</ele>
        <time>2023-09-02T14:29:22Z</time>
      </trkpt>
      <trkpt lat="45.90704" lon="4.9155">
        <ele>299.7</ele>
        <time>2023-09-02T14:29:23Z</time>
      </trkpt>
      <trkpt lat="45.90703" lon="4.91543">
        <ele>299.4</ele>
        <time>2023-09-02T14:29:24Z</time>
      </trkpt>
      <trkpt lat="45.90703" lon="4.91536">
        <ele>299.2</ele>
        <time>2023-09-02T14:29:25Z</time>
      </trkpt>
      <trkpt lat="45.90702" lon="4.91529">
        <ele>299</ele>
        <time>2023-09-02T14:29:26Z</time>
      </trkpt>
      <trkpt lat="45.90703" lon="4.91524">
        <ele>298.9</ele>
        <time>2023-09-02T14:29:27Z</time>
      </trkpt>
      <trkpt lat="45.90703" lon="4.91518">
        <ele>298.8</ele>
        <time>2023-09-02T14:29:28Z</time>
      </trkpt>
      <trkpt lat="45.90703" lon="4.91511">
        <ele>298.7</ele>
        <time>2023-09-02T14:29:29Z</time>
      </trkpt>
      <trkpt lat="45.90702" lon="4.91504">
        <ele>298.5</ele>
        <time>2023-09-02T14:29:30Z</time>
      </trkpt>
      <trkpt lat="45.90702" lon="4.91498">
        <ele>298.4</ele>
        <time>2023-09-02T14:29:31Z</time>
      </trkpt>
      <trkpt lat="45.90702" lon="4.91492">
        <ele>298.4</ele>
        <time>2023-09-02T14:29:32Z</time>
      </trkpt>
      <trkpt lat="45.90702" lon="4.91487">
        <ele>298.3</ele>
        <time>2023-09-02T14:29:33Z</time>
      </trkpt>
      <trkpt lat="45.90701" lon="4.91482">
        <ele>298.3</ele>
        <time>2023-09-02T14:29:34Z</time>
      </trkpt>
      <trkpt lat="45.90701" lon="4.91476">
        <ele>298.2</ele>
        <time>2023-09-02T14:29:35Z</time>
      </trkpt>
      <trkpt lat="45.907" lon="4.91471">
        <ele>298.2</ele>
        <time>2023-09-02T14:29:36Z</time>
      </trkpt>
      <trkpt lat="45.90699" lon="4.91466">
        <ele>298.2</ele>
        <time>2023-09-02T14:29:37Z</time>
      </trkpt>
      <trkpt lat="45.90697" lon="4.91461">
        <ele>298.2</ele>
        <time>2023-09-02T14:29:38Z</time>
      </trkpt>
      <trkpt lat="45.90696" lon="4.91455">
        <ele>298.2</ele>
        <time>2023-09-02T14:29:39Z</time>
      </trkpt>
      <trkpt lat="45.90695" lon="4.91453">
        <ele>298.2</ele>
        <time>2023-09-02T14:29:40Z</time>
      </trkpt>
      <trkpt lat="45.90694" lon="4.91448">
        <ele>298.2</ele>
        <time>2023-09-02T14:29:41Z</time>
      </trkpt>
      <trkpt lat="45.90693" lon="4.91444">
        <ele>298.2</ele>
        <time>2023-09-02T14:29:42Z</time>
      </trkpt>
      <trkpt lat="45.90691" lon="4.9144">
        <ele>298.2</ele>
        <time>2023-09-02T14:29:43Z</time>
      </trkpt>
      <trkpt lat="45.9069" lon="4.91436">
        <ele>298.2</ele>
        <time>2023-09-02T14:29:44Z</time>
      </trkpt>
      <trkpt lat="45.90689" lon="4.91431">
        <ele>298.2</ele>
        <time>2023-09-02T14:29:45Z</time>
      </trkpt>
      <trkpt lat="45.90687" lon="4.91427">
        <ele>298.2</ele>
        <time>2023-09-02T14:29:46Z</time>
      </trkpt>
      <trkpt lat="45.90686" lon="4.91423">
        <ele>298.2</ele>
        <time>2023-09-02T14:29:47Z</time>
      </trkpt>
      <trkpt lat="45.90685" lon="4.91418">
        <ele>298.2</ele>
        <time>2023-09-02T14:29:48Z</time>
      </trkpt>
      <trkpt lat="45.90684" lon="4.91413">
        <ele>298.2</ele>
        <time>2023-09-02T14:29:49Z</time>
      </trkpt>
      <trkpt lat="45.90683" lon="4.91409">
        <ele>298.2</ele>
        <time>2023-09-02T14:29:50Z</time>
      </trkpt>
      <trkpt lat="45.90682" lon="4.91404">
        <ele>298.2</ele>
        <time>2023-09-02T14:29:51Z</time>
      </trkpt>
      <trkpt lat="45.9068" lon="4.914">
        <ele>298.2</ele>
        <time>2023-09-02T14:29:52Z</time>
      </trkpt>
      <trkpt lat="45.90679" lon="4.91396">
        <ele>298.2</ele>
        <time>2023-09-02T14:29:53Z</time>
      </trkpt>
      <trkpt lat="45.90678" lon="4.91392">
        <ele>298.3</ele>
        <time>2023-09-02T14:29:54Z</time>
      </trkpt>
      <trkpt lat="45.90676" lon="4.91387">
        <ele>298.3</ele>
        <time>2023-09-02T14:29:55Z</time>
      </trkpt>
      <trkpt lat="45.90674" lon="4.91382">
        <ele>298.3</ele>
        <time>2023-09-02T14:29:56Z</time>
      </trkpt>
      <trkpt lat="45.90672" lon="4.91379">
        <ele>298.3</ele>
        <time>2023-09-02T14:29:57Z</time>
      </trkpt>
      <trkpt lat="45.90671" lon="4.91375">
        <ele>298.3</ele>
        <time>2023-09-02T14:29:58Z</time>
      </trkpt>
      <trkpt lat="45.90669" lon="4.91369">
        <ele>298.3</ele>
        <time>2023-09-02T14:29:59Z</time>
      </trkpt>
      <trkpt lat="45.90668" lon="4.91365">
        <ele>298.2</ele>
        <time>2023-09-02T14:30:00Z</time>
      </trkpt>
      <trkpt lat="45.90667" lon="4.91361">
        <ele>298.2</ele>
        <time>2023-09-02T14:30:01Z</time>
      </trkpt>
      <trkpt lat="45.90666" lon="4.91356">
        <ele>298.2</ele>
        <time>2023-09-02T14:30:02Z</time>
      </trkpt>
      <trkpt lat="45.90665" lon="4.91352">
        <ele>298.2</ele>
        <time>2023-09-02T14:30:03Z</time>
      </trkpt>
      <trkpt lat="45.90664" lon="4.91349">
        <ele>298.2</ele>
        <time>2023-09-02T14:30:04Z</time>
      </trkpt>
      <trkpt lat="45.90662" lon="4.91344">
        <ele>298.2</ele>
        <time>2023-09-02T14:30:05Z</time>
      </trkpt>
      <trkpt lat="45.90661" lon="4.9134">
        <ele>298.2</ele>
        <time>2023-09-02T14:30:06Z</time>
      </trkpt>
      <trkpt lat="45.9066" lon="4.91335">
        <ele>298.3</ele>
        <time>2023-09-02T14:30:07Z</time>
      </trkpt>
      <trkpt lat="45.90659" lon="4.9133">
        <ele>298.3</ele>
        <time>2023-09-02T14:30:08Z</time>
      </trkpt>
      <trkpt lat="45.90658" lon="4.91326">
        <ele>298.3</ele>
        <time>2023-09-02T14:30:09Z</time>
      </trkpt>
      <trkpt lat="45.90656" lon="4.91322">
        <ele>298.3</ele>
        <time>2023-09-02T14:30:10Z</time>
      </trkpt>
      <trkpt lat="45.90655" lon="4.91318">
        <ele>298.3</ele>
        <time>2023-09-02T14:30:11Z</time>
      </trkpt>
      <trkpt lat="45.90655" lon="4.91313">
        <ele>298.3</ele>
        <time>2023-09-02T14:30:12Z</time>
      </trkpt>
      <trkpt lat="45.90655" lon="4.91312">
        <ele>298.3</ele>
        <time>2023-09-02T14:30:13Z</time>
      </trkpt>
      <trkpt lat="45.90653" lon="4.91308">
        <ele>298.4</ele>
        <time>2023-09-02T14:30:14Z</time>
      </trkpt>
      <trkpt lat="45.90653" lon="4.91306">
        <ele>298.4</ele>
        <time>2023-09-02T14:30:15Z</time>
      </trkpt>
      <trkpt lat="45.90651" lon="4.91305">
        <ele>298.4</ele>
        <time>2023-09-02T14:30:16Z</time>
      </trkpt>
      <trkpt lat="45.9065" lon="4.91303">
        <ele>298.4</ele>
        <time>2023-09-02T14:30:17Z</time>
      </trkpt>
      <trkpt lat="45.90649" lon="4.91302">
        <ele>298.4</ele>
        <time>2023-09-02T14:30:18Z</time>
      </trkpt>
      <trkpt lat="45.90648" lon="4.913">
        <ele>298.4</ele>
        <time>2023-09-02T14:30:19Z</time>
      </trkpt>
      <trkpt lat="45.90646" lon="4.913">
        <ele>298.4</ele>
        <time>2023-09-02T14:30:20Z</time>
      </trkpt>
      <trkpt lat="45.90645" lon="4.913">
        <ele>298.4</ele>
        <time>2023-09-02T14:30:21Z</time>
      </trkpt>
      <trkpt lat="45.90643" lon="4.913">
        <ele>298.4</ele>
        <time>2023-09-02T14:30:22Z</time>
      </trkpt>
      <trkpt lat="45.90641" lon="4.913">
        <ele>298.4</ele>
        <time>2023-09-02T14:30:23Z</time>
      </trkpt>
      <trkpt lat="45.90638" lon="4.91299">
        <ele>298.4</ele>
        <time>2023-09-02T14:30:24Z</time>
      </trkpt>
      <trkpt lat="45.90637" lon="4.91298">
        <ele>298.4</ele>
        <time>2023-09-02T14:30:25Z</time>
      </trkpt>
      <trkpt lat="45.90634" lon="4.91298">
        <ele>298.4</ele>
        <time>2023-09-02T14:30:26Z</time>
      </trkpt>
      <trkpt lat="45.90633" lon="4.91297">
        <ele>298.4</ele>
        <time>2023-09-02T14:30:27Z</time>
      </trkpt>
      <trkpt lat="45.9063" lon="4.91297">
        <ele>298.4</ele>
        <time>2023-09-02T14:30:28Z</time>
      </trkpt>
      <trkpt lat="45.90629" lon="4.91297">
        <ele>298.4</ele>
        <time>2023-09-02T14:30:29Z</time>
      </trkpt>
      <trkpt lat="45.90625" lon="4.91296">
        <ele>298.4</ele>
        <time>2023-09-02T14:30:30Z</time>
      </trkpt>
      <trkpt lat="45.90624" lon="4.91296">
        <ele>298.4</ele>
        <time>2023-09-02T14:30:31Z</time>
      </trkpt>
      <trkpt lat="45.9062" lon="4.91295">
        <ele>298.4</ele>
        <time>2023-09-02T14:30:32Z</time>
      </trkpt>
      <trkpt lat="45.90619" lon="4.91295">
        <ele>298.4</ele>
        <time>2023-09-02T14:30:33Z</time>
      </trkpt>
      <trkpt lat="45.90615" lon="4.91293">
        <ele>298.4</ele>
        <time>2023-09-02T14:30:34Z</time>
      </trkpt>
      <trkpt lat="45.90614" lon="4.91293">
        <ele>298.4</ele>
        <time>2023-09-02T14:30:35Z</time>
      </trkpt>
      <trkpt lat="45.90611" lon="4.91294">
        <ele>298.4</ele>
        <time>2023-09-02T14:30:36Z</time>
      </trkpt>
      <trkpt lat="45.90607" lon="4.91293">
        <ele>298.5</ele>
        <time>2023-09-02T14:30:37Z</time>
      </trkpt>
      <trkpt lat="45.90606" lon="4.91292">
        <ele>298.5</ele>
        <time>2023-09-02T14:30:38Z</time>
      </trkpt>
      <trkpt lat="45.90603" lon="4.91292">
        <ele>298.5</ele>
        <time>2023-09-02T14:30:39Z</time>
      </trkpt>
      <trkpt lat="45.90599" lon="4.91291">
        <ele>298.5</ele>
        <time>2023-09-02T14:30:40Z</time>
      </trkpt>
      <trkpt lat="45.90597" lon="4.91291">
        <ele>298.5</ele>
        <time>2023-09-02T14:30:41Z</time>
      </trkpt>
      <trkpt lat="45.90594" lon="4.9129">
        <ele>298.5</ele>
        <time>2023-09-02T14:30:42Z</time>
      </trkpt>
      <trkpt lat="45.90591" lon="4.9129">
        <ele>298.5</ele>
        <time>2023-09-02T14:30:43Z</time>
      </trkpt>
      <trkpt lat="45.90588" lon="4.91289">
        <ele>298.5</ele>
        <time>2023-09-02T14:30:44Z</time>
      </trkpt>
      <trkpt lat="45.90585" lon="4.91288">
        <ele>298.5</ele>
        <time>2023-09-02T14:30:45Z</time>
      </trkpt>
      <trkpt lat="45.90582" lon="4.91288">
        <ele>298.5</ele>
        <time>2023-09-02T14:30:46Z</time>
      </trkpt>
      <trkpt lat="45.90579" lon="4.91287">
        <ele>298.5</ele>
        <time>2023-09-02T14:30:47Z</time>
      </trkpt>
      <trkpt lat="45.90576" lon="4.91286">
        <ele>298.5</ele>
        <time>2023-09-02T14:30:48Z</time>
      </trkpt>
      <trkpt lat="45.90572" lon="4.91286">
        <ele>298.4</ele>
        <time>2023-09-02T14:30:49Z</time>
      </trkpt>
      <trkpt lat="45.90569" lon="4.91285">
        <ele>298.4</ele>
        <time>2023-09-02T14:30:50Z</time>
      </trkpt>
      <trkpt lat="45.90566" lon="4.91285">
        <ele>298.4</ele>
        <time>2023-09-02T14:30:51Z</time>
      </trkpt>
      <trkpt lat="45.90563" lon="4.91284">
        <ele>298.4</ele>
        <time>2023-09-02T14:30:52Z</time>
      </trkpt>
      <trkpt lat="45.90559" lon="4.91283">
        <ele>298.3</ele>
        <time>2023-09-02T14:30:53Z</time>
      </trkpt>
      <trkpt lat="45.90556" lon="4.91282">
        <ele>298.3</ele>
        <time>2023-09-02T14:30:54Z</time>
      </trkpt>
      <trkpt lat="45.90553" lon="4.91282">
        <ele>298.3</ele>
        <time>2023-09-02T14:30:55Z</time>
      </trkpt>
      <trkpt lat="45.9055" lon="4.91281">
        <ele>298.3</ele>
        <time>2023-09-02T14:30:56Z</time>
      </trkpt>
      <trkpt lat="45.90547" lon="4.9128">
        <ele>298.3</ele>
        <time>2023-09-02T14:30:57Z</time>
      </trkpt>
      <trkpt lat="45.90544" lon="4.9128">
        <ele>298.3</ele>
        <time>2023-09-02T14:30:58Z</time>
      </trkpt>
      <trkpt lat="45.9054" lon="4.91279">
        <ele>298.2</ele>
        <time>2023-09-02T14:30:59Z</time>
      </trkpt>
      <trkpt lat="45.90537" lon="4.91279">
        <ele>298.2</ele>
        <time>2023-09-02T14:31:00Z</time>
      </trkpt>
      <trkpt lat="45.90533" lon="4.91278">
        <ele>298.2</ele>
        <time>2023-09-02T14:31:01Z</time>
      </trkpt>
      <trkpt lat="45.9053" lon="4.91277">
        <ele>298.2</ele>
        <time>2023-09-02T14:31:02Z</time>
      </trkpt>
      <trkpt lat="45.90527" lon="4.91277">
        <ele>298.2</ele>
        <time>2023-09-02T14:31:03Z</time>
      </trkpt>
      <trkpt lat="45.90523" lon="4.91276">
        <ele>298.2</ele>
        <time>2023-09-02T14:31:04Z</time>
      </trkpt>
      <trkpt lat="45.9052" lon="4.91276">
        <ele>298.1</ele>
        <time>2023-09-02T14:31:05Z</time>
      </trkpt>
      <trkpt lat="45.90517" lon="4.91275">
        <ele>298.1</ele>
        <time>2023-09-02T14:31:06Z</time>
      </trkpt>
      <trkpt lat="45.90513" lon="4.91274">
        <ele>298.1</ele>
        <time>2023-09-02T14:31:07Z</time>
      </trkpt>
      <trkpt lat="45.9051" lon="4.91273">
        <ele>298.1</ele>
        <time>2023-09-02T14:31:08Z</time>
      </trkpt>
      <trkpt lat="45.90506" lon="4.91272">
        <ele>298.1</ele>
        <time>2023-09-02T14:31:09Z</time>
      </trkpt>
      <trkpt lat="45.90503" lon="4.91271">
        <ele>298.1</ele>
        <time>2023-09-02T14:31:10Z</time>
      </trkpt>
      <trkpt lat="45.905" lon="4.91271">
        <ele>298.1</ele>
        <time>2023-09-02T14:31:11Z</time>
      </trkpt>
      <trkpt lat="45.90497" lon="4.91271">
        <ele>298.1</ele>
        <time>2023-09-02T14:31:12Z</time>
      </trkpt>
      <trkpt lat="45.90493" lon="4.91271">
        <ele>298.1</ele>
        <time>2023-09-02T14:31:13Z</time>
      </trkpt>
      <trkpt lat="45.9049" lon="4.91271">
        <ele>298.1</ele>
        <time>2023-09-02T14:31:14Z</time>
      </trkpt>
      <trkpt lat="45.90487" lon="4.91272">
        <ele>298.1</ele>
        <time>2023-09-02T14:31:15Z</time>
      </trkpt>
      <trkpt lat="45.90484" lon="4.91274">
        <ele>298.1</ele>
        <time>2023-09-02T14:31:16Z</time>
      </trkpt>
      <trkpt lat="45.90481" lon="4.91275">
        <ele>298.1</ele>
        <time>2023-09-02T14:31:17Z</time>
      </trkpt>
      <trkpt lat="45.90477" lon="4.91278">
        <ele>298.2</ele>
        <time>2023-09-02T14:31:18Z</time>
      </trkpt>
      <trkpt lat="45.90475" lon="4.91281">
        <ele>298.2</ele>
        <time>2023-09-02T14:31:19Z</time>
      </trkpt>
      <trkpt lat="45.90472" lon="4.91284">
        <ele>298.2</ele>
        <time>2023-09-02T14:31:20Z</time>
      </trkpt>
      <trkpt lat="45.9047" lon="4.91287">
        <ele>298.2</ele>
        <time>2023-09-02T14:31:21Z</time>
      </trkpt>
      <trkpt lat="45.90468" lon="4.91291">
        <ele>298.2</ele>
        <time>2023-09-02T14:31:22Z</time>
      </trkpt>
      <trkpt lat="45.90465" lon="4.91294">
        <ele>298.2</ele>
        <time>2023-09-02T14:31:23Z</time>
      </trkpt>
      <trkpt lat="45.90463" lon="4.91296">
        <ele>298.2</ele>
        <time>2023-09-02T14:31:24Z</time>
      </trkpt>
      <trkpt lat="45.9046" lon="4.913">
        <ele>298.2</ele>
        <time>2023-09-02T14:31:25Z</time>
      </trkpt>
      <trkpt lat="45.90458" lon="4.91304">
        <ele>298.2</ele>
        <time>2023-09-02T14:31:26Z</time>
      </trkpt>
      <trkpt lat="45.90456" lon="4.91307">
        <ele>298.2</ele>
        <time>2023-09-02T14:31:27Z</time>
      </trkpt>
      <trkpt lat="45.90454" lon="4.9131">
        <ele>298.2</ele>
        <time>2023-09-02T14:31:28Z</time>
      </trkpt>
      <trkpt lat="45.90452" lon="4.91314">
        <ele>298.2</ele>
        <time>2023-09-02T14:31:29Z</time>
      </trkpt>
      <trkpt lat="45.90451" lon="4.91318">
        <ele>298.2</ele>
        <time>2023-09-02T14:31:30Z</time>
      </trkpt>
      <trkpt lat="45.90449" lon="4.91322">
        <ele>298.2</ele>
        <time>2023-09-02T14:31:31Z</time>
      </trkpt>
      <trkpt lat="45.90447" lon="4.91326">
        <ele>298.3</ele>
        <time>2023-09-02T14:31:32Z</time>
      </trkpt>
      <trkpt lat="45.90445" lon="4.91329">
        <ele>298.3</ele>
        <time>2023-09-02T14:31:33Z</time>
      </trkpt>
      <trkpt lat="45.90443" lon="4.91333">
        <ele>298.3</ele>
        <time>2023-09-02T14:31:34Z</time>
      </trkpt>
      <trkpt lat="45.90441" lon="4.91338">
        <ele>298.3</ele>
        <time>2023-09-02T14:31:35Z</time>
      </trkpt>
      <trkpt lat="45.9044" lon="4.91341">
        <ele>298.3</ele>
        <time>2023-09-02T14:31:36Z</time>
      </trkpt>
      <trkpt lat="45.90438" lon="4.91345">
        <ele>298.3</ele>
        <time>2023-09-02T14:31:37Z</time>
      </trkpt>
      <trkpt lat="45.90436" lon="4.9135">
        <ele>298.3</ele>
        <time>2023-09-02T14:31:38Z</time>
      </trkpt>
      <trkpt lat="45.90434" lon="4.91353">
        <ele>298.3</ele>
        <time>2023-09-02T14:31:39Z</time>
      </trkpt>
      <trkpt lat="45.90432" lon="4.91357">
        <ele>298.3</ele>
        <time>2023-09-02T14:31:40Z</time>
      </trkpt>
      <trkpt lat="45.90431" lon="4.91362">
        <ele>298.3</ele>
        <time>2023-09-02T14:31:41Z</time>
      </trkpt>
      <trkpt lat="45.90428" lon="4.91366">
        <ele>298.3</ele>
        <time>2023-09-02T14:31:42Z</time>
      </trkpt>
      <trkpt lat="45.90427" lon="4.91369">
        <ele>298.3</ele>
        <time>2023-09-02T14:31:43Z</time>
      </trkpt>
      <trkpt lat="45.90425" lon="4.91373">
        <ele>298.3</ele>
        <time>2023-09-02T14:31:44Z</time>
      </trkpt>
      <trkpt lat="45.90422" lon="4.91377">
        <ele>298.3</ele>
        <time>2023-09-02T14:31:45Z</time>
      </trkpt>
      <trkpt lat="45.90421" lon="4.91381">
        <ele>298.3</ele>
        <time>2023-09-02T14:31:46Z</time>
      </trkpt>
      <trkpt lat="45.90419" lon="4.91385">
        <ele>298.3</ele>
        <time>2023-09-02T14:31:47Z</time>
      </trkpt>
      <trkpt lat="45.90417" lon="4.91389">
        <ele>298.3</ele>
        <time>2023-09-02T14:31:48Z</time>
      </trkpt>
      <trkpt lat="45.90414" lon="4.91392">
        <ele>298.3</ele>
        <time>2023-09-02T14:31:49Z</time>
      </trkpt>
      <trkpt lat="45.90412" lon="4.91396">
        <ele>298.3</ele>
        <time>2023-09-02T14:31:50Z</time>
      </trkpt>
      <trkpt lat="45.90409" lon="4.91399">
        <ele>298.3</ele>
        <time>2023-09-02T14:31:51Z</time>
      </trkpt>
      <trkpt lat="45.90407" lon="4.91403">
        <ele>298.3</ele>
        <time>2023-09-02T14:31:52Z</time>
      </trkpt>
      <trkpt lat="45.90405" lon="4.91406">
        <ele>298.3</ele>
        <time>2023-09-02T14:31:53Z</time>
      </trkpt>
      <trkpt lat="45.90402" lon="4.9141">
        <ele>298.3</ele>
        <time>2023-09-02T14:31:54Z</time>
      </trkpt>
      <trkpt lat="45.90399" lon="4.91413">
        <ele>298.3</ele>
        <time>2023-09-02T14:31:55Z</time>
      </trkpt>
      <trkpt lat="45.90397" lon="4.91416">
        <ele>298.3</ele>
        <time>2023-09-02T14:31:56Z</time>
      </trkpt>
      <trkpt lat="45.90394" lon="4.9142">
        <ele>298.3</ele>
        <time>2023-09-02T14:31:57Z</time>
      </trkpt>
      <trkpt lat="45.90391" lon="4.91423">
        <ele>298.3</ele>
        <time>2023-09-02T14:31:58Z</time>
      </trkpt>
      <trkpt lat="45.90389" lon="4.91426">
        <ele>298.3</ele>
        <time>2023-09-02T14:31:59Z</time>
      </trkpt>
      <trkpt lat="45.90387" lon="4.91429">
        <ele>298.3</ele>
        <time>2023-09-02T14:32:00Z</time>
      </trkpt>
      <trkpt lat="45.90385" lon="4.91431">
        <ele>298.3</ele>
        <time>2023-09-02T14:32:01Z</time>
      </trkpt>
      <trkpt lat="45.90382" lon="4.91435">
        <ele>298.4</ele>
        <time>2023-09-02T14:32:02Z</time>
      </trkpt>
      <trkpt lat="45.90381" lon="4.91436">
        <ele>298.4</ele>
        <time>2023-09-02T14:32:03Z</time>
      </trkpt>
      <trkpt lat="45.90378" lon="4.91439">
        <ele>298.4</ele>
        <time>2023-09-02T14:32:04Z</time>
      </trkpt>
      <trkpt lat="45.90377" lon="4.91439">
        <ele>298.4</ele>
        <time>2023-09-02T14:32:05Z</time>
      </trkpt>
      <trkpt lat="45.90375" lon="4.91442">
        <ele>298.4</ele>
        <time>2023-09-02T14:32:06Z</time>
      </trkpt>
      <trkpt lat="45.90372" lon="4.91443">
        <ele>298.4</ele>
        <time>2023-09-02T14:32:07Z</time>
      </trkpt>
      <trkpt lat="45.9037" lon="4.91443">
        <ele>298.4</ele>
        <time>2023-09-02T14:32:08Z</time>
      </trkpt>
      <trkpt lat="45.90367" lon="4.91442">
        <ele>298.5</ele>
        <time>2023-09-02T14:32:09Z</time>
      </trkpt>
      <trkpt lat="45.90365" lon="4.9144">
        <ele>298.5</ele>
        <time>2023-09-02T14:32:10Z</time>
      </trkpt>
      <trkpt lat="45.90363" lon="4.91435">
        <ele>298.5</ele>
        <time>2023-09-02T14:32:11Z</time>
      </trkpt>
      <trkpt lat="45.90362" lon="4.91434">
        <ele>298.5</ele>
        <time>2023-09-02T14:32:12Z</time>
      </trkpt>
      <trkpt lat="45.9036" lon="4.91431">
        <ele>298.5</ele>
        <time>2023-09-02T14:32:13Z</time>
      </trkpt>
      <trkpt lat="45.90358" lon="4.91429">
        <ele>298.8</ele>
        <time>2023-09-02T14:32:14Z</time>
      </trkpt>
      <trkpt lat="45.90356" lon="4.91426">
        <ele>298.8</ele>
        <time>2023-09-02T14:32:15Z</time>
      </trkpt>
      <trkpt lat="45.90353" lon="4.91424">
        <ele>298.9</ele>
        <time>2023-09-02T14:32:16Z</time>
      </trkpt>
      <trkpt lat="45.90351" lon="4.91422">
        <ele>298.9</ele>
        <time>2023-09-02T14:32:17Z</time>
      </trkpt>
      <trkpt lat="45.90348" lon="4.91421">
        <ele>298.9</ele>
        <time>2023-09-02T14:32:18Z</time>
      </trkpt>
      <trkpt lat="45.90344" lon="4.91423">
        <ele>298.9</ele>
        <time>2023-09-02T14:32:19Z</time>
      </trkpt>
      <trkpt lat="45.90343" lon="4.91423">
        <ele>298.9</ele>
        <time>2023-09-02T14:32:20Z</time>
      </trkpt>
      <trkpt lat="45.90339" lon="4.91425">
        <ele>299</ele>
        <time>2023-09-02T14:32:21Z</time>
      </trkpt>
      <trkpt lat="45.90338" lon="4.91425">
        <ele>299</ele>
        <time>2023-09-02T14:32:22Z</time>
      </trkpt>
      <trkpt lat="45.90335" lon="4.91427">
        <ele>299</ele>
        <time>2023-09-02T14:32:23Z</time>
      </trkpt>
      <trkpt lat="45.90333" lon="4.91428">
        <ele>299</ele>
        <time>2023-09-02T14:32:24Z</time>
      </trkpt>
      <trkpt lat="45.90331" lon="4.9143">
        <ele>299</ele>
        <time>2023-09-02T14:32:25Z</time>
      </trkpt>
      <trkpt lat="45.90327" lon="4.91432">
        <ele>299</ele>
        <time>2023-09-02T14:32:26Z</time>
      </trkpt>
      <trkpt lat="45.90326" lon="4.91433">
        <ele>299</ele>
        <time>2023-09-02T14:32:27Z</time>
      </trkpt>
      <trkpt lat="45.90323" lon="4.91434">
        <ele>299.1</ele>
        <time>2023-09-02T14:32:28Z</time>
      </trkpt>
      <trkpt lat="45.90321" lon="4.91436">
        <ele>299.1</ele>
        <time>2023-09-02T14:32:29Z</time>
      </trkpt>
      <trkpt lat="45.90318" lon="4.91438">
        <ele>299.1</ele>
        <time>2023-09-02T14:32:30Z</time>
      </trkpt>
      <trkpt lat="45.90316" lon="4.9144">
        <ele>299.1</ele>
        <time>2023-09-02T14:32:31Z</time>
      </trkpt>
      <trkpt lat="45.90313" lon="4.91441">
        <ele>299.1</ele>
        <time>2023-09-02T14:32:32Z</time>
      </trkpt>
      <trkpt lat="45.9031" lon="4.91442">
        <ele>299.1</ele>
        <time>2023-09-02T14:32:33Z</time>
      </trkpt>
      <trkpt lat="45.90308" lon="4.91444">
        <ele>299.1</ele>
        <time>2023-09-02T14:32:34Z</time>
      </trkpt>
      <trkpt lat="45.90304" lon="4.91446">
        <ele>299.1</ele>
        <time>2023-09-02T14:32:35Z</time>
      </trkpt>
      <trkpt lat="45.90302" lon="4.91447">
        <ele>299.1</ele>
        <time>2023-09-02T14:32:36Z</time>
      </trkpt>
      <trkpt lat="45.903" lon="4.91449">
        <ele>299.1</ele>
        <time>2023-09-02T14:32:37Z</time>
      </trkpt>
      <trkpt lat="45.90297" lon="4.91451">
        <ele>299.1</ele>
        <time>2023-09-02T14:32:38Z</time>
      </trkpt>
      <trkpt lat="45.90294" lon="4.91453">
        <ele>299.1</ele>
        <time>2023-09-02T14:32:39Z</time>
      </trkpt>
      <trkpt lat="45.90291" lon="4.91454">
        <ele>299.1</ele>
        <time>2023-09-02T14:32:40Z</time>
      </trkpt>
      <trkpt lat="45.90289" lon="4.91457">
        <ele>299.1</ele>
        <time>2023-09-02T14:32:41Z</time>
      </trkpt>
      <trkpt lat="45.90286" lon="4.91459">
        <ele>299.1</ele>
        <time>2023-09-02T14:32:42Z</time>
      </trkpt>
      <trkpt lat="45.90283" lon="4.91461">
        <ele>299.1</ele>
        <time>2023-09-02T14:32:43Z</time>
      </trkpt>
      <trkpt lat="45.9028" lon="4.91462">
        <ele>299.1</ele>
        <time>2023-09-02T14:32:44Z</time>
      </trkpt>
      <trkpt lat="45.90278" lon="4.91465">
        <ele>299.1</ele>
        <time>2023-09-02T14:32:45Z</time>
      </trkpt>
      <trkpt lat="45.90275" lon="4.91466">
        <ele>299.1</ele>
        <time>2023-09-02T14:32:46Z</time>
      </trkpt>
      <trkpt lat="45.90272" lon="4.91468">
        <ele>299.1</ele>
        <time>2023-09-02T14:32:47Z</time>
      </trkpt>
      <trkpt lat="45.90269" lon="4.9147">
        <ele>299.1</ele>
        <time>2023-09-02T14:32:48Z</time>
      </trkpt>
      <trkpt lat="45.90267" lon="4.91472">
        <ele>299.1</ele>
        <time>2023-09-02T14:32:49Z</time>
      </trkpt>
      <trkpt lat="45.90264" lon="4.91474">
        <ele>299.1</ele>
        <time>2023-09-02T14:32:50Z</time>
      </trkpt>
      <trkpt lat="45.9026" lon="4.91477">
        <ele>299.1</ele>
        <time>2023-09-02T14:32:51Z</time>
      </trkpt>
      <trkpt lat="45.90259" lon="4.91478">
        <ele>299.1</ele>
        <time>2023-09-02T14:32:52Z</time>
      </trkpt>
      <trkpt lat="45.90256" lon="4.9148">
        <ele>299.1</ele>
        <time>2023-09-02T14:32:53Z</time>
      </trkpt>
      <trkpt lat="45.90253" lon="4.91482">
        <ele>299.1</ele>
        <time>2023-09-02T14:32:54Z</time>
      </trkpt>
      <trkpt lat="45.9025" lon="4.91483">
        <ele>299.1</ele>
        <time>2023-09-02T14:32:55Z</time>
      </trkpt>
      <trkpt lat="45.90248" lon="4.91486">
        <ele>299.1</ele>
        <time>2023-09-02T14:32:56Z</time>
      </trkpt>
      <trkpt lat="45.90245" lon="4.91488">
        <ele>299.1</ele>
        <time>2023-09-02T14:32:57Z</time>
      </trkpt>
      <trkpt lat="45.90242" lon="4.9149">
        <ele>299.1</ele>
        <time>2023-09-02T14:32:58Z</time>
      </trkpt>
      <trkpt lat="45.90239" lon="4.91491">
        <ele>299.1</ele>
        <time>2023-09-02T14:32:59Z</time>
      </trkpt>
      <trkpt lat="45.90237" lon="4.91493">
        <ele>299.1</ele>
        <time>2023-09-02T14:33:00Z</time>
      </trkpt>
      <trkpt lat="45.90234" lon="4.91495">
        <ele>299.1</ele>
        <time>2023-09-02T14:33:01Z</time>
      </trkpt>
      <trkpt lat="45.90231" lon="4.91497">
        <ele>299.1</ele>
        <time>2023-09-02T14:33:02Z</time>
      </trkpt>
      <trkpt lat="45.9023" lon="4.91498">
        <ele>299.1</ele>
        <time>2023-09-02T14:33:03Z</time>
      </trkpt>
      <trkpt lat="45.90227" lon="4.915">
        <ele>299.1</ele>
        <time>2023-09-02T14:33:04Z</time>
      </trkpt>
      <trkpt lat="45.90226" lon="4.915">
        <ele>299.1</ele>
        <time>2023-09-02T14:33:05Z</time>
      </trkpt>
      <trkpt lat="45.90224" lon="4.915">
        <ele>299.1</ele>
        <time>2023-09-02T14:33:06Z</time>
      </trkpt>
      <trkpt lat="45.90223" lon="4.91499">
        <ele>299.1</ele>
        <time>2023-09-02T14:33:07Z</time>
      </trkpt>
      <trkpt lat="45.90222" lon="4.91498">
        <ele>299.1</ele>
        <time>2023-09-02T14:33:08Z</time>
      </trkpt>
      <trkpt lat="45.90221" lon="4.91495">
        <ele>299.1</ele>
        <time>2023-09-02T14:33:09Z</time>
      </trkpt>
      <trkpt lat="45.90221" lon="4.91492">
        <ele>299.1</ele>
        <time>2023-09-02T14:33:10Z</time>
      </trkpt>
      <trkpt lat="45.90221" lon="4.91491">
        <ele>299.1</ele>
        <time>2023-09-02T14:33:11Z</time>
      </trkpt>
      <trkpt lat="45.90221" lon="4.9149">
        <ele>299.1</ele>
        <time>2023-09-02T14:33:12Z</time>
      </trkpt>
      <trkpt lat="45.90221" lon="4.91487">
        <ele>299.1</ele>
        <time>2023-09-02T14:33:13Z</time>
      </trkpt>
      <trkpt lat="45.90221" lon="4.91485">
        <ele>299.1</ele>
        <time>2023-09-02T14:33:14Z</time>
      </trkpt>
      <trkpt lat="45.90221" lon="4.91484">
        <ele>299.2</ele>
        <time>2023-09-02T14:33:15Z</time>
      </trkpt>
      <trkpt lat="45.90221" lon="4.91482">
        <ele>299.2</ele>
        <time>2023-09-02T14:33:16Z</time>
      </trkpt>
      <trkpt lat="45.90221" lon="4.9148">
        <ele>299.2</ele>
        <time>2023-09-02T14:33:17Z</time>
      </trkpt>
      <trkpt lat="45.90221" lon="4.91478">
        <ele>299.2</ele>
        <time>2023-09-02T14:33:18Z</time>
      </trkpt>
      <trkpt lat="45.90221" lon="4.91476">
        <ele>299.2</ele>
        <time>2023-09-02T14:33:19Z</time>
      </trkpt>
      <trkpt lat="45.9022" lon="4.91473">
        <ele>299.2</ele>
        <time>2023-09-02T14:33:20Z</time>
      </trkpt>
      <trkpt lat="45.9022" lon="4.91471">
        <ele>299.2</ele>
        <time>2023-09-02T14:33:21Z</time>
      </trkpt>
      <trkpt lat="45.9022" lon="4.9147">
        <ele>299.2</ele>
        <time>2023-09-02T14:33:22Z</time>
      </trkpt>
      <trkpt lat="45.9022" lon="4.91468">
        <ele>299.2</ele>
        <time>2023-09-02T14:33:23Z</time>
      </trkpt>
      <trkpt lat="45.9022" lon="4.91466">
        <ele>299.2</ele>
        <time>2023-09-02T14:33:24Z</time>
      </trkpt>
      <trkpt lat="45.9022" lon="4.91464">
        <ele>299.3</ele>
        <time>2023-09-02T14:33:25Z</time>
      </trkpt>
      <trkpt lat="45.9022" lon="4.91461">
        <ele>299.3</ele>
        <time>2023-09-02T14:33:26Z</time>
      </trkpt>
      <trkpt lat="45.9022" lon="4.9146">
        <ele>299.3</ele>
        <time>2023-09-02T14:33:27Z</time>
      </trkpt>
      <trkpt lat="45.9022" lon="4.91458">
        <ele>299.3</ele>
        <time>2023-09-02T14:33:28Z</time>
      </trkpt>
      <trkpt lat="45.9022" lon="4.91456">
        <ele>299.3</ele>
        <time>2023-09-02T14:33:29Z</time>
      </trkpt>
      <trkpt lat="45.9022" lon="4.91454">
        <ele>299.3</ele>
        <time>2023-09-02T14:33:30Z</time>
      </trkpt>
      <trkpt lat="45.9022" lon="4.91453">
        <ele>299.3</ele>
        <time>2023-09-02T14:33:31Z</time>
      </trkpt>
      <trkpt lat="45.9022" lon="4.91451">
        <ele>299.4</ele>
        <time>2023-09-02T14:33:32Z</time>
      </trkpt>
      <trkpt lat="45.9022" lon="4.9145">
        <ele>299.4</ele>
        <time>2023-09-02T14:33:33Z</time>
      </trkpt>
      <trkpt lat="45.9022" lon="4.91449">
        <ele>299.4</ele>
        <time>2023-09-02T14:33:34Z</time>
      </trkpt>
      <trkpt lat="45.9022" lon="4.91448">
        <ele>299.4</ele>
        <time>2023-09-02T14:33:35Z</time>
      </trkpt>
      <trkpt lat="45.9022" lon="4.91447">
        <ele>299.4</ele>
        <time>2023-09-02T14:33:36Z</time>
      </trkpt>
      <trkpt lat="45.9022" lon="4.91446">
        <ele>299.4</ele>
        <time>2023-09-02T14:33:37Z</time>
      </trkpt>
      <trkpt lat="45.9022" lon="4.91444">
        <ele>299.4</ele>
        <time>2023-09-02T14:33:38Z</time>
      </trkpt>
      <trkpt lat="45.9022" lon="4.91443">
        <ele>299.4</ele>
        <time>2023-09-02T14:33:39Z</time>
      </trkpt>
      <trkpt lat="45.9022" lon="4.91442">
        <ele>299.5</ele>
        <time>2023-09-02T14:34:32Z</time>
      </trkpt>
      <trkpt lat="45.9022" lon="4.91441">
        <ele>299.5</ele>
        <time>2023-09-02T14:34:33Z</time>
      </trkpt>
      <trkpt lat="45.9022" lon="4.9144">
        <ele>299.5</ele>
        <time>2023-09-02T14:34:34Z</time>
      </trkpt>
      <trkpt lat="45.90221" lon="4.91435">
        <ele>299.5</ele>
        <time>2023-09-02T14:34:35Z</time>
      </trkpt>
      <trkpt lat="45.90221" lon="4.91433">
        <ele>299.6</ele>
        <time>2023-09-02T14:34:36Z</time>
      </trkpt>
      <trkpt lat="45.90221" lon="4.91428">
        <ele>299.6</ele>
        <time>2023-09-02T14:34:37Z</time>
      </trkpt>
      <trkpt lat="45.90221" lon="4.91426">
        <ele>299.6</ele>
        <time>2023-09-02T14:34:38Z</time>
      </trkpt>
      <trkpt lat="45.90222" lon="4.91421">
        <ele>299.7</ele>
        <time>2023-09-02T14:34:39Z</time>
      </trkpt>
      <trkpt lat="45.90222" lon="4.91419">
        <ele>299.7</ele>
        <time>2023-09-02T14:34:40Z</time>
      </trkpt>
      <trkpt lat="45.90223" lon="4.91414">
        <ele>299.8</ele>
        <time>2023-09-02T14:34:41Z</time>
      </trkpt>
      <trkpt lat="45.90223" lon="4.91412">
        <ele>299.8</ele>
        <time>2023-09-02T14:34:42Z</time>
      </trkpt>
      <trkpt lat="45.90223" lon="4.91406">
        <ele>299.8</ele>
        <time>2023-09-02T14:34:43Z</time>
      </trkpt>
      <trkpt lat="45.90223" lon="4.91405">
        <ele>299.9</ele>
        <time>2023-09-02T14:34:44Z</time>
      </trkpt>
      <trkpt lat="45.90223" lon="4.91399">
        <ele>299.9</ele>
        <time>2023-09-02T14:34:45Z</time>
      </trkpt>
      <trkpt lat="45.90223" lon="4.91398">
        <ele>299.9</ele>
        <time>2023-09-02T14:34:46Z</time>
      </trkpt>
      <trkpt lat="45.90223" lon="4.91394">
        <ele>300</ele>
        <time>2023-09-02T14:34:47Z</time>
      </trkpt>
      <trkpt lat="45.90223" lon="4.91388">
        <ele>300</ele>
        <time>2023-09-02T14:34:48Z</time>
      </trkpt>
      <trkpt lat="45.90223" lon="4.91386">
        <ele>300.1</ele>
        <time>2023-09-02T14:34:49Z</time>
      </trkpt>
      <trkpt lat="45.90223" lon="4.91382">
        <ele>300.1</ele>
        <time>2023-09-02T14:34:50Z</time>
      </trkpt>
      <trkpt lat="45.90223" lon="4.91377">
        <ele>300.2</ele>
        <time>2023-09-02T14:34:51Z</time>
      </trkpt>
      <trkpt lat="45.90223" lon="4.91375">
        <ele>300.2</ele>
        <time>2023-09-02T14:34:52Z</time>
      </trkpt>
      <trkpt lat="45.90223" lon="4.91372">
        <ele>300.3</ele>
        <time>2023-09-02T14:34:53Z</time>
      </trkpt>
      <trkpt lat="45.90224" lon="4.91366">
        <ele>300.3</ele>
        <time>2023-09-02T14:34:54Z</time>
      </trkpt>
      <trkpt lat="45.90224" lon="4.91364">
        <ele>300.4</ele>
        <time>2023-09-02T14:34:55Z</time>
      </trkpt>
      <trkpt lat="45.90224" lon="4.91359">
        <ele>300.4</ele>
        <time>2023-09-02T14:34:56Z</time>
      </trkpt>
      <trkpt lat="45.90224" lon="4.91357">
        <ele>300.5</ele>
        <time>2023-09-02T14:34:57Z</time>
      </trkpt>
      <trkpt lat="45.90225" lon="4.91352">
        <ele>300.5</ele>
        <time>2023-09-02T14:34:58Z</time>
      </trkpt>
      <trkpt lat="45.90226" lon="4.9135">
        <ele>300.6</ele>
        <time>2023-09-02T14:34:59Z</time>
      </trkpt>
      <trkpt lat="45.90227" lon="4.91345">
        <ele>300.7</ele>
        <time>2023-09-02T14:35:00Z</time>
      </trkpt>
      <trkpt lat="45.90228" lon="4.91343">
        <ele>300.7</ele>
        <time>2023-09-02T14:35:01Z</time>
      </trkpt>
      <trkpt lat="45.9023" lon="4.91339">
        <ele>300.8</ele>
        <time>2023-09-02T14:35:02Z</time>
      </trkpt>
      <trkpt lat="45.90231" lon="4.91339">
        <ele>300.8</ele>
        <time>2023-09-02T14:35:03Z</time>
      </trkpt>
      <trkpt lat="45.90234" lon="4.91335">
        <ele>300.9</ele>
        <time>2023-09-02T14:35:04Z</time>
      </trkpt>
      <trkpt lat="45.90235" lon="4.91333">
        <ele>300.9</ele>
        <time>2023-09-02T14:35:05Z</time>
      </trkpt>
      <trkpt lat="45.90237" lon="4.9133">
        <ele>301</ele>
        <time>2023-09-02T14:35:06Z</time>
      </trkpt>
      <trkpt lat="45.90239" lon="4.91325">
        <ele>301.1</ele>
        <time>2023-09-02T14:35:07Z</time>
      </trkpt>
      <trkpt lat="45.9024" lon="4.91324">
        <ele>301.1</ele>
        <time>2023-09-02T14:35:08Z</time>
      </trkpt>
      <trkpt lat="45.90241" lon="4.9132">
        <ele>301.2</ele>
        <time>2023-09-02T14:35:09Z</time>
      </trkpt>
      <trkpt lat="45.90242" lon="4.91315">
        <ele>301.3</ele>
        <time>2023-09-02T14:35:10Z</time>
      </trkpt>
      <trkpt lat="45.90243" lon="4.91313">
        <ele>301.3</ele>
        <time>2023-09-02T14:35:11Z</time>
      </trkpt>
      <trkpt lat="45.90243" lon="4.91309">
        <ele>301.4</ele>
        <time>2023-09-02T14:35:12Z</time>
      </trkpt>
      <trkpt lat="45.90244" lon="4.91303">
        <ele>301.4</ele>
        <time>2023-09-02T14:35:13Z</time>
      </trkpt>
      <trkpt lat="45.90244" lon="4.91301">
        <ele>301.4</ele>
        <time>2023-09-02T14:35:14Z</time>
      </trkpt>
      <trkpt lat="45.90245" lon="4.91295">
        <ele>301.5</ele>
        <time>2023-09-02T14:35:15Z</time>
      </trkpt>
      <trkpt lat="45.90245" lon="4.91293">
        <ele>301.5</ele>
        <time>2023-09-02T14:35:16Z</time>
      </trkpt>
      <trkpt lat="45.90245" lon="4.91287">
        <ele>301.6</ele>
        <time>2023-09-02T14:35:17Z</time>
      </trkpt>
      <trkpt lat="45.90245" lon="4.91285">
        <ele>301.6</ele>
        <time>2023-09-02T14:35:18Z</time>
      </trkpt>
      <trkpt lat="45.90245" lon="4.91279">
        <ele>301.7</ele>
        <time>2023-09-02T14:35:19Z</time>
      </trkpt>
      <trkpt lat="45.90246" lon="4.91277">
        <ele>301.7</ele>
        <time>2023-09-02T14:35:20Z</time>
      </trkpt>
      <trkpt lat="45.90246" lon="4.91273">
        <ele>301.7</ele>
        <time>2023-09-02T14:35:21Z</time>
      </trkpt>
      <trkpt lat="45.90246" lon="4.91267">
        <ele>301.8</ele>
        <time>2023-09-02T14:35:22Z</time>
      </trkpt>
      <trkpt lat="45.90246" lon="4.91265">
        <ele>301.8</ele>
        <time>2023-09-02T14:35:23Z</time>
      </trkpt>
      <trkpt lat="45.90246" lon="4.91261">
        <ele>301.8</ele>
        <time>2023-09-02T14:35:24Z</time>
      </trkpt>
      <trkpt lat="45.90246" lon="4.91257">
        <ele>301.9</ele>
        <time>2023-09-02T14:35:25Z</time>
      </trkpt>
      <trkpt lat="45.90246" lon="4.91253">
        <ele>301.9</ele>
        <time>2023-09-02T14:35:26Z</time>
      </trkpt>
      <trkpt lat="45.90246" lon="4.91247">
        <ele>302</ele>
        <time>2023-09-02T14:35:27Z</time>
      </trkpt>
      <trkpt lat="45.90246" lon="4.91245">
        <ele>302</ele>
        <time>2023-09-02T14:35:28Z</time>
      </trkpt>
      <trkpt lat="45.90246" lon="4.9124">
        <ele>302.1</ele>
        <time>2023-09-02T14:35:29Z</time>
      </trkpt>
      <trkpt lat="45.90246" lon="4.91235">
        <ele>302.1</ele>
        <time>2023-09-02T14:35:30Z</time>
      </trkpt>
      <trkpt lat="45.90246" lon="4.91233">
        <ele>302.1</ele>
        <time>2023-09-02T14:35:31Z</time>
      </trkpt>
      <trkpt lat="45.90246" lon="4.91226">
        <ele>302.2</ele>
        <time>2023-09-02T14:35:32Z</time>
      </trkpt>
      <trkpt lat="45.90246" lon="4.91224">
        <ele>302.2</ele>
        <time>2023-09-02T14:35:33Z</time>
      </trkpt>
      <trkpt lat="45.90246" lon="4.9122">
        <ele>302.2</ele>
        <time>2023-09-02T14:35:34Z</time>
      </trkpt>
      <trkpt lat="45.90246" lon="4.91215">
        <ele>302.2</ele>
        <time>2023-09-02T14:35:35Z</time>
      </trkpt>
      <trkpt lat="45.90247" lon="4.91211">
        <ele>302.2</ele>
        <time>2023-09-02T14:35:36Z</time>
      </trkpt>
      <trkpt lat="45.90247" lon="4.91207">
        <ele>302.2</ele>
        <time>2023-09-02T14:35:37Z</time>
      </trkpt>
      <trkpt lat="45.90247" lon="4.91203">
        <ele>302.2</ele>
        <time>2023-09-02T14:35:38Z</time>
      </trkpt>
      <trkpt lat="45.90248" lon="4.91198">
        <ele>302.2</ele>
        <time>2023-09-02T14:35:39Z</time>
      </trkpt>
      <trkpt lat="45.90248" lon="4.91194">
        <ele>302.2</ele>
        <time>2023-09-02T14:35:40Z</time>
      </trkpt>
      <trkpt lat="45.90248" lon="4.91189">
        <ele>302.2</ele>
        <time>2023-09-02T14:35:41Z</time>
      </trkpt>
      <trkpt lat="45.90248" lon="4.91185">
        <ele>302.2</ele>
        <time>2023-09-02T14:35:42Z</time>
      </trkpt>
      <trkpt lat="45.90247" lon="4.9118">
        <ele>302.2</ele>
        <time>2023-09-02T14:35:43Z</time>
      </trkpt>
      <trkpt lat="45.90249" lon="4.91175">
        <ele>302.2</ele>
        <time>2023-09-02T14:35:44Z</time>
      </trkpt>
      <trkpt lat="45.90247" lon="4.9117">
        <ele>302.2</ele>
        <time>2023-09-02T14:35:45Z</time>
      </trkpt>
      <trkpt lat="45.90246" lon="4.91165">
        <ele>302.2</ele>
        <time>2023-09-02T14:35:46Z</time>
      </trkpt>
      <trkpt lat="45.90246" lon="4.91161">
        <ele>302.2</ele>
        <time>2023-09-02T14:35:47Z</time>
      </trkpt>
      <trkpt lat="45.90246" lon="4.91156">
        <ele>302.2</ele>
        <time>2023-09-02T14:35:48Z</time>
      </trkpt>
      <trkpt lat="45.90245" lon="4.91152">
        <ele>302.2</ele>
        <time>2023-09-02T14:35:49Z</time>
      </trkpt>
      <trkpt lat="45.90244" lon="4.91147">
        <ele>302.2</ele>
        <time>2023-09-02T14:35:50Z</time>
      </trkpt>
      <trkpt lat="45.90243" lon="4.91141">
        <ele>302.2</ele>
        <time>2023-09-02T14:35:51Z</time>
      </trkpt>
      <trkpt lat="45.90243" lon="4.91137">
        <ele>302.2</ele>
        <time>2023-09-02T14:35:52Z</time>
      </trkpt>
      <trkpt lat="45.90243" lon="4.91133">
        <ele>302.2</ele>
        <time>2023-09-02T14:35:53Z</time>
      </trkpt>
      <trkpt lat="45.90241" lon="4.91128">
        <ele>302.1</ele>
        <time>2023-09-02T14:35:54Z</time>
      </trkpt>
      <trkpt lat="45.9024" lon="4.91123">
        <ele>302.1</ele>
        <time>2023-09-02T14:35:55Z</time>
      </trkpt>
      <trkpt lat="45.90239" lon="4.9112">
        <ele>302.1</ele>
        <time>2023-09-02T14:35:56Z</time>
      </trkpt>
      <trkpt lat="45.90239" lon="4.91116">
        <ele>302.1</ele>
        <time>2023-09-02T14:35:57Z</time>
      </trkpt>
      <trkpt lat="45.90238" lon="4.91111">
        <ele>302.1</ele>
        <time>2023-09-02T14:35:58Z</time>
      </trkpt>
      <trkpt lat="45.90237" lon="4.91107">
        <ele>302.1</ele>
        <time>2023-09-02T14:35:59Z</time>
      </trkpt>
      <trkpt lat="45.90235" lon="4.91102">
        <ele>302</ele>
        <time>2023-09-02T14:36:00Z</time>
      </trkpt>
      <trkpt lat="45.90233" lon="4.911">
        <ele>302</ele>
        <time>2023-09-02T14:36:01Z</time>
      </trkpt>
      <trkpt lat="45.90231" lon="4.91095">
        <ele>302</ele>
        <time>2023-09-02T14:36:02Z</time>
      </trkpt>
      <trkpt lat="45.9023" lon="4.91093">
        <ele>302</ele>
        <time>2023-09-02T14:36:03Z</time>
      </trkpt>
      <trkpt lat="45.90228" lon="4.9109">
        <ele>302</ele>
        <time>2023-09-02T14:36:04Z</time>
      </trkpt>
      <trkpt lat="45.90225" lon="4.91086">
        <ele>302</ele>
        <time>2023-09-02T14:36:05Z</time>
      </trkpt>
      <trkpt lat="45.90222" lon="4.91082">
        <ele>302</ele>
        <time>2023-09-02T14:36:06Z</time>
      </trkpt>
      <trkpt lat="45.90218" lon="4.91079">
        <ele>302</ele>
        <time>2023-09-02T14:36:07Z</time>
      </trkpt>
      <trkpt lat="45.90217" lon="4.91078">
        <ele>302</ele>
        <time>2023-09-02T14:36:08Z</time>
      </trkpt>
      <trkpt lat="45.90214" lon="4.91075">
        <ele>302</ele>
        <time>2023-09-02T14:36:09Z</time>
      </trkpt>
      <trkpt lat="45.9021" lon="4.9107">
        <ele>302</ele>
        <time>2023-09-02T14:36:10Z</time>
      </trkpt>
      <trkpt lat="45.90208" lon="4.91067">
        <ele>302</ele>
        <time>2023-09-02T14:36:11Z</time>
      </trkpt>
      <trkpt lat="45.90206" lon="4.91064">
        <ele>302</ele>
        <time>2023-09-02T14:36:12Z</time>
      </trkpt>
      <trkpt lat="45.90203" lon="4.91061">
        <ele>302</ele>
        <time>2023-09-02T14:36:13Z</time>
      </trkpt>
      <trkpt lat="45.902" lon="4.91058">
        <ele>302.1</ele>
        <time>2023-09-02T14:36:14Z</time>
      </trkpt>
      <trkpt lat="45.90197" lon="4.91054">
        <ele>302.1</ele>
        <time>2023-09-02T14:36:15Z</time>
      </trkpt>
      <trkpt lat="45.90194" lon="4.91051">
        <ele>302.1</ele>
        <time>2023-09-02T14:36:16Z</time>
      </trkpt>
      <trkpt lat="45.90191" lon="4.91048">
        <ele>302.1</ele>
        <time>2023-09-02T14:36:17Z</time>
      </trkpt>
      <trkpt lat="45.90188" lon="4.91045">
        <ele>302.1</ele>
        <time>2023-09-02T14:36:18Z</time>
      </trkpt>
      <trkpt lat="45.90185" lon="4.91042">
        <ele>302.1</ele>
        <time>2023-09-02T14:36:19Z</time>
      </trkpt>
      <trkpt lat="45.90182" lon="4.9104">
        <ele>302.1</ele>
        <time>2023-09-02T14:36:20Z</time>
      </trkpt>
      <trkpt lat="45.90179" lon="4.91037">
        <ele>302.1</ele>
        <time>2023-09-02T14:36:21Z</time>
      </trkpt>
      <trkpt lat="45.90176" lon="4.91035">
        <ele>302.1</ele>
        <time>2023-09-02T14:36:22Z</time>
      </trkpt>
      <trkpt lat="45.90173" lon="4.91033">
        <ele>302</ele>
        <time>2023-09-02T14:36:23Z</time>
      </trkpt>
      <trkpt lat="45.9017" lon="4.91031">
        <ele>302</ele>
        <time>2023-09-02T14:36:24Z</time>
      </trkpt>
      <trkpt lat="45.90167" lon="4.9103">
        <ele>302.1</ele>
        <time>2023-09-02T14:36:25Z</time>
      </trkpt>
      <trkpt lat="45.90163" lon="4.9103">
        <ele>302.1</ele>
        <time>2023-09-02T14:36:26Z</time>
      </trkpt>
      <trkpt lat="45.9016" lon="4.91028">
        <ele>302.1</ele>
        <time>2023-09-02T14:36:27Z</time>
      </trkpt>
      <trkpt lat="45.90157" lon="4.91026">
        <ele>302.1</ele>
        <time>2023-09-02T14:36:28Z</time>
      </trkpt>
      <trkpt lat="45.90154" lon="4.91027">
        <ele>302.1</ele>
        <time>2023-09-02T14:36:29Z</time>
      </trkpt>
      <trkpt lat="45.90151" lon="4.91024">
        <ele>302.1</ele>
        <time>2023-09-02T14:36:30Z</time>
      </trkpt>
      <trkpt lat="45.90149" lon="4.91021">
        <ele>302.1</ele>
        <time>2023-09-02T14:36:31Z</time>
      </trkpt>
      <trkpt lat="45.90148" lon="4.91016">
        <ele>302.1</ele>
        <time>2023-09-02T14:36:32Z</time>
      </trkpt>
      <trkpt lat="45.90147" lon="4.91014">
        <ele>302.1</ele>
        <time>2023-09-02T14:36:33Z</time>
      </trkpt>
      <trkpt lat="45.90147" lon="4.9101">
        <ele>302.1</ele>
        <time>2023-09-02T14:36:34Z</time>
      </trkpt>
      <trkpt lat="45.90147" lon="4.91005">
        <ele>302.1</ele>
        <time>2023-09-02T14:36:35Z</time>
      </trkpt>
      <trkpt lat="45.90146" lon="4.91003">
        <ele>302</ele>
        <time>2023-09-02T14:36:36Z</time>
      </trkpt>
      <trkpt lat="45.90144" lon="4.90999">
        <ele>302</ele>
        <time>2023-09-02T14:36:37Z</time>
      </trkpt>
      <trkpt lat="45.90142" lon="4.90994">
        <ele>302</ele>
        <time>2023-09-02T14:36:38Z</time>
      </trkpt>
      <trkpt lat="45.90141" lon="4.9099">
        <ele>302</ele>
        <time>2023-09-02T14:36:39Z</time>
      </trkpt>
      <trkpt lat="45.90139" lon="4.90986">
        <ele>302</ele>
        <time>2023-09-02T14:36:40Z</time>
      </trkpt>
      <trkpt lat="45.90136" lon="4.90982">
        <ele>302</ele>
        <time>2023-09-02T14:36:41Z</time>
      </trkpt>
      <trkpt lat="45.90135" lon="4.9098">
        <ele>302</ele>
        <time>2023-09-02T14:36:42Z</time>
      </trkpt>
      <trkpt lat="45.90133" lon="4.90977">
        <ele>302</ele>
        <time>2023-09-02T14:36:43Z</time>
      </trkpt>
      <trkpt lat="45.90131" lon="4.90973">
        <ele>302</ele>
        <time>2023-09-02T14:36:44Z</time>
      </trkpt>
      <trkpt lat="45.9013" lon="4.90971">
        <ele>302</ele>
        <time>2023-09-02T14:36:45Z</time>
      </trkpt>
      <trkpt lat="45.90127" lon="4.90966">
        <ele>302</ele>
        <time>2023-09-02T14:36:46Z</time>
      </trkpt>
      <trkpt lat="45.90127" lon="4.90964">
        <ele>302</ele>
        <time>2023-09-02T14:36:47Z</time>
      </trkpt>
      <trkpt lat="45.90125" lon="4.90961">
        <ele>302</ele>
        <time>2023-09-02T14:36:48Z</time>
      </trkpt>
      <trkpt lat="45.90123" lon="4.90958">
        <ele>302</ele>
        <time>2023-09-02T14:36:49Z</time>
      </trkpt>
      <trkpt lat="45.90122" lon="4.90956">
        <ele>302</ele>
        <time>2023-09-02T14:36:50Z</time>
      </trkpt>
      <trkpt lat="45.9012" lon="4.90951">
        <ele>302</ele>
        <time>2023-09-02T14:36:51Z</time>
      </trkpt>
      <trkpt lat="45.90118" lon="4.90949">
        <ele>302</ele>
        <time>2023-09-02T14:36:52Z</time>
      </trkpt>
      <trkpt lat="45.90116" lon="4.90944">
        <ele>302</ele>
        <time>2023-09-02T14:36:53Z</time>
      </trkpt>
      <trkpt lat="45.90115" lon="4.90943">
        <ele>302</ele>
        <time>2023-09-02T14:36:54Z</time>
      </trkpt>
      <trkpt lat="45.90113" lon="4.90939">
        <ele>302</ele>
        <time>2023-09-02T14:36:55Z</time>
      </trkpt>
      <trkpt lat="45.90112" lon="4.90934">
        <ele>302</ele>
        <time>2023-09-02T14:36:56Z</time>
      </trkpt>
      <trkpt lat="45.90112" lon="4.90932">
        <ele>302</ele>
        <time>2023-09-02T14:36:57Z</time>
      </trkpt>
      <trkpt lat="45.90111" lon="4.90926">
        <ele>302</ele>
        <time>2023-09-02T14:36:58Z</time>
      </trkpt>
      <trkpt lat="45.90111" lon="4.90925">
        <ele>302</ele>
        <time>2023-09-02T14:36:59Z</time>
      </trkpt>
      <trkpt lat="45.90111" lon="4.90919">
        <ele>302</ele>
        <time>2023-09-02T14:37:00Z</time>
      </trkpt>
      <trkpt lat="45.90112" lon="4.90915">
        <ele>302</ele>
        <time>2023-09-02T14:37:01Z</time>
      </trkpt>
      <trkpt lat="45.90113" lon="4.90914">
        <ele>302</ele>
        <time>2023-09-02T14:37:02Z</time>
      </trkpt>
      <trkpt lat="45.90115" lon="4.9091">
        <ele>302</ele>
        <time>2023-09-02T14:37:03Z</time>
      </trkpt>
      <trkpt lat="45.90117" lon="4.90906">
        <ele>302.1</ele>
        <time>2023-09-02T14:37:04Z</time>
      </trkpt>
      <trkpt lat="45.90117" lon="4.90904">
        <ele>302.1</ele>
        <time>2023-09-02T14:37:05Z</time>
      </trkpt>
      <trkpt lat="45.90119" lon="4.90896">
        <ele>302.1</ele>
        <time>2023-09-02T14:37:06Z</time>
      </trkpt>
      <trkpt lat="45.9012" lon="4.90891">
        <ele>302.1</ele>
        <time>2023-09-02T14:37:07Z</time>
      </trkpt>
      <trkpt lat="45.90121" lon="4.90887">
        <ele>302.1</ele>
        <time>2023-09-02T14:37:08Z</time>
      </trkpt>
      <trkpt lat="45.90122" lon="4.90883">
        <ele>302.1</ele>
        <time>2023-09-02T14:37:09Z</time>
      </trkpt>
      <trkpt lat="45.90122" lon="4.90879">
        <ele>302.1</ele>
        <time>2023-09-02T14:37:10Z</time>
      </trkpt>
      <trkpt lat="45.90123" lon="4.90875">
        <ele>302.1</ele>
        <time>2023-09-02T14:37:11Z</time>
      </trkpt>
      <trkpt lat="45.90123" lon="4.90874">
        <ele>302.1</ele>
        <time>2023-09-02T14:37:12Z</time>
      </trkpt>
      <trkpt lat="45.90123" lon="4.90869">
        <ele>302.1</ele>
        <time>2023-09-02T14:37:13Z</time>
      </trkpt>
      <trkpt lat="45.90123" lon="4.90864">
        <ele>302.1</ele>
        <time>2023-09-02T14:37:14Z</time>
      </trkpt>
      <trkpt lat="45.90122" lon="4.90861">
        <ele>302.1</ele>
        <time>2023-09-02T14:37:15Z</time>
      </trkpt>
      <trkpt lat="45.90121" lon="4.90855">
        <ele>302.1</ele>
        <time>2023-09-02T14:37:16Z</time>
      </trkpt>
      <trkpt lat="45.9012" lon="4.90851">
        <ele>302.1</ele>
        <time>2023-09-02T14:37:17Z</time>
      </trkpt>
      <trkpt lat="45.9012" lon="4.90849">
        <ele>302.1</ele>
        <time>2023-09-02T14:37:18Z</time>
      </trkpt>
      <trkpt lat="45.9012" lon="4.90847">
        <ele>302.1</ele>
        <time>2023-09-02T14:37:19Z</time>
      </trkpt>
      <trkpt lat="45.9012" lon="4.90841">
        <ele>302.1</ele>
        <time>2023-09-02T14:37:20Z</time>
      </trkpt>
      <trkpt lat="45.90119" lon="4.90837">
        <ele>302.2</ele>
        <time>2023-09-02T14:37:21Z</time>
      </trkpt>
      <trkpt lat="45.90118" lon="4.90832">
        <ele>302.2</ele>
        <time>2023-09-02T14:37:22Z</time>
      </trkpt>
      <trkpt lat="45.90118" lon="4.90828">
        <ele>302.2</ele>
        <time>2023-09-02T14:37:23Z</time>
      </trkpt>
      <trkpt lat="45.90118" lon="4.90822">
        <ele>302.2</ele>
        <time>2023-09-02T14:37:24Z</time>
      </trkpt>
      <trkpt lat="45.90118" lon="4.9082">
        <ele>302.2</ele>
        <time>2023-09-02T14:37:25Z</time>
      </trkpt>
      <trkpt lat="45.90119" lon="4.90816">
        <ele>302.2</ele>
        <time>2023-09-02T14:37:26Z</time>
      </trkpt>
      <trkpt lat="45.90119" lon="4.90815">
        <ele>302.2</ele>
        <time>2023-09-02T14:37:27Z</time>
      </trkpt>
      <trkpt lat="45.90118" lon="4.9081">
        <ele>302.2</ele>
        <time>2023-09-02T14:37:28Z</time>
      </trkpt>
      <trkpt lat="45.90118" lon="4.90807">
        <ele>302.2</ele>
        <time>2023-09-02T14:37:29Z</time>
      </trkpt>
      <trkpt lat="45.90118" lon="4.90803">
        <ele>302.2</ele>
        <time>2023-09-02T14:37:30Z</time>
      </trkpt>
      <trkpt lat="45.90119" lon="4.90799">
        <ele>302.2</ele>
        <time>2023-09-02T14:37:31Z</time>
      </trkpt>
      <trkpt lat="45.90118" lon="4.90795">
        <ele>302.2</ele>
        <time>2023-09-02T14:37:32Z</time>
      </trkpt>
      <trkpt lat="45.90118" lon="4.90792">
        <ele>302.2</ele>
        <time>2023-09-02T14:37:33Z</time>
      </trkpt>
      <trkpt lat="45.90119" lon="4.90788">
        <ele>302.2</ele>
        <time>2023-09-02T14:37:34Z</time>
      </trkpt>
      <trkpt lat="45.90119" lon="4.90784">
        <ele>302.2</ele>
        <time>2023-09-02T14:37:35Z</time>
      </trkpt>
      <trkpt lat="45.90119" lon="4.9078">
        <ele>302.2</ele>
        <time>2023-09-02T14:37:36Z</time>
      </trkpt>
      <trkpt lat="45.90119" lon="4.90774">
        <ele>302.2</ele>
        <time>2023-09-02T14:37:37Z</time>
      </trkpt>
      <trkpt lat="45.90119" lon="4.9077">
        <ele>302.2</ele>
        <time>2023-09-02T14:37:38Z</time>
      </trkpt>
      <trkpt lat="45.90118" lon="4.90766">
        <ele>302.2</ele>
        <time>2023-09-02T14:37:39Z</time>
      </trkpt>
      <trkpt lat="45.90118" lon="4.90761">
        <ele>302.2</ele>
        <time>2023-09-02T14:37:40Z</time>
      </trkpt>
      <trkpt lat="45.90118" lon="4.90758">
        <ele>302.2</ele>
        <time>2023-09-02T14:37:41Z</time>
      </trkpt>
      <trkpt lat="45.90117" lon="4.90753">
        <ele>302.2</ele>
        <time>2023-09-02T14:37:42Z</time>
      </trkpt>
      <trkpt lat="45.90117" lon="4.90749">
        <ele>302.2</ele>
        <time>2023-09-02T14:37:43Z</time>
      </trkpt>
      <trkpt lat="45.90117" lon="4.90743">
        <ele>302.2</ele>
        <time>2023-09-02T14:37:44Z</time>
      </trkpt>
      <trkpt lat="45.90116" lon="4.90739">
        <ele>302.2</ele>
        <time>2023-09-02T14:37:45Z</time>
      </trkpt>
      <trkpt lat="45.90116" lon="4.90735">
        <ele>302.2</ele>
        <time>2023-09-02T14:37:46Z</time>
      </trkpt>
      <trkpt lat="45.90116" lon="4.90728">
        <ele>302.1</ele>
        <time>2023-09-02T14:37:48Z</time>
      </trkpt>
      <trkpt lat="45.90116" lon="4.90725">
        <ele>302.1</ele>
        <time>2023-09-02T14:37:49Z</time>
      </trkpt>
      <trkpt lat="45.90115" lon="4.90723">
        <ele>302.1</ele>
        <time>2023-09-02T14:37:50Z</time>
      </trkpt>
      <trkpt lat="45.90115" lon="4.90718">
        <ele>302.1</ele>
        <time>2023-09-02T14:37:51Z</time>
      </trkpt>
      <trkpt lat="45.90114" lon="4.90713">
        <ele>302.1</ele>
        <time>2023-09-02T14:37:52Z</time>
      </trkpt>
      <trkpt lat="45.90114" lon="4.90708">
        <ele>302.1</ele>
        <time>2023-09-02T14:37:53Z</time>
      </trkpt>
      <trkpt lat="45.90115" lon="4.90704">
        <ele>302.1</ele>
        <time>2023-09-02T14:37:54Z</time>
      </trkpt>
      <trkpt lat="45.90115" lon="4.90701">
        <ele>302.1</ele>
        <time>2023-09-02T14:37:55Z</time>
      </trkpt>
      <trkpt lat="45.90115" lon="4.907">
        <ele>302.1</ele>
        <time>2023-09-02T14:37:56Z</time>
      </trkpt>
      <trkpt lat="45.90116" lon="4.90695">
        <ele>302</ele>
        <time>2023-09-02T14:37:57Z</time>
      </trkpt>
      <trkpt lat="45.90118" lon="4.9069">
        <ele>302</ele>
        <time>2023-09-02T14:37:58Z</time>
      </trkpt>
      <trkpt lat="45.90119" lon="4.90689">
        <ele>302</ele>
        <time>2023-09-02T14:37:59Z</time>
      </trkpt>
      <trkpt lat="45.90122" lon="4.90686">
        <ele>302</ele>
        <time>2023-09-02T14:38:00Z</time>
      </trkpt>
      <trkpt lat="45.90125" lon="4.90684">
        <ele>302</ele>
        <time>2023-09-02T14:38:01Z</time>
      </trkpt>
      <trkpt lat="45.90124" lon="4.9068">
        <ele>301.9</ele>
        <time>2023-09-02T14:38:02Z</time>
      </trkpt>
      <trkpt lat="45.90124" lon="4.90675">
        <ele>301.9</ele>
        <time>2023-09-02T14:38:03Z</time>
      </trkpt>
      <trkpt lat="45.90124" lon="4.90671">
        <ele>301.9</ele>
        <time>2023-09-02T14:38:04Z</time>
      </trkpt>
      <trkpt lat="45.90124" lon="4.90666">
        <ele>301.9</ele>
        <time>2023-09-02T14:38:05Z</time>
      </trkpt>
      <trkpt lat="45.90125" lon="4.90663">
        <ele>301.9</ele>
        <time>2023-09-02T14:38:06Z</time>
      </trkpt>
      <trkpt lat="45.90126" lon="4.90658">
        <ele>301.9</ele>
        <time>2023-09-02T14:38:07Z</time>
      </trkpt>
      <trkpt lat="45.90125" lon="4.90655">
        <ele>301.9</ele>
        <time>2023-09-02T14:38:08Z</time>
      </trkpt>
      <trkpt lat="45.90125" lon="4.90651">
        <ele>301.9</ele>
        <time>2023-09-02T14:38:09Z</time>
      </trkpt>
      <trkpt lat="45.90125" lon="4.90647">
        <ele>301.9</ele>
        <time>2023-09-02T14:38:10Z</time>
      </trkpt>
      <trkpt lat="45.90125" lon="4.90642">
        <ele>301.9</ele>
        <time>2023-09-02T14:38:11Z</time>
      </trkpt>
      <trkpt lat="45.90125" lon="4.90641">
        <ele>301.9</ele>
        <time>2023-09-02T14:38:12Z</time>
      </trkpt>
      <trkpt lat="45.90126" lon="4.90639">
        <ele>301.9</ele>
        <time>2023-09-02T14:38:13Z</time>
      </trkpt>
      <trkpt lat="45.90126" lon="4.90637">
        <ele>301.9</ele>
        <time>2023-09-02T14:38:14Z</time>
      </trkpt>
      <trkpt lat="45.90125" lon="4.90633">
        <ele>301.9</ele>
        <time>2023-09-02T14:38:15Z</time>
      </trkpt>
      <trkpt lat="45.90124" lon="4.90627">
        <ele>301.9</ele>
        <time>2023-09-02T14:38:16Z</time>
      </trkpt>
      <trkpt lat="45.90123" lon="4.90623">
        <ele>301.9</ele>
        <time>2023-09-02T14:38:17Z</time>
      </trkpt>
      <trkpt lat="45.90123" lon="4.90619">
        <ele>302</ele>
        <time>2023-09-02T14:38:18Z</time>
      </trkpt>
      <trkpt lat="45.90124" lon="4.90614">
        <ele>302</ele>
        <time>2023-09-02T14:38:19Z</time>
      </trkpt>
      <trkpt lat="45.90123" lon="4.9061">
        <ele>302</ele>
        <time>2023-09-02T14:38:20Z</time>
      </trkpt>
      <trkpt lat="45.90122" lon="4.90605">
        <ele>302</ele>
        <time>2023-09-02T14:38:21Z</time>
      </trkpt>
      <trkpt lat="45.90122" lon="4.90603">
        <ele>302</ele>
        <time>2023-09-02T14:38:22Z</time>
      </trkpt>
      <trkpt lat="45.90122" lon="4.90597">
        <ele>302</ele>
        <time>2023-09-02T14:38:23Z</time>
      </trkpt>
      <trkpt lat="45.90122" lon="4.90595">
        <ele>302</ele>
        <time>2023-09-02T14:38:24Z</time>
      </trkpt>
      <trkpt lat="45.90121" lon="4.90591">
        <ele>302</ele>
        <time>2023-09-02T14:38:25Z</time>
      </trkpt>
      <trkpt lat="45.90121" lon="4.90585">
        <ele>302.1</ele>
        <time>2023-09-02T14:38:26Z</time>
      </trkpt>
      <trkpt lat="45.90121" lon="4.9058">
        <ele>302.1</ele>
        <time>2023-09-02T14:38:27Z</time>
      </trkpt>
      <trkpt lat="45.90122" lon="4.90578">
        <ele>302.1</ele>
        <time>2023-09-02T14:38:28Z</time>
      </trkpt>
      <trkpt lat="45.90122" lon="4.90573">
        <ele>302.1</ele>
        <time>2023-09-02T14:38:29Z</time>
      </trkpt>
      <trkpt lat="45.90122" lon="4.90571">
        <ele>302.1</ele>
        <time>2023-09-02T14:38:30Z</time>
      </trkpt>
      <trkpt lat="45.90122" lon="4.90566">
        <ele>302.1</ele>
        <time>2023-09-02T14:38:31Z</time>
      </trkpt>
      <trkpt lat="45.90122" lon="4.90561">
        <ele>302.1</ele>
        <time>2023-09-02T14:38:32Z</time>
      </trkpt>
      <trkpt lat="45.90122" lon="4.90557">
        <ele>302.1</ele>
        <time>2023-09-02T14:38:33Z</time>
      </trkpt>
      <trkpt lat="45.90123" lon="4.90553">
        <ele>302.1</ele>
        <time>2023-09-02T14:38:34Z</time>
      </trkpt>
      <trkpt lat="45.90123" lon="4.90548">
        <ele>302.1</ele>
        <time>2023-09-02T14:38:35Z</time>
      </trkpt>
      <trkpt lat="45.90124" lon="4.90546">
        <ele>302.1</ele>
        <time>2023-09-02T14:38:36Z</time>
      </trkpt>
      <trkpt lat="45.90125" lon="4.90542">
        <ele>302.2</ele>
        <time>2023-09-02T14:38:37Z</time>
      </trkpt>
      <trkpt lat="45.90125" lon="4.90538">
        <ele>302.2</ele>
        <time>2023-09-02T14:38:38Z</time>
      </trkpt>
      <trkpt lat="45.90125" lon="4.90534">
        <ele>302.2</ele>
        <time>2023-09-02T14:38:39Z</time>
      </trkpt>
      <trkpt lat="45.90126" lon="4.90529">
        <ele>302.2</ele>
        <time>2023-09-02T14:38:40Z</time>
      </trkpt>
      <trkpt lat="45.90127" lon="4.90527">
        <ele>302.2</ele>
        <time>2023-09-02T14:38:41Z</time>
      </trkpt>
      <trkpt lat="45.90127" lon="4.90523">
        <ele>302.2</ele>
        <time>2023-09-02T14:38:42Z</time>
      </trkpt>
      <trkpt lat="45.90128" lon="4.90518">
        <ele>302.2</ele>
        <time>2023-09-02T14:38:43Z</time>
      </trkpt>
      <trkpt lat="45.90129" lon="4.90512">
        <ele>302.2</ele>
        <time>2023-09-02T14:38:44Z</time>
      </trkpt>
      <trkpt lat="45.90129" lon="4.90509">
        <ele>302.2</ele>
        <time>2023-09-02T14:38:45Z</time>
      </trkpt>
      <trkpt lat="45.9013" lon="4.90504">
        <ele>302.3</ele>
        <time>2023-09-02T14:38:46Z</time>
      </trkpt>
      <trkpt lat="45.9013" lon="4.90501">
        <ele>302.3</ele>
        <time>2023-09-02T14:38:47Z</time>
      </trkpt>
      <trkpt lat="45.90132" lon="4.90496">
        <ele>302.3</ele>
        <time>2023-09-02T14:38:48Z</time>
      </trkpt>
      <trkpt lat="45.90132" lon="4.9049">
        <ele>302.3</ele>
        <time>2023-09-02T14:38:49Z</time>
      </trkpt>
      <trkpt lat="45.90132" lon="4.90488">
        <ele>302.3</ele>
        <time>2023-09-02T14:38:50Z</time>
      </trkpt>
      <trkpt lat="45.90134" lon="4.90484">
        <ele>302.3</ele>
        <time>2023-09-02T14:38:51Z</time>
      </trkpt>
      <trkpt lat="45.90134" lon="4.90478">
        <ele>302.3</ele>
        <time>2023-09-02T14:38:52Z</time>
      </trkpt>
      <trkpt lat="45.90135" lon="4.90476">
        <ele>302.3</ele>
        <time>2023-09-02T14:38:53Z</time>
      </trkpt>
      <trkpt lat="45.90136" lon="4.90471">
        <ele>302.3</ele>
        <time>2023-09-02T14:38:54Z</time>
      </trkpt>
      <trkpt lat="45.90136" lon="4.90469">
        <ele>302.3</ele>
        <time>2023-09-02T14:38:55Z</time>
      </trkpt>
      <trkpt lat="45.90138" lon="4.90464">
        <ele>302.3</ele>
        <time>2023-09-02T14:38:56Z</time>
      </trkpt>
      <trkpt lat="45.90138" lon="4.90463">
        <ele>302.4</ele>
        <time>2023-09-02T14:38:57Z</time>
      </trkpt>
      <trkpt lat="45.90139" lon="4.90457">
        <ele>302.4</ele>
        <time>2023-09-02T14:38:58Z</time>
      </trkpt>
      <trkpt lat="45.90139" lon="4.90455">
        <ele>302.4</ele>
        <time>2023-09-02T14:38:59Z</time>
      </trkpt>
      <trkpt lat="45.90139" lon="4.9045">
        <ele>302.4</ele>
        <time>2023-09-02T14:39:00Z</time>
      </trkpt>
      <trkpt lat="45.9014" lon="4.90446">
        <ele>302.4</ele>
        <time>2023-09-02T14:39:01Z</time>
      </trkpt>
      <trkpt lat="45.90142" lon="4.90442">
        <ele>302.5</ele>
        <time>2023-09-02T14:39:02Z</time>
      </trkpt>
      <trkpt lat="45.90143" lon="4.9044">
        <ele>302.5</ele>
        <time>2023-09-02T14:39:03Z</time>
      </trkpt>
      <trkpt lat="45.90144" lon="4.90437">
        <ele>302.5</ele>
        <time>2023-09-02T14:39:04Z</time>
      </trkpt>
      <trkpt lat="45.90144" lon="4.90433">
        <ele>302.5</ele>
        <time>2023-09-02T14:39:05Z</time>
      </trkpt>
      <trkpt lat="45.90144" lon="4.90428">
        <ele>302.5</ele>
        <time>2023-09-02T14:39:06Z</time>
      </trkpt>
      <trkpt lat="45.90145" lon="4.90423">
        <ele>302.5</ele>
        <time>2023-09-02T14:39:07Z</time>
      </trkpt>
      <trkpt lat="45.90146" lon="4.90421">
        <ele>302.5</ele>
        <time>2023-09-02T14:39:08Z</time>
      </trkpt>
      <trkpt lat="45.90147" lon="4.90416">
        <ele>302.5</ele>
        <time>2023-09-02T14:39:09Z</time>
      </trkpt>
      <trkpt lat="45.90147" lon="4.90411">
        <ele>302.4</ele>
        <time>2023-09-02T14:39:10Z</time>
      </trkpt>
      <trkpt lat="45.90149" lon="4.90408">
        <ele>302.4</ele>
        <time>2023-09-02T14:39:11Z</time>
      </trkpt>
      <trkpt lat="45.9015" lon="4.90401">
        <ele>302.4</ele>
        <time>2023-09-02T14:39:12Z</time>
      </trkpt>
      <trkpt lat="45.90151" lon="4.90394">
        <ele>302.3</ele>
        <time>2023-09-02T14:39:13Z</time>
      </trkpt>
      <trkpt lat="45.90152" lon="4.90389">
        <ele>302.3</ele>
        <time>2023-09-02T14:39:14Z</time>
      </trkpt>
      <trkpt lat="45.90153" lon="4.90385">
        <ele>302.2</ele>
        <time>2023-09-02T14:39:15Z</time>
      </trkpt>
      <trkpt lat="45.90153" lon="4.9038">
        <ele>302.2</ele>
        <time>2023-09-02T14:39:16Z</time>
      </trkpt>
      <trkpt lat="45.90153" lon="4.90375">
        <ele>302.2</ele>
        <time>2023-09-02T14:39:17Z</time>
      </trkpt>
      <trkpt lat="45.90154" lon="4.90372">
        <ele>302.2</ele>
        <time>2023-09-02T14:39:18Z</time>
      </trkpt>
      <trkpt lat="45.90154" lon="4.90367">
        <ele>302.1</ele>
        <time>2023-09-02T14:39:19Z</time>
      </trkpt>
      <trkpt lat="45.90155" lon="4.90363">
        <ele>302.1</ele>
        <time>2023-09-02T14:39:20Z</time>
      </trkpt>
      <trkpt lat="45.90155" lon="4.90359">
        <ele>302.1</ele>
        <time>2023-09-02T14:39:21Z</time>
      </trkpt>
      <trkpt lat="45.90154" lon="4.90354">
        <ele>302.1</ele>
        <time>2023-09-02T14:39:22Z</time>
      </trkpt>
      <trkpt lat="45.90153" lon="4.90348">
        <ele>302</ele>
        <time>2023-09-02T14:39:23Z</time>
      </trkpt>
      <trkpt lat="45.90153" lon="4.90343">
        <ele>302</ele>
        <time>2023-09-02T14:39:24Z</time>
      </trkpt>
      <trkpt lat="45.90153" lon="4.90337">
        <ele>302</ele>
        <time>2023-09-02T14:39:25Z</time>
      </trkpt>
      <trkpt lat="45.90152" lon="4.90332">
        <ele>302</ele>
        <time>2023-09-02T14:39:26Z</time>
      </trkpt>
      <trkpt lat="45.90152" lon="4.90328">
        <ele>302</ele>
        <time>2023-09-02T14:39:27Z</time>
      </trkpt>
      <trkpt lat="45.90152" lon="4.90324">
        <ele>302</ele>
        <time>2023-09-02T14:39:28Z</time>
      </trkpt>
      <trkpt lat="45.90152" lon="4.90319">
        <ele>301.9</ele>
        <time>2023-09-02T14:39:29Z</time>
      </trkpt>
      <trkpt lat="45.90152" lon="4.90313">
        <ele>301.9</ele>
        <time>2023-09-02T14:39:30Z</time>
      </trkpt>
      <trkpt lat="45.90151" lon="4.90309">
        <ele>301.9</ele>
        <time>2023-09-02T14:39:31Z</time>
      </trkpt>
      <trkpt lat="45.90152" lon="4.90304">
        <ele>301.9</ele>
        <time>2023-09-02T14:39:32Z</time>
      </trkpt>
      <trkpt lat="45.90151" lon="4.90299">
        <ele>301.8</ele>
        <time>2023-09-02T14:39:33Z</time>
      </trkpt>
      <trkpt lat="45.90151" lon="4.90295">
        <ele>301.8</ele>
        <time>2023-09-02T14:39:34Z</time>
      </trkpt>
      <trkpt lat="45.90152" lon="4.9029">
        <ele>301.8</ele>
        <time>2023-09-02T14:39:35Z</time>
      </trkpt>
      <trkpt lat="45.90152" lon="4.90286">
        <ele>301.8</ele>
        <time>2023-09-02T14:39:36Z</time>
      </trkpt>
      <trkpt lat="45.90151" lon="4.90281">
        <ele>301.8</ele>
        <time>2023-09-02T14:39:37Z</time>
      </trkpt>
      <trkpt lat="45.90151" lon="4.90279">
        <ele>301.8</ele>
        <time>2023-09-02T14:39:38Z</time>
      </trkpt>
      <trkpt lat="45.90151" lon="4.90274">
        <ele>301.8</ele>
        <time>2023-09-02T14:39:39Z</time>
      </trkpt>
      <trkpt lat="45.90151" lon="4.90272">
        <ele>301.8</ele>
        <time>2023-09-02T14:39:40Z</time>
      </trkpt>
      <trkpt lat="45.90151" lon="4.90268">
        <ele>301.7</ele>
        <time>2023-09-02T14:39:41Z</time>
      </trkpt>
      <trkpt lat="45.9015" lon="4.90263">
        <ele>301.7</ele>
        <time>2023-09-02T14:39:42Z</time>
      </trkpt>
      <trkpt lat="45.9015" lon="4.90257">
        <ele>301.6</ele>
        <time>2023-09-02T14:39:43Z</time>
      </trkpt>
      <trkpt lat="45.90149" lon="4.90253">
        <ele>301.6</ele>
        <time>2023-09-02T14:39:44Z</time>
      </trkpt>
      <trkpt lat="45.90149" lon="4.90248">
        <ele>301.5</ele>
        <time>2023-09-02T14:39:45Z</time>
      </trkpt>
      <trkpt lat="45.90148" lon="4.90243">
        <ele>301.4</ele>
        <time>2023-09-02T14:39:46Z</time>
      </trkpt>
      <trkpt lat="45.90148" lon="4.90238">
        <ele>301.3</ele>
        <time>2023-09-02T14:39:47Z</time>
      </trkpt>
      <trkpt lat="45.90147" lon="4.90233">
        <ele>301.3</ele>
        <time>2023-09-02T14:39:48Z</time>
      </trkpt>
      <trkpt lat="45.90146" lon="4.90227">
        <ele>301.3</ele>
        <time>2023-09-02T14:39:49Z</time>
      </trkpt>
      <trkpt lat="45.90146" lon="4.90222">
        <ele>301.2</ele>
        <time>2023-09-02T14:39:50Z</time>
      </trkpt>
      <trkpt lat="45.90146" lon="4.90218">
        <ele>301.2</ele>
        <time>2023-09-02T14:39:51Z</time>
      </trkpt>
      <trkpt lat="45.90146" lon="4.90213">
        <ele>301.2</ele>
        <time>2023-09-02T14:39:52Z</time>
      </trkpt>
      <trkpt lat="45.90147" lon="4.90209">
        <ele>301.2</ele>
        <time>2023-09-02T14:39:53Z</time>
      </trkpt>
      <trkpt lat="45.90148" lon="4.90204">
        <ele>301.3</ele>
        <time>2023-09-02T14:39:54Z</time>
      </trkpt>
      <trkpt lat="45.90149" lon="4.902">
        <ele>301.3</ele>
        <time>2023-09-02T14:39:55Z</time>
      </trkpt>
      <trkpt lat="45.90151" lon="4.90196">
        <ele>301.3</ele>
        <time>2023-09-02T14:39:56Z</time>
      </trkpt>
      <trkpt lat="45.90152" lon="4.90195">
        <ele>301.3</ele>
        <time>2023-09-02T14:39:57Z</time>
      </trkpt>
      <trkpt lat="45.90154" lon="4.9019">
        <ele>301.4</ele>
        <time>2023-09-02T14:39:59Z</time>
      </trkpt>
      <trkpt lat="45.90155" lon="4.90189">
        <ele>301.4</ele>
        <time>2023-09-02T14:40:00Z</time>
      </trkpt>
      <trkpt lat="45.90156" lon="4.90184">
        <ele>301.4</ele>
        <time>2023-09-02T14:40:01Z</time>
      </trkpt>
      <trkpt lat="45.90156" lon="4.90183">
        <ele>301.4</ele>
        <time>2023-09-02T14:40:02Z</time>
      </trkpt>
      <trkpt lat="45.90158" lon="4.90179">
        <ele>301.4</ele>
        <time>2023-09-02T14:40:03Z</time>
      </trkpt>
      <trkpt lat="45.90159" lon="4.90173">
        <ele>301.3</ele>
        <time>2023-09-02T14:40:04Z</time>
      </trkpt>
      <trkpt lat="45.9016" lon="4.90171">
        <ele>301.3</ele>
        <time>2023-09-02T14:40:05Z</time>
      </trkpt>
      <trkpt lat="45.90161" lon="4.90166">
        <ele>301.3</ele>
        <time>2023-09-02T14:40:06Z</time>
      </trkpt>
      <trkpt lat="45.90162" lon="4.90161">
        <ele>301.3</ele>
        <time>2023-09-02T14:40:07Z</time>
      </trkpt>
      <trkpt lat="45.90163" lon="4.90158">
        <ele>301.3</ele>
        <time>2023-09-02T14:40:08Z</time>
      </trkpt>
      <trkpt lat="45.90165" lon="4.90152">
        <ele>301.3</ele>
        <time>2023-09-02T14:40:09Z</time>
      </trkpt>
      <trkpt lat="45.90166" lon="4.9015">
        <ele>301.2</ele>
        <time>2023-09-02T14:40:10Z</time>
      </trkpt>
      <trkpt lat="45.90167" lon="4.90144">
        <ele>301.2</ele>
        <time>2023-09-02T14:40:11Z</time>
      </trkpt>
      <trkpt lat="45.90168" lon="4.90142">
        <ele>301.2</ele>
        <time>2023-09-02T14:40:12Z</time>
      </trkpt>
      <trkpt lat="45.90169" lon="4.90138">
        <ele>301.2</ele>
        <time>2023-09-02T14:40:13Z</time>
      </trkpt>
      <trkpt lat="45.90169" lon="4.90133">
        <ele>301.2</ele>
        <time>2023-09-02T14:40:14Z</time>
      </trkpt>
      <trkpt lat="45.9017" lon="4.90129">
        <ele>301.2</ele>
        <time>2023-09-02T14:40:15Z</time>
      </trkpt>
      <trkpt lat="45.90171" lon="4.90125">
        <ele>301.2</ele>
        <time>2023-09-02T14:40:16Z</time>
      </trkpt>
      <trkpt lat="45.90172" lon="4.9012">
        <ele>301.2</ele>
        <time>2023-09-02T14:40:17Z</time>
      </trkpt>
      <trkpt lat="45.90174" lon="4.90115">
        <ele>301.2</ele>
        <time>2023-09-02T14:40:18Z</time>
      </trkpt>
      <trkpt lat="45.90175" lon="4.90112">
        <ele>301.1</ele>
        <time>2023-09-02T14:40:19Z</time>
      </trkpt>
      <trkpt lat="45.90176" lon="4.90108">
        <ele>301.1</ele>
        <time>2023-09-02T14:40:20Z</time>
      </trkpt>
      <trkpt lat="45.90177" lon="4.90104">
        <ele>301.1</ele>
        <time>2023-09-02T14:40:21Z</time>
      </trkpt>
      <trkpt lat="45.90179" lon="4.90099">
        <ele>301.1</ele>
        <time>2023-09-02T14:40:22Z</time>
      </trkpt>
      <trkpt lat="45.9018" lon="4.90095">
        <ele>301.1</ele>
        <time>2023-09-02T14:40:23Z</time>
      </trkpt>
      <trkpt lat="45.90181" lon="4.90091">
        <ele>301.1</ele>
        <time>2023-09-02T14:40:24Z</time>
      </trkpt>
      <trkpt lat="45.90182" lon="4.90087">
        <ele>301.1</ele>
        <time>2023-09-02T14:40:25Z</time>
      </trkpt>
      <trkpt lat="45.90184" lon="4.90083">
        <ele>301.1</ele>
        <time>2023-09-02T14:40:26Z</time>
      </trkpt>
      <trkpt lat="45.90185" lon="4.90079">
        <ele>301.1</ele>
        <time>2023-09-02T14:40:27Z</time>
      </trkpt>
      <trkpt lat="45.90186" lon="4.90076">
        <ele>301.2</ele>
        <time>2023-09-02T14:40:28Z</time>
      </trkpt>
      <trkpt lat="45.90187" lon="4.90072">
        <ele>301.2</ele>
        <time>2023-09-02T14:40:29Z</time>
      </trkpt>
      <trkpt lat="45.90188" lon="4.90068">
        <ele>301.2</ele>
        <time>2023-09-02T14:40:30Z</time>
      </trkpt>
      <trkpt lat="45.90189" lon="4.90064">
        <ele>301.2</ele>
        <time>2023-09-02T14:40:31Z</time>
      </trkpt>
      <trkpt lat="45.9019" lon="4.9006">
        <ele>301.2</ele>
        <time>2023-09-02T14:40:32Z</time>
      </trkpt>
      <trkpt lat="45.90191" lon="4.90056">
        <ele>301.2</ele>
        <time>2023-09-02T14:40:33Z</time>
      </trkpt>
      <trkpt lat="45.90193" lon="4.90052">
        <ele>301.2</ele>
        <time>2023-09-02T14:40:34Z</time>
      </trkpt>
      <trkpt lat="45.90194" lon="4.90048">
        <ele>301.1</ele>
        <time>2023-09-02T14:40:35Z</time>
      </trkpt>
      <trkpt lat="45.90196" lon="4.90044">
        <ele>301.1</ele>
        <time>2023-09-02T14:40:36Z</time>
      </trkpt>
      <trkpt lat="45.90199" lon="4.9004">
        <ele>301.1</ele>
        <time>2023-09-02T14:40:37Z</time>
      </trkpt>
      <trkpt lat="45.90202" lon="4.90037">
        <ele>301</ele>
        <time>2023-09-02T14:40:38Z</time>
      </trkpt>
      <trkpt lat="45.90205" lon="4.90034">
        <ele>301</ele>
        <time>2023-09-02T14:40:39Z</time>
      </trkpt>
      <trkpt lat="45.90209" lon="4.90032">
        <ele>300.9</ele>
        <time>2023-09-02T14:40:40Z</time>
      </trkpt>
      <trkpt lat="45.90212" lon="4.90032">
        <ele>300.9</ele>
        <time>2023-09-02T14:40:41Z</time>
      </trkpt>
      <trkpt lat="45.90215" lon="4.90031">
        <ele>300.9</ele>
        <time>2023-09-02T14:40:42Z</time>
      </trkpt>
      <trkpt lat="45.90216" lon="4.90031">
        <ele>300.9</ele>
        <time>2023-09-02T14:40:43Z</time>
      </trkpt>
      <trkpt lat="45.90219" lon="4.9003">
        <ele>300.9</ele>
        <time>2023-09-02T14:40:44Z</time>
      </trkpt>
      <trkpt lat="45.90222" lon="4.90029">
        <ele>300.9</ele>
        <time>2023-09-02T14:40:45Z</time>
      </trkpt>
      <trkpt lat="45.90224" lon="4.90029">
        <ele>300.9</ele>
        <time>2023-09-02T14:40:46Z</time>
      </trkpt>
      <trkpt lat="45.90227" lon="4.9003">
        <ele>300.9</ele>
        <time>2023-09-02T14:40:47Z</time>
      </trkpt>
      <trkpt lat="45.90231" lon="4.90029">
        <ele>300.9</ele>
        <time>2023-09-02T14:40:48Z</time>
      </trkpt>
      <trkpt lat="45.90232" lon="4.90029">
        <ele>300.9</ele>
        <time>2023-09-02T14:40:49Z</time>
      </trkpt>
      <trkpt lat="45.90235" lon="4.90028">
        <ele>300.9</ele>
        <time>2023-09-02T14:40:50Z</time>
      </trkpt>
      <trkpt lat="45.90238" lon="4.90027">
        <ele>300.9</ele>
        <time>2023-09-02T14:40:51Z</time>
      </trkpt>
      <trkpt lat="45.90241" lon="4.90026">
        <ele>300.9</ele>
        <time>2023-09-02T14:40:52Z</time>
      </trkpt>
      <trkpt lat="45.90245" lon="4.90025">
        <ele>300.8</ele>
        <time>2023-09-02T14:40:53Z</time>
      </trkpt>
      <trkpt lat="45.90246" lon="4.90025">
        <ele>300.8</ele>
        <time>2023-09-02T14:40:54Z</time>
      </trkpt>
      <trkpt lat="45.9025" lon="4.90023">
        <ele>300.8</ele>
        <time>2023-09-02T14:40:55Z</time>
      </trkpt>
      <trkpt lat="45.90251" lon="4.90023">
        <ele>300.8</ele>
        <time>2023-09-02T14:40:56Z</time>
      </trkpt>
      <trkpt lat="45.90254" lon="4.90022">
        <ele>300.8</ele>
        <time>2023-09-02T14:40:57Z</time>
      </trkpt>
      <trkpt lat="45.90257" lon="4.9002">
        <ele>300.7</ele>
        <time>2023-09-02T14:40:58Z</time>
      </trkpt>
      <trkpt lat="45.9026" lon="4.9002">
        <ele>300.7</ele>
        <time>2023-09-02T14:40:59Z</time>
      </trkpt>
      <trkpt lat="45.90263" lon="4.90019">
        <ele>300.7</ele>
        <time>2023-09-02T14:41:00Z</time>
      </trkpt>
      <trkpt lat="45.90265" lon="4.90017">
        <ele>300.7</ele>
        <time>2023-09-02T14:41:01Z</time>
      </trkpt>
      <trkpt lat="45.90269" lon="4.90016">
        <ele>300.7</ele>
        <time>2023-09-02T14:41:02Z</time>
      </trkpt>
      <trkpt lat="45.90271" lon="4.90015">
        <ele>300.6</ele>
        <time>2023-09-02T14:41:03Z</time>
      </trkpt>
      <trkpt lat="45.90273" lon="4.90013">
        <ele>300.6</ele>
        <time>2023-09-02T14:41:04Z</time>
      </trkpt>
      <trkpt lat="45.90277" lon="4.90012">
        <ele>300.6</ele>
        <time>2023-09-02T14:41:05Z</time>
      </trkpt>
      <trkpt lat="45.90279" lon="4.90011">
        <ele>300.6</ele>
        <time>2023-09-02T14:41:06Z</time>
      </trkpt>
      <trkpt lat="45.90282" lon="4.9001">
        <ele>300.6</ele>
        <time>2023-09-02T14:41:07Z</time>
      </trkpt>
      <trkpt lat="45.90284" lon="4.90008">
        <ele>300.6</ele>
        <time>2023-09-02T14:41:08Z</time>
      </trkpt>
      <trkpt lat="45.90288" lon="4.90006">
        <ele>300.6</ele>
        <time>2023-09-02T14:41:09Z</time>
      </trkpt>
      <trkpt lat="45.90289" lon="4.90005">
        <ele>300.6</ele>
        <time>2023-09-02T14:41:10Z</time>
      </trkpt>
      <trkpt lat="45.90292" lon="4.90004">
        <ele>300.6</ele>
        <time>2023-09-02T14:41:11Z</time>
      </trkpt>
      <trkpt lat="45.90295" lon="4.90004">
        <ele>300.5</ele>
        <time>2023-09-02T14:41:12Z</time>
      </trkpt>
      <trkpt lat="45.90299" lon="4.90002">
        <ele>300.5</ele>
        <time>2023-09-02T14:41:13Z</time>
      </trkpt>
      <trkpt lat="45.903" lon="4.90001">
        <ele>300.5</ele>
        <time>2023-09-02T14:41:14Z</time>
      </trkpt>
      <trkpt lat="45.90304" lon="4.9">
        <ele>300.5</ele>
        <time>2023-09-02T14:41:15Z</time>
      </trkpt>
      <trkpt lat="45.90307" lon="4.89999">
        <ele>300.5</ele>
        <time>2023-09-02T14:41:16Z</time>
      </trkpt>
      <trkpt lat="45.9031" lon="4.89997">
        <ele>300.5</ele>
        <time>2023-09-02T14:41:17Z</time>
      </trkpt>
      <trkpt lat="45.90313" lon="4.89996">
        <ele>300.5</ele>
        <time>2023-09-02T14:41:18Z</time>
      </trkpt>
      <trkpt lat="45.90319" lon="4.89994">
        <ele>300.5</ele>
        <time>2023-09-02T14:41:19Z</time>
      </trkpt>
      <trkpt lat="45.90322" lon="4.89993">
        <ele>300.5</ele>
        <time>2023-09-02T14:41:20Z</time>
      </trkpt>
      <trkpt lat="45.90325" lon="4.89992">
        <ele>300.5</ele>
        <time>2023-09-02T14:41:21Z</time>
      </trkpt>
      <trkpt lat="45.90327" lon="4.89991">
        <ele>300.5</ele>
        <time>2023-09-02T14:41:22Z</time>
      </trkpt>
      <trkpt lat="45.90329" lon="4.89991">
        <ele>300.5</ele>
        <time>2023-09-02T14:41:23Z</time>
      </trkpt>
      <trkpt lat="45.9033" lon="4.8999">
        <ele>300.5</ele>
        <time>2023-09-02T14:41:24Z</time>
      </trkpt>
      <trkpt lat="45.90332" lon="4.8999">
        <ele>300.5</ele>
        <time>2023-09-02T14:41:25Z</time>
      </trkpt>
      <trkpt lat="45.90333" lon="4.89989">
        <ele>300.5</ele>
        <time>2023-09-02T14:41:26Z</time>
      </trkpt>
      <trkpt lat="45.90334" lon="4.89988">
        <ele>300.5</ele>
        <time>2023-09-02T14:41:27Z</time>
      </trkpt>
      <trkpt lat="45.90336" lon="4.89988">
        <ele>300.5</ele>
        <time>2023-09-02T14:41:28Z</time>
      </trkpt>
      <trkpt lat="45.90337" lon="4.89987">
        <ele>300.5</ele>
        <time>2023-09-02T14:41:29Z</time>
      </trkpt>
      <trkpt lat="45.90339" lon="4.89986">
        <ele>300.5</ele>
        <time>2023-09-02T14:41:30Z</time>
      </trkpt>
      <trkpt lat="45.9034" lon="4.89985">
        <ele>300.5</ele>
        <time>2023-09-02T14:41:31Z</time>
      </trkpt>
      <trkpt lat="45.9034" lon="4.89984">
        <ele>300.5</ele>
        <time>2023-09-02T14:41:32Z</time>
      </trkpt>
      <trkpt lat="45.90339" lon="4.89984">
        <ele>300.5</ele>
        <time>2023-09-02T14:41:33Z</time>
      </trkpt>
      <trkpt lat="45.90339" lon="4.89983">
        <ele>300.5</ele>
        <time>2023-09-02T14:41:34Z</time>
      </trkpt>
      <trkpt lat="45.90339" lon="4.89983">
        <ele>300.5</ele>
        <time>2023-09-02T14:41:35Z</time>
      </trkpt>
      <trkpt lat="45.90339" lon="4.89982">
        <ele>300.5</ele>
        <time>2023-09-02T14:41:36Z</time>
      </trkpt>
      <trkpt lat="45.90339" lon="4.89981">
        <ele>300.5</ele>
        <time>2023-09-02T14:41:37Z</time>
      </trkpt>
      <trkpt lat="45.90339" lon="4.89981">
        <ele>300.5</ele>
        <time>2023-09-02T14:41:38Z</time>
      </trkpt>
      <trkpt lat="45.90339" lon="4.8998">
        <ele>300.5</ele>
        <time>2023-09-02T14:41:40Z</time>
      </trkpt>
      <trkpt lat="45.90339" lon="4.89979">
        <ele>300.5</ele>
        <time>2023-09-02T14:41:41Z</time>
      </trkpt>
      <trkpt lat="45.90339" lon="4.89979">
        <ele>300.5</ele>
        <time>2023-09-02T14:43:25Z</time>
      </trkpt>
      <trkpt lat="45.90339" lon="4.89978">
        <ele>300.5</ele>
        <time>2023-09-02T14:43:26Z</time>
      </trkpt>
      <trkpt lat="45.90338" lon="4.89978">
        <ele>300.5</ele>
        <time>2023-09-02T14:43:27Z</time>
      </trkpt>
      <trkpt lat="45.90335" lon="4.89974">
        <ele>300.5</ele>
        <time>2023-09-02T14:43:28Z</time>
      </trkpt>
      <trkpt lat="45.90334" lon="4.89973">
        <ele>300.4</ele>
        <time>2023-09-02T14:43:29Z</time>
      </trkpt>
      <trkpt lat="45.90332" lon="4.89969">
        <ele>300.4</ele>
        <time>2023-09-02T14:43:30Z</time>
      </trkpt>
      <trkpt lat="45.90332" lon="4.89968">
        <ele>300.4</ele>
        <time>2023-09-02T14:43:31Z</time>
      </trkpt>
      <trkpt lat="45.90328" lon="4.89962">
        <ele>300.4</ele>
        <time>2023-09-02T14:43:32Z</time>
      </trkpt>
      <trkpt lat="45.90326" lon="4.89959">
        <ele>300.4</ele>
        <time>2023-09-02T14:43:33Z</time>
      </trkpt>
      <trkpt lat="45.90324" lon="4.89955">
        <ele>300.4</ele>
        <time>2023-09-02T14:43:34Z</time>
      </trkpt>
      <trkpt lat="45.90323" lon="4.89954">
        <ele>300.4</ele>
        <time>2023-09-02T14:43:35Z</time>
      </trkpt>
      <trkpt lat="45.9032" lon="4.89949">
        <ele>300.4</ele>
        <time>2023-09-02T14:43:36Z</time>
      </trkpt>
      <trkpt lat="45.9032" lon="4.89948">
        <ele>300.4</ele>
        <time>2023-09-02T14:43:37Z</time>
      </trkpt>
      <trkpt lat="45.90317" lon="4.89943">
        <ele>300.3</ele>
        <time>2023-09-02T14:43:38Z</time>
      </trkpt>
      <trkpt lat="45.90316" lon="4.89942">
        <ele>300.3</ele>
        <time>2023-09-02T14:43:39Z</time>
      </trkpt>
      <trkpt lat="45.90314" lon="4.89938">
        <ele>300.3</ele>
        <time>2023-09-02T14:43:40Z</time>
      </trkpt>
      <trkpt lat="45.90312" lon="4.89935">
        <ele>300.3</ele>
        <time>2023-09-02T14:43:41Z</time>
      </trkpt>
      <trkpt lat="45.9031" lon="4.89932">
        <ele>300.3</ele>
        <time>2023-09-02T14:43:42Z</time>
      </trkpt>
      <trkpt lat="45.90309" lon="4.89928">
        <ele>300.3</ele>
        <time>2023-09-02T14:43:44Z</time>
      </trkpt>
      <trkpt lat="45.90307" lon="4.89925">
        <ele>300.3</ele>
        <time>2023-09-02T14:43:45Z</time>
      </trkpt>
      <trkpt lat="45.90305" lon="4.89922">
        <ele>300.3</ele>
        <time>2023-09-02T14:43:46Z</time>
      </trkpt>
      <trkpt lat="45.90303" lon="4.89918">
        <ele>300.3</ele>
        <time>2023-09-02T14:43:47Z</time>
      </trkpt>
      <trkpt lat="45.90302" lon="4.89915">
        <ele>300.3</ele>
        <time>2023-09-02T14:43:48Z</time>
      </trkpt>
      <trkpt lat="45.90299" lon="4.89912">
        <ele>300.3</ele>
        <time>2023-09-02T14:43:49Z</time>
      </trkpt>
      <trkpt lat="45.90297" lon="4.89909">
        <ele>300.3</ele>
        <time>2023-09-02T14:43:50Z</time>
      </trkpt>
      <trkpt lat="45.90296" lon="4.89905">
        <ele>300.3</ele>
        <time>2023-09-02T14:43:51Z</time>
      </trkpt>
      <trkpt lat="45.90294" lon="4.89902">
        <ele>300.3</ele>
        <time>2023-09-02T14:43:52Z</time>
      </trkpt>
      <trkpt lat="45.90292" lon="4.89898">
        <ele>300.3</ele>
        <time>2023-09-02T14:43:53Z</time>
      </trkpt>
      <trkpt lat="45.9029" lon="4.89895">
        <ele>300.3</ele>
        <time>2023-09-02T14:43:54Z</time>
      </trkpt>
      <trkpt lat="45.90287" lon="4.8989">
        <ele>300.3</ele>
        <time>2023-09-02T14:43:55Z</time>
      </trkpt>
      <trkpt lat="45.90286" lon="4.89888">
        <ele>300.3</ele>
        <time>2023-09-02T14:43:56Z</time>
      </trkpt>
      <trkpt lat="45.90284" lon="4.89885">
        <ele>300.3</ele>
        <time>2023-09-02T14:43:57Z</time>
      </trkpt>
      <trkpt lat="45.90282" lon="4.89881">
        <ele>300.3</ele>
        <time>2023-09-02T14:43:58Z</time>
      </trkpt>
      <trkpt lat="45.9028" lon="4.89878">
        <ele>300.3</ele>
        <time>2023-09-02T14:43:59Z</time>
      </trkpt>
      <trkpt lat="45.90278" lon="4.89875">
        <ele>300.3</ele>
        <time>2023-09-02T14:44:00Z</time>
      </trkpt>
      <trkpt lat="45.90276" lon="4.89872">
        <ele>300.3</ele>
        <time>2023-09-02T14:44:01Z</time>
      </trkpt>
      <trkpt lat="45.90274" lon="4.89869">
        <ele>300.3</ele>
        <time>2023-09-02T14:44:02Z</time>
      </trkpt>
      <trkpt lat="45.90272" lon="4.89865">
        <ele>300.3</ele>
        <time>2023-09-02T14:44:03Z</time>
      </trkpt>
      <trkpt lat="45.9027" lon="4.89862">
        <ele>300.3</ele>
        <time>2023-09-02T14:44:04Z</time>
      </trkpt>
      <trkpt lat="45.90268" lon="4.89858">
        <ele>300.3</ele>
        <time>2023-09-02T14:44:05Z</time>
      </trkpt>
      <trkpt lat="45.90266" lon="4.89854">
        <ele>300.3</ele>
        <time>2023-09-02T14:44:06Z</time>
      </trkpt>
      <trkpt lat="45.90264" lon="4.89851">
        <ele>300.3</ele>
        <time>2023-09-02T14:44:07Z</time>
      </trkpt>
      <trkpt lat="45.90263" lon="4.89846">
        <ele>300.3</ele>
        <time>2023-09-02T14:44:08Z</time>
      </trkpt>
      <trkpt lat="45.90261" lon="4.89843">
        <ele>300.3</ele>
        <time>2023-09-02T14:44:09Z</time>
      </trkpt>
      <trkpt lat="45.90259" lon="4.89839">
        <ele>300.2</ele>
        <time>2023-09-02T14:44:10Z</time>
      </trkpt>
      <trkpt lat="45.90256" lon="4.89836">
        <ele>300.2</ele>
        <time>2023-09-02T14:44:11Z</time>
      </trkpt>
      <trkpt lat="45.90255" lon="4.89833">
        <ele>300.2</ele>
        <time>2023-09-02T14:44:12Z</time>
      </trkpt>
      <trkpt lat="45.90253" lon="4.89829">
        <ele>300.2</ele>
        <time>2023-09-02T14:44:13Z</time>
      </trkpt>
      <trkpt lat="45.90251" lon="4.89825">
        <ele>300.2</ele>
        <time>2023-09-02T14:44:14Z</time>
      </trkpt>
      <trkpt lat="45.90249" lon="4.89821">
        <ele>300.2</ele>
        <time>2023-09-02T14:44:15Z</time>
      </trkpt>
      <trkpt lat="45.90248" lon="4.89818">
        <ele>300.2</ele>
        <time>2023-09-02T14:44:16Z</time>
      </trkpt>
      <trkpt lat="45.90246" lon="4.89813">
        <ele>300.2</ele>
        <time>2023-09-02T14:44:17Z</time>
      </trkpt>
      <trkpt lat="45.90244" lon="4.89809">
        <ele>300.2</ele>
        <time>2023-09-02T14:44:18Z</time>
      </trkpt>
      <trkpt lat="45.90242" lon="4.89805">
        <ele>300.2</ele>
        <time>2023-09-02T14:44:19Z</time>
      </trkpt>
      <trkpt lat="45.9024" lon="4.89801">
        <ele>300.2</ele>
        <time>2023-09-02T14:44:20Z</time>
      </trkpt>
      <trkpt lat="45.90238" lon="4.89797">
        <ele>300.2</ele>
        <time>2023-09-02T14:44:21Z</time>
      </trkpt>
      <trkpt lat="45.90236" lon="4.89793">
        <ele>300.1</ele>
        <time>2023-09-02T14:44:22Z</time>
      </trkpt>
      <trkpt lat="45.90234" lon="4.89789">
        <ele>300.1</ele>
        <time>2023-09-02T14:44:23Z</time>
      </trkpt>
      <trkpt lat="45.90232" lon="4.89785">
        <ele>300.1</ele>
        <time>2023-09-02T14:44:24Z</time>
      </trkpt>
      <trkpt lat="45.9023" lon="4.89781">
        <ele>300.1</ele>
        <time>2023-09-02T14:44:25Z</time>
      </trkpt>
      <trkpt lat="45.90228" lon="4.89777">
        <ele>300.1</ele>
        <time>2023-09-02T14:44:26Z</time>
      </trkpt>
      <trkpt lat="45.90226" lon="4.89772">
        <ele>300.1</ele>
        <time>2023-09-02T14:44:27Z</time>
      </trkpt>
      <trkpt lat="45.90224" lon="4.89769">
        <ele>300.1</ele>
        <time>2023-09-02T14:44:28Z</time>
      </trkpt>
      <trkpt lat="45.90222" lon="4.89765">
        <ele>300.1</ele>
        <time>2023-09-02T14:44:29Z</time>
      </trkpt>
      <trkpt lat="45.9022" lon="4.8976">
        <ele>300.1</ele>
        <time>2023-09-02T14:44:30Z</time>
      </trkpt>
      <trkpt lat="45.90218" lon="4.89756">
        <ele>300.1</ele>
        <time>2023-09-02T14:44:31Z</time>
      </trkpt>
      <trkpt lat="45.90215" lon="4.89752">
        <ele>300.1</ele>
        <time>2023-09-02T14:44:32Z</time>
      </trkpt>
      <trkpt lat="45.90214" lon="4.89748">
        <ele>300.1</ele>
        <time>2023-09-02T14:44:33Z</time>
      </trkpt>
      <trkpt lat="45.90211" lon="4.89744">
        <ele>300.1</ele>
        <time>2023-09-02T14:44:34Z</time>
      </trkpt>
      <trkpt lat="45.9021" lon="4.8974">
        <ele>300.1</ele>
        <time>2023-09-02T14:44:35Z</time>
      </trkpt>
      <trkpt lat="45.90209" lon="4.89736">
        <ele>300.1</ele>
        <time>2023-09-02T14:44:36Z</time>
      </trkpt>
      <trkpt lat="45.90206" lon="4.89733">
        <ele>300.1</ele>
        <time>2023-09-02T14:44:37Z</time>
      </trkpt>
      <trkpt lat="45.90204" lon="4.89728">
        <ele>300.1</ele>
        <time>2023-09-02T14:44:38Z</time>
      </trkpt>
      <trkpt lat="45.90202" lon="4.89724">
        <ele>300.1</ele>
        <time>2023-09-02T14:44:39Z</time>
      </trkpt>
      <trkpt lat="45.902" lon="4.89721">
        <ele>300.1</ele>
        <time>2023-09-02T14:44:40Z</time>
      </trkpt>
      <trkpt lat="45.90198" lon="4.89717">
        <ele>300.1</ele>
        <time>2023-09-02T14:44:41Z</time>
      </trkpt>
      <trkpt lat="45.90196" lon="4.89714">
        <ele>300.1</ele>
        <time>2023-09-02T14:44:42Z</time>
      </trkpt>
      <trkpt lat="45.90192" lon="4.8971">
        <ele>300.1</ele>
        <time>2023-09-02T14:44:43Z</time>
      </trkpt>
      <trkpt lat="45.90191" lon="4.89708">
        <ele>300.1</ele>
        <time>2023-09-02T14:44:44Z</time>
      </trkpt>
      <trkpt lat="45.90189" lon="4.89705">
        <ele>300.1</ele>
        <time>2023-09-02T14:44:45Z</time>
      </trkpt>
      <trkpt lat="45.90187" lon="4.89702">
        <ele>300.1</ele>
        <time>2023-09-02T14:44:46Z</time>
      </trkpt>
      <trkpt lat="45.90185" lon="4.89698">
        <ele>300.1</ele>
        <time>2023-09-02T14:44:47Z</time>
      </trkpt>
      <trkpt lat="45.90183" lon="4.89694">
        <ele>300.1</ele>
        <time>2023-09-02T14:44:48Z</time>
      </trkpt>
      <trkpt lat="45.90181" lon="4.8969">
        <ele>300.1</ele>
        <time>2023-09-02T14:44:49Z</time>
      </trkpt>
      <trkpt lat="45.90179" lon="4.89687">
        <ele>300.1</ele>
        <time>2023-09-02T14:44:50Z</time>
      </trkpt>
      <trkpt lat="45.90177" lon="4.89683">
        <ele>300.1</ele>
        <time>2023-09-02T14:44:51Z</time>
      </trkpt>
      <trkpt lat="45.90175" lon="4.89679">
        <ele>300.1</ele>
        <time>2023-09-02T14:44:52Z</time>
      </trkpt>
      <trkpt lat="45.90173" lon="4.89676">
        <ele>300.1</ele>
        <time>2023-09-02T14:44:53Z</time>
      </trkpt>
      <trkpt lat="45.90171" lon="4.89672">
        <ele>300.1</ele>
        <time>2023-09-02T14:44:54Z</time>
      </trkpt>
      <trkpt lat="45.90169" lon="4.89669">
        <ele>300.1</ele>
        <time>2023-09-02T14:44:55Z</time>
      </trkpt>
      <trkpt lat="45.90167" lon="4.89666">
        <ele>300.1</ele>
        <time>2023-09-02T14:44:56Z</time>
      </trkpt>
      <trkpt lat="45.90166" lon="4.89662">
        <ele>300.1</ele>
        <time>2023-09-02T14:44:57Z</time>
      </trkpt>
      <trkpt lat="45.90164" lon="4.89659">
        <ele>300.1</ele>
        <time>2023-09-02T14:44:58Z</time>
      </trkpt>
      <trkpt lat="45.90162" lon="4.89655">
        <ele>300.1</ele>
        <time>2023-09-02T14:44:59Z</time>
      </trkpt>
      <trkpt lat="45.9016" lon="4.89652">
        <ele>300.2</ele>
        <time>2023-09-02T14:45:00Z</time>
      </trkpt>
      <trkpt lat="45.90158" lon="4.89649">
        <ele>300.2</ele>
        <time>2023-09-02T14:45:01Z</time>
      </trkpt>
      <trkpt lat="45.90157" lon="4.89645">
        <ele>300.2</ele>
        <time>2023-09-02T14:45:02Z</time>
      </trkpt>
      <trkpt lat="45.90155" lon="4.89641">
        <ele>300.2</ele>
        <time>2023-09-02T14:45:03Z</time>
      </trkpt>
      <trkpt lat="45.90154" lon="4.89639">
        <ele>300.2</ele>
        <time>2023-09-02T14:45:04Z</time>
      </trkpt>
      <trkpt lat="45.90152" lon="4.89636">
        <ele>300.3</ele>
        <time>2023-09-02T14:45:05Z</time>
      </trkpt>
      <trkpt lat="45.90151" lon="4.89635">
        <ele>300.3</ele>
        <time>2023-09-02T14:45:06Z</time>
      </trkpt>
      <trkpt lat="45.90148" lon="4.8963">
        <ele>300.3</ele>
        <time>2023-09-02T14:45:07Z</time>
      </trkpt>
      <trkpt lat="45.90148" lon="4.89629">
        <ele>300.3</ele>
        <time>2023-09-02T14:45:08Z</time>
      </trkpt>
      <trkpt lat="45.90145" lon="4.89624">
        <ele>300.3</ele>
        <time>2023-09-02T14:45:09Z</time>
      </trkpt>
      <trkpt lat="45.90145" lon="4.89623">
        <ele>300.4</ele>
        <time>2023-09-02T14:45:10Z</time>
      </trkpt>
      <trkpt lat="45.90142" lon="4.89618">
        <ele>300.4</ele>
        <time>2023-09-02T14:45:11Z</time>
      </trkpt>
      <trkpt lat="45.90142" lon="4.89617">
        <ele>300.4</ele>
        <time>2023-09-02T14:45:12Z</time>
      </trkpt>
      <trkpt lat="45.90139" lon="4.89613">
        <ele>300.5</ele>
        <time>2023-09-02T14:45:13Z</time>
      </trkpt>
      <trkpt lat="45.90138" lon="4.89611">
        <ele>300.5</ele>
        <time>2023-09-02T14:45:14Z</time>
      </trkpt>
      <trkpt lat="45.90136" lon="4.89607">
        <ele>300.5</ele>
        <time>2023-09-02T14:45:15Z</time>
      </trkpt>
      <trkpt lat="45.90136" lon="4.89605">
        <ele>300.5</ele>
        <time>2023-09-02T14:45:16Z</time>
      </trkpt>
      <trkpt lat="45.90133" lon="4.89601">
        <ele>300.6</ele>
        <time>2023-09-02T14:45:17Z</time>
      </trkpt>
      <trkpt lat="45.90133" lon="4.896">
        <ele>300.6</ele>
        <time>2023-09-02T14:45:18Z</time>
      </trkpt>
      <trkpt lat="45.9013" lon="4.89596">
        <ele>300.7</ele>
        <time>2023-09-02T14:45:19Z</time>
      </trkpt>
      <trkpt lat="45.9013" lon="4.89594">
        <ele>300.7</ele>
        <time>2023-09-02T14:45:20Z</time>
      </trkpt>
      <trkpt lat="45.90128" lon="4.8959">
        <ele>300.8</ele>
        <time>2023-09-02T14:45:21Z</time>
      </trkpt>
      <trkpt lat="45.90127" lon="4.89589">
        <ele>300.8</ele>
        <time>2023-09-02T14:45:22Z</time>
      </trkpt>
      <trkpt lat="45.90125" lon="4.89586">
        <ele>300.8</ele>
        <time>2023-09-02T14:45:23Z</time>
      </trkpt>
      <trkpt lat="45.90123" lon="4.89581">
        <ele>300.9</ele>
        <time>2023-09-02T14:45:24Z</time>
      </trkpt>
      <trkpt lat="45.90122" lon="4.8958">
        <ele>300.9</ele>
        <time>2023-09-02T14:45:25Z</time>
      </trkpt>
      <trkpt lat="45.9012" lon="4.89576">
        <ele>301</ele>
        <time>2023-09-02T14:45:26Z</time>
      </trkpt>
      <trkpt lat="45.90119" lon="4.89574">
        <ele>301</ele>
        <time>2023-09-02T14:45:27Z</time>
      </trkpt>
      <trkpt lat="45.90116" lon="4.8957">
        <ele>301</ele>
        <time>2023-09-02T14:45:28Z</time>
      </trkpt>
      <trkpt lat="45.90115" lon="4.89568">
        <ele>301</ele>
        <time>2023-09-02T14:45:29Z</time>
      </trkpt>
      <trkpt lat="45.90112" lon="4.89562">
        <ele>301.1</ele>
        <time>2023-09-02T14:45:30Z</time>
      </trkpt>
      <trkpt lat="45.90111" lon="4.89559">
        <ele>301.1</ele>
        <time>2023-09-02T14:45:31Z</time>
      </trkpt>
      <trkpt lat="45.90109" lon="4.89556">
        <ele>301.2</ele>
        <time>2023-09-02T14:45:32Z</time>
      </trkpt>
      <trkpt lat="45.90107" lon="4.89553">
        <ele>301.2</ele>
        <time>2023-09-02T14:45:33Z</time>
      </trkpt>
      <trkpt lat="45.90105" lon="4.8955">
        <ele>301.2</ele>
        <time>2023-09-02T14:45:34Z</time>
      </trkpt>
      <trkpt lat="45.90104" lon="4.89546">
        <ele>301.3</ele>
        <time>2023-09-02T14:45:35Z</time>
      </trkpt>
      <trkpt lat="45.90102" lon="4.89543">
        <ele>301.3</ele>
        <time>2023-09-02T14:45:36Z</time>
      </trkpt>
      <trkpt lat="45.901" lon="4.89538">
        <ele>301.3</ele>
        <time>2023-09-02T14:45:37Z</time>
      </trkpt>
      <trkpt lat="45.901" lon="4.89537">
        <ele>301.3</ele>
        <time>2023-09-02T14:45:38Z</time>
      </trkpt>
      <trkpt lat="45.90097" lon="4.89532">
        <ele>301.3</ele>
        <time>2023-09-02T14:45:39Z</time>
      </trkpt>
      <trkpt lat="45.90097" lon="4.89531">
        <ele>301.4</ele>
        <time>2023-09-02T14:45:40Z</time>
      </trkpt>
      <trkpt lat="45.90095" lon="4.89527">
        <ele>301.4</ele>
        <time>2023-09-02T14:45:41Z</time>
      </trkpt>
      <trkpt lat="45.90093" lon="4.89523">
        <ele>301.4</ele>
        <time>2023-09-02T14:45:42Z</time>
      </trkpt>
      <trkpt lat="45.90092" lon="4.89521">
        <ele>301.4</ele>
        <time>2023-09-02T14:45:43Z</time>
      </trkpt>
      <trkpt lat="45.9009" lon="4.89517">
        <ele>301.4</ele>
        <time>2023-09-02T14:45:44Z</time>
      </trkpt>
      <trkpt lat="45.90089" lon="4.89515">
        <ele>301.5</ele>
        <time>2023-09-02T14:45:45Z</time>
      </trkpt>
      <trkpt lat="45.90087" lon="4.89511">
        <ele>301.5</ele>
        <time>2023-09-02T14:45:46Z</time>
      </trkpt>
      <trkpt lat="45.90086" lon="4.89509">
        <ele>301.5</ele>
        <time>2023-09-02T14:45:47Z</time>
      </trkpt>
      <trkpt lat="45.90084" lon="4.89504">
        <ele>301.5</ele>
        <time>2023-09-02T14:45:48Z</time>
      </trkpt>
      <trkpt lat="45.90083" lon="4.89503">
        <ele>301.5</ele>
        <time>2023-09-02T14:45:49Z</time>
      </trkpt>
      <trkpt lat="45.90082" lon="4.89499">
        <ele>301.5</ele>
        <time>2023-09-02T14:45:50Z</time>
      </trkpt>
      <trkpt lat="45.9008" lon="4.89496">
        <ele>301.6</ele>
        <time>2023-09-02T14:45:51Z</time>
      </trkpt>
      <trkpt lat="45.90078" lon="4.89493">
        <ele>301.6</ele>
        <time>2023-09-02T14:45:52Z</time>
      </trkpt>
      <trkpt lat="45.90077" lon="4.8949">
        <ele>301.6</ele>
        <time>2023-09-02T14:45:53Z</time>
      </trkpt>
      <trkpt lat="45.90075" lon="4.89486">
        <ele>301.6</ele>
        <time>2023-09-02T14:45:54Z</time>
      </trkpt>
      <trkpt lat="45.90073" lon="4.89483">
        <ele>301.6</ele>
        <time>2023-09-02T14:45:55Z</time>
      </trkpt>
      <trkpt lat="45.90071" lon="4.89478">
        <ele>301.6</ele>
        <time>2023-09-02T14:45:56Z</time>
      </trkpt>
      <trkpt lat="45.9007" lon="4.89477">
        <ele>301.6</ele>
        <time>2023-09-02T14:45:57Z</time>
      </trkpt>
      <trkpt lat="45.90068" lon="4.89472">
        <ele>301.6</ele>
        <time>2023-09-02T14:45:58Z</time>
      </trkpt>
      <trkpt lat="45.90067" lon="4.89471">
        <ele>301.6</ele>
        <time>2023-09-02T14:45:59Z</time>
      </trkpt>
      <trkpt lat="45.90065" lon="4.89466">
        <ele>301.6</ele>
        <time>2023-09-02T14:46:00Z</time>
      </trkpt>
      <trkpt lat="45.90064" lon="4.89464">
        <ele>301.6</ele>
        <time>2023-09-02T14:46:01Z</time>
      </trkpt>
      <trkpt lat="45.90066" lon="4.89461">
        <ele>301.6</ele>
        <time>2023-09-02T14:46:02Z</time>
      </trkpt>
      <trkpt lat="45.90067" lon="4.89458">
        <ele>301.4</ele>
        <time>2023-09-02T14:46:03Z</time>
      </trkpt>
      <trkpt lat="45.90069" lon="4.89454">
        <ele>301.3</ele>
        <time>2023-09-02T14:46:04Z</time>
      </trkpt>
      <trkpt lat="45.90072" lon="4.89452">
        <ele>301.2</ele>
        <time>2023-09-02T14:46:05Z</time>
      </trkpt>
      <trkpt lat="45.90075" lon="4.8945">
        <ele>301.1</ele>
        <time>2023-09-02T14:46:06Z</time>
      </trkpt>
      <trkpt lat="45.90078" lon="4.8945">
        <ele>301</ele>
        <time>2023-09-02T14:46:07Z</time>
      </trkpt>
      <trkpt lat="45.90081" lon="4.89451">
        <ele>301</ele>
        <time>2023-09-02T14:46:08Z</time>
      </trkpt>
      <trkpt lat="45.90084" lon="4.8945">
        <ele>300.9</ele>
        <time>2023-09-02T14:46:09Z</time>
      </trkpt>
      <trkpt lat="45.90087" lon="4.89449">
        <ele>300.8</ele>
        <time>2023-09-02T14:46:10Z</time>
      </trkpt>
      <trkpt lat="45.90091" lon="4.89449">
        <ele>300.7</ele>
        <time>2023-09-02T14:46:11Z</time>
      </trkpt>
      <trkpt lat="45.90094" lon="4.89448">
        <ele>300.6</ele>
        <time>2023-09-02T14:46:12Z</time>
      </trkpt>
      <trkpt lat="45.90098" lon="4.89447">
        <ele>300.6</ele>
        <time>2023-09-02T14:46:13Z</time>
      </trkpt>
      <trkpt lat="45.90101" lon="4.89447">
        <ele>300.5</ele>
        <time>2023-09-02T14:46:14Z</time>
      </trkpt>
      <trkpt lat="45.90104" lon="4.89447">
        <ele>300.5</ele>
        <time>2023-09-02T14:46:15Z</time>
      </trkpt>
      <trkpt lat="45.90107" lon="4.89447">
        <ele>300.4</ele>
        <time>2023-09-02T14:46:16Z</time>
      </trkpt>
      <trkpt lat="45.90111" lon="4.89447">
        <ele>300.4</ele>
        <time>2023-09-02T14:46:17Z</time>
      </trkpt>
      <trkpt lat="45.90114" lon="4.89447">
        <ele>300.3</ele>
        <time>2023-09-02T14:46:18Z</time>
      </trkpt>
      <trkpt lat="45.90118" lon="4.89447">
        <ele>300.2</ele>
        <time>2023-09-02T14:46:19Z</time>
      </trkpt>
      <trkpt lat="45.90121" lon="4.89446">
        <ele>300.2</ele>
        <time>2023-09-02T14:46:20Z</time>
      </trkpt>
      <trkpt lat="45.90124" lon="4.89447">
        <ele>300.1</ele>
        <time>2023-09-02T14:46:21Z</time>
      </trkpt>
      <trkpt lat="45.90128" lon="4.89447">
        <ele>300.1</ele>
        <time>2023-09-02T14:46:22Z</time>
      </trkpt>
      <trkpt lat="45.90131" lon="4.89447">
        <ele>300</ele>
        <time>2023-09-02T14:46:24Z</time>
      </trkpt>
      <trkpt lat="45.90134" lon="4.89448">
        <ele>300</ele>
        <time>2023-09-02T14:46:25Z</time>
      </trkpt>
      <trkpt lat="45.90138" lon="4.89448">
        <ele>299.9</ele>
        <time>2023-09-02T14:46:26Z</time>
      </trkpt>
      <trkpt lat="45.90141" lon="4.89448">
        <ele>299.9</ele>
        <time>2023-09-02T14:46:27Z</time>
      </trkpt>
      <trkpt lat="45.90144" lon="4.89448">
        <ele>299.8</ele>
        <time>2023-09-02T14:46:28Z</time>
      </trkpt>
      <trkpt lat="45.90147" lon="4.89449">
        <ele>299.8</ele>
        <time>2023-09-02T14:46:29Z</time>
      </trkpt>
      <trkpt lat="45.90151" lon="4.89448">
        <ele>299.7</ele>
        <time>2023-09-02T14:46:30Z</time>
      </trkpt>
      <trkpt lat="45.90155" lon="4.89449">
        <ele>299.7</ele>
        <time>2023-09-02T14:46:31Z</time>
      </trkpt>
      <trkpt lat="45.90158" lon="4.89449">
        <ele>299.6</ele>
        <time>2023-09-02T14:46:32Z</time>
      </trkpt>
      <trkpt lat="45.90161" lon="4.89449">
        <ele>299.6</ele>
        <time>2023-09-02T14:46:33Z</time>
      </trkpt>
      <trkpt lat="45.90164" lon="4.8945">
        <ele>299.6</ele>
        <time>2023-09-02T14:46:34Z</time>
      </trkpt>
      <trkpt lat="45.90168" lon="4.8945">
        <ele>299.5</ele>
        <time>2023-09-02T14:46:35Z</time>
      </trkpt>
      <trkpt lat="45.90171" lon="4.8945">
        <ele>299.5</ele>
        <time>2023-09-02T14:46:36Z</time>
      </trkpt>
      <trkpt lat="45.90174" lon="4.89451">
        <ele>299.5</ele>
        <time>2023-09-02T14:46:37Z</time>
      </trkpt>
      <trkpt lat="45.90177" lon="4.89452">
        <ele>299.5</ele>
        <time>2023-09-02T14:46:38Z</time>
      </trkpt>
      <trkpt lat="45.9018" lon="4.89451">
        <ele>299.5</ele>
        <time>2023-09-02T14:46:39Z</time>
      </trkpt>
      <trkpt lat="45.90183" lon="4.89451">
        <ele>299.5</ele>
        <time>2023-09-02T14:46:40Z</time>
      </trkpt>
      <trkpt lat="45.90184" lon="4.89451">
        <ele>299.5</ele>
        <time>2023-09-02T14:46:41Z</time>
      </trkpt>
      <trkpt lat="45.90188" lon="4.89451">
        <ele>299.4</ele>
        <time>2023-09-02T14:46:42Z</time>
      </trkpt>
      <trkpt lat="45.90189" lon="4.8945">
        <ele>299.4</ele>
        <time>2023-09-02T14:46:43Z</time>
      </trkpt>
      <trkpt lat="45.90192" lon="4.89448">
        <ele>299.4</ele>
        <time>2023-09-02T14:46:44Z</time>
      </trkpt>
      <trkpt lat="45.90193" lon="4.89448">
        <ele>299.4</ele>
        <time>2023-09-02T14:46:45Z</time>
      </trkpt>
      <trkpt lat="45.90197" lon="4.89448">
        <ele>299.4</ele>
        <time>2023-09-02T14:46:46Z</time>
      </trkpt>
      <trkpt lat="45.90198" lon="4.89448">
        <ele>299.4</ele>
        <time>2023-09-02T14:46:47Z</time>
      </trkpt>
      <trkpt lat="45.90201" lon="4.89447">
        <ele>299.4</ele>
        <time>2023-09-02T14:46:48Z</time>
      </trkpt>
      <trkpt lat="45.90202" lon="4.89446">
        <ele>299.4</ele>
        <time>2023-09-02T14:46:49Z</time>
      </trkpt>
      <trkpt lat="45.90205" lon="4.89446">
        <ele>299.4</ele>
        <time>2023-09-02T14:46:50Z</time>
      </trkpt>
      <trkpt lat="45.90206" lon="4.89445">
        <ele>299.4</ele>
        <time>2023-09-02T14:46:51Z</time>
      </trkpt>
      <trkpt lat="45.90208" lon="4.89445">
        <ele>299.4</ele>
        <time>2023-09-02T14:46:52Z</time>
      </trkpt>
      <trkpt lat="45.9021" lon="4.89444">
        <ele>299.4</ele>
        <time>2023-09-02T14:46:53Z</time>
      </trkpt>
      <trkpt lat="45.90212" lon="4.89444">
        <ele>299.4</ele>
        <time>2023-09-02T14:46:54Z</time>
      </trkpt>
      <trkpt lat="45.90213" lon="4.89445">
        <ele>299.4</ele>
        <time>2023-09-02T14:46:55Z</time>
      </trkpt>
      <trkpt lat="45.90215" lon="4.89443">
        <ele>299.4</ele>
        <time>2023-09-02T14:46:56Z</time>
      </trkpt>
      <trkpt lat="45.90215" lon="4.89442">
        <ele>299.4</ele>
        <time>2023-09-02T14:46:57Z</time>
      </trkpt>
      <trkpt lat="45.90216" lon="4.8944">
        <ele>299.4</ele>
        <time>2023-09-02T14:46:58Z</time>
      </trkpt>
      <trkpt lat="45.90217" lon="4.8944">
        <ele>299.4</ele>
        <time>2023-09-02T14:46:59Z</time>
      </trkpt>
      <trkpt lat="45.90218" lon="4.8944">
        <ele>299.4</ele>
        <time>2023-09-02T14:47:00Z</time>
      </trkpt>
      <trkpt lat="45.90221" lon="4.89439">
        <ele>299.4</ele>
        <time>2023-09-02T14:47:01Z</time>
      </trkpt>
      <trkpt lat="45.90222" lon="4.89438">
        <ele>299.4</ele>
        <time>2023-09-02T14:47:02Z</time>
      </trkpt>
      <trkpt lat="45.90225" lon="4.89437">
        <ele>299.4</ele>
        <time>2023-09-02T14:47:03Z</time>
      </trkpt>
      <trkpt lat="45.90226" lon="4.89436">
        <ele>299.4</ele>
        <time>2023-09-02T14:47:04Z</time>
      </trkpt>
      <trkpt lat="45.9023" lon="4.89434">
        <ele>299.4</ele>
        <time>2023-09-02T14:47:05Z</time>
      </trkpt>
      <trkpt lat="45.90231" lon="4.89433">
        <ele>299.4</ele>
        <time>2023-09-02T14:47:06Z</time>
      </trkpt>
      <trkpt lat="45.90235" lon="4.89431">
        <ele>299.4</ele>
        <time>2023-09-02T14:47:07Z</time>
      </trkpt>
      <trkpt lat="45.90236" lon="4.8943">
        <ele>299.4</ele>
        <time>2023-09-02T14:47:08Z</time>
      </trkpt>
      <trkpt lat="45.9024" lon="4.89427">
        <ele>299.4</ele>
        <time>2023-09-02T14:47:09Z</time>
      </trkpt>
      <trkpt lat="45.90241" lon="4.89426">
        <ele>299.4</ele>
        <time>2023-09-02T14:47:10Z</time>
      </trkpt>
      <trkpt lat="45.90244" lon="4.89424">
        <ele>299.4</ele>
        <time>2023-09-02T14:47:11Z</time>
      </trkpt>
      <trkpt lat="45.90247" lon="4.89422">
        <ele>299.4</ele>
        <time>2023-09-02T14:47:12Z</time>
      </trkpt>
      <trkpt lat="45.9025" lon="4.89419">
        <ele>299.3</ele>
        <time>2023-09-02T14:47:13Z</time>
      </trkpt>
      <trkpt lat="45.90252" lon="4.89417">
        <ele>299.3</ele>
        <time>2023-09-02T14:47:14Z</time>
      </trkpt>
      <trkpt lat="45.90254" lon="4.89415">
        <ele>299.3</ele>
        <time>2023-09-02T14:47:15Z</time>
      </trkpt>
      <trkpt lat="45.90257" lon="4.89414">
        <ele>299.3</ele>
        <time>2023-09-02T14:47:16Z</time>
      </trkpt>
      <trkpt lat="45.9026" lon="4.89411">
        <ele>299.3</ele>
        <time>2023-09-02T14:47:17Z</time>
      </trkpt>
      <trkpt lat="45.90262" lon="4.89408">
        <ele>299.2</ele>
        <time>2023-09-02T14:47:18Z</time>
      </trkpt>
      <trkpt lat="45.90265" lon="4.89406">
        <ele>299.2</ele>
        <time>2023-09-02T14:47:19Z</time>
      </trkpt>
      <trkpt lat="45.90268" lon="4.89404">
        <ele>299.2</ele>
        <time>2023-09-02T14:47:20Z</time>
      </trkpt>
      <trkpt lat="45.9027" lon="4.89402">
        <ele>299.2</ele>
        <time>2023-09-02T14:47:21Z</time>
      </trkpt>
      <trkpt lat="45.90274" lon="4.894">
        <ele>299.1</ele>
        <time>2023-09-02T14:47:22Z</time>
      </trkpt>
      <trkpt lat="45.90276" lon="4.89398">
        <ele>299.1</ele>
        <time>2023-09-02T14:47:23Z</time>
      </trkpt>
      <trkpt lat="45.90279" lon="4.89397">
        <ele>299</ele>
        <time>2023-09-02T14:47:24Z</time>
      </trkpt>
      <trkpt lat="45.90282" lon="4.89395">
        <ele>299</ele>
        <time>2023-09-02T14:47:25Z</time>
      </trkpt>
      <trkpt lat="45.90285" lon="4.89393">
        <ele>298.9</ele>
        <time>2023-09-02T14:47:26Z</time>
      </trkpt>
      <trkpt lat="45.90289" lon="4.89391">
        <ele>298.8</ele>
        <time>2023-09-02T14:47:27Z</time>
      </trkpt>
      <trkpt lat="45.9029" lon="4.8939">
        <ele>298.8</ele>
        <time>2023-09-02T14:47:28Z</time>
      </trkpt>
      <trkpt lat="45.90293" lon="4.89388">
        <ele>298.7</ele>
        <time>2023-09-02T14:47:29Z</time>
      </trkpt>
      <trkpt lat="45.90296" lon="4.89386">
        <ele>298.6</ele>
        <time>2023-09-02T14:47:30Z</time>
      </trkpt>
      <trkpt lat="45.90299" lon="4.89384">
        <ele>298.5</ele>
        <time>2023-09-02T14:47:31Z</time>
      </trkpt>
      <trkpt lat="45.90302" lon="4.89381">
        <ele>298.4</ele>
        <time>2023-09-02T14:47:32Z</time>
      </trkpt>
      <trkpt lat="45.90305" lon="4.89379">
        <ele>298.2</ele>
        <time>2023-09-02T14:47:33Z</time>
      </trkpt>
      <trkpt lat="45.90309" lon="4.89378">
        <ele>298.1</ele>
        <time>2023-09-02T14:47:34Z</time>
      </trkpt>
      <trkpt lat="45.90313" lon="4.89375">
        <ele>297.9</ele>
        <time>2023-09-02T14:47:35Z</time>
      </trkpt>
      <trkpt lat="45.90316" lon="4.89374">
        <ele>297.8</ele>
        <time>2023-09-02T14:47:36Z</time>
      </trkpt>
      <trkpt lat="45.90324" lon="4.8937">
        <ele>297.5</ele>
        <time>2023-09-02T14:47:37Z</time>
      </trkpt>
      <trkpt lat="45.90328" lon="4.89368">
        <ele>297.3</ele>
        <time>2023-09-02T14:47:38Z</time>
      </trkpt>
      <trkpt lat="45.90333" lon="4.89366">
        <ele>297.1</ele>
        <time>2023-09-02T14:47:39Z</time>
      </trkpt>
      <trkpt lat="45.90337" lon="4.89364">
        <ele>296.9</ele>
        <time>2023-09-02T14:47:40Z</time>
      </trkpt>
      <trkpt lat="45.90341" lon="4.89362">
        <ele>296.7</ele>
        <time>2023-09-02T14:47:41Z</time>
      </trkpt>
      <trkpt lat="45.90346" lon="4.89361">
        <ele>296.5</ele>
        <time>2023-09-02T14:47:42Z</time>
      </trkpt>
      <trkpt lat="45.90351" lon="4.8936">
        <ele>296.3</ele>
        <time>2023-09-02T14:47:43Z</time>
      </trkpt>
      <trkpt lat="45.90357" lon="4.89359">
        <ele>296</ele>
        <time>2023-09-02T14:47:44Z</time>
      </trkpt>
      <trkpt lat="45.90362" lon="4.89358">
        <ele>295.8</ele>
        <time>2023-09-02T14:47:45Z</time>
      </trkpt>
      <trkpt lat="45.90367" lon="4.89357">
        <ele>295.6</ele>
        <time>2023-09-02T14:47:46Z</time>
      </trkpt>
      <trkpt lat="45.90373" lon="4.89356">
        <ele>295.4</ele>
        <time>2023-09-02T14:47:47Z</time>
      </trkpt>
      <trkpt lat="45.90378" lon="4.89355">
        <ele>295.3</ele>
        <time>2023-09-02T14:47:48Z</time>
      </trkpt>
      <trkpt lat="45.90384" lon="4.89354">
        <ele>295.2</ele>
        <time>2023-09-02T14:47:49Z</time>
      </trkpt>
      <trkpt lat="45.90389" lon="4.89353">
        <ele>295</ele>
        <time>2023-09-02T14:47:50Z</time>
      </trkpt>
      <trkpt lat="45.90394" lon="4.89353">
        <ele>295</ele>
        <time>2023-09-02T14:47:51Z</time>
      </trkpt>
      <trkpt lat="45.904" lon="4.89352">
        <ele>294.9</ele>
        <time>2023-09-02T14:47:52Z</time>
      </trkpt>
      <trkpt lat="45.90405" lon="4.89351">
        <ele>294.8</ele>
        <time>2023-09-02T14:47:53Z</time>
      </trkpt>
      <trkpt lat="45.9041" lon="4.89351">
        <ele>294.8</ele>
        <time>2023-09-02T14:47:54Z</time>
      </trkpt>
      <trkpt lat="45.90415" lon="4.8935">
        <ele>294.8</ele>
        <time>2023-09-02T14:47:55Z</time>
      </trkpt>
      <trkpt lat="45.90419" lon="4.89349">
        <ele>294.7</ele>
        <time>2023-09-02T14:47:56Z</time>
      </trkpt>
      <trkpt lat="45.90424" lon="4.89349">
        <ele>294.7</ele>
        <time>2023-09-02T14:47:57Z</time>
      </trkpt>
      <trkpt lat="45.90429" lon="4.89348">
        <ele>294.7</ele>
        <time>2023-09-02T14:47:58Z</time>
      </trkpt>
      <trkpt lat="45.90433" lon="4.89347">
        <ele>294.7</ele>
        <time>2023-09-02T14:47:59Z</time>
      </trkpt>
      <trkpt lat="45.90437" lon="4.89346">
        <ele>294.7</ele>
        <time>2023-09-02T14:48:00Z</time>
      </trkpt>
      <trkpt lat="45.90441" lon="4.89345">
        <ele>294.7</ele>
        <time>2023-09-02T14:48:01Z</time>
      </trkpt>
      <trkpt lat="45.90446" lon="4.89344">
        <ele>294.6</ele>
        <time>2023-09-02T14:48:02Z</time>
      </trkpt>
      <trkpt lat="45.9045" lon="4.89343">
        <ele>294.6</ele>
        <time>2023-09-02T14:48:03Z</time>
      </trkpt>
      <trkpt lat="45.90454" lon="4.89341">
        <ele>294.6</ele>
        <time>2023-09-02T14:48:04Z</time>
      </trkpt>
      <trkpt lat="45.90458" lon="4.8934">
        <ele>294.6</ele>
        <time>2023-09-02T14:48:05Z</time>
      </trkpt>
      <trkpt lat="45.90462" lon="4.89339">
        <ele>294.6</ele>
        <time>2023-09-02T14:48:06Z</time>
      </trkpt>
      <trkpt lat="45.90466" lon="4.89338">
        <ele>294.5</ele>
        <time>2023-09-02T14:48:07Z</time>
      </trkpt>
      <trkpt lat="45.90469" lon="4.89337">
        <ele>294.5</ele>
        <time>2023-09-02T14:48:08Z</time>
      </trkpt>
      <trkpt lat="45.90473" lon="4.89336">
        <ele>294.5</ele>
        <time>2023-09-02T14:48:09Z</time>
      </trkpt>
      <trkpt lat="45.90477" lon="4.89335">
        <ele>294.4</ele>
        <time>2023-09-02T14:48:10Z</time>
      </trkpt>
      <trkpt lat="45.90481" lon="4.89334">
        <ele>294.4</ele>
        <time>2023-09-02T14:48:11Z</time>
      </trkpt>
      <trkpt lat="45.90484" lon="4.89333">
        <ele>294.4</ele>
        <time>2023-09-02T14:48:12Z</time>
      </trkpt>
      <trkpt lat="45.90488" lon="4.89332">
        <ele>294.3</ele>
        <time>2023-09-02T14:48:13Z</time>
      </trkpt>
      <trkpt lat="45.90491" lon="4.89331">
        <ele>294.3</ele>
        <time>2023-09-02T14:48:14Z</time>
      </trkpt>
      <trkpt lat="45.90495" lon="4.89329">
        <ele>294.3</ele>
        <time>2023-09-02T14:48:15Z</time>
      </trkpt>
      <trkpt lat="45.90499" lon="4.89328">
        <ele>294.3</ele>
        <time>2023-09-02T14:48:16Z</time>
      </trkpt>
      <trkpt lat="45.90502" lon="4.89326">
        <ele>294.3</ele>
        <time>2023-09-02T14:48:17Z</time>
      </trkpt>
      <trkpt lat="45.90506" lon="4.89326">
        <ele>294.3</ele>
        <time>2023-09-02T14:48:18Z</time>
      </trkpt>
      <trkpt lat="45.90509" lon="4.89324">
        <ele>294.3</ele>
        <time>2023-09-02T14:48:19Z</time>
      </trkpt>
      <trkpt lat="45.90512" lon="4.89323">
        <ele>294.3</ele>
        <time>2023-09-02T14:48:20Z</time>
      </trkpt>
      <trkpt lat="45.90515" lon="4.89322">
        <ele>294.4</ele>
        <time>2023-09-02T14:48:21Z</time>
      </trkpt>
      <trkpt lat="45.90519" lon="4.89321">
        <ele>294.4</ele>
        <time>2023-09-02T14:48:22Z</time>
      </trkpt>
      <trkpt lat="45.90522" lon="4.8932">
        <ele>294.4</ele>
        <time>2023-09-02T14:48:23Z</time>
      </trkpt>
      <trkpt lat="45.90525" lon="4.89319">
        <ele>294.5</ele>
        <time>2023-09-02T14:48:24Z</time>
      </trkpt>
      <trkpt lat="45.90528" lon="4.89318">
        <ele>294.5</ele>
        <time>2023-09-02T14:48:26Z</time>
      </trkpt>
      <trkpt lat="45.90531" lon="4.89317">
        <ele>294.5</ele>
        <time>2023-09-02T14:48:27Z</time>
      </trkpt>
      <trkpt lat="45.90535" lon="4.89316">
        <ele>294.6</ele>
        <time>2023-09-02T14:48:28Z</time>
      </trkpt>
      <trkpt lat="45.90538" lon="4.89315">
        <ele>294.6</ele>
        <time>2023-09-02T14:48:29Z</time>
      </trkpt>
      <trkpt lat="45.90541" lon="4.89314">
        <ele>294.6</ele>
        <time>2023-09-02T14:48:30Z</time>
      </trkpt>
      <trkpt lat="45.90545" lon="4.89313">
        <ele>294.7</ele>
        <time>2023-09-02T14:48:31Z</time>
      </trkpt>
      <trkpt lat="45.90548" lon="4.89312">
        <ele>294.7</ele>
        <time>2023-09-02T14:48:32Z</time>
      </trkpt>
      <trkpt lat="45.90552" lon="4.89312">
        <ele>294.8</ele>
        <time>2023-09-02T14:48:33Z</time>
      </trkpt>
      <trkpt lat="45.90555" lon="4.89311">
        <ele>294.8</ele>
        <time>2023-09-02T14:48:34Z</time>
      </trkpt>
      <trkpt lat="45.90559" lon="4.8931">
        <ele>294.8</ele>
        <time>2023-09-02T14:48:35Z</time>
      </trkpt>
      <trkpt lat="45.90562" lon="4.89309">
        <ele>294.9</ele>
        <time>2023-09-02T14:48:36Z</time>
      </trkpt>
      <trkpt lat="45.90566" lon="4.89309">
        <ele>294.9</ele>
        <time>2023-09-02T14:48:37Z</time>
      </trkpt>
      <trkpt lat="45.90569" lon="4.89309">
        <ele>295</ele>
        <time>2023-09-02T14:48:38Z</time>
      </trkpt>
      <trkpt lat="45.90573" lon="4.89308">
        <ele>295</ele>
        <time>2023-09-02T14:48:39Z</time>
      </trkpt>
      <trkpt lat="45.90577" lon="4.89307">
        <ele>295.1</ele>
        <time>2023-09-02T14:48:40Z</time>
      </trkpt>
      <trkpt lat="45.9058" lon="4.89307">
        <ele>295.1</ele>
        <time>2023-09-02T14:48:41Z</time>
      </trkpt>
      <trkpt lat="45.90583" lon="4.89306">
        <ele>295.2</ele>
        <time>2023-09-02T14:48:42Z</time>
      </trkpt>
      <trkpt lat="45.90587" lon="4.89306">
        <ele>295.3</ele>
        <time>2023-09-02T14:48:43Z</time>
      </trkpt>
      <trkpt lat="45.90591" lon="4.89305">
        <ele>295.3</ele>
        <time>2023-09-02T14:48:44Z</time>
      </trkpt>
      <trkpt lat="45.90594" lon="4.89304">
        <ele>295.4</ele>
        <time>2023-09-02T14:48:45Z</time>
      </trkpt>
      <trkpt lat="45.90597" lon="4.89304">
        <ele>295.5</ele>
        <time>2023-09-02T14:48:46Z</time>
      </trkpt>
      <trkpt lat="45.90601" lon="4.89303">
        <ele>295.6</ele>
        <time>2023-09-02T14:48:47Z</time>
      </trkpt>
      <trkpt lat="45.90604" lon="4.89302">
        <ele>295.6</ele>
        <time>2023-09-02T14:48:48Z</time>
      </trkpt>
      <trkpt lat="45.90608" lon="4.89302">
        <ele>295.7</ele>
        <time>2023-09-02T14:48:49Z</time>
      </trkpt>
      <trkpt lat="45.90611" lon="4.89301">
        <ele>295.8</ele>
        <time>2023-09-02T14:48:50Z</time>
      </trkpt>
      <trkpt lat="45.90615" lon="4.893">
        <ele>295.9</ele>
        <time>2023-09-02T14:48:51Z</time>
      </trkpt>
      <trkpt lat="45.90618" lon="4.89299">
        <ele>296</ele>
        <time>2023-09-02T14:48:52Z</time>
      </trkpt>
      <trkpt lat="45.90622" lon="4.89299">
        <ele>296.1</ele>
        <time>2023-09-02T14:48:53Z</time>
      </trkpt>
      <trkpt lat="45.90625" lon="4.89298">
        <ele>296.2</ele>
        <time>2023-09-02T14:48:54Z</time>
      </trkpt>
      <trkpt lat="45.90629" lon="4.89297">
        <ele>296.3</ele>
        <time>2023-09-02T14:48:55Z</time>
      </trkpt>
      <trkpt lat="45.90632" lon="4.89296">
        <ele>296.4</ele>
        <time>2023-09-02T14:48:56Z</time>
      </trkpt>
      <trkpt lat="45.90635" lon="4.89296">
        <ele>296.5</ele>
        <time>2023-09-02T14:48:57Z</time>
      </trkpt>
      <trkpt lat="45.90638" lon="4.89295">
        <ele>296.5</ele>
        <time>2023-09-02T14:48:58Z</time>
      </trkpt>
      <trkpt lat="45.90642" lon="4.89294">
        <ele>296.6</ele>
        <time>2023-09-02T14:48:59Z</time>
      </trkpt>
      <trkpt lat="45.90645" lon="4.89294">
        <ele>296.7</ele>
        <time>2023-09-02T14:49:00Z</time>
      </trkpt>
      <trkpt lat="45.90648" lon="4.89293">
        <ele>296.7</ele>
        <time>2023-09-02T14:49:01Z</time>
      </trkpt>
      <trkpt lat="45.90651" lon="4.89293">
        <ele>296.8</ele>
        <time>2023-09-02T14:49:02Z</time>
      </trkpt>
      <trkpt lat="45.90655" lon="4.89292">
        <ele>296.8</ele>
        <time>2023-09-02T14:49:03Z</time>
      </trkpt>
      <trkpt lat="45.90658" lon="4.89291">
        <ele>296.8</ele>
        <time>2023-09-02T14:49:04Z</time>
      </trkpt>
      <trkpt lat="45.90661" lon="4.8929">
        <ele>296.8</ele>
        <time>2023-09-02T14:49:05Z</time>
      </trkpt>
      <trkpt lat="45.90664" lon="4.89289">
        <ele>296.7</ele>
        <time>2023-09-02T14:49:06Z</time>
      </trkpt>
      <trkpt lat="45.90667" lon="4.89288">
        <ele>296.7</ele>
        <time>2023-09-02T14:49:07Z</time>
      </trkpt>
      <trkpt lat="45.90671" lon="4.89287">
        <ele>296.6</ele>
        <time>2023-09-02T14:49:08Z</time>
      </trkpt>
      <trkpt lat="45.90675" lon="4.89286">
        <ele>296.6</ele>
        <time>2023-09-02T14:49:09Z</time>
      </trkpt>
      <trkpt lat="45.90679" lon="4.89284">
        <ele>296.5</ele>
        <time>2023-09-02T14:49:10Z</time>
      </trkpt>
      <trkpt lat="45.90683" lon="4.89283">
        <ele>296.4</ele>
        <time>2023-09-02T14:49:11Z</time>
      </trkpt>
      <trkpt lat="45.90687" lon="4.89282">
        <ele>296.3</ele>
        <time>2023-09-02T14:49:12Z</time>
      </trkpt>
      <trkpt lat="45.90691" lon="4.8928">
        <ele>296.2</ele>
        <time>2023-09-02T14:49:13Z</time>
      </trkpt>
      <trkpt lat="45.90695" lon="4.89279">
        <ele>296.1</ele>
        <time>2023-09-02T14:49:14Z</time>
      </trkpt>
      <trkpt lat="45.90699" lon="4.89278">
        <ele>295.9</ele>
        <time>2023-09-02T14:49:15Z</time>
      </trkpt>
      <trkpt lat="45.90704" lon="4.89276">
        <ele>295.9</ele>
        <time>2023-09-02T14:49:16Z</time>
      </trkpt>
      <trkpt lat="45.90708" lon="4.89274">
        <ele>295.8</ele>
        <time>2023-09-02T14:49:17Z</time>
      </trkpt>
      <trkpt lat="45.90713" lon="4.89272">
        <ele>295.7</ele>
        <time>2023-09-02T14:49:18Z</time>
      </trkpt>
      <trkpt lat="45.90718" lon="4.89271">
        <ele>295.6</ele>
        <time>2023-09-02T14:49:19Z</time>
      </trkpt>
      <trkpt lat="45.90723" lon="4.89269">
        <ele>295.5</ele>
        <time>2023-09-02T14:49:20Z</time>
      </trkpt>
      <trkpt lat="45.90727" lon="4.89268">
        <ele>295.4</ele>
        <time>2023-09-02T14:49:21Z</time>
      </trkpt>
      <trkpt lat="45.90732" lon="4.89266">
        <ele>295.3</ele>
        <time>2023-09-02T14:49:22Z</time>
      </trkpt>
      <trkpt lat="45.90737" lon="4.89265">
        <ele>295.2</ele>
        <time>2023-09-02T14:49:23Z</time>
      </trkpt>
      <trkpt lat="45.90743" lon="4.89263">
        <ele>295.2</ele>
        <time>2023-09-02T14:49:24Z</time>
      </trkpt>
      <trkpt lat="45.90748" lon="4.89262">
        <ele>295.1</ele>
        <time>2023-09-02T14:49:25Z</time>
      </trkpt>
      <trkpt lat="45.90753" lon="4.8926">
        <ele>295</ele>
        <time>2023-09-02T14:49:26Z</time>
      </trkpt>
      <trkpt lat="45.90758" lon="4.89258">
        <ele>295</ele>
        <time>2023-09-02T14:49:27Z</time>
      </trkpt>
      <trkpt lat="45.90763" lon="4.89256">
        <ele>295</ele>
        <time>2023-09-02T14:49:28Z</time>
      </trkpt>
      <trkpt lat="45.90767" lon="4.89255">
        <ele>294.9</ele>
        <time>2023-09-02T14:49:29Z</time>
      </trkpt>
      <trkpt lat="45.9077" lon="4.89254">
        <ele>294.9</ele>
        <time>2023-09-02T14:49:30Z</time>
      </trkpt>
      <trkpt lat="45.90772" lon="4.89254">
        <ele>294.9</ele>
        <time>2023-09-02T14:49:31Z</time>
      </trkpt>
      <trkpt lat="45.90773" lon="4.89253">
        <ele>294.9</ele>
        <time>2023-09-02T14:49:32Z</time>
      </trkpt>
      <trkpt lat="45.90773" lon="4.89253">
        <ele>294.9</ele>
        <time>2023-09-02T14:49:33Z</time>
      </trkpt>
      <trkpt lat="45.90774" lon="4.89252">
        <ele>294.9</ele>
        <time>2023-09-02T14:49:34Z</time>
      </trkpt>
      <trkpt lat="45.90774" lon="4.89252">
        <ele>294.9</ele>
        <time>2023-09-02T14:49:35Z</time>
      </trkpt>
      <trkpt lat="45.90775" lon="4.89252">
        <ele>294.9</ele>
        <time>2023-09-02T14:49:36Z</time>
      </trkpt>
      <trkpt lat="45.90775" lon="4.89252">
        <ele>294.9</ele>
        <time>2023-09-02T14:49:37Z</time>
      </trkpt>
      <trkpt lat="45.90776" lon="4.89251">
        <ele>294.9</ele>
        <time>2023-09-02T14:49:38Z</time>
      </trkpt>
      <trkpt lat="45.90776" lon="4.89251">
        <ele>294.9</ele>
        <time>2023-09-02T14:49:39Z</time>
      </trkpt>
      <trkpt lat="45.90777" lon="4.89251">
        <ele>294.9</ele>
        <time>2023-09-02T14:49:40Z</time>
      </trkpt>
      <trkpt lat="45.90777" lon="4.89251">
        <ele>294.9</ele>
        <time>2023-09-02T14:49:41Z</time>
      </trkpt>
      <trkpt lat="45.9078" lon="4.8925">
        <ele>294.9</ele>
        <time>2023-09-02T14:49:42Z</time>
      </trkpt>
      <trkpt lat="45.90785" lon="4.89248">
        <ele>294.8</ele>
        <time>2023-09-02T14:49:43Z</time>
      </trkpt>
      <trkpt lat="45.90788" lon="4.89247">
        <ele>294.7</ele>
        <time>2023-09-02T14:49:44Z</time>
      </trkpt>
      <trkpt lat="45.90791" lon="4.89244">
        <ele>294.7</ele>
        <time>2023-09-02T14:49:45Z</time>
      </trkpt>
      <trkpt lat="45.90794" lon="4.89243">
        <ele>294.6</ele>
        <time>2023-09-02T14:49:46Z</time>
      </trkpt>
      <trkpt lat="45.90798" lon="4.89241">
        <ele>294.5</ele>
        <time>2023-09-02T14:49:47Z</time>
      </trkpt>
      <trkpt lat="45.90801" lon="4.8924">
        <ele>294.5</ele>
        <time>2023-09-02T14:49:48Z</time>
      </trkpt>
      <trkpt lat="45.90805" lon="4.89238">
        <ele>294.4</ele>
        <time>2023-09-02T14:49:49Z</time>
      </trkpt>
      <trkpt lat="45.90808" lon="4.89236">
        <ele>294.4</ele>
        <time>2023-09-02T14:49:50Z</time>
      </trkpt>
      <trkpt lat="45.90812" lon="4.89234">
        <ele>294.3</ele>
        <time>2023-09-02T14:49:51Z</time>
      </trkpt>
      <trkpt lat="45.90815" lon="4.89232">
        <ele>294.3</ele>
        <time>2023-09-02T14:49:52Z</time>
      </trkpt>
      <trkpt lat="45.90819" lon="4.8923">
        <ele>294.2</ele>
        <time>2023-09-02T14:49:53Z</time>
      </trkpt>
      <trkpt lat="45.90822" lon="4.89228">
        <ele>294.2</ele>
        <time>2023-09-02T14:49:54Z</time>
      </trkpt>
      <trkpt lat="45.90826" lon="4.89226">
        <ele>294.2</ele>
        <time>2023-09-02T14:49:55Z</time>
      </trkpt>
      <trkpt lat="45.9083" lon="4.89225">
        <ele>294.1</ele>
        <time>2023-09-02T14:49:56Z</time>
      </trkpt>
      <trkpt lat="45.90833" lon="4.89223">
        <ele>294.1</ele>
        <time>2023-09-02T14:49:57Z</time>
      </trkpt>
      <trkpt lat="45.90837" lon="4.89221">
        <ele>294</ele>
        <time>2023-09-02T14:49:58Z</time>
      </trkpt>
      <trkpt lat="45.9084" lon="4.89219">
        <ele>294</ele>
        <time>2023-09-02T14:49:59Z</time>
      </trkpt>
      <trkpt lat="45.90844" lon="4.89218">
        <ele>294</ele>
        <time>2023-09-02T14:50:00Z</time>
      </trkpt>
      <trkpt lat="45.90848" lon="4.89216">
        <ele>293.9</ele>
        <time>2023-09-02T14:50:01Z</time>
      </trkpt>
      <trkpt lat="45.90851" lon="4.89215">
        <ele>293.9</ele>
        <time>2023-09-02T14:50:02Z</time>
      </trkpt>
      <trkpt lat="45.90855" lon="4.89213">
        <ele>293.9</ele>
        <time>2023-09-02T14:50:03Z</time>
      </trkpt>
      <trkpt lat="45.90858" lon="4.89211">
        <ele>293.8</ele>
        <time>2023-09-02T14:50:04Z</time>
      </trkpt>
      <trkpt lat="45.90861" lon="4.89209">
        <ele>293.8</ele>
        <time>2023-09-02T14:50:05Z</time>
      </trkpt>
      <trkpt lat="45.90865" lon="4.89207">
        <ele>293.8</ele>
        <time>2023-09-02T14:50:06Z</time>
      </trkpt>
      <trkpt lat="45.90868" lon="4.89206">
        <ele>293.8</ele>
        <time>2023-09-02T14:50:07Z</time>
      </trkpt>
      <trkpt lat="45.90871" lon="4.89204">
        <ele>293.8</ele>
        <time>2023-09-02T14:50:08Z</time>
      </trkpt>
      <trkpt lat="45.90875" lon="4.89202">
        <ele>293.8</ele>
        <time>2023-09-02T14:50:09Z</time>
      </trkpt>
      <trkpt lat="45.90878" lon="4.89201">
        <ele>293.8</ele>
        <time>2023-09-02T14:50:10Z</time>
      </trkpt>
      <trkpt lat="45.90882" lon="4.89199">
        <ele>293.8</ele>
        <time>2023-09-02T14:50:11Z</time>
      </trkpt>
      <trkpt lat="45.90885" lon="4.89198">
        <ele>293.8</ele>
        <time>2023-09-02T14:50:12Z</time>
      </trkpt>
      <trkpt lat="45.90889" lon="4.89196">
        <ele>293.8</ele>
        <time>2023-09-02T14:50:13Z</time>
      </trkpt>
      <trkpt lat="45.90892" lon="4.89194">
        <ele>293.8</ele>
        <time>2023-09-02T14:50:14Z</time>
      </trkpt>
      <trkpt lat="45.90896" lon="4.89193">
        <ele>293.8</ele>
        <time>2023-09-02T14:50:15Z</time>
      </trkpt>
      <trkpt lat="45.90899" lon="4.89191">
        <ele>293.8</ele>
        <time>2023-09-02T14:50:16Z</time>
      </trkpt>
      <trkpt lat="45.90903" lon="4.89189">
        <ele>293.9</ele>
        <time>2023-09-02T14:50:17Z</time>
      </trkpt>
      <trkpt lat="45.90906" lon="4.89188">
        <ele>293.9</ele>
        <time>2023-09-02T14:50:18Z</time>
      </trkpt>
      <trkpt lat="45.9091" lon="4.89186">
        <ele>294</ele>
        <time>2023-09-02T14:50:19Z</time>
      </trkpt>
      <trkpt lat="45.90913" lon="4.89184">
        <ele>294</ele>
        <time>2023-09-02T14:50:20Z</time>
      </trkpt>
      <trkpt lat="45.90917" lon="4.89183">
        <ele>294</ele>
        <time>2023-09-02T14:50:21Z</time>
      </trkpt>
      <trkpt lat="45.9092" lon="4.89182">
        <ele>294.1</ele>
        <time>2023-09-02T14:50:22Z</time>
      </trkpt>
      <trkpt lat="45.90923" lon="4.8918">
        <ele>294.1</ele>
        <time>2023-09-02T14:50:23Z</time>
      </trkpt>
      <trkpt lat="45.90926" lon="4.89179">
        <ele>294.1</ele>
        <time>2023-09-02T14:50:24Z</time>
      </trkpt>
      <trkpt lat="45.9093" lon="4.89177">
        <ele>294.2</ele>
        <time>2023-09-02T14:50:26Z</time>
      </trkpt>
      <trkpt lat="45.90933" lon="4.89176">
        <ele>294.2</ele>
        <time>2023-09-02T14:50:27Z</time>
      </trkpt>
      <trkpt lat="45.90936" lon="4.89175">
        <ele>294.3</ele>
        <time>2023-09-02T14:50:28Z</time>
      </trkpt>
      <trkpt lat="45.9094" lon="4.89174">
        <ele>294.3</ele>
        <time>2023-09-02T14:50:29Z</time>
      </trkpt>
      <trkpt lat="45.90943" lon="4.89172">
        <ele>294.4</ele>
        <time>2023-09-02T14:50:30Z</time>
      </trkpt>
      <trkpt lat="45.90946" lon="4.89171">
        <ele>294.4</ele>
        <time>2023-09-02T14:50:31Z</time>
      </trkpt>
      <trkpt lat="45.90949" lon="4.89169">
        <ele>294.5</ele>
        <time>2023-09-02T14:50:32Z</time>
      </trkpt>
      <trkpt lat="45.90953" lon="4.89168">
        <ele>294.5</ele>
        <time>2023-09-02T14:50:33Z</time>
      </trkpt>
      <trkpt lat="45.90956" lon="4.89167">
        <ele>294.5</ele>
        <time>2023-09-02T14:50:34Z</time>
      </trkpt>
      <trkpt lat="45.90959" lon="4.89166">
        <ele>294.6</ele>
        <time>2023-09-02T14:50:35Z</time>
      </trkpt>
      <trkpt lat="45.90961" lon="4.89164">
        <ele>294.6</ele>
        <time>2023-09-02T14:50:36Z</time>
      </trkpt>
      <trkpt lat="45.90965" lon="4.89163">
        <ele>294.6</ele>
        <time>2023-09-02T14:50:37Z</time>
      </trkpt>
      <trkpt lat="45.90968" lon="4.89162">
        <ele>294.6</ele>
        <time>2023-09-02T14:50:38Z</time>
      </trkpt>
      <trkpt lat="45.90972" lon="4.89161">
        <ele>294.6</ele>
        <time>2023-09-02T14:50:39Z</time>
      </trkpt>
      <trkpt lat="45.90976" lon="4.89159">
        <ele>294.5</ele>
        <time>2023-09-02T14:50:40Z</time>
      </trkpt>
      <trkpt lat="45.90979" lon="4.89157">
        <ele>294.5</ele>
        <time>2023-09-02T14:50:41Z</time>
      </trkpt>
      <trkpt lat="45.90982" lon="4.89156">
        <ele>294.5</ele>
        <time>2023-09-02T14:50:42Z</time>
      </trkpt>
      <trkpt lat="45.90986" lon="4.89155">
        <ele>294.4</ele>
        <time>2023-09-02T14:50:43Z</time>
      </trkpt>
      <trkpt lat="45.9099" lon="4.89153">
        <ele>294.4</ele>
        <time>2023-09-02T14:50:44Z</time>
      </trkpt>
      <trkpt lat="45.90994" lon="4.89151">
        <ele>294.3</ele>
        <time>2023-09-02T14:50:45Z</time>
      </trkpt>
      <trkpt lat="45.90997" lon="4.8915">
        <ele>294.3</ele>
        <time>2023-09-02T14:50:46Z</time>
      </trkpt>
      <trkpt lat="45.91002" lon="4.89148">
        <ele>294.2</ele>
        <time>2023-09-02T14:50:47Z</time>
      </trkpt>
      <trkpt lat="45.91006" lon="4.89147">
        <ele>294.1</ele>
        <time>2023-09-02T14:50:48Z</time>
      </trkpt>
      <trkpt lat="45.91011" lon="4.89145">
        <ele>294</ele>
        <time>2023-09-02T14:50:49Z</time>
      </trkpt>
      <trkpt lat="45.91016" lon="4.89144">
        <ele>293.9</ele>
        <time>2023-09-02T14:50:50Z</time>
      </trkpt>
      <trkpt lat="45.91021" lon="4.89142">
        <ele>293.8</ele>
        <time>2023-09-02T14:50:51Z</time>
      </trkpt>
      <trkpt lat="45.91026" lon="4.8914">
        <ele>293.7</ele>
        <time>2023-09-02T14:50:52Z</time>
      </trkpt>
      <trkpt lat="45.91031" lon="4.89139">
        <ele>293.6</ele>
        <time>2023-09-02T14:50:53Z</time>
      </trkpt>
      <trkpt lat="45.91036" lon="4.89138">
        <ele>293.6</ele>
        <time>2023-09-02T14:50:54Z</time>
      </trkpt>
      <trkpt lat="45.91041" lon="4.89136">
        <ele>293.5</ele>
        <time>2023-09-02T14:50:55Z</time>
      </trkpt>
      <trkpt lat="45.91045" lon="4.89135">
        <ele>293.5</ele>
        <time>2023-09-02T14:50:56Z</time>
      </trkpt>
      <trkpt lat="45.91051" lon="4.89133">
        <ele>293.4</ele>
        <time>2023-09-02T14:50:57Z</time>
      </trkpt>
      <trkpt lat="45.91056" lon="4.89132">
        <ele>293.3</ele>
        <time>2023-09-02T14:50:58Z</time>
      </trkpt>
      <trkpt lat="45.91061" lon="4.89131">
        <ele>293.3</ele>
        <time>2023-09-02T14:50:59Z</time>
      </trkpt>
      <trkpt lat="45.91066" lon="4.89129">
        <ele>293.3</ele>
        <time>2023-09-02T14:51:00Z</time>
      </trkpt>
      <trkpt lat="45.91072" lon="4.89128">
        <ele>293.2</ele>
        <time>2023-09-02T14:51:01Z</time>
      </trkpt>
      <trkpt lat="45.91076" lon="4.89127">
        <ele>293.2</ele>
        <time>2023-09-02T14:51:02Z</time>
      </trkpt>
      <trkpt lat="45.91081" lon="4.89125">
        <ele>293.2</ele>
        <time>2023-09-02T14:51:03Z</time>
      </trkpt>
      <trkpt lat="45.91086" lon="4.89124">
        <ele>293.1</ele>
        <time>2023-09-02T14:51:04Z</time>
      </trkpt>
      <trkpt lat="45.91091" lon="4.89123">
        <ele>293.1</ele>
        <time>2023-09-02T14:51:05Z</time>
      </trkpt>
      <trkpt lat="45.91096" lon="4.89122">
        <ele>293.1</ele>
        <time>2023-09-02T14:51:06Z</time>
      </trkpt>
      <trkpt lat="45.91101" lon="4.8912">
        <ele>293.1</ele>
        <time>2023-09-02T14:51:07Z</time>
      </trkpt>
      <trkpt lat="45.91105" lon="4.89118">
        <ele>293.1</ele>
        <time>2023-09-02T14:51:08Z</time>
      </trkpt>
      <trkpt lat="45.9111" lon="4.89117">
        <ele>293.1</ele>
        <time>2023-09-02T14:51:09Z</time>
      </trkpt>
      <trkpt lat="45.91114" lon="4.89115">
        <ele>293.1</ele>
        <time>2023-09-02T14:51:10Z</time>
      </trkpt>
      <trkpt lat="45.91118" lon="4.89115">
        <ele>293.1</ele>
        <time>2023-09-02T14:51:11Z</time>
      </trkpt>
      <trkpt lat="45.91123" lon="4.89113">
        <ele>293.1</ele>
        <time>2023-09-02T14:51:12Z</time>
      </trkpt>
      <trkpt lat="45.91127" lon="4.89112">
        <ele>293.2</ele>
        <time>2023-09-02T14:51:13Z</time>
      </trkpt>
      <trkpt lat="45.91131" lon="4.89111">
        <ele>293.2</ele>
        <time>2023-09-02T14:51:14Z</time>
      </trkpt>
      <trkpt lat="45.91135" lon="4.8911">
        <ele>293.2</ele>
        <time>2023-09-02T14:51:15Z</time>
      </trkpt>
      <trkpt lat="45.91139" lon="4.89108">
        <ele>293.2</ele>
        <time>2023-09-02T14:51:16Z</time>
      </trkpt>
      <trkpt lat="45.91143" lon="4.89107">
        <ele>293.2</ele>
        <time>2023-09-02T14:51:17Z</time>
      </trkpt>
      <trkpt lat="45.91147" lon="4.89106">
        <ele>293.2</ele>
        <time>2023-09-02T14:51:18Z</time>
      </trkpt>
      <trkpt lat="45.91151" lon="4.89104">
        <ele>293.2</ele>
        <time>2023-09-02T14:51:19Z</time>
      </trkpt>
      <trkpt lat="45.91155" lon="4.89103">
        <ele>293.2</ele>
        <time>2023-09-02T14:51:20Z</time>
      </trkpt>
      <trkpt lat="45.91158" lon="4.89102">
        <ele>293.2</ele>
        <time>2023-09-02T14:51:21Z</time>
      </trkpt>
      <trkpt lat="45.91161" lon="4.89101">
        <ele>293.2</ele>
        <time>2023-09-02T14:51:22Z</time>
      </trkpt>
      <trkpt lat="45.91165" lon="4.891">
        <ele>293.2</ele>
        <time>2023-09-02T14:51:23Z</time>
      </trkpt>
      <trkpt lat="45.91168" lon="4.89099">
        <ele>293.2</ele>
        <time>2023-09-02T14:51:24Z</time>
      </trkpt>
      <trkpt lat="45.91171" lon="4.89098">
        <ele>293.2</ele>
        <time>2023-09-02T14:51:25Z</time>
      </trkpt>
      <trkpt lat="45.91174" lon="4.89097">
        <ele>293.2</ele>
        <time>2023-09-02T14:51:26Z</time>
      </trkpt>
      <trkpt lat="45.91177" lon="4.89096">
        <ele>293.2</ele>
        <time>2023-09-02T14:51:27Z</time>
      </trkpt>
      <trkpt lat="45.9118" lon="4.89095">
        <ele>293.2</ele>
        <time>2023-09-02T14:51:28Z</time>
      </trkpt>
      <trkpt lat="45.91183" lon="4.89094">
        <ele>293.2</ele>
        <time>2023-09-02T14:51:29Z</time>
      </trkpt>
      <trkpt lat="45.91185" lon="4.89094">
        <ele>293.2</ele>
        <time>2023-09-02T14:51:30Z</time>
      </trkpt>
      <trkpt lat="45.91188" lon="4.89095">
        <ele>293.2</ele>
        <time>2023-09-02T14:51:31Z</time>
      </trkpt>
      <trkpt lat="45.9119" lon="4.89095">
        <ele>293.2</ele>
        <time>2023-09-02T14:51:32Z</time>
      </trkpt>
      <trkpt lat="45.91193" lon="4.89098">
        <ele>293.3</ele>
        <time>2023-09-02T14:51:33Z</time>
      </trkpt>
      <trkpt lat="45.91194" lon="4.89099">
        <ele>293.3</ele>
        <time>2023-09-02T14:51:34Z</time>
      </trkpt>
      <trkpt lat="45.91196" lon="4.89102">
        <ele>293.3</ele>
        <time>2023-09-02T14:51:35Z</time>
      </trkpt>
      <trkpt lat="45.91196" lon="4.89103">
        <ele>293.4</ele>
        <time>2023-09-02T14:51:36Z</time>
      </trkpt>
      <trkpt lat="45.91199" lon="4.89107">
        <ele>293.4</ele>
        <time>2023-09-02T14:51:37Z</time>
      </trkpt>
      <trkpt lat="45.91199" lon="4.89108">
        <ele>293.5</ele>
        <time>2023-09-02T14:51:38Z</time>
      </trkpt>
      <trkpt lat="45.91201" lon="4.89112">
        <ele>293.5</ele>
        <time>2023-09-02T14:51:39Z</time>
      </trkpt>
      <trkpt lat="45.91203" lon="4.89116">
        <ele>293.6</ele>
        <time>2023-09-02T14:51:40Z</time>
      </trkpt>
      <trkpt lat="45.91204" lon="4.89118">
        <ele>293.6</ele>
        <time>2023-09-02T14:51:41Z</time>
      </trkpt>
      <trkpt lat="45.91206" lon="4.89122">
        <ele>293.7</ele>
        <time>2023-09-02T14:51:42Z</time>
      </trkpt>
      <trkpt lat="45.91208" lon="4.89126">
        <ele>293.8</ele>
        <time>2023-09-02T14:51:43Z</time>
      </trkpt>
      <trkpt lat="45.91209" lon="4.89128">
        <ele>293.8</ele>
        <time>2023-09-02T14:51:44Z</time>
      </trkpt>
      <trkpt lat="45.91211" lon="4.89133">
        <ele>293.9</ele>
        <time>2023-09-02T14:51:45Z</time>
      </trkpt>
      <trkpt lat="45.91212" lon="4.89134">
        <ele>293.9</ele>
        <time>2023-09-02T14:51:46Z</time>
      </trkpt>
      <trkpt lat="45.91214" lon="4.89139">
        <ele>294</ele>
        <time>2023-09-02T14:51:47Z</time>
      </trkpt>
      <trkpt lat="45.91215" lon="4.89141">
        <ele>294.1</ele>
        <time>2023-09-02T14:51:48Z</time>
      </trkpt>
      <trkpt lat="45.91217" lon="4.89148">
        <ele>294.2</ele>
        <time>2023-09-02T14:51:49Z</time>
      </trkpt>
      <trkpt lat="45.91219" lon="4.89153">
        <ele>294.2</ele>
        <time>2023-09-02T14:51:50Z</time>
      </trkpt>
      <trkpt lat="45.9122" lon="4.89154">
        <ele>294.3</ele>
        <time>2023-09-02T14:51:51Z</time>
      </trkpt>
      <trkpt lat="45.91223" lon="4.89159">
        <ele>294.3</ele>
        <time>2023-09-02T14:51:52Z</time>
      </trkpt>
      <trkpt lat="45.91224" lon="4.89161">
        <ele>294.3</ele>
        <time>2023-09-02T14:51:53Z</time>
      </trkpt>
      <trkpt lat="45.91226" lon="4.89165">
        <ele>294.4</ele>
        <time>2023-09-02T14:51:54Z</time>
      </trkpt>
      <trkpt lat="45.91226" lon="4.89167">
        <ele>294.4</ele>
        <time>2023-09-02T14:51:55Z</time>
      </trkpt>
      <trkpt lat="45.91227" lon="4.8917">
        <ele>294.5</ele>
        <time>2023-09-02T14:51:56Z</time>
      </trkpt>
      <trkpt lat="45.91229" lon="4.89174">
        <ele>294.5</ele>
        <time>2023-09-02T14:51:57Z</time>
      </trkpt>
      <trkpt lat="45.9123" lon="4.89177">
        <ele>294.5</ele>
        <time>2023-09-02T14:51:58Z</time>
      </trkpt>
      <trkpt lat="45.91233" lon="4.89182">
        <ele>294.6</ele>
        <time>2023-09-02T14:51:59Z</time>
      </trkpt>
      <trkpt lat="45.91234" lon="4.89183">
        <ele>294.6</ele>
        <time>2023-09-02T14:52:00Z</time>
      </trkpt>
      <trkpt lat="45.91236" lon="4.89187">
        <ele>294.7</ele>
        <time>2023-09-02T14:52:01Z</time>
      </trkpt>
      <trkpt lat="45.91238" lon="4.89191">
        <ele>294.7</ele>
        <time>2023-09-02T14:52:02Z</time>
      </trkpt>
      <trkpt lat="45.91239" lon="4.89193">
        <ele>294.7</ele>
        <time>2023-09-02T14:52:03Z</time>
      </trkpt>
      <trkpt lat="45.9124" lon="4.89196">
        <ele>294.7</ele>
        <time>2023-09-02T14:52:04Z</time>
      </trkpt>
      <trkpt lat="45.91242" lon="4.89201">
        <ele>294.8</ele>
        <time>2023-09-02T14:52:05Z</time>
      </trkpt>
      <trkpt lat="45.91243" lon="4.89203">
        <ele>294.8</ele>
        <time>2023-09-02T14:52:06Z</time>
      </trkpt>
      <trkpt lat="45.91245" lon="4.89206">
        <ele>294.8</ele>
        <time>2023-09-02T14:52:07Z</time>
      </trkpt>
      <trkpt lat="45.91246" lon="4.8921">
        <ele>294.9</ele>
        <time>2023-09-02T14:52:08Z</time>
      </trkpt>
      <trkpt lat="45.91248" lon="4.89215">
        <ele>295</ele>
        <time>2023-09-02T14:52:09Z</time>
      </trkpt>
      <trkpt lat="45.91249" lon="4.89216">
        <ele>295</ele>
        <time>2023-09-02T14:52:10Z</time>
      </trkpt>
      <trkpt lat="45.9125" lon="4.89219">
        <ele>295</ele>
        <time>2023-09-02T14:52:11Z</time>
      </trkpt>
      <trkpt lat="45.91252" lon="4.89223">
        <ele>295.1</ele>
        <time>2023-09-02T14:52:13Z</time>
      </trkpt>
      <trkpt lat="45.91254" lon="4.89228">
        <ele>295.2</ele>
        <time>2023-09-02T14:52:14Z</time>
      </trkpt>
      <trkpt lat="45.91255" lon="4.8923">
        <ele>295.3</ele>
        <time>2023-09-02T14:52:15Z</time>
      </trkpt>
      <trkpt lat="45.91257" lon="4.89234">
        <ele>295.4</ele>
        <time>2023-09-02T14:52:16Z</time>
      </trkpt>
      <trkpt lat="45.91258" lon="4.89235">
        <ele>295.4</ele>
        <time>2023-09-02T14:52:17Z</time>
      </trkpt>
      <trkpt lat="45.9126" lon="4.89239">
        <ele>295.4</ele>
        <time>2023-09-02T14:52:18Z</time>
      </trkpt>
      <trkpt lat="45.91262" lon="4.89244">
        <ele>295.5</ele>
        <time>2023-09-02T14:52:19Z</time>
      </trkpt>
      <trkpt lat="45.91263" lon="4.89245">
        <ele>295.5</ele>
        <time>2023-09-02T14:52:20Z</time>
      </trkpt>
      <trkpt lat="45.91264" lon="4.89249">
        <ele>295.5</ele>
        <time>2023-09-02T14:52:21Z</time>
      </trkpt>
      <trkpt lat="45.91267" lon="4.89253">
        <ele>295.5</ele>
        <time>2023-09-02T14:52:22Z</time>
      </trkpt>
      <trkpt lat="45.91268" lon="4.89255">
        <ele>295.5</ele>
        <time>2023-09-02T14:52:23Z</time>
      </trkpt>
      <trkpt lat="45.91269" lon="4.89259">
        <ele>295.5</ele>
        <time>2023-09-02T14:52:24Z</time>
      </trkpt>
      <trkpt lat="45.91272" lon="4.89263">
        <ele>295.5</ele>
        <time>2023-09-02T14:52:25Z</time>
      </trkpt>
      <trkpt lat="45.91273" lon="4.89267">
        <ele>295.4</ele>
        <time>2023-09-02T14:52:26Z</time>
      </trkpt>
      <trkpt lat="45.91274" lon="4.89271">
        <ele>295.4</ele>
        <time>2023-09-02T14:52:27Z</time>
      </trkpt>
      <trkpt lat="45.91276" lon="4.89275">
        <ele>295.4</ele>
        <time>2023-09-02T14:52:28Z</time>
      </trkpt>
      <trkpt lat="45.91279" lon="4.8928">
        <ele>295.4</ele>
        <time>2023-09-02T14:52:29Z</time>
      </trkpt>
      <trkpt lat="45.9128" lon="4.89282">
        <ele>295.4</ele>
        <time>2023-09-02T14:52:30Z</time>
      </trkpt>
      <trkpt lat="45.91281" lon="4.89286">
        <ele>295.3</ele>
        <time>2023-09-02T14:52:31Z</time>
      </trkpt>
      <trkpt lat="45.91283" lon="4.8929">
        <ele>295.3</ele>
        <time>2023-09-02T14:52:32Z</time>
      </trkpt>
      <trkpt lat="45.91284" lon="4.89294">
        <ele>295.3</ele>
        <time>2023-09-02T14:52:33Z</time>
      </trkpt>
      <trkpt lat="45.91286" lon="4.89297">
        <ele>295.3</ele>
        <time>2023-09-02T14:52:34Z</time>
      </trkpt>
      <trkpt lat="45.91288" lon="4.89301">
        <ele>295.3</ele>
        <time>2023-09-02T14:52:35Z</time>
      </trkpt>
      <trkpt lat="45.9129" lon="4.89305">
        <ele>295.2</ele>
        <time>2023-09-02T14:52:36Z</time>
      </trkpt>
      <trkpt lat="45.91291" lon="4.89309">
        <ele>295.2</ele>
        <time>2023-09-02T14:52:37Z</time>
      </trkpt>
      <trkpt lat="45.91293" lon="4.89313">
        <ele>295.2</ele>
        <time>2023-09-02T14:52:38Z</time>
      </trkpt>
      <trkpt lat="45.91294" lon="4.89317">
        <ele>295.2</ele>
        <time>2023-09-02T14:52:39Z</time>
      </trkpt>
      <trkpt lat="45.91296" lon="4.89321">
        <ele>295.2</ele>
        <time>2023-09-02T14:52:40Z</time>
      </trkpt>
      <trkpt lat="45.91298" lon="4.89326">
        <ele>295.1</ele>
        <time>2023-09-02T14:52:41Z</time>
      </trkpt>
      <trkpt lat="45.913" lon="4.8933">
        <ele>295.1</ele>
        <time>2023-09-02T14:52:42Z</time>
      </trkpt>
      <trkpt lat="45.91301" lon="4.89334">
        <ele>295.1</ele>
        <time>2023-09-02T14:52:43Z</time>
      </trkpt>
      <trkpt lat="45.91303" lon="4.89338">
        <ele>295.1</ele>
        <time>2023-09-02T14:52:44Z</time>
      </trkpt>
      <trkpt lat="45.91304" lon="4.89342">
        <ele>295</ele>
        <time>2023-09-02T14:52:45Z</time>
      </trkpt>
      <trkpt lat="45.91306" lon="4.89346">
        <ele>295</ele>
        <time>2023-09-02T14:52:46Z</time>
      </trkpt>
      <trkpt lat="45.91307" lon="4.8935">
        <ele>295</ele>
        <time>2023-09-02T14:52:47Z</time>
      </trkpt>
      <trkpt lat="45.91308" lon="4.89354">
        <ele>295</ele>
        <time>2023-09-02T14:52:48Z</time>
      </trkpt>
      <trkpt lat="45.9131" lon="4.89358">
        <ele>295</ele>
        <time>2023-09-02T14:52:49Z</time>
      </trkpt>
      <trkpt lat="45.91311" lon="4.89363">
        <ele>295</ele>
        <time>2023-09-02T14:52:50Z</time>
      </trkpt>
      <trkpt lat="45.91312" lon="4.89368">
        <ele>295</ele>
        <time>2023-09-02T14:52:51Z</time>
      </trkpt>
      <trkpt lat="45.91313" lon="4.89372">
        <ele>295.1</ele>
        <time>2023-09-02T14:52:52Z</time>
      </trkpt>
      <trkpt lat="45.91315" lon="4.89376">
        <ele>295.1</ele>
        <time>2023-09-02T14:52:53Z</time>
      </trkpt>
      <trkpt lat="45.91316" lon="4.8938">
        <ele>295.1</ele>
        <time>2023-09-02T14:52:54Z</time>
      </trkpt>
      <trkpt lat="45.91317" lon="4.89385">
        <ele>295.1</ele>
        <time>2023-09-02T14:52:55Z</time>
      </trkpt>
      <trkpt lat="45.91317" lon="4.89389">
        <ele>295.1</ele>
        <time>2023-09-02T14:52:56Z</time>
      </trkpt>
      <trkpt lat="45.91318" lon="4.89393">
        <ele>295.1</ele>
        <time>2023-09-02T14:52:57Z</time>
      </trkpt>
      <trkpt lat="45.91319" lon="4.89397">
        <ele>295.1</ele>
        <time>2023-09-02T14:52:58Z</time>
      </trkpt>
      <trkpt lat="45.9132" lon="4.89401">
        <ele>295.1</ele>
        <time>2023-09-02T14:52:59Z</time>
      </trkpt>
      <trkpt lat="45.91321" lon="4.89406">
        <ele>295.1</ele>
        <time>2023-09-02T14:53:00Z</time>
      </trkpt>
      <trkpt lat="45.91321" lon="4.8941">
        <ele>295.1</ele>
        <time>2023-09-02T14:53:01Z</time>
      </trkpt>
      <trkpt lat="45.91322" lon="4.89415">
        <ele>295.1</ele>
        <time>2023-09-02T14:53:02Z</time>
      </trkpt>
      <trkpt lat="45.91323" lon="4.89419">
        <ele>295</ele>
        <time>2023-09-02T14:53:03Z</time>
      </trkpt>
      <trkpt lat="45.91323" lon="4.89425">
        <ele>294.9</ele>
        <time>2023-09-02T14:53:04Z</time>
      </trkpt>
      <trkpt lat="45.91324" lon="4.89429">
        <ele>294.8</ele>
        <time>2023-09-02T14:53:05Z</time>
      </trkpt>
      <trkpt lat="45.91324" lon="4.89435">
        <ele>294.6</ele>
        <time>2023-09-02T14:53:06Z</time>
      </trkpt>
      <trkpt lat="45.91325" lon="4.8944">
        <ele>294.5</ele>
        <time>2023-09-02T14:53:07Z</time>
      </trkpt>
      <trkpt lat="45.91325" lon="4.89446">
        <ele>294.3</ele>
        <time>2023-09-02T14:53:08Z</time>
      </trkpt>
      <trkpt lat="45.91326" lon="4.89452">
        <ele>294.1</ele>
        <time>2023-09-02T14:53:09Z</time>
      </trkpt>
      <trkpt lat="45.91326" lon="4.89458">
        <ele>293.9</ele>
        <time>2023-09-02T14:53:10Z</time>
      </trkpt>
      <trkpt lat="45.91327" lon="4.89464">
        <ele>293.8</ele>
        <time>2023-09-02T14:53:11Z</time>
      </trkpt>
      <trkpt lat="45.91327" lon="4.8947">
        <ele>293.7</ele>
        <time>2023-09-02T14:53:12Z</time>
      </trkpt>
      <trkpt lat="45.91328" lon="4.89477">
        <ele>293.6</ele>
        <time>2023-09-02T14:53:13Z</time>
      </trkpt>
      <trkpt lat="45.91328" lon="4.89482">
        <ele>293.5</ele>
        <time>2023-09-02T14:53:14Z</time>
      </trkpt>
      <trkpt lat="45.91328" lon="4.89487">
        <ele>293.5</ele>
        <time>2023-09-02T14:53:15Z</time>
      </trkpt>
      <trkpt lat="45.91328" lon="4.89493">
        <ele>293.4</ele>
        <time>2023-09-02T14:53:16Z</time>
      </trkpt>
      <trkpt lat="45.91329" lon="4.89499">
        <ele>293.3</ele>
        <time>2023-09-02T14:53:17Z</time>
      </trkpt>
      <trkpt lat="45.91329" lon="4.89504">
        <ele>293.3</ele>
        <time>2023-09-02T14:53:18Z</time>
      </trkpt>
      <trkpt lat="45.91329" lon="4.8951">
        <ele>293.2</ele>
        <time>2023-09-02T14:53:19Z</time>
      </trkpt>
      <trkpt lat="45.91329" lon="4.89516">
        <ele>293.1</ele>
        <time>2023-09-02T14:53:20Z</time>
      </trkpt>
      <trkpt lat="45.91328" lon="4.8952">
        <ele>293.1</ele>
        <time>2023-09-02T14:53:21Z</time>
      </trkpt>
      <trkpt lat="45.91329" lon="4.89527">
        <ele>293</ele>
        <time>2023-09-02T14:53:22Z</time>
      </trkpt>
      <trkpt lat="45.91329" lon="4.89532">
        <ele>293</ele>
        <time>2023-09-02T14:53:23Z</time>
      </trkpt>
      <trkpt lat="45.91329" lon="4.89538">
        <ele>292.9</ele>
        <time>2023-09-02T14:53:24Z</time>
      </trkpt>
      <trkpt lat="45.91329" lon="4.89543">
        <ele>292.9</ele>
        <time>2023-09-02T14:53:25Z</time>
      </trkpt>
      <trkpt lat="45.91329" lon="4.89549">
        <ele>292.8</ele>
        <time>2023-09-02T14:53:26Z</time>
      </trkpt>
      <trkpt lat="45.91328" lon="4.89554">
        <ele>292.7</ele>
        <time>2023-09-02T14:53:27Z</time>
      </trkpt>
      <trkpt lat="45.91329" lon="4.89559">
        <ele>292.6</ele>
        <time>2023-09-02T14:53:28Z</time>
      </trkpt>
      <trkpt lat="45.91329" lon="4.89565">
        <ele>292.5</ele>
        <time>2023-09-02T14:53:29Z</time>
      </trkpt>
      <trkpt lat="45.91329" lon="4.8957">
        <ele>292.4</ele>
        <time>2023-09-02T14:53:30Z</time>
      </trkpt>
      <trkpt lat="45.91329" lon="4.89575">
        <ele>292.3</ele>
        <time>2023-09-02T14:53:31Z</time>
      </trkpt>
      <trkpt lat="45.9133" lon="4.89581">
        <ele>292.3</ele>
        <time>2023-09-02T14:53:32Z</time>
      </trkpt>
      <trkpt lat="45.9133" lon="4.89585">
        <ele>292.2</ele>
        <time>2023-09-02T14:53:33Z</time>
      </trkpt>
      <trkpt lat="45.9133" lon="4.8959">
        <ele>292.2</ele>
        <time>2023-09-02T14:53:34Z</time>
      </trkpt>
      <trkpt lat="45.9133" lon="4.89595">
        <ele>292.2</ele>
        <time>2023-09-02T14:53:35Z</time>
      </trkpt>
      <trkpt lat="45.91331" lon="4.896">
        <ele>292.1</ele>
        <time>2023-09-02T14:53:36Z</time>
      </trkpt>
      <trkpt lat="45.91332" lon="4.89605">
        <ele>292.1</ele>
        <time>2023-09-02T14:53:37Z</time>
      </trkpt>
      <trkpt lat="45.91332" lon="4.8961">
        <ele>292.1</ele>
        <time>2023-09-02T14:53:38Z</time>
      </trkpt>
      <trkpt lat="45.91333" lon="4.89615">
        <ele>292.1</ele>
        <time>2023-09-02T14:53:39Z</time>
      </trkpt>
      <trkpt lat="45.91333" lon="4.8962">
        <ele>292</ele>
        <time>2023-09-02T14:53:40Z</time>
      </trkpt>
      <trkpt lat="45.91334" lon="4.89625">
        <ele>292</ele>
        <time>2023-09-02T14:53:41Z</time>
      </trkpt>
      <trkpt lat="45.91335" lon="4.8963">
        <ele>292</ele>
        <time>2023-09-02T14:53:42Z</time>
      </trkpt>
      <trkpt lat="45.91336" lon="4.89634">
        <ele>292</ele>
        <time>2023-09-02T14:53:43Z</time>
      </trkpt>
      <trkpt lat="45.91337" lon="4.89639">
        <ele>291.9</ele>
        <time>2023-09-02T14:53:44Z</time>
      </trkpt>
      <trkpt lat="45.91338" lon="4.89644">
        <ele>291.9</ele>
        <time>2023-09-02T14:53:45Z</time>
      </trkpt>
      <trkpt lat="45.91339" lon="4.89649">
        <ele>291.9</ele>
        <time>2023-09-02T14:53:46Z</time>
      </trkpt>
      <trkpt lat="45.91341" lon="4.89653">
        <ele>291.8</ele>
        <time>2023-09-02T14:53:47Z</time>
      </trkpt>
      <trkpt lat="45.91343" lon="4.89658">
        <ele>291.8</ele>
        <time>2023-09-02T14:53:48Z</time>
      </trkpt>
      <trkpt lat="45.91344" lon="4.89663">
        <ele>291.8</ele>
        <time>2023-09-02T14:53:49Z</time>
      </trkpt>
      <trkpt lat="45.91346" lon="4.89667">
        <ele>291.7</ele>
        <time>2023-09-02T14:53:50Z</time>
      </trkpt>
      <trkpt lat="45.91348" lon="4.89672">
        <ele>291.7</ele>
        <time>2023-09-02T14:53:51Z</time>
      </trkpt>
      <trkpt lat="45.9135" lon="4.89677">
        <ele>291.7</ele>
        <time>2023-09-02T14:53:52Z</time>
      </trkpt>
      <trkpt lat="45.91352" lon="4.89681">
        <ele>291.6</ele>
        <time>2023-09-02T14:53:53Z</time>
      </trkpt>
      <trkpt lat="45.91354" lon="4.89686">
        <ele>291.6</ele>
        <time>2023-09-02T14:53:54Z</time>
      </trkpt>
      <trkpt lat="45.91356" lon="4.8969">
        <ele>291.6</ele>
        <time>2023-09-02T14:53:55Z</time>
      </trkpt>
      <trkpt lat="45.91358" lon="4.89694">
        <ele>291.5</ele>
        <time>2023-09-02T14:53:56Z</time>
      </trkpt>
      <trkpt lat="45.91361" lon="4.89699">
        <ele>291.5</ele>
        <time>2023-09-02T14:53:57Z</time>
      </trkpt>
      <trkpt lat="45.91363" lon="4.89704">
        <ele>291.5</ele>
        <time>2023-09-02T14:53:58Z</time>
      </trkpt>
      <trkpt lat="45.91365" lon="4.89708">
        <ele>291.4</ele>
        <time>2023-09-02T14:53:59Z</time>
      </trkpt>
      <trkpt lat="45.91367" lon="4.89712">
        <ele>291.4</ele>
        <time>2023-09-02T14:54:00Z</time>
      </trkpt>
      <trkpt lat="45.91369" lon="4.89716">
        <ele>291.3</ele>
        <time>2023-09-02T14:54:01Z</time>
      </trkpt>
      <trkpt lat="45.91371" lon="4.8972">
        <ele>291.3</ele>
        <time>2023-09-02T14:54:02Z</time>
      </trkpt>
      <trkpt lat="45.91373" lon="4.89724">
        <ele>291.3</ele>
        <time>2023-09-02T14:54:03Z</time>
      </trkpt>
      <trkpt lat="45.91375" lon="4.89728">
        <ele>291.2</ele>
        <time>2023-09-02T14:54:04Z</time>
      </trkpt>
      <trkpt lat="45.91377" lon="4.89732">
        <ele>291.2</ele>
        <time>2023-09-02T14:54:05Z</time>
      </trkpt>
      <trkpt lat="45.91379" lon="4.89736">
        <ele>291.2</ele>
        <time>2023-09-02T14:54:06Z</time>
      </trkpt>
      <trkpt lat="45.91381" lon="4.8974">
        <ele>291.1</ele>
        <time>2023-09-02T14:54:07Z</time>
      </trkpt>
      <trkpt lat="45.91383" lon="4.89743">
        <ele>291.1</ele>
        <time>2023-09-02T14:54:08Z</time>
      </trkpt>
      <trkpt lat="45.91385" lon="4.89746">
        <ele>291.1</ele>
        <time>2023-09-02T14:54:09Z</time>
      </trkpt>
      <trkpt lat="45.91386" lon="4.8975">
        <ele>291</ele>
        <time>2023-09-02T14:54:10Z</time>
      </trkpt>
      <trkpt lat="45.91388" lon="4.89753">
        <ele>291</ele>
        <time>2023-09-02T14:54:11Z</time>
      </trkpt>
      <trkpt lat="45.9139" lon="4.89758">
        <ele>291</ele>
        <time>2023-09-02T14:54:12Z</time>
      </trkpt>
      <trkpt lat="45.91391" lon="4.8976">
        <ele>290.9</ele>
        <time>2023-09-02T14:54:13Z</time>
      </trkpt>
      <trkpt lat="45.91393" lon="4.89763">
        <ele>290.9</ele>
        <time>2023-09-02T14:54:14Z</time>
      </trkpt>
      <trkpt lat="45.91394" lon="4.89764">
        <ele>290.9</ele>
        <time>2023-09-02T14:54:15Z</time>
      </trkpt>
      <trkpt lat="45.91396" lon="4.89767">
        <ele>290.9</ele>
        <time>2023-09-02T14:54:16Z</time>
      </trkpt>
      <trkpt lat="45.91398" lon="4.8977">
        <ele>290.8</ele>
        <time>2023-09-02T14:54:17Z</time>
      </trkpt>
      <trkpt lat="45.914" lon="4.89774">
        <ele>290.8</ele>
        <time>2023-09-02T14:54:18Z</time>
      </trkpt>
      <trkpt lat="45.91401" lon="4.89777">
        <ele>290.8</ele>
        <time>2023-09-02T14:54:19Z</time>
      </trkpt>
      <trkpt lat="45.91404" lon="4.89781">
        <ele>290.8</ele>
        <time>2023-09-02T14:54:20Z</time>
      </trkpt>
      <trkpt lat="45.91406" lon="4.89786">
        <ele>290.7</ele>
        <time>2023-09-02T14:54:21Z</time>
      </trkpt>
      <trkpt lat="45.91408" lon="4.89789">
        <ele>290.7</ele>
        <time>2023-09-02T14:54:22Z</time>
      </trkpt>
      <trkpt lat="45.9141" lon="4.89793">
        <ele>290.7</ele>
        <time>2023-09-02T14:54:23Z</time>
      </trkpt>
      <trkpt lat="45.91412" lon="4.89797">
        <ele>290.7</ele>
        <time>2023-09-02T14:54:24Z</time>
      </trkpt>
      <trkpt lat="45.91415" lon="4.89801">
        <ele>290.7</ele>
        <time>2023-09-02T14:54:25Z</time>
      </trkpt>
      <trkpt lat="45.91417" lon="4.89805">
        <ele>290.7</ele>
        <time>2023-09-02T14:54:26Z</time>
      </trkpt>
      <trkpt lat="45.9142" lon="4.89808">
        <ele>290.7</ele>
        <time>2023-09-02T14:54:27Z</time>
      </trkpt>
      <trkpt lat="45.91422" lon="4.89812">
        <ele>290.7</ele>
        <time>2023-09-02T14:54:28Z</time>
      </trkpt>
      <trkpt lat="45.91424" lon="4.89816">
        <ele>290.7</ele>
        <time>2023-09-02T14:54:29Z</time>
      </trkpt>
      <trkpt lat="45.91426" lon="4.89819">
        <ele>290.6</ele>
        <time>2023-09-02T14:54:30Z</time>
      </trkpt>
      <trkpt lat="45.91429" lon="4.89823">
        <ele>290.7</ele>
        <time>2023-09-02T14:54:31Z</time>
      </trkpt>
      <trkpt lat="45.91432" lon="4.89827">
        <ele>290.7</ele>
        <time>2023-09-02T14:54:32Z</time>
      </trkpt>
      <trkpt lat="45.91433" lon="4.8983">
        <ele>290.7</ele>
        <time>2023-09-02T14:54:33Z</time>
      </trkpt>
      <trkpt lat="45.91435" lon="4.89834">
        <ele>290.7</ele>
        <time>2023-09-02T14:54:34Z</time>
      </trkpt>
      <trkpt lat="45.91438" lon="4.89838">
        <ele>290.8</ele>
        <time>2023-09-02T14:54:35Z</time>
      </trkpt>
      <trkpt lat="45.9144" lon="4.89841">
        <ele>290.8</ele>
        <time>2023-09-02T14:54:36Z</time>
      </trkpt>
      <trkpt lat="45.91442" lon="4.89844">
        <ele>290.8</ele>
        <time>2023-09-02T14:54:37Z</time>
      </trkpt>
      <trkpt lat="45.91445" lon="4.89848">
        <ele>290.9</ele>
        <time>2023-09-02T14:54:38Z</time>
      </trkpt>
      <trkpt lat="45.91447" lon="4.89852">
        <ele>290.9</ele>
        <time>2023-09-02T14:54:39Z</time>
      </trkpt>
      <trkpt lat="45.91449" lon="4.89855">
        <ele>291</ele>
        <time>2023-09-02T14:54:40Z</time>
      </trkpt>
      <trkpt lat="45.91451" lon="4.89859">
        <ele>291</ele>
        <time>2023-09-02T14:54:41Z</time>
      </trkpt>
      <trkpt lat="45.91453" lon="4.89863">
        <ele>291</ele>
        <time>2023-09-02T14:54:42Z</time>
      </trkpt>
      <trkpt lat="45.91455" lon="4.89866">
        <ele>291</ele>
        <time>2023-09-02T14:54:43Z</time>
      </trkpt>
      <trkpt lat="45.91457" lon="4.8987">
        <ele>291</ele>
        <time>2023-09-02T14:54:44Z</time>
      </trkpt>
      <trkpt lat="45.91459" lon="4.89874">
        <ele>291.1</ele>
        <time>2023-09-02T14:54:45Z</time>
      </trkpt>
      <trkpt lat="45.91461" lon="4.89877">
        <ele>291.1</ele>
        <time>2023-09-02T14:54:46Z</time>
      </trkpt>
      <trkpt lat="45.91463" lon="4.89881">
        <ele>291.1</ele>
        <time>2023-09-02T14:54:47Z</time>
      </trkpt>
      <trkpt lat="45.91465" lon="4.89885">
        <ele>291.1</ele>
        <time>2023-09-02T14:54:48Z</time>
      </trkpt>
      <trkpt lat="45.91466" lon="4.89889">
        <ele>291.1</ele>
        <time>2023-09-02T14:54:49Z</time>
      </trkpt>
      <trkpt lat="45.91468" lon="4.89893">
        <ele>291.2</ele>
        <time>2023-09-02T14:54:50Z</time>
      </trkpt>
      <trkpt lat="45.9147" lon="4.89897">
        <ele>291.2</ele>
        <time>2023-09-02T14:54:51Z</time>
      </trkpt>
      <trkpt lat="45.91472" lon="4.899">
        <ele>291.2</ele>
        <time>2023-09-02T14:54:52Z</time>
      </trkpt>
      <trkpt lat="45.91475" lon="4.89904">
        <ele>291.3</ele>
        <time>2023-09-02T14:54:53Z</time>
      </trkpt>
      <trkpt lat="45.91477" lon="4.89908">
        <ele>291.3</ele>
        <time>2023-09-02T14:54:54Z</time>
      </trkpt>
      <trkpt lat="45.91479" lon="4.89912">
        <ele>291.3</ele>
        <time>2023-09-02T14:54:55Z</time>
      </trkpt>
      <trkpt lat="45.9148" lon="4.89916">
        <ele>291.4</ele>
        <time>2023-09-02T14:54:56Z</time>
      </trkpt>
      <trkpt lat="45.91482" lon="4.8992">
        <ele>291.4</ele>
        <time>2023-09-02T14:54:57Z</time>
      </trkpt>
      <trkpt lat="45.91484" lon="4.89923">
        <ele>291.4</ele>
        <time>2023-09-02T14:54:58Z</time>
      </trkpt>
      <trkpt lat="45.91486" lon="4.89927">
        <ele>291.5</ele>
        <time>2023-09-02T14:54:59Z</time>
      </trkpt>
      <trkpt lat="45.91488" lon="4.89931">
        <ele>291.5</ele>
        <time>2023-09-02T14:55:00Z</time>
      </trkpt>
      <trkpt lat="45.91491" lon="4.89935">
        <ele>291.5</ele>
        <time>2023-09-02T14:55:01Z</time>
      </trkpt>
      <trkpt lat="45.91493" lon="4.89939">
        <ele>291.6</ele>
        <time>2023-09-02T14:55:02Z</time>
      </trkpt>
      <trkpt lat="45.91495" lon="4.89943">
        <ele>291.6</ele>
        <time>2023-09-02T14:55:03Z</time>
      </trkpt>
      <trkpt lat="45.91497" lon="4.89947">
        <ele>291.6</ele>
        <time>2023-09-02T14:55:04Z</time>
      </trkpt>
      <trkpt lat="45.91499" lon="4.8995">
        <ele>291.7</ele>
        <time>2023-09-02T14:55:05Z</time>
      </trkpt>
      <trkpt lat="45.91501" lon="4.89954">
        <ele>291.7</ele>
        <time>2023-09-02T14:55:06Z</time>
      </trkpt>
      <trkpt lat="45.91503" lon="4.89958">
        <ele>291.7</ele>
        <time>2023-09-02T14:55:07Z</time>
      </trkpt>
      <trkpt lat="45.91505" lon="4.89962">
        <ele>291.7</ele>
        <time>2023-09-02T14:55:08Z</time>
      </trkpt>
      <trkpt lat="45.91507" lon="4.89966">
        <ele>291.8</ele>
        <time>2023-09-02T14:55:09Z</time>
      </trkpt>
      <trkpt lat="45.91509" lon="4.89969">
        <ele>291.8</ele>
        <time>2023-09-02T14:55:10Z</time>
      </trkpt>
      <trkpt lat="45.91511" lon="4.89973">
        <ele>291.8</ele>
        <time>2023-09-02T14:55:11Z</time>
      </trkpt>
      <trkpt lat="45.91512" lon="4.89976">
        <ele>291.9</ele>
        <time>2023-09-02T14:55:12Z</time>
      </trkpt>
      <trkpt lat="45.91514" lon="4.8998">
        <ele>291.9</ele>
        <time>2023-09-02T14:55:13Z</time>
      </trkpt>
      <trkpt lat="45.91515" lon="4.89983">
        <ele>291.9</ele>
        <time>2023-09-02T14:55:14Z</time>
      </trkpt>
      <trkpt lat="45.91517" lon="4.89987">
        <ele>291.9</ele>
        <time>2023-09-02T14:55:15Z</time>
      </trkpt>
      <trkpt lat="45.91519" lon="4.89991">
        <ele>291.9</ele>
        <time>2023-09-02T14:55:16Z</time>
      </trkpt>
      <trkpt lat="45.91521" lon="4.89995">
        <ele>291.9</ele>
        <time>2023-09-02T14:55:17Z</time>
      </trkpt>
      <trkpt lat="45.91522" lon="4.89999">
        <ele>292</ele>
        <time>2023-09-02T14:55:18Z</time>
      </trkpt>
      <trkpt lat="45.91524" lon="4.90003">
        <ele>292</ele>
        <time>2023-09-02T14:55:19Z</time>
      </trkpt>
      <trkpt lat="45.91526" lon="4.90007">
        <ele>292</ele>
        <time>2023-09-02T14:55:20Z</time>
      </trkpt>
      <trkpt lat="45.91527" lon="4.90011">
        <ele>292.1</ele>
        <time>2023-09-02T14:55:21Z</time>
      </trkpt>
      <trkpt lat="45.91529" lon="4.90015">
        <ele>292.1</ele>
        <time>2023-09-02T14:55:22Z</time>
      </trkpt>
      <trkpt lat="45.9153" lon="4.90019">
        <ele>292.1</ele>
        <time>2023-09-02T14:55:23Z</time>
      </trkpt>
      <trkpt lat="45.91531" lon="4.90023">
        <ele>292.2</ele>
        <time>2023-09-02T14:55:24Z</time>
      </trkpt>
      <trkpt lat="45.91533" lon="4.90027">
        <ele>292.2</ele>
        <time>2023-09-02T14:55:25Z</time>
      </trkpt>
      <trkpt lat="45.91534" lon="4.90032">
        <ele>292.3</ele>
        <time>2023-09-02T14:55:26Z</time>
      </trkpt>
      <trkpt lat="45.91535" lon="4.90036">
        <ele>292.3</ele>
        <time>2023-09-02T14:55:27Z</time>
      </trkpt>
      <trkpt lat="45.91537" lon="4.9004">
        <ele>292.4</ele>
        <time>2023-09-02T14:55:28Z</time>
      </trkpt>
      <trkpt lat="45.91539" lon="4.90044">
        <ele>292.4</ele>
        <time>2023-09-02T14:55:29Z</time>
      </trkpt>
      <trkpt lat="45.9154" lon="4.90049">
        <ele>292.5</ele>
        <time>2023-09-02T14:55:30Z</time>
      </trkpt>
      <trkpt lat="45.91541" lon="4.90053">
        <ele>292.5</ele>
        <time>2023-09-02T14:55:31Z</time>
      </trkpt>
      <trkpt lat="45.91543" lon="4.90057">
        <ele>292.6</ele>
        <time>2023-09-02T14:55:32Z</time>
      </trkpt>
      <trkpt lat="45.91544" lon="4.90061">
        <ele>292.6</ele>
        <time>2023-09-02T14:55:33Z</time>
      </trkpt>
      <trkpt lat="45.91546" lon="4.90065">
        <ele>292.7</ele>
        <time>2023-09-02T14:55:34Z</time>
      </trkpt>
      <trkpt lat="45.91548" lon="4.90069">
        <ele>292.8</ele>
        <time>2023-09-02T14:55:35Z</time>
      </trkpt>
      <trkpt lat="45.9155" lon="4.90073">
        <ele>292.9</ele>
        <time>2023-09-02T14:55:36Z</time>
      </trkpt>
      <trkpt lat="45.91552" lon="4.90077">
        <ele>292.9</ele>
        <time>2023-09-02T14:55:37Z</time>
      </trkpt>
      <trkpt lat="45.91553" lon="4.90081">
        <ele>293</ele>
        <time>2023-09-02T14:55:38Z</time>
      </trkpt>
      <trkpt lat="45.91555" lon="4.90085">
        <ele>293.1</ele>
        <time>2023-09-02T14:55:39Z</time>
      </trkpt>
      <trkpt lat="45.91556" lon="4.90089">
        <ele>293.2</ele>
        <time>2023-09-02T14:55:40Z</time>
      </trkpt>
      <trkpt lat="45.91558" lon="4.90092">
        <ele>293.3</ele>
        <time>2023-09-02T14:55:41Z</time>
      </trkpt>
      <trkpt lat="45.9156" lon="4.90096">
        <ele>293.4</ele>
        <time>2023-09-02T14:55:42Z</time>
      </trkpt>
      <trkpt lat="45.9156" lon="4.901">
        <ele>293.5</ele>
        <time>2023-09-02T14:55:43Z</time>
      </trkpt>
      <trkpt lat="45.91562" lon="4.90105">
        <ele>293.5</ele>
        <time>2023-09-02T14:55:44Z</time>
      </trkpt>
      <trkpt lat="45.91562" lon="4.90107">
        <ele>293.6</ele>
        <time>2023-09-02T14:55:45Z</time>
      </trkpt>
      <trkpt lat="45.91563" lon="4.9011">
        <ele>293.6</ele>
        <time>2023-09-02T14:55:46Z</time>
      </trkpt>
      <trkpt lat="45.91565" lon="4.90114">
        <ele>293.6</ele>
        <time>2023-09-02T14:55:47Z</time>
      </trkpt>
      <trkpt lat="45.91567" lon="4.90118">
        <ele>293.7</ele>
        <time>2023-09-02T14:55:48Z</time>
      </trkpt>
      <trkpt lat="45.91568" lon="4.90122">
        <ele>293.7</ele>
        <time>2023-09-02T14:55:49Z</time>
      </trkpt>
      <trkpt lat="45.9157" lon="4.90125">
        <ele>293.8</ele>
        <time>2023-09-02T14:55:50Z</time>
      </trkpt>
      <trkpt lat="45.91572" lon="4.90129">
        <ele>293.8</ele>
        <time>2023-09-02T14:55:51Z</time>
      </trkpt>
      <trkpt lat="45.91574" lon="4.90132">
        <ele>293.9</ele>
        <time>2023-09-02T14:55:52Z</time>
      </trkpt>
      <trkpt lat="45.91576" lon="4.90135">
        <ele>293.9</ele>
        <time>2023-09-02T14:55:53Z</time>
      </trkpt>
      <trkpt lat="45.91578" lon="4.90139">
        <ele>294</ele>
        <time>2023-09-02T14:55:54Z</time>
      </trkpt>
      <trkpt lat="45.91579" lon="4.90141">
        <ele>294</ele>
        <time>2023-09-02T14:55:55Z</time>
      </trkpt>
      <trkpt lat="45.91581" lon="4.90144">
        <ele>294.1</ele>
        <time>2023-09-02T14:55:56Z</time>
      </trkpt>
      <trkpt lat="45.91583" lon="4.90147">
        <ele>294.2</ele>
        <time>2023-09-02T14:55:57Z</time>
      </trkpt>
      <trkpt lat="45.91585" lon="4.9015">
        <ele>294.2</ele>
        <time>2023-09-02T14:55:58Z</time>
      </trkpt>
      <trkpt lat="45.91587" lon="4.90154">
        <ele>294.3</ele>
        <time>2023-09-02T14:55:59Z</time>
      </trkpt>
      <trkpt lat="45.91589" lon="4.90156">
        <ele>294.4</ele>
        <time>2023-09-02T14:56:00Z</time>
      </trkpt>
      <trkpt lat="45.91591" lon="4.9016">
        <ele>294.5</ele>
        <time>2023-09-02T14:56:01Z</time>
      </trkpt>
      <trkpt lat="45.91592" lon="4.90162">
        <ele>294.5</ele>
        <time>2023-09-02T14:56:02Z</time>
      </trkpt>
      <trkpt lat="45.91594" lon="4.90165">
        <ele>294.6</ele>
        <time>2023-09-02T14:56:03Z</time>
      </trkpt>
      <trkpt lat="45.91596" lon="4.90169">
        <ele>294.7</ele>
        <time>2023-09-02T14:56:04Z</time>
      </trkpt>
      <trkpt lat="45.91599" lon="4.90173">
        <ele>294.8</ele>
        <time>2023-09-02T14:56:05Z</time>
      </trkpt>
      <trkpt lat="45.91599" lon="4.90175">
        <ele>294.8</ele>
        <time>2023-09-02T14:56:06Z</time>
      </trkpt>
      <trkpt lat="45.91602" lon="4.9018">
        <ele>295</ele>
        <time>2023-09-02T14:56:07Z</time>
      </trkpt>
      <trkpt lat="45.91602" lon="4.90181">
        <ele>295</ele>
        <time>2023-09-02T14:56:08Z</time>
      </trkpt>
      <trkpt lat="45.91604" lon="4.90185">
        <ele>295.2</ele>
        <time>2023-09-02T14:56:09Z</time>
      </trkpt>
      <trkpt lat="45.91605" lon="4.90188">
        <ele>295.3</ele>
        <time>2023-09-02T14:56:10Z</time>
      </trkpt>
      <trkpt lat="45.91606" lon="4.90192">
        <ele>295.4</ele>
        <time>2023-09-02T14:56:11Z</time>
      </trkpt>
      <trkpt lat="45.91608" lon="4.90198">
        <ele>295.6</ele>
        <time>2023-09-02T14:56:12Z</time>
      </trkpt>
      <trkpt lat="45.91608" lon="4.902">
        <ele>295.7</ele>
        <time>2023-09-02T14:56:13Z</time>
      </trkpt>
      <trkpt lat="45.91609" lon="4.90203">
        <ele>295.8</ele>
        <time>2023-09-02T14:56:14Z</time>
      </trkpt>
      <trkpt lat="45.9161" lon="4.90208">
        <ele>295.9</ele>
        <time>2023-09-02T14:56:15Z</time>
      </trkpt>
      <trkpt lat="45.9161" lon="4.90213">
        <ele>296.1</ele>
        <time>2023-09-02T14:56:16Z</time>
      </trkpt>
      <trkpt lat="45.91611" lon="4.90216">
        <ele>296.2</ele>
        <time>2023-09-02T14:56:17Z</time>
      </trkpt>
      <trkpt lat="45.91611" lon="4.90221">
        <ele>296.4</ele>
        <time>2023-09-02T14:56:18Z</time>
      </trkpt>
      <trkpt lat="45.91611" lon="4.90223">
        <ele>296.4</ele>
        <time>2023-09-02T14:56:19Z</time>
      </trkpt>
      <trkpt lat="45.91612" lon="4.90228">
        <ele>296.5</ele>
        <time>2023-09-02T14:56:20Z</time>
      </trkpt>
      <trkpt lat="45.91612" lon="4.90234">
        <ele>296.7</ele>
        <time>2023-09-02T14:56:21Z</time>
      </trkpt>
      <trkpt lat="45.91613" lon="4.90236">
        <ele>296.7</ele>
        <time>2023-09-02T14:56:22Z</time>
      </trkpt>
      <trkpt lat="45.91613" lon="4.9024">
        <ele>296.8</ele>
        <time>2023-09-02T14:56:23Z</time>
      </trkpt>
      <trkpt lat="45.91613" lon="4.90246">
        <ele>296.9</ele>
        <time>2023-09-02T14:56:24Z</time>
      </trkpt>
      <trkpt lat="45.91613" lon="4.90248">
        <ele>296.9</ele>
        <time>2023-09-02T14:56:25Z</time>
      </trkpt>
      <trkpt lat="45.91613" lon="4.90253">
        <ele>296.9</ele>
        <time>2023-09-02T14:56:26Z</time>
      </trkpt>
      <trkpt lat="45.91614" lon="4.90257">
        <ele>296.9</ele>
        <time>2023-09-02T14:56:27Z</time>
      </trkpt>
      <trkpt lat="45.91614" lon="4.90261">
        <ele>296.9</ele>
        <time>2023-09-02T14:56:28Z</time>
      </trkpt>
      <trkpt lat="45.91614" lon="4.90267">
        <ele>296.9</ele>
        <time>2023-09-02T14:56:29Z</time>
      </trkpt>
      <trkpt lat="45.91615" lon="4.9027">
        <ele>296.9</ele>
        <time>2023-09-02T14:56:30Z</time>
      </trkpt>
      <trkpt lat="45.91616" lon="4.90274">
        <ele>296.9</ele>
        <time>2023-09-02T14:56:31Z</time>
      </trkpt>
      <trkpt lat="45.91616" lon="4.90279">
        <ele>296.8</ele>
        <time>2023-09-02T14:56:32Z</time>
      </trkpt>
      <trkpt lat="45.91616" lon="4.90282">
        <ele>296.8</ele>
        <time>2023-09-02T14:56:33Z</time>
      </trkpt>
      <trkpt lat="45.91617" lon="4.90286">
        <ele>296.7</ele>
        <time>2023-09-02T14:56:34Z</time>
      </trkpt>
      <trkpt lat="45.91617" lon="4.9029">
        <ele>296.7</ele>
        <time>2023-09-02T14:56:35Z</time>
      </trkpt>
      <trkpt lat="45.91618" lon="4.90295">
        <ele>296.6</ele>
        <time>2023-09-02T14:56:36Z</time>
      </trkpt>
      <trkpt lat="45.91619" lon="4.90299">
        <ele>296.5</ele>
        <time>2023-09-02T14:56:37Z</time>
      </trkpt>
      <trkpt lat="45.9162" lon="4.90303">
        <ele>296.5</ele>
        <time>2023-09-02T14:56:38Z</time>
      </trkpt>
      <trkpt lat="45.9162" lon="4.90308">
        <ele>296.4</ele>
        <time>2023-09-02T14:56:39Z</time>
      </trkpt>
      <trkpt lat="45.91621" lon="4.9031">
        <ele>296.3</ele>
        <time>2023-09-02T14:56:40Z</time>
      </trkpt>
      <trkpt lat="45.91621" lon="4.90316">
        <ele>296.3</ele>
        <time>2023-09-02T14:56:41Z</time>
      </trkpt>
      <trkpt lat="45.91622" lon="4.90318">
        <ele>296.2</ele>
        <time>2023-09-02T14:56:42Z</time>
      </trkpt>
      <trkpt lat="45.91623" lon="4.90322">
        <ele>296.2</ele>
        <time>2023-09-02T14:56:43Z</time>
      </trkpt>
      <trkpt lat="45.91624" lon="4.90328">
        <ele>296.1</ele>
        <time>2023-09-02T14:56:44Z</time>
      </trkpt>
      <trkpt lat="45.91625" lon="4.9033">
        <ele>296</ele>
        <time>2023-09-02T14:56:45Z</time>
      </trkpt>
      <trkpt lat="45.91626" lon="4.90333">
        <ele>296</ele>
        <time>2023-09-02T14:56:46Z</time>
      </trkpt>
      <trkpt lat="45.91627" lon="4.90337">
        <ele>295.9</ele>
        <time>2023-09-02T14:56:47Z</time>
      </trkpt>
      <trkpt lat="45.91629" lon="4.90342">
        <ele>295.8</ele>
        <time>2023-09-02T14:56:48Z</time>
      </trkpt>
      <trkpt lat="45.9163" lon="4.90344">
        <ele>295.8</ele>
        <time>2023-09-02T14:56:49Z</time>
      </trkpt>
      <trkpt lat="45.91631" lon="4.90347">
        <ele>295.7</ele>
        <time>2023-09-02T14:56:50Z</time>
      </trkpt>
      <trkpt lat="45.91633" lon="4.90353">
        <ele>295.7</ele>
        <time>2023-09-02T14:56:51Z</time>
      </trkpt>
      <trkpt lat="45.91633" lon="4.90355">
        <ele>295.6</ele>
        <time>2023-09-02T14:56:52Z</time>
      </trkpt>
      <trkpt lat="45.91635" lon="4.9036">
        <ele>295.5</ele>
        <time>2023-09-02T14:56:53Z</time>
      </trkpt>
      <trkpt lat="45.91635" lon="4.90362">
        <ele>295.5</ele>
        <time>2023-09-02T14:56:54Z</time>
      </trkpt>
      <trkpt lat="45.91636" lon="4.90367">
        <ele>295.4</ele>
        <time>2023-09-02T14:56:55Z</time>
      </trkpt>
      <trkpt lat="45.91637" lon="4.90372">
        <ele>295.4</ele>
        <time>2023-09-02T14:56:56Z</time>
      </trkpt>
      <trkpt lat="45.91638" lon="4.90376">
        <ele>295.3</ele>
        <time>2023-09-02T14:56:57Z</time>
      </trkpt>
      <trkpt lat="45.9164" lon="4.90379">
        <ele>295.2</ele>
        <time>2023-09-02T14:56:58Z</time>
      </trkpt>
      <trkpt lat="45.91641" lon="4.90383">
        <ele>295.2</ele>
        <time>2023-09-02T14:56:59Z</time>
      </trkpt>
      <trkpt lat="45.91642" lon="4.90387">
        <ele>295.1</ele>
        <time>2023-09-02T14:57:00Z</time>
      </trkpt>
      <trkpt lat="45.91643" lon="4.90391">
        <ele>295.1</ele>
        <time>2023-09-02T14:57:01Z</time>
      </trkpt>
      <trkpt lat="45.91645" lon="4.90396">
        <ele>295</ele>
        <time>2023-09-02T14:57:02Z</time>
      </trkpt>
      <trkpt lat="45.91646" lon="4.904">
        <ele>295</ele>
        <time>2023-09-02T14:57:03Z</time>
      </trkpt>
      <trkpt lat="45.91647" lon="4.90403">
        <ele>294.9</ele>
        <time>2023-09-02T14:57:04Z</time>
      </trkpt>
      <trkpt lat="45.91648" lon="4.90407">
        <ele>294.9</ele>
        <time>2023-09-02T14:57:05Z</time>
      </trkpt>
      <trkpt lat="45.91649" lon="4.90411">
        <ele>294.8</ele>
        <time>2023-09-02T14:57:06Z</time>
      </trkpt>
      <trkpt lat="45.91651" lon="4.90415">
        <ele>294.8</ele>
        <time>2023-09-02T14:57:07Z</time>
      </trkpt>
      <trkpt lat="45.91652" lon="4.90419">
        <ele>294.8</ele>
        <time>2023-09-02T14:57:08Z</time>
      </trkpt>
      <trkpt lat="45.91653" lon="4.90423">
        <ele>294.8</ele>
        <time>2023-09-02T14:57:09Z</time>
      </trkpt>
      <trkpt lat="45.91655" lon="4.90428">
        <ele>294.7</ele>
        <time>2023-09-02T14:57:10Z</time>
      </trkpt>
      <trkpt lat="45.91656" lon="4.90432">
        <ele>294.7</ele>
        <time>2023-09-02T14:57:11Z</time>
      </trkpt>
      <trkpt lat="45.91657" lon="4.90436">
        <ele>294.7</ele>
        <time>2023-09-02T14:57:12Z</time>
      </trkpt>
      <trkpt lat="45.91658" lon="4.9044">
        <ele>294.7</ele>
        <time>2023-09-02T14:57:13Z</time>
      </trkpt>
      <trkpt lat="45.91659" lon="4.90444">
        <ele>294.6</ele>
        <time>2023-09-02T14:57:14Z</time>
      </trkpt>
      <trkpt lat="45.91661" lon="4.90448">
        <ele>294.6</ele>
        <time>2023-09-02T14:57:15Z</time>
      </trkpt>
      <trkpt lat="45.91662" lon="4.90452">
        <ele>294.5</ele>
        <time>2023-09-02T14:57:16Z</time>
      </trkpt>
      <trkpt lat="45.91663" lon="4.90457">
        <ele>294.5</ele>
        <time>2023-09-02T14:57:17Z</time>
      </trkpt>
      <trkpt lat="45.91665" lon="4.90461">
        <ele>294.4</ele>
        <time>2023-09-02T14:57:18Z</time>
      </trkpt>
      <trkpt lat="45.91666" lon="4.90462">
        <ele>294.4</ele>
        <time>2023-09-02T14:57:19Z</time>
      </trkpt>
      <trkpt lat="45.91667" lon="4.90466">
        <ele>294.3</ele>
        <time>2023-09-02T14:57:20Z</time>
      </trkpt>
      <trkpt lat="45.91667" lon="4.90468">
        <ele>294.3</ele>
        <time>2023-09-02T14:57:21Z</time>
      </trkpt>
      <trkpt lat="45.91667" lon="4.90473">
        <ele>294.2</ele>
        <time>2023-09-02T14:57:22Z</time>
      </trkpt>
      <trkpt lat="45.91668" lon="4.90474">
        <ele>294.2</ele>
        <time>2023-09-02T14:57:23Z</time>
      </trkpt>
      <trkpt lat="45.91669" lon="4.90478">
        <ele>294.1</ele>
        <time>2023-09-02T14:57:24Z</time>
      </trkpt>
      <trkpt lat="45.9167" lon="4.9048">
        <ele>294.1</ele>
        <time>2023-09-02T14:57:25Z</time>
      </trkpt>
      <trkpt lat="45.91671" lon="4.90484">
        <ele>294</ele>
        <time>2023-09-02T14:57:26Z</time>
      </trkpt>
      <trkpt lat="45.91671" lon="4.90486">
        <ele>294</ele>
        <time>2023-09-02T14:57:27Z</time>
      </trkpt>
      <trkpt lat="45.91672" lon="4.9049">
        <ele>293.9</ele>
        <time>2023-09-02T14:57:28Z</time>
      </trkpt>
      <trkpt lat="45.91673" lon="4.90492">
        <ele>293.9</ele>
        <time>2023-09-02T14:57:29Z</time>
      </trkpt>
      <trkpt lat="45.91674" lon="4.90495">
        <ele>293.9</ele>
        <time>2023-09-02T14:57:30Z</time>
      </trkpt>
      <trkpt lat="45.91674" lon="4.90497">
        <ele>293.8</ele>
        <time>2023-09-02T14:57:31Z</time>
      </trkpt>
      <trkpt lat="45.91675" lon="4.90498">
        <ele>293.8</ele>
        <time>2023-09-02T14:57:32Z</time>
      </trkpt>
      <trkpt lat="45.91676" lon="4.905">
        <ele>293.8</ele>
        <time>2023-09-02T14:57:33Z</time>
      </trkpt>
      <trkpt lat="45.91677" lon="4.90503">
        <ele>293.8</ele>
        <time>2023-09-02T14:57:34Z</time>
      </trkpt>
      <trkpt lat="45.91677" lon="4.90504">
        <ele>293.8</ele>
        <time>2023-09-02T14:57:35Z</time>
      </trkpt>
      <trkpt lat="45.91677" lon="4.90505">
        <ele>293.8</ele>
        <time>2023-09-02T14:57:36Z</time>
      </trkpt>
      <trkpt lat="45.91677" lon="4.90506">
        <ele>293.8</ele>
        <time>2023-09-02T14:57:37Z</time>
      </trkpt>
      <trkpt lat="45.91678" lon="4.90508">
        <ele>293.7</ele>
        <time>2023-09-02T14:57:38Z</time>
      </trkpt>
      <trkpt lat="45.91678" lon="4.9051">
        <ele>293.7</ele>
        <time>2023-09-02T14:57:39Z</time>
      </trkpt>
      <trkpt lat="45.91679" lon="4.90511">
        <ele>293.7</ele>
        <time>2023-09-02T14:57:40Z</time>
      </trkpt>
      <trkpt lat="45.91679" lon="4.90513">
        <ele>293.6</ele>
        <time>2023-09-02T14:57:41Z</time>
      </trkpt>
      <trkpt lat="45.9168" lon="4.90514">
        <ele>293.6</ele>
        <time>2023-09-02T14:57:42Z</time>
      </trkpt>
      <trkpt lat="45.91681" lon="4.90514">
        <ele>293.6</ele>
        <time>2023-09-02T14:57:43Z</time>
      </trkpt>
      <trkpt lat="45.91682" lon="4.90512">
        <ele>293.5</ele>
        <time>2023-09-02T14:57:44Z</time>
      </trkpt>
      <trkpt lat="45.91683" lon="4.90507">
        <ele>293.5</ele>
        <time>2023-09-02T14:57:45Z</time>
      </trkpt>
      <trkpt lat="45.91684" lon="4.90505">
        <ele>293.5</ele>
        <time>2023-09-02T14:57:46Z</time>
      </trkpt>
      <trkpt lat="45.91683" lon="4.90502">
        <ele>293.5</ele>
        <time>2023-09-02T14:57:47Z</time>
      </trkpt>
      <trkpt lat="45.91684" lon="4.90501">
        <ele>293.5</ele>
        <time>2023-09-02T14:57:48Z</time>
      </trkpt>
      <trkpt lat="45.91684" lon="4.90496">
        <ele>293.5</ele>
        <time>2023-09-02T14:57:49Z</time>
      </trkpt>
      <trkpt lat="45.91685" lon="4.90491">
        <ele>293.4</ele>
        <time>2023-09-02T14:57:50Z</time>
      </trkpt>
      <trkpt lat="45.91685" lon="4.9049">
        <ele>293.4</ele>
        <time>2023-09-02T14:57:51Z</time>
      </trkpt>
      <trkpt lat="45.91686" lon="4.90484">
        <ele>293.4</ele>
        <time>2023-09-02T14:57:52Z</time>
      </trkpt>
      <trkpt lat="45.91686" lon="4.90481">
        <ele>293.4</ele>
        <time>2023-09-02T14:57:53Z</time>
      </trkpt>
      <trkpt lat="45.91687" lon="4.90477">
        <ele>293.4</ele>
        <time>2023-09-02T14:57:54Z</time>
      </trkpt>
      <trkpt lat="45.91687" lon="4.90472">
        <ele>293.4</ele>
        <time>2023-09-02T14:57:55Z</time>
      </trkpt>
      <trkpt lat="45.91688" lon="4.90467">
        <ele>293.4</ele>
        <time>2023-09-02T14:57:56Z</time>
      </trkpt>
      <trkpt lat="45.91688" lon="4.90465">
        <ele>293.4</ele>
        <time>2023-09-02T14:57:57Z</time>
      </trkpt>
      <trkpt lat="45.91688" lon="4.9046">
        <ele>293.5</ele>
        <time>2023-09-02T14:57:58Z</time>
      </trkpt>
      <trkpt lat="45.91689" lon="4.90456">
        <ele>293.5</ele>
        <time>2023-09-02T14:57:59Z</time>
      </trkpt>
      <trkpt lat="45.91689" lon="4.90451">
        <ele>293.5</ele>
        <time>2023-09-02T14:58:00Z</time>
      </trkpt>
      <trkpt lat="45.91689" lon="4.90447">
        <ele>293.5</ele>
        <time>2023-09-02T14:58:01Z</time>
      </trkpt>
      <trkpt lat="45.9169" lon="4.90443">
        <ele>293.5</ele>
        <time>2023-09-02T14:58:02Z</time>
      </trkpt>
      <trkpt lat="45.9169" lon="4.90437">
        <ele>293.5</ele>
        <time>2023-09-02T14:58:03Z</time>
      </trkpt>
      <trkpt lat="45.9169" lon="4.90434">
        <ele>293.5</ele>
        <time>2023-09-02T14:58:04Z</time>
      </trkpt>
      <trkpt lat="45.9169" lon="4.9043">
        <ele>293.5</ele>
        <time>2023-09-02T14:58:05Z</time>
      </trkpt>
      <trkpt lat="45.91691" lon="4.90425">
        <ele>293.5</ele>
        <time>2023-09-02T14:58:06Z</time>
      </trkpt>
      <trkpt lat="45.91692" lon="4.90416">
        <ele>293.6</ele>
        <time>2023-09-02T14:58:07Z</time>
      </trkpt>
      <trkpt lat="45.91692" lon="4.90412">
        <ele>293.6</ele>
        <time>2023-09-02T14:58:08Z</time>
      </trkpt>
      <trkpt lat="45.91693" lon="4.90408">
        <ele>293.7</ele>
        <time>2023-09-02T14:58:09Z</time>
      </trkpt>
      <trkpt lat="45.91693" lon="4.90404">
        <ele>293.7</ele>
        <time>2023-09-02T14:58:10Z</time>
      </trkpt>
      <trkpt lat="45.91694" lon="4.904">
        <ele>293.7</ele>
        <time>2023-09-02T14:58:11Z</time>
      </trkpt>
      <trkpt lat="45.91695" lon="4.90395">
        <ele>293.8</ele>
        <time>2023-09-02T14:58:12Z</time>
      </trkpt>
      <trkpt lat="45.91695" lon="4.90393">
        <ele>293.8</ele>
        <time>2023-09-02T14:58:13Z</time>
      </trkpt>
      <trkpt lat="45.91696" lon="4.90389">
        <ele>293.9</ele>
        <time>2023-09-02T14:58:14Z</time>
      </trkpt>
      <trkpt lat="45.91696" lon="4.90384">
        <ele>294</ele>
        <time>2023-09-02T14:58:15Z</time>
      </trkpt>
      <trkpt lat="45.91697" lon="4.90378">
        <ele>294</ele>
        <time>2023-09-02T14:58:16Z</time>
      </trkpt>
      <trkpt lat="45.91697" lon="4.90376">
        <ele>294.1</ele>
        <time>2023-09-02T14:58:17Z</time>
      </trkpt>
      <trkpt lat="45.91697" lon="4.90371">
        <ele>294.1</ele>
        <time>2023-09-02T14:58:18Z</time>
      </trkpt>
      <trkpt lat="45.91698" lon="4.90367">
        <ele>294.2</ele>
        <time>2023-09-02T14:58:19Z</time>
      </trkpt>
      <trkpt lat="45.91698" lon="4.90363">
        <ele>294.3</ele>
        <time>2023-09-02T14:58:20Z</time>
      </trkpt>
      <trkpt lat="45.91699" lon="4.90357">
        <ele>294.4</ele>
        <time>2023-09-02T14:58:21Z</time>
      </trkpt>
      <trkpt lat="45.91699" lon="4.90355">
        <ele>294.4</ele>
        <time>2023-09-02T14:58:22Z</time>
      </trkpt>
      <trkpt lat="45.91699" lon="4.90351">
        <ele>294.5</ele>
        <time>2023-09-02T14:58:23Z</time>
      </trkpt>
      <trkpt lat="45.917" lon="4.90347">
        <ele>294.6</ele>
        <time>2023-09-02T14:58:24Z</time>
      </trkpt>
      <trkpt lat="45.917" lon="4.90343">
        <ele>294.6</ele>
        <time>2023-09-02T14:58:25Z</time>
      </trkpt>
      <trkpt lat="45.91701" lon="4.90337">
        <ele>294.8</ele>
        <time>2023-09-02T14:58:27Z</time>
      </trkpt>
      <trkpt lat="45.91701" lon="4.90335">
        <ele>294.8</ele>
        <time>2023-09-02T14:58:28Z</time>
      </trkpt>
      <trkpt lat="45.91702" lon="4.90331">
        <ele>294.9</ele>
        <time>2023-09-02T14:58:29Z</time>
      </trkpt>
      <trkpt lat="45.91702" lon="4.90327">
        <ele>294.9</ele>
        <time>2023-09-02T14:58:30Z</time>
      </trkpt>
      <trkpt lat="45.91702" lon="4.90323">
        <ele>295</ele>
        <time>2023-09-02T14:58:31Z</time>
      </trkpt>
      <trkpt lat="45.91703" lon="4.90318">
        <ele>295.1</ele>
        <time>2023-09-02T14:58:32Z</time>
      </trkpt>
      <trkpt lat="45.91703" lon="4.90314">
        <ele>295.2</ele>
        <time>2023-09-02T14:58:33Z</time>
      </trkpt>
      <trkpt lat="45.91703" lon="4.90308">
        <ele>295.3</ele>
        <time>2023-09-02T14:58:34Z</time>
      </trkpt>
      <trkpt lat="45.91703" lon="4.90306">
        <ele>295.3</ele>
        <time>2023-09-02T14:58:35Z</time>
      </trkpt>
      <trkpt lat="45.91704" lon="4.90302">
        <ele>295.4</ele>
        <time>2023-09-02T14:58:36Z</time>
      </trkpt>
      <trkpt lat="45.91704" lon="4.90296">
        <ele>295.5</ele>
        <time>2023-09-02T14:58:37Z</time>
      </trkpt>
      <trkpt lat="45.91704" lon="4.90294">
        <ele>295.5</ele>
        <time>2023-09-02T14:58:38Z</time>
      </trkpt>
      <trkpt lat="45.91705" lon="4.90289">
        <ele>295.6</ele>
        <time>2023-09-02T14:58:39Z</time>
      </trkpt>
      <trkpt lat="45.91705" lon="4.90285">
        <ele>295.6</ele>
        <time>2023-09-02T14:58:40Z</time>
      </trkpt>
      <trkpt lat="45.91706" lon="4.90281">
        <ele>295.7</ele>
        <time>2023-09-02T14:58:41Z</time>
      </trkpt>
      <trkpt lat="45.91706" lon="4.90277">
        <ele>295.8</ele>
        <time>2023-09-02T14:58:42Z</time>
      </trkpt>
      <trkpt lat="45.91706" lon="4.90271">
        <ele>295.8</ele>
        <time>2023-09-02T14:58:43Z</time>
      </trkpt>
      <trkpt lat="45.91707" lon="4.90269">
        <ele>295.9</ele>
        <time>2023-09-02T14:58:44Z</time>
      </trkpt>
      <trkpt lat="45.91707" lon="4.90265">
        <ele>295.9</ele>
        <time>2023-09-02T14:58:45Z</time>
      </trkpt>
      <trkpt lat="45.91707" lon="4.90261">
        <ele>296</ele>
        <time>2023-09-02T14:58:46Z</time>
      </trkpt>
      <trkpt lat="45.91708" lon="4.90257">
        <ele>296.1</ele>
        <time>2023-09-02T14:58:47Z</time>
      </trkpt>
      <trkpt lat="45.91708" lon="4.90252">
        <ele>296.1</ele>
        <time>2023-09-02T14:58:48Z</time>
      </trkpt>
      <trkpt lat="45.91708" lon="4.90248">
        <ele>296.2</ele>
        <time>2023-09-02T14:58:49Z</time>
      </trkpt>
      <trkpt lat="45.91709" lon="4.90244">
        <ele>296.3</ele>
        <time>2023-09-02T14:58:50Z</time>
      </trkpt>
      <trkpt lat="45.91709" lon="4.9024">
        <ele>296.4</ele>
        <time>2023-09-02T14:58:51Z</time>
      </trkpt>
      <trkpt lat="45.91709" lon="4.90236">
        <ele>296.5</ele>
        <time>2023-09-02T14:58:52Z</time>
      </trkpt>
      <trkpt lat="45.9171" lon="4.90232">
        <ele>296.6</ele>
        <time>2023-09-02T14:58:53Z</time>
      </trkpt>
      <trkpt lat="45.9171" lon="4.90227">
        <ele>296.6</ele>
        <time>2023-09-02T14:58:54Z</time>
      </trkpt>
      <trkpt lat="45.9171" lon="4.90222">
        <ele>296.7</ele>
        <time>2023-09-02T14:58:55Z</time>
      </trkpt>
      <trkpt lat="45.91711" lon="4.9022">
        <ele>296.7</ele>
        <time>2023-09-02T14:58:56Z</time>
      </trkpt>
      <trkpt lat="45.91711" lon="4.90216">
        <ele>296.8</ele>
        <time>2023-09-02T14:58:57Z</time>
      </trkpt>
      <trkpt lat="45.91711" lon="4.90212">
        <ele>296.8</ele>
        <time>2023-09-02T14:58:58Z</time>
      </trkpt>
      <trkpt lat="45.91711" lon="4.90207">
        <ele>296.9</ele>
        <time>2023-09-02T14:58:59Z</time>
      </trkpt>
      <trkpt lat="45.91712" lon="4.90203">
        <ele>296.9</ele>
        <time>2023-09-02T14:59:00Z</time>
      </trkpt>
      <trkpt lat="45.91712" lon="4.90199">
        <ele>296.9</ele>
        <time>2023-09-02T14:59:01Z</time>
      </trkpt>
      <trkpt lat="45.91712" lon="4.90194">
        <ele>296.9</ele>
        <time>2023-09-02T14:59:02Z</time>
      </trkpt>
      <trkpt lat="45.91713" lon="4.9019">
        <ele>296.9</ele>
        <time>2023-09-02T14:59:03Z</time>
      </trkpt>
      <trkpt lat="45.91713" lon="4.90186">
        <ele>296.9</ele>
        <time>2023-09-02T14:59:04Z</time>
      </trkpt>
      <trkpt lat="45.91713" lon="4.90182">
        <ele>296.9</ele>
        <time>2023-09-02T14:59:05Z</time>
      </trkpt>
      <trkpt lat="45.91714" lon="4.90177">
        <ele>296.9</ele>
        <time>2023-09-02T14:59:06Z</time>
      </trkpt>
      <trkpt lat="45.91714" lon="4.90172">
        <ele>296.8</ele>
        <time>2023-09-02T14:59:07Z</time>
      </trkpt>
      <trkpt lat="45.91714" lon="4.90167">
        <ele>296.8</ele>
        <time>2023-09-02T14:59:08Z</time>
      </trkpt>
      <trkpt lat="45.91715" lon="4.90162">
        <ele>296.8</ele>
        <time>2023-09-02T14:59:09Z</time>
      </trkpt>
      <trkpt lat="45.91715" lon="4.90158">
        <ele>296.8</ele>
        <time>2023-09-02T14:59:10Z</time>
      </trkpt>
      <trkpt lat="45.91715" lon="4.90153">
        <ele>296.8</ele>
        <time>2023-09-02T14:59:11Z</time>
      </trkpt>
      <trkpt lat="45.91716" lon="4.90147">
        <ele>296.7</ele>
        <time>2023-09-02T14:59:12Z</time>
      </trkpt>
      <trkpt lat="45.91716" lon="4.90145">
        <ele>296.7</ele>
        <time>2023-09-02T14:59:13Z</time>
      </trkpt>
      <trkpt lat="45.91716" lon="4.9014">
        <ele>296.6</ele>
        <time>2023-09-02T14:59:14Z</time>
      </trkpt>
      <trkpt lat="45.91716" lon="4.90135">
        <ele>296.6</ele>
        <time>2023-09-02T14:59:15Z</time>
      </trkpt>
      <trkpt lat="45.91717" lon="4.9013">
        <ele>296.5</ele>
        <time>2023-09-02T14:59:16Z</time>
      </trkpt>
      <trkpt lat="45.91717" lon="4.90125">
        <ele>296.5</ele>
        <time>2023-09-02T14:59:17Z</time>
      </trkpt>
      <trkpt lat="45.91718" lon="4.9012">
        <ele>296.4</ele>
        <time>2023-09-02T14:59:18Z</time>
      </trkpt>
      <trkpt lat="45.91718" lon="4.90115">
        <ele>296.3</ele>
        <time>2023-09-02T14:59:19Z</time>
      </trkpt>
      <trkpt lat="45.91718" lon="4.9011">
        <ele>296.2</ele>
        <time>2023-09-02T14:59:20Z</time>
      </trkpt>
      <trkpt lat="45.91719" lon="4.90104">
        <ele>296.1</ele>
        <time>2023-09-02T14:59:21Z</time>
      </trkpt>
      <trkpt lat="45.91719" lon="4.90099">
        <ele>296</ele>
        <time>2023-09-02T14:59:22Z</time>
      </trkpt>
      <trkpt lat="45.91719" lon="4.90093">
        <ele>295.9</ele>
        <time>2023-09-02T14:59:23Z</time>
      </trkpt>
      <trkpt lat="45.9172" lon="4.90088">
        <ele>295.9</ele>
        <time>2023-09-02T14:59:24Z</time>
      </trkpt>
      <trkpt lat="45.9172" lon="4.90081">
        <ele>295.8</ele>
        <time>2023-09-02T14:59:25Z</time>
      </trkpt>
      <trkpt lat="45.91721" lon="4.90075">
        <ele>295.7</ele>
        <time>2023-09-02T14:59:26Z</time>
      </trkpt>
      <trkpt lat="45.91721" lon="4.9007">
        <ele>295.6</ele>
        <time>2023-09-02T14:59:27Z</time>
      </trkpt>
      <trkpt lat="45.91721" lon="4.90063">
        <ele>295.5</ele>
        <time>2023-09-02T14:59:28Z</time>
      </trkpt>
      <trkpt lat="45.91721" lon="4.90057">
        <ele>295.4</ele>
        <time>2023-09-02T14:59:29Z</time>
      </trkpt>
      <trkpt lat="45.91722" lon="4.90051">
        <ele>295.3</ele>
        <time>2023-09-02T14:59:30Z</time>
      </trkpt>
      <trkpt lat="45.91722" lon="4.90045">
        <ele>295.2</ele>
        <time>2023-09-02T14:59:31Z</time>
      </trkpt>
      <trkpt lat="45.91723" lon="4.90039">
        <ele>295.1</ele>
        <time>2023-09-02T14:59:32Z</time>
      </trkpt>
      <trkpt lat="45.91723" lon="4.90033">
        <ele>294.9</ele>
        <time>2023-09-02T14:59:33Z</time>
      </trkpt>
      <trkpt lat="45.91723" lon="4.90027">
        <ele>294.8</ele>
        <time>2023-09-02T14:59:34Z</time>
      </trkpt>
      <trkpt lat="45.91724" lon="4.90021">
        <ele>294.6</ele>
        <time>2023-09-02T14:59:35Z</time>
      </trkpt>
      <trkpt lat="45.91724" lon="4.90014">
        <ele>294.4</ele>
        <time>2023-09-02T14:59:36Z</time>
      </trkpt>
      <trkpt lat="45.91724" lon="4.90008">
        <ele>294.2</ele>
        <time>2023-09-02T14:59:37Z</time>
      </trkpt>
      <trkpt lat="45.91725" lon="4.90001">
        <ele>293.9</ele>
        <time>2023-09-02T14:59:38Z</time>
      </trkpt>
      <trkpt lat="45.91725" lon="4.89993">
        <ele>293.6</ele>
        <time>2023-09-02T14:59:39Z</time>
      </trkpt>
      <trkpt lat="45.91725" lon="4.89986">
        <ele>293.3</ele>
        <time>2023-09-02T14:59:40Z</time>
      </trkpt>
      <trkpt lat="45.91726" lon="4.89978">
        <ele>292.9</ele>
        <time>2023-09-02T14:59:41Z</time>
      </trkpt>
      <trkpt lat="45.91726" lon="4.89969">
        <ele>292.5</ele>
        <time>2023-09-02T14:59:42Z</time>
      </trkpt>
      <trkpt lat="45.91727" lon="4.8996">
        <ele>292.1</ele>
        <time>2023-09-02T14:59:43Z</time>
      </trkpt>
      <trkpt lat="45.91728" lon="4.89951">
        <ele>291.7</ele>
        <time>2023-09-02T14:59:44Z</time>
      </trkpt>
      <trkpt lat="45.91728" lon="4.89942">
        <ele>291.3</ele>
        <time>2023-09-02T14:59:45Z</time>
      </trkpt>
      <trkpt lat="45.91729" lon="4.89934">
        <ele>290.9</ele>
        <time>2023-09-02T14:59:46Z</time>
      </trkpt>
      <trkpt lat="45.91729" lon="4.89925">
        <ele>290.5</ele>
        <time>2023-09-02T14:59:47Z</time>
      </trkpt>
      <trkpt lat="45.91731" lon="4.89917">
        <ele>290.2</ele>
        <time>2023-09-02T14:59:48Z</time>
      </trkpt>
      <trkpt lat="45.91732" lon="4.89907">
        <ele>289.7</ele>
        <time>2023-09-02T14:59:49Z</time>
      </trkpt>
      <trkpt lat="45.91733" lon="4.89896">
        <ele>289.3</ele>
        <time>2023-09-02T14:59:50Z</time>
      </trkpt>
      <trkpt lat="45.91734" lon="4.89887">
        <ele>288.9</ele>
        <time>2023-09-02T14:59:51Z</time>
      </trkpt>
      <trkpt lat="45.91735" lon="4.89877">
        <ele>288.6</ele>
        <time>2023-09-02T14:59:52Z</time>
      </trkpt>
      <trkpt lat="45.91736" lon="4.89866">
        <ele>288.2</ele>
        <time>2023-09-02T14:59:53Z</time>
      </trkpt>
      <trkpt lat="45.91737" lon="4.89856">
        <ele>287.9</ele>
        <time>2023-09-02T14:59:54Z</time>
      </trkpt>
      <trkpt lat="45.91738" lon="4.89846">
        <ele>287.6</ele>
        <time>2023-09-02T14:59:55Z</time>
      </trkpt>
      <trkpt lat="45.91739" lon="4.89836">
        <ele>287.3</ele>
        <time>2023-09-02T14:59:56Z</time>
      </trkpt>
      <trkpt lat="45.9174" lon="4.89824">
        <ele>287</ele>
        <time>2023-09-02T14:59:57Z</time>
      </trkpt>
      <trkpt lat="45.91741" lon="4.89813">
        <ele>286.8</ele>
        <time>2023-09-02T14:59:58Z</time>
      </trkpt>
      <trkpt lat="45.91742" lon="4.89802">
        <ele>286.6</ele>
        <time>2023-09-02T14:59:59Z</time>
      </trkpt>
      <trkpt lat="45.91742" lon="4.89791">
        <ele>286.4</ele>
        <time>2023-09-02T15:00:00Z</time>
      </trkpt>
      <trkpt lat="45.91743" lon="4.8978">
        <ele>286.3</ele>
        <time>2023-09-02T15:00:01Z</time>
      </trkpt>
      <trkpt lat="45.91744" lon="4.89769">
        <ele>286.1</ele>
        <time>2023-09-02T15:00:02Z</time>
      </trkpt>
      <trkpt lat="45.91744" lon="4.8976">
        <ele>286</ele>
        <time>2023-09-02T15:00:03Z</time>
      </trkpt>
      <trkpt lat="45.91745" lon="4.8975">
        <ele>285.9</ele>
        <time>2023-09-02T15:00:04Z</time>
      </trkpt>
      <trkpt lat="45.91746" lon="4.8974">
        <ele>285.8</ele>
        <time>2023-09-02T15:00:05Z</time>
      </trkpt>
      <trkpt lat="45.91746" lon="4.89732">
        <ele>285.7</ele>
        <time>2023-09-02T15:00:06Z</time>
      </trkpt>
      <trkpt lat="45.91747" lon="4.89721">
        <ele>285.6</ele>
        <time>2023-09-02T15:00:07Z</time>
      </trkpt>
      <trkpt lat="45.91747" lon="4.89712">
        <ele>285.6</ele>
        <time>2023-09-02T15:00:08Z</time>
      </trkpt>
      <trkpt lat="45.91748" lon="4.89703">
        <ele>285.5</ele>
        <time>2023-09-02T15:00:09Z</time>
      </trkpt>
      <trkpt lat="45.91749" lon="4.89694">
        <ele>285.4</ele>
        <time>2023-09-02T15:00:10Z</time>
      </trkpt>
      <trkpt lat="45.91749" lon="4.89685">
        <ele>285.4</ele>
        <time>2023-09-02T15:00:11Z</time>
      </trkpt>
      <trkpt lat="45.91749" lon="4.89677">
        <ele>285.3</ele>
        <time>2023-09-02T15:00:12Z</time>
      </trkpt>
      <trkpt lat="45.91751" lon="4.89661">
        <ele>285.2</ele>
        <time>2023-09-02T15:00:13Z</time>
      </trkpt>
      <trkpt lat="45.91751" lon="4.89653">
        <ele>285.2</ele>
        <time>2023-09-02T15:00:14Z</time>
      </trkpt>
      <trkpt lat="45.91752" lon="4.89645">
        <ele>285.1</ele>
        <time>2023-09-02T15:00:15Z</time>
      </trkpt>
      <trkpt lat="45.91753" lon="4.89638">
        <ele>285.1</ele>
        <time>2023-09-02T15:00:16Z</time>
      </trkpt>
      <trkpt lat="45.91754" lon="4.89631">
        <ele>285.1</ele>
        <time>2023-09-02T15:00:17Z</time>
      </trkpt>
      <trkpt lat="45.91755" lon="4.89624">
        <ele>285.1</ele>
        <time>2023-09-02T15:00:19Z</time>
      </trkpt>
      <trkpt lat="45.91757" lon="4.89618">
        <ele>285</ele>
        <time>2023-09-02T15:00:20Z</time>
      </trkpt>
      <trkpt lat="45.91759" lon="4.89612">
        <ele>285</ele>
        <time>2023-09-02T15:00:21Z</time>
      </trkpt>
      <trkpt lat="45.91761" lon="4.89606">
        <ele>285</ele>
        <time>2023-09-02T15:00:22Z</time>
      </trkpt>
      <trkpt lat="45.91763" lon="4.89601">
        <ele>285</ele>
        <time>2023-09-02T15:00:23Z</time>
      </trkpt>
      <trkpt lat="45.91765" lon="4.89595">
        <ele>284.9</ele>
        <time>2023-09-02T15:00:24Z</time>
      </trkpt>
      <trkpt lat="45.91768" lon="4.8959">
        <ele>284.9</ele>
        <time>2023-09-02T15:00:25Z</time>
      </trkpt>
      <trkpt lat="45.9177" lon="4.89585">
        <ele>284.9</ele>
        <time>2023-09-02T15:00:26Z</time>
      </trkpt>
      <trkpt lat="45.91773" lon="4.89581">
        <ele>284.9</ele>
        <time>2023-09-02T15:00:27Z</time>
      </trkpt>
      <trkpt lat="45.91776" lon="4.89576">
        <ele>284.8</ele>
        <time>2023-09-02T15:00:28Z</time>
      </trkpt>
      <trkpt lat="45.91778" lon="4.89571">
        <ele>284.8</ele>
        <time>2023-09-02T15:00:29Z</time>
      </trkpt>
      <trkpt lat="45.91781" lon="4.89567">
        <ele>284.8</ele>
        <time>2023-09-02T15:00:30Z</time>
      </trkpt>
      <trkpt lat="45.91783" lon="4.89562">
        <ele>284.8</ele>
        <time>2023-09-02T15:00:31Z</time>
      </trkpt>
      <trkpt lat="45.91785" lon="4.89558">
        <ele>284.8</ele>
        <time>2023-09-02T15:00:32Z</time>
      </trkpt>
      <trkpt lat="45.91787" lon="4.89554">
        <ele>284.8</ele>
        <time>2023-09-02T15:00:33Z</time>
      </trkpt>
      <trkpt lat="45.9179" lon="4.89549">
        <ele>284.8</ele>
        <time>2023-09-02T15:00:34Z</time>
      </trkpt>
      <trkpt lat="45.91792" lon="4.89546">
        <ele>284.8</ele>
        <time>2023-09-02T15:00:35Z</time>
      </trkpt>
      <trkpt lat="45.91794" lon="4.89542">
        <ele>284.8</ele>
        <time>2023-09-02T15:00:36Z</time>
      </trkpt>
      <trkpt lat="45.91796" lon="4.89538">
        <ele>284.8</ele>
        <time>2023-09-02T15:00:37Z</time>
      </trkpt>
      <trkpt lat="45.91798" lon="4.89535">
        <ele>284.8</ele>
        <time>2023-09-02T15:00:38Z</time>
      </trkpt>
      <trkpt lat="45.918" lon="4.89531">
        <ele>284.8</ele>
        <time>2023-09-02T15:00:39Z</time>
      </trkpt>
      <trkpt lat="45.91801" lon="4.89527">
        <ele>284.8</ele>
        <time>2023-09-02T15:00:40Z</time>
      </trkpt>
      <trkpt lat="45.91803" lon="4.89524">
        <ele>284.8</ele>
        <time>2023-09-02T15:00:41Z</time>
      </trkpt>
      <trkpt lat="45.91805" lon="4.89521">
        <ele>284.8</ele>
        <time>2023-09-02T15:00:42Z</time>
      </trkpt>
      <trkpt lat="45.91806" lon="4.89518">
        <ele>284.8</ele>
        <time>2023-09-02T15:00:43Z</time>
      </trkpt>
      <trkpt lat="45.91808" lon="4.89515">
        <ele>284.7</ele>
        <time>2023-09-02T15:00:44Z</time>
      </trkpt>
      <trkpt lat="45.9181" lon="4.89511">
        <ele>284.7</ele>
        <time>2023-09-02T15:00:45Z</time>
      </trkpt>
      <trkpt lat="45.91811" lon="4.89509">
        <ele>284.7</ele>
        <time>2023-09-02T15:00:46Z</time>
      </trkpt>
      <trkpt lat="45.91812" lon="4.89505">
        <ele>284.7</ele>
        <time>2023-09-02T15:00:47Z</time>
      </trkpt>
      <trkpt lat="45.91813" lon="4.89504">
        <ele>284.7</ele>
        <time>2023-09-02T15:00:48Z</time>
      </trkpt>
      <trkpt lat="45.91815" lon="4.89501">
        <ele>284.6</ele>
        <time>2023-09-02T15:00:49Z</time>
      </trkpt>
      <trkpt lat="45.91817" lon="4.89497">
        <ele>284.6</ele>
        <time>2023-09-02T15:00:50Z</time>
      </trkpt>
      <trkpt lat="45.91817" lon="4.89496">
        <ele>284.6</ele>
        <time>2023-09-02T15:00:51Z</time>
      </trkpt>
      <trkpt lat="45.9182" lon="4.89492">
        <ele>284.5</ele>
        <time>2023-09-02T15:00:52Z</time>
      </trkpt>
      <trkpt lat="45.91821" lon="4.89491">
        <ele>284.5</ele>
        <time>2023-09-02T15:00:53Z</time>
      </trkpt>
      <trkpt lat="45.91822" lon="4.89487">
        <ele>284.5</ele>
        <time>2023-09-02T15:00:54Z</time>
      </trkpt>
      <trkpt lat="45.91823" lon="4.89486">
        <ele>284.5</ele>
        <time>2023-09-02T15:00:55Z</time>
      </trkpt>
      <trkpt lat="45.91825" lon="4.89483">
        <ele>284.5</ele>
        <time>2023-09-02T15:00:56Z</time>
      </trkpt>
      <trkpt lat="45.91825" lon="4.89482">
        <ele>284.4</ele>
        <time>2023-09-02T15:00:57Z</time>
      </trkpt>
      <trkpt lat="45.91827" lon="4.89479">
        <ele>284.4</ele>
        <time>2023-09-02T15:00:58Z</time>
      </trkpt>
      <trkpt lat="45.91828" lon="4.89477">
        <ele>284.4</ele>
        <time>2023-09-02T15:00:59Z</time>
      </trkpt>
      <trkpt lat="45.91829" lon="4.89475">
        <ele>284.4</ele>
        <time>2023-09-02T15:01:00Z</time>
      </trkpt>
      <trkpt lat="45.9183" lon="4.89473">
        <ele>284.4</ele>
        <time>2023-09-02T15:01:01Z</time>
      </trkpt>
      <trkpt lat="45.91832" lon="4.89471">
        <ele>284.4</ele>
        <time>2023-09-02T15:01:02Z</time>
      </trkpt>
      <trkpt lat="45.91832" lon="4.8947">
        <ele>284.4</ele>
        <time>2023-09-02T15:01:03Z</time>
      </trkpt>
      <trkpt lat="45.91833" lon="4.89469">
        <ele>284.3</ele>
        <time>2023-09-02T15:01:04Z</time>
      </trkpt>
      <trkpt lat="45.91833" lon="4.89468">
        <ele>284.3</ele>
        <time>2023-09-02T15:01:05Z</time>
      </trkpt>
      <trkpt lat="45.91834" lon="4.89467">
        <ele>284.3</ele>
        <time>2023-09-02T15:01:06Z</time>
      </trkpt>
      <trkpt lat="45.91835" lon="4.89465">
        <ele>284.3</ele>
        <time>2023-09-02T15:01:07Z</time>
      </trkpt>
      <trkpt lat="45.91836" lon="4.89463">
        <ele>284.3</ele>
        <time>2023-09-02T15:01:08Z</time>
      </trkpt>
      <trkpt lat="45.91837" lon="4.89462">
        <ele>284.3</ele>
        <time>2023-09-02T15:01:09Z</time>
      </trkpt>
      <trkpt lat="45.91837" lon="4.89461">
        <ele>284.3</ele>
        <time>2023-09-02T15:01:10Z</time>
      </trkpt>
      <trkpt lat="45.91837" lon="4.8946">
        <ele>284.3</ele>
        <time>2023-09-02T15:01:11Z</time>
      </trkpt>
      <trkpt lat="45.91837" lon="4.89459">
        <ele>284.3</ele>
        <time>2023-09-02T15:01:12Z</time>
      </trkpt>
      <trkpt lat="45.91837" lon="4.89459">
        <ele>284.3</ele>
        <time>2023-09-02T15:01:13Z</time>
      </trkpt>
      <trkpt lat="45.91838" lon="4.89458">
        <ele>284.3</ele>
        <time>2023-09-02T15:01:14Z</time>
      </trkpt>
      <trkpt lat="45.91838" lon="4.89458">
        <ele>284.3</ele>
        <time>2023-09-02T15:01:15Z</time>
      </trkpt>
      <trkpt lat="45.91838" lon="4.89458">
        <ele>284.3</ele>
        <time>2023-09-02T15:01:16Z</time>
      </trkpt>
      <trkpt lat="45.91838" lon="4.89457">
        <ele>284.3</ele>
        <time>2023-09-02T15:01:17Z</time>
      </trkpt>
      <trkpt lat="45.91839" lon="4.89457">
        <ele>284.3</ele>
        <time>2023-09-02T15:01:18Z</time>
      </trkpt>
      <trkpt lat="45.91839" lon="4.89457">
        <ele>284.3</ele>
        <time>2023-09-02T15:01:19Z</time>
      </trkpt>
      <trkpt lat="45.91839" lon="4.89456">
        <ele>284.3</ele>
        <time>2023-09-02T15:01:20Z</time>
      </trkpt>
      <trkpt lat="45.91839" lon="4.89456">
        <ele>284.3</ele>
        <time>2023-09-02T15:01:21Z</time>
      </trkpt>
      <trkpt lat="45.91838" lon="4.89456">
        <ele>284.3</ele>
        <time>2023-09-02T15:01:22Z</time>
      </trkpt>
      <trkpt lat="45.91838" lon="4.89456">
        <ele>284.3</ele>
        <time>2023-09-02T15:01:23Z</time>
      </trkpt>
      <trkpt lat="45.9184" lon="4.89453">
        <ele>284.2</ele>
        <time>2023-09-02T15:02:00Z</time>
      </trkpt>
      <trkpt lat="45.91841" lon="4.89451">
        <ele>284.2</ele>
        <time>2023-09-02T15:02:01Z</time>
      </trkpt>
      <trkpt lat="45.91843" lon="4.89449">
        <ele>284.2</ele>
        <time>2023-09-02T15:02:02Z</time>
      </trkpt>
      <trkpt lat="45.91844" lon="4.89445">
        <ele>284.2</ele>
        <time>2023-09-02T15:02:03Z</time>
      </trkpt>
      <trkpt lat="45.91845" lon="4.89443">
        <ele>284.2</ele>
        <time>2023-09-02T15:02:04Z</time>
      </trkpt>
      <trkpt lat="45.91847" lon="4.89439">
        <ele>284.2</ele>
        <time>2023-09-02T15:02:05Z</time>
      </trkpt>
      <trkpt lat="45.91847" lon="4.89438">
        <ele>284.2</ele>
        <time>2023-09-02T15:02:06Z</time>
      </trkpt>
      <trkpt lat="45.9185" lon="4.89435">
        <ele>284.1</ele>
        <time>2023-09-02T15:02:07Z</time>
      </trkpt>
      <trkpt lat="45.9185" lon="4.89434">
        <ele>284.1</ele>
        <time>2023-09-02T15:02:08Z</time>
      </trkpt>
      <trkpt lat="45.91852" lon="4.89429">
        <ele>284.1</ele>
        <time>2023-09-02T15:02:09Z</time>
      </trkpt>
      <trkpt lat="45.91853" lon="4.89427">
        <ele>284.1</ele>
        <time>2023-09-02T15:02:10Z</time>
      </trkpt>
      <trkpt lat="45.91854" lon="4.89424">
        <ele>284.1</ele>
        <time>2023-09-02T15:02:11Z</time>
      </trkpt>
      <trkpt lat="45.91856" lon="4.8942">
        <ele>284.1</ele>
        <time>2023-09-02T15:02:12Z</time>
      </trkpt>
      <trkpt lat="45.91858" lon="4.89417">
        <ele>284</ele>
        <time>2023-09-02T15:02:13Z</time>
      </trkpt>
      <trkpt lat="45.91859" lon="4.89414">
        <ele>284</ele>
        <time>2023-09-02T15:02:14Z</time>
      </trkpt>
      <trkpt lat="45.91861" lon="4.8941">
        <ele>284</ele>
        <time>2023-09-02T15:02:15Z</time>
      </trkpt>
      <trkpt lat="45.91862" lon="4.89407">
        <ele>284</ele>
        <time>2023-09-02T15:02:16Z</time>
      </trkpt>
      <trkpt lat="45.91864" lon="4.89404">
        <ele>284</ele>
        <time>2023-09-02T15:02:17Z</time>
      </trkpt>
      <trkpt lat="45.91866" lon="4.894">
        <ele>284</ele>
        <time>2023-09-02T15:02:18Z</time>
      </trkpt>
      <trkpt lat="45.91867" lon="4.89396">
        <ele>284</ele>
        <time>2023-09-02T15:02:19Z</time>
      </trkpt>
      <trkpt lat="45.91868" lon="4.89392">
        <ele>284</ele>
        <time>2023-09-02T15:02:20Z</time>
      </trkpt>
      <trkpt lat="45.9187" lon="4.89389">
        <ele>284</ele>
        <time>2023-09-02T15:02:21Z</time>
      </trkpt>
      <trkpt lat="45.91872" lon="4.89384">
        <ele>284</ele>
        <time>2023-09-02T15:02:22Z</time>
      </trkpt>
      <trkpt lat="45.91873" lon="4.89382">
        <ele>284</ele>
        <time>2023-09-02T15:02:23Z</time>
      </trkpt>
      <trkpt lat="45.91876" lon="4.89378">
        <ele>283.9</ele>
        <time>2023-09-02T15:02:24Z</time>
      </trkpt>
      <trkpt lat="45.91877" lon="4.89376">
        <ele>283.9</ele>
        <time>2023-09-02T15:02:25Z</time>
      </trkpt>
      <trkpt lat="45.91879" lon="4.89372">
        <ele>283.9</ele>
        <time>2023-09-02T15:02:26Z</time>
      </trkpt>
      <trkpt lat="45.9188" lon="4.8937">
        <ele>283.9</ele>
        <time>2023-09-02T15:02:27Z</time>
      </trkpt>
      <trkpt lat="45.91882" lon="4.89367">
        <ele>283.9</ele>
        <time>2023-09-02T15:02:28Z</time>
      </trkpt>
      <trkpt lat="45.91885" lon="4.89363">
        <ele>283.9</ele>
        <time>2023-09-02T15:02:29Z</time>
      </trkpt>
      <trkpt lat="45.91886" lon="4.89361">
        <ele>284</ele>
        <time>2023-09-02T15:02:30Z</time>
      </trkpt>
      <trkpt lat="45.91888" lon="4.89358">
        <ele>284</ele>
        <time>2023-09-02T15:02:31Z</time>
      </trkpt>
      <trkpt lat="45.9189" lon="4.89354">
        <ele>284</ele>
        <time>2023-09-02T15:02:32Z</time>
      </trkpt>
      <trkpt lat="45.91891" lon="4.89351">
        <ele>284</ele>
        <time>2023-09-02T15:02:33Z</time>
      </trkpt>
      <trkpt lat="45.91893" lon="4.89347">
        <ele>284</ele>
        <time>2023-09-02T15:02:34Z</time>
      </trkpt>
      <trkpt lat="45.91895" lon="4.89344">
        <ele>284</ele>
        <time>2023-09-02T15:02:35Z</time>
      </trkpt>
      <trkpt lat="45.91897" lon="4.89339">
        <ele>284.1</ele>
        <time>2023-09-02T15:02:36Z</time>
      </trkpt>
      <trkpt lat="45.91898" lon="4.89337">
        <ele>284.1</ele>
        <time>2023-09-02T15:02:37Z</time>
      </trkpt>
      <trkpt lat="45.91901" lon="4.89332">
        <ele>284.1</ele>
        <time>2023-09-02T15:02:38Z</time>
      </trkpt>
      <trkpt lat="45.91901" lon="4.8933">
        <ele>284.1</ele>
        <time>2023-09-02T15:02:39Z</time>
      </trkpt>
      <trkpt lat="45.91903" lon="4.89327">
        <ele>284.1</ele>
        <time>2023-09-02T15:02:40Z</time>
      </trkpt>
      <trkpt lat="45.91905" lon="4.89323">
        <ele>284.2</ele>
        <time>2023-09-02T15:02:41Z</time>
      </trkpt>
      <trkpt lat="45.91907" lon="4.89319">
        <ele>284.2</ele>
        <time>2023-09-02T15:02:42Z</time>
      </trkpt>
      <trkpt lat="45.91908" lon="4.89317">
        <ele>284.2</ele>
        <time>2023-09-02T15:02:43Z</time>
      </trkpt>
      <trkpt lat="45.91909" lon="4.89314">
        <ele>284.2</ele>
        <time>2023-09-02T15:02:44Z</time>
      </trkpt>
      <trkpt lat="45.91911" lon="4.8931">
        <ele>284.3</ele>
        <time>2023-09-02T15:02:45Z</time>
      </trkpt>
      <trkpt lat="45.91913" lon="4.89307">
        <ele>284.3</ele>
        <time>2023-09-02T15:02:46Z</time>
      </trkpt>
      <trkpt lat="45.91916" lon="4.89302">
        <ele>284.4</ele>
        <time>2023-09-02T15:02:47Z</time>
      </trkpt>
      <trkpt lat="45.91917" lon="4.89301">
        <ele>284.4</ele>
        <time>2023-09-02T15:02:48Z</time>
      </trkpt>
      <trkpt lat="45.91918" lon="4.89297">
        <ele>284.4</ele>
        <time>2023-09-02T15:02:49Z</time>
      </trkpt>
      <trkpt lat="45.91921" lon="4.89292">
        <ele>284.5</ele>
        <time>2023-09-02T15:02:50Z</time>
      </trkpt>
      <trkpt lat="45.91922" lon="4.8929">
        <ele>284.5</ele>
        <time>2023-09-02T15:02:51Z</time>
      </trkpt>
      <trkpt lat="45.91924" lon="4.89286">
        <ele>284.5</ele>
        <time>2023-09-02T15:02:52Z</time>
      </trkpt>
      <trkpt lat="45.91925" lon="4.89284">
        <ele>284.5</ele>
        <time>2023-09-02T15:02:53Z</time>
      </trkpt>
      <trkpt lat="45.91927" lon="4.8928">
        <ele>284.6</ele>
        <time>2023-09-02T15:02:54Z</time>
      </trkpt>
      <trkpt lat="45.91928" lon="4.89279">
        <ele>284.6</ele>
        <time>2023-09-02T15:02:55Z</time>
      </trkpt>
      <trkpt lat="45.91929" lon="4.89275">
        <ele>284.6</ele>
        <time>2023-09-02T15:02:56Z</time>
      </trkpt>
      <trkpt lat="45.91931" lon="4.89272">
        <ele>284.6</ele>
        <time>2023-09-02T15:02:57Z</time>
      </trkpt>
      <trkpt lat="45.91933" lon="4.89268">
        <ele>284.6</ele>
        <time>2023-09-02T15:02:58Z</time>
      </trkpt>
      <trkpt lat="45.91934" lon="4.89265">
        <ele>284.6</ele>
        <time>2023-09-02T15:02:59Z</time>
      </trkpt>
      <trkpt lat="45.91936" lon="4.89261">
        <ele>284.6</ele>
        <time>2023-09-02T15:03:00Z</time>
      </trkpt>
      <trkpt lat="45.91938" lon="4.89257">
        <ele>284.6</ele>
        <time>2023-09-02T15:03:01Z</time>
      </trkpt>
      <trkpt lat="45.91939" lon="4.89254">
        <ele>284.6</ele>
        <time>2023-09-02T15:03:02Z</time>
      </trkpt>
      <trkpt lat="45.91941" lon="4.8925">
        <ele>284.6</ele>
        <time>2023-09-02T15:03:03Z</time>
      </trkpt>
      <trkpt lat="45.91943" lon="4.89245">
        <ele>284.6</ele>
        <time>2023-09-02T15:03:04Z</time>
      </trkpt>
      <trkpt lat="45.91944" lon="4.89244">
        <ele>284.6</ele>
        <time>2023-09-02T15:03:05Z</time>
      </trkpt>
      <trkpt lat="45.91946" lon="4.8924">
        <ele>284.6</ele>
        <time>2023-09-02T15:03:06Z</time>
      </trkpt>
      <trkpt lat="45.91949" lon="4.89236">
        <ele>284.5</ele>
        <time>2023-09-02T15:03:07Z</time>
      </trkpt>
      <trkpt lat="45.9195" lon="4.89233">
        <ele>284.5</ele>
        <time>2023-09-02T15:03:08Z</time>
      </trkpt>
      <trkpt lat="45.91952" lon="4.89229">
        <ele>284.4</ele>
        <time>2023-09-02T15:03:09Z</time>
      </trkpt>
      <trkpt lat="45.91954" lon="4.89225">
        <ele>284.4</ele>
        <time>2023-09-02T15:03:10Z</time>
      </trkpt>
      <trkpt lat="45.91956" lon="4.89221">
        <ele>284.3</ele>
        <time>2023-09-02T15:03:11Z</time>
      </trkpt>
      <trkpt lat="45.91958" lon="4.89217">
        <ele>284.2</ele>
        <time>2023-09-02T15:03:12Z</time>
      </trkpt>
      <trkpt lat="45.9196" lon="4.89214">
        <ele>284.2</ele>
        <time>2023-09-02T15:03:13Z</time>
      </trkpt>
      <trkpt lat="45.91962" lon="4.8921">
        <ele>284.1</ele>
        <time>2023-09-02T15:03:14Z</time>
      </trkpt>
      <trkpt lat="45.91964" lon="4.89205">
        <ele>284.1</ele>
        <time>2023-09-02T15:03:15Z</time>
      </trkpt>
      <trkpt lat="45.91965" lon="4.89201">
        <ele>284.1</ele>
        <time>2023-09-02T15:03:16Z</time>
      </trkpt>
      <trkpt lat="45.91966" lon="4.89197">
        <ele>284</ele>
        <time>2023-09-02T15:03:17Z</time>
      </trkpt>
      <trkpt lat="45.91967" lon="4.89192">
        <ele>284</ele>
        <time>2023-09-02T15:03:18Z</time>
      </trkpt>
      <trkpt lat="45.91968" lon="4.89188">
        <ele>284</ele>
        <time>2023-09-02T15:03:19Z</time>
      </trkpt>
      <trkpt lat="45.91969" lon="4.89184">
        <ele>284</ele>
        <time>2023-09-02T15:03:20Z</time>
      </trkpt>
      <trkpt lat="45.9197" lon="4.89179">
        <ele>283.9</ele>
        <time>2023-09-02T15:03:21Z</time>
      </trkpt>
      <trkpt lat="45.91971" lon="4.89176">
        <ele>283.9</ele>
        <time>2023-09-02T15:03:22Z</time>
      </trkpt>
      <trkpt lat="45.91973" lon="4.8917">
        <ele>283.8</ele>
        <time>2023-09-02T15:03:23Z</time>
      </trkpt>
      <trkpt lat="45.91973" lon="4.89168">
        <ele>283.8</ele>
        <time>2023-09-02T15:03:24Z</time>
      </trkpt>
      <trkpt lat="45.91974" lon="4.89164">
        <ele>283.8</ele>
        <time>2023-09-02T15:03:25Z</time>
      </trkpt>
      <trkpt lat="45.91975" lon="4.8916">
        <ele>283.7</ele>
        <time>2023-09-02T15:03:26Z</time>
      </trkpt>
      <trkpt lat="45.91977" lon="4.89155">
        <ele>283.7</ele>
        <time>2023-09-02T15:03:27Z</time>
      </trkpt>
      <trkpt lat="45.91978" lon="4.8915">
        <ele>283.7</ele>
        <time>2023-09-02T15:03:28Z</time>
      </trkpt>
      <trkpt lat="45.91979" lon="4.89146">
        <ele>283.6</ele>
        <time>2023-09-02T15:03:29Z</time>
      </trkpt>
      <trkpt lat="45.91981" lon="4.89142">
        <ele>283.6</ele>
        <time>2023-09-02T15:03:30Z</time>
      </trkpt>
      <trkpt lat="45.91982" lon="4.89137">
        <ele>283.5</ele>
        <time>2023-09-02T15:03:31Z</time>
      </trkpt>
      <trkpt lat="45.91984" lon="4.89133">
        <ele>283.4</ele>
        <time>2023-09-02T15:03:32Z</time>
      </trkpt>
      <trkpt lat="45.91985" lon="4.89128">
        <ele>283.4</ele>
        <time>2023-09-02T15:03:33Z</time>
      </trkpt>
      <trkpt lat="45.91987" lon="4.89124">
        <ele>283.3</ele>
        <time>2023-09-02T15:03:34Z</time>
      </trkpt>
      <trkpt lat="45.91989" lon="4.89119">
        <ele>283.3</ele>
        <time>2023-09-02T15:03:35Z</time>
      </trkpt>
      <trkpt lat="45.9199" lon="4.89115">
        <ele>283.2</ele>
        <time>2023-09-02T15:03:36Z</time>
      </trkpt>
      <trkpt lat="45.91992" lon="4.89111">
        <ele>283.2</ele>
        <time>2023-09-02T15:03:37Z</time>
      </trkpt>
      <trkpt lat="45.91994" lon="4.89107">
        <ele>283.2</ele>
        <time>2023-09-02T15:03:38Z</time>
      </trkpt>
      <trkpt lat="45.91997" lon="4.89102">
        <ele>283.2</ele>
        <time>2023-09-02T15:03:39Z</time>
      </trkpt>
      <trkpt lat="45.91999" lon="4.89099">
        <ele>283.3</ele>
        <time>2023-09-02T15:03:40Z</time>
      </trkpt>
      <trkpt lat="45.92002" lon="4.89096">
        <ele>283.3</ele>
        <time>2023-09-02T15:03:41Z</time>
      </trkpt>
      <trkpt lat="45.92004" lon="4.89093">
        <ele>283.3</ele>
        <time>2023-09-02T15:03:42Z</time>
      </trkpt>
      <trkpt lat="45.92007" lon="4.89089">
        <ele>283.4</ele>
        <time>2023-09-02T15:03:43Z</time>
      </trkpt>
      <trkpt lat="45.92008" lon="4.89088">
        <ele>283.4</ele>
        <time>2023-09-02T15:03:44Z</time>
      </trkpt>
      <trkpt lat="45.9201" lon="4.89085">
        <ele>283.4</ele>
        <time>2023-09-02T15:03:45Z</time>
      </trkpt>
      <trkpt lat="45.92012" lon="4.89083">
        <ele>283.5</ele>
        <time>2023-09-02T15:03:46Z</time>
      </trkpt>
      <trkpt lat="45.92014" lon="4.8908">
        <ele>283.5</ele>
        <time>2023-09-02T15:03:47Z</time>
      </trkpt>
      <trkpt lat="45.92017" lon="4.89078">
        <ele>283.6</ele>
        <time>2023-09-02T15:03:48Z</time>
      </trkpt>
      <trkpt lat="45.92019" lon="4.89075">
        <ele>283.7</ele>
        <time>2023-09-02T15:03:49Z</time>
      </trkpt>
      <trkpt lat="45.92022" lon="4.89073">
        <ele>283.7</ele>
        <time>2023-09-02T15:03:50Z</time>
      </trkpt>
      <trkpt lat="45.92024" lon="4.89071">
        <ele>283.8</ele>
        <time>2023-09-02T15:03:51Z</time>
      </trkpt>
      <trkpt lat="45.92027" lon="4.89069">
        <ele>283.9</ele>
        <time>2023-09-02T15:03:52Z</time>
      </trkpt>
      <trkpt lat="45.9203" lon="4.89067">
        <ele>284</ele>
        <time>2023-09-02T15:03:53Z</time>
      </trkpt>
      <trkpt lat="45.92034" lon="4.89065">
        <ele>284.1</ele>
        <time>2023-09-02T15:03:54Z</time>
      </trkpt>
      <trkpt lat="45.92035" lon="4.89064">
        <ele>284.1</ele>
        <time>2023-09-02T15:03:55Z</time>
      </trkpt>
      <trkpt lat="45.92039" lon="4.89062">
        <ele>284.2</ele>
        <time>2023-09-02T15:03:56Z</time>
      </trkpt>
      <trkpt lat="45.9204" lon="4.89061">
        <ele>284.3</ele>
        <time>2023-09-02T15:03:57Z</time>
      </trkpt>
      <trkpt lat="45.92044" lon="4.89058">
        <ele>284.4</ele>
        <time>2023-09-02T15:03:58Z</time>
      </trkpt>
      <trkpt lat="45.92045" lon="4.89058">
        <ele>284.5</ele>
        <time>2023-09-02T15:03:59Z</time>
      </trkpt>
      <trkpt lat="45.92047" lon="4.89056">
        <ele>284.6</ele>
        <time>2023-09-02T15:04:00Z</time>
      </trkpt>
      <trkpt lat="45.9205" lon="4.89053">
        <ele>284.7</ele>
        <time>2023-09-02T15:04:01Z</time>
      </trkpt>
      <trkpt lat="45.92052" lon="4.89052">
        <ele>284.8</ele>
        <time>2023-09-02T15:04:02Z</time>
      </trkpt>
      <trkpt lat="45.92055" lon="4.89049">
        <ele>284.9</ele>
        <time>2023-09-02T15:04:03Z</time>
      </trkpt>
      <trkpt lat="45.92057" lon="4.89047">
        <ele>285</ele>
        <time>2023-09-02T15:04:04Z</time>
      </trkpt>
      <trkpt lat="45.92059" lon="4.89044">
        <ele>285.1</ele>
        <time>2023-09-02T15:04:05Z</time>
      </trkpt>
      <trkpt lat="45.92061" lon="4.89042">
        <ele>285.2</ele>
        <time>2023-09-02T15:04:06Z</time>
      </trkpt>
      <trkpt lat="45.92063" lon="4.89038">
        <ele>285.2</ele>
        <time>2023-09-02T15:04:07Z</time>
      </trkpt>
      <trkpt lat="45.92064" lon="4.89035">
        <ele>285.2</ele>
        <time>2023-09-02T15:04:08Z</time>
      </trkpt>
      <trkpt lat="45.92065" lon="4.89031">
        <ele>285.3</ele>
        <time>2023-09-02T15:04:09Z</time>
      </trkpt>
      <trkpt lat="45.92066" lon="4.89027">
        <ele>285.3</ele>
        <time>2023-09-02T15:04:10Z</time>
      </trkpt>
      <trkpt lat="45.92068" lon="4.89023">
        <ele>285.4</ele>
        <time>2023-09-02T15:04:11Z</time>
      </trkpt>
      <trkpt lat="45.9207" lon="4.89018">
        <ele>285.5</ele>
        <time>2023-09-02T15:04:12Z</time>
      </trkpt>
      <trkpt lat="45.92071" lon="4.89016">
        <ele>285.5</ele>
        <time>2023-09-02T15:04:13Z</time>
      </trkpt>
      <trkpt lat="45.92072" lon="4.89012">
        <ele>285.6</ele>
        <time>2023-09-02T15:04:14Z</time>
      </trkpt>
      <trkpt lat="45.92073" lon="4.89007">
        <ele>285.7</ele>
        <time>2023-09-02T15:04:15Z</time>
      </trkpt>
      <trkpt lat="45.92074" lon="4.89005">
        <ele>285.7</ele>
        <time>2023-09-02T15:04:16Z</time>
      </trkpt>
      <trkpt lat="45.92075" lon="4.89001">
        <ele>285.8</ele>
        <time>2023-09-02T15:04:17Z</time>
      </trkpt>
      <trkpt lat="45.92077" lon="4.88998">
        <ele>285.8</ele>
        <time>2023-09-02T15:04:18Z</time>
      </trkpt>
      <trkpt lat="45.92079" lon="4.88995">
        <ele>285.9</ele>
        <time>2023-09-02T15:04:19Z</time>
      </trkpt>
      <trkpt lat="45.92081" lon="4.88992">
        <ele>286</ele>
        <time>2023-09-02T15:04:20Z</time>
      </trkpt>
      <trkpt lat="45.92083" lon="4.88988">
        <ele>286.1</ele>
        <time>2023-09-02T15:04:21Z</time>
      </trkpt>
      <trkpt lat="45.92086" lon="4.88985">
        <ele>286.2</ele>
        <time>2023-09-02T15:04:22Z</time>
      </trkpt>
      <trkpt lat="45.92087" lon="4.88984">
        <ele>286.3</ele>
        <time>2023-09-02T15:04:23Z</time>
      </trkpt>
      <trkpt lat="45.9209" lon="4.88982">
        <ele>286.4</ele>
        <time>2023-09-02T15:04:24Z</time>
      </trkpt>
      <trkpt lat="45.92096" lon="4.88981">
        <ele>286.6</ele>
        <time>2023-09-02T15:04:25Z</time>
      </trkpt>
      <trkpt lat="45.92098" lon="4.88979">
        <ele>286.7</ele>
        <time>2023-09-02T15:04:26Z</time>
      </trkpt>
      <trkpt lat="45.92101" lon="4.88978">
        <ele>286.9</ele>
        <time>2023-09-02T15:04:27Z</time>
      </trkpt>
      <trkpt lat="45.92104" lon="4.88978">
        <ele>287</ele>
        <time>2023-09-02T15:04:28Z</time>
      </trkpt>
      <trkpt lat="45.92108" lon="4.88978">
        <ele>287.1</ele>
        <time>2023-09-02T15:04:29Z</time>
      </trkpt>
      <trkpt lat="45.92109" lon="4.88978">
        <ele>287.2</ele>
        <time>2023-09-02T15:04:30Z</time>
      </trkpt>
      <trkpt lat="45.92112" lon="4.88978">
        <ele>287.3</ele>
        <time>2023-09-02T15:04:31Z</time>
      </trkpt>
      <trkpt lat="45.92115" lon="4.88979">
        <ele>287.4</ele>
        <time>2023-09-02T15:04:32Z</time>
      </trkpt>
      <trkpt lat="45.92118" lon="4.8898">
        <ele>287.5</ele>
        <time>2023-09-02T15:04:33Z</time>
      </trkpt>
      <trkpt lat="45.92121" lon="4.88978">
        <ele>287.6</ele>
        <time>2023-09-02T15:04:34Z</time>
      </trkpt>
      <trkpt lat="45.92124" lon="4.8898">
        <ele>287.7</ele>
        <time>2023-09-02T15:04:35Z</time>
      </trkpt>
      <trkpt lat="45.92126" lon="4.8898">
        <ele>287.8</ele>
        <time>2023-09-02T15:04:36Z</time>
      </trkpt>
      <trkpt lat="45.92129" lon="4.8898">
        <ele>287.9</ele>
        <time>2023-09-02T15:04:37Z</time>
      </trkpt>
      <trkpt lat="45.92133" lon="4.88981">
        <ele>288</ele>
        <time>2023-09-02T15:04:38Z</time>
      </trkpt>
      <trkpt lat="45.92135" lon="4.8898">
        <ele>288.1</ele>
        <time>2023-09-02T15:04:39Z</time>
      </trkpt>
      <trkpt lat="45.92137" lon="4.88981">
        <ele>288.2</ele>
        <time>2023-09-02T15:04:40Z</time>
      </trkpt>
      <trkpt lat="45.9214" lon="4.8898">
        <ele>288.3</ele>
        <time>2023-09-02T15:04:41Z</time>
      </trkpt>
      <trkpt lat="45.92144" lon="4.8898">
        <ele>288.5</ele>
        <time>2023-09-02T15:04:42Z</time>
      </trkpt>
      <trkpt lat="45.92145" lon="4.8898">
        <ele>288.5</ele>
        <time>2023-09-02T15:04:43Z</time>
      </trkpt>
      <trkpt lat="45.92148" lon="4.88979">
        <ele>288.7</ele>
        <time>2023-09-02T15:04:44Z</time>
      </trkpt>
      <trkpt lat="45.92151" lon="4.88979">
        <ele>288.9</ele>
        <time>2023-09-02T15:04:45Z</time>
      </trkpt>
      <trkpt lat="45.92154" lon="4.8898">
        <ele>289.1</ele>
        <time>2023-09-02T15:04:47Z</time>
      </trkpt>
      <trkpt lat="45.92158" lon="4.88981">
        <ele>289.3</ele>
        <time>2023-09-02T15:04:48Z</time>
      </trkpt>
      <trkpt lat="45.92159" lon="4.88982">
        <ele>289.4</ele>
        <time>2023-09-02T15:04:49Z</time>
      </trkpt>
      <trkpt lat="45.92163" lon="4.88983">
        <ele>289.6</ele>
        <time>2023-09-02T15:04:50Z</time>
      </trkpt>
      <trkpt lat="45.92164" lon="4.88983">
        <ele>289.7</ele>
        <time>2023-09-02T15:04:51Z</time>
      </trkpt>
      <trkpt lat="45.92167" lon="4.88985">
        <ele>289.9</ele>
        <time>2023-09-02T15:04:52Z</time>
      </trkpt>
      <trkpt lat="45.92168" lon="4.88985">
        <ele>289.9</ele>
        <time>2023-09-02T15:04:53Z</time>
      </trkpt>
      <trkpt lat="45.92172" lon="4.88986">
        <ele>290.1</ele>
        <time>2023-09-02T15:04:54Z</time>
      </trkpt>
      <trkpt lat="45.92173" lon="4.88987">
        <ele>290.2</ele>
        <time>2023-09-02T15:04:55Z</time>
      </trkpt>
      <trkpt lat="45.92176" lon="4.88988">
        <ele>290.4</ele>
        <time>2023-09-02T15:04:56Z</time>
      </trkpt>
      <trkpt lat="45.92178" lon="4.88988">
        <ele>290.4</ele>
        <time>2023-09-02T15:04:57Z</time>
      </trkpt>
      <trkpt lat="45.92181" lon="4.88989">
        <ele>290.6</ele>
        <time>2023-09-02T15:04:58Z</time>
      </trkpt>
      <trkpt lat="45.92182" lon="4.8899">
        <ele>290.6</ele>
        <time>2023-09-02T15:04:59Z</time>
      </trkpt>
      <trkpt lat="45.92186" lon="4.8899">
        <ele>290.8</ele>
        <time>2023-09-02T15:05:00Z</time>
      </trkpt>
      <trkpt lat="45.92187" lon="4.88991">
        <ele>290.9</ele>
        <time>2023-09-02T15:05:01Z</time>
      </trkpt>
      <trkpt lat="45.9219" lon="4.8899">
        <ele>291</ele>
        <time>2023-09-02T15:05:02Z</time>
      </trkpt>
      <trkpt lat="45.92191" lon="4.8899">
        <ele>291</ele>
        <time>2023-09-02T15:05:03Z</time>
      </trkpt>
      <trkpt lat="45.92194" lon="4.88991">
        <ele>291.2</ele>
        <time>2023-09-02T15:05:04Z</time>
      </trkpt>
      <trkpt lat="45.92198" lon="4.88991">
        <ele>291.3</ele>
        <time>2023-09-02T15:05:05Z</time>
      </trkpt>
      <trkpt lat="45.92199" lon="4.88991">
        <ele>291.4</ele>
        <time>2023-09-02T15:05:06Z</time>
      </trkpt>
      <trkpt lat="45.92203" lon="4.88993">
        <ele>291.5</ele>
        <time>2023-09-02T15:05:07Z</time>
      </trkpt>
      <trkpt lat="45.92204" lon="4.88993">
        <ele>291.5</ele>
        <time>2023-09-02T15:05:08Z</time>
      </trkpt>
      <trkpt lat="45.92208" lon="4.88994">
        <ele>291.7</ele>
        <time>2023-09-02T15:05:09Z</time>
      </trkpt>
      <trkpt lat="45.92209" lon="4.88994">
        <ele>291.7</ele>
        <time>2023-09-02T15:05:10Z</time>
      </trkpt>
      <trkpt lat="45.92212" lon="4.88995">
        <ele>291.8</ele>
        <time>2023-09-02T15:05:11Z</time>
      </trkpt>
      <trkpt lat="45.92214" lon="4.88996">
        <ele>291.9</ele>
        <time>2023-09-02T15:05:12Z</time>
      </trkpt>
      <trkpt lat="45.92218" lon="4.88997">
        <ele>292</ele>
        <time>2023-09-02T15:05:13Z</time>
      </trkpt>
      <trkpt lat="45.92219" lon="4.88998">
        <ele>292.1</ele>
        <time>2023-09-02T15:05:14Z</time>
      </trkpt>
      <trkpt lat="45.92223" lon="4.88998">
        <ele>292.2</ele>
        <time>2023-09-02T15:05:15Z</time>
      </trkpt>
      <trkpt lat="45.92224" lon="4.88999">
        <ele>292.3</ele>
        <time>2023-09-02T15:05:16Z</time>
      </trkpt>
      <trkpt lat="45.92228" lon="4.89">
        <ele>292.4</ele>
        <time>2023-09-02T15:05:17Z</time>
      </trkpt>
      <trkpt lat="45.92229" lon="4.89001">
        <ele>292.5</ele>
        <time>2023-09-02T15:05:18Z</time>
      </trkpt>
      <trkpt lat="45.92233" lon="4.89002">
        <ele>292.6</ele>
        <time>2023-09-02T15:05:19Z</time>
      </trkpt>
      <trkpt lat="45.92234" lon="4.89003">
        <ele>292.7</ele>
        <time>2023-09-02T15:05:20Z</time>
      </trkpt>
      <trkpt lat="45.92238" lon="4.89004">
        <ele>292.8</ele>
        <time>2023-09-02T15:05:21Z</time>
      </trkpt>
      <trkpt lat="45.92239" lon="4.89004">
        <ele>292.9</ele>
        <time>2023-09-02T15:05:22Z</time>
      </trkpt>
      <trkpt lat="45.92243" lon="4.89003">
        <ele>293.1</ele>
        <time>2023-09-02T15:05:23Z</time>
      </trkpt>
      <trkpt lat="45.92244" lon="4.89002">
        <ele>293.2</ele>
        <time>2023-09-02T15:05:24Z</time>
      </trkpt>
      <trkpt lat="45.92247" lon="4.89002">
        <ele>293.3</ele>
        <time>2023-09-02T15:05:25Z</time>
      </trkpt>
      <trkpt lat="45.92247" lon="4.89003">
        <ele>293.3</ele>
        <time>2023-09-02T15:05:26Z</time>
      </trkpt>
      <trkpt lat="45.92248" lon="4.89003">
        <ele>293.3</ele>
        <time>2023-09-02T15:05:27Z</time>
      </trkpt>
      <trkpt lat="45.92252" lon="4.89007">
        <ele>293.5</ele>
        <time>2023-09-02T15:05:28Z</time>
      </trkpt>
      <trkpt lat="45.92253" lon="4.89008">
        <ele>293.6</ele>
        <time>2023-09-02T15:05:29Z</time>
      </trkpt>
      <trkpt lat="45.92257" lon="4.89007">
        <ele>293.7</ele>
        <time>2023-09-02T15:05:30Z</time>
      </trkpt>
      <trkpt lat="45.92258" lon="4.89006">
        <ele>293.7</ele>
        <time>2023-09-02T15:05:31Z</time>
      </trkpt>
      <trkpt lat="45.92262" lon="4.89005">
        <ele>293.8</ele>
        <time>2023-09-02T15:05:32Z</time>
      </trkpt>
      <trkpt lat="45.92262" lon="4.89005">
        <ele>293.9</ele>
        <time>2023-09-02T15:05:33Z</time>
      </trkpt>
      <trkpt lat="45.92266" lon="4.89004">
        <ele>294</ele>
        <time>2023-09-02T15:05:34Z</time>
      </trkpt>
      <trkpt lat="45.92267" lon="4.89003">
        <ele>294</ele>
        <time>2023-09-02T15:05:35Z</time>
      </trkpt>
      <trkpt lat="45.92271" lon="4.89002">
        <ele>294.1</ele>
        <time>2023-09-02T15:05:36Z</time>
      </trkpt>
      <trkpt lat="45.92272" lon="4.89001">
        <ele>294.2</ele>
        <time>2023-09-02T15:05:37Z</time>
      </trkpt>
      <trkpt lat="45.92276" lon="4.89">
        <ele>294.3</ele>
        <time>2023-09-02T15:05:38Z</time>
      </trkpt>
      <trkpt lat="45.92277" lon="4.88999">
        <ele>294.3</ele>
        <time>2023-09-02T15:05:39Z</time>
      </trkpt>
      <trkpt lat="45.9228" lon="4.88998">
        <ele>294.3</ele>
        <time>2023-09-02T15:05:40Z</time>
      </trkpt>
      <trkpt lat="45.92283" lon="4.88997">
        <ele>294.4</ele>
        <time>2023-09-02T15:05:41Z</time>
      </trkpt>
      <trkpt lat="45.92284" lon="4.88996">
        <ele>294.4</ele>
        <time>2023-09-02T15:05:42Z</time>
      </trkpt>
      <trkpt lat="45.92287" lon="4.88995">
        <ele>294.5</ele>
        <time>2023-09-02T15:05:43Z</time>
      </trkpt>
      <trkpt lat="45.92288" lon="4.88995">
        <ele>294.5</ele>
        <time>2023-09-02T15:05:44Z</time>
      </trkpt>
      <trkpt lat="45.92291" lon="4.88994">
        <ele>294.5</ele>
        <time>2023-09-02T15:05:45Z</time>
      </trkpt>
      <trkpt lat="45.92295" lon="4.88993">
        <ele>294.6</ele>
        <time>2023-09-02T15:05:46Z</time>
      </trkpt>
      <trkpt lat="45.92296" lon="4.88992">
        <ele>294.6</ele>
        <time>2023-09-02T15:05:47Z</time>
      </trkpt>
      <trkpt lat="45.92299" lon="4.88991">
        <ele>294.7</ele>
        <time>2023-09-02T15:05:48Z</time>
      </trkpt>
      <trkpt lat="45.923" lon="4.8899">
        <ele>294.7</ele>
        <time>2023-09-02T15:05:49Z</time>
      </trkpt>
      <trkpt lat="45.92304" lon="4.8899">
        <ele>294.7</ele>
        <time>2023-09-02T15:05:50Z</time>
      </trkpt>
      <trkpt lat="45.92305" lon="4.88989">
        <ele>294.7</ele>
        <time>2023-09-02T15:05:51Z</time>
      </trkpt>
      <trkpt lat="45.92309" lon="4.88988">
        <ele>294.7</ele>
        <time>2023-09-02T15:05:52Z</time>
      </trkpt>
      <trkpt lat="45.9231" lon="4.88987">
        <ele>294.8</ele>
        <time>2023-09-02T15:05:53Z</time>
      </trkpt>
      <trkpt lat="45.92313" lon="4.88985">
        <ele>294.8</ele>
        <time>2023-09-02T15:05:54Z</time>
      </trkpt>
      <trkpt lat="45.92314" lon="4.88985">
        <ele>294.8</ele>
        <time>2023-09-02T15:05:55Z</time>
      </trkpt>
      <trkpt lat="45.92318" lon="4.88984">
        <ele>294.8</ele>
        <time>2023-09-02T15:05:56Z</time>
      </trkpt>
      <trkpt lat="45.92319" lon="4.88983">
        <ele>294.8</ele>
        <time>2023-09-02T15:05:57Z</time>
      </trkpt>
      <trkpt lat="45.92323" lon="4.88981">
        <ele>294.8</ele>
        <time>2023-09-02T15:05:58Z</time>
      </trkpt>
      <trkpt lat="45.92324" lon="4.8898">
        <ele>294.9</ele>
        <time>2023-09-02T15:05:59Z</time>
      </trkpt>
      <trkpt lat="45.92327" lon="4.88978">
        <ele>294.9</ele>
        <time>2023-09-02T15:06:00Z</time>
      </trkpt>
      <trkpt lat="45.92329" lon="4.88977">
        <ele>294.9</ele>
        <time>2023-09-02T15:06:01Z</time>
      </trkpt>
      <trkpt lat="45.92332" lon="4.88975">
        <ele>295</ele>
        <time>2023-09-02T15:06:02Z</time>
      </trkpt>
      <trkpt lat="45.92335" lon="4.88973">
        <ele>295</ele>
        <time>2023-09-02T15:06:03Z</time>
      </trkpt>
      <trkpt lat="45.92337" lon="4.8897">
        <ele>295</ele>
        <time>2023-09-02T15:06:04Z</time>
      </trkpt>
      <trkpt lat="45.92338" lon="4.88969">
        <ele>295.1</ele>
        <time>2023-09-02T15:06:05Z</time>
      </trkpt>
      <trkpt lat="45.92341" lon="4.88968">
        <ele>295.1</ele>
        <time>2023-09-02T15:06:06Z</time>
      </trkpt>
      <trkpt lat="45.92341" lon="4.88967">
        <ele>295.1</ele>
        <time>2023-09-02T15:06:07Z</time>
      </trkpt>
      <trkpt lat="45.92343" lon="4.88968">
        <ele>295.1</ele>
        <time>2023-09-02T15:06:08Z</time>
      </trkpt>
      <trkpt lat="45.92343" lon="4.88969">
        <ele>295.1</ele>
        <time>2023-09-02T15:06:09Z</time>
      </trkpt>
      <trkpt lat="45.92343" lon="4.88969">
        <ele>295.1</ele>
        <time>2023-09-02T15:06:10Z</time>
      </trkpt>
      <trkpt lat="45.92344" lon="4.8897">
        <ele>295.1</ele>
        <time>2023-09-02T15:06:11Z</time>
      </trkpt>
      <trkpt lat="45.92346" lon="4.88967">
        <ele>295.1</ele>
        <time>2023-09-02T15:06:12Z</time>
      </trkpt>
      <trkpt lat="45.92347" lon="4.88966">
        <ele>295.1</ele>
        <time>2023-09-02T15:06:13Z</time>
      </trkpt>
      <trkpt lat="45.92349" lon="4.88962">
        <ele>295.1</ele>
        <time>2023-09-02T15:06:14Z</time>
      </trkpt>
      <trkpt lat="45.92349" lon="4.88961">
        <ele>295.1</ele>
        <time>2023-09-02T15:06:15Z</time>
      </trkpt>
      <trkpt lat="45.92351" lon="4.88959">
        <ele>295.1</ele>
        <time>2023-09-02T15:06:16Z</time>
      </trkpt>
      <trkpt lat="45.92354" lon="4.8896">
        <ele>295.1</ele>
        <time>2023-09-02T15:06:17Z</time>
      </trkpt>
      <trkpt lat="45.92355" lon="4.88961">
        <ele>295.1</ele>
        <time>2023-09-02T15:06:18Z</time>
      </trkpt>
      <trkpt lat="45.92354" lon="4.88965">
        <ele>295.1</ele>
        <time>2023-09-02T15:06:19Z</time>
      </trkpt>
      <trkpt lat="45.92353" lon="4.88966">
        <ele>295.1</ele>
        <time>2023-09-02T15:06:20Z</time>
      </trkpt>
      <trkpt lat="45.9235" lon="4.88964">
        <ele>295.1</ele>
        <time>2023-09-02T15:06:21Z</time>
      </trkpt>
      <trkpt lat="45.9235" lon="4.88963">
        <ele>295.1</ele>
        <time>2023-09-02T15:06:22Z</time>
      </trkpt>
      <trkpt lat="45.92351" lon="4.88959">
        <ele>295.1</ele>
        <time>2023-09-02T15:06:23Z</time>
      </trkpt>
      <trkpt lat="45.92352" lon="4.88958">
        <ele>295.1</ele>
        <time>2023-09-02T15:06:24Z</time>
      </trkpt>
      <trkpt lat="45.92355" lon="4.88958">
        <ele>295</ele>
        <time>2023-09-02T15:06:25Z</time>
      </trkpt>
      <trkpt lat="45.92356" lon="4.88957">
        <ele>295</ele>
        <time>2023-09-02T15:06:26Z</time>
      </trkpt>
      <trkpt lat="45.92359" lon="4.88956">
        <ele>295</ele>
        <time>2023-09-02T15:06:27Z</time>
      </trkpt>
      <trkpt lat="45.9236" lon="4.88956">
        <ele>295</ele>
        <time>2023-09-02T15:06:28Z</time>
      </trkpt>
      <trkpt lat="45.92363" lon="4.88955">
        <ele>295</ele>
        <time>2023-09-02T15:06:29Z</time>
      </trkpt>
      <trkpt lat="45.92364" lon="4.88954">
        <ele>295</ele>
        <time>2023-09-02T15:06:30Z</time>
      </trkpt>
      <trkpt lat="45.92367" lon="4.88952">
        <ele>294.9</ele>
        <time>2023-09-02T15:06:31Z</time>
      </trkpt>
      <trkpt lat="45.92368" lon="4.88951">
        <ele>294.9</ele>
        <time>2023-09-02T15:06:32Z</time>
      </trkpt>
      <trkpt lat="45.92371" lon="4.88949">
        <ele>294.9</ele>
        <time>2023-09-02T15:06:33Z</time>
      </trkpt>
      <trkpt lat="45.92372" lon="4.88948">
        <ele>294.9</ele>
        <time>2023-09-02T15:06:34Z</time>
      </trkpt>
      <trkpt lat="45.92375" lon="4.88946">
        <ele>294.9</ele>
        <time>2023-09-02T15:06:35Z</time>
      </trkpt>
      <trkpt lat="45.92376" lon="4.88945">
        <ele>294.9</ele>
        <time>2023-09-02T15:06:36Z</time>
      </trkpt>
      <trkpt lat="45.92379" lon="4.88943">
        <ele>294.8</ele>
        <time>2023-09-02T15:06:37Z</time>
      </trkpt>
      <trkpt lat="45.9238" lon="4.88942">
        <ele>294.8</ele>
        <time>2023-09-02T15:06:38Z</time>
      </trkpt>
      <trkpt lat="45.92383" lon="4.8894">
        <ele>294.8</ele>
        <time>2023-09-02T15:06:39Z</time>
      </trkpt>
      <trkpt lat="45.92384" lon="4.8894">
        <ele>294.8</ele>
        <time>2023-09-02T15:06:40Z</time>
      </trkpt>
      <trkpt lat="45.92384" lon="4.8894">
        <ele>294.8</ele>
        <time>2023-09-02T15:06:41Z</time>
      </trkpt>
      <trkpt lat="45.92384" lon="4.8894">
        <ele>294.8</ele>
        <time>2023-09-02T15:06:42Z</time>
      </trkpt>
      <trkpt lat="45.92385" lon="4.8894">
        <ele>294.8</ele>
        <time>2023-09-02T15:06:43Z</time>
      </trkpt>
      <trkpt lat="45.92385" lon="4.8894">
        <ele>294.8</ele>
        <time>2023-09-02T15:06:44Z</time>
      </trkpt>
      <trkpt lat="45.92385" lon="4.8894">
        <ele>294.8</ele>
        <time>2023-09-02T15:06:45Z</time>
      </trkpt>
      <trkpt lat="45.92385" lon="4.8894">
        <ele>294.8</ele>
        <time>2023-09-02T15:06:46Z</time>
      </trkpt>
      <trkpt lat="45.92385" lon="4.8894">
        <ele>294.8</ele>
        <time>2023-09-02T15:06:47Z</time>
      </trkpt>
      <trkpt lat="45.92385" lon="4.8894">
        <ele>294.8</ele>
        <time>2023-09-02T15:06:48Z</time>
      </trkpt>
      <trkpt lat="45.92386" lon="4.8894">
        <ele>294.8</ele>
        <time>2023-09-02T15:06:49Z</time>
      </trkpt>
      <trkpt lat="45.92386" lon="4.8894">
        <ele>294.8</ele>
        <time>2023-09-02T15:06:50Z</time>
      </trkpt>
      <trkpt lat="45.9239" lon="4.88942">
        <ele>294.8</ele>
        <time>2023-09-02T15:07:08Z</time>
      </trkpt>
      <trkpt lat="45.9239" lon="4.88944">
        <ele>294.8</ele>
        <time>2023-09-02T15:07:09Z</time>
      </trkpt>
      <trkpt lat="45.92391" lon="4.88945">
        <ele>294.8</ele>
        <time>2023-09-02T15:07:10Z</time>
      </trkpt>
      <trkpt lat="45.92392" lon="4.8895">
        <ele>294.8</ele>
        <time>2023-09-02T15:07:11Z</time>
      </trkpt>
      <trkpt lat="45.92392" lon="4.88951">
        <ele>294.8</ele>
        <time>2023-09-02T15:07:12Z</time>
      </trkpt>
      <trkpt lat="45.92392" lon="4.88955">
        <ele>294.8</ele>
        <time>2023-09-02T15:07:13Z</time>
      </trkpt>
      <trkpt lat="45.92391" lon="4.88957">
        <ele>294.8</ele>
        <time>2023-09-02T15:07:14Z</time>
      </trkpt>
      <trkpt lat="45.92393" lon="4.88961">
        <ele>294.8</ele>
        <time>2023-09-02T15:07:15Z</time>
      </trkpt>
      <trkpt lat="45.92393" lon="4.88963">
        <ele>294.8</ele>
        <time>2023-09-02T15:07:16Z</time>
      </trkpt>
      <trkpt lat="45.92393" lon="4.88969">
        <ele>294.8</ele>
        <time>2023-09-02T15:07:17Z</time>
      </trkpt>
      <trkpt lat="45.92394" lon="4.88971">
        <ele>294.8</ele>
        <time>2023-09-02T15:07:18Z</time>
      </trkpt>
      <trkpt lat="45.92395" lon="4.88976">
        <ele>294.8</ele>
        <time>2023-09-02T15:07:19Z</time>
      </trkpt>
      <trkpt lat="45.92395" lon="4.88978">
        <ele>294.8</ele>
        <time>2023-09-02T15:07:20Z</time>
      </trkpt>
      <trkpt lat="45.92396" lon="4.88982">
        <ele>294.8</ele>
        <time>2023-09-02T15:07:21Z</time>
      </trkpt>
      <trkpt lat="45.92396" lon="4.88986">
        <ele>294.8</ele>
        <time>2023-09-02T15:07:22Z</time>
      </trkpt>
      <trkpt lat="45.92398" lon="4.88991">
        <ele>294.8</ele>
        <time>2023-09-02T15:07:23Z</time>
      </trkpt>
      <trkpt lat="45.92398" lon="4.88993">
        <ele>294.8</ele>
        <time>2023-09-02T15:07:24Z</time>
      </trkpt>
      <trkpt lat="45.92399" lon="4.88999">
        <ele>294.8</ele>
        <time>2023-09-02T15:07:25Z</time>
      </trkpt>
      <trkpt lat="45.92399" lon="4.89001">
        <ele>294.8</ele>
        <time>2023-09-02T15:07:26Z</time>
      </trkpt>
      <trkpt lat="45.924" lon="4.89004">
        <ele>294.8</ele>
        <time>2023-09-02T15:07:27Z</time>
      </trkpt>
      <trkpt lat="45.92401" lon="4.89008">
        <ele>294.8</ele>
        <time>2023-09-02T15:07:28Z</time>
      </trkpt>
      <trkpt lat="45.92403" lon="4.89013">
        <ele>294.9</ele>
        <time>2023-09-02T15:07:29Z</time>
      </trkpt>
      <trkpt lat="45.92403" lon="4.89014">
        <ele>294.9</ele>
        <time>2023-09-02T15:07:30Z</time>
      </trkpt>
      <trkpt lat="45.92405" lon="4.8902">
        <ele>294.9</ele>
        <time>2023-09-02T15:07:31Z</time>
      </trkpt>
      <trkpt lat="45.92405" lon="4.89022">
        <ele>294.9</ele>
        <time>2023-09-02T15:07:32Z</time>
      </trkpt>
      <trkpt lat="45.92406" lon="4.89026">
        <ele>294.9</ele>
        <time>2023-09-02T15:07:33Z</time>
      </trkpt>
      <trkpt lat="45.92407" lon="4.8903">
        <ele>294.9</ele>
        <time>2023-09-02T15:07:34Z</time>
      </trkpt>
      <trkpt lat="45.92408" lon="4.89035">
        <ele>294.9</ele>
        <time>2023-09-02T15:07:35Z</time>
      </trkpt>
      <trkpt lat="45.92409" lon="4.89039">
        <ele>294.9</ele>
        <time>2023-09-02T15:07:36Z</time>
      </trkpt>
      <trkpt lat="45.9241" lon="4.89043">
        <ele>294.8</ele>
        <time>2023-09-02T15:07:37Z</time>
      </trkpt>
      <trkpt lat="45.92411" lon="4.89048">
        <ele>294.8</ele>
        <time>2023-09-02T15:07:38Z</time>
      </trkpt>
      <trkpt lat="45.92412" lon="4.89052">
        <ele>294.8</ele>
        <time>2023-09-02T15:07:39Z</time>
      </trkpt>
      <trkpt lat="45.92412" lon="4.89056">
        <ele>294.8</ele>
        <time>2023-09-02T15:07:40Z</time>
      </trkpt>
      <trkpt lat="45.92413" lon="4.89061">
        <ele>294.8</ele>
        <time>2023-09-02T15:07:41Z</time>
      </trkpt>
      <trkpt lat="45.92415" lon="4.89065">
        <ele>294.8</ele>
        <time>2023-09-02T15:07:42Z</time>
      </trkpt>
      <trkpt lat="45.92416" lon="4.8907">
        <ele>294.8</ele>
        <time>2023-09-02T15:07:43Z</time>
      </trkpt>
      <trkpt lat="45.92416" lon="4.89075">
        <ele>294.8</ele>
        <time>2023-09-02T15:07:44Z</time>
      </trkpt>
      <trkpt lat="45.92417" lon="4.89079">
        <ele>294.8</ele>
        <time>2023-09-02T15:07:45Z</time>
      </trkpt>
      <trkpt lat="45.92418" lon="4.89084">
        <ele>294.8</ele>
        <time>2023-09-02T15:07:46Z</time>
      </trkpt>
      <trkpt lat="45.92419" lon="4.89088">
        <ele>294.8</ele>
        <time>2023-09-02T15:07:47Z</time>
      </trkpt>
      <trkpt lat="45.9242" lon="4.89093">
        <ele>294.8</ele>
        <time>2023-09-02T15:07:48Z</time>
      </trkpt>
      <trkpt lat="45.92421" lon="4.89097">
        <ele>294.8</ele>
        <time>2023-09-02T15:07:49Z</time>
      </trkpt>
      <trkpt lat="45.92422" lon="4.89102">
        <ele>294.8</ele>
        <time>2023-09-02T15:07:50Z</time>
      </trkpt>
      <trkpt lat="45.92423" lon="4.89106">
        <ele>294.8</ele>
        <time>2023-09-02T15:07:51Z</time>
      </trkpt>
      <trkpt lat="45.92424" lon="4.89111">
        <ele>294.8</ele>
        <time>2023-09-02T15:07:52Z</time>
      </trkpt>
      <trkpt lat="45.92425" lon="4.89115">
        <ele>294.8</ele>
        <time>2023-09-02T15:07:53Z</time>
      </trkpt>
      <trkpt lat="45.92426" lon="4.8912">
        <ele>294.8</ele>
        <time>2023-09-02T15:07:54Z</time>
      </trkpt>
      <trkpt lat="45.92426" lon="4.89125">
        <ele>294.8</ele>
        <time>2023-09-02T15:07:55Z</time>
      </trkpt>
      <trkpt lat="45.92427" lon="4.8913">
        <ele>294.8</ele>
        <time>2023-09-02T15:07:56Z</time>
      </trkpt>
      <trkpt lat="45.92428" lon="4.89135">
        <ele>294.8</ele>
        <time>2023-09-02T15:07:57Z</time>
      </trkpt>
      <trkpt lat="45.92429" lon="4.8914">
        <ele>294.8</ele>
        <time>2023-09-02T15:07:58Z</time>
      </trkpt>
      <trkpt lat="45.9243" lon="4.89145">
        <ele>294.8</ele>
        <time>2023-09-02T15:07:59Z</time>
      </trkpt>
      <trkpt lat="45.92431" lon="4.8915">
        <ele>294.8</ele>
        <time>2023-09-02T15:08:00Z</time>
      </trkpt>
      <trkpt lat="45.92432" lon="4.89155">
        <ele>294.8</ele>
        <time>2023-09-02T15:08:01Z</time>
      </trkpt>
      <trkpt lat="45.92433" lon="4.89159">
        <ele>294.7</ele>
        <time>2023-09-02T15:08:02Z</time>
      </trkpt>
      <trkpt lat="45.92434" lon="4.89165">
        <ele>294.7</ele>
        <time>2023-09-02T15:08:03Z</time>
      </trkpt>
      <trkpt lat="45.92435" lon="4.8917">
        <ele>294.7</ele>
        <time>2023-09-02T15:08:04Z</time>
      </trkpt>
      <trkpt lat="45.92437" lon="4.89174">
        <ele>294.7</ele>
        <time>2023-09-02T15:08:05Z</time>
      </trkpt>
      <trkpt lat="45.92438" lon="4.89179">
        <ele>294.7</ele>
        <time>2023-09-02T15:08:06Z</time>
      </trkpt>
      <trkpt lat="45.92439" lon="4.89184">
        <ele>294.7</ele>
        <time>2023-09-02T15:08:07Z</time>
      </trkpt>
      <trkpt lat="45.92439" lon="4.89188">
        <ele>294.7</ele>
        <time>2023-09-02T15:08:08Z</time>
      </trkpt>
      <trkpt lat="45.9244" lon="4.89193">
        <ele>294.7</ele>
        <time>2023-09-02T15:08:09Z</time>
      </trkpt>
      <trkpt lat="45.92441" lon="4.89197">
        <ele>294.6</ele>
        <time>2023-09-02T15:08:10Z</time>
      </trkpt>
      <trkpt lat="45.92442" lon="4.89202">
        <ele>294.6</ele>
        <time>2023-09-02T15:08:11Z</time>
      </trkpt>
      <trkpt lat="45.92443" lon="4.89206">
        <ele>294.6</ele>
        <time>2023-09-02T15:08:12Z</time>
      </trkpt>
      <trkpt lat="45.92444" lon="4.89211">
        <ele>294.7</ele>
        <time>2023-09-02T15:08:13Z</time>
      </trkpt>
      <trkpt lat="45.92445" lon="4.89216">
        <ele>294.7</ele>
        <time>2023-09-02T15:08:14Z</time>
      </trkpt>
      <trkpt lat="45.92446" lon="4.89221">
        <ele>294.7</ele>
        <time>2023-09-02T15:08:15Z</time>
      </trkpt>
      <trkpt lat="45.92447" lon="4.89226">
        <ele>294.7</ele>
        <time>2023-09-02T15:08:16Z</time>
      </trkpt>
      <trkpt lat="45.92448" lon="4.8923">
        <ele>294.7</ele>
        <time>2023-09-02T15:08:17Z</time>
      </trkpt>
      <trkpt lat="45.92449" lon="4.89235">
        <ele>294.7</ele>
        <time>2023-09-02T15:08:18Z</time>
      </trkpt>
      <trkpt lat="45.9245" lon="4.8924">
        <ele>294.7</ele>
        <time>2023-09-02T15:08:19Z</time>
      </trkpt>
      <trkpt lat="45.92451" lon="4.89244">
        <ele>294.8</ele>
        <time>2023-09-02T15:08:20Z</time>
      </trkpt>
      <trkpt lat="45.92452" lon="4.89249">
        <ele>294.8</ele>
        <time>2023-09-02T15:08:21Z</time>
      </trkpt>
      <trkpt lat="45.92453" lon="4.89253">
        <ele>294.8</ele>
        <time>2023-09-02T15:08:22Z</time>
      </trkpt>
      <trkpt lat="45.92454" lon="4.89258">
        <ele>294.8</ele>
        <time>2023-09-02T15:08:23Z</time>
      </trkpt>
      <trkpt lat="45.92455" lon="4.89263">
        <ele>294.8</ele>
        <time>2023-09-02T15:08:24Z</time>
      </trkpt>
      <trkpt lat="45.92456" lon="4.89267">
        <ele>294.9</ele>
        <time>2023-09-02T15:08:25Z</time>
      </trkpt>
      <trkpt lat="45.92457" lon="4.89272">
        <ele>294.9</ele>
        <time>2023-09-02T15:08:26Z</time>
      </trkpt>
      <trkpt lat="45.92458" lon="4.89276">
        <ele>294.9</ele>
        <time>2023-09-02T15:08:27Z</time>
      </trkpt>
      <trkpt lat="45.92459" lon="4.89281">
        <ele>294.9</ele>
        <time>2023-09-02T15:08:28Z</time>
      </trkpt>
      <trkpt lat="45.9246" lon="4.89286">
        <ele>295</ele>
        <time>2023-09-02T15:08:29Z</time>
      </trkpt>
      <trkpt lat="45.92461" lon="4.8929">
        <ele>295</ele>
        <time>2023-09-02T15:08:30Z</time>
      </trkpt>
      <trkpt lat="45.92462" lon="4.89295">
        <ele>295</ele>
        <time>2023-09-02T15:08:31Z</time>
      </trkpt>
      <trkpt lat="45.92463" lon="4.893">
        <ele>295</ele>
        <time>2023-09-02T15:08:32Z</time>
      </trkpt>
      <trkpt lat="45.92463" lon="4.89304">
        <ele>295</ele>
        <time>2023-09-02T15:08:33Z</time>
      </trkpt>
      <trkpt lat="45.92464" lon="4.89309">
        <ele>295</ele>
        <time>2023-09-02T15:08:34Z</time>
      </trkpt>
      <trkpt lat="45.92465" lon="4.89313">
        <ele>295.1</ele>
        <time>2023-09-02T15:08:35Z</time>
      </trkpt>
      <trkpt lat="45.92466" lon="4.89318">
        <ele>295.1</ele>
        <time>2023-09-02T15:08:36Z</time>
      </trkpt>
      <trkpt lat="45.92468" lon="4.89327">
        <ele>295.1</ele>
        <time>2023-09-02T15:08:37Z</time>
      </trkpt>
      <trkpt lat="45.9247" lon="4.89332">
        <ele>295.2</ele>
        <time>2023-09-02T15:08:38Z</time>
      </trkpt>
      <trkpt lat="45.92471" lon="4.89337">
        <ele>295.2</ele>
        <time>2023-09-02T15:08:39Z</time>
      </trkpt>
      <trkpt lat="45.92472" lon="4.89342">
        <ele>295.3</ele>
        <time>2023-09-02T15:08:40Z</time>
      </trkpt>
      <trkpt lat="45.92473" lon="4.89346">
        <ele>295.3</ele>
        <time>2023-09-02T15:08:41Z</time>
      </trkpt>
      <trkpt lat="45.92473" lon="4.89351">
        <ele>295.4</ele>
        <time>2023-09-02T15:08:42Z</time>
      </trkpt>
      <trkpt lat="45.92474" lon="4.89356">
        <ele>295.4</ele>
        <time>2023-09-02T15:08:43Z</time>
      </trkpt>
      <trkpt lat="45.92475" lon="4.8936">
        <ele>295.4</ele>
        <time>2023-09-02T15:08:44Z</time>
      </trkpt>
      <trkpt lat="45.92476" lon="4.89365">
        <ele>295.5</ele>
        <time>2023-09-02T15:08:45Z</time>
      </trkpt>
      <trkpt lat="45.92476" lon="4.8937">
        <ele>295.5</ele>
        <time>2023-09-02T15:08:46Z</time>
      </trkpt>
      <trkpt lat="45.92477" lon="4.89374">
        <ele>295.5</ele>
        <time>2023-09-02T15:08:47Z</time>
      </trkpt>
      <trkpt lat="45.92477" lon="4.89379">
        <ele>295.6</ele>
        <time>2023-09-02T15:08:48Z</time>
      </trkpt>
      <trkpt lat="45.92478" lon="4.89384">
        <ele>295.6</ele>
        <time>2023-09-02T15:08:49Z</time>
      </trkpt>
      <trkpt lat="45.92478" lon="4.89388">
        <ele>295.6</ele>
        <time>2023-09-02T15:08:50Z</time>
      </trkpt>
      <trkpt lat="45.92479" lon="4.89393">
        <ele>295.6</ele>
        <time>2023-09-02T15:08:51Z</time>
      </trkpt>
      <trkpt lat="45.92479" lon="4.89398">
        <ele>295.7</ele>
        <time>2023-09-02T15:08:52Z</time>
      </trkpt>
      <trkpt lat="45.9248" lon="4.89403">
        <ele>295.7</ele>
        <time>2023-09-02T15:08:53Z</time>
      </trkpt>
      <trkpt lat="45.9248" lon="4.89408">
        <ele>295.7</ele>
        <time>2023-09-02T15:08:54Z</time>
      </trkpt>
      <trkpt lat="45.92481" lon="4.89413">
        <ele>295.7</ele>
        <time>2023-09-02T15:08:55Z</time>
      </trkpt>
      <trkpt lat="45.92481" lon="4.89418">
        <ele>295.8</ele>
        <time>2023-09-02T15:08:56Z</time>
      </trkpt>
      <trkpt lat="45.92481" lon="4.89423">
        <ele>295.8</ele>
        <time>2023-09-02T15:08:57Z</time>
      </trkpt>
      <trkpt lat="45.92482" lon="4.89428">
        <ele>295.8</ele>
        <time>2023-09-02T15:08:58Z</time>
      </trkpt>
      <trkpt lat="45.92482" lon="4.89433">
        <ele>295.8</ele>
        <time>2023-09-02T15:08:59Z</time>
      </trkpt>
      <trkpt lat="45.92482" lon="4.89438">
        <ele>295.8</ele>
        <time>2023-09-02T15:09:00Z</time>
      </trkpt>
      <trkpt lat="45.92483" lon="4.89443">
        <ele>295.8</ele>
        <time>2023-09-02T15:09:01Z</time>
      </trkpt>
      <trkpt lat="45.92483" lon="4.89448">
        <ele>295.8</ele>
        <time>2023-09-02T15:09:02Z</time>
      </trkpt>
      <trkpt lat="45.92483" lon="4.89453">
        <ele>295.8</ele>
        <time>2023-09-02T15:09:03Z</time>
      </trkpt>
      <trkpt lat="45.92483" lon="4.89458">
        <ele>295.8</ele>
        <time>2023-09-02T15:09:04Z</time>
      </trkpt>
      <trkpt lat="45.92484" lon="4.89462">
        <ele>295.8</ele>
        <time>2023-09-02T15:09:05Z</time>
      </trkpt>
      <trkpt lat="45.92484" lon="4.89467">
        <ele>295.7</ele>
        <time>2023-09-02T15:09:06Z</time>
      </trkpt>
      <trkpt lat="45.92484" lon="4.89472">
        <ele>295.7</ele>
        <time>2023-09-02T15:09:07Z</time>
      </trkpt>
      <trkpt lat="45.92484" lon="4.89477">
        <ele>295.7</ele>
        <time>2023-09-02T15:09:08Z</time>
      </trkpt>
      <trkpt lat="45.92484" lon="4.89482">
        <ele>295.7</ele>
        <time>2023-09-02T15:09:09Z</time>
      </trkpt>
      <trkpt lat="45.92484" lon="4.89487">
        <ele>295.7</ele>
        <time>2023-09-02T15:09:10Z</time>
      </trkpt>
      <trkpt lat="45.92484" lon="4.89492">
        <ele>295.7</ele>
        <time>2023-09-02T15:09:12Z</time>
      </trkpt>
      <trkpt lat="45.92484" lon="4.89497">
        <ele>295.6</ele>
        <time>2023-09-02T15:09:13Z</time>
      </trkpt>
      <trkpt lat="45.92484" lon="4.89502">
        <ele>295.6</ele>
        <time>2023-09-02T15:09:14Z</time>
      </trkpt>
      <trkpt lat="45.92484" lon="4.89508">
        <ele>295.6</ele>
        <time>2023-09-02T15:09:15Z</time>
      </trkpt>
      <trkpt lat="45.92483" lon="4.89512">
        <ele>295.6</ele>
        <time>2023-09-02T15:09:16Z</time>
      </trkpt>
      <trkpt lat="45.92484" lon="4.89518">
        <ele>295.6</ele>
        <time>2023-09-02T15:09:17Z</time>
      </trkpt>
      <trkpt lat="45.92484" lon="4.89523">
        <ele>295.6</ele>
        <time>2023-09-02T15:09:18Z</time>
      </trkpt>
      <trkpt lat="45.92483" lon="4.89529">
        <ele>295.6</ele>
        <time>2023-09-02T15:09:19Z</time>
      </trkpt>
      <trkpt lat="45.92484" lon="4.89534">
        <ele>295.6</ele>
        <time>2023-09-02T15:09:20Z</time>
      </trkpt>
      <trkpt lat="45.92483" lon="4.8954">
        <ele>295.6</ele>
        <time>2023-09-02T15:09:21Z</time>
      </trkpt>
      <trkpt lat="45.92483" lon="4.89545">
        <ele>295.6</ele>
        <time>2023-09-02T15:09:22Z</time>
      </trkpt>
      <trkpt lat="45.92483" lon="4.8955">
        <ele>295.6</ele>
        <time>2023-09-02T15:09:23Z</time>
      </trkpt>
      <trkpt lat="45.92483" lon="4.89556">
        <ele>295.6</ele>
        <time>2023-09-02T15:09:24Z</time>
      </trkpt>
      <trkpt lat="45.92483" lon="4.89561">
        <ele>295.5</ele>
        <time>2023-09-02T15:09:25Z</time>
      </trkpt>
      <trkpt lat="45.92482" lon="4.89566">
        <ele>295.5</ele>
        <time>2023-09-02T15:09:26Z</time>
      </trkpt>
      <trkpt lat="45.92482" lon="4.89572">
        <ele>295.5</ele>
        <time>2023-09-02T15:09:27Z</time>
      </trkpt>
      <trkpt lat="45.92481" lon="4.89578">
        <ele>295.4</ele>
        <time>2023-09-02T15:09:28Z</time>
      </trkpt>
      <trkpt lat="45.92481" lon="4.89584">
        <ele>295.4</ele>
        <time>2023-09-02T15:09:29Z</time>
      </trkpt>
      <trkpt lat="45.92481" lon="4.89589">
        <ele>295.4</ele>
        <time>2023-09-02T15:09:30Z</time>
      </trkpt>
      <trkpt lat="45.92481" lon="4.89595">
        <ele>295.3</ele>
        <time>2023-09-02T15:09:31Z</time>
      </trkpt>
      <trkpt lat="45.92481" lon="4.896">
        <ele>295.3</ele>
        <time>2023-09-02T15:09:32Z</time>
      </trkpt>
      <trkpt lat="45.92481" lon="4.89606">
        <ele>295.3</ele>
        <time>2023-09-02T15:09:33Z</time>
      </trkpt>
      <trkpt lat="45.92481" lon="4.89611">
        <ele>295.2</ele>
        <time>2023-09-02T15:09:34Z</time>
      </trkpt>
      <trkpt lat="45.92481" lon="4.89617">
        <ele>295.2</ele>
        <time>2023-09-02T15:09:35Z</time>
      </trkpt>
      <trkpt lat="45.92481" lon="4.89622">
        <ele>295.2</ele>
        <time>2023-09-02T15:09:36Z</time>
      </trkpt>
      <trkpt lat="45.92481" lon="4.89628">
        <ele>295.1</ele>
        <time>2023-09-02T15:09:37Z</time>
      </trkpt>
      <trkpt lat="45.9248" lon="4.89634">
        <ele>295.1</ele>
        <time>2023-09-02T15:09:38Z</time>
      </trkpt>
      <trkpt lat="45.9248" lon="4.8964">
        <ele>295.1</ele>
        <time>2023-09-02T15:09:39Z</time>
      </trkpt>
      <trkpt lat="45.9248" lon="4.89645">
        <ele>295</ele>
        <time>2023-09-02T15:09:40Z</time>
      </trkpt>
      <trkpt lat="45.9248" lon="4.89651">
        <ele>295</ele>
        <time>2023-09-02T15:09:41Z</time>
      </trkpt>
      <trkpt lat="45.9248" lon="4.89657">
        <ele>295</ele>
        <time>2023-09-02T15:09:42Z</time>
      </trkpt>
      <trkpt lat="45.9248" lon="4.89662">
        <ele>294.9</ele>
        <time>2023-09-02T15:09:43Z</time>
      </trkpt>
      <trkpt lat="45.9248" lon="4.89668">
        <ele>294.9</ele>
        <time>2023-09-02T15:09:44Z</time>
      </trkpt>
      <trkpt lat="45.92479" lon="4.89674">
        <ele>294.9</ele>
        <time>2023-09-02T15:09:45Z</time>
      </trkpt>
      <trkpt lat="45.92479" lon="4.89679">
        <ele>294.9</ele>
        <time>2023-09-02T15:09:46Z</time>
      </trkpt>
      <trkpt lat="45.92479" lon="4.89685">
        <ele>294.8</ele>
        <time>2023-09-02T15:09:47Z</time>
      </trkpt>
      <trkpt lat="45.92479" lon="4.89691">
        <ele>294.8</ele>
        <time>2023-09-02T15:09:48Z</time>
      </trkpt>
      <trkpt lat="45.92479" lon="4.89696">
        <ele>294.8</ele>
        <time>2023-09-02T15:09:49Z</time>
      </trkpt>
      <trkpt lat="45.92479" lon="4.89701">
        <ele>294.8</ele>
        <time>2023-09-02T15:09:50Z</time>
      </trkpt>
      <trkpt lat="45.92479" lon="4.89707">
        <ele>294.8</ele>
        <time>2023-09-02T15:09:51Z</time>
      </trkpt>
      <trkpt lat="45.92479" lon="4.89712">
        <ele>294.8</ele>
        <time>2023-09-02T15:09:52Z</time>
      </trkpt>
      <trkpt lat="45.92479" lon="4.89718">
        <ele>294.7</ele>
        <time>2023-09-02T15:09:53Z</time>
      </trkpt>
      <trkpt lat="45.92479" lon="4.89723">
        <ele>294.7</ele>
        <time>2023-09-02T15:09:54Z</time>
      </trkpt>
      <trkpt lat="45.92479" lon="4.89729">
        <ele>294.7</ele>
        <time>2023-09-02T15:09:55Z</time>
      </trkpt>
      <trkpt lat="45.92479" lon="4.89735">
        <ele>294.7</ele>
        <time>2023-09-02T15:09:56Z</time>
      </trkpt>
      <trkpt lat="45.92478" lon="4.8974">
        <ele>294.6</ele>
        <time>2023-09-02T15:09:57Z</time>
      </trkpt>
      <trkpt lat="45.92478" lon="4.89746">
        <ele>294.6</ele>
        <time>2023-09-02T15:09:58Z</time>
      </trkpt>
      <trkpt lat="45.92478" lon="4.89751">
        <ele>294.6</ele>
        <time>2023-09-02T15:09:59Z</time>
      </trkpt>
      <trkpt lat="45.92478" lon="4.89757">
        <ele>294.6</ele>
        <time>2023-09-02T15:10:00Z</time>
      </trkpt>
      <trkpt lat="45.92478" lon="4.89762">
        <ele>294.6</ele>
        <time>2023-09-02T15:10:01Z</time>
      </trkpt>
      <trkpt lat="45.92478" lon="4.89768">
        <ele>294.6</ele>
        <time>2023-09-02T15:10:02Z</time>
      </trkpt>
      <trkpt lat="45.92478" lon="4.89773">
        <ele>294.5</ele>
        <time>2023-09-02T15:10:03Z</time>
      </trkpt>
      <trkpt lat="45.92478" lon="4.89779">
        <ele>294.5</ele>
        <time>2023-09-02T15:10:04Z</time>
      </trkpt>
      <trkpt lat="45.92479" lon="4.89785">
        <ele>294.5</ele>
        <time>2023-09-02T15:10:05Z</time>
      </trkpt>
      <trkpt lat="45.92478" lon="4.8979">
        <ele>294.5</ele>
        <time>2023-09-02T15:10:06Z</time>
      </trkpt>
      <trkpt lat="45.92479" lon="4.89796">
        <ele>294.5</ele>
        <time>2023-09-02T15:10:07Z</time>
      </trkpt>
      <trkpt lat="45.92479" lon="4.89801">
        <ele>294.5</ele>
        <time>2023-09-02T15:10:08Z</time>
      </trkpt>
      <trkpt lat="45.92479" lon="4.89807">
        <ele>294.5</ele>
        <time>2023-09-02T15:10:09Z</time>
      </trkpt>
      <trkpt lat="45.92479" lon="4.89813">
        <ele>294.5</ele>
        <time>2023-09-02T15:10:10Z</time>
      </trkpt>
      <trkpt lat="45.92479" lon="4.89818">
        <ele>294.4</ele>
        <time>2023-09-02T15:10:11Z</time>
      </trkpt>
      <trkpt lat="45.92479" lon="4.89824">
        <ele>294.4</ele>
        <time>2023-09-02T15:10:12Z</time>
      </trkpt>
      <trkpt lat="45.9248" lon="4.89829">
        <ele>294.4</ele>
        <time>2023-09-02T15:10:13Z</time>
      </trkpt>
      <trkpt lat="45.92481" lon="4.89835">
        <ele>294.4</ele>
        <time>2023-09-02T15:10:14Z</time>
      </trkpt>
      <trkpt lat="45.92481" lon="4.8984">
        <ele>294.4</ele>
        <time>2023-09-02T15:10:15Z</time>
      </trkpt>
      <trkpt lat="45.92482" lon="4.89846">
        <ele>294.4</ele>
        <time>2023-09-02T15:10:16Z</time>
      </trkpt>
      <trkpt lat="45.92482" lon="4.89851">
        <ele>294.4</ele>
        <time>2023-09-02T15:10:17Z</time>
      </trkpt>
      <trkpt lat="45.92483" lon="4.89857">
        <ele>294.4</ele>
        <time>2023-09-02T15:10:18Z</time>
      </trkpt>
      <trkpt lat="45.92484" lon="4.89862">
        <ele>294.5</ele>
        <time>2023-09-02T15:10:19Z</time>
      </trkpt>
      <trkpt lat="45.92485" lon="4.89867">
        <ele>294.5</ele>
        <time>2023-09-02T15:10:20Z</time>
      </trkpt>
      <trkpt lat="45.92486" lon="4.89873">
        <ele>294.5</ele>
        <time>2023-09-02T15:10:21Z</time>
      </trkpt>
      <trkpt lat="45.92486" lon="4.89878">
        <ele>294.5</ele>
        <time>2023-09-02T15:10:22Z</time>
      </trkpt>
      <trkpt lat="45.92487" lon="4.89883">
        <ele>294.5</ele>
        <time>2023-09-02T15:10:23Z</time>
      </trkpt>
      <trkpt lat="45.92488" lon="4.89889">
        <ele>294.5</ele>
        <time>2023-09-02T15:10:24Z</time>
      </trkpt>
      <trkpt lat="45.92489" lon="4.89895">
        <ele>294.5</ele>
        <time>2023-09-02T15:10:25Z</time>
      </trkpt>
      <trkpt lat="45.92489" lon="4.899">
        <ele>294.5</ele>
        <time>2023-09-02T15:10:26Z</time>
      </trkpt>
      <trkpt lat="45.9249" lon="4.89905">
        <ele>294.5</ele>
        <time>2023-09-02T15:10:27Z</time>
      </trkpt>
      <trkpt lat="45.92491" lon="4.8991">
        <ele>294.6</ele>
        <time>2023-09-02T15:10:28Z</time>
      </trkpt>
      <trkpt lat="45.92492" lon="4.89916">
        <ele>294.6</ele>
        <time>2023-09-02T15:10:29Z</time>
      </trkpt>
      <trkpt lat="45.92493" lon="4.89921">
        <ele>294.6</ele>
        <time>2023-09-02T15:10:30Z</time>
      </trkpt>
      <trkpt lat="45.92493" lon="4.89926">
        <ele>294.6</ele>
        <time>2023-09-02T15:10:31Z</time>
      </trkpt>
      <trkpt lat="45.92494" lon="4.89932">
        <ele>294.7</ele>
        <time>2023-09-02T15:10:32Z</time>
      </trkpt>
      <trkpt lat="45.92495" lon="4.89937">
        <ele>294.7</ele>
        <time>2023-09-02T15:10:33Z</time>
      </trkpt>
      <trkpt lat="45.92495" lon="4.89942">
        <ele>294.7</ele>
        <time>2023-09-02T15:10:34Z</time>
      </trkpt>
      <trkpt lat="45.92496" lon="4.89948">
        <ele>294.7</ele>
        <time>2023-09-02T15:10:35Z</time>
      </trkpt>
      <trkpt lat="45.92497" lon="4.89953">
        <ele>294.7</ele>
        <time>2023-09-02T15:10:36Z</time>
      </trkpt>
      <trkpt lat="45.92498" lon="4.89958">
        <ele>294.7</ele>
        <time>2023-09-02T15:10:37Z</time>
      </trkpt>
      <trkpt lat="45.92499" lon="4.89964">
        <ele>294.8</ele>
        <time>2023-09-02T15:10:38Z</time>
      </trkpt>
      <trkpt lat="45.92499" lon="4.89969">
        <ele>294.8</ele>
        <time>2023-09-02T15:10:39Z</time>
      </trkpt>
      <trkpt lat="45.925" lon="4.89974">
        <ele>294.8</ele>
        <time>2023-09-02T15:10:40Z</time>
      </trkpt>
      <trkpt lat="45.92501" lon="4.89979">
        <ele>294.8</ele>
        <time>2023-09-02T15:10:41Z</time>
      </trkpt>
      <trkpt lat="45.92502" lon="4.89985">
        <ele>294.8</ele>
        <time>2023-09-02T15:10:42Z</time>
      </trkpt>
      <trkpt lat="45.92503" lon="4.89996">
        <ele>294.8</ele>
        <time>2023-09-02T15:10:43Z</time>
      </trkpt>
      <trkpt lat="45.92504" lon="4.90001">
        <ele>294.8</ele>
        <time>2023-09-02T15:10:44Z</time>
      </trkpt>
      <trkpt lat="45.92505" lon="4.90007">
        <ele>294.8</ele>
        <time>2023-09-02T15:10:45Z</time>
      </trkpt>
      <trkpt lat="45.92506" lon="4.90012">
        <ele>294.8</ele>
        <time>2023-09-02T15:10:46Z</time>
      </trkpt>
      <trkpt lat="45.92506" lon="4.90017">
        <ele>294.8</ele>
        <time>2023-09-02T15:10:47Z</time>
      </trkpt>
      <trkpt lat="45.92507" lon="4.90023">
        <ele>294.8</ele>
        <time>2023-09-02T15:10:48Z</time>
      </trkpt>
      <trkpt lat="45.92508" lon="4.90029">
        <ele>294.8</ele>
        <time>2023-09-02T15:10:49Z</time>
      </trkpt>
      <trkpt lat="45.92509" lon="4.90034">
        <ele>294.8</ele>
        <time>2023-09-02T15:10:50Z</time>
      </trkpt>
      <trkpt lat="45.9251" lon="4.90039">
        <ele>294.8</ele>
        <time>2023-09-02T15:10:51Z</time>
      </trkpt>
      <trkpt lat="45.92511" lon="4.90045">
        <ele>294.9</ele>
        <time>2023-09-02T15:10:52Z</time>
      </trkpt>
      <trkpt lat="45.92512" lon="4.9005">
        <ele>294.9</ele>
        <time>2023-09-02T15:10:53Z</time>
      </trkpt>
      <trkpt lat="45.92513" lon="4.90055">
        <ele>294.9</ele>
        <time>2023-09-02T15:10:54Z</time>
      </trkpt>
      <trkpt lat="45.92514" lon="4.90061">
        <ele>294.9</ele>
        <time>2023-09-02T15:10:55Z</time>
      </trkpt>
      <trkpt lat="45.92516" lon="4.90066">
        <ele>294.9</ele>
        <time>2023-09-02T15:10:56Z</time>
      </trkpt>
      <trkpt lat="45.92517" lon="4.90071">
        <ele>294.9</ele>
        <time>2023-09-02T15:10:57Z</time>
      </trkpt>
      <trkpt lat="45.92518" lon="4.90077">
        <ele>294.9</ele>
        <time>2023-09-02T15:10:58Z</time>
      </trkpt>
      <trkpt lat="45.9252" lon="4.90082">
        <ele>294.9</ele>
        <time>2023-09-02T15:10:59Z</time>
      </trkpt>
      <trkpt lat="45.92521" lon="4.90088">
        <ele>294.9</ele>
        <time>2023-09-02T15:11:00Z</time>
      </trkpt>
      <trkpt lat="45.92523" lon="4.90093">
        <ele>294.9</ele>
        <time>2023-09-02T15:11:01Z</time>
      </trkpt>
      <trkpt lat="45.92525" lon="4.90098">
        <ele>294.9</ele>
        <time>2023-09-02T15:11:02Z</time>
      </trkpt>
      <trkpt lat="45.92526" lon="4.90104">
        <ele>294.9</ele>
        <time>2023-09-02T15:11:03Z</time>
      </trkpt>
      <trkpt lat="45.92528" lon="4.90109">
        <ele>294.9</ele>
        <time>2023-09-02T15:11:04Z</time>
      </trkpt>
      <trkpt lat="45.9253" lon="4.90114">
        <ele>294.9</ele>
        <time>2023-09-02T15:11:05Z</time>
      </trkpt>
      <trkpt lat="45.92532" lon="4.90119">
        <ele>294.9</ele>
        <time>2023-09-02T15:11:06Z</time>
      </trkpt>
      <trkpt lat="45.92534" lon="4.90125">
        <ele>294.9</ele>
        <time>2023-09-02T15:11:07Z</time>
      </trkpt>
      <trkpt lat="45.92536" lon="4.9013">
        <ele>294.9</ele>
        <time>2023-09-02T15:11:09Z</time>
      </trkpt>
      <trkpt lat="45.92538" lon="4.90135">
        <ele>294.9</ele>
        <time>2023-09-02T15:11:10Z</time>
      </trkpt>
      <trkpt lat="45.9254" lon="4.9014">
        <ele>294.9</ele>
        <time>2023-09-02T15:11:11Z</time>
      </trkpt>
      <trkpt lat="45.92541" lon="4.90145">
        <ele>295</ele>
        <time>2023-09-02T15:11:12Z</time>
      </trkpt>
      <trkpt lat="45.92543" lon="4.9015">
        <ele>295</ele>
        <time>2023-09-02T15:11:13Z</time>
      </trkpt>
      <trkpt lat="45.92545" lon="4.90156">
        <ele>295</ele>
        <time>2023-09-02T15:11:14Z</time>
      </trkpt>
      <trkpt lat="45.92547" lon="4.90161">
        <ele>295</ele>
        <time>2023-09-02T15:11:15Z</time>
      </trkpt>
      <trkpt lat="45.92549" lon="4.90166">
        <ele>295</ele>
        <time>2023-09-02T15:11:16Z</time>
      </trkpt>
      <trkpt lat="45.92551" lon="4.90171">
        <ele>295</ele>
        <time>2023-09-02T15:11:17Z</time>
      </trkpt>
      <trkpt lat="45.92553" lon="4.90176">
        <ele>295</ele>
        <time>2023-09-02T15:11:18Z</time>
      </trkpt>
      <trkpt lat="45.92555" lon="4.90182">
        <ele>295</ele>
        <time>2023-09-02T15:11:19Z</time>
      </trkpt>
      <trkpt lat="45.92557" lon="4.90188">
        <ele>295</ele>
        <time>2023-09-02T15:11:20Z</time>
      </trkpt>
      <trkpt lat="45.92559" lon="4.90193">
        <ele>295</ele>
        <time>2023-09-02T15:11:21Z</time>
      </trkpt>
      <trkpt lat="45.92561" lon="4.90199">
        <ele>295</ele>
        <time>2023-09-02T15:11:22Z</time>
      </trkpt>
      <trkpt lat="45.92562" lon="4.90204">
        <ele>295</ele>
        <time>2023-09-02T15:11:23Z</time>
      </trkpt>
      <trkpt lat="45.92564" lon="4.9021">
        <ele>295</ele>
        <time>2023-09-02T15:11:24Z</time>
      </trkpt>
      <trkpt lat="45.92566" lon="4.90216">
        <ele>295</ele>
        <time>2023-09-02T15:11:25Z</time>
      </trkpt>
      <trkpt lat="45.92568" lon="4.90221">
        <ele>295</ele>
        <time>2023-09-02T15:11:26Z</time>
      </trkpt>
      <trkpt lat="45.9257" lon="4.90227">
        <ele>294.9</ele>
        <time>2023-09-02T15:11:27Z</time>
      </trkpt>
      <trkpt lat="45.92572" lon="4.90233">
        <ele>294.9</ele>
        <time>2023-09-02T15:11:28Z</time>
      </trkpt>
      <trkpt lat="45.92574" lon="4.90239">
        <ele>294.9</ele>
        <time>2023-09-02T15:11:29Z</time>
      </trkpt>
      <trkpt lat="45.92576" lon="4.90244">
        <ele>294.9</ele>
        <time>2023-09-02T15:11:30Z</time>
      </trkpt>
      <trkpt lat="45.92579" lon="4.9025">
        <ele>294.8</ele>
        <time>2023-09-02T15:11:31Z</time>
      </trkpt>
      <trkpt lat="45.92582" lon="4.90255">
        <ele>294.7</ele>
        <time>2023-09-02T15:11:32Z</time>
      </trkpt>
      <trkpt lat="45.92584" lon="4.9026">
        <ele>294.7</ele>
        <time>2023-09-02T15:11:33Z</time>
      </trkpt>
      <trkpt lat="45.92587" lon="4.90266">
        <ele>294.6</ele>
        <time>2023-09-02T15:11:34Z</time>
      </trkpt>
      <trkpt lat="45.9259" lon="4.90271">
        <ele>294.5</ele>
        <time>2023-09-02T15:11:35Z</time>
      </trkpt>
      <trkpt lat="45.92592" lon="4.90277">
        <ele>294.4</ele>
        <time>2023-09-02T15:11:36Z</time>
      </trkpt>
      <trkpt lat="45.92595" lon="4.90281">
        <ele>294.4</ele>
        <time>2023-09-02T15:11:37Z</time>
      </trkpt>
      <trkpt lat="45.92597" lon="4.90288">
        <ele>294.3</ele>
        <time>2023-09-02T15:11:38Z</time>
      </trkpt>
      <trkpt lat="45.926" lon="4.90293">
        <ele>294.3</ele>
        <time>2023-09-02T15:11:39Z</time>
      </trkpt>
      <trkpt lat="45.92602" lon="4.90297">
        <ele>294.2</ele>
        <time>2023-09-02T15:11:40Z</time>
      </trkpt>
      <trkpt lat="45.92605" lon="4.90302">
        <ele>294.2</ele>
        <time>2023-09-02T15:11:41Z</time>
      </trkpt>
      <trkpt lat="45.92607" lon="4.90309">
        <ele>294.2</ele>
        <time>2023-09-02T15:11:42Z</time>
      </trkpt>
      <trkpt lat="45.9261" lon="4.90313">
        <ele>294.2</ele>
        <time>2023-09-02T15:11:43Z</time>
      </trkpt>
      <trkpt lat="45.92612" lon="4.90318">
        <ele>294.2</ele>
        <time>2023-09-02T15:11:44Z</time>
      </trkpt>
      <trkpt lat="45.92615" lon="4.90323">
        <ele>294.2</ele>
        <time>2023-09-02T15:11:45Z</time>
      </trkpt>
      <trkpt lat="45.92617" lon="4.90328">
        <ele>294.2</ele>
        <time>2023-09-02T15:11:46Z</time>
      </trkpt>
      <trkpt lat="45.92619" lon="4.90333">
        <ele>294.1</ele>
        <time>2023-09-02T15:11:47Z</time>
      </trkpt>
      <trkpt lat="45.92622" lon="4.90338">
        <ele>294.1</ele>
        <time>2023-09-02T15:11:48Z</time>
      </trkpt>
      <trkpt lat="45.92624" lon="4.90344">
        <ele>294.1</ele>
        <time>2023-09-02T15:11:49Z</time>
      </trkpt>
      <trkpt lat="45.92626" lon="4.90349">
        <ele>294.1</ele>
        <time>2023-09-02T15:11:50Z</time>
      </trkpt>
      <trkpt lat="45.92628" lon="4.90355">
        <ele>294.1</ele>
        <time>2023-09-02T15:11:51Z</time>
      </trkpt>
      <trkpt lat="45.9263" lon="4.9036">
        <ele>294.1</ele>
        <time>2023-09-02T15:11:52Z</time>
      </trkpt>
      <trkpt lat="45.92632" lon="4.90366">
        <ele>294</ele>
        <time>2023-09-02T15:11:53Z</time>
      </trkpt>
      <trkpt lat="45.92634" lon="4.90372">
        <ele>294</ele>
        <time>2023-09-02T15:11:54Z</time>
      </trkpt>
      <trkpt lat="45.92636" lon="4.90377">
        <ele>294</ele>
        <time>2023-09-02T15:11:55Z</time>
      </trkpt>
      <trkpt lat="45.92638" lon="4.90383">
        <ele>294</ele>
        <time>2023-09-02T15:11:56Z</time>
      </trkpt>
      <trkpt lat="45.92639" lon="4.90389">
        <ele>294</ele>
        <time>2023-09-02T15:11:57Z</time>
      </trkpt>
      <trkpt lat="45.92641" lon="4.90395">
        <ele>294</ele>
        <time>2023-09-02T15:11:58Z</time>
      </trkpt>
      <trkpt lat="45.92643" lon="4.90401">
        <ele>294</ele>
        <time>2023-09-02T15:11:59Z</time>
      </trkpt>
      <trkpt lat="45.92644" lon="4.90406">
        <ele>294</ele>
        <time>2023-09-02T15:12:00Z</time>
      </trkpt>
      <trkpt lat="45.92646" lon="4.90412">
        <ele>294</ele>
        <time>2023-09-02T15:12:01Z</time>
      </trkpt>
      <trkpt lat="45.92647" lon="4.90418">
        <ele>294</ele>
        <time>2023-09-02T15:12:02Z</time>
      </trkpt>
      <trkpt lat="45.92649" lon="4.90423">
        <ele>294</ele>
        <time>2023-09-02T15:12:03Z</time>
      </trkpt>
      <trkpt lat="45.9265" lon="4.90428">
        <ele>294</ele>
        <time>2023-09-02T15:12:04Z</time>
      </trkpt>
      <trkpt lat="45.92651" lon="4.90434">
        <ele>293.9</ele>
        <time>2023-09-02T15:12:05Z</time>
      </trkpt>
      <trkpt lat="45.92652" lon="4.9044">
        <ele>293.9</ele>
        <time>2023-09-02T15:12:06Z</time>
      </trkpt>
      <trkpt lat="45.92653" lon="4.90446">
        <ele>293.9</ele>
        <time>2023-09-02T15:12:07Z</time>
      </trkpt>
      <trkpt lat="45.92654" lon="4.90452">
        <ele>293.9</ele>
        <time>2023-09-02T15:12:08Z</time>
      </trkpt>
      <trkpt lat="45.92655" lon="4.90458">
        <ele>293.9</ele>
        <time>2023-09-02T15:12:09Z</time>
      </trkpt>
      <trkpt lat="45.92656" lon="4.90464">
        <ele>293.9</ele>
        <time>2023-09-02T15:12:10Z</time>
      </trkpt>
      <trkpt lat="45.92657" lon="4.9047">
        <ele>293.9</ele>
        <time>2023-09-02T15:12:11Z</time>
      </trkpt>
      <trkpt lat="45.92657" lon="4.90476">
        <ele>293.9</ele>
        <time>2023-09-02T15:12:12Z</time>
      </trkpt>
      <trkpt lat="45.92658" lon="4.90481">
        <ele>293.9</ele>
        <time>2023-09-02T15:12:13Z</time>
      </trkpt>
      <trkpt lat="45.92659" lon="4.90487">
        <ele>293.9</ele>
        <time>2023-09-02T15:12:14Z</time>
      </trkpt>
      <trkpt lat="45.9266" lon="4.90493">
        <ele>293.9</ele>
        <time>2023-09-02T15:12:15Z</time>
      </trkpt>
      <trkpt lat="45.9266" lon="4.90498">
        <ele>293.9</ele>
        <time>2023-09-02T15:12:16Z</time>
      </trkpt>
      <trkpt lat="45.9266" lon="4.90503">
        <ele>293.9</ele>
        <time>2023-09-02T15:12:17Z</time>
      </trkpt>
      <trkpt lat="45.92661" lon="4.90508">
        <ele>294</ele>
        <time>2023-09-02T15:12:18Z</time>
      </trkpt>
      <trkpt lat="45.92661" lon="4.90513">
        <ele>294</ele>
        <time>2023-09-02T15:12:19Z</time>
      </trkpt>
      <trkpt lat="45.92662" lon="4.90518">
        <ele>294</ele>
        <time>2023-09-02T15:12:20Z</time>
      </trkpt>
      <trkpt lat="45.92662" lon="4.90523">
        <ele>294</ele>
        <time>2023-09-02T15:12:21Z</time>
      </trkpt>
      <trkpt lat="45.92663" lon="4.90529">
        <ele>294</ele>
        <time>2023-09-02T15:12:22Z</time>
      </trkpt>
      <trkpt lat="45.92663" lon="4.90534">
        <ele>294.1</ele>
        <time>2023-09-02T15:12:23Z</time>
      </trkpt>
      <trkpt lat="45.92663" lon="4.9054">
        <ele>294.2</ele>
        <time>2023-09-02T15:12:24Z</time>
      </trkpt>
      <trkpt lat="45.92663" lon="4.90545">
        <ele>294.3</ele>
        <time>2023-09-02T15:12:25Z</time>
      </trkpt>
      <trkpt lat="45.92664" lon="4.90551">
        <ele>294.3</ele>
        <time>2023-09-02T15:12:26Z</time>
      </trkpt>
      <trkpt lat="45.92664" lon="4.90557">
        <ele>294.3</ele>
        <time>2023-09-02T15:12:27Z</time>
      </trkpt>
      <trkpt lat="45.92664" lon="4.90564">
        <ele>294.2</ele>
        <time>2023-09-02T15:12:28Z</time>
      </trkpt>
      <trkpt lat="45.92665" lon="4.90569">
        <ele>294.2</ele>
        <time>2023-09-02T15:12:29Z</time>
      </trkpt>
      <trkpt lat="45.92665" lon="4.90575">
        <ele>294.2</ele>
        <time>2023-09-02T15:12:30Z</time>
      </trkpt>
      <trkpt lat="45.92666" lon="4.90582">
        <ele>294.3</ele>
        <time>2023-09-02T15:12:31Z</time>
      </trkpt>
      <trkpt lat="45.92666" lon="4.90588">
        <ele>294.3</ele>
        <time>2023-09-02T15:12:32Z</time>
      </trkpt>
      <trkpt lat="45.92667" lon="4.90594">
        <ele>294.3</ele>
        <time>2023-09-02T15:12:33Z</time>
      </trkpt>
      <trkpt lat="45.92667" lon="4.906">
        <ele>294.3</ele>
        <time>2023-09-02T15:12:34Z</time>
      </trkpt>
      <trkpt lat="45.92668" lon="4.90606">
        <ele>294.3</ele>
        <time>2023-09-02T15:12:35Z</time>
      </trkpt>
      <trkpt lat="45.92668" lon="4.90612">
        <ele>294.4</ele>
        <time>2023-09-02T15:12:36Z</time>
      </trkpt>
      <trkpt lat="45.92669" lon="4.90618">
        <ele>294.4</ele>
        <time>2023-09-02T15:12:37Z</time>
      </trkpt>
      <trkpt lat="45.92669" lon="4.90624">
        <ele>294.4</ele>
        <time>2023-09-02T15:12:38Z</time>
      </trkpt>
      <trkpt lat="45.92669" lon="4.90629">
        <ele>294.4</ele>
        <time>2023-09-02T15:12:39Z</time>
      </trkpt>
      <trkpt lat="45.9267" lon="4.90635">
        <ele>294.4</ele>
        <time>2023-09-02T15:12:40Z</time>
      </trkpt>
      <trkpt lat="45.9267" lon="4.90641">
        <ele>294.4</ele>
        <time>2023-09-02T15:12:41Z</time>
      </trkpt>
      <trkpt lat="45.92671" lon="4.90647">
        <ele>294.4</ele>
        <time>2023-09-02T15:12:42Z</time>
      </trkpt>
      <trkpt lat="45.92671" lon="4.90652">
        <ele>294.4</ele>
        <time>2023-09-02T15:12:43Z</time>
      </trkpt>
      <trkpt lat="45.92672" lon="4.90658">
        <ele>294.4</ele>
        <time>2023-09-02T15:12:44Z</time>
      </trkpt>
      <trkpt lat="45.92672" lon="4.90664">
        <ele>294.4</ele>
        <time>2023-09-02T15:12:45Z</time>
      </trkpt>
      <trkpt lat="45.92672" lon="4.90669">
        <ele>294.4</ele>
        <time>2023-09-02T15:12:46Z</time>
      </trkpt>
      <trkpt lat="45.92673" lon="4.90675">
        <ele>294.4</ele>
        <time>2023-09-02T15:12:47Z</time>
      </trkpt>
      <trkpt lat="45.92673" lon="4.9068">
        <ele>294.4</ele>
        <time>2023-09-02T15:12:48Z</time>
      </trkpt>
      <trkpt lat="45.92674" lon="4.90691">
        <ele>294.4</ele>
        <time>2023-09-02T15:12:49Z</time>
      </trkpt>
      <trkpt lat="45.92674" lon="4.90696">
        <ele>294.3</ele>
        <time>2023-09-02T15:12:50Z</time>
      </trkpt>
      <trkpt lat="45.92675" lon="4.90701">
        <ele>294.3</ele>
        <time>2023-09-02T15:12:51Z</time>
      </trkpt>
      <trkpt lat="45.92675" lon="4.90707">
        <ele>294.3</ele>
        <time>2023-09-02T15:12:52Z</time>
      </trkpt>
      <trkpt lat="45.92675" lon="4.90712">
        <ele>294.3</ele>
        <time>2023-09-02T15:12:53Z</time>
      </trkpt>
      <trkpt lat="45.92675" lon="4.90718">
        <ele>294.3</ele>
        <time>2023-09-02T15:12:54Z</time>
      </trkpt>
      <trkpt lat="45.92676" lon="4.90723">
        <ele>294.3</ele>
        <time>2023-09-02T15:12:55Z</time>
      </trkpt>
      <trkpt lat="45.92676" lon="4.90729">
        <ele>294.3</ele>
        <time>2023-09-02T15:12:56Z</time>
      </trkpt>
      <trkpt lat="45.92677" lon="4.90735">
        <ele>294.3</ele>
        <time>2023-09-02T15:12:57Z</time>
      </trkpt>
      <trkpt lat="45.92677" lon="4.90741">
        <ele>294.3</ele>
        <time>2023-09-02T15:12:58Z</time>
      </trkpt>
      <trkpt lat="45.92677" lon="4.90747">
        <ele>294.3</ele>
        <time>2023-09-02T15:12:59Z</time>
      </trkpt>
      <trkpt lat="45.92678" lon="4.90754">
        <ele>294.3</ele>
        <time>2023-09-02T15:13:00Z</time>
      </trkpt>
      <trkpt lat="45.92678" lon="4.90762">
        <ele>294.3</ele>
        <time>2023-09-02T15:13:01Z</time>
      </trkpt>
      <trkpt lat="45.92678" lon="4.90769">
        <ele>294.2</ele>
        <time>2023-09-02T15:13:02Z</time>
      </trkpt>
      <trkpt lat="45.92678" lon="4.90777">
        <ele>294.2</ele>
        <time>2023-09-02T15:13:03Z</time>
      </trkpt>
      <trkpt lat="45.92679" lon="4.90784">
        <ele>294.2</ele>
        <time>2023-09-02T15:13:05Z</time>
      </trkpt>
      <trkpt lat="45.92679" lon="4.9079">
        <ele>294.2</ele>
        <time>2023-09-02T15:13:06Z</time>
      </trkpt>
      <trkpt lat="45.92679" lon="4.90797">
        <ele>294.1</ele>
        <time>2023-09-02T15:13:07Z</time>
      </trkpt>
      <trkpt lat="45.9268" lon="4.90803">
        <ele>294.1</ele>
        <time>2023-09-02T15:13:08Z</time>
      </trkpt>
      <trkpt lat="45.9268" lon="4.90809">
        <ele>294.1</ele>
        <time>2023-09-02T15:13:09Z</time>
      </trkpt>
      <trkpt lat="45.9268" lon="4.90815">
        <ele>294.1</ele>
        <time>2023-09-02T15:13:10Z</time>
      </trkpt>
      <trkpt lat="45.92681" lon="4.90821">
        <ele>294.1</ele>
        <time>2023-09-02T15:13:11Z</time>
      </trkpt>
      <trkpt lat="45.92682" lon="4.90827">
        <ele>294.1</ele>
        <time>2023-09-02T15:13:12Z</time>
      </trkpt>
      <trkpt lat="45.92682" lon="4.90832">
        <ele>294</ele>
        <time>2023-09-02T15:13:13Z</time>
      </trkpt>
      <trkpt lat="45.92683" lon="4.90837">
        <ele>294</ele>
        <time>2023-09-02T15:13:14Z</time>
      </trkpt>
      <trkpt lat="45.92683" lon="4.90843">
        <ele>294</ele>
        <time>2023-09-02T15:13:15Z</time>
      </trkpt>
      <trkpt lat="45.92683" lon="4.90849">
        <ele>294</ele>
        <time>2023-09-02T15:13:16Z</time>
      </trkpt>
      <trkpt lat="45.92683" lon="4.90854">
        <ele>294</ele>
        <time>2023-09-02T15:13:17Z</time>
      </trkpt>
      <trkpt lat="45.92684" lon="4.9086">
        <ele>294</ele>
        <time>2023-09-02T15:13:18Z</time>
      </trkpt>
      <trkpt lat="45.92684" lon="4.90865">
        <ele>294</ele>
        <time>2023-09-02T15:13:19Z</time>
      </trkpt>
      <trkpt lat="45.92685" lon="4.90871">
        <ele>294.1</ele>
        <time>2023-09-02T15:13:20Z</time>
      </trkpt>
      <trkpt lat="45.92685" lon="4.90877">
        <ele>294.1</ele>
        <time>2023-09-02T15:13:21Z</time>
      </trkpt>
      <trkpt lat="45.92685" lon="4.90882">
        <ele>294.2</ele>
        <time>2023-09-02T15:13:22Z</time>
      </trkpt>
      <trkpt lat="45.92684" lon="4.90888">
        <ele>294.3</ele>
        <time>2023-09-02T15:13:23Z</time>
      </trkpt>
      <trkpt lat="45.92684" lon="4.90894">
        <ele>294.3</ele>
        <time>2023-09-02T15:13:24Z</time>
      </trkpt>
      <trkpt lat="45.92685" lon="4.909">
        <ele>294.4</ele>
        <time>2023-09-02T15:13:25Z</time>
      </trkpt>
      <trkpt lat="45.92685" lon="4.90905">
        <ele>294.4</ele>
        <time>2023-09-02T15:13:26Z</time>
      </trkpt>
      <trkpt lat="45.92686" lon="4.90911">
        <ele>294.4</ele>
        <time>2023-09-02T15:13:27Z</time>
      </trkpt>
      <trkpt lat="45.92686" lon="4.90916">
        <ele>294.5</ele>
        <time>2023-09-02T15:13:28Z</time>
      </trkpt>
      <trkpt lat="45.92687" lon="4.90922">
        <ele>294.5</ele>
        <time>2023-09-02T15:13:29Z</time>
      </trkpt>
      <trkpt lat="45.92688" lon="4.90927">
        <ele>294.5</ele>
        <time>2023-09-02T15:13:30Z</time>
      </trkpt>
      <trkpt lat="45.92689" lon="4.90933">
        <ele>294.5</ele>
        <time>2023-09-02T15:13:31Z</time>
      </trkpt>
      <trkpt lat="45.92689" lon="4.90938">
        <ele>294.6</ele>
        <time>2023-09-02T15:13:32Z</time>
      </trkpt>
      <trkpt lat="45.9269" lon="4.90943">
        <ele>294.6</ele>
        <time>2023-09-02T15:13:33Z</time>
      </trkpt>
      <trkpt lat="45.92691" lon="4.90949">
        <ele>294.6</ele>
        <time>2023-09-02T15:13:34Z</time>
      </trkpt>
      <trkpt lat="45.92692" lon="4.90955">
        <ele>294.7</ele>
        <time>2023-09-02T15:13:35Z</time>
      </trkpt>
      <trkpt lat="45.92693" lon="4.9096">
        <ele>294.7</ele>
        <time>2023-09-02T15:13:36Z</time>
      </trkpt>
      <trkpt lat="45.92694" lon="4.90966">
        <ele>294.7</ele>
        <time>2023-09-02T15:13:37Z</time>
      </trkpt>
      <trkpt lat="45.92695" lon="4.90971">
        <ele>294.8</ele>
        <time>2023-09-02T15:13:38Z</time>
      </trkpt>
      <trkpt lat="45.92695" lon="4.90977">
        <ele>294.8</ele>
        <time>2023-09-02T15:13:39Z</time>
      </trkpt>
      <trkpt lat="45.92696" lon="4.90982">
        <ele>294.8</ele>
        <time>2023-09-02T15:13:40Z</time>
      </trkpt>
      <trkpt lat="45.92696" lon="4.90987">
        <ele>294.8</ele>
        <time>2023-09-02T15:13:41Z</time>
      </trkpt>
      <trkpt lat="45.92696" lon="4.90992">
        <ele>294.8</ele>
        <time>2023-09-02T15:13:42Z</time>
      </trkpt>
      <trkpt lat="45.92697" lon="4.90997">
        <ele>294.8</ele>
        <time>2023-09-02T15:13:43Z</time>
      </trkpt>
      <trkpt lat="45.92698" lon="4.91003">
        <ele>294.8</ele>
        <time>2023-09-02T15:13:44Z</time>
      </trkpt>
      <trkpt lat="45.92698" lon="4.91006">
        <ele>294.9</ele>
        <time>2023-09-02T15:13:45Z</time>
      </trkpt>
      <trkpt lat="45.92698" lon="4.9101">
        <ele>294.9</ele>
        <time>2023-09-02T15:13:46Z</time>
      </trkpt>
      <trkpt lat="45.92699" lon="4.91014">
        <ele>294.9</ele>
        <time>2023-09-02T15:13:47Z</time>
      </trkpt>
      <trkpt lat="45.92699" lon="4.91018">
        <ele>294.9</ele>
        <time>2023-09-02T15:13:48Z</time>
      </trkpt>
      <trkpt lat="45.927" lon="4.91023">
        <ele>294.9</ele>
        <time>2023-09-02T15:13:49Z</time>
      </trkpt>
      <trkpt lat="45.927" lon="4.91029">
        <ele>294.9</ele>
        <time>2023-09-02T15:13:50Z</time>
      </trkpt>
      <trkpt lat="45.92702" lon="4.91034">
        <ele>294.9</ele>
        <time>2023-09-02T15:13:51Z</time>
      </trkpt>
      <trkpt lat="45.92703" lon="4.9104">
        <ele>294.9</ele>
        <time>2023-09-02T15:13:52Z</time>
      </trkpt>
      <trkpt lat="45.92703" lon="4.91045">
        <ele>294.9</ele>
        <time>2023-09-02T15:13:53Z</time>
      </trkpt>
      <trkpt lat="45.92704" lon="4.9105">
        <ele>294.9</ele>
        <time>2023-09-02T15:13:54Z</time>
      </trkpt>
      <trkpt lat="45.92705" lon="4.91056">
        <ele>294.9</ele>
        <time>2023-09-02T15:13:55Z</time>
      </trkpt>
      <trkpt lat="45.92706" lon="4.91062">
        <ele>294.9</ele>
        <time>2023-09-02T15:13:56Z</time>
      </trkpt>
      <trkpt lat="45.92707" lon="4.91068">
        <ele>294.9</ele>
        <time>2023-09-02T15:13:57Z</time>
      </trkpt>
      <trkpt lat="45.92708" lon="4.91074">
        <ele>294.9</ele>
        <time>2023-09-02T15:13:58Z</time>
      </trkpt>
      <trkpt lat="45.92709" lon="4.91078">
        <ele>294.9</ele>
        <time>2023-09-02T15:13:59Z</time>
      </trkpt>
      <trkpt lat="45.92709" lon="4.91084">
        <ele>295</ele>
        <time>2023-09-02T15:14:00Z</time>
      </trkpt>
      <trkpt lat="45.9271" lon="4.91089">
        <ele>295</ele>
        <time>2023-09-02T15:14:01Z</time>
      </trkpt>
      <trkpt lat="45.9271" lon="4.91095">
        <ele>295</ele>
        <time>2023-09-02T15:14:02Z</time>
      </trkpt>
      <trkpt lat="45.92712" lon="4.911">
        <ele>295</ele>
        <time>2023-09-02T15:14:03Z</time>
      </trkpt>
      <trkpt lat="45.92713" lon="4.91107">
        <ele>295</ele>
        <time>2023-09-02T15:14:04Z</time>
      </trkpt>
      <trkpt lat="45.92713" lon="4.91112">
        <ele>295.1</ele>
        <time>2023-09-02T15:14:05Z</time>
      </trkpt>
      <trkpt lat="45.92714" lon="4.91118">
        <ele>295.1</ele>
        <time>2023-09-02T15:14:06Z</time>
      </trkpt>
      <trkpt lat="45.92715" lon="4.91124">
        <ele>295.1</ele>
        <time>2023-09-02T15:14:07Z</time>
      </trkpt>
      <trkpt lat="45.92716" lon="4.9113">
        <ele>295.1</ele>
        <time>2023-09-02T15:14:08Z</time>
      </trkpt>
      <trkpt lat="45.92716" lon="4.91136">
        <ele>295.1</ele>
        <time>2023-09-02T15:14:09Z</time>
      </trkpt>
      <trkpt lat="45.92717" lon="4.91141">
        <ele>295.1</ele>
        <time>2023-09-02T15:14:10Z</time>
      </trkpt>
      <trkpt lat="45.92717" lon="4.91147">
        <ele>295.2</ele>
        <time>2023-09-02T15:14:11Z</time>
      </trkpt>
      <trkpt lat="45.92718" lon="4.91153">
        <ele>295.2</ele>
        <time>2023-09-02T15:14:12Z</time>
      </trkpt>
      <trkpt lat="45.92717" lon="4.91159">
        <ele>295.2</ele>
        <time>2023-09-02T15:14:13Z</time>
      </trkpt>
      <trkpt lat="45.92718" lon="4.91165">
        <ele>295.2</ele>
        <time>2023-09-02T15:14:14Z</time>
      </trkpt>
      <trkpt lat="45.92718" lon="4.91171">
        <ele>295.2</ele>
        <time>2023-09-02T15:14:15Z</time>
      </trkpt>
      <trkpt lat="45.92719" lon="4.91177">
        <ele>295.2</ele>
        <time>2023-09-02T15:14:16Z</time>
      </trkpt>
      <trkpt lat="45.92719" lon="4.91182">
        <ele>295.2</ele>
        <time>2023-09-02T15:14:17Z</time>
      </trkpt>
      <trkpt lat="45.92718" lon="4.91189">
        <ele>295.2</ele>
        <time>2023-09-02T15:14:18Z</time>
      </trkpt>
      <trkpt lat="45.92718" lon="4.91195">
        <ele>295.1</ele>
        <time>2023-09-02T15:14:19Z</time>
      </trkpt>
      <trkpt lat="45.92718" lon="4.91202">
        <ele>295.1</ele>
        <time>2023-09-02T15:14:20Z</time>
      </trkpt>
      <trkpt lat="45.92718" lon="4.91208">
        <ele>295.1</ele>
        <time>2023-09-02T15:14:21Z</time>
      </trkpt>
      <trkpt lat="45.92718" lon="4.91214">
        <ele>295.1</ele>
        <time>2023-09-02T15:14:22Z</time>
      </trkpt>
      <trkpt lat="45.92718" lon="4.91221">
        <ele>295.1</ele>
        <time>2023-09-02T15:14:23Z</time>
      </trkpt>
      <trkpt lat="45.92718" lon="4.91227">
        <ele>295.1</ele>
        <time>2023-09-02T15:14:24Z</time>
      </trkpt>
      <trkpt lat="45.92718" lon="4.91232">
        <ele>295.1</ele>
        <time>2023-09-02T15:14:25Z</time>
      </trkpt>
      <trkpt lat="45.92718" lon="4.91239">
        <ele>295.1</ele>
        <time>2023-09-02T15:14:26Z</time>
      </trkpt>
      <trkpt lat="45.92717" lon="4.91245">
        <ele>295.1</ele>
        <time>2023-09-02T15:14:27Z</time>
      </trkpt>
      <trkpt lat="45.92717" lon="4.91252">
        <ele>295.1</ele>
        <time>2023-09-02T15:14:28Z</time>
      </trkpt>
      <trkpt lat="45.92717" lon="4.91257">
        <ele>295.1</ele>
        <time>2023-09-02T15:14:29Z</time>
      </trkpt>
      <trkpt lat="45.92717" lon="4.91264">
        <ele>295.1</ele>
        <time>2023-09-02T15:14:30Z</time>
      </trkpt>
      <trkpt lat="45.92717" lon="4.9127">
        <ele>295.1</ele>
        <time>2023-09-02T15:14:31Z</time>
      </trkpt>
      <trkpt lat="45.92717" lon="4.91276">
        <ele>295.1</ele>
        <time>2023-09-02T15:14:32Z</time>
      </trkpt>
      <trkpt lat="45.92717" lon="4.91282">
        <ele>295.1</ele>
        <time>2023-09-02T15:14:33Z</time>
      </trkpt>
      <trkpt lat="45.92717" lon="4.91288">
        <ele>295.1</ele>
        <time>2023-09-02T15:14:34Z</time>
      </trkpt>
      <trkpt lat="45.92717" lon="4.91295">
        <ele>295.1</ele>
        <time>2023-09-02T15:14:35Z</time>
      </trkpt>
      <trkpt lat="45.92717" lon="4.91301">
        <ele>295.1</ele>
        <time>2023-09-02T15:14:36Z</time>
      </trkpt>
      <trkpt lat="45.92718" lon="4.91307">
        <ele>295.2</ele>
        <time>2023-09-02T15:14:37Z</time>
      </trkpt>
      <trkpt lat="45.92718" lon="4.91313">
        <ele>295.2</ele>
        <time>2023-09-02T15:14:38Z</time>
      </trkpt>
      <trkpt lat="45.92719" lon="4.9132">
        <ele>295.2</ele>
        <time>2023-09-02T15:14:39Z</time>
      </trkpt>
      <trkpt lat="45.92721" lon="4.91326">
        <ele>295.2</ele>
        <time>2023-09-02T15:14:40Z</time>
      </trkpt>
      <trkpt lat="45.92722" lon="4.91332">
        <ele>295.2</ele>
        <time>2023-09-02T15:14:41Z</time>
      </trkpt>
      <trkpt lat="45.92724" lon="4.91338">
        <ele>295.2</ele>
        <time>2023-09-02T15:14:42Z</time>
      </trkpt>
      <trkpt lat="45.92725" lon="4.91344">
        <ele>295.2</ele>
        <time>2023-09-02T15:14:43Z</time>
      </trkpt>
      <trkpt lat="45.92727" lon="4.9135">
        <ele>295.2</ele>
        <time>2023-09-02T15:14:44Z</time>
      </trkpt>
      <trkpt lat="45.92729" lon="4.91355">
        <ele>295.2</ele>
        <time>2023-09-02T15:14:45Z</time>
      </trkpt>
      <trkpt lat="45.9273" lon="4.91361">
        <ele>295.2</ele>
        <time>2023-09-02T15:14:46Z</time>
      </trkpt>
      <trkpt lat="45.92732" lon="4.91367">
        <ele>295.2</ele>
        <time>2023-09-02T15:14:47Z</time>
      </trkpt>
      <trkpt lat="45.92734" lon="4.91372">
        <ele>295.3</ele>
        <time>2023-09-02T15:14:48Z</time>
      </trkpt>
      <trkpt lat="45.92735" lon="4.91378">
        <ele>295.3</ele>
        <time>2023-09-02T15:14:49Z</time>
      </trkpt>
      <trkpt lat="45.92736" lon="4.91383">
        <ele>295.3</ele>
        <time>2023-09-02T15:14:50Z</time>
      </trkpt>
      <trkpt lat="45.92738" lon="4.91389">
        <ele>295.4</ele>
        <time>2023-09-02T15:14:51Z</time>
      </trkpt>
      <trkpt lat="45.92741" lon="4.91394">
        <ele>295.4</ele>
        <time>2023-09-02T15:14:52Z</time>
      </trkpt>
      <trkpt lat="45.92743" lon="4.914">
        <ele>295.4</ele>
        <time>2023-09-02T15:14:53Z</time>
      </trkpt>
      <trkpt lat="45.92744" lon="4.91405">
        <ele>295.4</ele>
        <time>2023-09-02T15:14:54Z</time>
      </trkpt>
      <trkpt lat="45.92745" lon="4.91412">
        <ele>295.5</ele>
        <time>2023-09-02T15:14:55Z</time>
      </trkpt>
      <trkpt lat="45.92747" lon="4.91417">
        <ele>295.5</ele>
        <time>2023-09-02T15:14:56Z</time>
      </trkpt>
      <trkpt lat="45.92749" lon="4.91423">
        <ele>295.5</ele>
        <time>2023-09-02T15:14:57Z</time>
      </trkpt>
      <trkpt lat="45.92751" lon="4.91428">
        <ele>295.5</ele>
        <time>2023-09-02T15:14:58Z</time>
      </trkpt>
      <trkpt lat="45.92752" lon="4.91434">
        <ele>295.5</ele>
        <time>2023-09-02T15:14:59Z</time>
      </trkpt>
      <trkpt lat="45.92754" lon="4.9144">
        <ele>295.6</ele>
        <time>2023-09-02T15:15:00Z</time>
      </trkpt>
      <trkpt lat="45.92754" lon="4.91446">
        <ele>295.6</ele>
        <time>2023-09-02T15:15:01Z</time>
      </trkpt>
      <trkpt lat="45.92756" lon="4.91452">
        <ele>295.6</ele>
        <time>2023-09-02T15:15:02Z</time>
      </trkpt>
      <trkpt lat="45.92758" lon="4.91457">
        <ele>295.6</ele>
        <time>2023-09-02T15:15:03Z</time>
      </trkpt>
      <trkpt lat="45.9276" lon="4.91463">
        <ele>295.7</ele>
        <time>2023-09-02T15:15:04Z</time>
      </trkpt>
      <trkpt lat="45.92761" lon="4.91468">
        <ele>295.7</ele>
        <time>2023-09-02T15:15:05Z</time>
      </trkpt>
      <trkpt lat="45.92763" lon="4.91474">
        <ele>295.7</ele>
        <time>2023-09-02T15:15:06Z</time>
      </trkpt>
      <trkpt lat="45.92765" lon="4.9148">
        <ele>295.7</ele>
        <time>2023-09-02T15:15:07Z</time>
      </trkpt>
      <trkpt lat="45.92766" lon="4.91485">
        <ele>295.8</ele>
        <time>2023-09-02T15:15:08Z</time>
      </trkpt>
      <trkpt lat="45.92768" lon="4.9149">
        <ele>295.8</ele>
        <time>2023-09-02T15:15:09Z</time>
      </trkpt>
      <trkpt lat="45.92769" lon="4.91496">
        <ele>295.8</ele>
        <time>2023-09-02T15:15:10Z</time>
      </trkpt>
      <trkpt lat="45.92772" lon="4.91502">
        <ele>295.8</ele>
        <time>2023-09-02T15:15:11Z</time>
      </trkpt>
      <trkpt lat="45.92773" lon="4.91507">
        <ele>295.8</ele>
        <time>2023-09-02T15:15:12Z</time>
      </trkpt>
      <trkpt lat="45.92774" lon="4.91514">
        <ele>295.7</ele>
        <time>2023-09-02T15:15:13Z</time>
      </trkpt>
      <trkpt lat="45.92776" lon="4.91521">
        <ele>295.7</ele>
        <time>2023-09-02T15:15:14Z</time>
      </trkpt>
      <trkpt lat="45.92778" lon="4.91527">
        <ele>295.7</ele>
        <time>2023-09-02T15:15:15Z</time>
      </trkpt>
      <trkpt lat="45.92779" lon="4.91532">
        <ele>295.7</ele>
        <time>2023-09-02T15:15:16Z</time>
      </trkpt>
      <trkpt lat="45.92781" lon="4.91538">
        <ele>295.7</ele>
        <time>2023-09-02T15:15:17Z</time>
      </trkpt>
      <trkpt lat="45.92784" lon="4.91544">
        <ele>295.7</ele>
        <time>2023-09-02T15:15:18Z</time>
      </trkpt>
      <trkpt lat="45.92785" lon="4.9155">
        <ele>295.7</ele>
        <time>2023-09-02T15:15:19Z</time>
      </trkpt>
      <trkpt lat="45.92786" lon="4.91557">
        <ele>295.7</ele>
        <time>2023-09-02T15:15:20Z</time>
      </trkpt>
      <trkpt lat="45.92787" lon="4.91563">
        <ele>295.7</ele>
        <time>2023-09-02T15:15:21Z</time>
      </trkpt>
      <trkpt lat="45.92788" lon="4.91569">
        <ele>295.7</ele>
        <time>2023-09-02T15:15:22Z</time>
      </trkpt>
      <trkpt lat="45.92791" lon="4.91574">
        <ele>295.7</ele>
        <time>2023-09-02T15:15:23Z</time>
      </trkpt>
      <trkpt lat="45.92791" lon="4.9158">
        <ele>295.7</ele>
        <time>2023-09-02T15:15:24Z</time>
      </trkpt>
      <trkpt lat="45.92793" lon="4.91586">
        <ele>295.7</ele>
        <time>2023-09-02T15:15:25Z</time>
      </trkpt>
      <trkpt lat="45.92795" lon="4.91592">
        <ele>295.7</ele>
        <time>2023-09-02T15:15:26Z</time>
      </trkpt>
      <trkpt lat="45.92798" lon="4.91597">
        <ele>295.7</ele>
        <time>2023-09-02T15:15:27Z</time>
      </trkpt>
      <trkpt lat="45.92801" lon="4.91602">
        <ele>295.7</ele>
        <time>2023-09-02T15:15:28Z</time>
      </trkpt>
      <trkpt lat="45.92804" lon="4.91607">
        <ele>295.7</ele>
        <time>2023-09-02T15:15:29Z</time>
      </trkpt>
      <trkpt lat="45.92807" lon="4.91611">
        <ele>295.7</ele>
        <time>2023-09-02T15:15:30Z</time>
      </trkpt>
      <trkpt lat="45.92811" lon="4.91615">
        <ele>295.6</ele>
        <time>2023-09-02T15:15:31Z</time>
      </trkpt>
      <trkpt lat="45.92815" lon="4.91619">
        <ele>295.6</ele>
        <time>2023-09-02T15:15:32Z</time>
      </trkpt>
      <trkpt lat="45.92819" lon="4.91621">
        <ele>295.6</ele>
        <time>2023-09-02T15:15:33Z</time>
      </trkpt>
      <trkpt lat="45.92823" lon="4.91623">
        <ele>295.6</ele>
        <time>2023-09-02T15:15:34Z</time>
      </trkpt>
      <trkpt lat="45.92828" lon="4.91626">
        <ele>295.6</ele>
        <time>2023-09-02T15:15:35Z</time>
      </trkpt>
      <trkpt lat="45.92832" lon="4.91627">
        <ele>295.6</ele>
        <time>2023-09-02T15:15:36Z</time>
      </trkpt>
      <trkpt lat="45.92836" lon="4.9163">
        <ele>295.6</ele>
        <time>2023-09-02T15:15:37Z</time>
      </trkpt>
      <trkpt lat="45.92841" lon="4.91631">
        <ele>295.6</ele>
        <time>2023-09-02T15:15:38Z</time>
      </trkpt>
      <trkpt lat="45.92845" lon="4.91633">
        <ele>295.6</ele>
        <time>2023-09-02T15:15:39Z</time>
      </trkpt>
      <trkpt lat="45.92849" lon="4.91635">
        <ele>295.6</ele>
        <time>2023-09-02T15:15:40Z</time>
      </trkpt>
      <trkpt lat="45.92854" lon="4.91637">
        <ele>295.6</ele>
        <time>2023-09-02T15:15:41Z</time>
      </trkpt>
      <trkpt lat="45.92858" lon="4.91639">
        <ele>295.6</ele>
        <time>2023-09-02T15:15:42Z</time>
      </trkpt>
      <trkpt lat="45.92862" lon="4.91641">
        <ele>295.6</ele>
        <time>2023-09-02T15:15:43Z</time>
      </trkpt>
      <trkpt lat="45.92866" lon="4.91641">
        <ele>295.6</ele>
        <time>2023-09-02T15:15:44Z</time>
      </trkpt>
      <trkpt lat="45.9287" lon="4.91643">
        <ele>295.6</ele>
        <time>2023-09-02T15:15:45Z</time>
      </trkpt>
      <trkpt lat="45.92873" lon="4.91645">
        <ele>295.6</ele>
        <time>2023-09-02T15:15:46Z</time>
      </trkpt>
      <trkpt lat="45.92877" lon="4.91647">
        <ele>295.6</ele>
        <time>2023-09-02T15:15:47Z</time>
      </trkpt>
      <trkpt lat="45.9288" lon="4.91649">
        <ele>295.6</ele>
        <time>2023-09-02T15:15:48Z</time>
      </trkpt>
      <trkpt lat="45.92883" lon="4.91651">
        <ele>295.7</ele>
        <time>2023-09-02T15:15:49Z</time>
      </trkpt>
      <trkpt lat="45.92888" lon="4.91653">
        <ele>295.7</ele>
        <time>2023-09-02T15:15:50Z</time>
      </trkpt>
      <trkpt lat="45.92891" lon="4.91654">
        <ele>295.7</ele>
        <time>2023-09-02T15:15:51Z</time>
      </trkpt>
      <trkpt lat="45.92894" lon="4.91656">
        <ele>295.8</ele>
        <time>2023-09-02T15:15:52Z</time>
      </trkpt>
      <trkpt lat="45.92895" lon="4.91656">
        <ele>295.8</ele>
        <time>2023-09-02T15:15:53Z</time>
      </trkpt>
      <trkpt lat="45.92897" lon="4.91657">
        <ele>295.8</ele>
        <time>2023-09-02T15:15:54Z</time>
      </trkpt>
      <trkpt lat="45.92898" lon="4.91659">
        <ele>295.8</ele>
        <time>2023-09-02T15:15:55Z</time>
      </trkpt>
      <trkpt lat="45.92901" lon="4.9166">
        <ele>295.8</ele>
        <time>2023-09-02T15:15:56Z</time>
      </trkpt>
      <trkpt lat="45.92904" lon="4.9166">
        <ele>295.8</ele>
        <time>2023-09-02T15:15:57Z</time>
      </trkpt>
      <trkpt lat="45.92905" lon="4.91661">
        <ele>295.8</ele>
        <time>2023-09-02T15:15:58Z</time>
      </trkpt>
      <trkpt lat="45.92909" lon="4.91662">
        <ele>295.8</ele>
        <time>2023-09-02T15:15:59Z</time>
      </trkpt>
      <trkpt lat="45.92912" lon="4.91664">
        <ele>295.8</ele>
        <time>2023-09-02T15:16:00Z</time>
      </trkpt>
      <trkpt lat="45.92913" lon="4.91665">
        <ele>295.8</ele>
        <time>2023-09-02T15:16:01Z</time>
      </trkpt>
      <trkpt lat="45.92917" lon="4.91667">
        <ele>295.8</ele>
        <time>2023-09-02T15:16:02Z</time>
      </trkpt>
      <trkpt lat="45.9292" lon="4.91668">
        <ele>295.8</ele>
        <time>2023-09-02T15:16:03Z</time>
      </trkpt>
      <trkpt lat="45.92923" lon="4.91669">
        <ele>295.8</ele>
        <time>2023-09-02T15:16:04Z</time>
      </trkpt>
      <trkpt lat="45.92926" lon="4.91671">
        <ele>295.8</ele>
        <time>2023-09-02T15:16:05Z</time>
      </trkpt>
      <trkpt lat="45.9293" lon="4.91673">
        <ele>295.8</ele>
        <time>2023-09-02T15:16:06Z</time>
      </trkpt>
      <trkpt lat="45.92933" lon="4.91674">
        <ele>295.8</ele>
        <time>2023-09-02T15:16:07Z</time>
      </trkpt>
      <trkpt lat="45.92936" lon="4.91676">
        <ele>295.8</ele>
        <time>2023-09-02T15:16:08Z</time>
      </trkpt>
      <trkpt lat="45.92939" lon="4.91679">
        <ele>295.8</ele>
        <time>2023-09-02T15:16:09Z</time>
      </trkpt>
      <trkpt lat="45.92944" lon="4.9168">
        <ele>295.8</ele>
        <time>2023-09-02T15:16:10Z</time>
      </trkpt>
      <trkpt lat="45.92947" lon="4.91682">
        <ele>295.8</ele>
        <time>2023-09-02T15:16:11Z</time>
      </trkpt>
      <trkpt lat="45.9295" lon="4.91683">
        <ele>295.8</ele>
        <time>2023-09-02T15:16:12Z</time>
      </trkpt>
      <trkpt lat="45.92953" lon="4.91686">
        <ele>295.8</ele>
        <time>2023-09-02T15:16:13Z</time>
      </trkpt>
      <trkpt lat="45.92956" lon="4.91687">
        <ele>295.8</ele>
        <time>2023-09-02T15:16:14Z</time>
      </trkpt>
      <trkpt lat="45.9296" lon="4.91689">
        <ele>295.8</ele>
        <time>2023-09-02T15:16:15Z</time>
      </trkpt>
      <trkpt lat="45.92964" lon="4.91691">
        <ele>295.8</ele>
        <time>2023-09-02T15:16:16Z</time>
      </trkpt>
      <trkpt lat="45.92968" lon="4.91693">
        <ele>295.8</ele>
        <time>2023-09-02T15:16:17Z</time>
      </trkpt>
      <trkpt lat="45.92972" lon="4.91694">
        <ele>295.8</ele>
        <time>2023-09-02T15:16:18Z</time>
      </trkpt>
      <trkpt lat="45.92974" lon="4.91697">
        <ele>295.8</ele>
        <time>2023-09-02T15:16:19Z</time>
      </trkpt>
      <trkpt lat="45.92977" lon="4.91698">
        <ele>295.8</ele>
        <time>2023-09-02T15:16:20Z</time>
      </trkpt>
      <trkpt lat="45.9298" lon="4.91699">
        <ele>295.8</ele>
        <time>2023-09-02T15:16:21Z</time>
      </trkpt>
      <trkpt lat="45.92983" lon="4.91701">
        <ele>295.8</ele>
        <time>2023-09-02T15:16:22Z</time>
      </trkpt>
      <trkpt lat="45.92987" lon="4.91704">
        <ele>295.8</ele>
        <time>2023-09-02T15:16:23Z</time>
      </trkpt>
      <trkpt lat="45.92991" lon="4.91706">
        <ele>295.8</ele>
        <time>2023-09-02T15:16:24Z</time>
      </trkpt>
      <trkpt lat="45.92994" lon="4.91708">
        <ele>295.8</ele>
        <time>2023-09-02T15:16:25Z</time>
      </trkpt>
      <trkpt lat="45.92998" lon="4.91709">
        <ele>295.8</ele>
        <time>2023-09-02T15:16:26Z</time>
      </trkpt>
      <trkpt lat="45.93002" lon="4.91712">
        <ele>295.8</ele>
        <time>2023-09-02T15:16:27Z</time>
      </trkpt>
      <trkpt lat="45.93005" lon="4.91714">
        <ele>295.8</ele>
        <time>2023-09-02T15:16:28Z</time>
      </trkpt>
      <trkpt lat="45.93008" lon="4.91716">
        <ele>295.8</ele>
        <time>2023-09-02T15:16:29Z</time>
      </trkpt>
      <trkpt lat="45.93012" lon="4.91718">
        <ele>295.8</ele>
        <time>2023-09-02T15:16:30Z</time>
      </trkpt>
      <trkpt lat="45.93016" lon="4.9172">
        <ele>295.8</ele>
        <time>2023-09-02T15:16:31Z</time>
      </trkpt>
      <trkpt lat="45.9302" lon="4.91721">
        <ele>295.9</ele>
        <time>2023-09-02T15:16:32Z</time>
      </trkpt>
      <trkpt lat="45.93023" lon="4.91723">
        <ele>295.9</ele>
        <time>2023-09-02T15:16:33Z</time>
      </trkpt>
      <trkpt lat="45.93027" lon="4.91725">
        <ele>295.9</ele>
        <time>2023-09-02T15:16:34Z</time>
      </trkpt>
      <trkpt lat="45.93031" lon="4.91727">
        <ele>296</ele>
        <time>2023-09-02T15:16:35Z</time>
      </trkpt>
      <trkpt lat="45.93035" lon="4.91729">
        <ele>296</ele>
        <time>2023-09-02T15:16:36Z</time>
      </trkpt>
      <trkpt lat="45.93038" lon="4.91731">
        <ele>296</ele>
        <time>2023-09-02T15:16:37Z</time>
      </trkpt>
      <trkpt lat="45.93042" lon="4.91733">
        <ele>296</ele>
        <time>2023-09-02T15:16:38Z</time>
      </trkpt>
      <trkpt lat="45.93045" lon="4.91734">
        <ele>296</ele>
        <time>2023-09-02T15:16:39Z</time>
      </trkpt>
      <trkpt lat="45.93048" lon="4.91736">
        <ele>296</ele>
        <time>2023-09-02T15:16:40Z</time>
      </trkpt>
      <trkpt lat="45.93053" lon="4.91739">
        <ele>296</ele>
        <time>2023-09-02T15:16:41Z</time>
      </trkpt>
      <trkpt lat="45.93056" lon="4.91741">
        <ele>296.1</ele>
        <time>2023-09-02T15:16:42Z</time>
      </trkpt>
      <trkpt lat="45.9306" lon="4.91743">
        <ele>296.1</ele>
        <time>2023-09-02T15:16:43Z</time>
      </trkpt>
      <trkpt lat="45.93064" lon="4.91745">
        <ele>296.1</ele>
        <time>2023-09-02T15:16:44Z</time>
      </trkpt>
      <trkpt lat="45.93067" lon="4.91746">
        <ele>296.1</ele>
        <time>2023-09-02T15:16:45Z</time>
      </trkpt>
      <trkpt lat="45.93071" lon="4.91748">
        <ele>296.1</ele>
        <time>2023-09-02T15:16:46Z</time>
      </trkpt>
      <trkpt lat="45.93075" lon="4.9175">
        <ele>296.1</ele>
        <time>2023-09-02T15:16:47Z</time>
      </trkpt>
      <trkpt lat="45.93079" lon="4.91752">
        <ele>296.1</ele>
        <time>2023-09-02T15:16:48Z</time>
      </trkpt>
      <trkpt lat="45.93083" lon="4.91755">
        <ele>296.1</ele>
        <time>2023-09-02T15:16:49Z</time>
      </trkpt>
      <trkpt lat="45.93086" lon="4.91757">
        <ele>296.1</ele>
        <time>2023-09-02T15:16:50Z</time>
      </trkpt>
      <trkpt lat="45.93091" lon="4.91759">
        <ele>296.1</ele>
        <time>2023-09-02T15:16:51Z</time>
      </trkpt>
      <trkpt lat="45.93094" lon="4.91762">
        <ele>296.1</ele>
        <time>2023-09-02T15:16:52Z</time>
      </trkpt>
      <trkpt lat="45.93097" lon="4.91764">
        <ele>296.1</ele>
        <time>2023-09-02T15:16:53Z</time>
      </trkpt>
      <trkpt lat="45.93101" lon="4.91766">
        <ele>296.1</ele>
        <time>2023-09-02T15:16:54Z</time>
      </trkpt>
      <trkpt lat="45.93105" lon="4.91768">
        <ele>296.1</ele>
        <time>2023-09-02T15:16:55Z</time>
      </trkpt>
      <trkpt lat="45.93108" lon="4.9177">
        <ele>296.1</ele>
        <time>2023-09-02T15:16:56Z</time>
      </trkpt>
      <trkpt lat="45.93112" lon="4.91772">
        <ele>296.1</ele>
        <time>2023-09-02T15:16:57Z</time>
      </trkpt>
      <trkpt lat="45.93115" lon="4.91773">
        <ele>296.1</ele>
        <time>2023-09-02T15:16:58Z</time>
      </trkpt>
      <trkpt lat="45.93118" lon="4.91775">
        <ele>296.1</ele>
        <time>2023-09-02T15:16:59Z</time>
      </trkpt>
      <trkpt lat="45.93122" lon="4.91777">
        <ele>296.1</ele>
        <time>2023-09-02T15:17:00Z</time>
      </trkpt>
      <trkpt lat="45.93125" lon="4.9178">
        <ele>296</ele>
        <time>2023-09-02T15:17:01Z</time>
      </trkpt>
      <trkpt lat="45.93128" lon="4.91783">
        <ele>296</ele>
        <time>2023-09-02T15:17:02Z</time>
      </trkpt>
      <trkpt lat="45.93131" lon="4.91786">
        <ele>296</ele>
        <time>2023-09-02T15:17:03Z</time>
      </trkpt>
      <trkpt lat="45.93135" lon="4.91789">
        <ele>296</ele>
        <time>2023-09-02T15:17:04Z</time>
      </trkpt>
      <trkpt lat="45.93137" lon="4.91793">
        <ele>295.9</ele>
        <time>2023-09-02T15:17:05Z</time>
      </trkpt>
      <trkpt lat="45.93141" lon="4.91796">
        <ele>295.9</ele>
        <time>2023-09-02T15:17:06Z</time>
      </trkpt>
      <trkpt lat="45.93143" lon="4.91801">
        <ele>295.9</ele>
        <time>2023-09-02T15:17:07Z</time>
      </trkpt>
      <trkpt lat="45.93146" lon="4.91805">
        <ele>296</ele>
        <time>2023-09-02T15:17:08Z</time>
      </trkpt>
      <trkpt lat="45.93149" lon="4.91809">
        <ele>296</ele>
        <time>2023-09-02T15:17:09Z</time>
      </trkpt>
      <trkpt lat="45.93152" lon="4.91815">
        <ele>296</ele>
        <time>2023-09-02T15:17:10Z</time>
      </trkpt>
      <trkpt lat="45.93154" lon="4.91819">
        <ele>296</ele>
        <time>2023-09-02T15:17:11Z</time>
      </trkpt>
      <trkpt lat="45.93156" lon="4.91822">
        <ele>296</ele>
        <time>2023-09-02T15:17:12Z</time>
      </trkpt>
      <trkpt lat="45.93158" lon="4.91828">
        <ele>296.1</ele>
        <time>2023-09-02T15:17:13Z</time>
      </trkpt>
      <trkpt lat="45.93159" lon="4.91834">
        <ele>296.1</ele>
        <time>2023-09-02T15:17:14Z</time>
      </trkpt>
      <trkpt lat="45.93161" lon="4.91839">
        <ele>296.1</ele>
        <time>2023-09-02T15:17:15Z</time>
      </trkpt>
      <trkpt lat="45.93163" lon="4.91845">
        <ele>296.1</ele>
        <time>2023-09-02T15:17:16Z</time>
      </trkpt>
      <trkpt lat="45.93165" lon="4.9185">
        <ele>296.1</ele>
        <time>2023-09-02T15:17:17Z</time>
      </trkpt>
      <trkpt lat="45.93167" lon="4.91855">
        <ele>296.1</ele>
        <time>2023-09-02T15:17:18Z</time>
      </trkpt>
      <trkpt lat="45.93168" lon="4.91861">
        <ele>296.1</ele>
        <time>2023-09-02T15:17:19Z</time>
      </trkpt>
      <trkpt lat="45.9317" lon="4.91866">
        <ele>296.1</ele>
        <time>2023-09-02T15:17:20Z</time>
      </trkpt>
      <trkpt lat="45.93171" lon="4.91871">
        <ele>296.1</ele>
        <time>2023-09-02T15:17:21Z</time>
      </trkpt>
      <trkpt lat="45.93172" lon="4.91877">
        <ele>296.1</ele>
        <time>2023-09-02T15:17:22Z</time>
      </trkpt>
      <trkpt lat="45.93173" lon="4.91883">
        <ele>296.1</ele>
        <time>2023-09-02T15:17:23Z</time>
      </trkpt>
      <trkpt lat="45.93175" lon="4.91889">
        <ele>296.2</ele>
        <time>2023-09-02T15:17:24Z</time>
      </trkpt>
      <trkpt lat="45.93177" lon="4.91894">
        <ele>296.2</ele>
        <time>2023-09-02T15:17:25Z</time>
      </trkpt>
      <trkpt lat="45.93179" lon="4.91899">
        <ele>296.2</ele>
        <time>2023-09-02T15:17:26Z</time>
      </trkpt>
      <trkpt lat="45.9318" lon="4.91904">
        <ele>296.2</ele>
        <time>2023-09-02T15:17:27Z</time>
      </trkpt>
      <trkpt lat="45.93182" lon="4.91908">
        <ele>296.2</ele>
        <time>2023-09-02T15:17:28Z</time>
      </trkpt>
      <trkpt lat="45.93182" lon="4.91913">
        <ele>296.2</ele>
        <time>2023-09-02T15:17:29Z</time>
      </trkpt>
      <trkpt lat="45.93184" lon="4.91917">
        <ele>296.3</ele>
        <time>2023-09-02T15:17:30Z</time>
      </trkpt>
      <trkpt lat="45.93185" lon="4.91921">
        <ele>296.3</ele>
        <time>2023-09-02T15:17:31Z</time>
      </trkpt>
      <trkpt lat="45.93186" lon="4.91926">
        <ele>296.3</ele>
        <time>2023-09-02T15:17:32Z</time>
      </trkpt>
      <trkpt lat="45.93189" lon="4.9193">
        <ele>296.3</ele>
        <time>2023-09-02T15:17:33Z</time>
      </trkpt>
      <trkpt lat="45.9319" lon="4.91935">
        <ele>296.3</ele>
        <time>2023-09-02T15:17:34Z</time>
      </trkpt>
      <trkpt lat="45.93191" lon="4.9194">
        <ele>296.3</ele>
        <time>2023-09-02T15:17:35Z</time>
      </trkpt>
      <trkpt lat="45.93194" lon="4.91944">
        <ele>296.3</ele>
        <time>2023-09-02T15:17:36Z</time>
      </trkpt>
      <trkpt lat="45.93196" lon="4.91949">
        <ele>296.3</ele>
        <time>2023-09-02T15:17:37Z</time>
      </trkpt>
      <trkpt lat="45.93197" lon="4.91954">
        <ele>296.3</ele>
        <time>2023-09-02T15:17:38Z</time>
      </trkpt>
      <trkpt lat="45.93199" lon="4.91958">
        <ele>296.3</ele>
        <time>2023-09-02T15:17:39Z</time>
      </trkpt>
      <trkpt lat="45.93201" lon="4.91962">
        <ele>296.3</ele>
        <time>2023-09-02T15:17:40Z</time>
      </trkpt>
      <trkpt lat="45.93203" lon="4.91967">
        <ele>296.3</ele>
        <time>2023-09-02T15:17:41Z</time>
      </trkpt>
      <trkpt lat="45.93205" lon="4.91973">
        <ele>296.3</ele>
        <time>2023-09-02T15:17:42Z</time>
      </trkpt>
      <trkpt lat="45.93207" lon="4.91978">
        <ele>296.3</ele>
        <time>2023-09-02T15:17:43Z</time>
      </trkpt>
      <trkpt lat="45.93209" lon="4.91983">
        <ele>296.2</ele>
        <time>2023-09-02T15:17:44Z</time>
      </trkpt>
      <trkpt lat="45.9321" lon="4.91988">
        <ele>296.2</ele>
        <time>2023-09-02T15:17:45Z</time>
      </trkpt>
      <trkpt lat="45.93212" lon="4.91993">
        <ele>296.2</ele>
        <time>2023-09-02T15:17:46Z</time>
      </trkpt>
      <trkpt lat="45.93214" lon="4.91999">
        <ele>296.2</ele>
        <time>2023-09-02T15:17:47Z</time>
      </trkpt>
      <trkpt lat="45.93215" lon="4.92005">
        <ele>296.2</ele>
        <time>2023-09-02T15:17:48Z</time>
      </trkpt>
      <trkpt lat="45.93216" lon="4.92011">
        <ele>296.2</ele>
        <time>2023-09-02T15:17:49Z</time>
      </trkpt>
      <trkpt lat="45.93217" lon="4.92017">
        <ele>296.2</ele>
        <time>2023-09-02T15:17:50Z</time>
      </trkpt>
      <trkpt lat="45.93218" lon="4.92023">
        <ele>296.2</ele>
        <time>2023-09-02T15:17:51Z</time>
      </trkpt>
      <trkpt lat="45.93219" lon="4.92029">
        <ele>296.1</ele>
        <time>2023-09-02T15:17:52Z</time>
      </trkpt>
      <trkpt lat="45.9322" lon="4.92035">
        <ele>296.1</ele>
        <time>2023-09-02T15:17:53Z</time>
      </trkpt>
      <trkpt lat="45.93221" lon="4.92041">
        <ele>296.1</ele>
        <time>2023-09-02T15:17:54Z</time>
      </trkpt>
      <trkpt lat="45.93222" lon="4.92047">
        <ele>296.1</ele>
        <time>2023-09-02T15:17:55Z</time>
      </trkpt>
      <trkpt lat="45.93223" lon="4.92053">
        <ele>296.1</ele>
        <time>2023-09-02T15:17:56Z</time>
      </trkpt>
      <trkpt lat="45.93224" lon="4.92058">
        <ele>296.1</ele>
        <time>2023-09-02T15:17:57Z</time>
      </trkpt>
      <trkpt lat="45.93226" lon="4.92064">
        <ele>296.1</ele>
        <time>2023-09-02T15:17:58Z</time>
      </trkpt>
      <trkpt lat="45.93228" lon="4.92069">
        <ele>296.1</ele>
        <time>2023-09-02T15:17:59Z</time>
      </trkpt>
      <trkpt lat="45.9323" lon="4.92075">
        <ele>296.1</ele>
        <time>2023-09-02T15:18:00Z</time>
      </trkpt>
      <trkpt lat="45.93232" lon="4.9208">
        <ele>296.1</ele>
        <time>2023-09-02T15:18:01Z</time>
      </trkpt>
      <trkpt lat="45.93234" lon="4.92085">
        <ele>296.1</ele>
        <time>2023-09-02T15:18:02Z</time>
      </trkpt>
      <trkpt lat="45.93236" lon="4.92091">
        <ele>296.2</ele>
        <time>2023-09-02T15:18:03Z</time>
      </trkpt>
      <trkpt lat="45.93238" lon="4.92096">
        <ele>296.2</ele>
        <time>2023-09-02T15:18:04Z</time>
      </trkpt>
      <trkpt lat="45.9324" lon="4.92101">
        <ele>296.2</ele>
        <time>2023-09-02T15:18:05Z</time>
      </trkpt>
      <trkpt lat="45.93243" lon="4.92106">
        <ele>296.2</ele>
        <time>2023-09-02T15:18:06Z</time>
      </trkpt>
      <trkpt lat="45.93245" lon="4.92111">
        <ele>296.2</ele>
        <time>2023-09-02T15:18:07Z</time>
      </trkpt>
      <trkpt lat="45.93247" lon="4.92116">
        <ele>296.2</ele>
        <time>2023-09-02T15:18:08Z</time>
      </trkpt>
      <trkpt lat="45.9325" lon="4.92122">
        <ele>296.3</ele>
        <time>2023-09-02T15:18:09Z</time>
      </trkpt>
      <trkpt lat="45.93252" lon="4.92127">
        <ele>296.3</ele>
        <time>2023-09-02T15:18:10Z</time>
      </trkpt>
      <trkpt lat="45.93254" lon="4.92132">
        <ele>296.3</ele>
        <time>2023-09-02T15:18:11Z</time>
      </trkpt>
      <trkpt lat="45.93256" lon="4.92137">
        <ele>296.3</ele>
        <time>2023-09-02T15:18:12Z</time>
      </trkpt>
      <trkpt lat="45.93259" lon="4.92142">
        <ele>296.3</ele>
        <time>2023-09-02T15:18:13Z</time>
      </trkpt>
      <trkpt lat="45.93261" lon="4.92148">
        <ele>296.3</ele>
        <time>2023-09-02T15:18:14Z</time>
      </trkpt>
      <trkpt lat="45.93263" lon="4.92153">
        <ele>296.3</ele>
        <time>2023-09-02T15:18:15Z</time>
      </trkpt>
      <trkpt lat="45.93265" lon="4.92158">
        <ele>296.3</ele>
        <time>2023-09-02T15:18:16Z</time>
      </trkpt>
      <trkpt lat="45.93267" lon="4.92163">
        <ele>296.3</ele>
        <time>2023-09-02T15:18:17Z</time>
      </trkpt>
      <trkpt lat="45.9327" lon="4.92168">
        <ele>296.3</ele>
        <time>2023-09-02T15:18:18Z</time>
      </trkpt>
      <trkpt lat="45.93272" lon="4.92173">
        <ele>296.3</ele>
        <time>2023-09-02T15:18:19Z</time>
      </trkpt>
      <trkpt lat="45.93275" lon="4.92178">
        <ele>296.3</ele>
        <time>2023-09-02T15:18:20Z</time>
      </trkpt>
      <trkpt lat="45.93277" lon="4.92183">
        <ele>296.4</ele>
        <time>2023-09-02T15:18:21Z</time>
      </trkpt>
      <trkpt lat="45.9328" lon="4.92188">
        <ele>296.4</ele>
        <time>2023-09-02T15:18:22Z</time>
      </trkpt>
      <trkpt lat="45.93282" lon="4.92193">
        <ele>296.4</ele>
        <time>2023-09-02T15:18:23Z</time>
      </trkpt>
      <trkpt lat="45.93284" lon="4.92198">
        <ele>296.4</ele>
        <time>2023-09-02T15:18:24Z</time>
      </trkpt>
      <trkpt lat="45.93287" lon="4.92204">
        <ele>296.4</ele>
        <time>2023-09-02T15:18:25Z</time>
      </trkpt>
      <trkpt lat="45.93288" lon="4.92209">
        <ele>296.4</ele>
        <time>2023-09-02T15:18:26Z</time>
      </trkpt>
      <trkpt lat="45.9329" lon="4.92214">
        <ele>296.4</ele>
        <time>2023-09-02T15:18:27Z</time>
      </trkpt>
      <trkpt lat="45.93293" lon="4.92219">
        <ele>296.4</ele>
        <time>2023-09-02T15:18:28Z</time>
      </trkpt>
      <trkpt lat="45.93295" lon="4.92224">
        <ele>296.4</ele>
        <time>2023-09-02T15:18:29Z</time>
      </trkpt>
      <trkpt lat="45.93297" lon="4.92229">
        <ele>296.4</ele>
        <time>2023-09-02T15:18:30Z</time>
      </trkpt>
      <trkpt lat="45.93299" lon="4.92234">
        <ele>296.3</ele>
        <time>2023-09-02T15:18:31Z</time>
      </trkpt>
      <trkpt lat="45.93302" lon="4.92239">
        <ele>296.3</ele>
        <time>2023-09-02T15:18:32Z</time>
      </trkpt>
      <trkpt lat="45.93304" lon="4.92244">
        <ele>296.3</ele>
        <time>2023-09-02T15:18:33Z</time>
      </trkpt>
      <trkpt lat="45.93307" lon="4.92249">
        <ele>296.3</ele>
        <time>2023-09-02T15:18:34Z</time>
      </trkpt>
      <trkpt lat="45.93309" lon="4.92254">
        <ele>296.3</ele>
        <time>2023-09-02T15:18:35Z</time>
      </trkpt>
      <trkpt lat="45.93311" lon="4.92259">
        <ele>296.3</ele>
        <time>2023-09-02T15:18:36Z</time>
      </trkpt>
      <trkpt lat="45.93313" lon="4.92265">
        <ele>296.3</ele>
        <time>2023-09-02T15:18:37Z</time>
      </trkpt>
      <trkpt lat="45.93315" lon="4.92269">
        <ele>296.3</ele>
        <time>2023-09-02T15:18:38Z</time>
      </trkpt>
      <trkpt lat="45.93317" lon="4.92274">
        <ele>296.3</ele>
        <time>2023-09-02T15:18:39Z</time>
      </trkpt>
      <trkpt lat="45.93319" lon="4.92279">
        <ele>296.4</ele>
        <time>2023-09-02T15:18:40Z</time>
      </trkpt>
      <trkpt lat="45.93321" lon="4.92283">
        <ele>296.4</ele>
        <time>2023-09-02T15:18:41Z</time>
      </trkpt>
      <trkpt lat="45.93323" lon="4.92287">
        <ele>296.4</ele>
        <time>2023-09-02T15:18:42Z</time>
      </trkpt>
      <trkpt lat="45.93325" lon="4.92291">
        <ele>296.5</ele>
        <time>2023-09-02T15:18:43Z</time>
      </trkpt>
      <trkpt lat="45.93326" lon="4.92295">
        <ele>296.5</ele>
        <time>2023-09-02T15:18:44Z</time>
      </trkpt>
      <trkpt lat="45.93328" lon="4.92299">
        <ele>296.6</ele>
        <time>2023-09-02T15:18:45Z</time>
      </trkpt>
      <trkpt lat="45.93329" lon="4.92303">
        <ele>296.6</ele>
        <time>2023-09-02T15:18:46Z</time>
      </trkpt>
      <trkpt lat="45.93331" lon="4.92306">
        <ele>296.6</ele>
        <time>2023-09-02T15:18:47Z</time>
      </trkpt>
      <trkpt lat="45.93333" lon="4.9231">
        <ele>296.7</ele>
        <time>2023-09-02T15:18:48Z</time>
      </trkpt>
      <trkpt lat="45.93335" lon="4.92314">
        <ele>296.7</ele>
        <time>2023-09-02T15:18:49Z</time>
      </trkpt>
      <trkpt lat="45.93336" lon="4.92318">
        <ele>296.8</ele>
        <time>2023-09-02T15:18:50Z</time>
      </trkpt>
      <trkpt lat="45.93338" lon="4.92322">
        <ele>296.9</ele>
        <time>2023-09-02T15:18:51Z</time>
      </trkpt>
      <trkpt lat="45.93339" lon="4.92324">
        <ele>296.9</ele>
        <time>2023-09-02T15:18:52Z</time>
      </trkpt>
      <trkpt lat="45.9334" lon="4.92328">
        <ele>297</ele>
        <time>2023-09-02T15:18:53Z</time>
      </trkpt>
      <trkpt lat="45.93341" lon="4.92329">
        <ele>297</ele>
        <time>2023-09-02T15:18:54Z</time>
      </trkpt>
      <trkpt lat="45.93342" lon="4.92333">
        <ele>297</ele>
        <time>2023-09-02T15:18:55Z</time>
      </trkpt>
      <trkpt lat="45.93343" lon="4.92337">
        <ele>297</ele>
        <time>2023-09-02T15:18:56Z</time>
      </trkpt>
      <trkpt lat="45.93346" lon="4.92339">
        <ele>297</ele>
        <time>2023-09-02T15:18:57Z</time>
      </trkpt>
      <trkpt lat="45.93347" lon="4.9234">
        <ele>297</ele>
        <time>2023-09-02T15:18:58Z</time>
      </trkpt>
      <trkpt lat="45.93348" lon="4.92342">
        <ele>297</ele>
        <time>2023-09-02T15:18:59Z</time>
      </trkpt>
      <trkpt lat="45.93348" lon="4.92343">
        <ele>297</ele>
        <time>2023-09-02T15:19:00Z</time>
      </trkpt>
      <trkpt lat="45.93349" lon="4.92343">
        <ele>297</ele>
        <time>2023-09-02T15:19:01Z</time>
      </trkpt>
      <trkpt lat="45.93349" lon="4.92344">
        <ele>297</ele>
        <time>2023-09-02T15:19:02Z</time>
      </trkpt>
      <trkpt lat="45.9335" lon="4.92345">
        <ele>297</ele>
        <time>2023-09-02T15:19:03Z</time>
      </trkpt>
      <trkpt lat="45.93351" lon="4.92347">
        <ele>297</ele>
        <time>2023-09-02T15:19:04Z</time>
      </trkpt>
      <trkpt lat="45.93352" lon="4.92348">
        <ele>297</ele>
        <time>2023-09-02T15:19:05Z</time>
      </trkpt>
      <trkpt lat="45.93352" lon="4.92349">
        <ele>297</ele>
        <time>2023-09-02T15:19:06Z</time>
      </trkpt>
      <trkpt lat="45.93352" lon="4.92349">
        <ele>297</ele>
        <time>2023-09-02T15:19:07Z</time>
      </trkpt>
      <trkpt lat="45.93352" lon="4.92349">
        <ele>297</ele>
        <time>2023-09-02T15:19:08Z</time>
      </trkpt>
      <trkpt lat="45.93352" lon="4.92349">
        <ele>297</ele>
        <time>2023-09-02T15:19:09Z</time>
      </trkpt>
      <trkpt lat="45.93352" lon="4.92349">
        <ele>297</ele>
        <time>2023-09-02T15:19:10Z</time>
      </trkpt>
      <trkpt lat="45.93352" lon="4.92349">
        <ele>297</ele>
        <time>2023-09-02T15:19:11Z</time>
      </trkpt>
      <trkpt lat="45.93352" lon="4.92349">
        <ele>297</ele>
        <time>2023-09-02T15:19:12Z</time>
      </trkpt>
      <trkpt lat="45.93352" lon="4.92349">
        <ele>297</ele>
        <time>2023-09-02T15:19:13Z</time>
      </trkpt>
      <trkpt lat="45.93352" lon="4.92349">
        <ele>297</ele>
        <time>2023-09-02T15:19:14Z</time>
      </trkpt>
      <trkpt lat="45.93353" lon="4.92349">
        <ele>297</ele>
        <time>2023-09-02T15:19:15Z</time>
      </trkpt>
      <trkpt lat="45.93354" lon="4.92351">
        <ele>297</ele>
        <time>2023-09-02T15:19:33Z</time>
      </trkpt>
      <trkpt lat="45.93355" lon="4.92352">
        <ele>296.9</ele>
        <time>2023-09-02T15:19:34Z</time>
      </trkpt>
      <trkpt lat="45.93356" lon="4.92353">
        <ele>296.9</ele>
        <time>2023-09-02T15:19:35Z</time>
      </trkpt>
      <trkpt lat="45.93358" lon="4.92358">
        <ele>296.9</ele>
        <time>2023-09-02T15:19:36Z</time>
      </trkpt>
      <trkpt lat="45.93359" lon="4.92359">
        <ele>296.9</ele>
        <time>2023-09-02T15:19:37Z</time>
      </trkpt>
      <trkpt lat="45.93361" lon="4.92363">
        <ele>296.8</ele>
        <time>2023-09-02T15:19:38Z</time>
      </trkpt>
      <trkpt lat="45.93362" lon="4.92364">
        <ele>296.8</ele>
        <time>2023-09-02T15:19:39Z</time>
      </trkpt>
      <trkpt lat="45.93364" lon="4.92369">
        <ele>296.8</ele>
        <time>2023-09-02T15:19:40Z</time>
      </trkpt>
      <trkpt lat="45.93365" lon="4.9237">
        <ele>296.8</ele>
        <time>2023-09-02T15:19:41Z</time>
      </trkpt>
      <trkpt lat="45.93367" lon="4.92373">
        <ele>296.7</ele>
        <time>2023-09-02T15:19:42Z</time>
      </trkpt>
      <trkpt lat="45.93368" lon="4.92374">
        <ele>296.7</ele>
        <time>2023-09-02T15:19:43Z</time>
      </trkpt>
      <trkpt lat="45.93369" lon="4.92376">
        <ele>296.7</ele>
        <time>2023-09-02T15:19:44Z</time>
      </trkpt>
      <trkpt lat="45.9337" lon="4.92378">
        <ele>296.7</ele>
        <time>2023-09-02T15:19:45Z</time>
      </trkpt>
      <trkpt lat="45.93371" lon="4.92382">
        <ele>296.7</ele>
        <time>2023-09-02T15:19:46Z</time>
      </trkpt>
      <trkpt lat="45.93372" lon="4.92383">
        <ele>296.7</ele>
        <time>2023-09-02T15:19:47Z</time>
      </trkpt>
      <trkpt lat="45.93374" lon="4.92387">
        <ele>296.7</ele>
        <time>2023-09-02T15:19:48Z</time>
      </trkpt>
      <trkpt lat="45.93374" lon="4.92389">
        <ele>296.7</ele>
        <time>2023-09-02T15:19:49Z</time>
      </trkpt>
      <trkpt lat="45.93377" lon="4.92392">
        <ele>296.7</ele>
        <time>2023-09-02T15:19:50Z</time>
      </trkpt>
      <trkpt lat="45.93378" lon="4.92394">
        <ele>296.7</ele>
        <time>2023-09-02T15:19:51Z</time>
      </trkpt>
      <trkpt lat="45.93381" lon="4.92398">
        <ele>296.7</ele>
        <time>2023-09-02T15:19:52Z</time>
      </trkpt>
      <trkpt lat="45.93383" lon="4.92399">
        <ele>296.7</ele>
        <time>2023-09-02T15:19:53Z</time>
      </trkpt>
      <trkpt lat="45.93385" lon="4.92402">
        <ele>296.8</ele>
        <time>2023-09-02T15:19:54Z</time>
      </trkpt>
      <trkpt lat="45.93387" lon="4.92405">
        <ele>296.8</ele>
        <time>2023-09-02T15:19:55Z</time>
      </trkpt>
      <trkpt lat="45.93389" lon="4.92409">
        <ele>296.8</ele>
        <time>2023-09-02T15:19:56Z</time>
      </trkpt>
      <trkpt lat="45.9339" lon="4.9241">
        <ele>296.8</ele>
        <time>2023-09-02T15:19:57Z</time>
      </trkpt>
      <trkpt lat="45.93392" lon="4.92413">
        <ele>296.8</ele>
        <time>2023-09-02T15:19:58Z</time>
      </trkpt>
      <trkpt lat="45.93394" lon="4.92416">
        <ele>296.8</ele>
        <time>2023-09-02T15:19:59Z</time>
      </trkpt>
      <trkpt lat="45.93397" lon="4.92418">
        <ele>296.9</ele>
        <time>2023-09-02T15:20:00Z</time>
      </trkpt>
      <trkpt lat="45.93399" lon="4.92422">
        <ele>296.9</ele>
        <time>2023-09-02T15:20:01Z</time>
      </trkpt>
      <trkpt lat="45.93401" lon="4.92424">
        <ele>296.9</ele>
        <time>2023-09-02T15:20:02Z</time>
      </trkpt>
      <trkpt lat="45.93403" lon="4.92427">
        <ele>296.9</ele>
        <time>2023-09-02T15:20:03Z</time>
      </trkpt>
      <trkpt lat="45.93406" lon="4.9243">
        <ele>296.9</ele>
        <time>2023-09-02T15:20:04Z</time>
      </trkpt>
      <trkpt lat="45.93407" lon="4.92432">
        <ele>297</ele>
        <time>2023-09-02T15:20:05Z</time>
      </trkpt>
      <trkpt lat="45.93409" lon="4.92435">
        <ele>297</ele>
        <time>2023-09-02T15:20:06Z</time>
      </trkpt>
      <trkpt lat="45.93411" lon="4.92437">
        <ele>297</ele>
        <time>2023-09-02T15:20:07Z</time>
      </trkpt>
      <trkpt lat="45.93413" lon="4.9244">
        <ele>297</ele>
        <time>2023-09-02T15:20:08Z</time>
      </trkpt>
      <trkpt lat="45.93415" lon="4.92443">
        <ele>297.1</ele>
        <time>2023-09-02T15:20:09Z</time>
      </trkpt>
      <trkpt lat="45.93417" lon="4.92446">
        <ele>297.1</ele>
        <time>2023-09-02T15:20:10Z</time>
      </trkpt>
      <trkpt lat="45.9342" lon="4.9245">
        <ele>297.1</ele>
        <time>2023-09-02T15:20:11Z</time>
      </trkpt>
      <trkpt lat="45.93421" lon="4.92451">
        <ele>297.1</ele>
        <time>2023-09-02T15:20:12Z</time>
      </trkpt>
      <trkpt lat="45.93423" lon="4.92454">
        <ele>297.2</ele>
        <time>2023-09-02T15:20:13Z</time>
      </trkpt>
      <trkpt lat="45.93426" lon="4.92457">
        <ele>297.2</ele>
        <time>2023-09-02T15:20:14Z</time>
      </trkpt>
      <trkpt lat="45.93428" lon="4.92459">
        <ele>297.2</ele>
        <time>2023-09-02T15:20:15Z</time>
      </trkpt>
      <trkpt lat="45.9343" lon="4.92462">
        <ele>297.2</ele>
        <time>2023-09-02T15:20:16Z</time>
      </trkpt>
      <trkpt lat="45.93432" lon="4.92465">
        <ele>297.2</ele>
        <time>2023-09-02T15:20:17Z</time>
      </trkpt>
      <trkpt lat="45.93434" lon="4.92468">
        <ele>297.3</ele>
        <time>2023-09-02T15:20:18Z</time>
      </trkpt>
      <trkpt lat="45.93436" lon="4.92471">
        <ele>297.3</ele>
        <time>2023-09-02T15:20:19Z</time>
      </trkpt>
      <trkpt lat="45.93438" lon="4.92474">
        <ele>297.3</ele>
        <time>2023-09-02T15:20:20Z</time>
      </trkpt>
      <trkpt lat="45.9344" lon="4.92476">
        <ele>297.3</ele>
        <time>2023-09-02T15:20:21Z</time>
      </trkpt>
      <trkpt lat="45.93442" lon="4.92479">
        <ele>297.3</ele>
        <time>2023-09-02T15:20:22Z</time>
      </trkpt>
      <trkpt lat="45.93444" lon="4.92483">
        <ele>297.3</ele>
        <time>2023-09-02T15:20:23Z</time>
      </trkpt>
      <trkpt lat="45.93447" lon="4.92488">
        <ele>297.4</ele>
        <time>2023-09-02T15:20:24Z</time>
      </trkpt>
      <trkpt lat="45.93448" lon="4.92489">
        <ele>297.4</ele>
        <time>2023-09-02T15:20:25Z</time>
      </trkpt>
      <trkpt lat="45.9345" lon="4.92493">
        <ele>297.4</ele>
        <time>2023-09-02T15:20:26Z</time>
      </trkpt>
      <trkpt lat="45.93452" lon="4.92496">
        <ele>297.4</ele>
        <time>2023-09-02T15:20:27Z</time>
      </trkpt>
      <trkpt lat="45.93454" lon="4.925">
        <ele>297.4</ele>
        <time>2023-09-02T15:20:28Z</time>
      </trkpt>
      <trkpt lat="45.93456" lon="4.92503">
        <ele>297.4</ele>
        <time>2023-09-02T15:20:29Z</time>
      </trkpt>
      <trkpt lat="45.93458" lon="4.92507">
        <ele>297.5</ele>
        <time>2023-09-02T15:20:30Z</time>
      </trkpt>
      <trkpt lat="45.9346" lon="4.9251">
        <ele>297.5</ele>
        <time>2023-09-02T15:20:31Z</time>
      </trkpt>
      <trkpt lat="45.93462" lon="4.92513">
        <ele>297.5</ele>
        <time>2023-09-02T15:20:32Z</time>
      </trkpt>
      <trkpt lat="45.93464" lon="4.92516">
        <ele>297.5</ele>
        <time>2023-09-02T15:20:33Z</time>
      </trkpt>
      <trkpt lat="45.93467" lon="4.92519">
        <ele>297.6</ele>
        <time>2023-09-02T15:20:34Z</time>
      </trkpt>
      <trkpt lat="45.93469" lon="4.92522">
        <ele>297.6</ele>
        <time>2023-09-02T15:20:35Z</time>
      </trkpt>
      <trkpt lat="45.93471" lon="4.92525">
        <ele>297.6</ele>
        <time>2023-09-02T15:20:36Z</time>
      </trkpt>
      <trkpt lat="45.93473" lon="4.92528">
        <ele>297.6</ele>
        <time>2023-09-02T15:20:37Z</time>
      </trkpt>
      <trkpt lat="45.93475" lon="4.92531">
        <ele>297.6</ele>
        <time>2023-09-02T15:20:38Z</time>
      </trkpt>
      <trkpt lat="45.93477" lon="4.92535">
        <ele>297.6</ele>
        <time>2023-09-02T15:20:39Z</time>
      </trkpt>
      <trkpt lat="45.93479" lon="4.92538">
        <ele>297.6</ele>
        <time>2023-09-02T15:20:40Z</time>
      </trkpt>
      <trkpt lat="45.93481" lon="4.92541">
        <ele>297.6</ele>
        <time>2023-09-02T15:20:41Z</time>
      </trkpt>
      <trkpt lat="45.93483" lon="4.92545">
        <ele>297.6</ele>
        <time>2023-09-02T15:20:42Z</time>
      </trkpt>
      <trkpt lat="45.93485" lon="4.92547">
        <ele>297.6</ele>
        <time>2023-09-02T15:20:43Z</time>
      </trkpt>
      <trkpt lat="45.93487" lon="4.92551">
        <ele>297.6</ele>
        <time>2023-09-02T15:20:44Z</time>
      </trkpt>
      <trkpt lat="45.93489" lon="4.92554">
        <ele>297.6</ele>
        <time>2023-09-02T15:20:45Z</time>
      </trkpt>
      <trkpt lat="45.93492" lon="4.92557">
        <ele>297.5</ele>
        <time>2023-09-02T15:20:46Z</time>
      </trkpt>
      <trkpt lat="45.93494" lon="4.9256">
        <ele>297.5</ele>
        <time>2023-09-02T15:20:47Z</time>
      </trkpt>
      <trkpt lat="45.93496" lon="4.92564">
        <ele>297.5</ele>
        <time>2023-09-02T15:20:48Z</time>
      </trkpt>
      <trkpt lat="45.93499" lon="4.92568">
        <ele>297.5</ele>
        <time>2023-09-02T15:20:49Z</time>
      </trkpt>
      <trkpt lat="45.935" lon="4.92569">
        <ele>297.5</ele>
        <time>2023-09-02T15:20:50Z</time>
      </trkpt>
      <trkpt lat="45.93502" lon="4.92572">
        <ele>297.5</ele>
        <time>2023-09-02T15:20:51Z</time>
      </trkpt>
      <trkpt lat="45.93504" lon="4.92576">
        <ele>297.5</ele>
        <time>2023-09-02T15:20:52Z</time>
      </trkpt>
      <trkpt lat="45.93506" lon="4.92579">
        <ele>297.5</ele>
        <time>2023-09-02T15:20:53Z</time>
      </trkpt>
      <trkpt lat="45.93508" lon="4.92582">
        <ele>297.5</ele>
        <time>2023-09-02T15:20:54Z</time>
      </trkpt>
      <trkpt lat="45.93511" lon="4.92586">
        <ele>297.5</ele>
        <time>2023-09-02T15:20:55Z</time>
      </trkpt>
      <trkpt lat="45.93512" lon="4.92588">
        <ele>297.5</ele>
        <time>2023-09-02T15:20:56Z</time>
      </trkpt>
      <trkpt lat="45.93514" lon="4.92591">
        <ele>297.5</ele>
        <time>2023-09-02T15:20:57Z</time>
      </trkpt>
      <trkpt lat="45.93517" lon="4.92594">
        <ele>297.4</ele>
        <time>2023-09-02T15:20:58Z</time>
      </trkpt>
      <trkpt lat="45.93519" lon="4.92597">
        <ele>297.4</ele>
        <time>2023-09-02T15:20:59Z</time>
      </trkpt>
      <trkpt lat="45.93521" lon="4.926">
        <ele>297.4</ele>
        <time>2023-09-02T15:21:00Z</time>
      </trkpt>
      <trkpt lat="45.93523" lon="4.92604">
        <ele>297.4</ele>
        <time>2023-09-02T15:21:01Z</time>
      </trkpt>
      <trkpt lat="45.93525" lon="4.92607">
        <ele>297.4</ele>
        <time>2023-09-02T15:21:02Z</time>
      </trkpt>
      <trkpt lat="45.93528" lon="4.9261">
        <ele>297.3</ele>
        <time>2023-09-02T15:21:03Z</time>
      </trkpt>
      <trkpt lat="45.9353" lon="4.92613">
        <ele>297.3</ele>
        <time>2023-09-02T15:21:04Z</time>
      </trkpt>
      <trkpt lat="45.93533" lon="4.92616">
        <ele>297.3</ele>
        <time>2023-09-02T15:21:05Z</time>
      </trkpt>
      <trkpt lat="45.93535" lon="4.92619">
        <ele>297.3</ele>
        <time>2023-09-02T15:21:06Z</time>
      </trkpt>
      <trkpt lat="45.93538" lon="4.92622">
        <ele>297.3</ele>
        <time>2023-09-02T15:21:07Z</time>
      </trkpt>
      <trkpt lat="45.9354" lon="4.92625">
        <ele>297.2</ele>
        <time>2023-09-02T15:21:08Z</time>
      </trkpt>
      <trkpt lat="45.93542" lon="4.92628">
        <ele>297.2</ele>
        <time>2023-09-02T15:21:09Z</time>
      </trkpt>
      <trkpt lat="45.93545" lon="4.92631">
        <ele>297.2</ele>
        <time>2023-09-02T15:21:10Z</time>
      </trkpt>
      <trkpt lat="45.93547" lon="4.92634">
        <ele>297.2</ele>
        <time>2023-09-02T15:21:11Z</time>
      </trkpt>
      <trkpt lat="45.93549" lon="4.92637">
        <ele>297.2</ele>
        <time>2023-09-02T15:21:12Z</time>
      </trkpt>
      <trkpt lat="45.93551" lon="4.9264">
        <ele>297.2</ele>
        <time>2023-09-02T15:21:13Z</time>
      </trkpt>
      <trkpt lat="45.93554" lon="4.92643">
        <ele>297.2</ele>
        <time>2023-09-02T15:21:14Z</time>
      </trkpt>
      <trkpt lat="45.93556" lon="4.92646">
        <ele>297.1</ele>
        <time>2023-09-02T15:21:15Z</time>
      </trkpt>
      <trkpt lat="45.93559" lon="4.92649">
        <ele>297.1</ele>
        <time>2023-09-02T15:21:16Z</time>
      </trkpt>
      <trkpt lat="45.93561" lon="4.92652">
        <ele>297.1</ele>
        <time>2023-09-02T15:21:17Z</time>
      </trkpt>
      <trkpt lat="45.93563" lon="4.92655">
        <ele>297.1</ele>
        <time>2023-09-02T15:21:18Z</time>
      </trkpt>
      <trkpt lat="45.93566" lon="4.92658">
        <ele>297.1</ele>
        <time>2023-09-02T15:21:19Z</time>
      </trkpt>
      <trkpt lat="45.93568" lon="4.92661">
        <ele>297.1</ele>
        <time>2023-09-02T15:21:20Z</time>
      </trkpt>
      <trkpt lat="45.93571" lon="4.92663">
        <ele>297.1</ele>
        <time>2023-09-02T15:21:21Z</time>
      </trkpt>
      <trkpt lat="45.93573" lon="4.92666">
        <ele>297.1</ele>
        <time>2023-09-02T15:21:22Z</time>
      </trkpt>
      <trkpt lat="45.93576" lon="4.92667">
        <ele>297.1</ele>
        <time>2023-09-02T15:21:23Z</time>
      </trkpt>
      <trkpt lat="45.93578" lon="4.92669">
        <ele>297.2</ele>
        <time>2023-09-02T15:21:24Z</time>
      </trkpt>
      <trkpt lat="45.93582" lon="4.92671">
        <ele>297.2</ele>
        <time>2023-09-02T15:21:25Z</time>
      </trkpt>
      <trkpt lat="45.93583" lon="4.92672">
        <ele>297.2</ele>
        <time>2023-09-02T15:21:26Z</time>
      </trkpt>
      <trkpt lat="45.93585" lon="4.92673">
        <ele>297.2</ele>
        <time>2023-09-02T15:21:27Z</time>
      </trkpt>
      <trkpt lat="45.93586" lon="4.92673">
        <ele>297.2</ele>
        <time>2023-09-02T15:21:28Z</time>
      </trkpt>
      <trkpt lat="45.93589" lon="4.92676">
        <ele>297.2</ele>
        <time>2023-09-02T15:21:29Z</time>
      </trkpt>
      <trkpt lat="45.93591" lon="4.92676">
        <ele>297.2</ele>
        <time>2023-09-02T15:21:30Z</time>
      </trkpt>
      <trkpt lat="45.93594" lon="4.92678">
        <ele>297.2</ele>
        <time>2023-09-02T15:21:31Z</time>
      </trkpt>
      <trkpt lat="45.93596" lon="4.9268">
        <ele>297.2</ele>
        <time>2023-09-02T15:21:32Z</time>
      </trkpt>
      <trkpt lat="45.93599" lon="4.92681">
        <ele>297.2</ele>
        <time>2023-09-02T15:21:33Z</time>
      </trkpt>
      <trkpt lat="45.93602" lon="4.92682">
        <ele>297.2</ele>
        <time>2023-09-02T15:21:34Z</time>
      </trkpt>
      <trkpt lat="45.93605" lon="4.92684">
        <ele>297.2</ele>
        <time>2023-09-02T15:21:35Z</time>
      </trkpt>
      <trkpt lat="45.93606" lon="4.92685">
        <ele>297.2</ele>
        <time>2023-09-02T15:21:36Z</time>
      </trkpt>
      <trkpt lat="45.93608" lon="4.92687">
        <ele>297.2</ele>
        <time>2023-09-02T15:21:37Z</time>
      </trkpt>
      <trkpt lat="45.93609" lon="4.92688">
        <ele>297.2</ele>
        <time>2023-09-02T15:21:38Z</time>
      </trkpt>
      <trkpt lat="45.9361" lon="4.92689">
        <ele>297.3</ele>
        <time>2023-09-02T15:21:39Z</time>
      </trkpt>
      <trkpt lat="45.93613" lon="4.92691">
        <ele>297.3</ele>
        <time>2023-09-02T15:21:40Z</time>
      </trkpt>
      <trkpt lat="45.93615" lon="4.92692">
        <ele>297.3</ele>
        <time>2023-09-02T15:21:41Z</time>
      </trkpt>
      <trkpt lat="45.93617" lon="4.92693">
        <ele>297.3</ele>
        <time>2023-09-02T15:21:42Z</time>
      </trkpt>
      <trkpt lat="45.93621" lon="4.92695">
        <ele>297.3</ele>
        <time>2023-09-02T15:21:43Z</time>
      </trkpt>
      <trkpt lat="45.93622" lon="4.92695">
        <ele>297.3</ele>
        <time>2023-09-02T15:21:44Z</time>
      </trkpt>
      <trkpt lat="45.93626" lon="4.92698">
        <ele>297.4</ele>
        <time>2023-09-02T15:21:45Z</time>
      </trkpt>
      <trkpt lat="45.93627" lon="4.92698">
        <ele>297.4</ele>
        <time>2023-09-02T15:21:46Z</time>
      </trkpt>
      <trkpt lat="45.93629" lon="4.927">
        <ele>297.4</ele>
        <time>2023-09-02T15:21:47Z</time>
      </trkpt>
      <trkpt lat="45.9363" lon="4.927">
        <ele>297.4</ele>
        <time>2023-09-02T15:21:48Z</time>
      </trkpt>
      <trkpt lat="45.93634" lon="4.92701">
        <ele>297.4</ele>
        <time>2023-09-02T15:21:49Z</time>
      </trkpt>
      <trkpt lat="45.93635" lon="4.92702">
        <ele>297.4</ele>
        <time>2023-09-02T15:21:50Z</time>
      </trkpt>
      <trkpt lat="45.93638" lon="4.92704">
        <ele>297.5</ele>
        <time>2023-09-02T15:21:51Z</time>
      </trkpt>
      <trkpt lat="45.93639" lon="4.92704">
        <ele>297.5</ele>
        <time>2023-09-02T15:21:52Z</time>
      </trkpt>
      <trkpt lat="45.93643" lon="4.92706">
        <ele>297.5</ele>
        <time>2023-09-02T15:21:53Z</time>
      </trkpt>
      <trkpt lat="45.93644" lon="4.92707">
        <ele>297.5</ele>
        <time>2023-09-02T15:21:54Z</time>
      </trkpt>
      <trkpt lat="45.93647" lon="4.92709">
        <ele>297.6</ele>
        <time>2023-09-02T15:21:55Z</time>
      </trkpt>
      <trkpt lat="45.93649" lon="4.9271">
        <ele>297.6</ele>
        <time>2023-09-02T15:21:56Z</time>
      </trkpt>
      <trkpt lat="45.93652" lon="4.92712">
        <ele>297.6</ele>
        <time>2023-09-02T15:21:57Z</time>
      </trkpt>
      <trkpt lat="45.93654" lon="4.92712">
        <ele>297.7</ele>
        <time>2023-09-02T15:21:58Z</time>
      </trkpt>
      <trkpt lat="45.93657" lon="4.92714">
        <ele>297.7</ele>
        <time>2023-09-02T15:21:59Z</time>
      </trkpt>
      <trkpt lat="45.93658" lon="4.92715">
        <ele>297.7</ele>
        <time>2023-09-02T15:22:00Z</time>
      </trkpt>
      <trkpt lat="45.93662" lon="4.92717">
        <ele>297.8</ele>
        <time>2023-09-02T15:22:01Z</time>
      </trkpt>
      <trkpt lat="45.93663" lon="4.92718">
        <ele>297.8</ele>
        <time>2023-09-02T15:22:02Z</time>
      </trkpt>
      <trkpt lat="45.93666" lon="4.9272">
        <ele>297.9</ele>
        <time>2023-09-02T15:22:03Z</time>
      </trkpt>
      <trkpt lat="45.93668" lon="4.92721">
        <ele>297.9</ele>
        <time>2023-09-02T15:22:04Z</time>
      </trkpt>
      <trkpt lat="45.93671" lon="4.92722">
        <ele>297.9</ele>
        <time>2023-09-02T15:22:05Z</time>
      </trkpt>
      <trkpt lat="45.93674" lon="4.92724">
        <ele>298</ele>
        <time>2023-09-02T15:22:06Z</time>
      </trkpt>
      <trkpt lat="45.93676" lon="4.92725">
        <ele>298</ele>
        <time>2023-09-02T15:22:07Z</time>
      </trkpt>
      <trkpt lat="45.93679" lon="4.92727">
        <ele>298.1</ele>
        <time>2023-09-02T15:22:08Z</time>
      </trkpt>
      <trkpt lat="45.93681" lon="4.92727">
        <ele>298.1</ele>
        <time>2023-09-02T15:22:09Z</time>
      </trkpt>
      <trkpt lat="45.93683" lon="4.92729">
        <ele>298.1</ele>
        <time>2023-09-02T15:22:10Z</time>
      </trkpt>
      <trkpt lat="45.93686" lon="4.9273">
        <ele>298.1</ele>
        <time>2023-09-02T15:22:11Z</time>
      </trkpt>
      <trkpt lat="45.9369" lon="4.92732">
        <ele>298.2</ele>
        <time>2023-09-02T15:22:12Z</time>
      </trkpt>
      <trkpt lat="45.93691" lon="4.92733">
        <ele>298.2</ele>
        <time>2023-09-02T15:22:13Z</time>
      </trkpt>
      <trkpt lat="45.93694" lon="4.92735">
        <ele>298.2</ele>
        <time>2023-09-02T15:22:14Z</time>
      </trkpt>
      <trkpt lat="45.93698" lon="4.92737">
        <ele>298.2</ele>
        <time>2023-09-02T15:22:15Z</time>
      </trkpt>
      <trkpt lat="45.93699" lon="4.92738">
        <ele>298.2</ele>
        <time>2023-09-02T15:22:16Z</time>
      </trkpt>
      <trkpt lat="45.93702" lon="4.92739">
        <ele>298.2</ele>
        <time>2023-09-02T15:22:17Z</time>
      </trkpt>
      <trkpt lat="45.93704" lon="4.9274">
        <ele>298.2</ele>
        <time>2023-09-02T15:22:18Z</time>
      </trkpt>
      <trkpt lat="45.93707" lon="4.92742">
        <ele>298.1</ele>
        <time>2023-09-02T15:22:19Z</time>
      </trkpt>
      <trkpt lat="45.93708" lon="4.92742">
        <ele>298.1</ele>
        <time>2023-09-02T15:22:20Z</time>
      </trkpt>
      <trkpt lat="45.93711" lon="4.92744">
        <ele>298.1</ele>
        <time>2023-09-02T15:22:21Z</time>
      </trkpt>
      <trkpt lat="45.93712" lon="4.92745">
        <ele>298.1</ele>
        <time>2023-09-02T15:22:22Z</time>
      </trkpt>
      <trkpt lat="45.93716" lon="4.92746">
        <ele>298</ele>
        <time>2023-09-02T15:22:23Z</time>
      </trkpt>
      <trkpt lat="45.93717" lon="4.92747">
        <ele>298</ele>
        <time>2023-09-02T15:22:24Z</time>
      </trkpt>
      <trkpt lat="45.93721" lon="4.92748">
        <ele>297.9</ele>
        <time>2023-09-02T15:22:25Z</time>
      </trkpt>
      <trkpt lat="45.93722" lon="4.92749">
        <ele>297.9</ele>
        <time>2023-09-02T15:22:26Z</time>
      </trkpt>
      <trkpt lat="45.93726" lon="4.92751">
        <ele>297.9</ele>
        <time>2023-09-02T15:22:27Z</time>
      </trkpt>
      <trkpt lat="45.93727" lon="4.92751">
        <ele>297.8</ele>
        <time>2023-09-02T15:22:28Z</time>
      </trkpt>
      <trkpt lat="45.93731" lon="4.92753">
        <ele>297.8</ele>
        <time>2023-09-02T15:22:29Z</time>
      </trkpt>
      <trkpt lat="45.93733" lon="4.92754">
        <ele>297.7</ele>
        <time>2023-09-02T15:22:30Z</time>
      </trkpt>
      <trkpt lat="45.93736" lon="4.92755">
        <ele>297.7</ele>
        <time>2023-09-02T15:22:31Z</time>
      </trkpt>
      <trkpt lat="45.93739" lon="4.92757">
        <ele>297.6</ele>
        <time>2023-09-02T15:22:32Z</time>
      </trkpt>
      <trkpt lat="45.93742" lon="4.92759">
        <ele>297.5</ele>
        <time>2023-09-02T15:22:33Z</time>
      </trkpt>
      <trkpt lat="45.93745" lon="4.9276">
        <ele>297.5</ele>
        <time>2023-09-02T15:22:34Z</time>
      </trkpt>
      <trkpt lat="45.93748" lon="4.92762">
        <ele>297.4</ele>
        <time>2023-09-02T15:22:35Z</time>
      </trkpt>
      <trkpt lat="45.93751" lon="4.92763">
        <ele>297.4</ele>
        <time>2023-09-02T15:22:36Z</time>
      </trkpt>
      <trkpt lat="45.93754" lon="4.92765">
        <ele>297.4</ele>
        <time>2023-09-02T15:22:37Z</time>
      </trkpt>
      <trkpt lat="45.93757" lon="4.92767">
        <ele>297.3</ele>
        <time>2023-09-02T15:22:38Z</time>
      </trkpt>
      <trkpt lat="45.9376" lon="4.92768">
        <ele>297.3</ele>
        <time>2023-09-02T15:22:39Z</time>
      </trkpt>
      <trkpt lat="45.93763" lon="4.9277">
        <ele>297.2</ele>
        <time>2023-09-02T15:22:40Z</time>
      </trkpt>
      <trkpt lat="45.93766" lon="4.92772">
        <ele>297.2</ele>
        <time>2023-09-02T15:22:41Z</time>
      </trkpt>
      <trkpt lat="45.9377" lon="4.92774">
        <ele>297.1</ele>
        <time>2023-09-02T15:22:42Z</time>
      </trkpt>
      <trkpt lat="45.93773" lon="4.92776">
        <ele>297.1</ele>
        <time>2023-09-02T15:22:43Z</time>
      </trkpt>
      <trkpt lat="45.93776" lon="4.92778">
        <ele>297</ele>
        <time>2023-09-02T15:22:44Z</time>
      </trkpt>
      <trkpt lat="45.9378" lon="4.9278">
        <ele>297</ele>
        <time>2023-09-02T15:22:45Z</time>
      </trkpt>
      <trkpt lat="45.93783" lon="4.92782">
        <ele>296.9</ele>
        <time>2023-09-02T15:22:46Z</time>
      </trkpt>
      <trkpt lat="45.93787" lon="4.92785">
        <ele>296.9</ele>
        <time>2023-09-02T15:22:47Z</time>
      </trkpt>
      <trkpt lat="45.9379" lon="4.92787">
        <ele>296.8</ele>
        <time>2023-09-02T15:22:48Z</time>
      </trkpt>
      <trkpt lat="45.93794" lon="4.92789">
        <ele>296.8</ele>
        <time>2023-09-02T15:22:49Z</time>
      </trkpt>
      <trkpt lat="45.93797" lon="4.92791">
        <ele>296.8</ele>
        <time>2023-09-02T15:22:50Z</time>
      </trkpt>
      <trkpt lat="45.938" lon="4.92793">
        <ele>296.7</ele>
        <time>2023-09-02T15:22:51Z</time>
      </trkpt>
      <trkpt lat="45.93804" lon="4.92795">
        <ele>296.7</ele>
        <time>2023-09-02T15:22:52Z</time>
      </trkpt>
      <trkpt lat="45.93807" lon="4.92797">
        <ele>296.6</ele>
        <time>2023-09-02T15:22:53Z</time>
      </trkpt>
      <trkpt lat="45.9381" lon="4.92799">
        <ele>296.6</ele>
        <time>2023-09-02T15:22:54Z</time>
      </trkpt>
      <trkpt lat="45.93812" lon="4.92801">
        <ele>296.6</ele>
        <time>2023-09-02T15:22:55Z</time>
      </trkpt>
      <trkpt lat="45.93816" lon="4.92803">
        <ele>296.5</ele>
        <time>2023-09-02T15:22:56Z</time>
      </trkpt>
      <trkpt lat="45.93819" lon="4.92805">
        <ele>296.5</ele>
        <time>2023-09-02T15:22:57Z</time>
      </trkpt>
      <trkpt lat="45.93822" lon="4.92808">
        <ele>296.4</ele>
        <time>2023-09-02T15:22:58Z</time>
      </trkpt>
      <trkpt lat="45.93825" lon="4.92811">
        <ele>296.3</ele>
        <time>2023-09-02T15:22:59Z</time>
      </trkpt>
      <trkpt lat="45.93828" lon="4.92813">
        <ele>296.3</ele>
        <time>2023-09-02T15:23:00Z</time>
      </trkpt>
      <trkpt lat="45.93831" lon="4.92816">
        <ele>296.2</ele>
        <time>2023-09-02T15:23:01Z</time>
      </trkpt>
      <trkpt lat="45.93833" lon="4.92817">
        <ele>296.2</ele>
        <time>2023-09-02T15:23:02Z</time>
      </trkpt>
      <trkpt lat="45.93833" lon="4.92818">
        <ele>296.2</ele>
        <time>2023-09-02T15:23:03Z</time>
      </trkpt>
      <trkpt lat="45.93832" lon="4.92817">
        <ele>296.2</ele>
        <time>2023-09-02T15:23:04Z</time>
      </trkpt>
      <trkpt lat="45.93832" lon="4.92817">
        <ele>296.2</ele>
        <time>2023-09-02T15:23:05Z</time>
      </trkpt>
      <trkpt lat="45.93832" lon="4.92817">
        <ele>296.2</ele>
        <time>2023-09-02T15:23:06Z</time>
      </trkpt>
      <trkpt lat="45.93832" lon="4.92817">
        <ele>296.2</ele>
        <time>2023-09-02T15:23:07Z</time>
      </trkpt>
      <trkpt lat="45.93832" lon="4.92817">
        <ele>296.2</ele>
        <time>2023-09-02T15:23:08Z</time>
      </trkpt>
      <trkpt lat="45.93832" lon="4.92817">
        <ele>296.2</ele>
        <time>2023-09-02T15:23:09Z</time>
      </trkpt>
      <trkpt lat="45.93832" lon="4.92817">
        <ele>296.2</ele>
        <time>2023-09-02T15:23:10Z</time>
      </trkpt>
      <trkpt lat="45.93832" lon="4.92817">
        <ele>296.2</ele>
        <time>2023-09-02T15:23:11Z</time>
      </trkpt>
      <trkpt lat="45.93832" lon="4.92817">
        <ele>296.2</ele>
        <time>2023-09-02T15:23:12Z</time>
      </trkpt>
      <trkpt lat="45.93834" lon="4.92818">
        <ele>296.1</ele>
        <time>2023-09-02T15:24:25Z</time>
      </trkpt>
      <trkpt lat="45.93835" lon="4.92819">
        <ele>296.1</ele>
        <time>2023-09-02T15:24:26Z</time>
      </trkpt>
      <trkpt lat="45.93837" lon="4.9282">
        <ele>296.1</ele>
        <time>2023-09-02T15:24:27Z</time>
      </trkpt>
      <trkpt lat="45.9384" lon="4.92822">
        <ele>296.1</ele>
        <time>2023-09-02T15:24:28Z</time>
      </trkpt>
      <trkpt lat="45.93842" lon="4.92823">
        <ele>296</ele>
        <time>2023-09-02T15:24:29Z</time>
      </trkpt>
      <trkpt lat="45.93845" lon="4.92825">
        <ele>296</ele>
        <time>2023-09-02T15:24:30Z</time>
      </trkpt>
      <trkpt lat="45.93848" lon="4.92827">
        <ele>296</ele>
        <time>2023-09-02T15:24:31Z</time>
      </trkpt>
      <trkpt lat="45.93851" lon="4.92829">
        <ele>295.9</ele>
        <time>2023-09-02T15:24:32Z</time>
      </trkpt>
      <trkpt lat="45.93854" lon="4.9283">
        <ele>295.9</ele>
        <time>2023-09-02T15:24:33Z</time>
      </trkpt>
      <trkpt lat="45.93857" lon="4.92832">
        <ele>295.8</ele>
        <time>2023-09-02T15:24:34Z</time>
      </trkpt>
      <trkpt lat="45.9386" lon="4.92834">
        <ele>295.8</ele>
        <time>2023-09-02T15:24:35Z</time>
      </trkpt>
      <trkpt lat="45.93863" lon="4.92835">
        <ele>295.8</ele>
        <time>2023-09-02T15:24:36Z</time>
      </trkpt>
      <trkpt lat="45.93866" lon="4.92837">
        <ele>295.7</ele>
        <time>2023-09-02T15:24:37Z</time>
      </trkpt>
      <trkpt lat="45.93868" lon="4.92838">
        <ele>295.7</ele>
        <time>2023-09-02T15:24:38Z</time>
      </trkpt>
      <trkpt lat="45.9387" lon="4.9284">
        <ele>295.7</ele>
        <time>2023-09-02T15:24:39Z</time>
      </trkpt>
      <trkpt lat="45.93874" lon="4.92842">
        <ele>295.6</ele>
        <time>2023-09-02T15:24:40Z</time>
      </trkpt>
      <trkpt lat="45.93875" lon="4.92842">
        <ele>295.6</ele>
        <time>2023-09-02T15:24:41Z</time>
      </trkpt>
      <trkpt lat="45.93878" lon="4.92844">
        <ele>295.6</ele>
        <time>2023-09-02T15:24:42Z</time>
      </trkpt>
      <trkpt lat="45.93881" lon="4.92846">
        <ele>295.5</ele>
        <time>2023-09-02T15:24:43Z</time>
      </trkpt>
      <trkpt lat="45.93882" lon="4.92847">
        <ele>295.5</ele>
        <time>2023-09-02T15:24:44Z</time>
      </trkpt>
      <trkpt lat="45.93886" lon="4.92848">
        <ele>295.4</ele>
        <time>2023-09-02T15:24:45Z</time>
      </trkpt>
      <trkpt lat="45.93887" lon="4.92848">
        <ele>295.4</ele>
        <time>2023-09-02T15:24:46Z</time>
      </trkpt>
      <trkpt lat="45.9389" lon="4.9285">
        <ele>295.4</ele>
        <time>2023-09-02T15:24:47Z</time>
      </trkpt>
      <trkpt lat="45.93893" lon="4.92851">
        <ele>295.4</ele>
        <time>2023-09-02T15:24:48Z</time>
      </trkpt>
      <trkpt lat="45.93895" lon="4.92853">
        <ele>295.3</ele>
        <time>2023-09-02T15:24:49Z</time>
      </trkpt>
      <trkpt lat="45.93898" lon="4.92855">
        <ele>295.3</ele>
        <time>2023-09-02T15:24:50Z</time>
      </trkpt>
      <trkpt lat="45.93901" lon="4.92856">
        <ele>295.2</ele>
        <time>2023-09-02T15:24:51Z</time>
      </trkpt>
      <trkpt lat="45.93904" lon="4.92858">
        <ele>295.2</ele>
        <time>2023-09-02T15:24:52Z</time>
      </trkpt>
      <trkpt lat="45.93907" lon="4.9286">
        <ele>295.2</ele>
        <time>2023-09-02T15:24:53Z</time>
      </trkpt>
      <trkpt lat="45.9391" lon="4.92862">
        <ele>295.2</ele>
        <time>2023-09-02T15:24:54Z</time>
      </trkpt>
      <trkpt lat="45.93913" lon="4.92864">
        <ele>295.2</ele>
        <time>2023-09-02T15:24:55Z</time>
      </trkpt>
      <trkpt lat="45.93916" lon="4.92866">
        <ele>295.2</ele>
        <time>2023-09-02T15:24:56Z</time>
      </trkpt>
      <trkpt lat="45.93919" lon="4.92867">
        <ele>295.2</ele>
        <time>2023-09-02T15:24:57Z</time>
      </trkpt>
      <trkpt lat="45.93922" lon="4.92869">
        <ele>295.2</ele>
        <time>2023-09-02T15:24:58Z</time>
      </trkpt>
      <trkpt lat="45.93925" lon="4.92871">
        <ele>295.1</ele>
        <time>2023-09-02T15:24:59Z</time>
      </trkpt>
      <trkpt lat="45.93928" lon="4.92873">
        <ele>295.1</ele>
        <time>2023-09-02T15:25:00Z</time>
      </trkpt>
      <trkpt lat="45.93931" lon="4.92875">
        <ele>295.1</ele>
        <time>2023-09-02T15:25:01Z</time>
      </trkpt>
      <trkpt lat="45.93934" lon="4.92877">
        <ele>295.1</ele>
        <time>2023-09-02T15:25:02Z</time>
      </trkpt>
      <trkpt lat="45.93937" lon="4.92879">
        <ele>295.1</ele>
        <time>2023-09-02T15:25:03Z</time>
      </trkpt>
      <trkpt lat="45.9394" lon="4.92881">
        <ele>295.1</ele>
        <time>2023-09-02T15:25:04Z</time>
      </trkpt>
      <trkpt lat="45.93943" lon="4.92883">
        <ele>295.1</ele>
        <time>2023-09-02T15:25:05Z</time>
      </trkpt>
      <trkpt lat="45.93946" lon="4.92885">
        <ele>295</ele>
        <time>2023-09-02T15:25:06Z</time>
      </trkpt>
      <trkpt lat="45.93949" lon="4.92887">
        <ele>295</ele>
        <time>2023-09-02T15:25:07Z</time>
      </trkpt>
      <trkpt lat="45.93952" lon="4.92889">
        <ele>295</ele>
        <time>2023-09-02T15:25:08Z</time>
      </trkpt>
      <trkpt lat="45.93955" lon="4.9289">
        <ele>295</ele>
        <time>2023-09-02T15:25:09Z</time>
      </trkpt>
      <trkpt lat="45.93958" lon="4.92892">
        <ele>295</ele>
        <time>2023-09-02T15:25:10Z</time>
      </trkpt>
      <trkpt lat="45.93961" lon="4.92894">
        <ele>295</ele>
        <time>2023-09-02T15:25:11Z</time>
      </trkpt>
      <trkpt lat="45.93963" lon="4.92896">
        <ele>294.9</ele>
        <time>2023-09-02T15:25:12Z</time>
      </trkpt>
      <trkpt lat="45.93966" lon="4.92898">
        <ele>294.9</ele>
        <time>2023-09-02T15:25:13Z</time>
      </trkpt>
      <trkpt lat="45.93969" lon="4.929">
        <ele>294.9</ele>
        <time>2023-09-02T15:25:14Z</time>
      </trkpt>
      <trkpt lat="45.93973" lon="4.92902">
        <ele>294.9</ele>
        <time>2023-09-02T15:25:15Z</time>
      </trkpt>
      <trkpt lat="45.93976" lon="4.92904">
        <ele>294.9</ele>
        <time>2023-09-02T15:25:16Z</time>
      </trkpt>
      <trkpt lat="45.93979" lon="4.92906">
        <ele>294.9</ele>
        <time>2023-09-02T15:25:17Z</time>
      </trkpt>
      <trkpt lat="45.93982" lon="4.92908">
        <ele>294.8</ele>
        <time>2023-09-02T15:25:18Z</time>
      </trkpt>
      <trkpt lat="45.93985" lon="4.9291">
        <ele>294.8</ele>
        <time>2023-09-02T15:25:19Z</time>
      </trkpt>
      <trkpt lat="45.93988" lon="4.92911">
        <ele>294.8</ele>
        <time>2023-09-02T15:25:20Z</time>
      </trkpt>
      <trkpt lat="45.93991" lon="4.92913">
        <ele>294.8</ele>
        <time>2023-09-02T15:25:21Z</time>
      </trkpt>
      <trkpt lat="45.93994" lon="4.92914">
        <ele>294.8</ele>
        <time>2023-09-02T15:25:22Z</time>
      </trkpt>
      <trkpt lat="45.93997" lon="4.92915">
        <ele>294.8</ele>
        <time>2023-09-02T15:25:23Z</time>
      </trkpt>
      <trkpt lat="45.94001" lon="4.92916">
        <ele>294.8</ele>
        <time>2023-09-02T15:25:24Z</time>
      </trkpt>
      <trkpt lat="45.94002" lon="4.92917">
        <ele>294.8</ele>
        <time>2023-09-02T15:25:25Z</time>
      </trkpt>
      <trkpt lat="45.94006" lon="4.92918">
        <ele>294.8</ele>
        <time>2023-09-02T15:25:26Z</time>
      </trkpt>
      <trkpt lat="45.94007" lon="4.92919">
        <ele>294.8</ele>
        <time>2023-09-02T15:25:27Z</time>
      </trkpt>
      <trkpt lat="45.94011" lon="4.9292">
        <ele>294.8</ele>
        <time>2023-09-02T15:25:28Z</time>
      </trkpt>
      <trkpt lat="45.94012" lon="4.9292">
        <ele>294.8</ele>
        <time>2023-09-02T15:25:29Z</time>
      </trkpt>
      <trkpt lat="45.94016" lon="4.92922">
        <ele>294.8</ele>
        <time>2023-09-02T15:25:30Z</time>
      </trkpt>
      <trkpt lat="45.94017" lon="4.92922">
        <ele>294.8</ele>
        <time>2023-09-02T15:25:31Z</time>
      </trkpt>
      <trkpt lat="45.9402" lon="4.92923">
        <ele>294.8</ele>
        <time>2023-09-02T15:25:32Z</time>
      </trkpt>
      <trkpt lat="45.94023" lon="4.92924">
        <ele>294.7</ele>
        <time>2023-09-02T15:25:33Z</time>
      </trkpt>
      <trkpt lat="45.94026" lon="4.92924">
        <ele>294.7</ele>
        <time>2023-09-02T15:25:34Z</time>
      </trkpt>
      <trkpt lat="45.94029" lon="4.92924">
        <ele>294.7</ele>
        <time>2023-09-02T15:25:35Z</time>
      </trkpt>
      <trkpt lat="45.94032" lon="4.92925">
        <ele>294.7</ele>
        <time>2023-09-02T15:25:36Z</time>
      </trkpt>
      <trkpt lat="45.94034" lon="4.92926">
        <ele>294.7</ele>
        <time>2023-09-02T15:25:37Z</time>
      </trkpt>
      <trkpt lat="45.94037" lon="4.92926">
        <ele>294.6</ele>
        <time>2023-09-02T15:25:38Z</time>
      </trkpt>
      <trkpt lat="45.9404" lon="4.92927">
        <ele>294.6</ele>
        <time>2023-09-02T15:25:39Z</time>
      </trkpt>
      <trkpt lat="45.94043" lon="4.92927">
        <ele>294.6</ele>
        <time>2023-09-02T15:25:40Z</time>
      </trkpt>
      <trkpt lat="45.94047" lon="4.92928">
        <ele>294.6</ele>
        <time>2023-09-02T15:25:41Z</time>
      </trkpt>
      <trkpt lat="45.94049" lon="4.92928">
        <ele>294.5</ele>
        <time>2023-09-02T15:25:42Z</time>
      </trkpt>
      <trkpt lat="45.94052" lon="4.92929">
        <ele>294.5</ele>
        <time>2023-09-02T15:25:43Z</time>
      </trkpt>
      <trkpt lat="45.94053" lon="4.92929">
        <ele>294.5</ele>
        <time>2023-09-02T15:25:44Z</time>
      </trkpt>
      <trkpt lat="45.94057" lon="4.9293">
        <ele>294.5</ele>
        <time>2023-09-02T15:25:45Z</time>
      </trkpt>
      <trkpt lat="45.94058" lon="4.9293">
        <ele>294.5</ele>
        <time>2023-09-02T15:25:46Z</time>
      </trkpt>
      <trkpt lat="45.94061" lon="4.92931">
        <ele>294.5</ele>
        <time>2023-09-02T15:25:47Z</time>
      </trkpt>
      <trkpt lat="45.94065" lon="4.92932">
        <ele>294.5</ele>
        <time>2023-09-02T15:25:48Z</time>
      </trkpt>
      <trkpt lat="45.94066" lon="4.92933">
        <ele>294.5</ele>
        <time>2023-09-02T15:25:49Z</time>
      </trkpt>
      <trkpt lat="45.94069" lon="4.92934">
        <ele>294.5</ele>
        <time>2023-09-02T15:25:50Z</time>
      </trkpt>
      <trkpt lat="45.9407" lon="4.92934">
        <ele>294.5</ele>
        <time>2023-09-02T15:25:51Z</time>
      </trkpt>
      <trkpt lat="45.94073" lon="4.92936">
        <ele>294.5</ele>
        <time>2023-09-02T15:25:52Z</time>
      </trkpt>
      <trkpt lat="45.94074" lon="4.92937">
        <ele>294.5</ele>
        <time>2023-09-02T15:25:53Z</time>
      </trkpt>
      <trkpt lat="45.94075" lon="4.92937">
        <ele>294.5</ele>
        <time>2023-09-02T15:25:54Z</time>
      </trkpt>
      <trkpt lat="45.94077" lon="4.92937">
        <ele>294.5</ele>
        <time>2023-09-02T15:25:55Z</time>
      </trkpt>
      <trkpt lat="45.94079" lon="4.92937">
        <ele>294.5</ele>
        <time>2023-09-02T15:25:56Z</time>
      </trkpt>
      <trkpt lat="45.9408" lon="4.92938">
        <ele>294.5</ele>
        <time>2023-09-02T15:25:57Z</time>
      </trkpt>
      <trkpt lat="45.94082" lon="4.92939">
        <ele>294.5</ele>
        <time>2023-09-02T15:25:58Z</time>
      </trkpt>
      <trkpt lat="45.94083" lon="4.92939">
        <ele>294.5</ele>
        <time>2023-09-02T15:25:59Z</time>
      </trkpt>
      <trkpt lat="45.94084" lon="4.9294">
        <ele>294.5</ele>
        <time>2023-09-02T15:26:00Z</time>
      </trkpt>
      <trkpt lat="45.94085" lon="4.9294">
        <ele>294.5</ele>
        <time>2023-09-02T15:26:01Z</time>
      </trkpt>
      <trkpt lat="45.94087" lon="4.92941">
        <ele>294.5</ele>
        <time>2023-09-02T15:26:02Z</time>
      </trkpt>
      <trkpt lat="45.94088" lon="4.92942">
        <ele>294.5</ele>
        <time>2023-09-02T15:26:03Z</time>
      </trkpt>
      <trkpt lat="45.9409" lon="4.92942">
        <ele>294.5</ele>
        <time>2023-09-02T15:26:04Z</time>
      </trkpt>
      <trkpt lat="45.94091" lon="4.92943">
        <ele>294.5</ele>
        <time>2023-09-02T15:26:05Z</time>
      </trkpt>
      <trkpt lat="45.94094" lon="4.92944">
        <ele>294.5</ele>
        <time>2023-09-02T15:26:06Z</time>
      </trkpt>
      <trkpt lat="45.94095" lon="4.92945">
        <ele>294.5</ele>
        <time>2023-09-02T15:26:07Z</time>
      </trkpt>
      <trkpt lat="45.94096" lon="4.92946">
        <ele>294.5</ele>
        <time>2023-09-02T15:26:08Z</time>
      </trkpt>
      <trkpt lat="45.94097" lon="4.92946">
        <ele>294.5</ele>
        <time>2023-09-02T15:26:09Z</time>
      </trkpt>
      <trkpt lat="45.94099" lon="4.92947">
        <ele>294.5</ele>
        <time>2023-09-02T15:26:10Z</time>
      </trkpt>
      <trkpt lat="45.941" lon="4.92949">
        <ele>294.5</ele>
        <time>2023-09-02T15:26:11Z</time>
      </trkpt>
      <trkpt lat="45.94102" lon="4.92949">
        <ele>294.5</ele>
        <time>2023-09-02T15:26:12Z</time>
      </trkpt>
      <trkpt lat="45.94104" lon="4.9295">
        <ele>294.5</ele>
        <time>2023-09-02T15:26:13Z</time>
      </trkpt>
      <trkpt lat="45.94105" lon="4.92952">
        <ele>294.5</ele>
        <time>2023-09-02T15:26:14Z</time>
      </trkpt>
      <trkpt lat="45.94106" lon="4.92953">
        <ele>294.5</ele>
        <time>2023-09-02T15:26:15Z</time>
      </trkpt>
      <trkpt lat="45.94109" lon="4.92955">
        <ele>294.5</ele>
        <time>2023-09-02T15:26:16Z</time>
      </trkpt>
      <trkpt lat="45.94109" lon="4.92955">
        <ele>294.5</ele>
        <time>2023-09-02T15:26:17Z</time>
      </trkpt>
      <trkpt lat="45.94111" lon="4.92957">
        <ele>294.5</ele>
        <time>2023-09-02T15:26:18Z</time>
      </trkpt>
      <trkpt lat="45.94112" lon="4.92957">
        <ele>294.5</ele>
        <time>2023-09-02T15:26:19Z</time>
      </trkpt>
      <trkpt lat="45.94115" lon="4.92959">
        <ele>294.5</ele>
        <time>2023-09-02T15:26:20Z</time>
      </trkpt>
      <trkpt lat="45.94116" lon="4.92959">
        <ele>294.5</ele>
        <time>2023-09-02T15:26:21Z</time>
      </trkpt>
      <trkpt lat="45.94118" lon="4.9296">
        <ele>294.5</ele>
        <time>2023-09-02T15:26:22Z</time>
      </trkpt>
      <trkpt lat="45.94119" lon="4.92961">
        <ele>294.5</ele>
        <time>2023-09-02T15:26:23Z</time>
      </trkpt>
      <trkpt lat="45.9412" lon="4.92962">
        <ele>294.5</ele>
        <time>2023-09-02T15:26:24Z</time>
      </trkpt>
      <trkpt lat="45.94121" lon="4.92963">
        <ele>294.5</ele>
        <time>2023-09-02T15:26:25Z</time>
      </trkpt>
      <trkpt lat="45.94122" lon="4.92964">
        <ele>294.4</ele>
        <time>2023-09-02T15:26:26Z</time>
      </trkpt>
      <trkpt lat="45.94123" lon="4.92965">
        <ele>294.4</ele>
        <time>2023-09-02T15:26:27Z</time>
      </trkpt>
      <trkpt lat="45.94124" lon="4.92966">
        <ele>294.4</ele>
        <time>2023-09-02T15:26:28Z</time>
      </trkpt>
      <trkpt lat="45.94125" lon="4.92967">
        <ele>294.4</ele>
        <time>2023-09-02T15:26:29Z</time>
      </trkpt>
      <trkpt lat="45.94125" lon="4.92968">
        <ele>294.4</ele>
        <time>2023-09-02T15:26:30Z</time>
      </trkpt>
      <trkpt lat="45.94127" lon="4.92968">
        <ele>294.4</ele>
        <time>2023-09-02T15:26:31Z</time>
      </trkpt>
      <trkpt lat="45.94128" lon="4.92969">
        <ele>294.4</ele>
        <time>2023-09-02T15:26:32Z</time>
      </trkpt>
      <trkpt lat="45.9413" lon="4.92969">
        <ele>294.4</ele>
        <time>2023-09-02T15:26:33Z</time>
      </trkpt>
      <trkpt lat="45.94133" lon="4.92972">
        <ele>294.4</ele>
        <time>2023-09-02T15:26:34Z</time>
      </trkpt>
      <trkpt lat="45.94134" lon="4.92972">
        <ele>294.4</ele>
        <time>2023-09-02T15:26:35Z</time>
      </trkpt>
      <trkpt lat="45.94137" lon="4.92975">
        <ele>294.3</ele>
        <time>2023-09-02T15:26:36Z</time>
      </trkpt>
      <trkpt lat="45.94139" lon="4.92976">
        <ele>294.3</ele>
        <time>2023-09-02T15:26:37Z</time>
      </trkpt>
      <trkpt lat="45.94143" lon="4.92976">
        <ele>294.3</ele>
        <time>2023-09-02T15:26:38Z</time>
      </trkpt>
      <trkpt lat="45.94144" lon="4.92976">
        <ele>294.3</ele>
        <time>2023-09-02T15:26:39Z</time>
      </trkpt>
      <trkpt lat="45.94148" lon="4.92978">
        <ele>294.3</ele>
        <time>2023-09-02T15:26:40Z</time>
      </trkpt>
      <trkpt lat="45.94149" lon="4.92978">
        <ele>294.3</ele>
        <time>2023-09-02T15:26:41Z</time>
      </trkpt>
      <trkpt lat="45.94151" lon="4.9298">
        <ele>294.3</ele>
        <time>2023-09-02T15:26:42Z</time>
      </trkpt>
      <trkpt lat="45.94155" lon="4.92982">
        <ele>294.3</ele>
        <time>2023-09-02T15:26:43Z</time>
      </trkpt>
      <trkpt lat="45.94156" lon="4.92983">
        <ele>294.3</ele>
        <time>2023-09-02T15:26:44Z</time>
      </trkpt>
      <trkpt lat="45.94159" lon="4.92984">
        <ele>294.3</ele>
        <time>2023-09-02T15:26:45Z</time>
      </trkpt>
      <trkpt lat="45.94162" lon="4.92986">
        <ele>294.3</ele>
        <time>2023-09-02T15:26:46Z</time>
      </trkpt>
      <trkpt lat="45.94165" lon="4.92988">
        <ele>294.3</ele>
        <time>2023-09-02T15:26:47Z</time>
      </trkpt>
      <trkpt lat="45.94167" lon="4.92989">
        <ele>294.3</ele>
        <time>2023-09-02T15:26:48Z</time>
      </trkpt>
      <trkpt lat="45.9417" lon="4.92989">
        <ele>294.3</ele>
        <time>2023-09-02T15:26:49Z</time>
      </trkpt>
      <trkpt lat="45.94174" lon="4.92991">
        <ele>294.3</ele>
        <time>2023-09-02T15:26:50Z</time>
      </trkpt>
      <trkpt lat="45.94176" lon="4.92992">
        <ele>294.3</ele>
        <time>2023-09-02T15:26:51Z</time>
      </trkpt>
      <trkpt lat="45.9418" lon="4.92994">
        <ele>294.3</ele>
        <time>2023-09-02T15:26:52Z</time>
      </trkpt>
      <trkpt lat="45.94182" lon="4.92994">
        <ele>294.3</ele>
        <time>2023-09-02T15:26:53Z</time>
      </trkpt>
      <trkpt lat="45.94185" lon="4.92994">
        <ele>294.4</ele>
        <time>2023-09-02T15:26:54Z</time>
      </trkpt>
      <trkpt lat="45.94188" lon="4.92995">
        <ele>294.4</ele>
        <time>2023-09-02T15:26:55Z</time>
      </trkpt>
      <trkpt lat="45.94192" lon="4.92997">
        <ele>294.4</ele>
        <time>2023-09-02T15:26:56Z</time>
      </trkpt>
      <trkpt lat="45.94195" lon="4.92998">
        <ele>294.4</ele>
        <time>2023-09-02T15:26:57Z</time>
      </trkpt>
      <trkpt lat="45.94197" lon="4.93">
        <ele>294.5</ele>
        <time>2023-09-02T15:26:58Z</time>
      </trkpt>
      <trkpt lat="45.94201" lon="4.93001">
        <ele>294.5</ele>
        <time>2023-09-02T15:26:59Z</time>
      </trkpt>
      <trkpt lat="45.94204" lon="4.93003">
        <ele>294.6</ele>
        <time>2023-09-02T15:27:00Z</time>
      </trkpt>
      <trkpt lat="45.94205" lon="4.93004">
        <ele>294.6</ele>
        <time>2023-09-02T15:27:01Z</time>
      </trkpt>
      <trkpt lat="45.94209" lon="4.93006">
        <ele>294.6</ele>
        <time>2023-09-02T15:27:02Z</time>
      </trkpt>
      <trkpt lat="45.94211" lon="4.93006">
        <ele>294.7</ele>
        <time>2023-09-02T15:27:03Z</time>
      </trkpt>
      <trkpt lat="45.94212" lon="4.93007">
        <ele>294.7</ele>
        <time>2023-09-02T15:27:04Z</time>
      </trkpt>
      <trkpt lat="45.94213" lon="4.93007">
        <ele>294.7</ele>
        <time>2023-09-02T15:27:05Z</time>
      </trkpt>
      <trkpt lat="45.94218" lon="4.93009">
        <ele>294.8</ele>
        <time>2023-09-02T15:27:06Z</time>
      </trkpt>
      <trkpt lat="45.94221" lon="4.93012">
        <ele>294.8</ele>
        <time>2023-09-02T15:27:07Z</time>
      </trkpt>
      <trkpt lat="45.94222" lon="4.93012">
        <ele>294.8</ele>
        <time>2023-09-02T15:27:08Z</time>
      </trkpt>
      <trkpt lat="45.94226" lon="4.93014">
        <ele>294.8</ele>
        <time>2023-09-02T15:27:09Z</time>
      </trkpt>
      <trkpt lat="45.94227" lon="4.93014">
        <ele>294.8</ele>
        <time>2023-09-02T15:27:10Z</time>
      </trkpt>
      <trkpt lat="45.9423" lon="4.93015">
        <ele>294.9</ele>
        <time>2023-09-02T15:27:11Z</time>
      </trkpt>
      <trkpt lat="45.94234" lon="4.93018">
        <ele>294.9</ele>
        <time>2023-09-02T15:27:12Z</time>
      </trkpt>
      <trkpt lat="45.94235" lon="4.93019">
        <ele>294.9</ele>
        <time>2023-09-02T15:27:13Z</time>
      </trkpt>
      <trkpt lat="45.94238" lon="4.9302">
        <ele>294.9</ele>
        <time>2023-09-02T15:27:14Z</time>
      </trkpt>
      <trkpt lat="45.94242" lon="4.93022">
        <ele>294.9</ele>
        <time>2023-09-02T15:27:15Z</time>
      </trkpt>
      <trkpt lat="45.94244" lon="4.93024">
        <ele>294.9</ele>
        <time>2023-09-02T15:27:16Z</time>
      </trkpt>
      <trkpt lat="45.94248" lon="4.93024">
        <ele>294.9</ele>
        <time>2023-09-02T15:27:17Z</time>
      </trkpt>
      <trkpt lat="45.94251" lon="4.93026">
        <ele>294.9</ele>
        <time>2023-09-02T15:27:18Z</time>
      </trkpt>
      <trkpt lat="45.94254" lon="4.93027">
        <ele>294.9</ele>
        <time>2023-09-02T15:27:19Z</time>
      </trkpt>
      <trkpt lat="45.94257" lon="4.9303">
        <ele>294.9</ele>
        <time>2023-09-02T15:27:20Z</time>
      </trkpt>
      <trkpt lat="45.94259" lon="4.9303">
        <ele>294.9</ele>
        <time>2023-09-02T15:27:21Z</time>
      </trkpt>
      <trkpt lat="45.94262" lon="4.93031">
        <ele>294.9</ele>
        <time>2023-09-02T15:27:22Z</time>
      </trkpt>
      <trkpt lat="45.94267" lon="4.93034">
        <ele>295</ele>
        <time>2023-09-02T15:27:23Z</time>
      </trkpt>
      <trkpt lat="45.94271" lon="4.93036">
        <ele>295</ele>
        <time>2023-09-02T15:27:24Z</time>
      </trkpt>
      <trkpt lat="45.94273" lon="4.93037">
        <ele>295</ele>
        <time>2023-09-02T15:27:25Z</time>
      </trkpt>
      <trkpt lat="45.94276" lon="4.93038">
        <ele>295</ele>
        <time>2023-09-02T15:27:26Z</time>
      </trkpt>
      <trkpt lat="45.9428" lon="4.93041">
        <ele>294.9</ele>
        <time>2023-09-02T15:27:27Z</time>
      </trkpt>
      <trkpt lat="45.94283" lon="4.93042">
        <ele>294.9</ele>
        <time>2023-09-02T15:27:28Z</time>
      </trkpt>
      <trkpt lat="45.94288" lon="4.93044">
        <ele>294.9</ele>
        <time>2023-09-02T15:27:29Z</time>
      </trkpt>
      <trkpt lat="45.9429" lon="4.93045">
        <ele>294.9</ele>
        <time>2023-09-02T15:27:30Z</time>
      </trkpt>
      <trkpt lat="45.94293" lon="4.93046">
        <ele>294.9</ele>
        <time>2023-09-02T15:27:31Z</time>
      </trkpt>
      <trkpt lat="45.94297" lon="4.93049">
        <ele>294.9</ele>
        <time>2023-09-02T15:27:32Z</time>
      </trkpt>
      <trkpt lat="45.94299" lon="4.9305">
        <ele>294.9</ele>
        <time>2023-09-02T15:27:33Z</time>
      </trkpt>
      <trkpt lat="45.94302" lon="4.9305">
        <ele>294.9</ele>
        <time>2023-09-02T15:27:34Z</time>
      </trkpt>
      <trkpt lat="45.94306" lon="4.93052">
        <ele>294.9</ele>
        <time>2023-09-02T15:27:35Z</time>
      </trkpt>
      <trkpt lat="45.9431" lon="4.93054">
        <ele>294.9</ele>
        <time>2023-09-02T15:27:36Z</time>
      </trkpt>
      <trkpt lat="45.94312" lon="4.93055">
        <ele>294.9</ele>
        <time>2023-09-02T15:27:37Z</time>
      </trkpt>
      <trkpt lat="45.94316" lon="4.93057">
        <ele>294.9</ele>
        <time>2023-09-02T15:27:38Z</time>
      </trkpt>
      <trkpt lat="45.94319" lon="4.93058">
        <ele>294.9</ele>
        <time>2023-09-02T15:27:39Z</time>
      </trkpt>
      <trkpt lat="45.94322" lon="4.93061">
        <ele>294.9</ele>
        <time>2023-09-02T15:27:40Z</time>
      </trkpt>
      <trkpt lat="45.94325" lon="4.93063">
        <ele>294.9</ele>
        <time>2023-09-02T15:27:41Z</time>
      </trkpt>
      <trkpt lat="45.9433" lon="4.93064">
        <ele>294.8</ele>
        <time>2023-09-02T15:27:42Z</time>
      </trkpt>
      <trkpt lat="45.94333" lon="4.93066">
        <ele>294.8</ele>
        <time>2023-09-02T15:27:43Z</time>
      </trkpt>
      <trkpt lat="45.94337" lon="4.93068">
        <ele>294.8</ele>
        <time>2023-09-02T15:27:44Z</time>
      </trkpt>
      <trkpt lat="45.9434" lon="4.93071">
        <ele>294.8</ele>
        <time>2023-09-02T15:27:45Z</time>
      </trkpt>
      <trkpt lat="45.94344" lon="4.93073">
        <ele>294.8</ele>
        <time>2023-09-02T15:27:46Z</time>
      </trkpt>
      <trkpt lat="45.94348" lon="4.93074">
        <ele>294.7</ele>
        <time>2023-09-02T15:27:47Z</time>
      </trkpt>
      <trkpt lat="45.94351" lon="4.93075">
        <ele>294.7</ele>
        <time>2023-09-02T15:27:48Z</time>
      </trkpt>
      <trkpt lat="45.94355" lon="4.93077">
        <ele>294.7</ele>
        <time>2023-09-02T15:27:49Z</time>
      </trkpt>
      <trkpt lat="45.94358" lon="4.93078">
        <ele>294.7</ele>
        <time>2023-09-02T15:27:50Z</time>
      </trkpt>
      <trkpt lat="45.94359" lon="4.93082">
        <ele>294.7</ele>
        <time>2023-09-02T15:27:51Z</time>
      </trkpt>
      <trkpt lat="45.94361" lon="4.93085">
        <ele>294.7</ele>
        <time>2023-09-02T15:27:52Z</time>
      </trkpt>
      <trkpt lat="45.94361" lon="4.93091">
        <ele>294.6</ele>
        <time>2023-09-02T15:27:53Z</time>
      </trkpt>
      <trkpt lat="45.94361" lon="4.93093">
        <ele>294.6</ele>
        <time>2023-09-02T15:27:54Z</time>
      </trkpt>
      <trkpt lat="45.94364" lon="4.93096">
        <ele>294.6</ele>
        <time>2023-09-02T15:27:55Z</time>
      </trkpt>
      <trkpt lat="45.94368" lon="4.93095">
        <ele>294.6</ele>
        <time>2023-09-02T15:27:56Z</time>
      </trkpt>
      <trkpt lat="45.94369" lon="4.93092">
        <ele>294.6</ele>
        <time>2023-09-02T15:27:57Z</time>
      </trkpt>
      <trkpt lat="45.9437" lon="4.93091">
        <ele>294.6</ele>
        <time>2023-09-02T15:27:58Z</time>
      </trkpt>
      <trkpt lat="45.94372" lon="4.9309">
        <ele>294.6</ele>
        <time>2023-09-02T15:27:59Z</time>
      </trkpt>
      <trkpt lat="45.94373" lon="4.9309">
        <ele>294.6</ele>
        <time>2023-09-02T15:28:00Z</time>
      </trkpt>
      <trkpt lat="45.94375" lon="4.9309">
        <ele>294.6</ele>
        <time>2023-09-02T15:28:01Z</time>
      </trkpt>
      <trkpt lat="45.94376" lon="4.93089">
        <ele>294.6</ele>
        <time>2023-09-02T15:28:02Z</time>
      </trkpt>
      <trkpt lat="45.94378" lon="4.93089">
        <ele>294.6</ele>
        <time>2023-09-02T15:28:03Z</time>
      </trkpt>
      <trkpt lat="45.94381" lon="4.9309">
        <ele>294.6</ele>
        <time>2023-09-02T15:28:04Z</time>
      </trkpt>
      <trkpt lat="45.94382" lon="4.9309">
        <ele>294.6</ele>
        <time>2023-09-02T15:28:05Z</time>
      </trkpt>
      <trkpt lat="45.94385" lon="4.93093">
        <ele>294.6</ele>
        <time>2023-09-02T15:28:06Z</time>
      </trkpt>
      <trkpt lat="45.94386" lon="4.93094">
        <ele>294.6</ele>
        <time>2023-09-02T15:28:07Z</time>
      </trkpt>
      <trkpt lat="45.94388" lon="4.93095">
        <ele>294.6</ele>
        <time>2023-09-02T15:28:08Z</time>
      </trkpt>
      <trkpt lat="45.94391" lon="4.93099">
        <ele>294.6</ele>
        <time>2023-09-02T15:28:09Z</time>
      </trkpt>
      <trkpt lat="45.94392" lon="4.93101">
        <ele>294.6</ele>
        <time>2023-09-02T15:28:10Z</time>
      </trkpt>
      <trkpt lat="45.94395" lon="4.93103">
        <ele>294.6</ele>
        <time>2023-09-02T15:28:11Z</time>
      </trkpt>
      <trkpt lat="45.94396" lon="4.93104">
        <ele>294.6</ele>
        <time>2023-09-02T15:28:12Z</time>
      </trkpt>
      <trkpt lat="45.94399" lon="4.93107">
        <ele>294.6</ele>
        <time>2023-09-02T15:28:13Z</time>
      </trkpt>
      <trkpt lat="45.944" lon="4.93109">
        <ele>294.6</ele>
        <time>2023-09-02T15:28:14Z</time>
      </trkpt>
      <trkpt lat="45.94402" lon="4.93112">
        <ele>294.6</ele>
        <time>2023-09-02T15:28:15Z</time>
      </trkpt>
      <trkpt lat="45.94403" lon="4.93115">
        <ele>294.5</ele>
        <time>2023-09-02T15:28:16Z</time>
      </trkpt>
      <trkpt lat="45.94403" lon="4.93116">
        <ele>294.5</ele>
        <time>2023-09-02T15:28:17Z</time>
      </trkpt>
      <trkpt lat="45.94406" lon="4.9312">
        <ele>294.5</ele>
        <time>2023-09-02T15:28:18Z</time>
      </trkpt>
      <trkpt lat="45.94409" lon="4.93124">
        <ele>294.5</ele>
        <time>2023-09-02T15:28:19Z</time>
      </trkpt>
      <trkpt lat="45.9441" lon="4.93125">
        <ele>294.4</ele>
        <time>2023-09-02T15:28:20Z</time>
      </trkpt>
      <trkpt lat="45.94412" lon="4.93128">
        <ele>294.4</ele>
        <time>2023-09-02T15:28:21Z</time>
      </trkpt>
      <trkpt lat="45.94414" lon="4.93133">
        <ele>294.4</ele>
        <time>2023-09-02T15:28:22Z</time>
      </trkpt>
      <trkpt lat="45.94416" lon="4.93134">
        <ele>294.3</ele>
        <time>2023-09-02T15:28:23Z</time>
      </trkpt>
      <trkpt lat="45.94418" lon="4.93138">
        <ele>294.3</ele>
        <time>2023-09-02T15:28:24Z</time>
      </trkpt>
      <trkpt lat="45.9442" lon="4.93142">
        <ele>294.2</ele>
        <time>2023-09-02T15:28:25Z</time>
      </trkpt>
      <trkpt lat="45.94423" lon="4.93146">
        <ele>294.1</ele>
        <time>2023-09-02T15:28:26Z</time>
      </trkpt>
      <trkpt lat="45.94425" lon="4.93152">
        <ele>294</ele>
        <time>2023-09-02T15:28:27Z</time>
      </trkpt>
      <trkpt lat="45.94426" lon="4.93153">
        <ele>293.9</ele>
        <time>2023-09-02T15:28:28Z</time>
      </trkpt>
      <trkpt lat="45.94429" lon="4.93158">
        <ele>293.9</ele>
        <time>2023-09-02T15:28:29Z</time>
      </trkpt>
      <trkpt lat="45.94431" lon="4.93161">
        <ele>293.8</ele>
        <time>2023-09-02T15:28:30Z</time>
      </trkpt>
      <trkpt lat="45.94433" lon="4.93165">
        <ele>293.8</ele>
        <time>2023-09-02T15:28:31Z</time>
      </trkpt>
      <trkpt lat="45.94436" lon="4.93169">
        <ele>293.7</ele>
        <time>2023-09-02T15:28:32Z</time>
      </trkpt>
      <trkpt lat="45.94438" lon="4.93173">
        <ele>293.7</ele>
        <time>2023-09-02T15:28:33Z</time>
      </trkpt>
      <trkpt lat="45.9444" lon="4.93179">
        <ele>293.6</ele>
        <time>2023-09-02T15:28:34Z</time>
      </trkpt>
      <trkpt lat="45.94443" lon="4.93182">
        <ele>293.6</ele>
        <time>2023-09-02T15:28:35Z</time>
      </trkpt>
      <trkpt lat="45.94446" lon="4.93186">
        <ele>293.6</ele>
        <time>2023-09-02T15:28:36Z</time>
      </trkpt>
      <trkpt lat="45.94448" lon="4.9319">
        <ele>293.5</ele>
        <time>2023-09-02T15:28:37Z</time>
      </trkpt>
      <trkpt lat="45.9445" lon="4.93195">
        <ele>293.5</ele>
        <time>2023-09-02T15:28:38Z</time>
      </trkpt>
      <trkpt lat="45.94452" lon="4.93197">
        <ele>293.5</ele>
        <time>2023-09-02T15:28:39Z</time>
      </trkpt>
      <trkpt lat="45.94454" lon="4.93201">
        <ele>293.5</ele>
        <time>2023-09-02T15:28:40Z</time>
      </trkpt>
      <trkpt lat="45.94456" lon="4.93204">
        <ele>293.4</ele>
        <time>2023-09-02T15:28:41Z</time>
      </trkpt>
      <trkpt lat="45.94458" lon="4.93207">
        <ele>293.4</ele>
        <time>2023-09-02T15:28:42Z</time>
      </trkpt>
      <trkpt lat="45.9446" lon="4.93211">
        <ele>293.3</ele>
        <time>2023-09-02T15:28:43Z</time>
      </trkpt>
      <trkpt lat="45.94461" lon="4.93213">
        <ele>293.3</ele>
        <time>2023-09-02T15:28:44Z</time>
      </trkpt>
      <trkpt lat="45.94464" lon="4.93215">
        <ele>293.3</ele>
        <time>2023-09-02T15:28:45Z</time>
      </trkpt>
      <trkpt lat="45.94466" lon="4.93219">
        <ele>293.2</ele>
        <time>2023-09-02T15:28:46Z</time>
      </trkpt>
      <trkpt lat="45.94467" lon="4.9322">
        <ele>293.2</ele>
        <time>2023-09-02T15:28:47Z</time>
      </trkpt>
      <trkpt lat="45.94469" lon="4.93223">
        <ele>293.1</ele>
        <time>2023-09-02T15:28:48Z</time>
      </trkpt>
      <trkpt lat="45.9447" lon="4.93226">
        <ele>293.1</ele>
        <time>2023-09-02T15:28:49Z</time>
      </trkpt>
      <trkpt lat="45.94473" lon="4.9323">
        <ele>293.1</ele>
        <time>2023-09-02T15:28:50Z</time>
      </trkpt>
      <trkpt lat="45.94475" lon="4.93234">
        <ele>293</ele>
        <time>2023-09-02T15:28:51Z</time>
      </trkpt>
      <trkpt lat="45.94477" lon="4.93237">
        <ele>293</ele>
        <time>2023-09-02T15:28:52Z</time>
      </trkpt>
      <trkpt lat="45.94478" lon="4.93239">
        <ele>292.9</ele>
        <time>2023-09-02T15:28:53Z</time>
      </trkpt>
      <trkpt lat="45.94481" lon="4.93241">
        <ele>292.9</ele>
        <time>2023-09-02T15:28:54Z</time>
      </trkpt>
      <trkpt lat="45.94483" lon="4.93245">
        <ele>292.8</ele>
        <time>2023-09-02T15:28:55Z</time>
      </trkpt>
      <trkpt lat="45.94485" lon="4.93248">
        <ele>292.8</ele>
        <time>2023-09-02T15:28:56Z</time>
      </trkpt>
      <trkpt lat="45.94488" lon="4.93251">
        <ele>292.7</ele>
        <time>2023-09-02T15:28:57Z</time>
      </trkpt>
      <trkpt lat="45.94491" lon="4.93254">
        <ele>292.7</ele>
        <time>2023-09-02T15:28:58Z</time>
      </trkpt>
      <trkpt lat="45.94493" lon="4.93259">
        <ele>292.6</ele>
        <time>2023-09-02T15:28:59Z</time>
      </trkpt>
      <trkpt lat="45.94495" lon="4.93263">
        <ele>292.6</ele>
        <time>2023-09-02T15:29:00Z</time>
      </trkpt>
      <trkpt lat="45.94497" lon="4.93267">
        <ele>292.5</ele>
        <time>2023-09-02T15:29:01Z</time>
      </trkpt>
      <trkpt lat="45.94499" lon="4.93271">
        <ele>292.5</ele>
        <time>2023-09-02T15:29:02Z</time>
      </trkpt>
      <trkpt lat="45.94502" lon="4.93273">
        <ele>292.5</ele>
        <time>2023-09-02T15:29:03Z</time>
      </trkpt>
      <trkpt lat="45.94505" lon="4.93277">
        <ele>292.4</ele>
        <time>2023-09-02T15:29:04Z</time>
      </trkpt>
      <trkpt lat="45.94507" lon="4.9328">
        <ele>292.4</ele>
        <time>2023-09-02T15:29:05Z</time>
      </trkpt>
      <trkpt lat="45.94509" lon="4.93283">
        <ele>292.4</ele>
        <time>2023-09-02T15:29:06Z</time>
      </trkpt>
      <trkpt lat="45.94512" lon="4.93286">
        <ele>292.3</ele>
        <time>2023-09-02T15:29:07Z</time>
      </trkpt>
      <trkpt lat="45.94515" lon="4.9329">
        <ele>292.3</ele>
        <time>2023-09-02T15:29:08Z</time>
      </trkpt>
      <trkpt lat="45.94518" lon="4.93294">
        <ele>292.2</ele>
        <time>2023-09-02T15:29:09Z</time>
      </trkpt>
      <trkpt lat="45.94521" lon="4.93297">
        <ele>292.2</ele>
        <time>2023-09-02T15:29:10Z</time>
      </trkpt>
      <trkpt lat="45.94523" lon="4.933">
        <ele>292.2</ele>
        <time>2023-09-02T15:29:11Z</time>
      </trkpt>
      <trkpt lat="45.94525" lon="4.93303">
        <ele>292.1</ele>
        <time>2023-09-02T15:29:12Z</time>
      </trkpt>
      <trkpt lat="45.94528" lon="4.93305">
        <ele>292.1</ele>
        <time>2023-09-02T15:29:13Z</time>
      </trkpt>
      <trkpt lat="45.9453" lon="4.93308">
        <ele>292.1</ele>
        <time>2023-09-02T15:29:14Z</time>
      </trkpt>
      <trkpt lat="45.94533" lon="4.93312">
        <ele>292.1</ele>
        <time>2023-09-02T15:29:15Z</time>
      </trkpt>
      <trkpt lat="45.94535" lon="4.93315">
        <ele>292.1</ele>
        <time>2023-09-02T15:29:16Z</time>
      </trkpt>
      <trkpt lat="45.94538" lon="4.93317">
        <ele>292.1</ele>
        <time>2023-09-02T15:29:17Z</time>
      </trkpt>
      <trkpt lat="45.9454" lon="4.9332">
        <ele>292</ele>
        <time>2023-09-02T15:29:18Z</time>
      </trkpt>
      <trkpt lat="45.94544" lon="4.93322">
        <ele>292</ele>
        <time>2023-09-02T15:29:19Z</time>
      </trkpt>
      <trkpt lat="45.94547" lon="4.93325">
        <ele>292</ele>
        <time>2023-09-02T15:29:20Z</time>
      </trkpt>
      <trkpt lat="45.94551" lon="4.93327">
        <ele>292</ele>
        <time>2023-09-02T15:29:21Z</time>
      </trkpt>
      <trkpt lat="45.94552" lon="4.93328">
        <ele>291.9</ele>
        <time>2023-09-02T15:29:22Z</time>
      </trkpt>
      <trkpt lat="45.94555" lon="4.9333">
        <ele>291.9</ele>
        <time>2023-09-02T15:29:23Z</time>
      </trkpt>
      <trkpt lat="45.94557" lon="4.93333">
        <ele>291.9</ele>
        <time>2023-09-02T15:29:24Z</time>
      </trkpt>
      <trkpt lat="45.9456" lon="4.93336">
        <ele>291.8</ele>
        <time>2023-09-02T15:29:25Z</time>
      </trkpt>
      <trkpt lat="45.94564" lon="4.93339">
        <ele>291.8</ele>
        <time>2023-09-02T15:29:26Z</time>
      </trkpt>
      <trkpt lat="45.94566" lon="4.93342">
        <ele>291.8</ele>
        <time>2023-09-02T15:29:27Z</time>
      </trkpt>
      <trkpt lat="45.94571" lon="4.93344">
        <ele>291.7</ele>
        <time>2023-09-02T15:29:28Z</time>
      </trkpt>
      <trkpt lat="45.94575" lon="4.93347">
        <ele>291.7</ele>
        <time>2023-09-02T15:29:29Z</time>
      </trkpt>
      <trkpt lat="45.94577" lon="4.93348">
        <ele>291.6</ele>
        <time>2023-09-02T15:29:30Z</time>
      </trkpt>
      <trkpt lat="45.9458" lon="4.9335">
        <ele>291.6</ele>
        <time>2023-09-02T15:29:31Z</time>
      </trkpt>
      <trkpt lat="45.94584" lon="4.93352">
        <ele>291.6</ele>
        <time>2023-09-02T15:29:32Z</time>
      </trkpt>
      <trkpt lat="45.94587" lon="4.93355">
        <ele>291.5</ele>
        <time>2023-09-02T15:29:33Z</time>
      </trkpt>
      <trkpt lat="45.94589" lon="4.93356">
        <ele>291.5</ele>
        <time>2023-09-02T15:29:34Z</time>
      </trkpt>
      <trkpt lat="45.94592" lon="4.93359">
        <ele>291.4</ele>
        <time>2023-09-02T15:29:35Z</time>
      </trkpt>
      <trkpt lat="45.94596" lon="4.93362">
        <ele>291.4</ele>
        <time>2023-09-02T15:29:36Z</time>
      </trkpt>
      <trkpt lat="45.94599" lon="4.93364">
        <ele>291.4</ele>
        <time>2023-09-02T15:29:37Z</time>
      </trkpt>
      <trkpt lat="45.94602" lon="4.93366">
        <ele>291.3</ele>
        <time>2023-09-02T15:29:38Z</time>
      </trkpt>
      <trkpt lat="45.94606" lon="4.93368">
        <ele>291.3</ele>
        <time>2023-09-02T15:29:39Z</time>
      </trkpt>
      <trkpt lat="45.94608" lon="4.93371">
        <ele>291.3</ele>
        <time>2023-09-02T15:29:40Z</time>
      </trkpt>
      <trkpt lat="45.94611" lon="4.93374">
        <ele>291.2</ele>
        <time>2023-09-02T15:29:41Z</time>
      </trkpt>
      <trkpt lat="45.94614" lon="4.93377">
        <ele>291.2</ele>
        <time>2023-09-02T15:29:42Z</time>
      </trkpt>
      <trkpt lat="45.94617" lon="4.93379">
        <ele>291.2</ele>
        <time>2023-09-02T15:29:43Z</time>
      </trkpt>
      <trkpt lat="45.9462" lon="4.93382">
        <ele>291.2</ele>
        <time>2023-09-02T15:29:44Z</time>
      </trkpt>
      <trkpt lat="45.94623" lon="4.93385">
        <ele>291.2</ele>
        <time>2023-09-02T15:29:45Z</time>
      </trkpt>
      <trkpt lat="45.94626" lon="4.93389">
        <ele>291.3</ele>
        <time>2023-09-02T15:29:46Z</time>
      </trkpt>
      <trkpt lat="45.94629" lon="4.93392">
        <ele>291.3</ele>
        <time>2023-09-02T15:29:47Z</time>
      </trkpt>
      <trkpt lat="45.94631" lon="4.93396">
        <ele>291.3</ele>
        <time>2023-09-02T15:29:48Z</time>
      </trkpt>
      <trkpt lat="45.94634" lon="4.93401">
        <ele>291.3</ele>
        <time>2023-09-02T15:29:49Z</time>
      </trkpt>
      <trkpt lat="45.94637" lon="4.93405">
        <ele>291.4</ele>
        <time>2023-09-02T15:29:50Z</time>
      </trkpt>
      <trkpt lat="45.94637" lon="4.93407">
        <ele>291.4</ele>
        <time>2023-09-02T15:29:51Z</time>
      </trkpt>
      <trkpt lat="45.9464" lon="4.93411">
        <ele>291.4</ele>
        <time>2023-09-02T15:29:52Z</time>
      </trkpt>
      <trkpt lat="45.94644" lon="4.93414">
        <ele>291.5</ele>
        <time>2023-09-02T15:29:53Z</time>
      </trkpt>
      <trkpt lat="45.94646" lon="4.93418">
        <ele>291.5</ele>
        <time>2023-09-02T15:29:54Z</time>
      </trkpt>
      <trkpt lat="45.94649" lon="4.93421">
        <ele>291.5</ele>
        <time>2023-09-02T15:29:55Z</time>
      </trkpt>
      <trkpt lat="45.94651" lon="4.93425">
        <ele>291.5</ele>
        <time>2023-09-02T15:29:56Z</time>
      </trkpt>
      <trkpt lat="45.94653" lon="4.93428">
        <ele>291.5</ele>
        <time>2023-09-02T15:29:57Z</time>
      </trkpt>
      <trkpt lat="45.94656" lon="4.93431">
        <ele>291.5</ele>
        <time>2023-09-02T15:29:58Z</time>
      </trkpt>
      <trkpt lat="45.94659" lon="4.93435">
        <ele>291.5</ele>
        <time>2023-09-02T15:29:59Z</time>
      </trkpt>
      <trkpt lat="45.94661" lon="4.93438">
        <ele>291.5</ele>
        <time>2023-09-02T15:30:00Z</time>
      </trkpt>
      <trkpt lat="45.94664" lon="4.93442">
        <ele>291.5</ele>
        <time>2023-09-02T15:30:01Z</time>
      </trkpt>
      <trkpt lat="45.94666" lon="4.93445">
        <ele>291.5</ele>
        <time>2023-09-02T15:30:02Z</time>
      </trkpt>
      <trkpt lat="45.94669" lon="4.93449">
        <ele>291.4</ele>
        <time>2023-09-02T15:30:03Z</time>
      </trkpt>
      <trkpt lat="45.94671" lon="4.93454">
        <ele>291.4</ele>
        <time>2023-09-02T15:30:04Z</time>
      </trkpt>
      <trkpt lat="45.94673" lon="4.93458">
        <ele>291.4</ele>
        <time>2023-09-02T15:30:05Z</time>
      </trkpt>
      <trkpt lat="45.94677" lon="4.9346">
        <ele>291.4</ele>
        <time>2023-09-02T15:30:06Z</time>
      </trkpt>
      <trkpt lat="45.94679" lon="4.93465">
        <ele>291.3</ele>
        <time>2023-09-02T15:30:07Z</time>
      </trkpt>
      <trkpt lat="45.94681" lon="4.9347">
        <ele>291.3</ele>
        <time>2023-09-02T15:30:08Z</time>
      </trkpt>
      <trkpt lat="45.94684" lon="4.93473">
        <ele>291.3</ele>
        <time>2023-09-02T15:30:09Z</time>
      </trkpt>
      <trkpt lat="45.94686" lon="4.93476">
        <ele>291.3</ele>
        <time>2023-09-02T15:30:10Z</time>
      </trkpt>
      <trkpt lat="45.94688" lon="4.93479">
        <ele>291.3</ele>
        <time>2023-09-02T15:30:11Z</time>
      </trkpt>
      <trkpt lat="45.94691" lon="4.93484">
        <ele>291.3</ele>
        <time>2023-09-02T15:30:12Z</time>
      </trkpt>
      <trkpt lat="45.94692" lon="4.93486">
        <ele>291.3</ele>
        <time>2023-09-02T15:30:13Z</time>
      </trkpt>
      <trkpt lat="45.94693" lon="4.9349">
        <ele>291.3</ele>
        <time>2023-09-02T15:30:14Z</time>
      </trkpt>
      <trkpt lat="45.94694" lon="4.93494">
        <ele>291.3</ele>
        <time>2023-09-02T15:30:15Z</time>
      </trkpt>
      <trkpt lat="45.94695" lon="4.93499">
        <ele>291.3</ele>
        <time>2023-09-02T15:30:16Z</time>
      </trkpt>
      <trkpt lat="45.94698" lon="4.93502">
        <ele>291.3</ele>
        <time>2023-09-02T15:30:17Z</time>
      </trkpt>
      <trkpt lat="45.94699" lon="4.93507">
        <ele>291.3</ele>
        <time>2023-09-02T15:30:18Z</time>
      </trkpt>
      <trkpt lat="45.947" lon="4.93511">
        <ele>291.3</ele>
        <time>2023-09-02T15:30:19Z</time>
      </trkpt>
      <trkpt lat="45.94702" lon="4.93516">
        <ele>291.3</ele>
        <time>2023-09-02T15:30:20Z</time>
      </trkpt>
      <trkpt lat="45.94703" lon="4.93521">
        <ele>291.4</ele>
        <time>2023-09-02T15:30:21Z</time>
      </trkpt>
      <trkpt lat="45.94705" lon="4.93524">
        <ele>291.4</ele>
        <time>2023-09-02T15:30:22Z</time>
      </trkpt>
      <trkpt lat="45.94706" lon="4.9353">
        <ele>291.4</ele>
        <time>2023-09-02T15:30:23Z</time>
      </trkpt>
      <trkpt lat="45.94707" lon="4.93534">
        <ele>291.4</ele>
        <time>2023-09-02T15:30:24Z</time>
      </trkpt>
      <trkpt lat="45.94708" lon="4.93539">
        <ele>291.5</ele>
        <time>2023-09-02T15:30:25Z</time>
      </trkpt>
      <trkpt lat="45.94709" lon="4.93543">
        <ele>291.5</ele>
        <time>2023-09-02T15:30:26Z</time>
      </trkpt>
      <trkpt lat="45.94711" lon="4.93547">
        <ele>291.5</ele>
        <time>2023-09-02T15:30:27Z</time>
      </trkpt>
      <trkpt lat="45.94712" lon="4.93551">
        <ele>291.5</ele>
        <time>2023-09-02T15:30:28Z</time>
      </trkpt>
      <trkpt lat="45.94714" lon="4.93556">
        <ele>291.5</ele>
        <time>2023-09-02T15:30:29Z</time>
      </trkpt>
      <trkpt lat="45.94715" lon="4.93561">
        <ele>291.5</ele>
        <time>2023-09-02T15:30:30Z</time>
      </trkpt>
      <trkpt lat="45.94716" lon="4.93566">
        <ele>291.5</ele>
        <time>2023-09-02T15:30:31Z</time>
      </trkpt>
      <trkpt lat="45.94718" lon="4.93571">
        <ele>291.5</ele>
        <time>2023-09-02T15:30:32Z</time>
      </trkpt>
      <trkpt lat="45.94719" lon="4.93575">
        <ele>291.5</ele>
        <time>2023-09-02T15:30:33Z</time>
      </trkpt>
      <trkpt lat="45.9472" lon="4.93579">
        <ele>291.5</ele>
        <time>2023-09-02T15:30:34Z</time>
      </trkpt>
      <trkpt lat="45.94721" lon="4.93584">
        <ele>291.5</ele>
        <time>2023-09-02T15:30:35Z</time>
      </trkpt>
      <trkpt lat="45.94723" lon="4.9359">
        <ele>291.5</ele>
        <time>2023-09-02T15:30:36Z</time>
      </trkpt>
      <trkpt lat="45.94724" lon="4.93594">
        <ele>291.4</ele>
        <time>2023-09-02T15:30:37Z</time>
      </trkpt>
      <trkpt lat="45.94725" lon="4.93599">
        <ele>291.4</ele>
        <time>2023-09-02T15:30:38Z</time>
      </trkpt>
      <trkpt lat="45.94726" lon="4.93605">
        <ele>291.4</ele>
        <time>2023-09-02T15:30:39Z</time>
      </trkpt>
      <trkpt lat="45.94728" lon="4.9361">
        <ele>291.3</ele>
        <time>2023-09-02T15:30:40Z</time>
      </trkpt>
      <trkpt lat="45.94729" lon="4.93615">
        <ele>291.3</ele>
        <time>2023-09-02T15:30:41Z</time>
      </trkpt>
      <trkpt lat="45.9473" lon="4.9362">
        <ele>291.3</ele>
        <time>2023-09-02T15:30:42Z</time>
      </trkpt>
      <trkpt lat="45.94731" lon="4.93626">
        <ele>291.3</ele>
        <time>2023-09-02T15:30:43Z</time>
      </trkpt>
      <trkpt lat="45.94732" lon="4.93631">
        <ele>291.3</ele>
        <time>2023-09-02T15:30:44Z</time>
      </trkpt>
      <trkpt lat="45.94734" lon="4.93634">
        <ele>291.3</ele>
        <time>2023-09-02T15:30:45Z</time>
      </trkpt>
      <trkpt lat="45.94734" lon="4.93639">
        <ele>291.3</ele>
        <time>2023-09-02T15:30:46Z</time>
      </trkpt>
      <trkpt lat="45.94736" lon="4.93643">
        <ele>291.3</ele>
        <time>2023-09-02T15:30:47Z</time>
      </trkpt>
      <trkpt lat="45.94737" lon="4.93645">
        <ele>291.3</ele>
        <time>2023-09-02T15:30:48Z</time>
      </trkpt>
      <trkpt lat="45.9474" lon="4.9365">
        <ele>291.3</ele>
        <time>2023-09-02T15:30:49Z</time>
      </trkpt>
      <trkpt lat="45.94741" lon="4.93651">
        <ele>291.3</ele>
        <time>2023-09-02T15:30:50Z</time>
      </trkpt>
      <trkpt lat="45.94742" lon="4.93655">
        <ele>291.3</ele>
        <time>2023-09-02T15:30:51Z</time>
      </trkpt>
      <trkpt lat="45.94745" lon="4.93658">
        <ele>291.3</ele>
        <time>2023-09-02T15:30:52Z</time>
      </trkpt>
      <trkpt lat="45.94747" lon="4.93662">
        <ele>291.3</ele>
        <time>2023-09-02T15:30:53Z</time>
      </trkpt>
      <trkpt lat="45.94749" lon="4.93665">
        <ele>291.3</ele>
        <time>2023-09-02T15:30:54Z</time>
      </trkpt>
      <trkpt lat="45.94752" lon="4.93667">
        <ele>291.3</ele>
        <time>2023-09-02T15:30:55Z</time>
      </trkpt>
      <trkpt lat="45.94755" lon="4.93671">
        <ele>291.3</ele>
        <time>2023-09-02T15:30:56Z</time>
      </trkpt>
      <trkpt lat="45.94757" lon="4.93673">
        <ele>291.3</ele>
        <time>2023-09-02T15:30:57Z</time>
      </trkpt>
      <trkpt lat="45.9476" lon="4.93677">
        <ele>291.3</ele>
        <time>2023-09-02T15:30:58Z</time>
      </trkpt>
      <trkpt lat="45.94763" lon="4.9368">
        <ele>291.3</ele>
        <time>2023-09-02T15:30:59Z</time>
      </trkpt>
      <trkpt lat="45.94765" lon="4.93683">
        <ele>291.4</ele>
        <time>2023-09-02T15:31:00Z</time>
      </trkpt>
      <trkpt lat="45.94768" lon="4.93685">
        <ele>291.4</ele>
        <time>2023-09-02T15:31:01Z</time>
      </trkpt>
      <trkpt lat="45.94771" lon="4.93689">
        <ele>291.4</ele>
        <time>2023-09-02T15:31:02Z</time>
      </trkpt>
      <trkpt lat="45.94773" lon="4.93691">
        <ele>291.4</ele>
        <time>2023-09-02T15:31:03Z</time>
      </trkpt>
      <trkpt lat="45.94776" lon="4.93694">
        <ele>291.4</ele>
        <time>2023-09-02T15:31:04Z</time>
      </trkpt>
      <trkpt lat="45.94779" lon="4.93697">
        <ele>291.5</ele>
        <time>2023-09-02T15:31:05Z</time>
      </trkpt>
      <trkpt lat="45.94782" lon="4.937">
        <ele>291.5</ele>
        <time>2023-09-02T15:31:06Z</time>
      </trkpt>
      <trkpt lat="45.94785" lon="4.93703">
        <ele>291.5</ele>
        <time>2023-09-02T15:31:07Z</time>
      </trkpt>
      <trkpt lat="45.94788" lon="4.93706">
        <ele>291.5</ele>
        <time>2023-09-02T15:31:08Z</time>
      </trkpt>
      <trkpt lat="45.94791" lon="4.93708">
        <ele>291.5</ele>
        <time>2023-09-02T15:31:09Z</time>
      </trkpt>
      <trkpt lat="45.94794" lon="4.93711">
        <ele>291.5</ele>
        <time>2023-09-02T15:31:10Z</time>
      </trkpt>
      <trkpt lat="45.94796" lon="4.93715">
        <ele>291.5</ele>
        <time>2023-09-02T15:31:11Z</time>
      </trkpt>
      <trkpt lat="45.94799" lon="4.93718">
        <ele>291.6</ele>
        <time>2023-09-02T15:31:12Z</time>
      </trkpt>
      <trkpt lat="45.94801" lon="4.93721">
        <ele>291.6</ele>
        <time>2023-09-02T15:31:13Z</time>
      </trkpt>
      <trkpt lat="45.94803" lon="4.93724">
        <ele>291.6</ele>
        <time>2023-09-02T15:31:14Z</time>
      </trkpt>
      <trkpt lat="45.94807" lon="4.93725">
        <ele>291.6</ele>
        <time>2023-09-02T15:31:15Z</time>
      </trkpt>
      <trkpt lat="45.94809" lon="4.93727">
        <ele>291.6</ele>
        <time>2023-09-02T15:31:16Z</time>
      </trkpt>
      <trkpt lat="45.94812" lon="4.93731">
        <ele>291.7</ele>
        <time>2023-09-02T15:31:17Z</time>
      </trkpt>
      <trkpt lat="45.94814" lon="4.93733">
        <ele>291.7</ele>
        <time>2023-09-02T15:31:18Z</time>
      </trkpt>
      <trkpt lat="45.94817" lon="4.93737">
        <ele>291.7</ele>
        <time>2023-09-02T15:31:19Z</time>
      </trkpt>
      <trkpt lat="45.94819" lon="4.9374">
        <ele>291.7</ele>
        <time>2023-09-02T15:31:20Z</time>
      </trkpt>
      <trkpt lat="45.94822" lon="4.93742">
        <ele>291.7</ele>
        <time>2023-09-02T15:31:21Z</time>
      </trkpt>
      <trkpt lat="45.94824" lon="4.93746">
        <ele>291.7</ele>
        <time>2023-09-02T15:31:22Z</time>
      </trkpt>
      <trkpt lat="45.94827" lon="4.93749">
        <ele>291.7</ele>
        <time>2023-09-02T15:31:23Z</time>
      </trkpt>
      <trkpt lat="45.94829" lon="4.93753">
        <ele>291.7</ele>
        <time>2023-09-02T15:31:24Z</time>
      </trkpt>
      <trkpt lat="45.94832" lon="4.93756">
        <ele>291.7</ele>
        <time>2023-09-02T15:31:25Z</time>
      </trkpt>
      <trkpt lat="45.94835" lon="4.93759">
        <ele>291.7</ele>
        <time>2023-09-02T15:31:26Z</time>
      </trkpt>
      <trkpt lat="45.94838" lon="4.93762">
        <ele>291.8</ele>
        <time>2023-09-02T15:31:27Z</time>
      </trkpt>
      <trkpt lat="45.9484" lon="4.93767">
        <ele>291.8</ele>
        <time>2023-09-02T15:31:28Z</time>
      </trkpt>
      <trkpt lat="45.94842" lon="4.93771">
        <ele>291.8</ele>
        <time>2023-09-02T15:31:29Z</time>
      </trkpt>
      <trkpt lat="45.94845" lon="4.93776">
        <ele>291.8</ele>
        <time>2023-09-02T15:31:30Z</time>
      </trkpt>
      <trkpt lat="45.94848" lon="4.9378">
        <ele>291.8</ele>
        <time>2023-09-02T15:31:31Z</time>
      </trkpt>
      <trkpt lat="45.9485" lon="4.93784">
        <ele>291.8</ele>
        <time>2023-09-02T15:31:32Z</time>
      </trkpt>
      <trkpt lat="45.94852" lon="4.93788">
        <ele>291.8</ele>
        <time>2023-09-02T15:31:33Z</time>
      </trkpt>
      <trkpt lat="45.94854" lon="4.93792">
        <ele>291.9</ele>
        <time>2023-09-02T15:31:34Z</time>
      </trkpt>
      <trkpt lat="45.94856" lon="4.93798">
        <ele>291.9</ele>
        <time>2023-09-02T15:31:35Z</time>
      </trkpt>
      <trkpt lat="45.94858" lon="4.93803">
        <ele>291.9</ele>
        <time>2023-09-02T15:31:36Z</time>
      </trkpt>
      <trkpt lat="45.9486" lon="4.93807">
        <ele>291.9</ele>
        <time>2023-09-02T15:31:37Z</time>
      </trkpt>
      <trkpt lat="45.94862" lon="4.93811">
        <ele>292</ele>
        <time>2023-09-02T15:31:38Z</time>
      </trkpt>
      <trkpt lat="45.94864" lon="4.93815">
        <ele>292</ele>
        <time>2023-09-02T15:31:39Z</time>
      </trkpt>
      <trkpt lat="45.94866" lon="4.93819">
        <ele>292</ele>
        <time>2023-09-02T15:31:40Z</time>
      </trkpt>
      <trkpt lat="45.94867" lon="4.93823">
        <ele>292</ele>
        <time>2023-09-02T15:31:41Z</time>
      </trkpt>
      <trkpt lat="45.94869" lon="4.93828">
        <ele>292.1</ele>
        <time>2023-09-02T15:31:42Z</time>
      </trkpt>
      <trkpt lat="45.94871" lon="4.93832">
        <ele>292.1</ele>
        <time>2023-09-02T15:31:43Z</time>
      </trkpt>
      <trkpt lat="45.94872" lon="4.93837">
        <ele>292.1</ele>
        <time>2023-09-02T15:31:44Z</time>
      </trkpt>
      <trkpt lat="45.94874" lon="4.93841">
        <ele>292.2</ele>
        <time>2023-09-02T15:31:45Z</time>
      </trkpt>
      <trkpt lat="45.94876" lon="4.93845">
        <ele>292.2</ele>
        <time>2023-09-02T15:31:46Z</time>
      </trkpt>
      <trkpt lat="45.94878" lon="4.9385">
        <ele>292.3</ele>
        <time>2023-09-02T15:31:47Z</time>
      </trkpt>
      <trkpt lat="45.94879" lon="4.93855">
        <ele>292.3</ele>
        <time>2023-09-02T15:31:48Z</time>
      </trkpt>
      <trkpt lat="45.94881" lon="4.93859">
        <ele>292.4</ele>
        <time>2023-09-02T15:31:49Z</time>
      </trkpt>
      <trkpt lat="45.94883" lon="4.93863">
        <ele>292.5</ele>
        <time>2023-09-02T15:31:50Z</time>
      </trkpt>
      <trkpt lat="45.94885" lon="4.93867">
        <ele>292.5</ele>
        <time>2023-09-02T15:31:51Z</time>
      </trkpt>
      <trkpt lat="45.94885" lon="4.93871">
        <ele>292.6</ele>
        <time>2023-09-02T15:31:52Z</time>
      </trkpt>
      <trkpt lat="45.94886" lon="4.93874">
        <ele>292.6</ele>
        <time>2023-09-02T15:31:53Z</time>
      </trkpt>
      <trkpt lat="45.94887" lon="4.93875">
        <ele>292.6</ele>
        <time>2023-09-02T15:31:54Z</time>
      </trkpt>
      <trkpt lat="45.94888" lon="4.93877">
        <ele>292.6</ele>
        <time>2023-09-02T15:31:55Z</time>
      </trkpt>
      <trkpt lat="45.94888" lon="4.93878">
        <ele>292.6</ele>
        <time>2023-09-02T15:31:56Z</time>
      </trkpt>
      <trkpt lat="45.94889" lon="4.93879">
        <ele>292.6</ele>
        <time>2023-09-02T15:31:57Z</time>
      </trkpt>
      <trkpt lat="45.94889" lon="4.9388">
        <ele>292.6</ele>
        <time>2023-09-02T15:31:58Z</time>
      </trkpt>
      <trkpt lat="45.94889" lon="4.93881">
        <ele>292.7</ele>
        <time>2023-09-02T15:31:59Z</time>
      </trkpt>
      <trkpt lat="45.94889" lon="4.93882">
        <ele>292.7</ele>
        <time>2023-09-02T15:32:00Z</time>
      </trkpt>
      <trkpt lat="45.94889" lon="4.93883">
        <ele>292.7</ele>
        <time>2023-09-02T15:32:01Z</time>
      </trkpt>
      <trkpt lat="45.9489" lon="4.93884">
        <ele>292.7</ele>
        <time>2023-09-02T15:32:02Z</time>
      </trkpt>
      <trkpt lat="45.94891" lon="4.93885">
        <ele>292.7</ele>
        <time>2023-09-02T15:32:03Z</time>
      </trkpt>
      <trkpt lat="45.94891" lon="4.93886">
        <ele>292.7</ele>
        <time>2023-09-02T15:32:04Z</time>
      </trkpt>
      <trkpt lat="45.94891" lon="4.93888">
        <ele>292.7</ele>
        <time>2023-09-02T15:32:05Z</time>
      </trkpt>
      <trkpt lat="45.94891" lon="4.93889">
        <ele>292.7</ele>
        <time>2023-09-02T15:32:06Z</time>
      </trkpt>
      <trkpt lat="45.94891" lon="4.93889">
        <ele>292.7</ele>
        <time>2023-09-02T15:32:07Z</time>
      </trkpt>
      <trkpt lat="45.94891" lon="4.9389">
        <ele>292.7</ele>
        <time>2023-09-02T15:32:08Z</time>
      </trkpt>
      <trkpt lat="45.94891" lon="4.93892">
        <ele>292.7</ele>
        <time>2023-09-02T15:32:09Z</time>
      </trkpt>
      <trkpt lat="45.94892" lon="4.93893">
        <ele>292.8</ele>
        <time>2023-09-02T15:32:10Z</time>
      </trkpt>
      <trkpt lat="45.94893" lon="4.93896">
        <ele>292.8</ele>
        <time>2023-09-02T15:32:11Z</time>
      </trkpt>
      <trkpt lat="45.94892" lon="4.93901">
        <ele>292.9</ele>
        <time>2023-09-02T15:32:12Z</time>
      </trkpt>
      <trkpt lat="45.94892" lon="4.93902">
        <ele>292.9</ele>
        <time>2023-09-02T15:32:13Z</time>
      </trkpt>
      <trkpt lat="45.94893" lon="4.93907">
        <ele>292.9</ele>
        <time>2023-09-02T15:32:14Z</time>
      </trkpt>
      <trkpt lat="45.94894" lon="4.93909">
        <ele>292.9</ele>
        <time>2023-09-02T15:32:15Z</time>
      </trkpt>
      <trkpt lat="45.94894" lon="4.93914">
        <ele>293</ele>
        <time>2023-09-02T15:32:16Z</time>
      </trkpt>
      <trkpt lat="45.94895" lon="4.93916">
        <ele>293</ele>
        <time>2023-09-02T15:32:17Z</time>
      </trkpt>
      <trkpt lat="45.94896" lon="4.93921">
        <ele>293</ele>
        <time>2023-09-02T15:32:18Z</time>
      </trkpt>
      <trkpt lat="45.94896" lon="4.93922">
        <ele>293</ele>
        <time>2023-09-02T15:32:19Z</time>
      </trkpt>
      <trkpt lat="45.94897" lon="4.93926">
        <ele>293</ele>
        <time>2023-09-02T15:32:20Z</time>
      </trkpt>
      <trkpt lat="45.94898" lon="4.93928">
        <ele>293</ele>
        <time>2023-09-02T15:32:21Z</time>
      </trkpt>
      <trkpt lat="45.94899" lon="4.93932">
        <ele>293</ele>
        <time>2023-09-02T15:32:22Z</time>
      </trkpt>
      <trkpt lat="45.94899" lon="4.93934">
        <ele>293</ele>
        <time>2023-09-02T15:32:23Z</time>
      </trkpt>
      <trkpt lat="45.949" lon="4.93939">
        <ele>293</ele>
        <time>2023-09-02T15:32:24Z</time>
      </trkpt>
      <trkpt lat="45.94901" lon="4.9394">
        <ele>293</ele>
        <time>2023-09-02T15:32:25Z</time>
      </trkpt>
      <trkpt lat="45.94902" lon="4.93946">
        <ele>293</ele>
        <time>2023-09-02T15:32:26Z</time>
      </trkpt>
      <trkpt lat="45.94903" lon="4.93948">
        <ele>292.9</ele>
        <time>2023-09-02T15:32:27Z</time>
      </trkpt>
      <trkpt lat="45.94904" lon="4.93953">
        <ele>292.9</ele>
        <time>2023-09-02T15:32:28Z</time>
      </trkpt>
      <trkpt lat="45.94904" lon="4.93954">
        <ele>292.9</ele>
        <time>2023-09-02T15:32:29Z</time>
      </trkpt>
      <trkpt lat="45.94905" lon="4.93959">
        <ele>292.9</ele>
        <time>2023-09-02T15:32:30Z</time>
      </trkpt>
      <trkpt lat="45.94906" lon="4.93961">
        <ele>292.9</ele>
        <time>2023-09-02T15:32:31Z</time>
      </trkpt>
      <trkpt lat="45.94907" lon="4.93965">
        <ele>292.8</ele>
        <time>2023-09-02T15:32:32Z</time>
      </trkpt>
      <trkpt lat="45.94908" lon="4.93967">
        <ele>292.8</ele>
        <time>2023-09-02T15:32:33Z</time>
      </trkpt>
      <trkpt lat="45.94909" lon="4.93971">
        <ele>292.8</ele>
        <time>2023-09-02T15:32:34Z</time>
      </trkpt>
      <trkpt lat="45.9491" lon="4.93976">
        <ele>292.8</ele>
        <time>2023-09-02T15:32:35Z</time>
      </trkpt>
      <trkpt lat="45.94911" lon="4.93978">
        <ele>292.8</ele>
        <time>2023-09-02T15:32:36Z</time>
      </trkpt>
      <trkpt lat="45.94912" lon="4.93982">
        <ele>292.8</ele>
        <time>2023-09-02T15:32:37Z</time>
      </trkpt>
      <trkpt lat="45.94913" lon="4.93988">
        <ele>292.8</ele>
        <time>2023-09-02T15:32:38Z</time>
      </trkpt>
      <trkpt lat="45.94914" lon="4.9399">
        <ele>292.8</ele>
        <time>2023-09-02T15:32:39Z</time>
      </trkpt>
      <trkpt lat="45.94915" lon="4.93994">
        <ele>292.8</ele>
        <time>2023-09-02T15:32:40Z</time>
      </trkpt>
      <trkpt lat="45.94915" lon="4.93998">
        <ele>292.8</ele>
        <time>2023-09-02T15:32:41Z</time>
      </trkpt>
      <trkpt lat="45.94916" lon="4.94002">
        <ele>292.8</ele>
        <time>2023-09-02T15:32:42Z</time>
      </trkpt>
      <trkpt lat="45.94918" lon="4.94006">
        <ele>292.8</ele>
        <time>2023-09-02T15:32:43Z</time>
      </trkpt>
      <trkpt lat="45.94919" lon="4.9401">
        <ele>292.7</ele>
        <time>2023-09-02T15:32:44Z</time>
      </trkpt>
      <trkpt lat="45.9492" lon="4.94014">
        <ele>292.7</ele>
        <time>2023-09-02T15:32:45Z</time>
      </trkpt>
      <trkpt lat="45.94921" lon="4.94019">
        <ele>292.7</ele>
        <time>2023-09-02T15:32:46Z</time>
      </trkpt>
      <trkpt lat="45.94922" lon="4.94021">
        <ele>292.7</ele>
        <time>2023-09-02T15:32:47Z</time>
      </trkpt>
      <trkpt lat="45.94922" lon="4.94025">
        <ele>292.7</ele>
        <time>2023-09-02T15:32:48Z</time>
      </trkpt>
      <trkpt lat="45.94924" lon="4.9403">
        <ele>292.7</ele>
        <time>2023-09-02T15:32:49Z</time>
      </trkpt>
      <trkpt lat="45.94925" lon="4.94032">
        <ele>292.7</ele>
        <time>2023-09-02T15:32:50Z</time>
      </trkpt>
      <trkpt lat="45.94926" lon="4.94037">
        <ele>292.7</ele>
        <time>2023-09-02T15:32:51Z</time>
      </trkpt>
      <trkpt lat="45.94927" lon="4.94042">
        <ele>292.7</ele>
        <time>2023-09-02T15:32:52Z</time>
      </trkpt>
      <trkpt lat="45.94928" lon="4.94044">
        <ele>292.7</ele>
        <time>2023-09-02T15:32:53Z</time>
      </trkpt>
      <trkpt lat="45.94929" lon="4.94049">
        <ele>292.7</ele>
        <time>2023-09-02T15:32:54Z</time>
      </trkpt>
      <trkpt lat="45.9493" lon="4.94051">
        <ele>292.7</ele>
        <time>2023-09-02T15:32:55Z</time>
      </trkpt>
      <trkpt lat="45.9493" lon="4.94055">
        <ele>292.6</ele>
        <time>2023-09-02T15:32:56Z</time>
      </trkpt>
      <trkpt lat="45.94932" lon="4.9406">
        <ele>292.6</ele>
        <time>2023-09-02T15:32:57Z</time>
      </trkpt>
      <trkpt lat="45.94932" lon="4.94062">
        <ele>292.6</ele>
        <time>2023-09-02T15:32:58Z</time>
      </trkpt>
      <trkpt lat="45.94933" lon="4.94066">
        <ele>292.6</ele>
        <time>2023-09-02T15:32:59Z</time>
      </trkpt>
      <trkpt lat="45.94935" lon="4.9407">
        <ele>292.5</ele>
        <time>2023-09-02T15:33:00Z</time>
      </trkpt>
      <trkpt lat="45.94936" lon="4.94074">
        <ele>292.5</ele>
        <time>2023-09-02T15:33:01Z</time>
      </trkpt>
      <trkpt lat="45.94937" lon="4.94078">
        <ele>292.5</ele>
        <time>2023-09-02T15:33:02Z</time>
      </trkpt>
      <trkpt lat="45.94939" lon="4.94084">
        <ele>292.5</ele>
        <time>2023-09-02T15:33:03Z</time>
      </trkpt>
      <trkpt lat="45.94939" lon="4.94086">
        <ele>292.4</ele>
        <time>2023-09-02T15:33:04Z</time>
      </trkpt>
      <trkpt lat="45.94941" lon="4.9409">
        <ele>292.4</ele>
        <time>2023-09-02T15:33:05Z</time>
      </trkpt>
      <trkpt lat="45.94941" lon="4.94094">
        <ele>292.4</ele>
        <time>2023-09-02T15:33:06Z</time>
      </trkpt>
      <trkpt lat="45.94942" lon="4.94097">
        <ele>292.4</ele>
        <time>2023-09-02T15:33:07Z</time>
      </trkpt>
      <trkpt lat="45.94943" lon="4.94101">
        <ele>292.4</ele>
        <time>2023-09-02T15:33:08Z</time>
      </trkpt>
      <trkpt lat="45.94945" lon="4.94106">
        <ele>292.4</ele>
        <time>2023-09-02T15:33:09Z</time>
      </trkpt>
      <trkpt lat="45.94946" lon="4.9411">
        <ele>292.3</ele>
        <time>2023-09-02T15:33:10Z</time>
      </trkpt>
      <trkpt lat="45.94947" lon="4.94115">
        <ele>292.3</ele>
        <time>2023-09-02T15:33:11Z</time>
      </trkpt>
      <trkpt lat="45.94948" lon="4.94119">
        <ele>292.3</ele>
        <time>2023-09-02T15:33:12Z</time>
      </trkpt>
      <trkpt lat="45.94949" lon="4.94123">
        <ele>292.3</ele>
        <time>2023-09-02T15:33:13Z</time>
      </trkpt>
      <trkpt lat="45.94951" lon="4.94127">
        <ele>292.2</ele>
        <time>2023-09-02T15:33:14Z</time>
      </trkpt>
      <trkpt lat="45.94951" lon="4.94131">
        <ele>292.2</ele>
        <time>2023-09-02T15:33:15Z</time>
      </trkpt>
      <trkpt lat="45.94953" lon="4.94135">
        <ele>292.2</ele>
        <time>2023-09-02T15:33:16Z</time>
      </trkpt>
      <trkpt lat="45.94954" lon="4.9414">
        <ele>292.2</ele>
        <time>2023-09-02T15:33:17Z</time>
      </trkpt>
      <trkpt lat="45.94955" lon="4.94144">
        <ele>292.2</ele>
        <time>2023-09-02T15:33:18Z</time>
      </trkpt>
      <trkpt lat="45.94956" lon="4.94149">
        <ele>292.2</ele>
        <time>2023-09-02T15:33:19Z</time>
      </trkpt>
      <trkpt lat="45.94957" lon="4.94153">
        <ele>292.1</ele>
        <time>2023-09-02T15:33:20Z</time>
      </trkpt>
      <trkpt lat="45.94958" lon="4.94158">
        <ele>292.1</ele>
        <time>2023-09-02T15:33:21Z</time>
      </trkpt>
      <trkpt lat="45.94958" lon="4.94162">
        <ele>292.1</ele>
        <time>2023-09-02T15:33:22Z</time>
      </trkpt>
      <trkpt lat="45.94959" lon="4.94166">
        <ele>292.1</ele>
        <time>2023-09-02T15:33:23Z</time>
      </trkpt>
      <trkpt lat="45.9496" lon="4.9417">
        <ele>292</ele>
        <time>2023-09-02T15:33:24Z</time>
      </trkpt>
      <trkpt lat="45.94961" lon="4.94175">
        <ele>292</ele>
        <time>2023-09-02T15:33:25Z</time>
      </trkpt>
      <trkpt lat="45.94962" lon="4.94179">
        <ele>292</ele>
        <time>2023-09-02T15:33:26Z</time>
      </trkpt>
      <trkpt lat="45.94963" lon="4.94184">
        <ele>291.9</ele>
        <time>2023-09-02T15:33:27Z</time>
      </trkpt>
      <trkpt lat="45.94963" lon="4.94188">
        <ele>291.9</ele>
        <time>2023-09-02T15:33:28Z</time>
      </trkpt>
      <trkpt lat="45.94964" lon="4.94193">
        <ele>291.9</ele>
        <time>2023-09-02T15:33:29Z</time>
      </trkpt>
      <trkpt lat="45.94965" lon="4.94198">
        <ele>291.8</ele>
        <time>2023-09-02T15:33:30Z</time>
      </trkpt>
      <trkpt lat="45.94965" lon="4.94202">
        <ele>291.8</ele>
        <time>2023-09-02T15:33:31Z</time>
      </trkpt>
      <trkpt lat="45.94966" lon="4.94207">
        <ele>291.8</ele>
        <time>2023-09-02T15:33:32Z</time>
      </trkpt>
      <trkpt lat="45.94966" lon="4.94211">
        <ele>291.8</ele>
        <time>2023-09-02T15:33:33Z</time>
      </trkpt>
      <trkpt lat="45.94967" lon="4.94216">
        <ele>291.7</ele>
        <time>2023-09-02T15:33:34Z</time>
      </trkpt>
      <trkpt lat="45.94968" lon="4.94221">
        <ele>291.7</ele>
        <time>2023-09-02T15:33:35Z</time>
      </trkpt>
      <trkpt lat="45.94968" lon="4.94225">
        <ele>291.7</ele>
        <time>2023-09-02T15:33:36Z</time>
      </trkpt>
      <trkpt lat="45.94968" lon="4.9423">
        <ele>291.7</ele>
        <time>2023-09-02T15:33:37Z</time>
      </trkpt>
      <trkpt lat="45.94969" lon="4.94235">
        <ele>291.6</ele>
        <time>2023-09-02T15:33:38Z</time>
      </trkpt>
      <trkpt lat="45.9497" lon="4.9424">
        <ele>291.6</ele>
        <time>2023-09-02T15:33:39Z</time>
      </trkpt>
      <trkpt lat="45.9497" lon="4.94244">
        <ele>291.6</ele>
        <time>2023-09-02T15:33:40Z</time>
      </trkpt>
      <trkpt lat="45.9497" lon="4.94249">
        <ele>291.5</ele>
        <time>2023-09-02T15:33:41Z</time>
      </trkpt>
      <trkpt lat="45.9497" lon="4.94253">
        <ele>291.5</ele>
        <time>2023-09-02T15:33:42Z</time>
      </trkpt>
      <trkpt lat="45.9497" lon="4.94258">
        <ele>291.5</ele>
        <time>2023-09-02T15:33:43Z</time>
      </trkpt>
      <trkpt lat="45.94971" lon="4.94262">
        <ele>291.5</ele>
        <time>2023-09-02T15:33:44Z</time>
      </trkpt>
      <trkpt lat="45.94971" lon="4.94266">
        <ele>291.4</ele>
        <time>2023-09-02T15:33:45Z</time>
      </trkpt>
      <trkpt lat="45.94971" lon="4.9427">
        <ele>291.4</ele>
        <time>2023-09-02T15:33:46Z</time>
      </trkpt>
      <trkpt lat="45.94971" lon="4.94275">
        <ele>291.4</ele>
        <time>2023-09-02T15:33:47Z</time>
      </trkpt>
      <trkpt lat="45.94972" lon="4.94279">
        <ele>291.3</ele>
        <time>2023-09-02T15:33:48Z</time>
      </trkpt>
      <trkpt lat="45.94972" lon="4.94284">
        <ele>291.3</ele>
        <time>2023-09-02T15:33:49Z</time>
      </trkpt>
      <trkpt lat="45.94972" lon="4.94288">
        <ele>291.3</ele>
        <time>2023-09-02T15:33:50Z</time>
      </trkpt>
      <trkpt lat="45.94972" lon="4.94293">
        <ele>291.3</ele>
        <time>2023-09-02T15:33:51Z</time>
      </trkpt>
      <trkpt lat="45.94972" lon="4.94302">
        <ele>291.2</ele>
        <time>2023-09-02T15:33:52Z</time>
      </trkpt>
      <trkpt lat="45.94972" lon="4.94307">
        <ele>291.2</ele>
        <time>2023-09-02T15:33:53Z</time>
      </trkpt>
      <trkpt lat="45.94973" lon="4.94311">
        <ele>291.2</ele>
        <time>2023-09-02T15:33:54Z</time>
      </trkpt>
      <trkpt lat="45.94972" lon="4.94316">
        <ele>291.2</ele>
        <time>2023-09-02T15:33:55Z</time>
      </trkpt>
      <trkpt lat="45.94973" lon="4.9432">
        <ele>291.2</ele>
        <time>2023-09-02T15:33:56Z</time>
      </trkpt>
      <trkpt lat="45.94972" lon="4.94325">
        <ele>291.2</ele>
        <time>2023-09-02T15:33:57Z</time>
      </trkpt>
      <trkpt lat="45.94972" lon="4.9433">
        <ele>291.2</ele>
        <time>2023-09-02T15:33:58Z</time>
      </trkpt>
      <trkpt lat="45.94973" lon="4.94334">
        <ele>291.2</ele>
        <time>2023-09-02T15:33:59Z</time>
      </trkpt>
      <trkpt lat="45.94973" lon="4.94339">
        <ele>291.2</ele>
        <time>2023-09-02T15:34:00Z</time>
      </trkpt>
      <trkpt lat="45.94973" lon="4.94343">
        <ele>291.2</ele>
        <time>2023-09-02T15:34:01Z</time>
      </trkpt>
      <trkpt lat="45.94973" lon="4.94347">
        <ele>291.2</ele>
        <time>2023-09-02T15:34:02Z</time>
      </trkpt>
      <trkpt lat="45.94973" lon="4.94352">
        <ele>291.2</ele>
        <time>2023-09-02T15:34:03Z</time>
      </trkpt>
      <trkpt lat="45.94973" lon="4.94356">
        <ele>291.2</ele>
        <time>2023-09-02T15:34:04Z</time>
      </trkpt>
      <trkpt lat="45.94973" lon="4.9436">
        <ele>291.2</ele>
        <time>2023-09-02T15:34:05Z</time>
      </trkpt>
      <trkpt lat="45.94973" lon="4.94365">
        <ele>291.1</ele>
        <time>2023-09-02T15:34:06Z</time>
      </trkpt>
      <trkpt lat="45.94973" lon="4.94369">
        <ele>291.1</ele>
        <time>2023-09-02T15:34:07Z</time>
      </trkpt>
      <trkpt lat="45.94974" lon="4.94373">
        <ele>291.1</ele>
        <time>2023-09-02T15:34:08Z</time>
      </trkpt>
      <trkpt lat="45.94973" lon="4.94378">
        <ele>291.1</ele>
        <time>2023-09-02T15:34:09Z</time>
      </trkpt>
      <trkpt lat="45.94974" lon="4.94382">
        <ele>291.1</ele>
        <time>2023-09-02T15:34:10Z</time>
      </trkpt>
      <trkpt lat="45.94974" lon="4.94387">
        <ele>291.1</ele>
        <time>2023-09-02T15:34:12Z</time>
      </trkpt>
      <trkpt lat="45.94974" lon="4.94391">
        <ele>291.1</ele>
        <time>2023-09-02T15:34:13Z</time>
      </trkpt>
      <trkpt lat="45.94974" lon="4.94396">
        <ele>291</ele>
        <time>2023-09-02T15:34:14Z</time>
      </trkpt>
      <trkpt lat="45.94975" lon="4.94402">
        <ele>291</ele>
        <time>2023-09-02T15:34:15Z</time>
      </trkpt>
      <trkpt lat="45.94974" lon="4.94406">
        <ele>291</ele>
        <time>2023-09-02T15:34:16Z</time>
      </trkpt>
      <trkpt lat="45.94975" lon="4.9441">
        <ele>290.9</ele>
        <time>2023-09-02T15:34:17Z</time>
      </trkpt>
      <trkpt lat="45.94975" lon="4.94415">
        <ele>290.9</ele>
        <time>2023-09-02T15:34:18Z</time>
      </trkpt>
      <trkpt lat="45.94976" lon="4.94419">
        <ele>290.9</ele>
        <time>2023-09-02T15:34:19Z</time>
      </trkpt>
      <trkpt lat="45.94976" lon="4.94424">
        <ele>290.8</ele>
        <time>2023-09-02T15:34:20Z</time>
      </trkpt>
      <trkpt lat="45.94976" lon="4.94429">
        <ele>290.8</ele>
        <time>2023-09-02T15:34:21Z</time>
      </trkpt>
      <trkpt lat="45.94977" lon="4.94434">
        <ele>290.8</ele>
        <time>2023-09-02T15:34:22Z</time>
      </trkpt>
      <trkpt lat="45.94977" lon="4.94438">
        <ele>290.7</ele>
        <time>2023-09-02T15:34:23Z</time>
      </trkpt>
      <trkpt lat="45.94977" lon="4.94443">
        <ele>290.7</ele>
        <time>2023-09-02T15:34:24Z</time>
      </trkpt>
      <trkpt lat="45.94977" lon="4.94448">
        <ele>290.7</ele>
        <time>2023-09-02T15:34:25Z</time>
      </trkpt>
      <trkpt lat="45.94977" lon="4.94452">
        <ele>290.6</ele>
        <time>2023-09-02T15:34:26Z</time>
      </trkpt>
      <trkpt lat="45.94977" lon="4.94457">
        <ele>290.6</ele>
        <time>2023-09-02T15:34:27Z</time>
      </trkpt>
      <trkpt lat="45.94977" lon="4.94462">
        <ele>290.6</ele>
        <time>2023-09-02T15:34:28Z</time>
      </trkpt>
      <trkpt lat="45.94978" lon="4.94466">
        <ele>290.6</ele>
        <time>2023-09-02T15:34:29Z</time>
      </trkpt>
      <trkpt lat="45.94978" lon="4.94471">
        <ele>290.6</ele>
        <time>2023-09-02T15:34:30Z</time>
      </trkpt>
      <trkpt lat="45.94977" lon="4.94475">
        <ele>290.6</ele>
        <time>2023-09-02T15:34:31Z</time>
      </trkpt>
      <trkpt lat="45.94975" lon="4.9448">
        <ele>290.6</ele>
        <time>2023-09-02T15:34:32Z</time>
      </trkpt>
      <trkpt lat="45.94974" lon="4.94482">
        <ele>290.6</ele>
        <time>2023-09-02T15:34:33Z</time>
      </trkpt>
      <trkpt lat="45.94973" lon="4.94486">
        <ele>290.6</ele>
        <time>2023-09-02T15:34:34Z</time>
      </trkpt>
      <trkpt lat="45.94972" lon="4.9449">
        <ele>290.6</ele>
        <time>2023-09-02T15:34:35Z</time>
      </trkpt>
      <trkpt lat="45.94971" lon="4.94494">
        <ele>290.6</ele>
        <time>2023-09-02T15:34:36Z</time>
      </trkpt>
      <trkpt lat="45.94971" lon="4.94499">
        <ele>290.6</ele>
        <time>2023-09-02T15:34:37Z</time>
      </trkpt>
      <trkpt lat="45.94971" lon="4.94503">
        <ele>290.6</ele>
        <time>2023-09-02T15:34:38Z</time>
      </trkpt>
      <trkpt lat="45.9497" lon="4.94507">
        <ele>290.6</ele>
        <time>2023-09-02T15:34:39Z</time>
      </trkpt>
      <trkpt lat="45.9497" lon="4.94511">
        <ele>290.7</ele>
        <time>2023-09-02T15:34:40Z</time>
      </trkpt>
      <trkpt lat="45.94969" lon="4.94516">
        <ele>290.7</ele>
        <time>2023-09-02T15:34:41Z</time>
      </trkpt>
      <trkpt lat="45.94969" lon="4.9452">
        <ele>290.7</ele>
        <time>2023-09-02T15:34:42Z</time>
      </trkpt>
      <trkpt lat="45.94969" lon="4.94525">
        <ele>290.7</ele>
        <time>2023-09-02T15:34:43Z</time>
      </trkpt>
      <trkpt lat="45.94969" lon="4.94529">
        <ele>290.7</ele>
        <time>2023-09-02T15:34:44Z</time>
      </trkpt>
      <trkpt lat="45.94969" lon="4.94533">
        <ele>290.7</ele>
        <time>2023-09-02T15:34:45Z</time>
      </trkpt>
      <trkpt lat="45.94969" lon="4.94538">
        <ele>290.8</ele>
        <time>2023-09-02T15:34:46Z</time>
      </trkpt>
      <trkpt lat="45.94968" lon="4.94542">
        <ele>290.8</ele>
        <time>2023-09-02T15:34:47Z</time>
      </trkpt>
      <trkpt lat="45.94968" lon="4.94547">
        <ele>290.8</ele>
        <time>2023-09-02T15:34:48Z</time>
      </trkpt>
      <trkpt lat="45.94968" lon="4.94551">
        <ele>290.8</ele>
        <time>2023-09-02T15:34:49Z</time>
      </trkpt>
      <trkpt lat="45.94968" lon="4.94555">
        <ele>290.8</ele>
        <time>2023-09-02T15:34:50Z</time>
      </trkpt>
      <trkpt lat="45.94967" lon="4.9456">
        <ele>290.8</ele>
        <time>2023-09-02T15:34:51Z</time>
      </trkpt>
      <trkpt lat="45.94967" lon="4.94564">
        <ele>290.8</ele>
        <time>2023-09-02T15:34:52Z</time>
      </trkpt>
      <trkpt lat="45.94966" lon="4.94568">
        <ele>290.9</ele>
        <time>2023-09-02T15:34:53Z</time>
      </trkpt>
      <trkpt lat="45.94966" lon="4.94572">
        <ele>290.9</ele>
        <time>2023-09-02T15:34:54Z</time>
      </trkpt>
      <trkpt lat="45.94965" lon="4.94576">
        <ele>290.9</ele>
        <time>2023-09-02T15:34:55Z</time>
      </trkpt>
      <trkpt lat="45.94964" lon="4.94581">
        <ele>290.9</ele>
        <time>2023-09-02T15:34:56Z</time>
      </trkpt>
      <trkpt lat="45.94963" lon="4.94585">
        <ele>290.8</ele>
        <time>2023-09-02T15:34:57Z</time>
      </trkpt>
      <trkpt lat="45.94962" lon="4.94589">
        <ele>290.8</ele>
        <time>2023-09-02T15:34:58Z</time>
      </trkpt>
      <trkpt lat="45.94961" lon="4.94594">
        <ele>290.8</ele>
        <time>2023-09-02T15:34:59Z</time>
      </trkpt>
      <trkpt lat="45.9496" lon="4.94598">
        <ele>290.8</ele>
        <time>2023-09-02T15:35:00Z</time>
      </trkpt>
      <trkpt lat="45.94959" lon="4.94603">
        <ele>290.8</ele>
        <time>2023-09-02T15:35:01Z</time>
      </trkpt>
      <trkpt lat="45.94958" lon="4.94607">
        <ele>290.8</ele>
        <time>2023-09-02T15:35:02Z</time>
      </trkpt>
      <trkpt lat="45.94957" lon="4.94611">
        <ele>290.8</ele>
        <time>2023-09-02T15:35:03Z</time>
      </trkpt>
      <trkpt lat="45.94956" lon="4.94616">
        <ele>290.8</ele>
        <time>2023-09-02T15:35:04Z</time>
      </trkpt>
      <trkpt lat="45.94955" lon="4.9462">
        <ele>290.8</ele>
        <time>2023-09-02T15:35:05Z</time>
      </trkpt>
      <trkpt lat="45.94954" lon="4.94624">
        <ele>290.8</ele>
        <time>2023-09-02T15:35:06Z</time>
      </trkpt>
      <trkpt lat="45.94954" lon="4.94628">
        <ele>290.8</ele>
        <time>2023-09-02T15:35:07Z</time>
      </trkpt>
      <trkpt lat="45.94953" lon="4.94632">
        <ele>290.8</ele>
        <time>2023-09-02T15:35:08Z</time>
      </trkpt>
      <trkpt lat="45.94952" lon="4.94636">
        <ele>290.8</ele>
        <time>2023-09-02T15:35:09Z</time>
      </trkpt>
      <trkpt lat="45.94952" lon="4.9464">
        <ele>290.8</ele>
        <time>2023-09-02T15:35:10Z</time>
      </trkpt>
      <trkpt lat="45.94951" lon="4.94644">
        <ele>290.8</ele>
        <time>2023-09-02T15:35:11Z</time>
      </trkpt>
      <trkpt lat="45.9495" lon="4.94648">
        <ele>290.8</ele>
        <time>2023-09-02T15:35:12Z</time>
      </trkpt>
      <trkpt lat="45.9495" lon="4.94653">
        <ele>290.8</ele>
        <time>2023-09-02T15:35:13Z</time>
      </trkpt>
      <trkpt lat="45.94949" lon="4.94657">
        <ele>290.8</ele>
        <time>2023-09-02T15:35:14Z</time>
      </trkpt>
      <trkpt lat="45.94948" lon="4.94661">
        <ele>290.7</ele>
        <time>2023-09-02T15:35:15Z</time>
      </trkpt>
      <trkpt lat="45.94947" lon="4.94666">
        <ele>290.7</ele>
        <time>2023-09-02T15:35:16Z</time>
      </trkpt>
      <trkpt lat="45.94947" lon="4.9467">
        <ele>290.7</ele>
        <time>2023-09-02T15:35:17Z</time>
      </trkpt>
      <trkpt lat="45.94946" lon="4.94674">
        <ele>290.7</ele>
        <time>2023-09-02T15:35:18Z</time>
      </trkpt>
      <trkpt lat="45.94945" lon="4.94678">
        <ele>290.7</ele>
        <time>2023-09-02T15:35:19Z</time>
      </trkpt>
      <trkpt lat="45.94944" lon="4.94683">
        <ele>290.7</ele>
        <time>2023-09-02T15:35:20Z</time>
      </trkpt>
      <trkpt lat="45.94944" lon="4.94687">
        <ele>290.7</ele>
        <time>2023-09-02T15:35:21Z</time>
      </trkpt>
      <trkpt lat="45.94943" lon="4.94692">
        <ele>290.7</ele>
        <time>2023-09-02T15:35:22Z</time>
      </trkpt>
      <trkpt lat="45.94942" lon="4.94694">
        <ele>290.7</ele>
        <time>2023-09-02T15:35:23Z</time>
      </trkpt>
      <trkpt lat="45.94941" lon="4.94699">
        <ele>290.7</ele>
        <time>2023-09-02T15:35:24Z</time>
      </trkpt>
      <trkpt lat="45.94941" lon="4.947">
        <ele>290.7</ele>
        <time>2023-09-02T15:35:25Z</time>
      </trkpt>
      <trkpt lat="45.9494" lon="4.94705">
        <ele>290.7</ele>
        <time>2023-09-02T15:35:26Z</time>
      </trkpt>
      <trkpt lat="45.94939" lon="4.94706">
        <ele>290.7</ele>
        <time>2023-09-02T15:35:27Z</time>
      </trkpt>
      <trkpt lat="45.94938" lon="4.94711">
        <ele>290.7</ele>
        <time>2023-09-02T15:35:28Z</time>
      </trkpt>
      <trkpt lat="45.94938" lon="4.94713">
        <ele>290.7</ele>
        <time>2023-09-02T15:35:29Z</time>
      </trkpt>
      <trkpt lat="45.94937" lon="4.94718">
        <ele>290.7</ele>
        <time>2023-09-02T15:35:30Z</time>
      </trkpt>
      <trkpt lat="45.94937" lon="4.9472">
        <ele>290.7</ele>
        <time>2023-09-02T15:35:31Z</time>
      </trkpt>
      <trkpt lat="45.94936" lon="4.94723">
        <ele>290.7</ele>
        <time>2023-09-02T15:35:32Z</time>
      </trkpt>
      <trkpt lat="45.94933" lon="4.94727">
        <ele>290.7</ele>
        <time>2023-09-02T15:35:33Z</time>
      </trkpt>
      <trkpt lat="45.94932" lon="4.94728">
        <ele>290.7</ele>
        <time>2023-09-02T15:35:34Z</time>
      </trkpt>
      <trkpt lat="45.9493" lon="4.9473">
        <ele>290.7</ele>
        <time>2023-09-02T15:35:35Z</time>
      </trkpt>
      <trkpt lat="45.94927" lon="4.94732">
        <ele>290.7</ele>
        <time>2023-09-02T15:35:36Z</time>
      </trkpt>
      <trkpt lat="45.94924" lon="4.94733">
        <ele>290.7</ele>
        <time>2023-09-02T15:35:37Z</time>
      </trkpt>
      <trkpt lat="45.94921" lon="4.94734">
        <ele>290.7</ele>
        <time>2023-09-02T15:35:38Z</time>
      </trkpt>
      <trkpt lat="45.94918" lon="4.94734">
        <ele>290.7</ele>
        <time>2023-09-02T15:35:39Z</time>
      </trkpt>
      <trkpt lat="45.94915" lon="4.94735">
        <ele>290.7</ele>
        <time>2023-09-02T15:35:40Z</time>
      </trkpt>
      <trkpt lat="45.94912" lon="4.94735">
        <ele>290.6</ele>
        <time>2023-09-02T15:35:41Z</time>
      </trkpt>
      <trkpt lat="45.94909" lon="4.94735">
        <ele>290.6</ele>
        <time>2023-09-02T15:35:42Z</time>
      </trkpt>
      <trkpt lat="45.94907" lon="4.94736">
        <ele>290.6</ele>
        <time>2023-09-02T15:35:43Z</time>
      </trkpt>
      <trkpt lat="45.94903" lon="4.94736">
        <ele>290.6</ele>
        <time>2023-09-02T15:35:44Z</time>
      </trkpt>
      <trkpt lat="45.949" lon="4.94737">
        <ele>290.6</ele>
        <time>2023-09-02T15:35:45Z</time>
      </trkpt>
      <trkpt lat="45.94898" lon="4.94737">
        <ele>290.6</ele>
        <time>2023-09-02T15:35:46Z</time>
      </trkpt>
      <trkpt lat="45.94895" lon="4.94737">
        <ele>290.6</ele>
        <time>2023-09-02T15:35:47Z</time>
      </trkpt>
      <trkpt lat="45.94893" lon="4.94738">
        <ele>290.6</ele>
        <time>2023-09-02T15:35:48Z</time>
      </trkpt>
      <trkpt lat="45.94888" lon="4.94738">
        <ele>290.6</ele>
        <time>2023-09-02T15:35:49Z</time>
      </trkpt>
      <trkpt lat="45.94887" lon="4.94738">
        <ele>290.6</ele>
        <time>2023-09-02T15:35:50Z</time>
      </trkpt>
      <trkpt lat="45.94884" lon="4.94739">
        <ele>290.6</ele>
        <time>2023-09-02T15:35:51Z</time>
      </trkpt>
      <trkpt lat="45.94881" lon="4.94739">
        <ele>290.6</ele>
        <time>2023-09-02T15:35:52Z</time>
      </trkpt>
      <trkpt lat="45.94878" lon="4.94739">
        <ele>290.6</ele>
        <time>2023-09-02T15:35:53Z</time>
      </trkpt>
      <trkpt lat="45.94875" lon="4.9474">
        <ele>290.6</ele>
        <time>2023-09-02T15:35:54Z</time>
      </trkpt>
      <trkpt lat="45.9487" lon="4.94741">
        <ele>290.6</ele>
        <time>2023-09-02T15:35:55Z</time>
      </trkpt>
      <trkpt lat="45.94866" lon="4.94741">
        <ele>290.7</ele>
        <time>2023-09-02T15:35:56Z</time>
      </trkpt>
      <trkpt lat="45.94864" lon="4.94742">
        <ele>290.7</ele>
        <time>2023-09-02T15:35:57Z</time>
      </trkpt>
      <trkpt lat="45.94861" lon="4.94743">
        <ele>290.7</ele>
        <time>2023-09-02T15:35:58Z</time>
      </trkpt>
      <trkpt lat="45.94858" lon="4.94743">
        <ele>290.7</ele>
        <time>2023-09-02T15:35:59Z</time>
      </trkpt>
      <trkpt lat="45.94855" lon="4.94743">
        <ele>290.7</ele>
        <time>2023-09-02T15:36:00Z</time>
      </trkpt>
      <trkpt lat="45.94852" lon="4.94744">
        <ele>290.8</ele>
        <time>2023-09-02T15:36:01Z</time>
      </trkpt>
      <trkpt lat="45.94849" lon="4.94744">
        <ele>290.8</ele>
        <time>2023-09-02T15:36:02Z</time>
      </trkpt>
      <trkpt lat="45.94846" lon="4.94745">
        <ele>290.8</ele>
        <time>2023-09-02T15:36:03Z</time>
      </trkpt>
      <trkpt lat="45.94843" lon="4.94745">
        <ele>290.8</ele>
        <time>2023-09-02T15:36:04Z</time>
      </trkpt>
      <trkpt lat="45.9484" lon="4.94746">
        <ele>290.8</ele>
        <time>2023-09-02T15:36:05Z</time>
      </trkpt>
      <trkpt lat="45.94837" lon="4.94747">
        <ele>290.8</ele>
        <time>2023-09-02T15:36:06Z</time>
      </trkpt>
      <trkpt lat="45.94834" lon="4.94747">
        <ele>290.8</ele>
        <time>2023-09-02T15:36:07Z</time>
      </trkpt>
      <trkpt lat="45.94831" lon="4.94748">
        <ele>290.8</ele>
        <time>2023-09-02T15:36:08Z</time>
      </trkpt>
      <trkpt lat="45.94827" lon="4.94749">
        <ele>290.8</ele>
        <time>2023-09-02T15:36:09Z</time>
      </trkpt>
      <trkpt lat="45.94826" lon="4.94749">
        <ele>290.8</ele>
        <time>2023-09-02T15:36:10Z</time>
      </trkpt>
      <trkpt lat="45.94823" lon="4.9475">
        <ele>290.8</ele>
        <time>2023-09-02T15:36:11Z</time>
      </trkpt>
      <trkpt lat="45.94819" lon="4.94751">
        <ele>290.8</ele>
        <time>2023-09-02T15:36:12Z</time>
      </trkpt>
      <trkpt lat="45.94816" lon="4.94751">
        <ele>290.8</ele>
        <time>2023-09-02T15:36:13Z</time>
      </trkpt>
      <trkpt lat="45.94813" lon="4.94752">
        <ele>290.8</ele>
        <time>2023-09-02T15:36:14Z</time>
      </trkpt>
      <trkpt lat="45.9481" lon="4.94752">
        <ele>290.8</ele>
        <time>2023-09-02T15:36:15Z</time>
      </trkpt>
      <trkpt lat="45.94807" lon="4.94753">
        <ele>290.8</ele>
        <time>2023-09-02T15:36:16Z</time>
      </trkpt>
      <trkpt lat="45.94804" lon="4.94754">
        <ele>290.8</ele>
        <time>2023-09-02T15:36:17Z</time>
      </trkpt>
      <trkpt lat="45.94801" lon="4.94754">
        <ele>290.8</ele>
        <time>2023-09-02T15:36:18Z</time>
      </trkpt>
      <trkpt lat="45.94798" lon="4.94755">
        <ele>290.8</ele>
        <time>2023-09-02T15:36:19Z</time>
      </trkpt>
      <trkpt lat="45.94794" lon="4.94756">
        <ele>290.8</ele>
        <time>2023-09-02T15:36:20Z</time>
      </trkpt>
      <trkpt lat="45.94793" lon="4.94756">
        <ele>290.8</ele>
        <time>2023-09-02T15:36:21Z</time>
      </trkpt>
      <trkpt lat="45.94789" lon="4.94756">
        <ele>290.8</ele>
        <time>2023-09-02T15:36:22Z</time>
      </trkpt>
      <trkpt lat="45.94788" lon="4.94756">
        <ele>290.8</ele>
        <time>2023-09-02T15:36:23Z</time>
      </trkpt>
      <trkpt lat="45.94785" lon="4.94756">
        <ele>290.8</ele>
        <time>2023-09-02T15:36:24Z</time>
      </trkpt>
      <trkpt lat="45.94782" lon="4.94756">
        <ele>290.8</ele>
        <time>2023-09-02T15:36:25Z</time>
      </trkpt>
      <trkpt lat="45.94779" lon="4.94756">
        <ele>290.7</ele>
        <time>2023-09-02T15:36:26Z</time>
      </trkpt>
      <trkpt lat="45.94776" lon="4.94756">
        <ele>290.7</ele>
        <time>2023-09-02T15:36:27Z</time>
      </trkpt>
      <trkpt lat="45.94773" lon="4.94756">
        <ele>290.7</ele>
        <time>2023-09-02T15:36:28Z</time>
      </trkpt>
      <trkpt lat="45.94769" lon="4.94756">
        <ele>290.7</ele>
        <time>2023-09-02T15:36:29Z</time>
      </trkpt>
      <trkpt lat="45.94768" lon="4.94756">
        <ele>290.7</ele>
        <time>2023-09-02T15:36:30Z</time>
      </trkpt>
      <trkpt lat="45.94765" lon="4.94756">
        <ele>290.7</ele>
        <time>2023-09-02T15:36:31Z</time>
      </trkpt>
      <trkpt lat="45.94762" lon="4.94756">
        <ele>290.7</ele>
        <time>2023-09-02T15:36:32Z</time>
      </trkpt>
      <trkpt lat="45.94759" lon="4.94755">
        <ele>290.7</ele>
        <time>2023-09-02T15:36:33Z</time>
      </trkpt>
      <trkpt lat="45.94754" lon="4.94755">
        <ele>290.7</ele>
        <time>2023-09-02T15:36:34Z</time>
      </trkpt>
      <trkpt lat="45.94753" lon="4.94755">
        <ele>290.7</ele>
        <time>2023-09-02T15:36:35Z</time>
      </trkpt>
      <trkpt lat="45.9475" lon="4.94756">
        <ele>290.7</ele>
        <time>2023-09-02T15:36:36Z</time>
      </trkpt>
      <trkpt lat="45.94747" lon="4.94755">
        <ele>290.7</ele>
        <time>2023-09-02T15:36:37Z</time>
      </trkpt>
      <trkpt lat="45.94744" lon="4.94755">
        <ele>290.6</ele>
        <time>2023-09-02T15:36:38Z</time>
      </trkpt>
      <trkpt lat="45.94741" lon="4.94756">
        <ele>290.6</ele>
        <time>2023-09-02T15:36:39Z</time>
      </trkpt>
      <trkpt lat="45.94737" lon="4.94756">
        <ele>290.6</ele>
        <time>2023-09-02T15:36:40Z</time>
      </trkpt>
      <trkpt lat="45.94734" lon="4.94756">
        <ele>290.6</ele>
        <time>2023-09-02T15:36:41Z</time>
      </trkpt>
      <trkpt lat="45.94732" lon="4.94755">
        <ele>290.6</ele>
        <time>2023-09-02T15:36:42Z</time>
      </trkpt>
      <trkpt lat="45.94729" lon="4.94755">
        <ele>290.6</ele>
        <time>2023-09-02T15:36:43Z</time>
      </trkpt>
      <trkpt lat="45.94726" lon="4.94755">
        <ele>290.6</ele>
        <time>2023-09-02T15:36:44Z</time>
      </trkpt>
      <trkpt lat="45.94723" lon="4.94755">
        <ele>290.6</ele>
        <time>2023-09-02T15:36:45Z</time>
      </trkpt>
      <trkpt lat="45.9472" lon="4.94755">
        <ele>290.6</ele>
        <time>2023-09-02T15:36:46Z</time>
      </trkpt>
      <trkpt lat="45.94717" lon="4.94755">
        <ele>290.6</ele>
        <time>2023-09-02T15:36:47Z</time>
      </trkpt>
      <trkpt lat="45.94714" lon="4.94755">
        <ele>290.6</ele>
        <time>2023-09-02T15:36:48Z</time>
      </trkpt>
      <trkpt lat="45.94711" lon="4.94755">
        <ele>290.6</ele>
        <time>2023-09-02T15:36:49Z</time>
      </trkpt>
      <trkpt lat="45.94707" lon="4.94754">
        <ele>290.5</ele>
        <time>2023-09-02T15:36:50Z</time>
      </trkpt>
      <trkpt lat="45.94705" lon="4.94754">
        <ele>290.5</ele>
        <time>2023-09-02T15:36:51Z</time>
      </trkpt>
      <trkpt lat="45.94703" lon="4.94755">
        <ele>290.5</ele>
        <time>2023-09-02T15:36:52Z</time>
      </trkpt>
      <trkpt lat="45.94699" lon="4.94755">
        <ele>290.5</ele>
        <time>2023-09-02T15:36:53Z</time>
      </trkpt>
      <trkpt lat="45.94697" lon="4.94754">
        <ele>290.5</ele>
        <time>2023-09-02T15:36:54Z</time>
      </trkpt>
      <trkpt lat="45.94694" lon="4.94754">
        <ele>290.5</ele>
        <time>2023-09-02T15:36:55Z</time>
      </trkpt>
      <trkpt lat="45.94691" lon="4.94754">
        <ele>290.5</ele>
        <time>2023-09-02T15:36:56Z</time>
      </trkpt>
      <trkpt lat="45.94688" lon="4.94755">
        <ele>290.5</ele>
        <time>2023-09-02T15:36:57Z</time>
      </trkpt>
      <trkpt lat="45.94685" lon="4.94755">
        <ele>290.4</ele>
        <time>2023-09-02T15:36:58Z</time>
      </trkpt>
      <trkpt lat="45.94681" lon="4.94755">
        <ele>290.4</ele>
        <time>2023-09-02T15:36:59Z</time>
      </trkpt>
      <trkpt lat="45.94678" lon="4.94755">
        <ele>290.4</ele>
        <time>2023-09-02T15:37:00Z</time>
      </trkpt>
      <trkpt lat="45.94675" lon="4.94755">
        <ele>290.4</ele>
        <time>2023-09-02T15:37:01Z</time>
      </trkpt>
      <trkpt lat="45.94672" lon="4.94755">
        <ele>290.4</ele>
        <time>2023-09-02T15:37:02Z</time>
      </trkpt>
      <trkpt lat="45.94669" lon="4.94755">
        <ele>290.4</ele>
        <time>2023-09-02T15:37:03Z</time>
      </trkpt>
      <trkpt lat="45.94666" lon="4.94755">
        <ele>290.4</ele>
        <time>2023-09-02T15:37:04Z</time>
      </trkpt>
      <trkpt lat="45.94663" lon="4.94755">
        <ele>290.4</ele>
        <time>2023-09-02T15:37:05Z</time>
      </trkpt>
      <trkpt lat="45.94661" lon="4.94754">
        <ele>290.4</ele>
        <time>2023-09-02T15:37:06Z</time>
      </trkpt>
      <trkpt lat="45.94658" lon="4.94754">
        <ele>290.4</ele>
        <time>2023-09-02T15:37:07Z</time>
      </trkpt>
      <trkpt lat="45.94655" lon="4.94752">
        <ele>290.4</ele>
        <time>2023-09-02T15:37:08Z</time>
      </trkpt>
      <trkpt lat="45.94652" lon="4.9475">
        <ele>290.4</ele>
        <time>2023-09-02T15:37:09Z</time>
      </trkpt>
      <trkpt lat="45.9465" lon="4.94747">
        <ele>290.3</ele>
        <time>2023-09-02T15:37:10Z</time>
      </trkpt>
      <trkpt lat="45.94647" lon="4.94744">
        <ele>290.3</ele>
        <time>2023-09-02T15:37:11Z</time>
      </trkpt>
      <trkpt lat="45.94645" lon="4.94742">
        <ele>290.3</ele>
        <time>2023-09-02T15:37:12Z</time>
      </trkpt>
      <trkpt lat="45.94643" lon="4.94739">
        <ele>290.3</ele>
        <time>2023-09-02T15:37:13Z</time>
      </trkpt>
      <trkpt lat="45.9464" lon="4.94736">
        <ele>290.2</ele>
        <time>2023-09-02T15:37:14Z</time>
      </trkpt>
      <trkpt lat="45.94638" lon="4.94733">
        <ele>290.2</ele>
        <time>2023-09-02T15:37:15Z</time>
      </trkpt>
      <trkpt lat="45.94636" lon="4.9473">
        <ele>290.2</ele>
        <time>2023-09-02T15:37:16Z</time>
      </trkpt>
      <trkpt lat="45.94633" lon="4.94728">
        <ele>290.2</ele>
        <time>2023-09-02T15:37:17Z</time>
      </trkpt>
      <trkpt lat="45.94631" lon="4.94725">
        <ele>290.1</ele>
        <time>2023-09-02T15:37:18Z</time>
      </trkpt>
      <trkpt lat="45.94628" lon="4.94723">
        <ele>290.1</ele>
        <time>2023-09-02T15:37:19Z</time>
      </trkpt>
      <trkpt lat="45.94625" lon="4.94721">
        <ele>290.1</ele>
        <time>2023-09-02T15:37:20Z</time>
      </trkpt>
      <trkpt lat="45.94622" lon="4.94717">
        <ele>290.1</ele>
        <time>2023-09-02T15:37:21Z</time>
      </trkpt>
      <trkpt lat="45.94621" lon="4.94716">
        <ele>290.1</ele>
        <time>2023-09-02T15:37:22Z</time>
      </trkpt>
      <trkpt lat="45.94618" lon="4.94713">
        <ele>290.1</ele>
        <time>2023-09-02T15:37:23Z</time>
      </trkpt>
      <trkpt lat="45.94616" lon="4.94711">
        <ele>290</ele>
        <time>2023-09-02T15:37:24Z</time>
      </trkpt>
      <trkpt lat="45.94614" lon="4.9471">
        <ele>290</ele>
        <time>2023-09-02T15:37:25Z</time>
      </trkpt>
      <trkpt lat="45.9461" lon="4.94707">
        <ele>290</ele>
        <time>2023-09-02T15:37:27Z</time>
      </trkpt>
      <trkpt lat="45.94609" lon="4.94707">
        <ele>290</ele>
        <time>2023-09-02T15:37:28Z</time>
      </trkpt>
      <trkpt lat="45.94606" lon="4.94705">
        <ele>290</ele>
        <time>2023-09-02T15:37:29Z</time>
      </trkpt>
      <trkpt lat="45.94603" lon="4.94703">
        <ele>290</ele>
        <time>2023-09-02T15:37:30Z</time>
      </trkpt>
      <trkpt lat="45.946" lon="4.94702">
        <ele>290</ele>
        <time>2023-09-02T15:37:31Z</time>
      </trkpt>
      <trkpt lat="45.94598" lon="4.947">
        <ele>290</ele>
        <time>2023-09-02T15:37:32Z</time>
      </trkpt>
      <trkpt lat="45.94595" lon="4.94698">
        <ele>290</ele>
        <time>2023-09-02T15:37:33Z</time>
      </trkpt>
      <trkpt lat="45.94592" lon="4.94696">
        <ele>290</ele>
        <time>2023-09-02T15:37:34Z</time>
      </trkpt>
      <trkpt lat="45.94589" lon="4.94695">
        <ele>290</ele>
        <time>2023-09-02T15:37:35Z</time>
      </trkpt>
      <trkpt lat="45.94586" lon="4.94693">
        <ele>290</ele>
        <time>2023-09-02T15:37:36Z</time>
      </trkpt>
      <trkpt lat="45.94583" lon="4.94691">
        <ele>290</ele>
        <time>2023-09-02T15:37:37Z</time>
      </trkpt>
      <trkpt lat="45.9458" lon="4.9469">
        <ele>290</ele>
        <time>2023-09-02T15:37:38Z</time>
      </trkpt>
      <trkpt lat="45.94578" lon="4.94688">
        <ele>290</ele>
        <time>2023-09-02T15:37:39Z</time>
      </trkpt>
      <trkpt lat="45.94575" lon="4.94686">
        <ele>290</ele>
        <time>2023-09-02T15:37:40Z</time>
      </trkpt>
      <trkpt lat="45.94572" lon="4.94684">
        <ele>290</ele>
        <time>2023-09-02T15:37:41Z</time>
      </trkpt>
      <trkpt lat="45.94569" lon="4.94682">
        <ele>290</ele>
        <time>2023-09-02T15:37:42Z</time>
      </trkpt>
      <trkpt lat="45.94566" lon="4.94681">
        <ele>289.9</ele>
        <time>2023-09-02T15:37:43Z</time>
      </trkpt>
      <trkpt lat="45.94563" lon="4.94679">
        <ele>289.9</ele>
        <time>2023-09-02T15:37:44Z</time>
      </trkpt>
      <trkpt lat="45.9456" lon="4.94677">
        <ele>289.9</ele>
        <time>2023-09-02T15:37:45Z</time>
      </trkpt>
      <trkpt lat="45.94558" lon="4.94675">
        <ele>289.9</ele>
        <time>2023-09-02T15:37:46Z</time>
      </trkpt>
      <trkpt lat="45.94555" lon="4.94673">
        <ele>289.9</ele>
        <time>2023-09-02T15:37:47Z</time>
      </trkpt>
      <trkpt lat="45.94552" lon="4.94672">
        <ele>289.9</ele>
        <time>2023-09-02T15:37:48Z</time>
      </trkpt>
      <trkpt lat="45.9455" lon="4.94671">
        <ele>289.9</ele>
        <time>2023-09-02T15:37:49Z</time>
      </trkpt>
      <trkpt lat="45.94547" lon="4.9467">
        <ele>289.9</ele>
        <time>2023-09-02T15:37:50Z</time>
      </trkpt>
      <trkpt lat="45.94544" lon="4.94668">
        <ele>289.8</ele>
        <time>2023-09-02T15:37:51Z</time>
      </trkpt>
      <trkpt lat="45.9454" lon="4.94666">
        <ele>289.8</ele>
        <time>2023-09-02T15:37:52Z</time>
      </trkpt>
      <trkpt lat="45.94539" lon="4.94666">
        <ele>289.8</ele>
        <time>2023-09-02T15:37:53Z</time>
      </trkpt>
      <trkpt lat="45.94536" lon="4.94664">
        <ele>289.8</ele>
        <time>2023-09-02T15:37:54Z</time>
      </trkpt>
      <trkpt lat="45.94533" lon="4.94663">
        <ele>289.8</ele>
        <time>2023-09-02T15:37:55Z</time>
      </trkpt>
      <trkpt lat="45.9453" lon="4.94662">
        <ele>289.8</ele>
        <time>2023-09-02T15:37:56Z</time>
      </trkpt>
      <trkpt lat="45.94527" lon="4.9466">
        <ele>289.8</ele>
        <time>2023-09-02T15:37:57Z</time>
      </trkpt>
      <trkpt lat="45.94525" lon="4.94658">
        <ele>289.8</ele>
        <time>2023-09-02T15:37:58Z</time>
      </trkpt>
      <trkpt lat="45.94522" lon="4.94657">
        <ele>289.8</ele>
        <time>2023-09-02T15:37:59Z</time>
      </trkpt>
      <trkpt lat="45.94517" lon="4.94656">
        <ele>289.8</ele>
        <time>2023-09-02T15:38:00Z</time>
      </trkpt>
      <trkpt lat="45.94514" lon="4.94656">
        <ele>289.8</ele>
        <time>2023-09-02T15:38:01Z</time>
      </trkpt>
      <trkpt lat="45.94512" lon="4.94659">
        <ele>289.8</ele>
        <time>2023-09-02T15:38:02Z</time>
      </trkpt>
      <trkpt lat="45.9451" lon="4.94663">
        <ele>289.7</ele>
        <time>2023-09-02T15:38:03Z</time>
      </trkpt>
      <trkpt lat="45.94508" lon="4.94667">
        <ele>289.7</ele>
        <time>2023-09-02T15:38:04Z</time>
      </trkpt>
      <trkpt lat="45.94507" lon="4.94671">
        <ele>289.7</ele>
        <time>2023-09-02T15:38:05Z</time>
      </trkpt>
      <trkpt lat="45.94506" lon="4.94675">
        <ele>289.7</ele>
        <time>2023-09-02T15:38:06Z</time>
      </trkpt>
      <trkpt lat="45.94505" lon="4.9468">
        <ele>289.7</ele>
        <time>2023-09-02T15:38:07Z</time>
      </trkpt>
      <trkpt lat="45.94503" lon="4.94685">
        <ele>289.7</ele>
        <time>2023-09-02T15:38:08Z</time>
      </trkpt>
      <trkpt lat="45.94501" lon="4.94686">
        <ele>289.6</ele>
        <time>2023-09-02T15:38:09Z</time>
      </trkpt>
      <trkpt lat="45.94498" lon="4.94689">
        <ele>289.6</ele>
        <time>2023-09-02T15:38:10Z</time>
      </trkpt>
      <trkpt lat="45.94496" lon="4.94691">
        <ele>289.6</ele>
        <time>2023-09-02T15:38:11Z</time>
      </trkpt>
      <trkpt lat="45.94492" lon="4.94692">
        <ele>289.6</ele>
        <time>2023-09-02T15:38:12Z</time>
      </trkpt>
      <trkpt lat="45.94489" lon="4.94693">
        <ele>289.6</ele>
        <time>2023-09-02T15:38:13Z</time>
      </trkpt>
      <trkpt lat="45.94487" lon="4.94693">
        <ele>289.6</ele>
        <time>2023-09-02T15:38:14Z</time>
      </trkpt>
      <trkpt lat="45.94483" lon="4.94693">
        <ele>289.6</ele>
        <time>2023-09-02T15:38:15Z</time>
      </trkpt>
      <trkpt lat="45.9448" lon="4.94694">
        <ele>289.6</ele>
        <time>2023-09-02T15:38:16Z</time>
      </trkpt>
      <trkpt lat="45.94477" lon="4.94694">
        <ele>289.6</ele>
        <time>2023-09-02T15:38:17Z</time>
      </trkpt>
      <trkpt lat="45.94473" lon="4.94694">
        <ele>289.6</ele>
        <time>2023-09-02T15:38:18Z</time>
      </trkpt>
      <trkpt lat="45.9447" lon="4.94694">
        <ele>289.6</ele>
        <time>2023-09-02T15:38:19Z</time>
      </trkpt>
      <trkpt lat="45.94467" lon="4.94694">
        <ele>289.6</ele>
        <time>2023-09-02T15:38:20Z</time>
      </trkpt>
      <trkpt lat="45.94464" lon="4.94694">
        <ele>289.6</ele>
        <time>2023-09-02T15:38:21Z</time>
      </trkpt>
      <trkpt lat="45.94461" lon="4.94694">
        <ele>289.6</ele>
        <time>2023-09-02T15:38:22Z</time>
      </trkpt>
      <trkpt lat="45.94458" lon="4.94694">
        <ele>289.6</ele>
        <time>2023-09-02T15:38:23Z</time>
      </trkpt>
      <trkpt lat="45.94455" lon="4.94694">
        <ele>289.5</ele>
        <time>2023-09-02T15:38:24Z</time>
      </trkpt>
      <trkpt lat="45.94454" lon="4.94695">
        <ele>289.5</ele>
        <time>2023-09-02T15:38:25Z</time>
      </trkpt>
      <trkpt lat="45.94451" lon="4.94695">
        <ele>289.5</ele>
        <time>2023-09-02T15:38:26Z</time>
      </trkpt>
      <trkpt lat="45.9445" lon="4.94696">
        <ele>289.5</ele>
        <time>2023-09-02T15:38:27Z</time>
      </trkpt>
      <trkpt lat="45.94446" lon="4.94698">
        <ele>289.5</ele>
        <time>2023-09-02T15:38:28Z</time>
      </trkpt>
      <trkpt lat="45.94445" lon="4.947">
        <ele>289.4</ele>
        <time>2023-09-02T15:38:29Z</time>
      </trkpt>
      <trkpt lat="45.94443" lon="4.94702">
        <ele>289.4</ele>
        <time>2023-09-02T15:38:30Z</time>
      </trkpt>
      <trkpt lat="45.94441" lon="4.94708">
        <ele>289.4</ele>
        <time>2023-09-02T15:38:31Z</time>
      </trkpt>
      <trkpt lat="45.94441" lon="4.94709">
        <ele>289.4</ele>
        <time>2023-09-02T15:38:32Z</time>
      </trkpt>
      <trkpt lat="45.9444" lon="4.94713">
        <ele>289.4</ele>
        <time>2023-09-02T15:38:33Z</time>
      </trkpt>
      <trkpt lat="45.94438" lon="4.94717">
        <ele>289.4</ele>
        <time>2023-09-02T15:38:34Z</time>
      </trkpt>
      <trkpt lat="45.94437" lon="4.9472">
        <ele>289.3</ele>
        <time>2023-09-02T15:38:35Z</time>
      </trkpt>
      <trkpt lat="45.94436" lon="4.94724">
        <ele>289.3</ele>
        <time>2023-09-02T15:38:36Z</time>
      </trkpt>
      <trkpt lat="45.94435" lon="4.9473">
        <ele>289.3</ele>
        <time>2023-09-02T15:38:37Z</time>
      </trkpt>
      <trkpt lat="45.94434" lon="4.94731">
        <ele>289.3</ele>
        <time>2023-09-02T15:38:38Z</time>
      </trkpt>
      <trkpt lat="45.94433" lon="4.94735">
        <ele>289.3</ele>
        <time>2023-09-02T15:38:39Z</time>
      </trkpt>
      <trkpt lat="45.94432" lon="4.94739">
        <ele>289.3</ele>
        <time>2023-09-02T15:38:40Z</time>
      </trkpt>
      <trkpt lat="45.94431" lon="4.94743">
        <ele>289.3</ele>
        <time>2023-09-02T15:38:41Z</time>
      </trkpt>
      <trkpt lat="45.9443" lon="4.94749">
        <ele>289.3</ele>
        <time>2023-09-02T15:38:42Z</time>
      </trkpt>
      <trkpt lat="45.94429" lon="4.94751">
        <ele>289.3</ele>
        <time>2023-09-02T15:38:43Z</time>
      </trkpt>
      <trkpt lat="45.94428" lon="4.94755">
        <ele>289.3</ele>
        <time>2023-09-02T15:38:44Z</time>
      </trkpt>
      <trkpt lat="45.94427" lon="4.94759">
        <ele>289.3</ele>
        <time>2023-09-02T15:38:45Z</time>
      </trkpt>
      <trkpt lat="45.94426" lon="4.94763">
        <ele>289.3</ele>
        <time>2023-09-02T15:38:46Z</time>
      </trkpt>
      <trkpt lat="45.94425" lon="4.94768">
        <ele>289.3</ele>
        <time>2023-09-02T15:38:47Z</time>
      </trkpt>
      <trkpt lat="45.94425" lon="4.94772">
        <ele>289.3</ele>
        <time>2023-09-02T15:38:48Z</time>
      </trkpt>
      <trkpt lat="45.94424" lon="4.94777">
        <ele>289.3</ele>
        <time>2023-09-02T15:38:49Z</time>
      </trkpt>
      <trkpt lat="45.94423" lon="4.94781">
        <ele>289.3</ele>
        <time>2023-09-02T15:38:50Z</time>
      </trkpt>
      <trkpt lat="45.94422" lon="4.94785">
        <ele>289.3</ele>
        <time>2023-09-02T15:38:51Z</time>
      </trkpt>
      <trkpt lat="45.94421" lon="4.94789">
        <ele>289.3</ele>
        <time>2023-09-02T15:38:52Z</time>
      </trkpt>
      <trkpt lat="45.9442" lon="4.94795">
        <ele>289.3</ele>
        <time>2023-09-02T15:38:53Z</time>
      </trkpt>
      <trkpt lat="45.9442" lon="4.94796">
        <ele>289.3</ele>
        <time>2023-09-02T15:38:54Z</time>
      </trkpt>
      <trkpt lat="45.94419" lon="4.94802">
        <ele>289.3</ele>
        <time>2023-09-02T15:38:55Z</time>
      </trkpt>
      <trkpt lat="45.94419" lon="4.94804">
        <ele>289.3</ele>
        <time>2023-09-02T15:38:56Z</time>
      </trkpt>
      <trkpt lat="45.94418" lon="4.94808">
        <ele>289.3</ele>
        <time>2023-09-02T15:38:57Z</time>
      </trkpt>
      <trkpt lat="45.94417" lon="4.94812">
        <ele>289.3</ele>
        <time>2023-09-02T15:38:58Z</time>
      </trkpt>
      <trkpt lat="45.94416" lon="4.94816">
        <ele>289.3</ele>
        <time>2023-09-02T15:38:59Z</time>
      </trkpt>
      <trkpt lat="45.94415" lon="4.9482">
        <ele>289.3</ele>
        <time>2023-09-02T15:39:00Z</time>
      </trkpt>
      <trkpt lat="45.94414" lon="4.94825">
        <ele>289.3</ele>
        <time>2023-09-02T15:39:01Z</time>
      </trkpt>
      <trkpt lat="45.94412" lon="4.94828">
        <ele>289.3</ele>
        <time>2023-09-02T15:39:02Z</time>
      </trkpt>
      <trkpt lat="45.9441" lon="4.94832">
        <ele>289.3</ele>
        <time>2023-09-02T15:39:03Z</time>
      </trkpt>
      <trkpt lat="45.94409" lon="4.94836">
        <ele>289.3</ele>
        <time>2023-09-02T15:39:04Z</time>
      </trkpt>
      <trkpt lat="45.94407" lon="4.94839">
        <ele>289.3</ele>
        <time>2023-09-02T15:39:05Z</time>
      </trkpt>
      <trkpt lat="45.94405" lon="4.94842">
        <ele>289.3</ele>
        <time>2023-09-02T15:39:06Z</time>
      </trkpt>
      <trkpt lat="45.94402" lon="4.94844">
        <ele>289.3</ele>
        <time>2023-09-02T15:39:07Z</time>
      </trkpt>
      <trkpt lat="45.944" lon="4.94846">
        <ele>289.3</ele>
        <time>2023-09-02T15:39:08Z</time>
      </trkpt>
      <trkpt lat="45.94397" lon="4.94848">
        <ele>289.3</ele>
        <time>2023-09-02T15:39:09Z</time>
      </trkpt>
      <trkpt lat="45.94394" lon="4.94849">
        <ele>289.3</ele>
        <time>2023-09-02T15:39:10Z</time>
      </trkpt>
      <trkpt lat="45.94391" lon="4.94851">
        <ele>289.3</ele>
        <time>2023-09-02T15:39:11Z</time>
      </trkpt>
      <trkpt lat="45.94388" lon="4.94852">
        <ele>289.3</ele>
        <time>2023-09-02T15:39:12Z</time>
      </trkpt>
      <trkpt lat="45.94386" lon="4.94853">
        <ele>289.3</ele>
        <time>2023-09-02T15:39:14Z</time>
      </trkpt>
      <trkpt lat="45.94383" lon="4.94855">
        <ele>289.3</ele>
        <time>2023-09-02T15:39:15Z</time>
      </trkpt>
      <trkpt lat="45.9438" lon="4.94856">
        <ele>289.3</ele>
        <time>2023-09-02T15:39:16Z</time>
      </trkpt>
      <trkpt lat="45.94378" lon="4.94858">
        <ele>289.3</ele>
        <time>2023-09-02T15:39:17Z</time>
      </trkpt>
      <trkpt lat="45.94375" lon="4.94859">
        <ele>289.3</ele>
        <time>2023-09-02T15:39:18Z</time>
      </trkpt>
      <trkpt lat="45.94372" lon="4.9486">
        <ele>289.3</ele>
        <time>2023-09-02T15:39:19Z</time>
      </trkpt>
      <trkpt lat="45.94369" lon="4.94862">
        <ele>289.3</ele>
        <time>2023-09-02T15:39:20Z</time>
      </trkpt>
      <trkpt lat="45.94366" lon="4.94863">
        <ele>289.3</ele>
        <time>2023-09-02T15:39:21Z</time>
      </trkpt>
      <trkpt lat="45.94364" lon="4.94864">
        <ele>289.4</ele>
        <time>2023-09-02T15:39:22Z</time>
      </trkpt>
      <trkpt lat="45.94361" lon="4.94866">
        <ele>289.4</ele>
        <time>2023-09-02T15:39:23Z</time>
      </trkpt>
      <trkpt lat="45.94358" lon="4.94867">
        <ele>289.4</ele>
        <time>2023-09-02T15:39:24Z</time>
      </trkpt>
      <trkpt lat="45.94355" lon="4.94869">
        <ele>289.4</ele>
        <time>2023-09-02T15:39:25Z</time>
      </trkpt>
      <trkpt lat="45.94352" lon="4.9487">
        <ele>289.4</ele>
        <time>2023-09-02T15:39:26Z</time>
      </trkpt>
      <trkpt lat="45.9435" lon="4.94872">
        <ele>289.4</ele>
        <time>2023-09-02T15:39:27Z</time>
      </trkpt>
      <trkpt lat="45.94347" lon="4.94873">
        <ele>289.5</ele>
        <time>2023-09-02T15:39:28Z</time>
      </trkpt>
      <trkpt lat="45.94344" lon="4.94875">
        <ele>289.5</ele>
        <time>2023-09-02T15:39:29Z</time>
      </trkpt>
      <trkpt lat="45.94341" lon="4.94876">
        <ele>289.5</ele>
        <time>2023-09-02T15:39:30Z</time>
      </trkpt>
      <trkpt lat="45.94338" lon="4.94877">
        <ele>289.5</ele>
        <time>2023-09-02T15:39:31Z</time>
      </trkpt>
      <trkpt lat="45.94335" lon="4.94879">
        <ele>289.6</ele>
        <time>2023-09-02T15:39:32Z</time>
      </trkpt>
      <trkpt lat="45.94333" lon="4.9488">
        <ele>289.6</ele>
        <time>2023-09-02T15:39:33Z</time>
      </trkpt>
      <trkpt lat="45.9433" lon="4.94881">
        <ele>289.6</ele>
        <time>2023-09-02T15:39:34Z</time>
      </trkpt>
      <trkpt lat="45.94328" lon="4.94882">
        <ele>289.6</ele>
        <time>2023-09-02T15:39:35Z</time>
      </trkpt>
      <trkpt lat="45.94325" lon="4.94883">
        <ele>289.6</ele>
        <time>2023-09-02T15:39:36Z</time>
      </trkpt>
      <trkpt lat="45.94322" lon="4.94884">
        <ele>289.7</ele>
        <time>2023-09-02T15:39:37Z</time>
      </trkpt>
      <trkpt lat="45.94319" lon="4.94886">
        <ele>289.7</ele>
        <time>2023-09-02T15:39:38Z</time>
      </trkpt>
      <trkpt lat="45.94317" lon="4.94888">
        <ele>289.7</ele>
        <time>2023-09-02T15:39:39Z</time>
      </trkpt>
      <trkpt lat="45.94314" lon="4.94889">
        <ele>289.7</ele>
        <time>2023-09-02T15:39:40Z</time>
      </trkpt>
      <trkpt lat="45.9431" lon="4.94891">
        <ele>289.7</ele>
        <time>2023-09-02T15:39:41Z</time>
      </trkpt>
      <trkpt lat="45.94308" lon="4.94891">
        <ele>289.7</ele>
        <time>2023-09-02T15:39:42Z</time>
      </trkpt>
      <trkpt lat="45.94306" lon="4.94892">
        <ele>289.7</ele>
        <time>2023-09-02T15:39:43Z</time>
      </trkpt>
      <trkpt lat="45.94303" lon="4.94894">
        <ele>289.7</ele>
        <time>2023-09-02T15:39:44Z</time>
      </trkpt>
      <trkpt lat="45.943" lon="4.94895">
        <ele>289.7</ele>
        <time>2023-09-02T15:39:45Z</time>
      </trkpt>
      <trkpt lat="45.94297" lon="4.94897">
        <ele>289.7</ele>
        <time>2023-09-02T15:39:46Z</time>
      </trkpt>
      <trkpt lat="45.94295" lon="4.94898">
        <ele>289.8</ele>
        <time>2023-09-02T15:39:47Z</time>
      </trkpt>
      <trkpt lat="45.94292" lon="4.94899">
        <ele>289.8</ele>
        <time>2023-09-02T15:39:48Z</time>
      </trkpt>
      <trkpt lat="45.94289" lon="4.94901">
        <ele>289.8</ele>
        <time>2023-09-02T15:39:49Z</time>
      </trkpt>
      <trkpt lat="45.94286" lon="4.94902">
        <ele>289.8</ele>
        <time>2023-09-02T15:39:50Z</time>
      </trkpt>
      <trkpt lat="45.94283" lon="4.94904">
        <ele>289.8</ele>
        <time>2023-09-02T15:39:51Z</time>
      </trkpt>
      <trkpt lat="45.9428" lon="4.94905">
        <ele>289.8</ele>
        <time>2023-09-02T15:39:52Z</time>
      </trkpt>
      <trkpt lat="45.94277" lon="4.94907">
        <ele>289.8</ele>
        <time>2023-09-02T15:39:53Z</time>
      </trkpt>
      <trkpt lat="45.94273" lon="4.94908">
        <ele>289.8</ele>
        <time>2023-09-02T15:39:54Z</time>
      </trkpt>
      <trkpt lat="45.9427" lon="4.9491">
        <ele>289.8</ele>
        <time>2023-09-02T15:39:55Z</time>
      </trkpt>
      <trkpt lat="45.94267" lon="4.94911">
        <ele>289.9</ele>
        <time>2023-09-02T15:39:56Z</time>
      </trkpt>
      <trkpt lat="45.94264" lon="4.94913">
        <ele>289.9</ele>
        <time>2023-09-02T15:39:57Z</time>
      </trkpt>
      <trkpt lat="45.94261" lon="4.94915">
        <ele>289.9</ele>
        <time>2023-09-02T15:39:58Z</time>
      </trkpt>
      <trkpt lat="45.94258" lon="4.94917">
        <ele>290</ele>
        <time>2023-09-02T15:39:59Z</time>
      </trkpt>
      <trkpt lat="45.94254" lon="4.94918">
        <ele>290</ele>
        <time>2023-09-02T15:40:00Z</time>
      </trkpt>
      <trkpt lat="45.94251" lon="4.94919">
        <ele>290</ele>
        <time>2023-09-02T15:40:01Z</time>
      </trkpt>
      <trkpt lat="45.94248" lon="4.94921">
        <ele>290.1</ele>
        <time>2023-09-02T15:40:02Z</time>
      </trkpt>
      <trkpt lat="45.94245" lon="4.94922">
        <ele>290.1</ele>
        <time>2023-09-02T15:40:03Z</time>
      </trkpt>
      <trkpt lat="45.94242" lon="4.94924">
        <ele>290.2</ele>
        <time>2023-09-02T15:40:04Z</time>
      </trkpt>
      <trkpt lat="45.94239" lon="4.94925">
        <ele>290.2</ele>
        <time>2023-09-02T15:40:05Z</time>
      </trkpt>
      <trkpt lat="45.94236" lon="4.94926">
        <ele>290.3</ele>
        <time>2023-09-02T15:40:06Z</time>
      </trkpt>
      <trkpt lat="45.9423" lon="4.94929">
        <ele>290.4</ele>
        <time>2023-09-02T15:40:07Z</time>
      </trkpt>
      <trkpt lat="45.94227" lon="4.94931">
        <ele>290.5</ele>
        <time>2023-09-02T15:40:08Z</time>
      </trkpt>
      <trkpt lat="45.94224" lon="4.94932">
        <ele>290.5</ele>
        <time>2023-09-02T15:40:09Z</time>
      </trkpt>
      <trkpt lat="45.94221" lon="4.94934">
        <ele>290.6</ele>
        <time>2023-09-02T15:40:10Z</time>
      </trkpt>
      <trkpt lat="45.94218" lon="4.94935">
        <ele>290.6</ele>
        <time>2023-09-02T15:40:11Z</time>
      </trkpt>
      <trkpt lat="45.94215" lon="4.94937">
        <ele>290.7</ele>
        <time>2023-09-02T15:40:12Z</time>
      </trkpt>
      <trkpt lat="45.94212" lon="4.94938">
        <ele>290.7</ele>
        <time>2023-09-02T15:40:13Z</time>
      </trkpt>
      <trkpt lat="45.94209" lon="4.9494">
        <ele>290.8</ele>
        <time>2023-09-02T15:40:14Z</time>
      </trkpt>
      <trkpt lat="45.94206" lon="4.94941">
        <ele>290.8</ele>
        <time>2023-09-02T15:40:15Z</time>
      </trkpt>
      <trkpt lat="45.94203" lon="4.94942">
        <ele>290.8</ele>
        <time>2023-09-02T15:40:16Z</time>
      </trkpt>
      <trkpt lat="45.942" lon="4.94944">
        <ele>290.8</ele>
        <time>2023-09-02T15:40:17Z</time>
      </trkpt>
      <trkpt lat="45.94197" lon="4.94945">
        <ele>290.8</ele>
        <time>2023-09-02T15:40:18Z</time>
      </trkpt>
      <trkpt lat="45.94194" lon="4.94947">
        <ele>290.8</ele>
        <time>2023-09-02T15:40:19Z</time>
      </trkpt>
      <trkpt lat="45.9419" lon="4.94948">
        <ele>290.8</ele>
        <time>2023-09-02T15:40:20Z</time>
      </trkpt>
      <trkpt lat="45.94187" lon="4.9495">
        <ele>290.9</ele>
        <time>2023-09-02T15:40:21Z</time>
      </trkpt>
      <trkpt lat="45.94184" lon="4.94951">
        <ele>290.9</ele>
        <time>2023-09-02T15:40:22Z</time>
      </trkpt>
      <trkpt lat="45.94181" lon="4.94953">
        <ele>290.9</ele>
        <time>2023-09-02T15:40:23Z</time>
      </trkpt>
      <trkpt lat="45.94177" lon="4.94955">
        <ele>290.9</ele>
        <time>2023-09-02T15:40:24Z</time>
      </trkpt>
      <trkpt lat="45.94174" lon="4.94956">
        <ele>290.9</ele>
        <time>2023-09-02T15:40:25Z</time>
      </trkpt>
      <trkpt lat="45.9417" lon="4.94958">
        <ele>290.9</ele>
        <time>2023-09-02T15:40:26Z</time>
      </trkpt>
      <trkpt lat="45.94167" lon="4.94959">
        <ele>290.9</ele>
        <time>2023-09-02T15:40:27Z</time>
      </trkpt>
      <trkpt lat="45.94164" lon="4.94961">
        <ele>290.9</ele>
        <time>2023-09-02T15:40:28Z</time>
      </trkpt>
      <trkpt lat="45.9416" lon="4.94962">
        <ele>290.9</ele>
        <time>2023-09-02T15:40:29Z</time>
      </trkpt>
      <trkpt lat="45.94157" lon="4.94964">
        <ele>290.9</ele>
        <time>2023-09-02T15:40:30Z</time>
      </trkpt>
      <trkpt lat="45.94154" lon="4.94966">
        <ele>290.9</ele>
        <time>2023-09-02T15:40:31Z</time>
      </trkpt>
      <trkpt lat="45.9415" lon="4.94968">
        <ele>290.9</ele>
        <time>2023-09-02T15:40:32Z</time>
      </trkpt>
      <trkpt lat="45.94148" lon="4.9497">
        <ele>290.9</ele>
        <time>2023-09-02T15:40:34Z</time>
      </trkpt>
      <trkpt lat="45.94144" lon="4.94972">
        <ele>290.9</ele>
        <time>2023-09-02T15:40:35Z</time>
      </trkpt>
      <trkpt lat="45.9414" lon="4.94974">
        <ele>290.9</ele>
        <time>2023-09-02T15:40:36Z</time>
      </trkpt>
      <trkpt lat="45.94137" lon="4.94977">
        <ele>290.8</ele>
        <time>2023-09-02T15:40:37Z</time>
      </trkpt>
      <trkpt lat="45.94133" lon="4.94979">
        <ele>290.8</ele>
        <time>2023-09-02T15:40:38Z</time>
      </trkpt>
      <trkpt lat="45.9413" lon="4.94982">
        <ele>290.8</ele>
        <time>2023-09-02T15:40:39Z</time>
      </trkpt>
      <trkpt lat="45.94127" lon="4.94984">
        <ele>290.8</ele>
        <time>2023-09-02T15:40:40Z</time>
      </trkpt>
      <trkpt lat="45.94124" lon="4.94986">
        <ele>290.8</ele>
        <time>2023-09-02T15:40:41Z</time>
      </trkpt>
      <trkpt lat="45.94121" lon="4.94988">
        <ele>290.8</ele>
        <time>2023-09-02T15:40:42Z</time>
      </trkpt>
      <trkpt lat="45.94118" lon="4.94991">
        <ele>290.8</ele>
        <time>2023-09-02T15:40:43Z</time>
      </trkpt>
      <trkpt lat="45.94115" lon="4.94993">
        <ele>290.8</ele>
        <time>2023-09-02T15:40:44Z</time>
      </trkpt>
      <trkpt lat="45.94112" lon="4.94996">
        <ele>290.8</ele>
        <time>2023-09-02T15:40:45Z</time>
      </trkpt>
      <trkpt lat="45.94109" lon="4.94998">
        <ele>290.9</ele>
        <time>2023-09-02T15:40:46Z</time>
      </trkpt>
      <trkpt lat="45.94106" lon="4.95001">
        <ele>290.9</ele>
        <time>2023-09-02T15:40:47Z</time>
      </trkpt>
      <trkpt lat="45.94103" lon="4.95004">
        <ele>290.9</ele>
        <time>2023-09-02T15:40:48Z</time>
      </trkpt>
      <trkpt lat="45.941" lon="4.95006">
        <ele>290.9</ele>
        <time>2023-09-02T15:40:49Z</time>
      </trkpt>
      <trkpt lat="45.94097" lon="4.95008">
        <ele>290.9</ele>
        <time>2023-09-02T15:40:50Z</time>
      </trkpt>
      <trkpt lat="45.94095" lon="4.95011">
        <ele>291</ele>
        <time>2023-09-02T15:40:51Z</time>
      </trkpt>
      <trkpt lat="45.94091" lon="4.95014">
        <ele>291</ele>
        <time>2023-09-02T15:40:52Z</time>
      </trkpt>
      <trkpt lat="45.94088" lon="4.95016">
        <ele>291</ele>
        <time>2023-09-02T15:40:53Z</time>
      </trkpt>
      <trkpt lat="45.94085" lon="4.95019">
        <ele>291</ele>
        <time>2023-09-02T15:40:54Z</time>
      </trkpt>
      <trkpt lat="45.94082" lon="4.95021">
        <ele>291.1</ele>
        <time>2023-09-02T15:40:55Z</time>
      </trkpt>
      <trkpt lat="45.94079" lon="4.95024">
        <ele>291.1</ele>
        <time>2023-09-02T15:40:56Z</time>
      </trkpt>
      <trkpt lat="45.94076" lon="4.95026">
        <ele>291.1</ele>
        <time>2023-09-02T15:40:57Z</time>
      </trkpt>
      <trkpt lat="45.94073" lon="4.95029">
        <ele>291.2</ele>
        <time>2023-09-02T15:40:58Z</time>
      </trkpt>
      <trkpt lat="45.9407" lon="4.95031">
        <ele>291.2</ele>
        <time>2023-09-02T15:40:59Z</time>
      </trkpt>
      <trkpt lat="45.94067" lon="4.95034">
        <ele>291.3</ele>
        <time>2023-09-02T15:41:00Z</time>
      </trkpt>
      <trkpt lat="45.94063" lon="4.95036">
        <ele>291.3</ele>
        <time>2023-09-02T15:41:01Z</time>
      </trkpt>
      <trkpt lat="45.9406" lon="4.95039">
        <ele>291.4</ele>
        <time>2023-09-02T15:41:02Z</time>
      </trkpt>
      <trkpt lat="45.94057" lon="4.95041">
        <ele>291.4</ele>
        <time>2023-09-02T15:41:03Z</time>
      </trkpt>
      <trkpt lat="45.94054" lon="4.95044">
        <ele>291.5</ele>
        <time>2023-09-02T15:41:04Z</time>
      </trkpt>
      <trkpt lat="45.94051" lon="4.95046">
        <ele>291.5</ele>
        <time>2023-09-02T15:41:05Z</time>
      </trkpt>
      <trkpt lat="45.94048" lon="4.95049">
        <ele>291.6</ele>
        <time>2023-09-02T15:41:06Z</time>
      </trkpt>
      <trkpt lat="45.94045" lon="4.95051">
        <ele>291.6</ele>
        <time>2023-09-02T15:41:07Z</time>
      </trkpt>
      <trkpt lat="45.94042" lon="4.95054">
        <ele>291.7</ele>
        <time>2023-09-02T15:41:08Z</time>
      </trkpt>
      <trkpt lat="45.94039" lon="4.95056">
        <ele>291.7</ele>
        <time>2023-09-02T15:41:09Z</time>
      </trkpt>
      <trkpt lat="45.94036" lon="4.95059">
        <ele>291.8</ele>
        <time>2023-09-02T15:41:10Z</time>
      </trkpt>
      <trkpt lat="45.94033" lon="4.95061">
        <ele>291.8</ele>
        <time>2023-09-02T15:41:11Z</time>
      </trkpt>
      <trkpt lat="45.9403" lon="4.95064">
        <ele>291.9</ele>
        <time>2023-09-02T15:41:12Z</time>
      </trkpt>
      <trkpt lat="45.94027" lon="4.95067">
        <ele>291.9</ele>
        <time>2023-09-02T15:41:13Z</time>
      </trkpt>
      <trkpt lat="45.94024" lon="4.95069">
        <ele>292</ele>
        <time>2023-09-02T15:41:14Z</time>
      </trkpt>
      <trkpt lat="45.94021" lon="4.95072">
        <ele>292</ele>
        <time>2023-09-02T15:41:15Z</time>
      </trkpt>
      <trkpt lat="45.94018" lon="4.95074">
        <ele>292</ele>
        <time>2023-09-02T15:41:16Z</time>
      </trkpt>
      <trkpt lat="45.94015" lon="4.95077">
        <ele>292.1</ele>
        <time>2023-09-02T15:41:17Z</time>
      </trkpt>
      <trkpt lat="45.94012" lon="4.9508">
        <ele>292.1</ele>
        <time>2023-09-02T15:41:18Z</time>
      </trkpt>
      <trkpt lat="45.94009" lon="4.95083">
        <ele>292.2</ele>
        <time>2023-09-02T15:41:19Z</time>
      </trkpt>
      <trkpt lat="45.94005" lon="4.95086">
        <ele>292.2</ele>
        <time>2023-09-02T15:41:20Z</time>
      </trkpt>
      <trkpt lat="45.94002" lon="4.95089">
        <ele>292.2</ele>
        <time>2023-09-02T15:41:21Z</time>
      </trkpt>
      <trkpt lat="45.93999" lon="4.95092">
        <ele>292.3</ele>
        <time>2023-09-02T15:41:22Z</time>
      </trkpt>
      <trkpt lat="45.93995" lon="4.95095">
        <ele>292.3</ele>
        <time>2023-09-02T15:41:23Z</time>
      </trkpt>
      <trkpt lat="45.93992" lon="4.95098">
        <ele>292.4</ele>
        <time>2023-09-02T15:41:24Z</time>
      </trkpt>
      <trkpt lat="45.93989" lon="4.95101">
        <ele>292.4</ele>
        <time>2023-09-02T15:41:25Z</time>
      </trkpt>
      <trkpt lat="45.93986" lon="4.95104">
        <ele>292.4</ele>
        <time>2023-09-02T15:41:26Z</time>
      </trkpt>
      <trkpt lat="45.93983" lon="4.95108">
        <ele>292.4</ele>
        <time>2023-09-02T15:41:27Z</time>
      </trkpt>
      <trkpt lat="45.9398" lon="4.95111">
        <ele>292.5</ele>
        <time>2023-09-02T15:41:28Z</time>
      </trkpt>
      <trkpt lat="45.93977" lon="4.95113">
        <ele>292.5</ele>
        <time>2023-09-02T15:41:29Z</time>
      </trkpt>
      <trkpt lat="45.93973" lon="4.95116">
        <ele>292.5</ele>
        <time>2023-09-02T15:41:30Z</time>
      </trkpt>
      <trkpt lat="45.9397" lon="4.9512">
        <ele>292.5</ele>
        <time>2023-09-02T15:41:31Z</time>
      </trkpt>
      <trkpt lat="45.93967" lon="4.95123">
        <ele>292.5</ele>
        <time>2023-09-02T15:41:32Z</time>
      </trkpt>
      <trkpt lat="45.93964" lon="4.95126">
        <ele>292.5</ele>
        <time>2023-09-02T15:41:33Z</time>
      </trkpt>
      <trkpt lat="45.93961" lon="4.95129">
        <ele>292.5</ele>
        <time>2023-09-02T15:41:34Z</time>
      </trkpt>
      <trkpt lat="45.93959" lon="4.95133">
        <ele>292.5</ele>
        <time>2023-09-02T15:41:35Z</time>
      </trkpt>
      <trkpt lat="45.93956" lon="4.95136">
        <ele>292.5</ele>
        <time>2023-09-02T15:41:36Z</time>
      </trkpt>
      <trkpt lat="45.93953" lon="4.95139">
        <ele>292.5</ele>
        <time>2023-09-02T15:41:37Z</time>
      </trkpt>
      <trkpt lat="45.9395" lon="4.95142">
        <ele>292.5</ele>
        <time>2023-09-02T15:41:38Z</time>
      </trkpt>
      <trkpt lat="45.93947" lon="4.95145">
        <ele>292.4</ele>
        <time>2023-09-02T15:41:39Z</time>
      </trkpt>
      <trkpt lat="45.93944" lon="4.95148">
        <ele>292.4</ele>
        <time>2023-09-02T15:41:40Z</time>
      </trkpt>
      <trkpt lat="45.93941" lon="4.95151">
        <ele>292.4</ele>
        <time>2023-09-02T15:41:41Z</time>
      </trkpt>
      <trkpt lat="45.93938" lon="4.95155">
        <ele>292.3</ele>
        <time>2023-09-02T15:41:42Z</time>
      </trkpt>
      <trkpt lat="45.93936" lon="4.95157">
        <ele>292.3</ele>
        <time>2023-09-02T15:41:43Z</time>
      </trkpt>
      <trkpt lat="45.93933" lon="4.9516">
        <ele>292.3</ele>
        <time>2023-09-02T15:41:44Z</time>
      </trkpt>
      <trkpt lat="45.9393" lon="4.95163">
        <ele>292.2</ele>
        <time>2023-09-02T15:41:45Z</time>
      </trkpt>
      <trkpt lat="45.93927" lon="4.95166">
        <ele>292.1</ele>
        <time>2023-09-02T15:41:46Z</time>
      </trkpt>
      <trkpt lat="45.93924" lon="4.95168">
        <ele>292.1</ele>
        <time>2023-09-02T15:41:47Z</time>
      </trkpt>
      <trkpt lat="45.93921" lon="4.95171">
        <ele>292</ele>
        <time>2023-09-02T15:41:48Z</time>
      </trkpt>
      <trkpt lat="45.93918" lon="4.95174">
        <ele>291.9</ele>
        <time>2023-09-02T15:41:49Z</time>
      </trkpt>
      <trkpt lat="45.93915" lon="4.95176">
        <ele>291.8</ele>
        <time>2023-09-02T15:41:50Z</time>
      </trkpt>
      <trkpt lat="45.93912" lon="4.95178">
        <ele>291.7</ele>
        <time>2023-09-02T15:41:51Z</time>
      </trkpt>
      <trkpt lat="45.93908" lon="4.9518">
        <ele>291.6</ele>
        <time>2023-09-02T15:41:52Z</time>
      </trkpt>
      <trkpt lat="45.93905" lon="4.95182">
        <ele>291.5</ele>
        <time>2023-09-02T15:41:53Z</time>
      </trkpt>
      <trkpt lat="45.93902" lon="4.95185">
        <ele>291.4</ele>
        <time>2023-09-02T15:41:54Z</time>
      </trkpt>
      <trkpt lat="45.93898" lon="4.95187">
        <ele>291.4</ele>
        <time>2023-09-02T15:41:55Z</time>
      </trkpt>
      <trkpt lat="45.93895" lon="4.95189">
        <ele>291.3</ele>
        <time>2023-09-02T15:41:56Z</time>
      </trkpt>
      <trkpt lat="45.93891" lon="4.95191">
        <ele>291.2</ele>
        <time>2023-09-02T15:41:57Z</time>
      </trkpt>
      <trkpt lat="45.93887" lon="4.95193">
        <ele>291.1</ele>
        <time>2023-09-02T15:41:58Z</time>
      </trkpt>
      <trkpt lat="45.93884" lon="4.95195">
        <ele>291</ele>
        <time>2023-09-02T15:41:59Z</time>
      </trkpt>
      <trkpt lat="45.93881" lon="4.95197">
        <ele>291</ele>
        <time>2023-09-02T15:42:00Z</time>
      </trkpt>
      <trkpt lat="45.93877" lon="4.95199">
        <ele>290.9</ele>
        <time>2023-09-02T15:42:01Z</time>
      </trkpt>
      <trkpt lat="45.93874" lon="4.952">
        <ele>290.9</ele>
        <time>2023-09-02T15:42:02Z</time>
      </trkpt>
      <trkpt lat="45.9387" lon="4.95202">
        <ele>290.8</ele>
        <time>2023-09-02T15:42:03Z</time>
      </trkpt>
      <trkpt lat="45.93866" lon="4.95204">
        <ele>290.8</ele>
        <time>2023-09-02T15:42:04Z</time>
      </trkpt>
      <trkpt lat="45.93862" lon="4.95206">
        <ele>290.7</ele>
        <time>2023-09-02T15:42:05Z</time>
      </trkpt>
      <trkpt lat="45.93859" lon="4.95208">
        <ele>290.7</ele>
        <time>2023-09-02T15:42:06Z</time>
      </trkpt>
      <trkpt lat="45.93855" lon="4.9521">
        <ele>290.6</ele>
        <time>2023-09-02T15:42:07Z</time>
      </trkpt>
      <trkpt lat="45.93852" lon="4.95212">
        <ele>290.6</ele>
        <time>2023-09-02T15:42:08Z</time>
      </trkpt>
      <trkpt lat="45.93849" lon="4.95213">
        <ele>290.6</ele>
        <time>2023-09-02T15:42:09Z</time>
      </trkpt>
      <trkpt lat="45.93845" lon="4.95215">
        <ele>290.5</ele>
        <time>2023-09-02T15:42:10Z</time>
      </trkpt>
      <trkpt lat="45.93841" lon="4.95217">
        <ele>290.5</ele>
        <time>2023-09-02T15:42:11Z</time>
      </trkpt>
      <trkpt lat="45.93838" lon="4.95218">
        <ele>290.5</ele>
        <time>2023-09-02T15:42:12Z</time>
      </trkpt>
      <trkpt lat="45.93834" lon="4.9522">
        <ele>290.4</ele>
        <time>2023-09-02T15:42:13Z</time>
      </trkpt>
      <trkpt lat="45.93831" lon="4.95222">
        <ele>290.4</ele>
        <time>2023-09-02T15:42:14Z</time>
      </trkpt>
      <trkpt lat="45.93828" lon="4.95223">
        <ele>290.4</ele>
        <time>2023-09-02T15:42:15Z</time>
      </trkpt>
      <trkpt lat="45.93825" lon="4.95224">
        <ele>290.3</ele>
        <time>2023-09-02T15:42:16Z</time>
      </trkpt>
      <trkpt lat="45.93821" lon="4.95226">
        <ele>290.3</ele>
        <time>2023-09-02T15:42:17Z</time>
      </trkpt>
      <trkpt lat="45.93818" lon="4.95228">
        <ele>290.3</ele>
        <time>2023-09-02T15:42:18Z</time>
      </trkpt>
      <trkpt lat="45.93815" lon="4.9523">
        <ele>290.2</ele>
        <time>2023-09-02T15:42:19Z</time>
      </trkpt>
      <trkpt lat="45.93812" lon="4.95232">
        <ele>290.2</ele>
        <time>2023-09-02T15:42:20Z</time>
      </trkpt>
      <trkpt lat="45.93808" lon="4.95234">
        <ele>290.1</ele>
        <time>2023-09-02T15:42:21Z</time>
      </trkpt>
      <trkpt lat="45.93805" lon="4.95236">
        <ele>290.1</ele>
        <time>2023-09-02T15:42:22Z</time>
      </trkpt>
      <trkpt lat="45.93801" lon="4.95238">
        <ele>290.1</ele>
        <time>2023-09-02T15:42:23Z</time>
      </trkpt>
      <trkpt lat="45.93798" lon="4.95239">
        <ele>290</ele>
        <time>2023-09-02T15:42:24Z</time>
      </trkpt>
      <trkpt lat="45.93794" lon="4.95241">
        <ele>290</ele>
        <time>2023-09-02T15:42:25Z</time>
      </trkpt>
      <trkpt lat="45.93791" lon="4.95243">
        <ele>290</ele>
        <time>2023-09-02T15:42:26Z</time>
      </trkpt>
      <trkpt lat="45.93788" lon="4.95244">
        <ele>290</ele>
        <time>2023-09-02T15:42:27Z</time>
      </trkpt>
      <trkpt lat="45.93784" lon="4.95246">
        <ele>289.9</ele>
        <time>2023-09-02T15:42:28Z</time>
      </trkpt>
      <trkpt lat="45.9378" lon="4.95248">
        <ele>289.9</ele>
        <time>2023-09-02T15:42:29Z</time>
      </trkpt>
      <trkpt lat="45.93777" lon="4.9525">
        <ele>289.9</ele>
        <time>2023-09-02T15:42:30Z</time>
      </trkpt>
      <trkpt lat="45.93773" lon="4.95252">
        <ele>289.8</ele>
        <time>2023-09-02T15:42:31Z</time>
      </trkpt>
      <trkpt lat="45.9377" lon="4.95254">
        <ele>289.7</ele>
        <time>2023-09-02T15:42:32Z</time>
      </trkpt>
      <trkpt lat="45.93766" lon="4.95256">
        <ele>289.7</ele>
        <time>2023-09-02T15:42:33Z</time>
      </trkpt>
      <trkpt lat="45.93762" lon="4.95258">
        <ele>289.6</ele>
        <time>2023-09-02T15:42:34Z</time>
      </trkpt>
      <trkpt lat="45.93759" lon="4.9526">
        <ele>289.6</ele>
        <time>2023-09-02T15:42:35Z</time>
      </trkpt>
      <trkpt lat="45.93755" lon="4.95262">
        <ele>289.5</ele>
        <time>2023-09-02T15:42:36Z</time>
      </trkpt>
      <trkpt lat="45.93752" lon="4.95264">
        <ele>289.4</ele>
        <time>2023-09-02T15:42:37Z</time>
      </trkpt>
      <trkpt lat="45.93749" lon="4.95265">
        <ele>289.4</ele>
        <time>2023-09-02T15:42:38Z</time>
      </trkpt>
      <trkpt lat="45.93745" lon="4.95266">
        <ele>289.3</ele>
        <time>2023-09-02T15:42:39Z</time>
      </trkpt>
      <trkpt lat="45.93742" lon="4.95267">
        <ele>289.2</ele>
        <time>2023-09-02T15:42:40Z</time>
      </trkpt>
      <trkpt lat="45.93738" lon="4.95268">
        <ele>289.2</ele>
        <time>2023-09-02T15:42:41Z</time>
      </trkpt>
      <trkpt lat="45.93734" lon="4.95268">
        <ele>289.1</ele>
        <time>2023-09-02T15:42:42Z</time>
      </trkpt>
      <trkpt lat="45.9373" lon="4.95268">
        <ele>289</ele>
        <time>2023-09-02T15:42:43Z</time>
      </trkpt>
      <trkpt lat="45.93726" lon="4.95268">
        <ele>289</ele>
        <time>2023-09-02T15:42:44Z</time>
      </trkpt>
      <trkpt lat="45.93722" lon="4.95268">
        <ele>288.9</ele>
        <time>2023-09-02T15:42:45Z</time>
      </trkpt>
      <trkpt lat="45.93719" lon="4.95268">
        <ele>288.8</ele>
        <time>2023-09-02T15:42:46Z</time>
      </trkpt>
      <trkpt lat="45.93715" lon="4.95267">
        <ele>288.8</ele>
        <time>2023-09-02T15:42:47Z</time>
      </trkpt>
      <trkpt lat="45.93711" lon="4.95266">
        <ele>288.8</ele>
        <time>2023-09-02T15:42:48Z</time>
      </trkpt>
      <trkpt lat="45.93707" lon="4.95266">
        <ele>288.7</ele>
        <time>2023-09-02T15:42:49Z</time>
      </trkpt>
      <trkpt lat="45.93704" lon="4.95265">
        <ele>288.7</ele>
        <time>2023-09-02T15:42:50Z</time>
      </trkpt>
      <trkpt lat="45.937" lon="4.95266">
        <ele>288.7</ele>
        <time>2023-09-02T15:42:51Z</time>
      </trkpt>
      <trkpt lat="45.93695" lon="4.95266">
        <ele>288.7</ele>
        <time>2023-09-02T15:42:52Z</time>
      </trkpt>
      <trkpt lat="45.93691" lon="4.95265">
        <ele>288.6</ele>
        <time>2023-09-02T15:42:53Z</time>
      </trkpt>
      <trkpt lat="45.93687" lon="4.95265">
        <ele>288.6</ele>
        <time>2023-09-02T15:42:54Z</time>
      </trkpt>
      <trkpt lat="45.93683" lon="4.95265">
        <ele>288.6</ele>
        <time>2023-09-02T15:42:55Z</time>
      </trkpt>
      <trkpt lat="45.93679" lon="4.95265">
        <ele>288.6</ele>
        <time>2023-09-02T15:42:56Z</time>
      </trkpt>
      <trkpt lat="45.93675" lon="4.95264">
        <ele>288.6</ele>
        <time>2023-09-02T15:42:57Z</time>
      </trkpt>
      <trkpt lat="45.93671" lon="4.95264">
        <ele>288.6</ele>
        <time>2023-09-02T15:42:58Z</time>
      </trkpt>
      <trkpt lat="45.93668" lon="4.95264">
        <ele>288.5</ele>
        <time>2023-09-02T15:42:59Z</time>
      </trkpt>
      <trkpt lat="45.93664" lon="4.95263">
        <ele>288.5</ele>
        <time>2023-09-02T15:43:00Z</time>
      </trkpt>
      <trkpt lat="45.93661" lon="4.95263">
        <ele>288.5</ele>
        <time>2023-09-02T15:43:01Z</time>
      </trkpt>
      <trkpt lat="45.93657" lon="4.95262">
        <ele>288.5</ele>
        <time>2023-09-02T15:43:02Z</time>
      </trkpt>
      <trkpt lat="45.93653" lon="4.95262">
        <ele>288.5</ele>
        <time>2023-09-02T15:43:03Z</time>
      </trkpt>
      <trkpt lat="45.93649" lon="4.95261">
        <ele>288.5</ele>
        <time>2023-09-02T15:43:04Z</time>
      </trkpt>
      <trkpt lat="45.93645" lon="4.95261">
        <ele>288.5</ele>
        <time>2023-09-02T15:43:05Z</time>
      </trkpt>
      <trkpt lat="45.93641" lon="4.95261">
        <ele>288.5</ele>
        <time>2023-09-02T15:43:06Z</time>
      </trkpt>
      <trkpt lat="45.93638" lon="4.9526">
        <ele>288.5</ele>
        <time>2023-09-02T15:43:07Z</time>
      </trkpt>
      <trkpt lat="45.93635" lon="4.9526">
        <ele>288.5</ele>
        <time>2023-09-02T15:43:08Z</time>
      </trkpt>
      <trkpt lat="45.93632" lon="4.9526">
        <ele>288.5</ele>
        <time>2023-09-02T15:43:09Z</time>
      </trkpt>
      <trkpt lat="45.93628" lon="4.9526">
        <ele>288.5</ele>
        <time>2023-09-02T15:43:10Z</time>
      </trkpt>
      <trkpt lat="45.93625" lon="4.9526">
        <ele>288.6</ele>
        <time>2023-09-02T15:43:11Z</time>
      </trkpt>
      <trkpt lat="45.93621" lon="4.95259">
        <ele>288.6</ele>
        <time>2023-09-02T15:43:12Z</time>
      </trkpt>
      <trkpt lat="45.93618" lon="4.95259">
        <ele>288.6</ele>
        <time>2023-09-02T15:43:13Z</time>
      </trkpt>
      <trkpt lat="45.93615" lon="4.95259">
        <ele>288.7</ele>
        <time>2023-09-02T15:43:14Z</time>
      </trkpt>
      <trkpt lat="45.93611" lon="4.95259">
        <ele>288.7</ele>
        <time>2023-09-02T15:43:15Z</time>
      </trkpt>
      <trkpt lat="45.93608" lon="4.95259">
        <ele>288.7</ele>
        <time>2023-09-02T15:43:16Z</time>
      </trkpt>
      <trkpt lat="45.93604" lon="4.95258">
        <ele>288.8</ele>
        <time>2023-09-02T15:43:17Z</time>
      </trkpt>
      <trkpt lat="45.93601" lon="4.95258">
        <ele>288.8</ele>
        <time>2023-09-02T15:43:18Z</time>
      </trkpt>
      <trkpt lat="45.93597" lon="4.95257">
        <ele>288.9</ele>
        <time>2023-09-02T15:43:19Z</time>
      </trkpt>
      <trkpt lat="45.93594" lon="4.95257">
        <ele>288.9</ele>
        <time>2023-09-02T15:43:20Z</time>
      </trkpt>
      <trkpt lat="45.93591" lon="4.95258">
        <ele>288.9</ele>
        <time>2023-09-02T15:43:21Z</time>
      </trkpt>
      <trkpt lat="45.93588" lon="4.9526">
        <ele>289</ele>
        <time>2023-09-02T15:43:22Z</time>
      </trkpt>
      <trkpt lat="45.93585" lon="4.95262">
        <ele>289</ele>
        <time>2023-09-02T15:43:23Z</time>
      </trkpt>
      <trkpt lat="45.93583" lon="4.95266">
        <ele>289</ele>
        <time>2023-09-02T15:43:24Z</time>
      </trkpt>
      <trkpt lat="45.93582" lon="4.9527">
        <ele>289.1</ele>
        <time>2023-09-02T15:43:25Z</time>
      </trkpt>
      <trkpt lat="45.93581" lon="4.95275">
        <ele>289.1</ele>
        <time>2023-09-02T15:43:26Z</time>
      </trkpt>
      <trkpt lat="45.9358" lon="4.95279">
        <ele>289.1</ele>
        <time>2023-09-02T15:43:27Z</time>
      </trkpt>
      <trkpt lat="45.93579" lon="4.95284">
        <ele>289.1</ele>
        <time>2023-09-02T15:43:28Z</time>
      </trkpt>
      <trkpt lat="45.93578" lon="4.95288">
        <ele>289.1</ele>
        <time>2023-09-02T15:43:29Z</time>
      </trkpt>
      <trkpt lat="45.93577" lon="4.95293">
        <ele>289.1</ele>
        <time>2023-09-02T15:43:30Z</time>
      </trkpt>
      <trkpt lat="45.93575" lon="4.95298">
        <ele>289.1</ele>
        <time>2023-09-02T15:43:31Z</time>
      </trkpt>
      <trkpt lat="45.93575" lon="4.95302">
        <ele>289.2</ele>
        <time>2023-09-02T15:43:32Z</time>
      </trkpt>
      <trkpt lat="45.93574" lon="4.95307">
        <ele>289.2</ele>
        <time>2023-09-02T15:43:33Z</time>
      </trkpt>
      <trkpt lat="45.93572" lon="4.95311">
        <ele>289.2</ele>
        <time>2023-09-02T15:43:34Z</time>
      </trkpt>
      <trkpt lat="45.93571" lon="4.95316">
        <ele>289.1</ele>
        <time>2023-09-02T15:43:35Z</time>
      </trkpt>
      <trkpt lat="45.9357" lon="4.95321">
        <ele>289.1</ele>
        <time>2023-09-02T15:43:36Z</time>
      </trkpt>
      <trkpt lat="45.93569" lon="4.95325">
        <ele>289.1</ele>
        <time>2023-09-02T15:43:37Z</time>
      </trkpt>
      <trkpt lat="45.93568" lon="4.9533">
        <ele>289.1</ele>
        <time>2023-09-02T15:43:38Z</time>
      </trkpt>
      <trkpt lat="45.93567" lon="4.95335">
        <ele>289.1</ele>
        <time>2023-09-02T15:43:39Z</time>
      </trkpt>
      <trkpt lat="45.93566" lon="4.9534">
        <ele>289.1</ele>
        <time>2023-09-02T15:43:40Z</time>
      </trkpt>
      <trkpt lat="45.93564" lon="4.95344">
        <ele>289.1</ele>
        <time>2023-09-02T15:43:41Z</time>
      </trkpt>
      <trkpt lat="45.93563" lon="4.95349">
        <ele>289.1</ele>
        <time>2023-09-02T15:43:42Z</time>
      </trkpt>
      <trkpt lat="45.93561" lon="4.95353">
        <ele>289.1</ele>
        <time>2023-09-02T15:43:43Z</time>
      </trkpt>
      <trkpt lat="45.93559" lon="4.95357">
        <ele>289.1</ele>
        <time>2023-09-02T15:43:44Z</time>
      </trkpt>
      <trkpt lat="45.93556" lon="4.9536">
        <ele>289.1</ele>
        <time>2023-09-02T15:43:45Z</time>
      </trkpt>
      <trkpt lat="45.93553" lon="4.95362">
        <ele>289.1</ele>
        <time>2023-09-02T15:43:46Z</time>
      </trkpt>
      <trkpt lat="45.9355" lon="4.95365">
        <ele>289.1</ele>
        <time>2023-09-02T15:43:47Z</time>
      </trkpt>
      <trkpt lat="45.93547" lon="4.95367">
        <ele>289.1</ele>
        <time>2023-09-02T15:43:48Z</time>
      </trkpt>
      <trkpt lat="45.93545" lon="4.9537">
        <ele>289.1</ele>
        <time>2023-09-02T15:43:49Z</time>
      </trkpt>
      <trkpt lat="45.93542" lon="4.95372">
        <ele>289.1</ele>
        <time>2023-09-02T15:43:50Z</time>
      </trkpt>
      <trkpt lat="45.93539" lon="4.95374">
        <ele>289.2</ele>
        <time>2023-09-02T15:43:51Z</time>
      </trkpt>
      <trkpt lat="45.93536" lon="4.95376">
        <ele>289.2</ele>
        <time>2023-09-02T15:43:52Z</time>
      </trkpt>
      <trkpt lat="45.93533" lon="4.95378">
        <ele>289.2</ele>
        <time>2023-09-02T15:43:53Z</time>
      </trkpt>
      <trkpt lat="45.9353" lon="4.95381">
        <ele>289.2</ele>
        <time>2023-09-02T15:43:54Z</time>
      </trkpt>
      <trkpt lat="45.93528" lon="4.95383">
        <ele>289.2</ele>
        <time>2023-09-02T15:43:55Z</time>
      </trkpt>
      <trkpt lat="45.93525" lon="4.95385">
        <ele>289.2</ele>
        <time>2023-09-02T15:43:56Z</time>
      </trkpt>
      <trkpt lat="45.93522" lon="4.95387">
        <ele>289.2</ele>
        <time>2023-09-02T15:43:57Z</time>
      </trkpt>
      <trkpt lat="45.93519" lon="4.95389">
        <ele>289.2</ele>
        <time>2023-09-02T15:43:58Z</time>
      </trkpt>
      <trkpt lat="45.93516" lon="4.95391">
        <ele>289.2</ele>
        <time>2023-09-02T15:43:59Z</time>
      </trkpt>
      <trkpt lat="45.93513" lon="4.95394">
        <ele>289.2</ele>
        <time>2023-09-02T15:44:00Z</time>
      </trkpt>
      <trkpt lat="45.9351" lon="4.95396">
        <ele>289.2</ele>
        <time>2023-09-02T15:44:01Z</time>
      </trkpt>
      <trkpt lat="45.93507" lon="4.95397">
        <ele>289.2</ele>
        <time>2023-09-02T15:44:02Z</time>
      </trkpt>
      <trkpt lat="45.93503" lon="4.95399">
        <ele>289.2</ele>
        <time>2023-09-02T15:44:03Z</time>
      </trkpt>
      <trkpt lat="45.935" lon="4.95401">
        <ele>289.2</ele>
        <time>2023-09-02T15:44:04Z</time>
      </trkpt>
      <trkpt lat="45.93497" lon="4.95402">
        <ele>289.3</ele>
        <time>2023-09-02T15:44:05Z</time>
      </trkpt>
      <trkpt lat="45.93494" lon="4.95404">
        <ele>289.4</ele>
        <time>2023-09-02T15:44:06Z</time>
      </trkpt>
      <trkpt lat="45.93491" lon="4.95406">
        <ele>289.5</ele>
        <time>2023-09-02T15:44:07Z</time>
      </trkpt>
      <trkpt lat="45.93489" lon="4.95407">
        <ele>289.6</ele>
        <time>2023-09-02T15:44:08Z</time>
      </trkpt>
      <trkpt lat="45.93485" lon="4.95408">
        <ele>289.7</ele>
        <time>2023-09-02T15:44:09Z</time>
      </trkpt>
      <trkpt lat="45.93485" lon="4.95409">
        <ele>289.8</ele>
        <time>2023-09-02T15:44:10Z</time>
      </trkpt>
      <trkpt lat="45.93483" lon="4.95409">
        <ele>289.8</ele>
        <time>2023-09-02T15:44:11Z</time>
      </trkpt>
      <trkpt lat="45.93482" lon="4.9541">
        <ele>289.9</ele>
        <time>2023-09-02T15:44:12Z</time>
      </trkpt>
      <trkpt lat="45.93482" lon="4.95409">
        <ele>289.7</ele>
        <time>2023-09-02T13:51:25Z</time>
      </trkpt>
      <trkpt lat="45.93482" lon="4.95409">
        <ele>289.7</ele>
        <time>2023-09-02T13:51:25Z</time>
      </trkpt>
      <trkpt lat="45.93479" lon="4.95406">
        <ele>290.1</ele>
        <time>2023-09-02T13:51:26Z</time>
      </trkpt>
      <trkpt lat="45.93477" lon="4.95402">
        <ele>290.1</ele>
        <time>2023-09-02T13:51:27Z</time>
      </trkpt>
      <trkpt lat="45.93475" lon="4.95399">
        <ele>290.1</ele>
        <time>2023-09-02T13:51:28Z</time>
      </trkpt>
      <trkpt lat="45.93473" lon="4.95396">
        <ele>290.2</ele>
        <time>2023-09-02T13:51:29Z</time>
      </trkpt>
      <trkpt lat="45.9347" lon="4.95393">
        <ele>290.2</ele>
        <time>2023-09-02T13:51:30Z</time>
      </trkpt>
      <trkpt lat="45.93468" lon="4.95389">
        <ele>290.2</ele>
        <time>2023-09-02T13:51:31Z</time>
      </trkpt>
      <trkpt lat="45.93465" lon="4.95386">
        <ele>290.2</ele>
        <time>2023-09-02T13:51:32Z</time>
      </trkpt>
      <trkpt lat="45.93463" lon="4.95383">
        <ele>290.3</ele>
        <time>2023-09-02T13:51:33Z</time>
      </trkpt>
      <trkpt lat="45.9346" lon="4.95379">
        <ele>290.3</ele>
        <time>2023-09-02T13:51:34Z</time>
      </trkpt>
      <trkpt lat="45.93458" lon="4.95376">
        <ele>290.3</ele>
        <time>2023-09-02T13:51:35Z</time>
      </trkpt>
      <trkpt lat="45.93456" lon="4.95372">
        <ele>290.3</ele>
        <time>2023-09-02T13:51:36Z</time>
      </trkpt>
      <trkpt lat="45.93454" lon="4.95369">
        <ele>290.3</ele>
        <time>2023-09-02T13:51:37Z</time>
      </trkpt>
      <trkpt lat="45.93452" lon="4.95365">
        <ele>290.4</ele>
        <time>2023-09-02T13:51:38Z</time>
      </trkpt>
      <trkpt lat="45.9345" lon="4.95362">
        <ele>290.4</ele>
        <time>2023-09-02T13:51:39Z</time>
      </trkpt>
      <trkpt lat="45.93447" lon="4.9536">
        <ele>290.5</ele>
        <time>2023-09-02T13:51:40Z</time>
      </trkpt>
      <trkpt lat="45.93445" lon="4.95357">
        <ele>290.5</ele>
        <time>2023-09-02T13:51:41Z</time>
      </trkpt>
      <trkpt lat="45.93443" lon="4.95353">
        <ele>290.6</ele>
        <time>2023-09-02T13:51:42Z</time>
      </trkpt>
      <trkpt lat="45.93441" lon="4.9535">
        <ele>290.6</ele>
        <time>2023-09-02T13:51:43Z</time>
      </trkpt>
      <trkpt lat="45.93439" lon="4.95347">
        <ele>290.7</ele>
        <time>2023-09-02T13:51:44Z</time>
      </trkpt>
      <trkpt lat="45.93437" lon="4.95344">
        <ele>290.8</ele>
        <time>2023-09-02T13:51:45Z</time>
      </trkpt>
      <trkpt lat="45.93435" lon="4.95341">
        <ele>290.8</ele>
        <time>2023-09-02T13:51:46Z</time>
      </trkpt>
      <trkpt lat="45.93432" lon="4.95337">
        <ele>290.9</ele>
        <time>2023-09-02T13:51:47Z</time>
      </trkpt>
      <trkpt lat="45.9343" lon="4.95335">
        <ele>291</ele>
        <time>2023-09-02T13:51:48Z</time>
      </trkpt>
      <trkpt lat="45.93429" lon="4.95331">
        <ele>291.1</ele>
        <time>2023-09-02T13:51:49Z</time>
      </trkpt>
      <trkpt lat="45.93427" lon="4.95328">
        <ele>291.1</ele>
        <time>2023-09-02T13:51:50Z</time>
      </trkpt>
      <trkpt lat="45.93425" lon="4.95325">
        <ele>291.2</ele>
        <time>2023-09-02T13:51:51Z</time>
      </trkpt>
      <trkpt lat="45.93423" lon="4.95322">
        <ele>291.3</ele>
        <time>2023-09-02T13:51:52Z</time>
      </trkpt>
      <trkpt lat="45.9342" lon="4.95319">
        <ele>291.3</ele>
        <time>2023-09-02T13:51:53Z</time>
      </trkpt>
      <trkpt lat="45.93418" lon="4.95316">
        <ele>291.3</ele>
        <time>2023-09-02T13:51:54Z</time>
      </trkpt>
      <trkpt lat="45.93416" lon="4.95313">
        <ele>291.4</ele>
        <time>2023-09-02T13:51:55Z</time>
      </trkpt>
      <trkpt lat="45.93414" lon="4.95311">
        <ele>291.4</ele>
        <time>2023-09-02T13:51:56Z</time>
      </trkpt>
      <trkpt lat="45.93412" lon="4.95308">
        <ele>291.5</ele>
        <time>2023-09-02T13:51:57Z</time>
      </trkpt>
      <trkpt lat="45.9341" lon="4.95305">
        <ele>291.5</ele>
        <time>2023-09-02T13:51:58Z</time>
      </trkpt>
      <trkpt lat="45.93407" lon="4.95302">
        <ele>291.6</ele>
        <time>2023-09-02T13:51:59Z</time>
      </trkpt>
      <trkpt lat="45.93405" lon="4.95299">
        <ele>291.7</ele>
        <time>2023-09-02T13:52:00Z</time>
      </trkpt>
      <trkpt lat="45.93403" lon="4.95296">
        <ele>291.8</ele>
        <time>2023-09-02T13:52:01Z</time>
      </trkpt>
      <trkpt lat="45.934" lon="4.95292">
        <ele>292</ele>
        <time>2023-09-02T13:52:02Z</time>
      </trkpt>
      <trkpt lat="45.93399" lon="4.95291">
        <ele>292</ele>
        <time>2023-09-02T13:52:03Z</time>
      </trkpt>
      <trkpt lat="45.93397" lon="4.95288">
        <ele>292.1</ele>
        <time>2023-09-02T13:52:04Z</time>
      </trkpt>
      <trkpt lat="45.93395" lon="4.95285">
        <ele>292.2</ele>
        <time>2023-09-02T13:52:05Z</time>
      </trkpt>
      <trkpt lat="45.93393" lon="4.95282">
        <ele>292.3</ele>
        <time>2023-09-02T13:52:06Z</time>
      </trkpt>
      <trkpt lat="45.93391" lon="4.95279">
        <ele>292.4</ele>
        <time>2023-09-02T13:52:07Z</time>
      </trkpt>
      <trkpt lat="45.93389" lon="4.95276">
        <ele>292.5</ele>
        <time>2023-09-02T13:52:08Z</time>
      </trkpt>
      <trkpt lat="45.93386" lon="4.95273">
        <ele>292.7</ele>
        <time>2023-09-02T13:52:09Z</time>
      </trkpt>
      <trkpt lat="45.93383" lon="4.95269">
        <ele>292.8</ele>
        <time>2023-09-02T13:52:10Z</time>
      </trkpt>
      <trkpt lat="45.93382" lon="4.95268">
        <ele>292.9</ele>
        <time>2023-09-02T13:52:11Z</time>
      </trkpt>
      <trkpt lat="45.93379" lon="4.95264">
        <ele>293</ele>
        <time>2023-09-02T13:52:12Z</time>
      </trkpt>
      <trkpt lat="45.93378" lon="4.95262">
        <ele>293.1</ele>
        <time>2023-09-02T13:52:13Z</time>
      </trkpt>
      <trkpt lat="45.93375" lon="4.95258">
        <ele>293.2</ele>
        <time>2023-09-02T13:52:14Z</time>
      </trkpt>
      <trkpt lat="45.93374" lon="4.95257">
        <ele>293.3</ele>
        <time>2023-09-02T13:52:15Z</time>
      </trkpt>
      <trkpt lat="45.93371" lon="4.95253">
        <ele>293.4</ele>
        <time>2023-09-02T13:52:16Z</time>
      </trkpt>
      <trkpt lat="45.9337" lon="4.95252">
        <ele>293.5</ele>
        <time>2023-09-02T13:52:17Z</time>
      </trkpt>
      <trkpt lat="45.93367" lon="4.95248">
        <ele>293.7</ele>
        <time>2023-09-02T13:52:18Z</time>
      </trkpt>
      <trkpt lat="45.93366" lon="4.95246">
        <ele>293.8</ele>
        <time>2023-09-02T13:52:19Z</time>
      </trkpt>
      <trkpt lat="45.93364" lon="4.95243">
        <ele>294</ele>
        <time>2023-09-02T13:52:20Z</time>
      </trkpt>
      <trkpt lat="45.93363" lon="4.95241">
        <ele>294</ele>
        <time>2023-09-02T13:52:21Z</time>
      </trkpt>
      <trkpt lat="45.93361" lon="4.95239">
        <ele>294.2</ele>
        <time>2023-09-02T13:52:22Z</time>
      </trkpt>
      <trkpt lat="45.93358" lon="4.95235">
        <ele>294.4</ele>
        <time>2023-09-02T13:52:23Z</time>
      </trkpt>
      <trkpt lat="45.93357" lon="4.95234">
        <ele>294.5</ele>
        <time>2023-09-02T13:52:24Z</time>
      </trkpt>
      <trkpt lat="45.93354" lon="4.95231">
        <ele>294.7</ele>
        <time>2023-09-02T13:52:25Z</time>
      </trkpt>
      <trkpt lat="45.93353" lon="4.9523">
        <ele>294.8</ele>
        <time>2023-09-02T13:52:26Z</time>
      </trkpt>
      <trkpt lat="45.93351" lon="4.95227">
        <ele>295</ele>
        <time>2023-09-02T13:52:27Z</time>
      </trkpt>
      <trkpt lat="45.9335" lon="4.95226">
        <ele>295.1</ele>
        <time>2023-09-02T13:52:28Z</time>
      </trkpt>
      <trkpt lat="45.93347" lon="4.95223">
        <ele>295.3</ele>
        <time>2023-09-02T13:52:29Z</time>
      </trkpt>
      <trkpt lat="45.93346" lon="4.95222">
        <ele>295.4</ele>
        <time>2023-09-02T13:52:30Z</time>
      </trkpt>
      <trkpt lat="45.93344" lon="4.95219">
        <ele>295.7</ele>
        <time>2023-09-02T13:52:31Z</time>
      </trkpt>
      <trkpt lat="45.93343" lon="4.95218">
        <ele>295.8</ele>
        <time>2023-09-02T13:52:32Z</time>
      </trkpt>
      <trkpt lat="45.9334" lon="4.95215">
        <ele>296</ele>
        <time>2023-09-02T13:52:33Z</time>
      </trkpt>
      <trkpt lat="45.93339" lon="4.95214">
        <ele>296.2</ele>
        <time>2023-09-02T13:52:34Z</time>
      </trkpt>
      <trkpt lat="45.93337" lon="4.95211">
        <ele>296.5</ele>
        <time>2023-09-02T13:52:35Z</time>
      </trkpt>
      <trkpt lat="45.93336" lon="4.95211">
        <ele>296.6</ele>
        <time>2023-09-02T13:52:36Z</time>
      </trkpt>
      <trkpt lat="45.93333" lon="4.95208">
        <ele>296.8</ele>
        <time>2023-09-02T13:52:37Z</time>
      </trkpt>
      <trkpt lat="45.93332" lon="4.95208">
        <ele>296.9</ele>
        <time>2023-09-02T13:52:38Z</time>
      </trkpt>
      <trkpt lat="45.93329" lon="4.95206">
        <ele>297.2</ele>
        <time>2023-09-02T13:52:39Z</time>
      </trkpt>
      <trkpt lat="45.93328" lon="4.95205">
        <ele>297.3</ele>
        <time>2023-09-02T13:52:40Z</time>
      </trkpt>
      <trkpt lat="45.93326" lon="4.95203">
        <ele>297.6</ele>
        <time>2023-09-02T13:52:41Z</time>
      </trkpt>
      <trkpt lat="45.93325" lon="4.95202">
        <ele>297.7</ele>
        <time>2023-09-02T13:52:42Z</time>
      </trkpt>
      <trkpt lat="45.93322" lon="4.952">
        <ele>298</ele>
        <time>2023-09-02T13:52:43Z</time>
      </trkpt>
      <trkpt lat="45.93322" lon="4.952">
        <ele>298</ele>
        <time>2023-09-02T13:52:44Z</time>
      </trkpt>
      <trkpt lat="45.93319" lon="4.95198">
        <ele>298.3</ele>
        <time>2023-09-02T13:52:45Z</time>
      </trkpt>
      <trkpt lat="45.93318" lon="4.95197">
        <ele>298.4</ele>
        <time>2023-09-02T13:52:46Z</time>
      </trkpt>
      <trkpt lat="45.93317" lon="4.95197">
        <ele>298.6</ele>
        <time>2023-09-02T13:52:47Z</time>
      </trkpt>
      <trkpt lat="45.93315" lon="4.95196">
        <ele>298.7</ele>
        <time>2023-09-02T13:52:48Z</time>
      </trkpt>
      <trkpt lat="45.93314" lon="4.95196">
        <ele>298.8</ele>
        <time>2023-09-02T13:52:49Z</time>
      </trkpt>
      <trkpt lat="45.93313" lon="4.95196">
        <ele>298.9</ele>
        <time>2023-09-02T13:52:50Z</time>
      </trkpt>
      <trkpt lat="45.93312" lon="4.95196">
        <ele>298.9</ele>
        <time>2023-09-02T13:52:51Z</time>
      </trkpt>
      <trkpt lat="45.93312" lon="4.95195">
        <ele>299</ele>
        <time>2023-09-02T13:52:52Z</time>
      </trkpt>
      <trkpt lat="45.93311" lon="4.95194">
        <ele>299.1</ele>
        <time>2023-09-02T13:52:53Z</time>
      </trkpt>
      <trkpt lat="45.93309" lon="4.95194">
        <ele>299.2</ele>
        <time>2023-09-02T13:52:54Z</time>
      </trkpt>
      <trkpt lat="45.93306" lon="4.95194">
        <ele>299.4</ele>
        <time>2023-09-02T13:52:55Z</time>
      </trkpt>
      <trkpt lat="45.93305" lon="4.95195">
        <ele>299.5</ele>
        <time>2023-09-02T13:52:56Z</time>
      </trkpt>
      <trkpt lat="45.93302" lon="4.95197">
        <ele>299.6</ele>
        <time>2023-09-02T13:52:57Z</time>
      </trkpt>
      <trkpt lat="45.93301" lon="4.95199">
        <ele>299.7</ele>
        <time>2023-09-02T13:52:58Z</time>
      </trkpt>
      <trkpt lat="45.93299" lon="4.95202">
        <ele>299.8</ele>
        <time>2023-09-02T13:52:59Z</time>
      </trkpt>
      <trkpt lat="45.93298" lon="4.95204">
        <ele>299.9</ele>
        <time>2023-09-02T13:53:00Z</time>
      </trkpt>
      <trkpt lat="45.93296" lon="4.95207">
        <ele>300.1</ele>
        <time>2023-09-02T13:53:01Z</time>
      </trkpt>
      <trkpt lat="45.93295" lon="4.95208">
        <ele>300.1</ele>
        <time>2023-09-02T13:53:02Z</time>
      </trkpt>
      <trkpt lat="45.93293" lon="4.95212">
        <ele>300.3</ele>
        <time>2023-09-02T13:53:03Z</time>
      </trkpt>
      <trkpt lat="45.93292" lon="4.95213">
        <ele>300.4</ele>
        <time>2023-09-02T13:53:04Z</time>
      </trkpt>
      <trkpt lat="45.9329" lon="4.95216">
        <ele>300.5</ele>
        <time>2023-09-02T13:53:05Z</time>
      </trkpt>
      <trkpt lat="45.93289" lon="4.95217">
        <ele>300.6</ele>
        <time>2023-09-02T13:53:06Z</time>
      </trkpt>
      <trkpt lat="45.93287" lon="4.9522">
        <ele>300.7</ele>
        <time>2023-09-02T13:53:07Z</time>
      </trkpt>
      <trkpt lat="45.93286" lon="4.95221">
        <ele>300.8</ele>
        <time>2023-09-02T13:53:08Z</time>
      </trkpt>
      <trkpt lat="45.93283" lon="4.95224">
        <ele>300.9</ele>
        <time>2023-09-02T13:53:09Z</time>
      </trkpt>
      <trkpt lat="45.93282" lon="4.95224">
        <ele>301</ele>
        <time>2023-09-02T13:53:10Z</time>
      </trkpt>
      <trkpt lat="45.93279" lon="4.95228">
        <ele>301.1</ele>
        <time>2023-09-02T13:53:11Z</time>
      </trkpt>
      <trkpt lat="45.93278" lon="4.95229">
        <ele>301.1</ele>
        <time>2023-09-02T13:53:12Z</time>
      </trkpt>
      <trkpt lat="45.93275" lon="4.95231">
        <ele>301.2</ele>
        <time>2023-09-02T13:53:13Z</time>
      </trkpt>
      <trkpt lat="45.93274" lon="4.95231">
        <ele>301.2</ele>
        <time>2023-09-02T13:53:14Z</time>
      </trkpt>
      <trkpt lat="45.93271" lon="4.95234">
        <ele>301.3</ele>
        <time>2023-09-02T13:53:15Z</time>
      </trkpt>
      <trkpt lat="45.9327" lon="4.95235">
        <ele>301.4</ele>
        <time>2023-09-02T13:53:16Z</time>
      </trkpt>
      <trkpt lat="45.93267" lon="4.95237">
        <ele>301.5</ele>
        <time>2023-09-02T13:53:17Z</time>
      </trkpt>
      <trkpt lat="45.93266" lon="4.95238">
        <ele>301.5</ele>
        <time>2023-09-02T13:53:18Z</time>
      </trkpt>
      <trkpt lat="45.93263" lon="4.9524">
        <ele>301.6</ele>
        <time>2023-09-02T13:53:19Z</time>
      </trkpt>
      <trkpt lat="45.93262" lon="4.95241">
        <ele>301.7</ele>
        <time>2023-09-02T13:53:20Z</time>
      </trkpt>
      <trkpt lat="45.93259" lon="4.95242">
        <ele>301.7</ele>
        <time>2023-09-02T13:53:21Z</time>
      </trkpt>
      <trkpt lat="45.93256" lon="4.95244">
        <ele>301.9</ele>
        <time>2023-09-02T13:53:22Z</time>
      </trkpt>
      <trkpt lat="45.93254" lon="4.95244">
        <ele>301.9</ele>
        <time>2023-09-02T13:53:23Z</time>
      </trkpt>
      <trkpt lat="45.93251" lon="4.95245">
        <ele>302</ele>
        <time>2023-09-02T13:53:24Z</time>
      </trkpt>
      <trkpt lat="45.9325" lon="4.95246">
        <ele>302</ele>
        <time>2023-09-02T13:53:25Z</time>
      </trkpt>
      <trkpt lat="45.93246" lon="4.95247">
        <ele>302.1</ele>
        <time>2023-09-02T13:53:26Z</time>
      </trkpt>
      <trkpt lat="45.93245" lon="4.95248">
        <ele>302.2</ele>
        <time>2023-09-02T13:53:27Z</time>
      </trkpt>
      <trkpt lat="45.93242" lon="4.95249">
        <ele>302.2</ele>
        <time>2023-09-02T13:53:28Z</time>
      </trkpt>
      <trkpt lat="45.9324" lon="4.95249">
        <ele>302.3</ele>
        <time>2023-09-02T13:53:29Z</time>
      </trkpt>
      <trkpt lat="45.93237" lon="4.95251">
        <ele>302.3</ele>
        <time>2023-09-02T13:53:30Z</time>
      </trkpt>
      <trkpt lat="45.93236" lon="4.95251">
        <ele>302.3</ele>
        <time>2023-09-02T13:53:31Z</time>
      </trkpt>
      <trkpt lat="45.93233" lon="4.95252">
        <ele>302.3</ele>
        <time>2023-09-02T13:53:32Z</time>
      </trkpt>
      <trkpt lat="45.9323" lon="4.95254">
        <ele>302.3</ele>
        <time>2023-09-02T13:53:33Z</time>
      </trkpt>
      <trkpt lat="45.93227" lon="4.95255">
        <ele>302.3</ele>
        <time>2023-09-02T13:53:34Z</time>
      </trkpt>
      <trkpt lat="45.93226" lon="4.95256">
        <ele>302.3</ele>
        <time>2023-09-02T13:53:35Z</time>
      </trkpt>
      <trkpt lat="45.93223" lon="4.95257">
        <ele>302.3</ele>
        <time>2023-09-02T13:53:36Z</time>
      </trkpt>
      <trkpt lat="45.9322" lon="4.95258">
        <ele>302.2</ele>
        <time>2023-09-02T13:53:37Z</time>
      </trkpt>
      <trkpt lat="45.93217" lon="4.9526">
        <ele>302.1</ele>
        <time>2023-09-02T13:53:38Z</time>
      </trkpt>
      <trkpt lat="45.93214" lon="4.95261">
        <ele>302.1</ele>
        <time>2023-09-02T13:53:39Z</time>
      </trkpt>
      <trkpt lat="45.93211" lon="4.95263">
        <ele>302</ele>
        <time>2023-09-02T13:53:40Z</time>
      </trkpt>
      <trkpt lat="45.93208" lon="4.95265">
        <ele>301.9</ele>
        <time>2023-09-02T13:53:41Z</time>
      </trkpt>
      <trkpt lat="45.93205" lon="4.95266">
        <ele>301.8</ele>
        <time>2023-09-02T13:53:42Z</time>
      </trkpt>
      <trkpt lat="45.93201" lon="4.95268">
        <ele>301.6</ele>
        <time>2023-09-02T13:53:43Z</time>
      </trkpt>
      <trkpt lat="45.93198" lon="4.9527">
        <ele>301.5</ele>
        <time>2023-09-02T13:53:44Z</time>
      </trkpt>
      <trkpt lat="45.93194" lon="4.95272">
        <ele>301.4</ele>
        <time>2023-09-02T13:53:45Z</time>
      </trkpt>
      <trkpt lat="45.9319" lon="4.95274">
        <ele>301.3</ele>
        <time>2023-09-02T13:53:46Z</time>
      </trkpt>
      <trkpt lat="45.93186" lon="4.95277">
        <ele>301.2</ele>
        <time>2023-09-02T13:53:47Z</time>
      </trkpt>
      <trkpt lat="45.93182" lon="4.95279">
        <ele>301.1</ele>
        <time>2023-09-02T13:53:48Z</time>
      </trkpt>
      <trkpt lat="45.93177" lon="4.95281">
        <ele>300.9</ele>
        <time>2023-09-02T13:53:49Z</time>
      </trkpt>
      <trkpt lat="45.93172" lon="4.95284">
        <ele>300.7</ele>
        <time>2023-09-02T13:53:50Z</time>
      </trkpt>
      <trkpt lat="45.93168" lon="4.95288">
        <ele>300.4</ele>
        <time>2023-09-02T13:53:51Z</time>
      </trkpt>
      <trkpt lat="45.93163" lon="4.95292">
        <ele>300</ele>
        <time>2023-09-02T13:53:52Z</time>
      </trkpt>
      <trkpt lat="45.93158" lon="4.95296">
        <ele>299.7</ele>
        <time>2023-09-02T13:53:53Z</time>
      </trkpt>
      <trkpt lat="45.93152" lon="4.95301">
        <ele>299.2</ele>
        <time>2023-09-02T13:53:54Z</time>
      </trkpt>
      <trkpt lat="45.93147" lon="4.95305">
        <ele>298.8</ele>
        <time>2023-09-02T13:53:55Z</time>
      </trkpt>
      <trkpt lat="45.93141" lon="4.9531">
        <ele>298.4</ele>
        <time>2023-09-02T13:53:56Z</time>
      </trkpt>
      <trkpt lat="45.93135" lon="4.95315">
        <ele>297.9</ele>
        <time>2023-09-02T13:53:57Z</time>
      </trkpt>
      <trkpt lat="45.93129" lon="4.9532">
        <ele>297.4</ele>
        <time>2023-09-02T13:53:58Z</time>
      </trkpt>
      <trkpt lat="45.93122" lon="4.95325">
        <ele>296.9</ele>
        <time>2023-09-02T13:53:59Z</time>
      </trkpt>
      <trkpt lat="45.93116" lon="4.95331">
        <ele>296.5</ele>
        <time>2023-09-02T13:54:00Z</time>
      </trkpt>
      <trkpt lat="45.93109" lon="4.95337">
        <ele>296</ele>
        <time>2023-09-02T13:54:01Z</time>
      </trkpt>
      <trkpt lat="45.93101" lon="4.95342">
        <ele>295.6</ele>
        <time>2023-09-02T13:54:02Z</time>
      </trkpt>
      <trkpt lat="45.93094" lon="4.95348">
        <ele>295.2</ele>
        <time>2023-09-02T13:54:03Z</time>
      </trkpt>
      <trkpt lat="45.93087" lon="4.95354">
        <ele>294.8</ele>
        <time>2023-09-02T13:54:04Z</time>
      </trkpt>
      <trkpt lat="45.9308" lon="4.9536">
        <ele>294.5</ele>
        <time>2023-09-02T13:54:05Z</time>
      </trkpt>
      <trkpt lat="45.93073" lon="4.95366">
        <ele>294.2</ele>
        <time>2023-09-02T13:54:06Z</time>
      </trkpt>
      <trkpt lat="45.93066" lon="4.95372">
        <ele>293.9</ele>
        <time>2023-09-02T13:54:07Z</time>
      </trkpt>
      <trkpt lat="45.93059" lon="4.95377">
        <ele>293.9</ele>
        <time>2023-09-02T13:54:08Z</time>
      </trkpt>
      <trkpt lat="45.93053" lon="4.95383">
        <ele>293.8</ele>
        <time>2023-09-02T13:54:09Z</time>
      </trkpt>
      <trkpt lat="45.93046" lon="4.95389">
        <ele>293.7</ele>
        <time>2023-09-02T13:54:10Z</time>
      </trkpt>
      <trkpt lat="45.9304" lon="4.95396">
        <ele>293.6</ele>
        <time>2023-09-02T13:54:11Z</time>
      </trkpt>
      <trkpt lat="45.93035" lon="4.95402">
        <ele>293.5</ele>
        <time>2023-09-02T13:54:12Z</time>
      </trkpt>
      <trkpt lat="45.9303" lon="4.95409">
        <ele>293.5</ele>
        <time>2023-09-02T13:54:13Z</time>
      </trkpt>
      <trkpt lat="45.93025" lon="4.95415">
        <ele>293.5</ele>
        <time>2023-09-02T13:54:14Z</time>
      </trkpt>
      <trkpt lat="45.9302" lon="4.95421">
        <ele>293.4</ele>
        <time>2023-09-02T13:54:15Z</time>
      </trkpt>
      <trkpt lat="45.93016" lon="4.95428">
        <ele>293.3</ele>
        <time>2023-09-02T13:54:16Z</time>
      </trkpt>
      <trkpt lat="45.93011" lon="4.95433">
        <ele>293.1</ele>
        <time>2023-09-02T13:54:17Z</time>
      </trkpt>
      <trkpt lat="45.93007" lon="4.95439">
        <ele>293</ele>
        <time>2023-09-02T13:54:18Z</time>
      </trkpt>
      <trkpt lat="45.93002" lon="4.95444">
        <ele>292.9</ele>
        <time>2023-09-02T13:54:19Z</time>
      </trkpt>
      <trkpt lat="45.92998" lon="4.9545">
        <ele>292.7</ele>
        <time>2023-09-02T13:54:20Z</time>
      </trkpt>
      <trkpt lat="45.92993" lon="4.95456">
        <ele>292.6</ele>
        <time>2023-09-02T13:54:21Z</time>
      </trkpt>
      <trkpt lat="45.92989" lon="4.95462">
        <ele>292.5</ele>
        <time>2023-09-02T13:54:22Z</time>
      </trkpt>
      <trkpt lat="45.92984" lon="4.95467">
        <ele>292.5</ele>
        <time>2023-09-02T13:54:23Z</time>
      </trkpt>
      <trkpt lat="45.9298" lon="4.95472">
        <ele>292.4</ele>
        <time>2023-09-02T13:54:24Z</time>
      </trkpt>
      <trkpt lat="45.92975" lon="4.95478">
        <ele>292.3</ele>
        <time>2023-09-02T13:54:25Z</time>
      </trkpt>
      <trkpt lat="45.92971" lon="4.95483">
        <ele>292.3</ele>
        <time>2023-09-02T13:54:26Z</time>
      </trkpt>
      <trkpt lat="45.92967" lon="4.95488">
        <ele>292.2</ele>
        <time>2023-09-02T13:54:27Z</time>
      </trkpt>
      <trkpt lat="45.92963" lon="4.95492">
        <ele>292.1</ele>
        <time>2023-09-02T13:54:28Z</time>
      </trkpt>
      <trkpt lat="45.92958" lon="4.95496">
        <ele>292.1</ele>
        <time>2023-09-02T13:54:29Z</time>
      </trkpt>
      <trkpt lat="45.92953" lon="4.95499">
        <ele>292</ele>
        <time>2023-09-02T13:54:30Z</time>
      </trkpt>
      <trkpt lat="45.92948" lon="4.95502">
        <ele>292</ele>
        <time>2023-09-02T13:54:31Z</time>
      </trkpt>
      <trkpt lat="45.92943" lon="4.95505">
        <ele>292</ele>
        <time>2023-09-02T13:54:32Z</time>
      </trkpt>
      <trkpt lat="45.92939" lon="4.95507">
        <ele>291.9</ele>
        <time>2023-09-02T13:54:33Z</time>
      </trkpt>
      <trkpt lat="45.92935" lon="4.95509">
        <ele>291.9</ele>
        <time>2023-09-02T13:54:34Z</time>
      </trkpt>
      <trkpt lat="45.92931" lon="4.9551">
        <ele>291.9</ele>
        <time>2023-09-02T13:54:35Z</time>
      </trkpt>
      <trkpt lat="45.92927" lon="4.95511">
        <ele>291.9</ele>
        <time>2023-09-02T13:54:36Z</time>
      </trkpt>
      <trkpt lat="45.92923" lon="4.95511">
        <ele>292</ele>
        <time>2023-09-02T13:54:37Z</time>
      </trkpt>
      <trkpt lat="45.9292" lon="4.95511">
        <ele>292</ele>
        <time>2023-09-02T13:54:38Z</time>
      </trkpt>
      <trkpt lat="45.92916" lon="4.95514">
        <ele>292.1</ele>
        <time>2023-09-02T13:54:39Z</time>
      </trkpt>
      <trkpt lat="45.92913" lon="4.95517">
        <ele>292</ele>
        <time>2023-09-02T13:54:40Z</time>
      </trkpt>
      <trkpt lat="45.92911" lon="4.95521">
        <ele>292</ele>
        <time>2023-09-02T13:54:41Z</time>
      </trkpt>
      <trkpt lat="45.92909" lon="4.95526">
        <ele>292</ele>
        <time>2023-09-02T13:54:42Z</time>
      </trkpt>
      <trkpt lat="45.92907" lon="4.95531">
        <ele>291.9</ele>
        <time>2023-09-02T13:54:43Z</time>
      </trkpt>
      <trkpt lat="45.92906" lon="4.95538">
        <ele>291.8</ele>
        <time>2023-09-02T13:54:44Z</time>
      </trkpt>
      <trkpt lat="45.92907" lon="4.95544">
        <ele>291.8</ele>
        <time>2023-09-02T13:54:45Z</time>
      </trkpt>
      <trkpt lat="45.92907" lon="4.9555">
        <ele>291.7</ele>
        <time>2023-09-02T13:54:46Z</time>
      </trkpt>
      <trkpt lat="45.92906" lon="4.95557">
        <ele>291.6</ele>
        <time>2023-09-02T13:54:47Z</time>
      </trkpt>
      <trkpt lat="45.92905" lon="4.95563">
        <ele>291.6</ele>
        <time>2023-09-02T13:54:48Z</time>
      </trkpt>
      <trkpt lat="45.92903" lon="4.95569">
        <ele>291.5</ele>
        <time>2023-09-02T13:54:49Z</time>
      </trkpt>
      <trkpt lat="45.92901" lon="4.95574">
        <ele>291.5</ele>
        <time>2023-09-02T13:54:50Z</time>
      </trkpt>
      <trkpt lat="45.92899" lon="4.9558">
        <ele>291.4</ele>
        <time>2023-09-02T13:54:51Z</time>
      </trkpt>
      <trkpt lat="45.92897" lon="4.95585">
        <ele>291.3</ele>
        <time>2023-09-02T13:54:52Z</time>
      </trkpt>
      <trkpt lat="45.92894" lon="4.95589">
        <ele>291.3</ele>
        <time>2023-09-02T13:54:53Z</time>
      </trkpt>
      <trkpt lat="45.92892" lon="4.95594">
        <ele>291.2</ele>
        <time>2023-09-02T13:54:54Z</time>
      </trkpt>
      <trkpt lat="45.92889" lon="4.95598">
        <ele>291.2</ele>
        <time>2023-09-02T13:54:55Z</time>
      </trkpt>
      <trkpt lat="45.92886" lon="4.95602">
        <ele>291.2</ele>
        <time>2023-09-02T13:54:56Z</time>
      </trkpt>
      <trkpt lat="45.92883" lon="4.95606">
        <ele>291.2</ele>
        <time>2023-09-02T13:54:57Z</time>
      </trkpt>
      <trkpt lat="45.9288" lon="4.9561">
        <ele>291.1</ele>
        <time>2023-09-02T13:54:58Z</time>
      </trkpt>
      <trkpt lat="45.92878" lon="4.95614">
        <ele>291.1</ele>
        <time>2023-09-02T13:54:59Z</time>
      </trkpt>
      <trkpt lat="45.92875" lon="4.95618">
        <ele>291.1</ele>
        <time>2023-09-02T13:55:00Z</time>
      </trkpt>
      <trkpt lat="45.92872" lon="4.95622">
        <ele>291.1</ele>
        <time>2023-09-02T13:55:01Z</time>
      </trkpt>
      <trkpt lat="45.92869" lon="4.95626">
        <ele>291.1</ele>
        <time>2023-09-02T13:55:02Z</time>
      </trkpt>
      <trkpt lat="45.92866" lon="4.95629">
        <ele>291.1</ele>
        <time>2023-09-02T13:55:03Z</time>
      </trkpt>
      <trkpt lat="45.92863" lon="4.95633">
        <ele>291.1</ele>
        <time>2023-09-02T13:55:04Z</time>
      </trkpt>
      <trkpt lat="45.92861" lon="4.95636">
        <ele>291.1</ele>
        <time>2023-09-02T13:55:05Z</time>
      </trkpt>
      <trkpt lat="45.92858" lon="4.9564">
        <ele>291.1</ele>
        <time>2023-09-02T13:55:06Z</time>
      </trkpt>
      <trkpt lat="45.92855" lon="4.95643">
        <ele>291.1</ele>
        <time>2023-09-02T13:55:07Z</time>
      </trkpt>
      <trkpt lat="45.92852" lon="4.95646">
        <ele>291.2</ele>
        <time>2023-09-02T13:55:08Z</time>
      </trkpt>
      <trkpt lat="45.92849" lon="4.95646">
        <ele>291.2</ele>
        <time>2023-09-02T13:55:09Z</time>
      </trkpt>
      <trkpt lat="45.92846" lon="4.95647">
        <ele>291.2</ele>
        <time>2023-09-02T13:55:10Z</time>
      </trkpt>
      <trkpt lat="45.92842" lon="4.95648">
        <ele>291.2</ele>
        <time>2023-09-02T13:55:11Z</time>
      </trkpt>
      <trkpt lat="45.92839" lon="4.95651">
        <ele>291.2</ele>
        <time>2023-09-02T13:55:12Z</time>
      </trkpt>
      <trkpt lat="45.92837" lon="4.95655">
        <ele>291.2</ele>
        <time>2023-09-02T13:55:13Z</time>
      </trkpt>
      <trkpt lat="45.92836" lon="4.95659">
        <ele>291.2</ele>
        <time>2023-09-02T13:55:14Z</time>
      </trkpt>
      <trkpt lat="45.92835" lon="4.95663">
        <ele>291.2</ele>
        <time>2023-09-02T13:55:15Z</time>
      </trkpt>
      <trkpt lat="45.92833" lon="4.95667">
        <ele>291.2</ele>
        <time>2023-09-02T13:55:16Z</time>
      </trkpt>
      <trkpt lat="45.92831" lon="4.95672">
        <ele>291.2</ele>
        <time>2023-09-02T13:55:17Z</time>
      </trkpt>
      <trkpt lat="45.92829" lon="4.95676">
        <ele>291.2</ele>
        <time>2023-09-02T13:55:18Z</time>
      </trkpt>
      <trkpt lat="45.92827" lon="4.95679">
        <ele>291.2</ele>
        <time>2023-09-02T13:55:19Z</time>
      </trkpt>
      <trkpt lat="45.92825" lon="4.95682">
        <ele>291.2</ele>
        <time>2023-09-02T13:55:20Z</time>
      </trkpt>
      <trkpt lat="45.92822" lon="4.95685">
        <ele>291.2</ele>
        <time>2023-09-02T13:55:21Z</time>
      </trkpt>
      <trkpt lat="45.9282" lon="4.95688">
        <ele>291.2</ele>
        <time>2023-09-02T13:55:22Z</time>
      </trkpt>
      <trkpt lat="45.92817" lon="4.9569">
        <ele>291.2</ele>
        <time>2023-09-02T13:55:23Z</time>
      </trkpt>
      <trkpt lat="45.92814" lon="4.95691">
        <ele>291.2</ele>
        <time>2023-09-02T13:55:24Z</time>
      </trkpt>
      <trkpt lat="45.92811" lon="4.95691">
        <ele>291.2</ele>
        <time>2023-09-02T13:55:25Z</time>
      </trkpt>
      <trkpt lat="45.92809" lon="4.95693">
        <ele>291.2</ele>
        <time>2023-09-02T13:55:26Z</time>
      </trkpt>
      <trkpt lat="45.92807" lon="4.95696">
        <ele>291.2</ele>
        <time>2023-09-02T13:55:27Z</time>
      </trkpt>
      <trkpt lat="45.92805" lon="4.95698">
        <ele>291.1</ele>
        <time>2023-09-02T13:55:28Z</time>
      </trkpt>
      <trkpt lat="45.92802" lon="4.95702">
        <ele>291.1</ele>
        <time>2023-09-02T13:55:29Z</time>
      </trkpt>
      <trkpt lat="45.92801" lon="4.95703">
        <ele>291.1</ele>
        <time>2023-09-02T13:55:30Z</time>
      </trkpt>
      <trkpt lat="45.92799" lon="4.95706">
        <ele>291.1</ele>
        <time>2023-09-02T13:55:31Z</time>
      </trkpt>
      <trkpt lat="45.92798" lon="4.95707">
        <ele>291.1</ele>
        <time>2023-09-02T13:55:32Z</time>
      </trkpt>
      <trkpt lat="45.92795" lon="4.9571">
        <ele>291.1</ele>
        <time>2023-09-02T13:55:33Z</time>
      </trkpt>
      <trkpt lat="45.92795" lon="4.95711">
        <ele>291.1</ele>
        <time>2023-09-02T13:55:34Z</time>
      </trkpt>
      <trkpt lat="45.92793" lon="4.95714">
        <ele>291.1</ele>
        <time>2023-09-02T13:55:35Z</time>
      </trkpt>
      <trkpt lat="45.9279" lon="4.95718">
        <ele>291.1</ele>
        <time>2023-09-02T13:55:36Z</time>
      </trkpt>
      <trkpt lat="45.92789" lon="4.95719">
        <ele>291.1</ele>
        <time>2023-09-02T13:55:37Z</time>
      </trkpt>
      <trkpt lat="45.92787" lon="4.95722">
        <ele>291.1</ele>
        <time>2023-09-02T13:55:38Z</time>
      </trkpt>
      <trkpt lat="45.92784" lon="4.95725">
        <ele>291.1</ele>
        <time>2023-09-02T13:55:39Z</time>
      </trkpt>
      <trkpt lat="45.92782" lon="4.95727">
        <ele>291.1</ele>
        <time>2023-09-02T13:55:40Z</time>
      </trkpt>
      <trkpt lat="45.9278" lon="4.9573">
        <ele>291.1</ele>
        <time>2023-09-02T13:55:41Z</time>
      </trkpt>
      <trkpt lat="45.92778" lon="4.95733">
        <ele>291.1</ele>
        <time>2023-09-02T13:55:42Z</time>
      </trkpt>
      <trkpt lat="45.92776" lon="4.95736">
        <ele>291.1</ele>
        <time>2023-09-02T13:55:43Z</time>
      </trkpt>
      <trkpt lat="45.92773" lon="4.95739">
        <ele>291.1</ele>
        <time>2023-09-02T13:55:44Z</time>
      </trkpt>
      <trkpt lat="45.92771" lon="4.95741">
        <ele>291.1</ele>
        <time>2023-09-02T13:55:45Z</time>
      </trkpt>
      <trkpt lat="45.92768" lon="4.95744">
        <ele>291.1</ele>
        <time>2023-09-02T13:55:46Z</time>
      </trkpt>
      <trkpt lat="45.92766" lon="4.95747">
        <ele>291</ele>
        <time>2023-09-02T13:55:47Z</time>
      </trkpt>
      <trkpt lat="45.92763" lon="4.9575">
        <ele>291</ele>
        <time>2023-09-02T13:55:48Z</time>
      </trkpt>
      <trkpt lat="45.92761" lon="4.95752">
        <ele>291</ele>
        <time>2023-09-02T13:55:49Z</time>
      </trkpt>
      <trkpt lat="45.92758" lon="4.95755">
        <ele>291</ele>
        <time>2023-09-02T13:55:50Z</time>
      </trkpt>
      <trkpt lat="45.92756" lon="4.95757">
        <ele>291</ele>
        <time>2023-09-02T13:55:51Z</time>
      </trkpt>
      <trkpt lat="45.92753" lon="4.9576">
        <ele>291</ele>
        <time>2023-09-02T13:55:52Z</time>
      </trkpt>
      <trkpt lat="45.9275" lon="4.95762">
        <ele>291</ele>
        <time>2023-09-02T13:55:53Z</time>
      </trkpt>
      <trkpt lat="45.92747" lon="4.95764">
        <ele>291</ele>
        <time>2023-09-02T13:55:54Z</time>
      </trkpt>
      <trkpt lat="45.92744" lon="4.95767">
        <ele>291</ele>
        <time>2023-09-02T13:55:55Z</time>
      </trkpt>
      <trkpt lat="45.9274" lon="4.95771">
        <ele>291</ele>
        <time>2023-09-02T13:55:56Z</time>
      </trkpt>
      <trkpt lat="45.92737" lon="4.95773">
        <ele>291</ele>
        <time>2023-09-02T13:55:57Z</time>
      </trkpt>
    </trkseg>
  </trk>
</gpx>